<?xml version='1.0' encoding='UTF-8'?><gpx version="1.1" creator="JPX - https://github.com/jenetics/jpx" xmlns="http://www.topografix.com/GPX/1/1"><trk><trkseg><trkpt lat="43.823775461324196" lon="11.146204323796299"><ele>36.0</ele><time>2026-05-02T07:39:39.999Z</time></trkpt><trkpt lat="43.82381664111165" lon="11.14607581775996"><ele>36.0</ele><time>2026-05-02T07:39:41.999Z</time></trkpt><trkpt lat="43.82388138725199" lon="11.145988547083588"><ele>36.0</ele><time>2026-05-02T07:39:42.999Z</time></trkpt><trkpt lat="43.82394016932681" lon="11.145900420620666"><ele>36.0</ele><time>2026-05-02T07:39:43.999Z</time></trkpt><trkpt lat="43.824013166303985" lon="11.14583036012789"><ele>36.0</ele><time>2026-05-02T07:39:44.999Z</time></trkpt><trkpt lat="43.82408066192723" lon="11.145738584246107"><ele>36.4</ele><time>2026-05-02T07:39:45.999Z</time></trkpt><trkpt lat="43.824140826902166" lon="11.14562591577874"><ele>36.8</ele><time>2026-05-02T07:39:46.999Z</time></trkpt><trkpt lat="43.82421801490625" lon="11.145531425155575"><ele>37.199999999999996</ele><time>2026-05-02T07:39:47.999Z</time></trkpt><trkpt lat="43.824293973356276" lon="11.145429253342778"><ele>37.6</ele><time>2026-05-02T07:39:48.999Z</time></trkpt><trkpt lat="43.82437200530511" lon="11.1453197259817"><ele>38.0</ele><time>2026-05-02T07:39:49.999Z</time></trkpt><trkpt lat="43.824454610961645" lon="11.14521208263802"><ele>38.0</ele><time>2026-05-02T07:39:50.999Z</time></trkpt><trkpt lat="43.82453450806558" lon="11.145112983459072"><ele>38.0</ele><time>2026-05-02T07:39:51.999Z</time></trkpt><trkpt lat="43.82461216019473" lon="11.14500186115274"><ele>38.0</ele><time>2026-05-02T07:39:52.999Z</time></trkpt><trkpt lat="43.824692511075284" lon="11.14489168538881"><ele>38.0</ele><time>2026-05-02T07:39:53.999Z</time></trkpt><trkpt lat="43.824776004889856" lon="11.144786169338348"><ele>38.0</ele><time>2026-05-02T07:39:54.999Z</time></trkpt><trkpt lat="43.824864464534855" lon="11.144717777784274"><ele>38.0</ele><time>2026-05-02T07:39:55.999Z</time></trkpt><trkpt lat="43.824964832241065" lon="11.144653219501079"><ele>38.0</ele><time>2026-05-02T07:39:56.999Z</time></trkpt><trkpt lat="43.82506556966334" lon="11.144620636962431"><ele>38.0</ele><time>2026-05-02T07:39:57.999Z</time></trkpt><trkpt lat="43.825152117114165" lon="11.144592147799521"><ele>38.0</ele><time>2026-05-02T07:39:58.999Z</time></trkpt><trkpt lat="43.825222308114455" lon="11.144556326044952"><ele>38.0</ele><time>2026-05-02T07:39:59.999Z</time></trkpt><trkpt lat="43.82528082929724" lon="11.144503481119694"><ele>38.0</ele><time>2026-05-02T07:40:00.999Z</time></trkpt><trkpt lat="43.82531969188199" lon="11.14442491829436"><ele>38.0</ele><time>2026-05-02T07:40:01.999Z</time></trkpt><trkpt lat="43.825345039712005" lon="11.144322087584463"><ele>38.0</ele><time>2026-05-02T07:40:02.999Z</time></trkpt><trkpt lat="43.82536554660242" lon="11.144197478984148"><ele>38.0</ele><time>2026-05-02T07:40:03.999Z</time></trkpt><trkpt lat="43.8253910692862" lon="11.144073235980418"><ele>38.0</ele><time>2026-05-02T07:40:04.999Z</time></trkpt><trkpt lat="43.825388521848225" lon="11.143949321447105"><ele>38.0</ele><time>2026-05-02T07:40:05.999Z</time></trkpt><trkpt lat="43.825471087858105" lon="11.143840725660983"><ele>37.8</ele><time>2026-05-02T07:40:06.999Z</time></trkpt><trkpt lat="43.825541995693236" lon="11.143727834851592"><ele>37.599999999999994</ele><time>2026-05-02T07:40:07.999Z</time></trkpt><trkpt lat="43.82561785281456" lon="11.1436271561211"><ele>37.400000000000006</ele><time>2026-05-02T07:40:09Z</time></trkpt><trkpt lat="43.825690496442846" lon="11.143528545935805"><ele>37.2</ele><time>2026-05-02T07:40:10Z</time></trkpt><trkpt lat="43.82576025855337" lon="11.143421016363089"><ele>37.0</ele><time>2026-05-02T07:40:11Z</time></trkpt><trkpt lat="43.8258391985841" lon="11.143316299037776"><ele>37.0</ele><time>2026-05-02T07:40:12Z</time></trkpt><trkpt lat="43.825915152655675" lon="11.143207463940639"><ele>37.0</ele><time>2026-05-02T07:40:13Z</time></trkpt><trkpt lat="43.825990486825475" lon="11.143112172916059"><ele>37.0</ele><time>2026-05-02T07:40:14Z</time></trkpt><trkpt lat="43.82606428132273" lon="11.143009645337834"><ele>37.0</ele><time>2026-05-02T07:40:15Z</time></trkpt><trkpt lat="43.8261380042426" lon="11.142913019285498"><ele>37.0</ele><time>2026-05-02T07:40:16Z</time></trkpt><trkpt lat="43.82621138431482" lon="11.14281165954736"><ele>37.0</ele><time>2026-05-02T07:40:17Z</time></trkpt><trkpt lat="43.82629335623675" lon="11.14269935570995"><ele>37.0</ele><time>2026-05-02T07:40:18Z</time></trkpt><trkpt lat="43.82638285016894" lon="11.142578181384634"><ele>37.0</ele><time>2026-05-02T07:40:19Z</time></trkpt><trkpt lat="43.82647561501081" lon="11.142461038603283"><ele>37.0</ele><time>2026-05-02T07:40:20Z</time></trkpt><trkpt lat="43.826563941190194" lon="11.142343422125656"><ele>37.25</ele><time>2026-05-02T07:40:21Z</time></trkpt><trkpt lat="43.826652975038755" lon="11.142228343108036"><ele>37.5</ele><time>2026-05-02T07:40:22Z</time></trkpt><trkpt lat="43.82673680545292" lon="11.142111839917666"><ele>37.75</ele><time>2026-05-02T07:40:23Z</time></trkpt><trkpt lat="43.82682043824559" lon="11.141999243417551"><ele>38.0</ele><time>2026-05-02T07:40:24Z</time></trkpt><trkpt lat="43.82689655546044" lon="11.14188217576262"><ele>38.0</ele><time>2026-05-02T07:40:25Z</time></trkpt><trkpt lat="43.826962264959015" lon="11.141761386333911"><ele>38.0</ele><time>2026-05-02T07:40:26Z</time></trkpt><trkpt lat="43.82701393879392" lon="11.141636877337028"><ele>38.0</ele><time>2026-05-02T07:40:27Z</time></trkpt><trkpt lat="43.82706706009361" lon="11.141497938867053"><ele>38.0</ele><time>2026-05-02T07:40:28Z</time></trkpt><trkpt lat="43.827112046028084" lon="11.141340253269355"><ele>38.0</ele><time>2026-05-02T07:40:29Z</time></trkpt><trkpt lat="43.82714611617221" lon="11.141167704184292"><ele>37.33333333333333</ele><time>2026-05-02T07:40:30Z</time></trkpt><trkpt lat="43.82717459544698" lon="11.140972506190282"><ele>36.666666666666664</ele><time>2026-05-02T07:40:31Z</time></trkpt><trkpt lat="43.82723243999589" lon="11.140761105585556"><ele>36.0</ele><time>2026-05-02T07:40:32Z</time></trkpt><trkpt lat="43.827275301637115" lon="11.14052174794986"><ele>36.0</ele><time>2026-05-02T07:40:33Z</time></trkpt><trkpt lat="43.82730506719475" lon="11.14027306772865"><ele>36.0</ele><time>2026-05-02T07:40:34Z</time></trkpt><trkpt lat="43.82735221528939" lon="11.140032551305442"><ele>36.0</ele><time>2026-05-02T07:40:35Z</time></trkpt><trkpt lat="43.82741175095964" lon="11.13980367523984"><ele>36.0</ele><time>2026-05-02T07:40:36Z</time></trkpt><trkpt lat="43.82749366285525" lon="11.13958503647701"><ele>36.0</ele><time>2026-05-02T07:40:37Z</time></trkpt><trkpt lat="43.827596949366466" lon="11.139388880392334"><ele>36.0</ele><time>2026-05-02T07:40:38Z</time></trkpt><trkpt lat="43.82772107680892" lon="11.13921626254714"><ele>36.333333333333336</ele><time>2026-05-02T07:40:39Z</time></trkpt><trkpt lat="43.82787739547879" lon="11.139088145149273"><ele>36.66666666666667</ele><time>2026-05-02T07:40:40Z</time></trkpt><trkpt lat="43.82803304086253" lon="11.13895781958871"><ele>37.0</ele><time>2026-05-02T07:40:41Z</time></trkpt><trkpt lat="43.828193323638736" lon="11.138815083724534"><ele>37.333333333333336</ele><time>2026-05-02T07:40:42Z</time></trkpt><trkpt lat="43.82836773090989" lon="11.13868287482249"><ele>37.666666666666664</ele><time>2026-05-02T07:40:43Z</time></trkpt><trkpt lat="43.82855045580116" lon="11.138526070146003"><ele>38.0</ele><time>2026-05-02T07:40:44Z</time></trkpt><trkpt lat="43.82873071085975" lon="11.138364951748954"><ele>38.666666666666664</ele><time>2026-05-02T07:40:45Z</time></trkpt><trkpt lat="43.82891235625616" lon="11.138204940888318"><ele>39.333333333333336</ele><time>2026-05-02T07:40:46Z</time></trkpt><trkpt lat="43.829097709859724" lon="11.138048909938309"><ele>40.0</ele><time>2026-05-02T07:40:47Z</time></trkpt><trkpt lat="43.829285186617504" lon="11.137888779793952"><ele>39.333333333333336</ele><time>2026-05-02T07:40:48Z</time></trkpt><trkpt lat="43.829473467634166" lon="11.137731119727848"><ele>38.666666666666664</ele><time>2026-05-02T07:40:49Z</time></trkpt><trkpt lat="43.829656895525794" lon="11.13757171612563"><ele>38.0</ele><time>2026-05-02T07:40:50Z</time></trkpt><trkpt lat="43.82983511013224" lon="11.137415691061728"><ele>38.0</ele><time>2026-05-02T07:40:51Z</time></trkpt><trkpt lat="43.83000532694418" lon="11.13727234371996"><ele>38.0</ele><time>2026-05-02T07:40:52Z</time></trkpt><trkpt lat="43.830168411305905" lon="11.137133017543839"><ele>38.0</ele><time>2026-05-02T07:40:53Z</time></trkpt><trkpt lat="43.830318643489754" lon="11.13699999781984"><ele>39.0</ele><time>2026-05-02T07:40:54Z</time></trkpt><trkpt lat="43.83046703586816" lon="11.136872090427852"><ele>40.0</ele><time>2026-05-02T07:40:55Z</time></trkpt><trkpt lat="43.83061820235774" lon="11.136738236781687"><ele>41.0</ele><time>2026-05-02T07:40:56Z</time></trkpt><trkpt lat="43.83077677943126" lon="11.13660506674212"><ele>41.666666666666664</ele><time>2026-05-02T07:40:57Z</time></trkpt><trkpt lat="43.83093441172547" lon="11.136472409969056"><ele>42.333333333333336</ele><time>2026-05-02T07:40:58Z</time></trkpt><trkpt lat="43.83109356869477" lon="11.136334244994785"><ele>43.0</ele><time>2026-05-02T07:40:59Z</time></trkpt><trkpt lat="43.831244670919816" lon="11.136194905805189"><ele>43.0</ele><time>2026-05-02T07:41:00Z</time></trkpt><trkpt lat="43.831387468261994" lon="11.136045855912121"><ele>43.0</ele><time>2026-05-02T07:41:01Z</time></trkpt><trkpt lat="43.83152072106211" lon="11.135888784110982"><ele>43.0</ele><time>2026-05-02T07:41:02Z</time></trkpt><trkpt lat="43.83164196206111" lon="11.135720832066626"><ele>43.0</ele><time>2026-05-02T07:41:03Z</time></trkpt><trkpt lat="43.8317581819429" lon="11.135548193433737"><ele>43.0</ele><time>2026-05-02T07:41:04Z</time></trkpt><trkpt lat="43.83185435265112" lon="11.135386939476339"><ele>43.0</ele><time>2026-05-02T07:41:05Z</time></trkpt><trkpt lat="43.83193750394485" lon="11.135236329897722"><ele>42.75</ele><time>2026-05-02T07:41:06Z</time></trkpt><trkpt lat="43.832012028252436" lon="11.13509345030703"><ele>42.5</ele><time>2026-05-02T07:41:07Z</time></trkpt><trkpt lat="43.832082275677784" lon="11.134946194096262"><ele>42.25</ele><time>2026-05-02T07:41:08Z</time></trkpt><trkpt lat="43.83214297172929" lon="11.134800891121941"><ele>42.0</ele><time>2026-05-02T07:41:09Z</time></trkpt><trkpt lat="43.83219528236994" lon="11.13466095422049"><ele>41.8</ele><time>2026-05-02T07:41:10Z</time></trkpt><trkpt lat="43.832244447195265" lon="11.134534464189288"><ele>41.6</ele><time>2026-05-02T07:41:11Z</time></trkpt><trkpt lat="43.832295909914514" lon="11.134404367547782"><ele>41.4</ele><time>2026-05-02T07:41:12Z</time></trkpt><trkpt lat="43.83234746732981" lon="11.1342753955496"><ele>41.199999999999996</ele><time>2026-05-02T07:41:13Z</time></trkpt><trkpt lat="43.832395452490836" lon="11.134149349718962"><ele>41.0</ele><time>2026-05-02T07:41:14Z</time></trkpt><trkpt lat="43.83244117917327" lon="11.134036245971645"><ele>41.0</ele><time>2026-05-02T07:41:15Z</time></trkpt><trkpt lat="43.83248137398382" lon="11.133932695909115"><ele>41.0</ele><time>2026-05-02T07:41:16Z</time></trkpt><trkpt lat="43.83252110657876" lon="11.13383293223221"><ele>41.0</ele><time>2026-05-02T07:41:17Z</time></trkpt><trkpt lat="43.83256333487548" lon="11.133726121199786"><ele>41.0</ele><time>2026-05-02T07:41:18Z</time></trkpt><trkpt lat="43.83260912880191" lon="11.133612901428533"><ele>41.0</ele><time>2026-05-02T07:41:19Z</time></trkpt><trkpt lat="43.83265868792618" lon="11.133491011164912"><ele>41.0</ele><time>2026-05-02T07:41:20Z</time></trkpt><trkpt lat="43.83270484958972" lon="11.133376049026422"><ele>41.599999999999994</ele><time>2026-05-02T07:41:21Z</time></trkpt><trkpt lat="43.83274853706747" lon="11.133257744992742"><ele>42.2</ele><time>2026-05-02T07:41:22Z</time></trkpt><trkpt lat="43.83279238217873" lon="11.13313924149464"><ele>42.8</ele><time>2026-05-02T07:41:23Z</time></trkpt><trkpt lat="43.83283980417108" lon="11.133016880168517"><ele>43.400000000000006</ele><time>2026-05-02T07:41:24Z</time></trkpt><trkpt lat="43.83288920800905" lon="11.13289412768642"><ele>44.0</ele><time>2026-05-02T07:41:24.999Z</time></trkpt><trkpt lat="43.83293977592309" lon="11.132771093887278"><ele>44.400000000000006</ele><time>2026-05-02T07:41:25.999Z</time></trkpt><trkpt lat="43.832985449964205" lon="11.13264929606213"><ele>44.8</ele><time>2026-05-02T07:41:26.999Z</time></trkpt><trkpt lat="43.833027397250284" lon="11.132535395748468"><ele>45.2</ele><time>2026-05-02T07:41:27.999Z</time></trkpt><trkpt lat="43.83305926929032" lon="11.132439735160519"><ele>45.599999999999994</ele><time>2026-05-02T07:41:28.999Z</time></trkpt><trkpt lat="43.833112433919794" lon="11.132294614466568"><ele>46.0</ele><time>2026-05-02T07:41:30.999Z</time></trkpt><trkpt lat="43.83319777953185" lon="11.132162899030503"><ele>45.16666666666667</ele><time>2026-05-02T07:41:32.999Z</time></trkpt><trkpt lat="43.833256801745705" lon="11.13210054123841"><ele>44.333333333333336</ele><time>2026-05-02T07:41:33.999Z</time></trkpt><trkpt lat="43.83331213374368" lon="11.132046322172855"><ele>43.5</ele><time>2026-05-02T07:41:34.999Z</time></trkpt><trkpt lat="43.83338373905319" lon="11.131917992332893"><ele>42.666666666666664</ele><time>2026-05-02T07:41:36.999Z</time></trkpt><trkpt lat="43.833390436280645" lon="11.131824111490992"><ele>41.83333333333333</ele><time>2026-05-02T07:41:37.999Z</time></trkpt><trkpt lat="43.83336808471111" lon="11.131719112264005"><ele>41.0</ele><time>2026-05-02T07:41:38.999Z</time></trkpt><trkpt lat="43.833342985312306" lon="11.13161531204343"><ele>41.0</ele><time>2026-05-02T07:41:39.999Z</time></trkpt><trkpt lat="43.83334595328672" lon="11.131498612314644"><ele>41.0</ele><time>2026-05-02T07:41:40.999Z</time></trkpt><trkpt lat="43.833411543006" lon="11.131382815290301"><ele>41.0</ele><time>2026-05-02T07:41:41.999Z</time></trkpt><trkpt lat="43.83348175469597" lon="11.13123826875784"><ele>41.0</ele><time>2026-05-02T07:41:42.999Z</time></trkpt><trkpt lat="43.83356688033757" lon="11.13107701150523"><ele>41.0</ele><time>2026-05-02T07:41:43.999Z</time></trkpt><trkpt lat="43.83366254985925" lon="11.130911593240368"><ele>41.0</ele><time>2026-05-02T07:41:44.999Z</time></trkpt><trkpt lat="43.83374962734444" lon="11.13071485663883"><ele>41.0</ele><time>2026-05-02T07:41:45.999Z</time></trkpt><trkpt lat="43.83386077795336" lon="11.130516262767134"><ele>40.666666666666664</ele><time>2026-05-02T07:41:46.999Z</time></trkpt><trkpt lat="43.83396556508615" lon="11.130278842280047"><ele>40.333333333333336</ele><time>2026-05-02T07:41:47.999Z</time></trkpt><trkpt lat="43.834074154895106" lon="11.130048972417933"><ele>40.0</ele><time>2026-05-02T07:41:48.999Z</time></trkpt><trkpt lat="43.834177142787546" lon="11.129807292482553"><ele>39.66666666666667</ele><time>2026-05-02T07:41:49.999Z</time></trkpt><trkpt lat="43.8342744153841" lon="11.129556234157953"><ele>39.333333333333336</ele><time>2026-05-02T07:41:50.999Z</time></trkpt><trkpt lat="43.83437008452004" lon="11.129303173912394"><ele>39.0</ele><time>2026-05-02T07:41:51.999Z</time></trkpt><trkpt lat="43.83446372982756" lon="11.129050318548392"><ele>38.666666666666664</ele><time>2026-05-02T07:41:52.999Z</time></trkpt><trkpt lat="43.834553561761666" lon="11.128798979907753"><ele>38.33333333333333</ele><time>2026-05-02T07:41:53.999Z</time></trkpt><trkpt lat="43.83464062585645" lon="11.128547834237377"><ele>38.0</ele><time>2026-05-02T07:41:54.999Z</time></trkpt><trkpt lat="43.83472886724395" lon="11.128300560760358"><ele>38.33333333333333</ele><time>2026-05-02T07:41:55.999Z</time></trkpt><trkpt lat="43.8348184509141" lon="11.128056849925406"><ele>38.666666666666664</ele><time>2026-05-02T07:41:56.999Z</time></trkpt><trkpt lat="43.83491030272175" lon="11.127817611624199"><ele>39.0</ele><time>2026-05-02T07:41:57.999Z</time></trkpt><trkpt lat="43.835003518337174" lon="11.127582793502246"><ele>38.666666666666664</ele><time>2026-05-02T07:41:58.999Z</time></trkpt><trkpt lat="43.83509707152512" lon="11.127349925315848"><ele>38.33333333333333</ele><time>2026-05-02T07:41:59.999Z</time></trkpt><trkpt lat="43.835192003984304" lon="11.127118441765122"><ele>38.0</ele><time>2026-05-02T07:42:00.999Z</time></trkpt><trkpt lat="43.835286959431855" lon="11.12688367569976"><ele>37.666666666666664</ele><time>2026-05-02T07:42:01.999Z</time></trkpt><trkpt lat="43.835383498419816" lon="11.126647131519627"><ele>37.333333333333336</ele><time>2026-05-02T07:42:02.999Z</time></trkpt><trkpt lat="43.8355000372595" lon="11.126416866271102"><ele>37.0</ele><time>2026-05-02T07:42:03.999Z</time></trkpt><trkpt lat="43.83559963762829" lon="11.12618720470269"><ele>36.66666666666667</ele><time>2026-05-02T07:42:04.999Z</time></trkpt><trkpt lat="43.83569465267587" lon="11.125968116079374"><ele>36.333333333333336</ele><time>2026-05-02T07:42:05.999Z</time></trkpt><trkpt lat="43.83577608997603" lon="11.125747374820572"><ele>36.0</ele><time>2026-05-02T07:42:06.999Z</time></trkpt><trkpt lat="43.83587083305171" lon="11.12554931448386"><ele>36.0</ele><time>2026-05-02T07:42:07.999Z</time></trkpt><trkpt lat="43.83596064016335" lon="11.125355409282037"><ele>36.0</ele><time>2026-05-02T07:42:08.999Z</time></trkpt><trkpt lat="43.83604567440303" lon="11.125165131123495"><ele>36.0</ele><time>2026-05-02T07:42:09.999Z</time></trkpt><trkpt lat="43.83613237508854" lon="11.124979273437948"><ele>36.25</ele><time>2026-05-02T07:42:10.999Z</time></trkpt><trkpt lat="43.83622209996568" lon="11.12480832890454"><ele>36.5</ele><time>2026-05-02T07:42:11.999Z</time></trkpt><trkpt lat="43.83631972124397" lon="11.124666702384763"><ele>36.75</ele><time>2026-05-02T07:42:12.999Z</time></trkpt><trkpt lat="43.83640946234756" lon="11.124530244715924"><ele>37.0</ele><time>2026-05-02T07:42:13.999Z</time></trkpt><trkpt lat="43.836517965588236" lon="11.124431024696566"><ele>37.0</ele><time>2026-05-02T07:42:15Z</time></trkpt><trkpt lat="43.83667004003484" lon="11.124413365591353"><ele>37.0</ele><time>2026-05-02T07:42:16Z</time></trkpt><trkpt lat="43.8368060574483" lon="11.124383811966892"><ele>37.0</ele><time>2026-05-02T07:42:17Z</time></trkpt><trkpt lat="43.8369389922536" lon="11.124377582712981"><ele>37.0</ele><time>2026-05-02T07:42:18Z</time></trkpt><trkpt lat="43.83707366875221" lon="11.124414211596955"><ele>37.0</ele><time>2026-05-02T07:42:19Z</time></trkpt><trkpt lat="43.837211760881495" lon="11.124487101602805"><ele>37.0</ele><time>2026-05-02T07:42:20Z</time></trkpt><trkpt lat="43.83734885665963" lon="11.1245955354669"><ele>37.0</ele><time>2026-05-02T07:42:21Z</time></trkpt><trkpt lat="43.83748110290093" lon="11.124715834691047"><ele>37.0</ele><time>2026-05-02T07:42:22Z</time></trkpt><trkpt lat="43.83761933122321" lon="11.124836764755807"><ele>37.0</ele><time>2026-05-02T07:42:23Z</time></trkpt><trkpt lat="43.837763832756984" lon="11.124957780615013"><ele>37.0</ele><time>2026-05-02T07:42:24Z</time></trkpt><trkpt lat="43.83791242115293" lon="11.125086121033421"><ele>37.66666666666667</ele><time>2026-05-02T07:42:25Z</time></trkpt><trkpt lat="43.8380586738008" lon="11.125226082554741"><ele>38.333333333333336</ele><time>2026-05-02T07:42:26Z</time></trkpt><trkpt lat="43.838200120250825" lon="11.12537647716456"><ele>39.0</ele><time>2026-05-02T07:42:27Z</time></trkpt><trkpt lat="43.83833843583601" lon="11.125536085606418"><ele>39.0</ele><time>2026-05-02T07:42:28Z</time></trkpt><trkpt lat="43.83847129083636" lon="11.12570390709893"><ele>39.0</ele><time>2026-05-02T07:42:29Z</time></trkpt><trkpt lat="43.83860031544547" lon="11.125880701821647"><ele>39.0</ele><time>2026-05-02T07:42:30Z</time></trkpt><trkpt lat="43.8387255148028" lon="11.12606683336352"><ele>39.0</ele><time>2026-05-02T07:42:31Z</time></trkpt><trkpt lat="43.838846163791146" lon="11.126262930609535"><ele>39.0</ele><time>2026-05-02T07:42:32Z</time></trkpt><trkpt lat="43.83896427839231" lon="11.126466423598169"><ele>39.0</ele><time>2026-05-02T07:42:33Z</time></trkpt><trkpt lat="43.83907678032648" lon="11.1266751044098"><ele>39.0</ele><time>2026-05-02T07:42:34Z</time></trkpt><trkpt lat="43.83918288708305" lon="11.126884601230282"><ele>39.0</ele><time>2026-05-02T07:42:35Z</time></trkpt><trkpt lat="43.839280816269465" lon="11.127093100157552"><ele>39.0</ele><time>2026-05-02T07:42:36Z</time></trkpt><trkpt lat="43.83937415065948" lon="11.127297264451965"><ele>39.666666666666664</ele><time>2026-05-02T07:42:37Z</time></trkpt><trkpt lat="43.8394607969447" lon="11.127492530333045"><ele>40.33333333333333</ele><time>2026-05-02T07:42:38Z</time></trkpt><trkpt lat="43.83953648290795" lon="11.127674280169778"><ele>41.0</ele><time>2026-05-02T07:42:39Z</time></trkpt><trkpt lat="43.839601310903575" lon="11.127843682643606"><ele>41.0</ele><time>2026-05-02T07:42:40Z</time></trkpt><trkpt lat="43.83965801265929" lon="11.128004367175883"><ele>41.0</ele><time>2026-05-02T07:42:41Z</time></trkpt><trkpt lat="43.839701653856324" lon="11.128154331816505"><ele>41.0</ele><time>2026-05-02T07:42:42Z</time></trkpt><trkpt lat="43.83972700205919" lon="11.128282398941312"><ele>41.0</ele><time>2026-05-02T07:42:43Z</time></trkpt><trkpt lat="43.839739909024345" lon="11.128404786197562"><ele>41.0</ele><time>2026-05-02T07:42:44Z</time></trkpt><trkpt lat="43.83976181443296" lon="11.128525601338184"><ele>41.0</ele><time>2026-05-02T07:42:45Z</time></trkpt><trkpt lat="43.839744961139765" lon="11.128678338819084"><ele>41.0</ele><time>2026-05-02T07:42:46Z</time></trkpt><trkpt lat="43.83977426391834" lon="11.128819764099488"><ele>41.0</ele><time>2026-05-02T07:42:47Z</time></trkpt><trkpt lat="43.83984044340497" lon="11.128934971822805"><ele>41.0</ele><time>2026-05-02T07:42:48Z</time></trkpt><trkpt lat="43.83991866005689" lon="11.129013207048484"><ele>41.0</ele><time>2026-05-02T07:42:49Z</time></trkpt><trkpt lat="43.84000636098462" lon="11.129041094329239"><ele>41.0</ele><time>2026-05-02T07:42:50Z</time></trkpt><trkpt lat="43.84009147439533" lon="11.129020214123523"><ele>41.0</ele><time>2026-05-02T07:42:51Z</time></trkpt><trkpt lat="43.84017341906543" lon="11.128959941201217"><ele>41.0</ele><time>2026-05-02T07:42:52Z</time></trkpt><trkpt lat="43.84024940372927" lon="11.128854821107687"><ele>41.0</ele><time>2026-05-02T07:42:53Z</time></trkpt><trkpt lat="43.840314843346775" lon="11.12872361153654"><ele>41.0</ele><time>2026-05-02T07:42:54Z</time></trkpt><trkpt lat="43.840391871644215" lon="11.128589777401858"><ele>41.0</ele><time>2026-05-02T07:42:55Z</time></trkpt><trkpt lat="43.84047485695822" lon="11.128449344470074"><ele>41.0</ele><time>2026-05-02T07:42:56Z</time></trkpt><trkpt lat="43.840617849047355" lon="11.128381881611283"><ele>41.0</ele><time>2026-05-02T07:42:57Z</time></trkpt><trkpt lat="43.84074390772394" lon="11.12827687043887"><ele>41.0</ele><time>2026-05-02T07:42:58Z</time></trkpt><trkpt lat="43.840874136124704" lon="11.12815991024345"><ele>42.0</ele><time>2026-05-02T07:42:59Z</time></trkpt><trkpt lat="43.84100682545283" lon="11.128041049882524"><ele>43.0</ele><time>2026-05-02T07:43:00Z</time></trkpt><trkpt lat="43.84113686417392" lon="11.1279089832528"><ele>44.0</ele><time>2026-05-02T07:43:01Z</time></trkpt><trkpt lat="43.84126210994105" lon="11.12775829915465"><ele>44.0</ele><time>2026-05-02T07:43:02Z</time></trkpt><trkpt lat="43.84138691128958" lon="11.1275980027193"><ele>44.0</ele><time>2026-05-02T07:43:03Z</time></trkpt><trkpt lat="43.841515544734825" lon="11.127440045315868"><ele>44.0</ele><time>2026-05-02T07:43:04Z</time></trkpt><trkpt lat="43.84164485084747" lon="11.127284876226932"><ele>44.33333333333333</ele><time>2026-05-02T07:43:05Z</time></trkpt><trkpt lat="43.841779183172775" lon="11.127142828008008"><ele>44.666666666666664</ele><time>2026-05-02T07:43:06Z</time></trkpt><trkpt lat="43.841918277082435" lon="11.127012598589996"><ele>45.0</ele><time>2026-05-02T07:43:07Z</time></trkpt><trkpt lat="43.84206073963118" lon="11.126895451964442"><ele>45.333333333333336</ele><time>2026-05-02T07:43:08Z</time></trkpt><trkpt lat="43.84220482075586" lon="11.12678374118572"><ele>45.66666666666667</ele><time>2026-05-02T07:43:09Z</time></trkpt><trkpt lat="43.84235342010414" lon="11.126684536888586"><ele>46.0</ele><time>2026-05-02T07:43:10Z</time></trkpt><trkpt lat="43.84250681260305" lon="11.12660704928682"><ele>45.0</ele><time>2026-05-02T07:43:11Z</time></trkpt><trkpt lat="43.84266317536736" lon="11.126547643756796"><ele>44.0</ele><time>2026-05-02T07:43:12Z</time></trkpt><trkpt lat="43.84282499774824" lon="11.126513795702534"><ele>43.0</ele><time>2026-05-02T07:43:13Z</time></trkpt><trkpt lat="43.84298567131905" lon="11.126500900801966"><ele>43.0</ele><time>2026-05-02T07:43:14Z</time></trkpt><trkpt lat="43.843144329488055" lon="11.126497318858709"><ele>43.0</ele><time>2026-05-02T07:43:15Z</time></trkpt><trkpt lat="43.843302014785166" lon="11.126490630079592"><ele>43.0</ele><time>2026-05-02T07:43:16Z</time></trkpt><trkpt lat="43.843458929980706" lon="11.126489008692205"><ele>43.25</ele><time>2026-05-02T07:43:17Z</time></trkpt><trkpt lat="43.8436112788599" lon="11.126486907875181"><ele>43.5</ele><time>2026-05-02T07:43:18Z</time></trkpt><trkpt lat="43.84375163473065" lon="11.126482193492555"><ele>43.75</ele><time>2026-05-02T07:43:19Z</time></trkpt><trkpt lat="43.84388123320762" lon="11.12647899256966"><ele>44.0</ele><time>2026-05-02T07:43:20Z</time></trkpt><trkpt lat="43.84400448906273" lon="11.126475816774002"><ele>44.0</ele><time>2026-05-02T07:43:21Z</time></trkpt><trkpt lat="43.84412572336373" lon="11.126472555694475"><ele>44.0</ele><time>2026-05-02T07:43:22Z</time></trkpt><trkpt lat="43.84424514379454" lon="11.126468051350699"><ele>44.0</ele><time>2026-05-02T07:43:23Z</time></trkpt><trkpt lat="43.84436199054994" lon="11.126464337898161"><ele>44.0</ele><time>2026-05-02T07:43:24Z</time></trkpt><trkpt lat="43.84447717861481" lon="11.126460263196138"><ele>44.5</ele><time>2026-05-02T07:43:25Z</time></trkpt><trkpt lat="43.844588485221244" lon="11.126453250422177"><ele>45.0</ele><time>2026-05-02T07:43:26Z</time></trkpt><trkpt lat="43.84469993817452" lon="11.126446287375632"><ele>45.5</ele><time>2026-05-02T07:43:27Z</time></trkpt><trkpt lat="43.84481299833269" lon="11.126440176568021"><ele>46.0</ele><time>2026-05-02T07:43:28Z</time></trkpt><trkpt lat="43.8449314204395" lon="11.126434972465686"><ele>46.0</ele><time>2026-05-02T07:43:29Z</time></trkpt><trkpt lat="43.84505201603051" lon="11.126430720474719"><ele>46.0</ele><time>2026-05-02T07:43:30Z</time></trkpt><trkpt lat="43.845176818439754" lon="11.126425254682106"><ele>46.0</ele><time>2026-05-02T07:43:31Z</time></trkpt><trkpt lat="43.845307675978646" lon="11.126419670886456"><ele>46.0</ele><time>2026-05-02T07:43:31.999Z</time></trkpt><trkpt lat="43.84544520224056" lon="11.126411779089281"><ele>45.66666666666667</ele><time>2026-05-02T07:43:32.999Z</time></trkpt><trkpt lat="43.845592507585366" lon="11.12640490325313"><ele>45.333333333333336</ele><time>2026-05-02T07:43:33.999Z</time></trkpt><trkpt lat="43.845755972102474" lon="11.126395916343068"><ele>45.0</ele><time>2026-05-02T07:43:34.999Z</time></trkpt><trkpt lat="43.8459294345697" lon="11.126388907260434"><ele>45.25</ele><time>2026-05-02T07:43:35.999Z</time></trkpt><trkpt lat="43.84609345323904" lon="11.126381536896016"><ele>45.5</ele><time>2026-05-02T07:43:36.999Z</time></trkpt><trkpt lat="43.846239307608315" lon="11.126369584867962"><ele>45.75</ele><time>2026-05-02T07:43:37.999Z</time></trkpt><trkpt lat="43.846376941028765" lon="11.126349425068076"><ele>46.0</ele><time>2026-05-02T07:43:38.999Z</time></trkpt><trkpt lat="43.84650151889243" lon="11.126319341874025"><ele>46.0</ele><time>2026-05-02T07:43:39.999Z</time></trkpt><trkpt lat="43.84661563626612" lon="11.126280640281252"><ele>46.0</ele><time>2026-05-02T07:43:40.999Z</time></trkpt><trkpt lat="43.84672098189367" lon="11.126237530473013"><ele>46.0</ele><time>2026-05-02T07:43:41.999Z</time></trkpt><trkpt lat="43.84682433932628" lon="11.126180818135124"><ele>46.0</ele><time>2026-05-02T07:43:42.999Z</time></trkpt><trkpt lat="43.84692978002803" lon="11.126111514987926"><ele>45.8</ele><time>2026-05-02T07:43:43.999Z</time></trkpt><trkpt lat="43.847030917490144" lon="11.126036567303235"><ele>45.599999999999994</ele><time>2026-05-02T07:43:44.999Z</time></trkpt><trkpt lat="43.8471220729456" lon="11.125959916970112"><ele>45.4</ele><time>2026-05-02T07:43:45.999Z</time></trkpt><trkpt lat="43.84720135292667" lon="11.125880247317088"><ele>45.2</ele><time>2026-05-02T07:43:46.999Z</time></trkpt><trkpt lat="43.84727077282643" lon="11.12580083898567"><ele>45.0</ele><time>2026-05-02T07:43:47.999Z</time></trkpt><trkpt lat="43.847325602689786" lon="11.125730785261652"><ele>44.833333333333336</ele><time>2026-05-02T07:43:48.999Z</time></trkpt><trkpt lat="43.84737888023367" lon="11.12566944714215"><ele>44.666666666666664</ele><time>2026-05-02T07:43:49.999Z</time></trkpt><trkpt lat="43.84746276368218" lon="11.125547397545999"><ele>44.5</ele><time>2026-05-02T07:43:51.999Z</time></trkpt><trkpt lat="43.8475138581037" lon="11.125429938787988"><ele>44.33333333333333</ele><time>2026-05-02T07:43:53.999Z</time></trkpt><trkpt lat="43.84754880363123" lon="11.125354152814564"><ele>44.166666666666664</ele><time>2026-05-02T07:43:55.999Z</time></trkpt><trkpt lat="43.84760352282618" lon="11.125281160982958"><ele>44.0</ele><time>2026-05-02T07:43:57.999Z</time></trkpt><trkpt lat="43.84771552854215" lon="11.125226155533435"><ele>44.0</ele><time>2026-05-02T07:43:59.999Z</time></trkpt><trkpt lat="43.847800536961294" lon="11.125198619525293"><ele>44.0</ele><time>2026-05-02T07:44:00.999Z</time></trkpt><trkpt lat="43.847884277289445" lon="11.12513714564434"><ele>44.0</ele><time>2026-05-02T07:44:01.999Z</time></trkpt><trkpt lat="43.84797567401753" lon="11.125045165258667"><ele>44.0</ele><time>2026-05-02T07:44:02.999Z</time></trkpt><trkpt lat="43.848062225418786" lon="11.124951324892171"><ele>44.0</ele><time>2026-05-02T07:44:03.999Z</time></trkpt><trkpt lat="43.84814080016133" lon="11.124831019798856"><ele>44.0</ele><time>2026-05-02T07:44:04.999Z</time></trkpt><trkpt lat="43.84825767075372" lon="11.124742336825628"><ele>44.0</ele><time>2026-05-02T07:44:05.999Z</time></trkpt><trkpt lat="43.84836242688507" lon="11.124623444481925"><ele>44.0</ele><time>2026-05-02T07:44:06.999Z</time></trkpt><trkpt lat="43.848474366470164" lon="11.124499451262894"><ele>44.0</ele><time>2026-05-02T07:44:07.999Z</time></trkpt><trkpt lat="43.848590880395285" lon="11.124375278801093"><ele>44.33333333333333</ele><time>2026-05-02T07:44:08.999Z</time></trkpt><trkpt lat="43.848710124031086" lon="11.124242030027837"><ele>44.666666666666664</ele><time>2026-05-02T07:44:09.999Z</time></trkpt><trkpt lat="43.848830417421524" lon="11.124104607146563"><ele>45.0</ele><time>2026-05-02T07:44:10.999Z</time></trkpt><trkpt lat="43.84895886825143" lon="11.123960271984584"><ele>45.0</ele><time>2026-05-02T07:44:11.999Z</time></trkpt><trkpt lat="43.849087136125775" lon="11.123822733421038"><ele>45.0</ele><time>2026-05-02T07:44:12.999Z</time></trkpt><trkpt lat="43.84920961627833" lon="11.123692561625285"><ele>45.0</ele><time>2026-05-02T07:44:13.999Z</time></trkpt><trkpt lat="43.84932423997352" lon="11.123570397840412"><ele>45.0</ele><time>2026-05-02T07:44:14.999Z</time></trkpt><trkpt lat="43.849433695263656" lon="11.123452727371028"><ele>45.0</ele><time>2026-05-02T07:44:15.999Z</time></trkpt><trkpt lat="43.84954159606862" lon="11.123336151558329"><ele>45.0</ele><time>2026-05-02T07:44:16.999Z</time></trkpt><trkpt lat="43.84965020723397" lon="11.123219324964085"><ele>45.0</ele><time>2026-05-02T07:44:17.999Z</time></trkpt><trkpt lat="43.84975924896607" lon="11.123102423679358"><ele>45.0</ele><time>2026-05-02T07:44:18.999Z</time></trkpt><trkpt lat="43.84986710311063" lon="11.122986950535331"><ele>45.0</ele><time>2026-05-02T07:44:19.999Z</time></trkpt><trkpt lat="43.84997205338218" lon="11.122873703473287"><ele>45.0</ele><time>2026-05-02T07:44:21Z</time></trkpt><trkpt lat="43.850071850425735" lon="11.122768917520611"><ele>45.0</ele><time>2026-05-02T07:44:22Z</time></trkpt><trkpt lat="43.85016581602872" lon="11.122675895463766"><ele>44.75</ele><time>2026-05-02T07:44:23Z</time></trkpt><trkpt lat="43.85026584321723" lon="11.122587609353335"><ele>44.5</ele><time>2026-05-02T07:44:24Z</time></trkpt><trkpt lat="43.85037573270653" lon="11.1225165985074"><ele>44.25</ele><time>2026-05-02T07:44:25Z</time></trkpt><trkpt lat="43.85049750219005" lon="11.122466103585586"><ele>44.0</ele><time>2026-05-02T07:44:26Z</time></trkpt><trkpt lat="43.85062173832495" lon="11.122435445695343"><ele>44.0</ele><time>2026-05-02T07:44:27Z</time></trkpt><trkpt lat="43.85074411970269" lon="11.122427291148192"><ele>44.0</ele><time>2026-05-02T07:44:28Z</time></trkpt><trkpt lat="43.85086584657157" lon="11.12243709874906"><ele>44.0</ele><time>2026-05-02T07:44:29Z</time></trkpt><trkpt lat="43.85098457828292" lon="11.122464152857608"><ele>44.0</ele><time>2026-05-02T07:44:30Z</time></trkpt><trkpt lat="43.851099472275095" lon="11.122504446368623"><ele>44.5</ele><time>2026-05-02T07:44:31Z</time></trkpt><trkpt lat="43.85121294060611" lon="11.122562488559415"><ele>45.0</ele><time>2026-05-02T07:44:32Z</time></trkpt><trkpt lat="43.85132536766252" lon="11.122639178010852"><ele>45.5</ele><time>2026-05-02T07:44:33Z</time></trkpt><trkpt lat="43.85143648897946" lon="11.122722352945804"><ele>46.0</ele><time>2026-05-02T07:44:34Z</time></trkpt><trkpt lat="43.85155352662117" lon="11.122816232291337"><ele>46.0</ele><time>2026-05-02T07:44:35Z</time></trkpt><trkpt lat="43.85166802272129" lon="11.122906175931421"><ele>46.0</ele><time>2026-05-02T07:44:36Z</time></trkpt><trkpt lat="43.85178169144075" lon="11.122985989152161"><ele>46.0</ele><time>2026-05-02T07:44:37Z</time></trkpt><trkpt lat="43.85188501742045" lon="11.123047138189655"><ele>46.0</ele><time>2026-05-02T07:44:38Z</time></trkpt><trkpt lat="43.85198303325168" lon="11.123105021346609"><ele>46.199999999999996</ele><time>2026-05-02T07:44:39Z</time></trkpt><trkpt lat="43.852080976061686" lon="11.12315730810897"><ele>46.4</ele><time>2026-05-02T07:44:40Z</time></trkpt><trkpt lat="43.852173078298726" lon="11.123200322983815"><ele>46.6</ele><time>2026-05-02T07:44:41Z</time></trkpt><trkpt lat="43.852254489007564" lon="11.123234922210369"><ele>46.8</ele><time>2026-05-02T07:44:42Z</time></trkpt><trkpt lat="43.85232218147274" lon="11.123261208766461"><ele>47.0</ele><time>2026-05-02T07:44:43Z</time></trkpt><trkpt lat="43.85243072891578" lon="11.123300587481783"><ele>47.0</ele><time>2026-05-02T07:44:45Z</time></trkpt><trkpt lat="43.8525168953107" lon="11.123335628210752"><ele>47.0</ele><time>2026-05-02T07:44:47Z</time></trkpt><trkpt lat="43.852608446852194" lon="11.123379167557065"><ele>47.0</ele><time>2026-05-02T07:44:49Z</time></trkpt><trkpt lat="43.8526967836365" lon="11.12350543581997"><ele>47.0</ele><time>2026-05-02T07:44:51Z</time></trkpt><trkpt lat="43.85279598687504" lon="11.123610095750326"><ele>47.0</ele><time>2026-05-02T07:44:53Z</time></trkpt><trkpt lat="43.85286745895486" lon="11.123622051926853"><ele>47.0</ele><time>2026-05-02T07:44:54Z</time></trkpt><trkpt lat="43.852943272916185" lon="11.123608474470979"><ele>47.0</ele><time>2026-05-02T07:44:55Z</time></trkpt><trkpt lat="43.85302652385487" lon="11.123606873510731"><ele>47.0</ele><time>2026-05-02T07:44:56Z</time></trkpt><trkpt lat="43.853125331356715" lon="11.123635497270524"><ele>47.0</ele><time>2026-05-02T07:44:57Z</time></trkpt><trkpt lat="43.853230836591024" lon="11.123686312904445"><ele>47.0</ele><time>2026-05-02T07:44:58Z</time></trkpt><trkpt lat="43.85333352214178" lon="11.123738484821194"><ele>47.0</ele><time>2026-05-02T07:44:59Z</time></trkpt><trkpt lat="43.85343342014105" lon="11.123784226906565"><ele>47.0</ele><time>2026-05-02T07:45:00Z</time></trkpt><trkpt lat="43.85354024451823" lon="11.123831383087149"><ele>47.0</ele><time>2026-05-02T07:45:01Z</time></trkpt><trkpt lat="43.853653625993246" lon="11.123878183056485"><ele>47.0</ele><time>2026-05-02T07:45:02Z</time></trkpt><trkpt lat="43.853782184014165" lon="11.123930126623314"><ele>47.0</ele><time>2026-05-02T07:45:03Z</time></trkpt><trkpt lat="43.85390022994871" lon="11.123981140280714"><ele>47.0</ele><time>2026-05-02T07:45:04Z</time></trkpt><trkpt lat="43.85400606361429" lon="11.124030929183366"><ele>47.0</ele><time>2026-05-02T07:45:05Z</time></trkpt><trkpt lat="43.85410629845847" lon="11.124062864836942"><ele>47.0</ele><time>2026-05-02T07:45:06Z</time></trkpt><trkpt lat="43.85421656664108" lon="11.124079924450253"><ele>47.0</ele><time>2026-05-02T07:45:07Z</time></trkpt><trkpt lat="43.85432955443361" lon="11.124088754360566"><ele>47.0</ele><time>2026-05-02T07:45:08Z</time></trkpt><trkpt lat="43.85444410719984" lon="11.124087151028046"><ele>47.0</ele><time>2026-05-02T07:45:09Z</time></trkpt><trkpt lat="43.854561107143695" lon="11.124071961518483"><ele>47.0</ele><time>2026-05-02T07:45:10Z</time></trkpt><trkpt lat="43.854669937491245" lon="11.12404416275606"><ele>47.0</ele><time>2026-05-02T07:45:11Z</time></trkpt><trkpt lat="43.854760866390656" lon="11.124005345082512"><ele>47.0</ele><time>2026-05-02T07:45:12Z</time></trkpt><trkpt lat="43.85483913397294" lon="11.123961386359307"><ele>47.0</ele><time>2026-05-02T07:45:13Z</time></trkpt><trkpt lat="43.854903986527084" lon="11.123905972146858"><ele>47.0</ele><time>2026-05-02T07:45:14Z</time></trkpt><trkpt lat="43.854958261373895" lon="11.123841985906383"><ele>47.0</ele><time>2026-05-02T07:45:15Z</time></trkpt><trkpt lat="43.8550084172054" lon="11.123772448672739"><ele>47.0</ele><time>2026-05-02T07:45:16Z</time></trkpt><trkpt lat="43.855063486788616" lon="11.123712021796162"><ele>47.0</ele><time>2026-05-02T07:45:17Z</time></trkpt><trkpt lat="43.85513943660582" lon="11.123672221388665"><ele>47.0</ele><time>2026-05-02T07:45:18Z</time></trkpt><trkpt lat="43.85521513754722" lon="11.123639656799467"><ele>47.0</ele><time>2026-05-02T07:45:19Z</time></trkpt><trkpt lat="43.8552720141388" lon="11.12358756899004"><ele>47.0</ele><time>2026-05-02T07:45:20Z</time></trkpt><trkpt lat="43.85531027216307" lon="11.123514368169433"><ele>47.0</ele><time>2026-05-02T07:45:21Z</time></trkpt><trkpt lat="43.855321246517256" lon="11.123422500112781"><ele>47.0</ele><time>2026-05-02T07:45:22Z</time></trkpt><trkpt lat="43.855299318448616" lon="11.12333243788161"><ele>47.0</ele><time>2026-05-02T07:45:23Z</time></trkpt><trkpt lat="43.85527846068033" lon="11.123242223495186"><ele>47.0</ele><time>2026-05-02T07:45:24Z</time></trkpt><trkpt lat="43.855168411731135" lon="11.123219764157346"><ele>47.0</ele><time>2026-05-02T07:45:25Z</time></trkpt><trkpt lat="43.855067043183496" lon="11.123219821378164"><ele>47.33333333333333</ele><time>2026-05-02T07:45:26Z</time></trkpt><trkpt lat="43.85494028026519" lon="11.12323887405666"><ele>47.666666666666664</ele><time>2026-05-02T07:45:27Z</time></trkpt><trkpt lat="43.85477498404809" lon="11.123218206522237"><ele>48.0</ele><time>2026-05-02T07:45:28Z</time></trkpt><trkpt lat="43.854596260526534" lon="11.123143305256999"><ele>47.333333333333336</ele><time>2026-05-02T07:45:29Z</time></trkpt><trkpt lat="43.85443683956478" lon="11.123032661157966"><ele>46.66666666666667</ele><time>2026-05-02T07:45:30Z</time></trkpt><trkpt lat="43.85429835686629" lon="11.122927896687514"><ele>46.0</ele><time>2026-05-02T07:45:31Z</time></trkpt><trkpt lat="43.854168774138536" lon="11.122849013627116"><ele>46.0</ele><time>2026-05-02T07:45:32Z</time></trkpt><trkpt lat="43.854053948617356" lon="11.122770953662044"><ele>46.0</ele><time>2026-05-02T07:45:33Z</time></trkpt><trkpt lat="43.85395644975043" lon="11.122691264911706"><ele>46.0</ele><time>2026-05-02T07:45:34Z</time></trkpt><trkpt lat="43.85387759593159" lon="11.122603124037083"><ele>46.0</ele><time>2026-05-02T07:45:35Z</time></trkpt><trkpt lat="43.85381863626172" lon="11.122503986827521"><ele>46.0</ele><time>2026-05-02T07:45:36Z</time></trkpt><trkpt lat="43.85378334924734" lon="11.12239130356153"><ele>45.5</ele><time>2026-05-02T07:45:37Z</time></trkpt><trkpt lat="43.85376373181291" lon="11.122260512127037"><ele>45.0</ele><time>2026-05-02T07:45:38Z</time></trkpt><trkpt lat="43.853758283139804" lon="11.122109422370022"><ele>44.5</ele><time>2026-05-02T07:45:39Z</time></trkpt><trkpt lat="43.85374741080449" lon="11.12194664530734"><ele>44.0</ele><time>2026-05-02T07:45:40Z</time></trkpt><trkpt lat="43.85378131652978" lon="11.121765494925613"><ele>44.0</ele><time>2026-05-02T07:45:41Z</time></trkpt><trkpt lat="43.85379624831429" lon="11.121569885124028"><ele>44.0</ele><time>2026-05-02T07:45:41.999Z</time></trkpt><trkpt lat="43.853811770998966" lon="11.121366581774904"><ele>44.0</ele><time>2026-05-02T07:45:42.999Z</time></trkpt><trkpt lat="43.85383085650201" lon="11.121156398530935"><ele>44.0</ele><time>2026-05-02T07:45:43.999Z</time></trkpt><trkpt lat="43.85385458046542" lon="11.120934083990276"><ele>44.666666666666664</ele><time>2026-05-02T07:45:44.999Z</time></trkpt><trkpt lat="43.853885228620385" lon="11.120711622394843"><ele>45.333333333333336</ele><time>2026-05-02T07:45:45.999Z</time></trkpt><trkpt lat="43.85392461699283" lon="11.120496754522756"><ele>46.0</ele><time>2026-05-02T07:45:46.999Z</time></trkpt><trkpt lat="43.85397221961142" lon="11.120281968470621"><ele>46.0</ele><time>2026-05-02T07:45:47.999Z</time></trkpt><trkpt lat="43.85403271648688" lon="11.12006422860676"><ele>46.0</ele><time>2026-05-02T07:45:48.999Z</time></trkpt><trkpt lat="43.85410518013253" lon="11.119843620360951"><ele>46.0</ele><time>2026-05-02T07:45:49.999Z</time></trkpt><trkpt lat="43.854190558306556" lon="11.119621719918793"><ele>46.333333333333336</ele><time>2026-05-02T07:45:50.999Z</time></trkpt><trkpt lat="43.854291530054624" lon="11.119393705751843"><ele>46.666666666666664</ele><time>2026-05-02T07:45:51.999Z</time></trkpt><trkpt lat="43.854407804527675" lon="11.119152980182035"><ele>47.0</ele><time>2026-05-02T07:45:52.999Z</time></trkpt><trkpt lat="43.854534237363254" lon="11.118895604456092"><ele>47.0</ele><time>2026-05-02T07:45:53.999Z</time></trkpt><trkpt lat="43.85466398938344" lon="11.11863478421897"><ele>47.0</ele><time>2026-05-02T07:45:54.999Z</time></trkpt><trkpt lat="43.854792433712724" lon="11.118379831743008"><ele>47.5</ele><time>2026-05-02T07:45:55.999Z</time></trkpt><trkpt lat="43.85492186681478" lon="11.118120153493408"><ele>48.0</ele><time>2026-05-02T07:45:56.999Z</time></trkpt><trkpt lat="43.85504972717003" lon="11.117859778645556"><ele>47.5</ele><time>2026-05-02T07:45:57.999Z</time></trkpt><trkpt lat="43.855179685305046" lon="11.117599778317489"><ele>47.0</ele><time>2026-05-02T07:45:58.999Z</time></trkpt><trkpt lat="43.855311753167754" lon="11.117339763990868"><ele>47.0</ele><time>2026-05-02T07:45:59.999Z</time></trkpt><trkpt lat="43.855444908645346" lon="11.117081058048626"><ele>47.0</ele><time>2026-05-02T07:46:00.999Z</time></trkpt><trkpt lat="43.85558068408088" lon="11.116824648245725"><ele>47.0</ele><time>2026-05-02T07:46:01.999Z</time></trkpt><trkpt lat="43.855716265034424" lon="11.116576109725274"><ele>47.0</ele><time>2026-05-02T07:46:02.999Z</time></trkpt><trkpt lat="43.85584731291491" lon="11.116357899882447"><ele>47.0</ele><time>2026-05-02T07:46:03.999Z</time></trkpt><trkpt lat="43.85596345463637" lon="11.116144487785306"><ele>47.0</ele><time>2026-05-02T07:46:04.999Z</time></trkpt><trkpt lat="43.856060171341326" lon="11.115944561317802"><ele>47.0</ele><time>2026-05-02T07:46:05.999Z</time></trkpt><trkpt lat="43.85614751235084" lon="11.115735609192571"><ele>47.0</ele><time>2026-05-02T07:46:06.999Z</time></trkpt><trkpt lat="43.85624338223549" lon="11.11552174377017"><ele>47.0</ele><time>2026-05-02T07:46:07.999Z</time></trkpt><trkpt lat="43.85635220610392" lon="11.11530269733461"><ele>47.0</ele><time>2026-05-02T07:46:08.999Z</time></trkpt><trkpt lat="43.856466374762384" lon="11.115076072282363"><ele>47.0</ele><time>2026-05-02T07:46:09.999Z</time></trkpt><trkpt lat="43.85658669240871" lon="11.114837290818341"><ele>47.0</ele><time>2026-05-02T07:46:10.999Z</time></trkpt><trkpt lat="43.85671148105053" lon="11.114589524306064"><ele>47.0</ele><time>2026-05-02T07:46:11.999Z</time></trkpt><trkpt lat="43.85684048381559" lon="11.114331135151108"><ele>47.0</ele><time>2026-05-02T07:46:12.999Z</time></trkpt><trkpt lat="43.856973387405716" lon="11.114063391688788"><ele>48.0</ele><time>2026-05-02T07:46:13.999Z</time></trkpt><trkpt lat="43.857117338423656" lon="11.113784014876133"><ele>49.0</ele><time>2026-05-02T07:46:14.999Z</time></trkpt><trkpt lat="43.857265088071586" lon="11.113493972506912"><ele>49.0</ele><time>2026-05-02T07:46:15.999Z</time></trkpt><trkpt lat="43.857410035328" lon="11.113207804217657"><ele>49.0</ele><time>2026-05-02T07:46:16.999Z</time></trkpt><trkpt lat="43.85753653921714" lon="11.112944489531825"><ele>49.0</ele><time>2026-05-02T07:46:17.999Z</time></trkpt><trkpt lat="43.85767574596803" lon="11.112666403978723"><ele>49.0</ele><time>2026-05-02T07:46:18.999Z</time></trkpt><trkpt lat="43.85781370051047" lon="11.112385998569133"><ele>49.0</ele><time>2026-05-02T07:46:19.999Z</time></trkpt><trkpt lat="43.8579545875018" lon="11.11210476904987"><ele>49.0</ele><time>2026-05-02T07:46:20.999Z</time></trkpt><trkpt lat="43.858094664024776" lon="11.111825781469493"><ele>48.5</ele><time>2026-05-02T07:46:21.999Z</time></trkpt><trkpt lat="43.8582373961596" lon="11.111545053351588"><ele>48.0</ele><time>2026-05-02T07:46:22.999Z</time></trkpt><trkpt lat="43.858377846436554" lon="11.111264955544897"><ele>48.0</ele><time>2026-05-02T07:46:23.999Z</time></trkpt><trkpt lat="43.85852261681477" lon="11.110979597103874"><ele>48.0</ele><time>2026-05-02T07:46:24.999Z</time></trkpt><trkpt lat="43.858661719908035" lon="11.110706948463983"><ele>48.0</ele><time>2026-05-02T07:46:25.999Z</time></trkpt><trkpt lat="43.858797561386204" lon="11.110433437554624"><ele>48.0</ele><time>2026-05-02T07:46:27Z</time></trkpt><trkpt lat="43.858931393160205" lon="11.11016830794117"><ele>48.0</ele><time>2026-05-02T07:46:28Z</time></trkpt><trkpt lat="43.859065343476786" lon="11.109908619718144"><ele>48.0</ele><time>2026-05-02T07:46:29Z</time></trkpt><trkpt lat="43.85919305451358" lon="11.109654274196624"><ele>48.0</ele><time>2026-05-02T07:46:30Z</time></trkpt><trkpt lat="43.859321693594296" lon="11.109392900374392"><ele>48.0</ele><time>2026-05-02T07:46:31Z</time></trkpt><trkpt lat="43.85944782508119" lon="11.109129772752771"><ele>48.0</ele><time>2026-05-02T07:46:32Z</time></trkpt><trkpt lat="43.8595764114509" lon="11.108865724454155"><ele>48.0</ele><time>2026-05-02T07:46:33Z</time></trkpt><trkpt lat="43.859707476324026" lon="11.108602563909693"><ele>48.0</ele><time>2026-05-02T07:46:34Z</time></trkpt><trkpt lat="43.859841588154936" lon="11.108337661997238"><ele>48.0</ele><time>2026-05-02T07:46:35Z</time></trkpt><trkpt lat="43.85998015560218" lon="11.10806476016292"><ele>49.0</ele><time>2026-05-02T07:46:36Z</time></trkpt><trkpt lat="43.860118513116994" lon="11.107786488115748"><ele>50.0</ele><time>2026-05-02T07:46:37Z</time></trkpt><trkpt lat="43.86025996450709" lon="11.107504135851944"><ele>49.5</ele><time>2026-05-02T07:46:38Z</time></trkpt><trkpt lat="43.860400938869475" lon="11.107221745441697"><ele>49.0</ele><time>2026-05-02T07:46:39Z</time></trkpt><trkpt lat="43.860543284621144" lon="11.106941322243006"><ele>49.0</ele><time>2026-05-02T07:46:40Z</time></trkpt><trkpt lat="43.86068473172139" lon="11.106662175721478"><ele>49.0</ele><time>2026-05-02T07:46:41Z</time></trkpt><trkpt lat="43.86082494041976" lon="11.106383869402585"><ele>49.5</ele><time>2026-05-02T07:46:42Z</time></trkpt><trkpt lat="43.860957282014056" lon="11.106119141327094"><ele>50.0</ele><time>2026-05-02T07:46:43Z</time></trkpt><trkpt lat="43.86109077745212" lon="11.10585723126722"><ele>50.0</ele><time>2026-05-02T07:46:44Z</time></trkpt><trkpt lat="43.861228259434704" lon="11.105592953338988"><ele>50.0</ele><time>2026-05-02T07:46:45Z</time></trkpt><trkpt lat="43.861366967514556" lon="11.10532961429083"><ele>50.0</ele><time>2026-05-02T07:46:46Z</time></trkpt><trkpt lat="43.861507212128394" lon="11.105064695144964"><ele>50.0</ele><time>2026-05-02T07:46:47Z</time></trkpt><trkpt lat="43.86164754583159" lon="11.104795342414468"><ele>48.0</ele><time>2026-05-02T07:46:48Z</time></trkpt><trkpt lat="43.86178909220109" lon="11.10452059944209"><ele>46.0</ele><time>2026-05-02T07:46:49Z</time></trkpt><trkpt lat="43.86193141983509" lon="11.104243247236091"><ele>45.5</ele><time>2026-05-02T07:46:50Z</time></trkpt><trkpt lat="43.86207795796377" lon="11.103962874210932"><ele>45.0</ele><time>2026-05-02T07:46:51Z</time></trkpt><trkpt lat="43.86222588153157" lon="11.103677996409184"><ele>45.0</ele><time>2026-05-02T07:46:52Z</time></trkpt><trkpt lat="43.86237164329334" lon="11.103391455597261"><ele>45.0</ele><time>2026-05-02T07:46:53Z</time></trkpt><trkpt lat="43.86251508813571" lon="11.103102877325512"><ele>48.5</ele><time>2026-05-02T07:46:54Z</time></trkpt><trkpt lat="43.86265891759566" lon="11.102811071027162"><ele>52.0</ele><time>2026-05-02T07:46:55Z</time></trkpt><trkpt lat="43.86280122794202" lon="11.102520636235143"><ele>51.5</ele><time>2026-05-02T07:46:56Z</time></trkpt><trkpt lat="43.86294677766132" lon="11.10223187521698"><ele>51.0</ele><time>2026-05-02T07:46:57Z</time></trkpt><trkpt lat="43.863094107425" lon="11.101946908805532"><ele>51.0</ele><time>2026-05-02T07:46:58Z</time></trkpt><trkpt lat="43.86324245086407" lon="11.10166142128101"><ele>51.0</ele><time>2026-05-02T07:46:59Z</time></trkpt><trkpt lat="43.86339034897343" lon="11.10137496183275"><ele>49.5</ele><time>2026-05-02T07:47:00Z</time></trkpt><trkpt lat="43.86353660891399" lon="11.101088312545173"><ele>48.0</ele><time>2026-05-02T07:47:01Z</time></trkpt><trkpt lat="43.863684511151426" lon="11.1008017881613"><ele>49.0</ele><time>2026-05-02T07:47:02Z</time></trkpt><trkpt lat="43.863834951484066" lon="11.100518340398718"><ele>50.0</ele><time>2026-05-02T07:47:03Z</time></trkpt><trkpt lat="43.8639853336523" lon="11.100234778698944"><ele>50.0</ele><time>2026-05-02T07:47:04Z</time></trkpt><trkpt lat="43.86413335934165" lon="11.099948578254791"><ele>50.0</ele><time>2026-05-02T07:47:05Z</time></trkpt><trkpt lat="43.86427934698602" lon="11.0996602150282"><ele>50.5</ele><time>2026-05-02T07:47:06Z</time></trkpt><trkpt lat="43.86442539938782" lon="11.099374791368916"><ele>51.0</ele><time>2026-05-02T07:47:07Z</time></trkpt><trkpt lat="43.864571994968856" lon="11.099089287968129"><ele>51.0</ele><time>2026-05-02T07:47:08Z</time></trkpt><trkpt lat="43.86471869290687" lon="11.098803606475474"><ele>51.0</ele><time>2026-05-02T07:47:09Z</time></trkpt><trkpt lat="43.86486365066176" lon="11.09851489174329"><ele>51.5</ele><time>2026-05-02T07:47:10Z</time></trkpt><trkpt lat="43.86500455863381" lon="11.098222493129569"><ele>52.0</ele><time>2026-05-02T07:47:11Z</time></trkpt><trkpt lat="43.86514155571553" lon="11.097928644164208"><ele>52.5</ele><time>2026-05-02T07:47:12Z</time></trkpt><trkpt lat="43.86527466832924" lon="11.09763461518602"><ele>53.0</ele><time>2026-05-02T07:47:13Z</time></trkpt><trkpt lat="43.86540900719636" lon="11.097341800800686"><ele>53.5</ele><time>2026-05-02T07:47:14Z</time></trkpt><trkpt lat="43.865548727335614" lon="11.097056748129798"><ele>54.0</ele><time>2026-05-02T07:47:15Z</time></trkpt><trkpt lat="43.865692809892295" lon="11.09677308456348"><ele>54.5</ele><time>2026-05-02T07:47:16Z</time></trkpt><trkpt lat="43.86584200481991" lon="11.096493166299053"><ele>55.0</ele><time>2026-05-02T07:47:17Z</time></trkpt><trkpt lat="43.86599937526121" lon="11.096218781846229"><ele>54.0</ele><time>2026-05-02T07:47:18Z</time></trkpt><trkpt lat="43.86616510709124" lon="11.095950666068811"><ele>53.0</ele><time>2026-05-02T07:47:19Z</time></trkpt><trkpt lat="43.86633160069723" lon="11.095684414471629"><ele>53.0</ele><time>2026-05-02T07:47:20Z</time></trkpt><trkpt lat="43.866492519251416" lon="11.095424371434154"><ele>53.0</ele><time>2026-05-02T07:47:21Z</time></trkpt><trkpt lat="43.86664419918129" lon="11.095163505363006"><ele>52.0</ele><time>2026-05-02T07:47:22Z</time></trkpt><trkpt lat="43.86679464026069" lon="11.094878294575874"><ele>51.0</ele><time>2026-05-02T07:47:23Z</time></trkpt><trkpt lat="43.866935405079296" lon="11.09458082016525"><ele>51.0</ele><time>2026-05-02T07:47:24Z</time></trkpt><trkpt lat="43.86706839282347" lon="11.094348803085806"><ele>51.0</ele><time>2026-05-02T07:47:25Z</time></trkpt><trkpt lat="43.8671831861621" lon="11.09412882206082"><ele>51.0</ele><time>2026-05-02T07:47:26Z</time></trkpt><trkpt lat="43.867303435592675" lon="11.093910475180616"><ele>51.33333333333333</ele><time>2026-05-02T07:47:27Z</time></trkpt><trkpt lat="43.86742447807368" lon="11.093680824989141"><ele>51.666666666666664</ele><time>2026-05-02T07:47:28Z</time></trkpt><trkpt lat="43.8675477100556" lon="11.093445578347653"><ele>52.0</ele><time>2026-05-02T07:47:29Z</time></trkpt><trkpt lat="43.867666316936585" lon="11.09321071949556"><ele>52.0</ele><time>2026-05-02T07:47:30Z</time></trkpt><trkpt lat="43.86777653948676" lon="11.092994010660341"><ele>52.0</ele><time>2026-05-02T07:47:31Z</time></trkpt><trkpt lat="43.86788239659032" lon="11.092787615895553"><ele>52.0</ele><time>2026-05-02T07:47:32Z</time></trkpt><trkpt lat="43.86798154092904" lon="11.092590151951272"><ele>52.33333333333333</ele><time>2026-05-02T07:47:33Z</time></trkpt><trkpt lat="43.86808167615966" lon="11.092390239923986"><ele>52.66666666666667</ele><time>2026-05-02T07:47:34Z</time></trkpt><trkpt lat="43.86818372007992" lon="11.092178014807947"><ele>53.0</ele><time>2026-05-02T07:47:35Z</time></trkpt><trkpt lat="43.86828717356678" lon="11.091955197008502"><ele>53.0</ele><time>2026-05-02T07:47:36Z</time></trkpt><trkpt lat="43.86838730780121" lon="11.091747246008946"><ele>53.0</ele><time>2026-05-02T07:47:37Z</time></trkpt><trkpt lat="43.86847668088926" lon="11.091549626622175"><ele>53.0</ele><time>2026-05-02T07:47:38Z</time></trkpt><trkpt lat="43.868557923750345" lon="11.091358597529869"><ele>53.333333333333336</ele><time>2026-05-02T07:47:39Z</time></trkpt><trkpt lat="43.86863725605993" lon="11.091177267694311"><ele>53.66666666666667</ele><time>2026-05-02T07:47:40Z</time></trkpt><trkpt lat="43.868718678416236" lon="11.090988868761558"><ele>54.0</ele><time>2026-05-02T07:47:41Z</time></trkpt><trkpt lat="43.868804438421186" lon="11.090787416355923"><ele>53.66666666666667</ele><time>2026-05-02T07:47:42Z</time></trkpt><trkpt lat="43.868888214662405" lon="11.090597597037286"><ele>53.333333333333336</ele><time>2026-05-02T07:47:43Z</time></trkpt><trkpt lat="43.86896932706376" lon="11.090424261612725"><ele>53.0</ele><time>2026-05-02T07:47:44Z</time></trkpt><trkpt lat="43.86904739091718" lon="11.090256537033168"><ele>53.0</ele><time>2026-05-02T07:47:45Z</time></trkpt><trkpt lat="43.86912432505861" lon="11.090098572187967"><ele>53.0</ele><time>2026-05-02T07:47:46Z</time></trkpt><trkpt lat="43.869194942826056" lon="11.089952123340236"><ele>53.0</ele><time>2026-05-02T07:47:47Z</time></trkpt><trkpt lat="43.8692633721959" lon="11.089807386661185"><ele>53.0</ele><time>2026-05-02T07:47:48Z</time></trkpt><trkpt lat="43.869335038020665" lon="11.089655710735597"><ele>53.75</ele><time>2026-05-02T07:47:49Z</time></trkpt><trkpt lat="43.869406911358176" lon="11.089503362075737"><ele>54.5</ele><time>2026-05-02T07:47:49.999Z</time></trkpt><trkpt lat="43.86947878767939" lon="11.089352868464704"><ele>55.25</ele><time>2026-05-02T07:47:50.999Z</time></trkpt><trkpt lat="43.86955118245406" lon="11.089207396908405"><ele>56.0</ele><time>2026-05-02T07:47:51.999Z</time></trkpt><trkpt lat="43.86962392043212" lon="11.089065018096278"><ele>56.0</ele><time>2026-05-02T07:47:52.999Z</time></trkpt><trkpt lat="43.869693347647086" lon="11.088925931345653"><ele>56.0</ele><time>2026-05-02T07:47:53.999Z</time></trkpt><trkpt lat="43.869761110271725" lon="11.088785472686174"><ele>56.0</ele><time>2026-05-02T07:47:54.999Z</time></trkpt><trkpt lat="43.86982888668573" lon="11.088640848079864"><ele>56.0</ele><time>2026-05-02T07:47:55.999Z</time></trkpt><trkpt lat="43.86990120231484" lon="11.088494017999443"><ele>56.0</ele><time>2026-05-02T07:47:56.999Z</time></trkpt><trkpt lat="43.86997311694625" lon="11.08835066215978"><ele>56.0</ele><time>2026-05-02T07:47:57.999Z</time></trkpt><trkpt lat="43.87004504239383" lon="11.088211262378167"><ele>56.0</ele><time>2026-05-02T07:47:58.999Z</time></trkpt><trkpt lat="43.87011424593646" lon="11.088073271339201"><ele>56.0</ele><time>2026-05-02T07:47:59.999Z</time></trkpt><trkpt lat="43.870182078640184" lon="11.087934457346568"><ele>55.25</ele><time>2026-05-02T07:48:00.999Z</time></trkpt><trkpt lat="43.87024899822564" lon="11.08780104015808"><ele>54.5</ele><time>2026-05-02T07:48:01.999Z</time></trkpt><trkpt lat="43.87031872149844" lon="11.087661074477575"><ele>53.75</ele><time>2026-05-02T07:48:02.999Z</time></trkpt><trkpt lat="43.87039059525306" lon="11.087517952390984"><ele>53.0</ele><time>2026-05-02T07:48:03.999Z</time></trkpt><trkpt lat="43.870463330817834" lon="11.087371317033815"><ele>52.75</ele><time>2026-05-02T07:48:04.999Z</time></trkpt><trkpt lat="43.870537637269464" lon="11.087223747830171"><ele>52.5</ele><time>2026-05-02T07:48:05.999Z</time></trkpt><trkpt lat="43.87061145697442" lon="11.087076535848388"><ele>52.25</ele><time>2026-05-02T07:48:06.999Z</time></trkpt><trkpt lat="43.87068725895553" lon="11.086927296526655"><ele>52.0</ele><time>2026-05-02T07:48:07.999Z</time></trkpt><trkpt lat="43.870765295246834" lon="11.086776867866872"><ele>52.0</ele><time>2026-05-02T07:48:08.999Z</time></trkpt><trkpt lat="43.870842477829044" lon="11.086626893599146"><ele>52.0</ele><time>2026-05-02T07:48:09.999Z</time></trkpt><trkpt lat="43.870918941814494" lon="11.08647977213549"><ele>52.0</ele><time>2026-05-02T07:48:10.999Z</time></trkpt><trkpt lat="43.87099474691672" lon="11.08633390694254"><ele>52.0</ele><time>2026-05-02T07:48:11.999Z</time></trkpt><trkpt lat="43.87106863182385" lon="11.086189702467582"><ele>52.25</ele><time>2026-05-02T07:48:12.999Z</time></trkpt><trkpt lat="43.87114257556416" lon="11.086044796279033"><ele>52.5</ele><time>2026-05-02T07:48:13.999Z</time></trkpt><trkpt lat="43.87121648818943" lon="11.085901579090532"><ele>52.75</ele><time>2026-05-02T07:48:14.999Z</time></trkpt><trkpt lat="43.87129043950634" lon="11.085757417643919"><ele>53.0</ele><time>2026-05-02T07:48:15.999Z</time></trkpt><trkpt lat="43.87136593030993" lon="11.085604632930291"><ele>53.0</ele><time>2026-05-02T07:48:16.999Z</time></trkpt><trkpt lat="43.871444731414634" lon="11.08545002671097"><ele>53.0</ele><time>2026-05-02T07:48:17.999Z</time></trkpt><trkpt lat="43.871525325153655" lon="11.085294283182078"><ele>53.0</ele><time>2026-05-02T07:48:18.999Z</time></trkpt><trkpt lat="43.87160650422916" lon="11.085135259725991"><ele>53.0</ele><time>2026-05-02T07:48:19.999Z</time></trkpt><trkpt lat="43.87168661564523" lon="11.084974855366251"><ele>53.0</ele><time>2026-05-02T07:48:20.999Z</time></trkpt><trkpt lat="43.8717639020013" lon="11.084819333193701"><ele>53.0</ele><time>2026-05-02T07:48:21.999Z</time></trkpt><trkpt lat="43.87183840403707" lon="11.084665647917708"><ele>53.0</ele><time>2026-05-02T07:48:22.999Z</time></trkpt><trkpt lat="43.871913689059326" lon="11.084512783993258"><ele>53.0</ele><time>2026-05-02T07:48:23.999Z</time></trkpt><trkpt lat="43.87199451037489" lon="11.084355723449535"><ele>53.0</ele><time>2026-05-02T07:48:24.999Z</time></trkpt><trkpt lat="43.872082925789464" lon="11.084185793680541"><ele>53.0</ele><time>2026-05-02T07:48:25.999Z</time></trkpt><trkpt lat="43.872180317079135" lon="11.083998762621647"><ele>53.0</ele><time>2026-05-02T07:48:26.999Z</time></trkpt><trkpt lat="43.87229168880749" lon="11.08379119730138"><ele>52.66666666666667</ele><time>2026-05-02T07:48:27.999Z</time></trkpt><trkpt lat="43.87240418572605" lon="11.083583078341208"><ele>52.33333333333333</ele><time>2026-05-02T07:48:28.999Z</time></trkpt><trkpt lat="43.87252241264263" lon="11.083362323798934"><ele>52.0</ele><time>2026-05-02T07:48:29.999Z</time></trkpt><trkpt lat="43.872643307944585" lon="11.083134552266484"><ele>51.666666666666664</ele><time>2026-05-02T07:48:30.999Z</time></trkpt><trkpt lat="43.87276944356341" lon="11.082893767933138"><ele>51.33333333333333</ele><time>2026-05-02T07:48:31.999Z</time></trkpt><trkpt lat="43.87290242790253" lon="11.082637903357167"><ele>51.0</ele><time>2026-05-02T07:48:33Z</time></trkpt><trkpt lat="43.873047417650824" lon="11.082357473190497"><ele>50.5</ele><time>2026-05-02T07:48:34Z</time></trkpt><trkpt lat="43.87319205475011" lon="11.08207742529999"><ele>50.0</ele><time>2026-05-02T07:48:35Z</time></trkpt><trkpt lat="43.87333515998358" lon="11.081798248612177"><ele>52.0</ele><time>2026-05-02T07:48:36Z</time></trkpt><trkpt lat="43.87348363587828" lon="11.081509214172002"><ele>54.0</ele><time>2026-05-02T07:48:37Z</time></trkpt><trkpt lat="43.87362869909241" lon="11.081230492979442"><ele>54.0</ele><time>2026-05-02T07:48:38Z</time></trkpt><trkpt lat="43.87375101797955" lon="11.080947357610402"><ele>54.0</ele><time>2026-05-02T07:48:39Z</time></trkpt><trkpt lat="43.87388655751332" lon="11.080694977157755"><ele>53.5</ele><time>2026-05-02T07:48:40Z</time></trkpt><trkpt lat="43.87401975224157" lon="11.080437571351123"><ele>53.0</ele><time>2026-05-02T07:48:41Z</time></trkpt><trkpt lat="43.87415633831056" lon="11.080182515715995"><ele>53.5</ele><time>2026-05-02T07:48:42Z</time></trkpt><trkpt lat="43.87429711884366" lon="11.0799312103602"><ele>54.0</ele><time>2026-05-02T07:48:43Z</time></trkpt><trkpt lat="43.87444280218185" lon="11.079685199117932"><ele>54.0</ele><time>2026-05-02T07:48:44Z</time></trkpt><trkpt lat="43.87458985021048" lon="11.07944113655662"><ele>54.0</ele><time>2026-05-02T07:48:45Z</time></trkpt><trkpt lat="43.87473654672565" lon="11.079194242059236"><ele>54.5</ele><time>2026-05-02T07:48:46Z</time></trkpt><trkpt lat="43.87487941600758" lon="11.078943591570907"><ele>55.0</ele><time>2026-05-02T07:48:47Z</time></trkpt><trkpt lat="43.87501940177181" lon="11.078689172172039"><ele>54.5</ele><time>2026-05-02T07:48:48Z</time></trkpt><trkpt lat="43.87515770832589" lon="11.078429335533412"><ele>54.0</ele><time>2026-05-02T07:48:49Z</time></trkpt><trkpt lat="43.87529179506594" lon="11.078169634214616"><ele>53.66666666666667</ele><time>2026-05-02T07:48:50Z</time></trkpt><trkpt lat="43.87541931465207" lon="11.077919369138844"><ele>53.333333333333336</ele><time>2026-05-02T07:48:51Z</time></trkpt><trkpt lat="43.875546947525464" lon="11.077670321389194"><ele>53.0</ele><time>2026-05-02T07:48:52Z</time></trkpt><trkpt lat="43.87567009310726" lon="11.077424628068403"><ele>53.0</ele><time>2026-05-02T07:48:53Z</time></trkpt><trkpt lat="43.875787706763674" lon="11.077174150708018"><ele>53.0</ele><time>2026-05-02T07:48:54Z</time></trkpt><trkpt lat="43.87589979815527" lon="11.076919736003251"><ele>53.0</ele><time>2026-05-02T07:48:55Z</time></trkpt><trkpt lat="43.87600587383234" lon="11.076661487101271"><ele>53.0</ele><time>2026-05-02T07:48:56Z</time></trkpt><trkpt lat="43.876106043261174" lon="11.07640427284011"><ele>53.0</ele><time>2026-05-02T07:48:57Z</time></trkpt><trkpt lat="43.87619954038322" lon="11.0761613359641"><ele>53.0</ele><time>2026-05-02T07:48:58Z</time></trkpt><trkpt lat="43.87628498580059" lon="11.075928451910496"><ele>52.66666666666667</ele><time>2026-05-02T07:48:59Z</time></trkpt><trkpt lat="43.87636270990751" lon="11.07570599831627"><ele>52.33333333333333</ele><time>2026-05-02T07:49:00Z</time></trkpt><trkpt lat="43.87643672289781" lon="11.075486300660371"><ele>52.0</ele><time>2026-05-02T07:49:01Z</time></trkpt><trkpt lat="43.876505562627344" lon="11.0752678506229"><ele>52.0</ele><time>2026-05-02T07:49:02Z</time></trkpt><trkpt lat="43.87657222052061" lon="11.075051371732524"><ele>52.0</ele><time>2026-05-02T07:49:03Z</time></trkpt><trkpt lat="43.87663420616239" lon="11.074838750576992"><ele>52.0</ele><time>2026-05-02T07:49:04Z</time></trkpt><trkpt lat="43.87669192888409" lon="11.074631157466989"><ele>52.666666666666664</ele><time>2026-05-02T07:49:05Z</time></trkpt><trkpt lat="43.87674424918585" lon="11.074429005163843"><ele>53.33333333333333</ele><time>2026-05-02T07:49:06Z</time></trkpt><trkpt lat="43.876794452672165" lon="11.074223626490316"><ele>54.0</ele><time>2026-05-02T07:49:07Z</time></trkpt><trkpt lat="43.876843804681485" lon="11.074013921317006"><ele>54.66666666666667</ele><time>2026-05-02T07:49:08Z</time></trkpt><trkpt lat="43.8768946424846" lon="11.07379457412341"><ele>55.333333333333336</ele><time>2026-05-02T07:49:09Z</time></trkpt><trkpt lat="43.876946905975515" lon="11.07355912529736"><ele>56.0</ele><time>2026-05-02T07:49:10Z</time></trkpt><trkpt lat="43.877000669865616" lon="11.073306463698058"><ele>56.333333333333336</ele><time>2026-05-02T07:49:11Z</time></trkpt><trkpt lat="43.8770598965813" lon="11.073033232501244"><ele>56.66666666666667</ele><time>2026-05-02T07:49:12Z</time></trkpt><trkpt lat="43.87712439804081" lon="11.07273913201319"><ele>57.0</ele><time>2026-05-02T07:49:13Z</time></trkpt><trkpt lat="43.877189438112445" lon="11.0724274102643"><ele>57.0</ele><time>2026-05-02T07:49:14Z</time></trkpt><trkpt lat="43.87725386324177" lon="11.072111414053648"><ele>57.0</ele><time>2026-05-02T07:49:15Z</time></trkpt><trkpt lat="43.877318202244666" lon="11.071788646180002"><ele>55.0</ele><time>2026-05-02T07:49:16Z</time></trkpt><trkpt lat="43.87738142741745" lon="11.071463206113414"><ele>53.0</ele><time>2026-05-02T07:49:17Z</time></trkpt><trkpt lat="43.87744427209069" lon="11.071135665227098"><ele>53.0</ele><time>2026-05-02T07:49:18Z</time></trkpt><trkpt lat="43.87750761587277" lon="11.070805955370833"><ele>53.0</ele><time>2026-05-02T07:49:19Z</time></trkpt><trkpt lat="43.87757245690495" lon="11.070475560741396"><ele>52.5</ele><time>2026-05-02T07:49:20Z</time></trkpt><trkpt lat="43.8776387044705" lon="11.070144035829733"><ele>52.0</ele><time>2026-05-02T07:49:21Z</time></trkpt><trkpt lat="43.877699407616994" lon="11.069811347930143"><ele>52.0</ele><time>2026-05-02T07:49:22Z</time></trkpt><trkpt lat="43.87775869979728" lon="11.069472574310142"><ele>52.0</ele><time>2026-05-02T07:49:23Z</time></trkpt><trkpt lat="43.87782975304953" lon="11.06914158060208"><ele>52.5</ele><time>2026-05-02T07:49:24Z</time></trkpt><trkpt lat="43.87788776549086" lon="11.068807855770435"><ele>53.0</ele><time>2026-05-02T07:49:25Z</time></trkpt><trkpt lat="43.87795742968689" lon="11.068479270797992"><ele>53.0</ele><time>2026-05-02T07:49:26Z</time></trkpt><trkpt lat="43.87801977588082" lon="11.068143703708467"><ele>53.0</ele><time>2026-05-02T07:49:27Z</time></trkpt><trkpt lat="43.87809403844194" lon="11.067812022803817"><ele>53.0</ele><time>2026-05-02T07:49:28Z</time></trkpt><trkpt lat="43.87815663782101" lon="11.067473311370513"><ele>53.0</ele><time>2026-05-02T07:49:29Z</time></trkpt><trkpt lat="43.87822349386838" lon="11.067135005603454"><ele>52.0</ele><time>2026-05-02T07:49:30Z</time></trkpt><trkpt lat="43.8782932619552" lon="11.066795035694746"><ele>51.0</ele><time>2026-05-02T07:49:31Z</time></trkpt><trkpt lat="43.87836065720999" lon="11.066451747207221"><ele>51.0</ele><time>2026-05-02T07:49:32Z</time></trkpt><trkpt lat="43.87842791322455" lon="11.066106358323987"><ele>51.0</ele><time>2026-05-02T07:49:33Z</time></trkpt><trkpt lat="43.878494527121866" lon="11.065759532580365"><ele>52.5</ele><time>2026-05-02T07:49:34Z</time></trkpt><trkpt lat="43.87856193050511" lon="11.06540900902556"><ele>54.0</ele><time>2026-05-02T07:49:35Z</time></trkpt><trkpt lat="43.878631057612914" lon="11.065051906535931"><ele>52.0</ele><time>2026-05-02T07:49:36Z</time></trkpt><trkpt lat="43.87869870526251" lon="11.064711785094172"><ele>50.0</ele><time>2026-05-02T07:49:37Z</time></trkpt><trkpt lat="43.878764617925434" lon="11.064384340508298"><ele>50.0</ele><time>2026-05-02T07:49:38Z</time></trkpt><trkpt lat="43.8788288480531" lon="11.064063298684276"><ele>50.0</ele><time>2026-05-02T07:49:39Z</time></trkpt><trkpt lat="43.87889303430962" lon="11.0637456916175"><ele>50.0</ele><time>2026-05-02T07:49:40Z</time></trkpt><trkpt lat="43.87895372802667" lon="11.063432717251727"><ele>50.0</ele><time>2026-05-02T07:49:41Z</time></trkpt><trkpt lat="43.87901762223769" lon="11.063123113941614"><ele>50.0</ele><time>2026-05-02T07:49:42Z</time></trkpt><trkpt lat="43.879080514003014" lon="11.06281511236804"><ele>50.0</ele><time>2026-05-02T07:49:43Z</time></trkpt><trkpt lat="43.87914051215995" lon="11.062517269228824"><ele>50.0</ele><time>2026-05-02T07:49:44Z</time></trkpt><trkpt lat="43.879191123805455" lon="11.062227128179558"><ele>50.0</ele><time>2026-05-02T07:49:45Z</time></trkpt><trkpt lat="43.879247525251394" lon="11.061933238833266"><ele>50.0</ele><time>2026-05-02T07:49:46Z</time></trkpt><trkpt lat="43.879312346432116" lon="11.06164357459715"><ele>50.333333333333336</ele><time>2026-05-02T07:49:47Z</time></trkpt><trkpt lat="43.87938720974238" lon="11.06135511735882"><ele>50.66666666666667</ele><time>2026-05-02T07:49:48Z</time></trkpt><trkpt lat="43.87946905350724" lon="11.06106430892431"><ele>51.0</ele><time>2026-05-02T07:49:49Z</time></trkpt><trkpt lat="43.879554509486205" lon="11.060770751526649"><ele>51.0</ele><time>2026-05-02T07:49:50Z</time></trkpt><trkpt lat="43.87963452457916" lon="11.060478000377728"><ele>51.0</ele><time>2026-05-02T07:49:51Z</time></trkpt><trkpt lat="43.87970674312206" lon="11.060195091013757"><ele>51.0</ele><time>2026-05-02T07:49:52Z</time></trkpt><trkpt lat="43.879773500606504" lon="11.05990655790978"><ele>50.0</ele><time>2026-05-02T07:49:53Z</time></trkpt><trkpt lat="43.87983680899515" lon="11.059607386142682"><ele>49.0</ele><time>2026-05-02T07:49:54Z</time></trkpt><trkpt lat="43.879904609383225" lon="11.05931025550838"><ele>48.0</ele><time>2026-05-02T07:49:55Z</time></trkpt><trkpt lat="43.87997336233092" lon="11.059013857446127"><ele>48.0</ele><time>2026-05-02T07:49:56Z</time></trkpt><trkpt lat="43.88003901984676" lon="11.058721313307641"><ele>48.0</ele><time>2026-05-02T07:49:57Z</time></trkpt><trkpt lat="43.880104765756286" lon="11.0584322158568"><ele>48.0</ele><time>2026-05-02T07:49:58Z</time></trkpt><trkpt lat="43.88017105096068" lon="11.058146956281723"><ele>48.0</ele><time>2026-05-02T07:49:59Z</time></trkpt><trkpt lat="43.8802360759492" lon="11.057860825425585"><ele>48.0</ele><time>2026-05-02T07:50:00Z</time></trkpt><trkpt lat="43.88030031469434" lon="11.057571836943332"><ele>48.0</ele><time>2026-05-02T07:50:00.999Z</time></trkpt><trkpt lat="43.88036623881088" lon="11.057273072840985"><ele>48.5</ele><time>2026-05-02T07:50:01.999Z</time></trkpt><trkpt lat="43.88043456163577" lon="11.056972570118186"><ele>49.0</ele><time>2026-05-02T07:50:02.999Z</time></trkpt><trkpt lat="43.88050440432374" lon="11.056669969655296"><ele>48.0</ele><time>2026-05-02T07:50:03.999Z</time></trkpt><trkpt lat="43.8805729393063" lon="11.056364799269229"><ele>47.0</ele><time>2026-05-02T07:50:04.999Z</time></trkpt><trkpt lat="43.88063933337231" lon="11.056058083142796"><ele>47.0</ele><time>2026-05-02T07:50:05.999Z</time></trkpt><trkpt lat="43.88070516282493" lon="11.0557468995397"><ele>47.0</ele><time>2026-05-02T07:50:06.999Z</time></trkpt><trkpt lat="43.88077165628132" lon="11.055429862711152"><ele>47.0</ele><time>2026-05-02T07:50:07.999Z</time></trkpt><trkpt lat="43.880839579549395" lon="11.055108642264784"><ele>47.0</ele><time>2026-05-02T07:50:08.999Z</time></trkpt><trkpt lat="43.88090915287706" lon="11.054785160551111"><ele>46.5</ele><time>2026-05-02T07:50:09.999Z</time></trkpt><trkpt lat="43.880979756202116" lon="11.05445396636957"><ele>46.0</ele><time>2026-05-02T07:50:10.999Z</time></trkpt><trkpt lat="43.881049225296735" lon="11.054119415364275"><ele>45.0</ele><time>2026-05-02T07:50:11.999Z</time></trkpt><trkpt lat="43.88112147994709" lon="11.05378258508932"><ele>44.0</ele><time>2026-05-02T07:50:12.999Z</time></trkpt><trkpt lat="43.8811938272701" lon="11.053447515904649"><ele>43.0</ele><time>2026-05-02T07:50:13.999Z</time></trkpt><trkpt lat="43.881266943699515" lon="11.053114396165903"><ele>42.0</ele><time>2026-05-02T07:50:14.999Z</time></trkpt><trkpt lat="43.88133928442896" lon="11.0527850614192"><ele>42.0</ele><time>2026-05-02T07:50:15.999Z</time></trkpt><trkpt lat="43.881409765423435" lon="11.0524647036569"><ele>42.0</ele><time>2026-05-02T07:50:16.999Z</time></trkpt><trkpt lat="43.8814783482154" lon="11.05215321163889"><ele>42.5</ele><time>2026-05-02T07:50:17.999Z</time></trkpt><trkpt lat="43.881544523590016" lon="11.051843183203578"><ele>43.0</ele><time>2026-05-02T07:50:18.999Z</time></trkpt><trkpt lat="43.881611787768485" lon="11.051540899088"><ele>43.0</ele><time>2026-05-02T07:50:19.999Z</time></trkpt><trkpt lat="43.881673748117244" lon="11.051249513295277"><ele>43.0</ele><time>2026-05-02T07:50:20.999Z</time></trkpt><trkpt lat="43.8817334028538" lon="11.050971406817249"><ele>43.0</ele><time>2026-05-02T07:50:21.999Z</time></trkpt><trkpt lat="43.8817912413851" lon="11.0507037719624"><ele>43.333333333333336</ele><time>2026-05-02T07:50:22.999Z</time></trkpt><trkpt lat="43.881849234054705" lon="11.05043621167123"><ele>43.666666666666664</ele><time>2026-05-02T07:50:23.999Z</time></trkpt><trkpt lat="43.881906726849714" lon="11.050169621885527"><ele>44.0</ele><time>2026-05-02T07:50:24.999Z</time></trkpt><trkpt lat="43.881961037853486" lon="11.049905848411553"><ele>44.0</ele><time>2026-05-02T07:50:25.999Z</time></trkpt><trkpt lat="43.88201412204074" lon="11.049646563026755"><ele>44.0</ele><time>2026-05-02T07:50:26.999Z</time></trkpt><trkpt lat="43.88206706468532" lon="11.049393532800005"><ele>44.0</ele><time>2026-05-02T07:50:27.999Z</time></trkpt><trkpt lat="43.88211985275321" lon="11.04914392988565"><ele>44.0</ele><time>2026-05-02T07:50:28.999Z</time></trkpt><trkpt lat="43.882174608724306" lon="11.048893400692382"><ele>44.0</ele><time>2026-05-02T07:50:29.999Z</time></trkpt><trkpt lat="43.88222876985112" lon="11.048647888069741"><ele>44.0</ele><time>2026-05-02T07:50:30.999Z</time></trkpt><trkpt lat="43.88228017466059" lon="11.048408260320866"><ele>44.33333333333333</ele><time>2026-05-02T07:50:31.999Z</time></trkpt><trkpt lat="43.88233174627452" lon="11.048170429981484"><ele>44.666666666666664</ele><time>2026-05-02T07:50:32.999Z</time></trkpt><trkpt lat="43.88238411593405" lon="11.047934059961637"><ele>45.0</ele><time>2026-05-02T07:50:33.999Z</time></trkpt><trkpt lat="43.88243663854107" lon="11.04769979318056"><ele>45.0</ele><time>2026-05-02T07:50:34.999Z</time></trkpt><trkpt lat="43.88248952901446" lon="11.047468439771782"><ele>45.0</ele><time>2026-05-02T07:50:35.999Z</time></trkpt><trkpt lat="43.88254276809848" lon="11.047235780079406"><ele>45.0</ele><time>2026-05-02T07:50:36.999Z</time></trkpt><trkpt lat="43.882597020199974" lon="11.047001078657289"><ele>44.666666666666664</ele><time>2026-05-02T07:50:37.999Z</time></trkpt><trkpt lat="43.882651458602574" lon="11.046760663438018"><ele>44.33333333333333</ele><time>2026-05-02T07:50:39Z</time></trkpt><trkpt lat="43.88270615402474" lon="11.046516312789477"><ele>44.0</ele><time>2026-05-02T07:50:40Z</time></trkpt><trkpt lat="43.88275885939225" lon="11.04627632511163"><ele>44.0</ele><time>2026-05-02T07:50:41Z</time></trkpt><trkpt lat="43.88280852013969" lon="11.046037837038279"><ele>44.0</ele><time>2026-05-02T07:50:42Z</time></trkpt><trkpt lat="43.882860206470696" lon="11.045792615079774"><ele>44.0</ele><time>2026-05-02T07:50:43Z</time></trkpt><trkpt lat="43.88291331160218" lon="11.045542295080281"><ele>44.0</ele><time>2026-05-02T07:50:44Z</time></trkpt><trkpt lat="43.88296516708745" lon="11.045293919675158"><ele>44.0</ele><time>2026-05-02T07:50:45Z</time></trkpt><trkpt lat="43.88301719328587" lon="11.045042156214743"><ele>44.0</ele><time>2026-05-02T07:50:46Z</time></trkpt><trkpt lat="43.88307104340228" lon="11.044784084790402"><ele>43.666666666666664</ele><time>2026-05-02T07:50:47Z</time></trkpt><trkpt lat="43.88312755519647" lon="11.044515362146875"><ele>43.333333333333336</ele><time>2026-05-02T07:50:48Z</time></trkpt><trkpt lat="43.88318575037752" lon="11.044231716974714"><ele>43.0</ele><time>2026-05-02T07:50:49Z</time></trkpt><trkpt lat="43.88324635387609" lon="11.043934793621947"><ele>42.5</ele><time>2026-05-02T07:50:50Z</time></trkpt><trkpt lat="43.88330848662239" lon="11.043632869497861"><ele>42.0</ele><time>2026-05-02T07:50:51Z</time></trkpt><trkpt lat="43.883364880940725" lon="11.043333062656295"><ele>41.666666666666664</ele><time>2026-05-02T07:50:52Z</time></trkpt><trkpt lat="43.8834155064367" lon="11.043037940883444"><ele>41.33333333333333</ele><time>2026-05-02T07:50:53Z</time></trkpt><trkpt lat="43.883462047923715" lon="11.042757861762498"><ele>41.0</ele><time>2026-05-02T07:50:54Z</time></trkpt><trkpt lat="43.883508112404215" lon="11.042499869031369"><ele>41.33333333333333</ele><time>2026-05-02T07:50:55Z</time></trkpt><trkpt lat="43.8835486035524" lon="11.042264548888106"><ele>41.666666666666664</ele><time>2026-05-02T07:50:56Z</time></trkpt><trkpt lat="43.88358719439742" lon="11.042055075644347"><ele>42.0</ele><time>2026-05-02T07:50:57Z</time></trkpt><trkpt lat="43.8836261624101" lon="11.041867402018351"><ele>42.0</ele><time>2026-05-02T07:50:58Z</time></trkpt><trkpt lat="43.88366815308248" lon="11.041719116648238"><ele>42.0</ele><time>2026-05-02T07:50:59Z</time></trkpt><trkpt lat="43.883719581801024" lon="11.04160456801032"><ele>42.0</ele><time>2026-05-02T07:51:00Z</time></trkpt><trkpt lat="43.88378771557567" lon="11.041525448260147"><ele>42.0</ele><time>2026-05-02T07:51:01Z</time></trkpt><trkpt lat="43.88387110144794" lon="11.041488194507972"><ele>42.0</ele><time>2026-05-02T07:51:02Z</time></trkpt><trkpt lat="43.88397467631035" lon="11.04147339881905"><ele>41.75</ele><time>2026-05-02T07:51:03Z</time></trkpt><trkpt lat="43.884089456830644" lon="11.04143421714962"><ele>41.5</ele><time>2026-05-02T07:51:04Z</time></trkpt><trkpt lat="43.884196273925994" lon="11.041350526512536"><ele>41.25</ele><time>2026-05-02T07:51:05Z</time></trkpt><trkpt lat="43.88429131261702" lon="11.041230677377266"><ele>41.0</ele><time>2026-05-02T07:51:06Z</time></trkpt><trkpt lat="43.88437094556852" lon="11.041085295966932"><ele>40.75</ele><time>2026-05-02T07:51:07Z</time></trkpt><trkpt lat="43.88442000629192" lon="11.040923557199589"><ele>40.5</ele><time>2026-05-02T07:51:08Z</time></trkpt><trkpt lat="43.88443489578505" lon="11.04075744203028"><ele>40.25</ele><time>2026-05-02T07:51:09Z</time></trkpt><trkpt lat="43.884422138392175" lon="11.040597309065008"><ele>40.0</ele><time>2026-05-02T07:51:10Z</time></trkpt><trkpt lat="43.88438534951777" lon="11.040437648767522"><ele>40.0</ele><time>2026-05-02T07:51:11Z</time></trkpt><trkpt lat="43.88432631690061" lon="11.040280694019229"><ele>40.0</ele><time>2026-05-02T07:51:12Z</time></trkpt><trkpt lat="43.884251970749155" lon="11.040112822241754"><ele>40.0</ele><time>2026-05-02T07:51:13Z</time></trkpt><trkpt lat="43.884197731127784" lon="11.039928535989329"><ele>40.0</ele><time>2026-05-02T07:51:14Z</time></trkpt><trkpt lat="43.884179512533" lon="11.039750794642885"><ele>41.0</ele><time>2026-05-02T07:51:15Z</time></trkpt><trkpt lat="43.88418984254441" lon="11.03956843514617"><ele>42.0</ele><time>2026-05-02T07:51:16Z</time></trkpt><trkpt lat="43.8842272781204" lon="11.039350260794292"><ele>43.0</ele><time>2026-05-02T07:51:17Z</time></trkpt><trkpt lat="43.88427906463667" lon="11.039110343269824"><ele>43.333333333333336</ele><time>2026-05-02T07:51:18Z</time></trkpt><trkpt lat="43.88434971356503" lon="11.038836643073346"><ele>43.666666666666664</ele><time>2026-05-02T07:51:19Z</time></trkpt><trkpt lat="43.88442973755216" lon="11.038526698659311"><ele>44.0</ele><time>2026-05-02T07:51:20Z</time></trkpt><trkpt lat="43.88451031831748" lon="11.038185568015702"><ele>44.0</ele><time>2026-05-02T07:51:21Z</time></trkpt><trkpt lat="43.88458189938339" lon="11.037834868384527"><ele>44.0</ele><time>2026-05-02T07:51:22Z</time></trkpt><trkpt lat="43.88465348826446" lon="11.037491735299138"><ele>44.0</ele><time>2026-05-02T07:51:23Z</time></trkpt><trkpt lat="43.884729715621845" lon="11.037160659155013"><ele>44.0</ele><time>2026-05-02T07:51:24Z</time></trkpt><trkpt lat="43.884805151596225" lon="11.036838713608319"><ele>43.5</ele><time>2026-05-02T07:51:25Z</time></trkpt><trkpt lat="43.88487630082306" lon="11.036519520033488"><ele>43.0</ele><time>2026-05-02T07:51:26Z</time></trkpt><trkpt lat="43.88494487463794" lon="11.036204869086086"><ele>43.0</ele><time>2026-05-02T07:51:27Z</time></trkpt><trkpt lat="43.88501037966817" lon="11.035895291468593"><ele>43.0</ele><time>2026-05-02T07:51:28Z</time></trkpt><trkpt lat="43.88507929287393" lon="11.035590718798945"><ele>43.5</ele><time>2026-05-02T07:51:29Z</time></trkpt><trkpt lat="43.885136987356965" lon="11.035285247768572"><ele>44.0</ele><time>2026-05-02T07:51:30Z</time></trkpt><trkpt lat="43.88520834650102" lon="11.034982840245306"><ele>42.5</ele><time>2026-05-02T07:51:31Z</time></trkpt><trkpt lat="43.88527613719784" lon="11.0346770988489"><ele>41.0</ele><time>2026-05-02T07:51:32Z</time></trkpt><trkpt lat="43.885341171080825" lon="11.034363517368272"><ele>41.0</ele><time>2026-05-02T07:51:33Z</time></trkpt><trkpt lat="43.885408647306285" lon="11.034046498850755"><ele>41.0</ele><time>2026-05-02T07:51:34Z</time></trkpt><trkpt lat="43.885476761099014" lon="11.033726937888266"><ele>41.0</ele><time>2026-05-02T07:51:35Z</time></trkpt><trkpt lat="43.885545161919495" lon="11.033403767594425"><ele>41.0</ele><time>2026-05-02T07:51:36Z</time></trkpt><trkpt lat="43.8856132123276" lon="11.033078632383015"><ele>41.0</ele><time>2026-05-02T07:51:37Z</time></trkpt><trkpt lat="43.885681589064184" lon="11.032750263424553"><ele>41.0</ele><time>2026-05-02T07:51:38Z</time></trkpt><trkpt lat="43.88574957397929" lon="11.03241862500757"><ele>39.5</ele><time>2026-05-02T07:51:39Z</time></trkpt><trkpt lat="43.885818934786094" lon="11.032086860118138"><ele>38.0</ele><time>2026-05-02T07:51:40Z</time></trkpt><trkpt lat="43.885888459224375" lon="11.03175408067946"><ele>38.5</ele><time>2026-05-02T07:51:41Z</time></trkpt><trkpt lat="43.88595772759755" lon="11.031420895176606"><ele>39.0</ele><time>2026-05-02T07:51:42Z</time></trkpt><trkpt lat="43.88602614862002" lon="11.031088817369039"><ele>40.0</ele><time>2026-05-02T07:51:43Z</time></trkpt><trkpt lat="43.886094758806514" lon="11.030755772170416"><ele>41.0</ele><time>2026-05-02T07:51:44Z</time></trkpt><trkpt lat="43.8861651422541" lon="11.030426006424198"><ele>41.0</ele><time>2026-05-02T07:51:45Z</time></trkpt><trkpt lat="43.886235386941074" lon="11.030096782759092"><ele>41.0</ele><time>2026-05-02T07:51:46Z</time></trkpt><trkpt lat="43.886307069476054" lon="11.029769884394579"><ele>40.0</ele><time>2026-05-02T07:51:47Z</time></trkpt><trkpt lat="43.88637910112737" lon="11.029445942388554"><ele>39.0</ele><time>2026-05-02T07:51:48Z</time></trkpt><trkpt lat="43.886449321464156" lon="11.029123487146293"><ele>38.5</ele><time>2026-05-02T07:51:49Z</time></trkpt><trkpt lat="43.88651817975554" lon="11.028801285802867"><ele>38.0</ele><time>2026-05-02T07:51:50Z</time></trkpt><trkpt lat="43.886586490990815" lon="11.028479512069115"><ele>39.0</ele><time>2026-05-02T07:51:51Z</time></trkpt><trkpt lat="43.88665428232393" lon="11.02816027478124"><ele>40.0</ele><time>2026-05-02T07:51:52Z</time></trkpt><trkpt lat="43.88672475899658" lon="11.027842540475831"><ele>40.0</ele><time>2026-05-02T07:51:53Z</time></trkpt><trkpt lat="43.886803398146434" lon="11.027531234776303"><ele>40.0</ele><time>2026-05-02T07:51:54Z</time></trkpt><trkpt lat="43.886894147871665" lon="11.027246616220443"><ele>41.0</ele><time>2026-05-02T07:51:55Z</time></trkpt><trkpt lat="43.88699628938734" lon="11.02696925420617"><ele>42.0</ele><time>2026-05-02T07:51:56Z</time></trkpt><trkpt lat="43.88711170253795" lon="11.02669681789853"><ele>43.0</ele><time>2026-05-02T07:51:57Z</time></trkpt><trkpt lat="43.88723989866836" lon="11.02643190723164"><ele>44.0</ele><time>2026-05-02T07:51:58Z</time></trkpt><trkpt lat="43.88737783810558" lon="11.026174004361303"><ele>44.0</ele><time>2026-05-02T07:51:59Z</time></trkpt><trkpt lat="43.887523418456894" lon="11.025922352309767"><ele>44.0</ele><time>2026-05-02T07:52:00Z</time></trkpt><trkpt lat="43.887679941853825" lon="11.025673004121124"><ele>42.0</ele><time>2026-05-02T07:52:01Z</time></trkpt><trkpt lat="43.887830545543636" lon="11.025418825031666"><ele>40.0</ele><time>2026-05-02T07:52:02Z</time></trkpt><trkpt lat="43.887964572853974" lon="11.025159923246301"><ele>39.5</ele><time>2026-05-02T07:52:03Z</time></trkpt><trkpt lat="43.88808685640843" lon="11.024893279443118"><ele>39.0</ele><time>2026-05-02T07:52:04Z</time></trkpt><trkpt lat="43.888191637200364" lon="11.024613036381501"><ele>39.0</ele><time>2026-05-02T07:52:05Z</time></trkpt><trkpt lat="43.88828080593416" lon="11.024322247931993"><ele>39.0</ele><time>2026-05-02T07:52:06Z</time></trkpt><trkpt lat="43.88834646964694" lon="11.02402349556691"><ele>39.0</ele><time>2026-05-02T07:52:07Z</time></trkpt><trkpt lat="43.88839804359717" lon="11.02372030824212"><ele>39.0</ele><time>2026-05-02T07:52:08Z</time></trkpt><trkpt lat="43.88843573190961" lon="11.023414029300898"><ele>39.0</ele><time>2026-05-02T07:52:09Z</time></trkpt><trkpt lat="43.88845546560558" lon="11.023106723893417"><ele>39.0</ele><time>2026-05-02T07:52:10Z</time></trkpt><trkpt lat="43.88845742417413" lon="11.022794006472981"><ele>39.0</ele><time>2026-05-02T07:52:10.999Z</time></trkpt><trkpt lat="43.88844158695598" lon="11.022483856860523"><ele>39.0</ele><time>2026-05-02T07:52:11.999Z</time></trkpt><trkpt lat="43.888420703537186" lon="11.022176964103796"><ele>39.666666666666664</ele><time>2026-05-02T07:52:12.999Z</time></trkpt><trkpt lat="43.88840891606312" lon="11.021896159785047"><ele>40.33333333333333</ele><time>2026-05-02T07:52:13.999Z</time></trkpt><trkpt lat="43.88841873630773" lon="11.021633877655592"><ele>41.0</ele><time>2026-05-02T07:52:14.999Z</time></trkpt><trkpt lat="43.888447504163814" lon="11.021384171498687"><ele>41.0</ele><time>2026-05-02T07:52:15.999Z</time></trkpt><trkpt lat="43.88850667646713" lon="11.02113538387026"><ele>41.0</ele><time>2026-05-02T07:52:16.999Z</time></trkpt><trkpt lat="43.88858810368652" lon="11.020883278884314"><ele>41.0</ele><time>2026-05-02T07:52:17.999Z</time></trkpt><trkpt lat="43.88868334270443" lon="11.020629461274837"><ele>41.0</ele><time>2026-05-02T07:52:18.999Z</time></trkpt><trkpt lat="43.88878554816164" lon="11.020354928771459"><ele>41.0</ele><time>2026-05-02T07:52:19.999Z</time></trkpt><trkpt lat="43.88889478744908" lon="11.020064994030234"><ele>41.5</ele><time>2026-05-02T07:52:20.999Z</time></trkpt><trkpt lat="43.88901713310666" lon="11.019753090010424"><ele>42.0</ele><time>2026-05-02T07:52:21.999Z</time></trkpt><trkpt lat="43.88913799208644" lon="11.019457812851897"><ele>42.0</ele><time>2026-05-02T07:52:22.999Z</time></trkpt><trkpt lat="43.88925741902224" lon="11.019188579515335"><ele>42.0</ele><time>2026-05-02T07:52:23.999Z</time></trkpt><trkpt lat="43.88936860725172" lon="11.018933958043798"><ele>42.0</ele><time>2026-05-02T07:52:24.999Z</time></trkpt><trkpt lat="43.88947544399687" lon="11.018689000948044"><ele>42.0</ele><time>2026-05-02T07:52:25.999Z</time></trkpt><trkpt lat="43.889578295128196" lon="11.018448531886055"><ele>42.0</ele><time>2026-05-02T07:52:26.999Z</time></trkpt><trkpt lat="43.889679682378585" lon="11.018211362042036"><ele>42.0</ele><time>2026-05-02T07:52:27.999Z</time></trkpt><trkpt lat="43.88978305768431" lon="11.01797527654746"><ele>42.0</ele><time>2026-05-02T07:52:28.999Z</time></trkpt><trkpt lat="43.88989004908994" lon="11.017739500254658"><ele>42.0</ele><time>2026-05-02T07:52:29.999Z</time></trkpt><trkpt lat="43.889998603151504" lon="11.017504759023229"><ele>42.0</ele><time>2026-05-02T07:52:30.999Z</time></trkpt><trkpt lat="43.89010747481358" lon="11.017274776808481"><ele>41.666666666666664</ele><time>2026-05-02T07:52:31.999Z</time></trkpt><trkpt lat="43.8902122671681" lon="11.017061843516691"><ele>41.33333333333333</ele><time>2026-05-02T07:52:32.999Z</time></trkpt><trkpt lat="43.89031523222425" lon="11.016860099999183"><ele>41.0</ele><time>2026-05-02T07:52:33.999Z</time></trkpt><trkpt lat="43.89041384070919" lon="11.01667099543485"><ele>40.666666666666664</ele><time>2026-05-02T07:52:34.999Z</time></trkpt><trkpt lat="43.890511001464944" lon="11.016484418567348"><ele>40.333333333333336</ele><time>2026-05-02T07:52:35.999Z</time></trkpt><trkpt lat="43.8906296813926" lon="11.01630665505358"><ele>40.0</ele><time>2026-05-02T07:52:36.999Z</time></trkpt><trkpt lat="43.8907286098508" lon="11.016094019782383"><ele>40.0</ele><time>2026-05-02T07:52:37.999Z</time></trkpt><trkpt lat="43.89084498367213" lon="11.01588314670769"><ele>40.0</ele><time>2026-05-02T07:52:38.999Z</time></trkpt><trkpt lat="43.89097822233464" lon="11.015681101707179"><ele>40.0</ele><time>2026-05-02T07:52:39.999Z</time></trkpt><trkpt lat="43.89109215067371" lon="11.015480371538544"><ele>40.0</ele><time>2026-05-02T07:52:40.999Z</time></trkpt><trkpt lat="43.89118984191052" lon="11.01527977771195"><ele>40.0</ele><time>2026-05-02T07:52:41.999Z</time></trkpt><trkpt lat="43.89129539774657" lon="11.015103314272336"><ele>40.0</ele><time>2026-05-02T07:52:42.999Z</time></trkpt><trkpt lat="43.89139401312233" lon="11.014933001593809"><ele>40.5</ele><time>2026-05-02T07:52:43.999Z</time></trkpt><trkpt lat="43.89148152481714" lon="11.0147771194112"><ele>41.0</ele><time>2026-05-02T07:52:45Z</time></trkpt><trkpt lat="43.89155955183372" lon="11.014639307437026"><ele>41.5</ele><time>2026-05-02T07:52:46Z</time></trkpt><trkpt lat="43.89163327578449" lon="11.01451292188543"><ele>42.0</ele><time>2026-05-02T07:52:47Z</time></trkpt><trkpt lat="43.89169808250716" lon="11.014405447072843"><ele>42.0</ele><time>2026-05-02T07:52:48Z</time></trkpt><trkpt lat="43.891759200461564" lon="11.014307997645435"><ele>42.0</ele><time>2026-05-02T07:52:49Z</time></trkpt><trkpt lat="43.89182226793989" lon="11.014223905562494"><ele>42.0</ele><time>2026-05-02T07:52:50Z</time></trkpt><trkpt lat="43.89188673121041" lon="11.014157252427015"><ele>42.0</ele><time>2026-05-02T07:52:51Z</time></trkpt><trkpt lat="43.891953309260835" lon="11.0141160308414"><ele>42.0</ele><time>2026-05-02T07:52:52Z</time></trkpt><trkpt lat="43.89202228775915" lon="11.014092302656488"><ele>42.0</ele><time>2026-05-02T07:52:53Z</time></trkpt><trkpt lat="43.89208717885565" lon="11.014063601764596"><ele>41.833333333333336</ele><time>2026-05-02T07:52:54Z</time></trkpt><trkpt lat="43.89214143047755" lon="11.014012438151143"><ele>41.666666666666664</ele><time>2026-05-02T07:52:55Z</time></trkpt><trkpt lat="43.89218190532637" lon="11.013945350942116"><ele>41.5</ele><time>2026-05-02T07:52:56Z</time></trkpt><trkpt lat="43.89220748295869" lon="11.013853176307395"><ele>41.33333333333333</ele><time>2026-05-02T07:52:57Z</time></trkpt><trkpt lat="43.89221812063243" lon="11.013742786817161"><ele>41.166666666666664</ele><time>2026-05-02T07:52:58Z</time></trkpt><trkpt lat="43.89223177092244" lon="11.01361874634055"><ele>41.0</ele><time>2026-05-02T07:52:59Z</time></trkpt><trkpt lat="43.89226260818568" lon="11.013486233857236"><ele>41.0</ele><time>2026-05-02T07:53:00Z</time></trkpt><trkpt lat="43.89231426518839" lon="11.013352841031775"><ele>41.0</ele><time>2026-05-02T07:53:01Z</time></trkpt><trkpt lat="43.892384365551486" lon="11.013221452865604"><ele>41.0</ele><time>2026-05-02T07:53:02Z</time></trkpt><trkpt lat="43.892463184808676" lon="11.013082104660056"><ele>41.0</ele><time>2026-05-02T07:53:03Z</time></trkpt><trkpt lat="43.89254407487512" lon="11.012933799349092"><ele>41.0</ele><time>2026-05-02T07:53:04Z</time></trkpt><trkpt lat="43.89263044452172" lon="11.012780073771465"><ele>41.0</ele><time>2026-05-02T07:53:05Z</time></trkpt><trkpt lat="43.89272302567143" lon="11.012610683803874"><ele>41.0</ele><time>2026-05-02T07:53:06Z</time></trkpt><trkpt lat="43.89281946041221" lon="11.012430188452948"><ele>41.0</ele><time>2026-05-02T07:53:07Z</time></trkpt><trkpt lat="43.89292686044247" lon="11.012237259153741"><ele>41.0</ele><time>2026-05-02T07:53:08Z</time></trkpt><trkpt lat="43.89304707937353" lon="11.01203539008181"><ele>41.0</ele><time>2026-05-02T07:53:09Z</time></trkpt><trkpt lat="43.8931676604913" lon="11.011836715950786"><ele>40.666666666666664</ele><time>2026-05-02T07:53:10Z</time></trkpt><trkpt lat="43.89327682521755" lon="11.01165676171638"><ele>40.333333333333336</ele><time>2026-05-02T07:53:11Z</time></trkpt><trkpt lat="43.89337920582921" lon="11.011490075778621"><ele>40.0</ele><time>2026-05-02T07:53:12Z</time></trkpt><trkpt lat="43.893471133635074" lon="11.011334801855885"><ele>40.25</ele><time>2026-05-02T07:53:13Z</time></trkpt><trkpt lat="43.89355833503654" lon="11.011183110254024"><ele>40.5</ele><time>2026-05-02T07:53:14Z</time></trkpt><trkpt lat="43.89364764075133" lon="11.011024512992865"><ele>40.75</ele><time>2026-05-02T07:53:15Z</time></trkpt><trkpt lat="43.8937404551912" lon="11.01086113880935"><ele>41.0</ele><time>2026-05-02T07:53:16Z</time></trkpt><trkpt lat="43.89383442498936" lon="11.010696341177832"><ele>41.0</ele><time>2026-05-02T07:53:17Z</time></trkpt><trkpt lat="43.89393014396776" lon="11.010528337832794"><ele>41.0</ele><time>2026-05-02T07:53:18Z</time></trkpt><trkpt lat="43.89402283130403" lon="11.010361309292621"><ele>41.0</ele><time>2026-05-02T07:53:19Z</time></trkpt><trkpt lat="43.894107179832105" lon="11.0102008012791"><ele>41.0</ele><time>2026-05-02T07:53:20Z</time></trkpt><trkpt lat="43.89419286026602" lon="11.010039550166166"><ele>40.666666666666664</ele><time>2026-05-02T07:53:21Z</time></trkpt><trkpt lat="43.8942926704897" lon="11.00986277093265"><ele>40.333333333333336</ele><time>2026-05-02T07:53:22Z</time></trkpt><trkpt lat="43.89440120796767" lon="11.009680311405408"><ele>40.0</ele><time>2026-05-02T07:53:23Z</time></trkpt><trkpt lat="43.894506432221796" lon="11.009501935701792"><ele>40.0</ele><time>2026-05-02T07:53:24Z</time></trkpt><trkpt lat="43.89460397643296" lon="11.009330690874215"><ele>40.0</ele><time>2026-05-02T07:53:25Z</time></trkpt><trkpt lat="43.89469253596217" lon="11.00917180187542"><ele>40.0</ele><time>2026-05-02T07:53:26Z</time></trkpt><trkpt lat="43.89477419025453" lon="11.009026321975824"><ele>40.0</ele><time>2026-05-02T07:53:27Z</time></trkpt><trkpt lat="43.894848471833996" lon="11.008892982607648"><ele>40.2</ele><time>2026-05-02T07:53:28Z</time></trkpt><trkpt lat="43.89491581665143" lon="11.008768793115166"><ele>40.4</ele><time>2026-05-02T07:53:29Z</time></trkpt><trkpt lat="43.89497652420172" lon="11.008649463904284"><ele>40.599999999999994</ele><time>2026-05-02T07:53:30Z</time></trkpt><trkpt lat="43.89503753197862" lon="11.008526421135512"><ele>40.8</ele><time>2026-05-02T07:53:31Z</time></trkpt><trkpt lat="43.895093370627364" lon="11.008398536128059"><ele>41.0</ele><time>2026-05-02T07:53:32Z</time></trkpt><trkpt lat="43.895138538521685" lon="11.008283024052828"><ele>41.33333333333333</ele><time>2026-05-02T07:53:33Z</time></trkpt><trkpt lat="43.89518488616406" lon="11.008187756771008"><ele>41.666666666666664</ele><time>2026-05-02T07:53:34Z</time></trkpt><trkpt lat="43.89524090667268" lon="11.00812287179744"><ele>42.0</ele><time>2026-05-02T07:53:35Z</time></trkpt><trkpt lat="43.895309617927765" lon="11.008065563873178"><ele>42.333333333333336</ele><time>2026-05-02T07:53:36Z</time></trkpt><trkpt lat="43.89537724160303" lon="11.008021565921672"><ele>42.66666666666667</ele><time>2026-05-02T07:53:37Z</time></trkpt><trkpt lat="43.89548156918297" lon="11.007928341190352"><ele>43.0</ele><time>2026-05-02T07:53:39Z</time></trkpt><trkpt lat="43.89553306150722" lon="11.007841102866708"><ele>43.0</ele><time>2026-05-02T07:53:40Z</time></trkpt><trkpt lat="43.895578581921136" lon="11.007715619943912"><ele>43.0</ele><time>2026-05-02T07:53:41Z</time></trkpt><trkpt lat="43.895628044079174" lon="11.00757498742046"><ele>43.0</ele><time>2026-05-02T07:53:42Z</time></trkpt><trkpt lat="43.89570078226069" lon="11.007448156182019"><ele>43.0</ele><time>2026-05-02T07:53:43Z</time></trkpt><trkpt lat="43.89580189609693" lon="11.007322594434429"><ele>42.0</ele><time>2026-05-02T07:53:44Z</time></trkpt><trkpt lat="43.89592590063001" lon="11.007175012501255"><ele>41.0</ele><time>2026-05-02T07:53:45Z</time></trkpt><trkpt lat="43.89606270014677" lon="11.007000776785494"><ele>40.0</ele><time>2026-05-02T07:53:46Z</time></trkpt><trkpt lat="43.896212654012196" lon="11.006789092978122"><ele>40.0</ele><time>2026-05-02T07:53:47Z</time></trkpt><trkpt lat="43.89637572896626" lon="11.006573738737766"><ele>40.0</ele><time>2026-05-02T07:53:48Z</time></trkpt><trkpt lat="43.89652570342775" lon="11.006380221028692"><ele>40.0</ele><time>2026-05-02T07:53:49Z</time></trkpt><trkpt lat="43.89665953394545" lon="11.006198209327948"><ele>40.0</ele><time>2026-05-02T07:53:50Z</time></trkpt><trkpt lat="43.896787240053726" lon="11.006024081314111"><ele>40.0</ele><time>2026-05-02T07:53:51Z</time></trkpt><trkpt lat="43.896912122441954" lon="11.005851228557828"><ele>40.0</ele><time>2026-05-02T07:53:52Z</time></trkpt><trkpt lat="43.897038216616544" lon="11.005675180221976"><ele>40.0</ele><time>2026-05-02T07:53:53Z</time></trkpt><trkpt lat="43.897166254871465" lon="11.005497147844938"><ele>40.0</ele><time>2026-05-02T07:53:54Z</time></trkpt><trkpt lat="43.89729377307857" lon="11.005316390741465"><ele>40.0</ele><time>2026-05-02T07:53:55Z</time></trkpt><trkpt lat="43.89741785120935" lon="11.005126776886705"><ele>40.333333333333336</ele><time>2026-05-02T07:53:56Z</time></trkpt><trkpt lat="43.897537430535984" lon="11.004929230092722"><ele>40.666666666666664</ele><time>2026-05-02T07:53:57Z</time></trkpt><trkpt lat="43.897658560982684" lon="11.004717553824404"><ele>41.0</ele><time>2026-05-02T07:53:58Z</time></trkpt><trkpt lat="43.897780503292886" lon="11.004496785386609"><ele>41.33333333333333</ele><time>2026-05-02T07:53:59Z</time></trkpt><trkpt lat="43.8979020073218" lon="11.004274598459972"><ele>41.666666666666664</ele><time>2026-05-02T07:54:00Z</time></trkpt><trkpt lat="43.898019523063674" lon="11.004056438871011"><ele>42.0</ele><time>2026-05-02T07:54:01Z</time></trkpt><trkpt lat="43.898131583473955" lon="11.00383676602934"><ele>42.0</ele><time>2026-05-02T07:54:02Z</time></trkpt><trkpt lat="43.898237573093276" lon="11.003613217974248"><ele>42.0</ele><time>2026-05-02T07:54:03Z</time></trkpt><trkpt lat="43.89833729887022" lon="11.003387263266005"><ele>42.0</ele><time>2026-05-02T07:54:04Z</time></trkpt><trkpt lat="43.89843575025497" lon="11.003164164892013"><ele>42.0</ele><time>2026-05-02T07:54:05Z</time></trkpt><trkpt lat="43.898535479685854" lon="11.002943845182148"><ele>42.0</ele><time>2026-05-02T07:54:06Z</time></trkpt><trkpt lat="43.898635915864816" lon="11.002728546760702"><ele>42.0</ele><time>2026-05-02T07:54:07Z</time></trkpt><trkpt lat="43.89873878399417" lon="11.002516746669134"><ele>42.0</ele><time>2026-05-02T07:54:08Z</time></trkpt><trkpt lat="43.89884482168549" lon="11.002306630878715"><ele>42.0</ele><time>2026-05-02T07:54:09Z</time></trkpt><trkpt lat="43.898952031516025" lon="11.002105851581106"><ele>42.0</ele><time>2026-05-02T07:54:10Z</time></trkpt><trkpt lat="43.89905951735892" lon="11.001913286155247"><ele>42.0</ele><time>2026-05-02T07:54:11Z</time></trkpt><trkpt lat="43.89916452450562" lon="11.001730081875921"><ele>42.0</ele><time>2026-05-02T07:54:12Z</time></trkpt><trkpt lat="43.899267540851504" lon="11.001553405797571"><ele>42.0</ele><time>2026-05-02T07:54:13Z</time></trkpt><trkpt lat="43.899369059578476" lon="11.001378744360965"><ele>42.333333333333336</ele><time>2026-05-02T07:54:14Z</time></trkpt><trkpt lat="43.89947240685898" lon="11.001205798269579"><ele>42.66666666666667</ele><time>2026-05-02T07:54:15Z</time></trkpt><trkpt lat="43.89957536256684" lon="11.001036984865284"><ele>43.0</ele><time>2026-05-02T07:54:16Z</time></trkpt><trkpt lat="43.89967518657591" lon="11.00087370247651"><ele>42.75</ele><time>2026-05-02T07:54:16.999Z</time></trkpt><trkpt lat="43.89977019701315" lon="11.000716170393824"><ele>42.5</ele><time>2026-05-02T07:54:17.999Z</time></trkpt><trkpt lat="43.89985469518889" lon="11.0005782988164"><ele>42.25</ele><time>2026-05-02T07:54:18.999Z</time></trkpt><trkpt lat="43.8999270540828" lon="11.00045961225689"><ele>42.0</ele><time>2026-05-02T07:54:19.999Z</time></trkpt><trkpt lat="43.89998342318901" lon="11.000368987335326"><ele>42.0</ele><time>2026-05-02T07:54:20.999Z</time></trkpt><trkpt lat="43.90003084071098" lon="11.000294165417726"><ele>42.0</ele><time>2026-05-02T07:54:21.999Z</time></trkpt><trkpt lat="43.9000746616923" lon="11.000229983610879"><ele>42.0</ele><time>2026-05-02T07:54:22.999Z</time></trkpt><trkpt lat="43.900152943373314" lon="11.000131288485921"><ele>42.0</ele><time>2026-05-02T07:54:24.999Z</time></trkpt><trkpt lat="43.90025143638009" lon="11.000053202575806"><ele>42.0</ele><time>2026-05-02T07:54:26.999Z</time></trkpt><trkpt lat="43.9003206101816" lon="11.000024384005481"><ele>42.0</ele><time>2026-05-02T07:54:27.999Z</time></trkpt><trkpt lat="43.900395310900734" lon="11.000003275921173"><ele>42.333333333333336</ele><time>2026-05-02T07:54:28.999Z</time></trkpt><trkpt lat="43.900466304314065" lon="10.999959318802121"><ele>42.666666666666664</ele><time>2026-05-02T07:54:29.999Z</time></trkpt><trkpt lat="43.90051269760861" lon="10.999872731427477"><ele>43.0</ele><time>2026-05-02T07:54:30.999Z</time></trkpt><trkpt lat="43.900531035807546" lon="10.999753898759499"><ele>43.33333333333333</ele><time>2026-05-02T07:54:31.999Z</time></trkpt><trkpt lat="43.90053343314192" lon="10.999626793524849"><ele>43.666666666666664</ele><time>2026-05-02T07:54:32.999Z</time></trkpt><trkpt lat="43.90055334843801" lon="10.99951109468583"><ele>44.0</ele><time>2026-05-02T07:54:33.999Z</time></trkpt><trkpt lat="43.90059368635463" lon="10.999394058042432"><ele>44.0</ele><time>2026-05-02T07:54:34.999Z</time></trkpt><trkpt lat="43.900654674171825" lon="10.999274995749797"><ele>44.0</ele><time>2026-05-02T07:54:35.999Z</time></trkpt><trkpt lat="43.90072879639089" lon="10.999149759369882"><ele>44.0</ele><time>2026-05-02T07:54:36.999Z</time></trkpt><trkpt lat="43.900809090941365" lon="10.999024140613107"><ele>44.0</ele><time>2026-05-02T07:54:37.999Z</time></trkpt><trkpt lat="43.900887688949915" lon="10.998903118902174"><ele>43.75</ele><time>2026-05-02T07:54:38.999Z</time></trkpt><trkpt lat="43.90096999364253" lon="10.998770126315947"><ele>43.5</ele><time>2026-05-02T07:54:39.999Z</time></trkpt><trkpt lat="43.90105379915203" lon="10.998631479178808"><ele>43.25</ele><time>2026-05-02T07:54:40.999Z</time></trkpt><trkpt lat="43.90113855278676" lon="10.99849504865918"><ele>43.0</ele><time>2026-05-02T07:54:41.999Z</time></trkpt><trkpt lat="43.901228961063595" lon="10.998354906327709"><ele>43.0</ele><time>2026-05-02T07:54:42.999Z</time></trkpt><trkpt lat="43.90131971870668" lon="10.998213068814445"><ele>43.0</ele><time>2026-05-02T07:54:43.999Z</time></trkpt><trkpt lat="43.90140692666577" lon="10.998073958312908"><ele>43.0</ele><time>2026-05-02T07:54:44.999Z</time></trkpt><trkpt lat="43.90149974891132" lon="10.997926489551197"><ele>43.0</ele><time>2026-05-02T07:54:45.999Z</time></trkpt><trkpt lat="43.90160116231096" lon="10.99776450120285"><ele>43.0</ele><time>2026-05-02T07:54:46.999Z</time></trkpt><trkpt lat="43.9017130001244" lon="10.99758268627736"><ele>43.0</ele><time>2026-05-02T07:54:47.999Z</time></trkpt><trkpt lat="43.901842080715554" lon="10.99739225668968"><ele>43.0</ele><time>2026-05-02T07:54:48.999Z</time></trkpt><trkpt lat="43.90197533808585" lon="10.997215922476023"><ele>43.0</ele><time>2026-05-02T07:54:49.999Z</time></trkpt><trkpt lat="43.90209581976869" lon="10.99706022511881"><ele>43.0</ele><time>2026-05-02T07:54:51Z</time></trkpt><trkpt lat="43.90220040226232" lon="10.996922784361265"><ele>43.0</ele><time>2026-05-02T07:54:52Z</time></trkpt><trkpt lat="43.90228398449314" lon="10.996819807158685"><ele>43.0</ele><time>2026-05-02T07:54:53Z</time></trkpt><trkpt lat="43.90235276998563" lon="10.99673488065257"><ele>43.2</ele><time>2026-05-02T07:54:54Z</time></trkpt><trkpt lat="43.90241510969095" lon="10.996659320211034"><ele>43.4</ele><time>2026-05-02T07:54:55Z</time></trkpt><trkpt lat="43.90246894061113" lon="10.996603969378388"><ele>43.6</ele><time>2026-05-02T07:54:56Z</time></trkpt><trkpt lat="43.90255671807624" lon="10.996507821599403"><ele>43.800000000000004</ele><time>2026-05-02T07:54:58Z</time></trkpt><trkpt lat="43.90266085447775" lon="10.996395904471758"><ele>44.0</ele><time>2026-05-02T07:55:00Z</time></trkpt><trkpt lat="43.90271900848157" lon="10.996329549371142"><ele>43.666666666666664</ele><time>2026-05-02T07:55:01Z</time></trkpt><trkpt lat="43.90278227647471" lon="10.996251158735369"><ele>43.33333333333333</ele><time>2026-05-02T07:55:02Z</time></trkpt><trkpt lat="43.90284024461831" lon="10.99617960616733"><ele>43.0</ele><time>2026-05-02T07:55:03Z</time></trkpt><trkpt lat="43.90289972790952" lon="10.99611594790402"><ele>42.666666666666664</ele><time>2026-05-02T07:55:04Z</time></trkpt><trkpt lat="43.902953082185604" lon="10.996056268098956"><ele>42.333333333333336</ele><time>2026-05-02T07:55:05Z</time></trkpt><trkpt lat="43.90304548759551" lon="10.995943603659454"><ele>42.0</ele><time>2026-05-02T07:55:07Z</time></trkpt><trkpt lat="43.9031296225843" lon="10.995844682863243"><ele>42.0</ele><time>2026-05-02T07:55:09Z</time></trkpt><trkpt lat="43.90326055458257" lon="10.99579543162218"><ele>42.0</ele><time>2026-05-02T07:55:11Z</time></trkpt><trkpt lat="43.90332996680323" lon="10.995805522614097"><ele>42.0</ele><time>2026-05-02T07:55:12Z</time></trkpt><trkpt lat="43.90345320084568" lon="10.995808077893729"><ele>42.0</ele><time>2026-05-02T07:55:14Z</time></trkpt><trkpt lat="43.903513320113326" lon="10.995774614730006"><ele>42.0</ele><time>2026-05-02T07:55:15Z</time></trkpt><trkpt lat="43.90356279649046" lon="10.995707683315354"><ele>41.833333333333336</ele><time>2026-05-02T07:55:16Z</time></trkpt><trkpt lat="43.9035993850181" lon="10.99561227560292"><ele>41.666666666666664</ele><time>2026-05-02T07:55:17Z</time></trkpt><trkpt lat="43.903634071765495" lon="10.995509893681048"><ele>41.5</ele><time>2026-05-02T07:55:18Z</time></trkpt><trkpt lat="43.903687668280924" lon="10.995417656142214"><ele>41.33333333333333</ele><time>2026-05-02T07:55:19Z</time></trkpt><trkpt lat="43.90376022169845" lon="10.995341124558617"><ele>41.166666666666664</ele><time>2026-05-02T07:55:20Z</time></trkpt><trkpt lat="43.90386207642838" lon="10.995281008633425"><ele>41.0</ele><time>2026-05-02T07:55:21Z</time></trkpt><trkpt lat="43.90395790298723" lon="10.995231403806805"><ele>41.0</ele><time>2026-05-02T07:55:22Z</time></trkpt><trkpt lat="43.90405528736179" lon="10.99516161887528"><ele>41.0</ele><time>2026-05-02T07:55:23Z</time></trkpt><trkpt lat="43.904175605409016" lon="10.995076516782708"><ele>41.0</ele><time>2026-05-02T07:55:24Z</time></trkpt><trkpt lat="43.9043170976304" lon="10.994988372384281"><ele>41.0</ele><time>2026-05-02T07:55:25Z</time></trkpt><trkpt lat="43.90445219216143" lon="10.994901104943514"><ele>41.5</ele><time>2026-05-02T07:55:26Z</time></trkpt><trkpt lat="43.90458683556604" lon="10.994811047615425"><ele>42.0</ele><time>2026-05-02T07:55:27Z</time></trkpt><trkpt lat="43.90473100173648" lon="10.9947278442733"><ele>42.5</ele><time>2026-05-02T07:55:28Z</time></trkpt><trkpt lat="43.9048635857428" lon="10.994659919857586"><ele>43.0</ele><time>2026-05-02T07:55:29Z</time></trkpt><trkpt lat="43.90498206631139" lon="10.994592026582916"><ele>42.75</ele><time>2026-05-02T07:55:30Z</time></trkpt><trkpt lat="43.90509000330136" lon="10.994528718161773"><ele>42.5</ele><time>2026-05-02T07:55:31Z</time></trkpt><trkpt lat="43.905195124613975" lon="10.994465703366995"><ele>42.25</ele><time>2026-05-02T07:55:32Z</time></trkpt><trkpt lat="43.90530338083513" lon="10.994396786416186"><ele>42.0</ele><time>2026-05-02T07:55:33Z</time></trkpt><trkpt lat="43.905416700637886" lon="10.994321384765673"><ele>42.0</ele><time>2026-05-02T07:55:34Z</time></trkpt><trkpt lat="43.90553438960089" lon="10.994243692876921"><ele>42.0</ele><time>2026-05-02T07:55:35Z</time></trkpt><trkpt lat="43.90564948762199" lon="10.994171468852635"><ele>42.0</ele><time>2026-05-02T07:55:36Z</time></trkpt><trkpt lat="43.90577183091248" lon="10.99408995593014"><ele>42.0</ele><time>2026-05-02T07:55:37Z</time></trkpt><trkpt lat="43.905904487629314" lon="10.993996963157494"><ele>42.333333333333336</ele><time>2026-05-02T07:55:38Z</time></trkpt><trkpt lat="43.906054833217674" lon="10.993901307453044"><ele>42.66666666666667</ele><time>2026-05-02T07:55:39Z</time></trkpt><trkpt lat="43.906224238046875" lon="10.993798457295048"><ele>43.0</ele><time>2026-05-02T07:55:40Z</time></trkpt><trkpt lat="43.90641701410744" lon="10.993682812627595"><ele>43.0</ele><time>2026-05-02T07:55:41Z</time></trkpt><trkpt lat="43.90663876454047" lon="10.993550332109237"><ele>43.0</ele><time>2026-05-02T07:55:42Z</time></trkpt><trkpt lat="43.906874219702196" lon="10.993407789832109"><ele>42.66666666666667</ele><time>2026-05-02T07:55:43Z</time></trkpt><trkpt lat="43.90708355635815" lon="10.993278955816082"><ele>42.333333333333336</ele><time>2026-05-02T07:55:44Z</time></trkpt><trkpt lat="43.907272183631946" lon="10.993160006944738"><ele>42.0</ele><time>2026-05-02T07:55:45Z</time></trkpt><trkpt lat="43.90744805324098" lon="10.993048563060999"><ele>42.0</ele><time>2026-05-02T07:55:46Z</time></trkpt><trkpt lat="43.90760784220298" lon="10.992946858666942"><ele>42.0</ele><time>2026-05-02T07:55:47Z</time></trkpt><trkpt lat="43.90775542845084" lon="10.992851126715111"><ele>42.0</ele><time>2026-05-02T07:55:48Z</time></trkpt><trkpt lat="43.907900101279644" lon="10.992755575184816"><ele>42.0</ele><time>2026-05-02T07:55:49Z</time></trkpt><trkpt lat="43.90804353678688" lon="10.992663195610909"><ele>42.0</ele><time>2026-05-02T07:55:50Z</time></trkpt><trkpt lat="43.90818680687993" lon="10.992572958936993"><ele>42.0</ele><time>2026-05-02T07:55:51Z</time></trkpt><trkpt lat="43.908319638768" lon="10.992501845532576"><ele>42.0</ele><time>2026-05-02T07:55:52Z</time></trkpt><trkpt lat="43.908444509879104" lon="10.992461368916727"><ele>42.0</ele><time>2026-05-02T07:55:53Z</time></trkpt><trkpt lat="43.90856619252734" lon="10.992453999533357"><ele>42.0</ele><time>2026-05-02T07:55:54Z</time></trkpt><trkpt lat="43.908692714641795" lon="10.992490337467755"><ele>42.0</ele><time>2026-05-02T07:55:55Z</time></trkpt><trkpt lat="43.90882585441369" lon="10.992559949104345"><ele>41.75</ele><time>2026-05-02T07:55:56Z</time></trkpt><trkpt lat="43.90896583469748" lon="10.992594156281845"><ele>41.5</ele><time>2026-05-02T07:55:57Z</time></trkpt><trkpt lat="43.90910303604299" lon="10.992579113698907"><ele>41.25</ele><time>2026-05-02T07:55:58Z</time></trkpt><trkpt lat="43.90922526545854" lon="10.992513609112278"><ele>41.0</ele><time>2026-05-02T07:55:59Z</time></trkpt><trkpt lat="43.90932264623851" lon="10.992405794056019"><ele>41.5</ele><time>2026-05-02T07:56:00Z</time></trkpt><trkpt lat="43.90939517504948" lon="10.992264408241136"><ele>42.0</ele><time>2026-05-02T07:56:01Z</time></trkpt><trkpt lat="43.9094528622443" lon="10.992083985355688"><ele>42.5</ele><time>2026-05-02T07:56:02Z</time></trkpt><trkpt lat="43.90950866400093" lon="10.99189083187315"><ele>43.0</ele><time>2026-05-02T07:56:03Z</time></trkpt><trkpt lat="43.90960213344752" lon="10.991729763086486"><ele>43.0</ele><time>2026-05-02T07:56:04Z</time></trkpt><trkpt lat="43.90972853290553" lon="10.991606750966314"><ele>43.0</ele><time>2026-05-02T07:56:05Z</time></trkpt><trkpt lat="43.9098780216599" lon="10.991512231251683"><ele>43.0</ele><time>2026-05-02T07:56:06Z</time></trkpt><trkpt lat="43.910039471579495" lon="10.991418973317737"><ele>43.66666666666667</ele><time>2026-05-02T07:56:07Z</time></trkpt><trkpt lat="43.91020725937903" lon="10.991309776417612"><ele>44.333333333333336</ele><time>2026-05-02T07:56:08Z</time></trkpt><trkpt lat="43.91037985289102" lon="10.99119416453584"><ele>45.0</ele><time>2026-05-02T07:56:09Z</time></trkpt><trkpt lat="43.91055768780824" lon="10.991079963069652"><ele>45.0</ele><time>2026-05-02T07:56:10Z</time></trkpt><trkpt lat="43.910747520285526" lon="10.990958907678289"><ele>45.0</ele><time>2026-05-02T07:56:11Z</time></trkpt><trkpt lat="43.91094567884406" lon="10.990832010041117"><ele>45.0</ele><time>2026-05-02T07:56:12Z</time></trkpt><trkpt lat="43.91115003000525" lon="10.99070490540486"><ele>45.0</ele><time>2026-05-02T07:56:13Z</time></trkpt><trkpt lat="43.91135054357065" lon="10.99058162364362"><ele>45.0</ele><time>2026-05-02T07:56:14Z</time></trkpt><trkpt lat="43.91154932330925" lon="10.990460857000818"><ele>45.0</ele><time>2026-05-02T07:56:15Z</time></trkpt><trkpt lat="43.91174912039814" lon="10.990337170904345"><ele>45.0</ele><time>2026-05-02T07:56:16Z</time></trkpt><trkpt lat="43.91194677033311" lon="10.990213023457084"><ele>45.0</ele><time>2026-05-02T07:56:17Z</time></trkpt><trkpt lat="43.91213923320525" lon="10.990090112110773"><ele>45.0</ele><time>2026-05-02T07:56:18Z</time></trkpt><trkpt lat="43.912322907614694" lon="10.989971929627913"><ele>45.333333333333336</ele><time>2026-05-02T07:56:19Z</time></trkpt><trkpt lat="43.912498498285366" lon="10.989852026362621"><ele>45.66666666666667</ele><time>2026-05-02T07:56:20Z</time></trkpt><trkpt lat="43.91266596615511" lon="10.989731089591903"><ele>46.0</ele><time>2026-05-02T07:56:21Z</time></trkpt><trkpt lat="43.912831264458134" lon="10.989603649359632"><ele>45.333333333333336</ele><time>2026-05-02T07:56:22Z</time></trkpt><trkpt lat="43.91299077050958" lon="10.989466828192734"><ele>44.666666666666664</ele><time>2026-05-02T07:56:23Z</time></trkpt><trkpt lat="43.91314581272848" lon="10.9893182951659"><ele>44.0</ele><time>2026-05-02T07:56:24Z</time></trkpt><trkpt lat="43.91329900676177" lon="10.989157367609648"><ele>44.0</ele><time>2026-05-02T07:56:25Z</time></trkpt><trkpt lat="43.913454549724825" lon="10.98899168848417"><ele>44.0</ele><time>2026-05-02T07:56:25.999Z</time></trkpt><trkpt lat="43.913611804323615" lon="10.988812942426945"><ele>44.0</ele><time>2026-05-02T07:56:26.999Z</time></trkpt><trkpt lat="43.91376805501614" lon="10.988622506068333"><ele>44.0</ele><time>2026-05-02T07:56:27.999Z</time></trkpt><trkpt lat="43.91392389753104" lon="10.98842146591436"><ele>44.0</ele><time>2026-05-02T07:56:28.999Z</time></trkpt><trkpt lat="43.91407859196931" lon="10.988211455693845"><ele>44.0</ele><time>2026-05-02T07:56:29.999Z</time></trkpt><trkpt lat="43.91423153186839" lon="10.98799141937552"><ele>44.0</ele><time>2026-05-02T07:56:30.999Z</time></trkpt><trkpt lat="43.91437700145452" lon="10.98775710561664"><ele>44.0</ele><time>2026-05-02T07:56:31.999Z</time></trkpt><trkpt lat="43.914514980665494" lon="10.987508938641144"><ele>44.0</ele><time>2026-05-02T07:56:32.999Z</time></trkpt><trkpt lat="43.91464619847439" lon="10.98724812002051"><ele>44.0</ele><time>2026-05-02T07:56:33.999Z</time></trkpt><trkpt lat="43.914772294986044" lon="10.986977883663121"><ele>44.0</ele><time>2026-05-02T07:56:34.999Z</time></trkpt><trkpt lat="43.9148942705558" lon="10.986700926271485"><ele>44.0</ele><time>2026-05-02T07:56:35.999Z</time></trkpt><trkpt lat="43.91500967302423" lon="10.986417055647088"><ele>44.0</ele><time>2026-05-02T07:56:36.999Z</time></trkpt><trkpt lat="43.91511574283413" lon="10.986128735495772"><ele>44.0</ele><time>2026-05-02T07:56:37.999Z</time></trkpt><trkpt lat="43.915211243186484" lon="10.985834027028732"><ele>44.0</ele><time>2026-05-02T07:56:38.999Z</time></trkpt><trkpt lat="43.91529185123055" lon="10.985533433824344"><ele>44.0</ele><time>2026-05-02T07:56:39.999Z</time></trkpt><trkpt lat="43.91536715200929" lon="10.985230792693509"><ele>44.0</ele><time>2026-05-02T07:56:40.999Z</time></trkpt><trkpt lat="43.915437134174255" lon="10.984926003226718"><ele>44.33333333333333</ele><time>2026-05-02T07:56:41.999Z</time></trkpt><trkpt lat="43.91549484386924" lon="10.984629910167365"><ele>44.666666666666664</ele><time>2026-05-02T07:56:42.999Z</time></trkpt><trkpt lat="43.915539603212714" lon="10.984337636375741"><ele>45.0</ele><time>2026-05-02T07:56:43.999Z</time></trkpt><trkpt lat="43.915578708612486" lon="10.984045982972932"><ele>44.666666666666664</ele><time>2026-05-02T07:56:44.999Z</time></trkpt><trkpt lat="43.91561062171813" lon="10.983750543753215"><ele>44.33333333333333</ele><time>2026-05-02T07:56:45.999Z</time></trkpt><trkpt lat="43.915632667421946" lon="10.98344975305912"><ele>44.0</ele><time>2026-05-02T07:56:46.999Z</time></trkpt><trkpt lat="43.91565017641084" lon="10.983147245845556"><ele>44.0</ele><time>2026-05-02T07:56:47.999Z</time></trkpt><trkpt lat="43.91566792175964" lon="10.982840851803498"><ele>44.0</ele><time>2026-05-02T07:56:48.999Z</time></trkpt><trkpt lat="43.91568852852626" lon="10.98253114992078"><ele>44.0</ele><time>2026-05-02T07:56:49.999Z</time></trkpt><trkpt lat="43.91570967165591" lon="10.982218999673782"><ele>43.5</ele><time>2026-05-02T07:56:50.999Z</time></trkpt><trkpt lat="43.91573012134677" lon="10.981904083972694"><ele>43.0</ele><time>2026-05-02T07:56:51.999Z</time></trkpt><trkpt lat="43.91574942652898" lon="10.981586084519257"><ele>42.5</ele><time>2026-05-02T07:56:52.999Z</time></trkpt><trkpt lat="43.91577004148056" lon="10.981265578000443"><ele>42.0</ele><time>2026-05-02T07:56:53.999Z</time></trkpt><trkpt lat="43.91578775762278" lon="10.980941300968887"><ele>42.5</ele><time>2026-05-02T07:56:54.999Z</time></trkpt><trkpt lat="43.915810039603144" lon="10.980615510220174"><ele>43.0</ele><time>2026-05-02T07:56:55.999Z</time></trkpt><trkpt lat="43.915831216050925" lon="10.98028878123955"><ele>43.0</ele><time>2026-05-02T07:56:57Z</time></trkpt><trkpt lat="43.91584920355589" lon="10.97996166894148"><ele>43.0</ele><time>2026-05-02T07:56:58Z</time></trkpt><trkpt lat="43.91586610470693" lon="10.979633332629437"><ele>43.0</ele><time>2026-05-02T07:56:59Z</time></trkpt><trkpt lat="43.91588310651764" lon="10.979304486145365"><ele>43.0</ele><time>2026-05-02T07:57:00Z</time></trkpt><trkpt lat="43.91590276226208" lon="10.978975754883948"><ele>43.0</ele><time>2026-05-02T07:57:01Z</time></trkpt><trkpt lat="43.91592920291288" lon="10.97864647241739"><ele>43.0</ele><time>2026-05-02T07:57:02Z</time></trkpt><trkpt lat="43.91595735318046" lon="10.978315488503009"><ele>43.5</ele><time>2026-05-02T07:57:03Z</time></trkpt><trkpt lat="43.915982925246766" lon="10.977982631245895"><ele>44.0</ele><time>2026-05-02T07:57:04Z</time></trkpt><trkpt lat="43.91600537216798" lon="10.977647185942436"><ele>44.0</ele><time>2026-05-02T07:57:05Z</time></trkpt><trkpt lat="43.91602650529472" lon="10.9773098268242"><ele>44.0</ele><time>2026-05-02T07:57:06Z</time></trkpt><trkpt lat="43.91604699787396" lon="10.97697285481382"><ele>44.0</ele><time>2026-05-02T07:57:07Z</time></trkpt><trkpt lat="43.916067625061594" lon="10.97663444964272"><ele>44.0</ele><time>2026-05-02T07:57:08Z</time></trkpt><trkpt lat="43.91608832810798" lon="10.976296242646779"><ele>44.0</ele><time>2026-05-02T07:57:09Z</time></trkpt><trkpt lat="43.91611028721547" lon="10.975956637565139"><ele>44.0</ele><time>2026-05-02T07:57:10Z</time></trkpt><trkpt lat="43.91613338033356" lon="10.975617507414038"><ele>44.0</ele><time>2026-05-02T07:57:11Z</time></trkpt><trkpt lat="43.91615507522291" lon="10.975278258143897"><ele>44.0</ele><time>2026-05-02T07:57:12Z</time></trkpt><trkpt lat="43.91617572284586" lon="10.974940401136172"><ele>43.5</ele><time>2026-05-02T07:57:13Z</time></trkpt><trkpt lat="43.91619666929743" lon="10.974603680442224"><ele>43.0</ele><time>2026-05-02T07:57:14Z</time></trkpt><trkpt lat="43.91621638889819" lon="10.974268613113265"><ele>43.0</ele><time>2026-05-02T07:57:15Z</time></trkpt><trkpt lat="43.91623529199179" lon="10.973934141832185"><ele>43.0</ele><time>2026-05-02T07:57:16Z</time></trkpt><trkpt lat="43.91625383241737" lon="10.973601055480017"><ele>44.0</ele><time>2026-05-02T07:57:17Z</time></trkpt><trkpt lat="43.91627372860978" lon="10.973269684195278"><ele>45.0</ele><time>2026-05-02T07:57:18Z</time></trkpt><trkpt lat="43.91629361443853" lon="10.972939646618782"><ele>45.0</ele><time>2026-05-02T07:57:19Z</time></trkpt><trkpt lat="43.91631458795457" lon="10.972610793213155"><ele>45.0</ele><time>2026-05-02T07:57:20Z</time></trkpt><trkpt lat="43.91633494623213" lon="10.97228455873721"><ele>45.0</ele><time>2026-05-02T07:57:21Z</time></trkpt><trkpt lat="43.91635403367462" lon="10.971959163905966"><ele>45.0</ele><time>2026-05-02T07:57:22Z</time></trkpt><trkpt lat="43.91637383520765" lon="10.971634933173913"><ele>45.0</ele><time>2026-05-02T07:57:23Z</time></trkpt><trkpt lat="43.91639415565466" lon="10.97131017075245"><ele>45.0</ele><time>2026-05-02T07:57:24Z</time></trkpt><trkpt lat="43.916415931071086" lon="10.970986611415023"><ele>44.333333333333336</ele><time>2026-05-02T07:57:25Z</time></trkpt><trkpt lat="43.916435689799286" lon="10.970682533338627"><ele>43.66666666666667</ele><time>2026-05-02T07:57:26Z</time></trkpt><trkpt lat="43.916453877042244" lon="10.970386365423009"><ele>43.0</ele><time>2026-05-02T07:57:27Z</time></trkpt><trkpt lat="43.9164701371031" lon="10.970104971266787"><ele>43.0</ele><time>2026-05-02T07:57:28Z</time></trkpt><trkpt lat="43.91648433501164" lon="10.969838239860213"><ele>43.0</ele><time>2026-05-02T07:57:29Z</time></trkpt><trkpt lat="43.91649755037562" lon="10.96958315196406"><ele>43.0</ele><time>2026-05-02T07:57:30Z</time></trkpt><trkpt lat="43.91651238618477" lon="10.969332434355172"><ele>43.333333333333336</ele><time>2026-05-02T07:57:31Z</time></trkpt><trkpt lat="43.916528112055346" lon="10.969096913934264"><ele>43.666666666666664</ele><time>2026-05-02T07:57:32Z</time></trkpt><trkpt lat="43.916541472498615" lon="10.968876194897751"><ele>44.0</ele><time>2026-05-02T07:57:33Z</time></trkpt><trkpt lat="43.91655286723246" lon="10.968667974373027"><ele>44.0</ele><time>2026-05-02T07:57:34Z</time></trkpt><trkpt lat="43.916563537586875" lon="10.96847095746343"><ele>44.0</ele><time>2026-05-02T07:57:35Z</time></trkpt><trkpt lat="43.91657392506935" lon="10.968274635361125"><ele>44.0</ele><time>2026-05-02T07:57:36Z</time></trkpt><trkpt lat="43.916587565689866" lon="10.968071276441922"><ele>44.0</ele><time>2026-05-02T07:57:37Z</time></trkpt><trkpt lat="43.916600732961776" lon="10.96786192516095"><ele>44.0</ele><time>2026-05-02T07:57:38Z</time></trkpt><trkpt lat="43.916614139698005" lon="10.967645374366345"><ele>44.0</ele><time>2026-05-02T07:57:39Z</time></trkpt><trkpt lat="43.916626440231994" lon="10.967422905109276"><ele>44.0</ele><time>2026-05-02T07:57:40Z</time></trkpt><trkpt lat="43.9166374270382" lon="10.96719925931457"><ele>44.0</ele><time>2026-05-02T07:57:41Z</time></trkpt><trkpt lat="43.916646526892116" lon="10.96698187107355"><ele>44.0</ele><time>2026-05-02T07:57:42Z</time></trkpt><trkpt lat="43.91665591962468" lon="10.966776996397124"><ele>44.0</ele><time>2026-05-02T07:57:43Z</time></trkpt><trkpt lat="43.91666514748113" lon="10.966583936419582"><ele>44.0</ele><time>2026-05-02T07:57:44Z</time></trkpt><trkpt lat="43.91667410117973" lon="10.966401804337"><ele>43.75</ele><time>2026-05-02T07:57:45Z</time></trkpt><trkpt lat="43.91668263058543" lon="10.966230365582424"><ele>43.5</ele><time>2026-05-02T07:57:46Z</time></trkpt><trkpt lat="43.916691161268595" lon="10.966067648607087"><ele>43.25</ele><time>2026-05-02T07:57:47Z</time></trkpt><trkpt lat="43.916717459518715" lon="10.965912565351173"><ele>43.0</ele><time>2026-05-02T07:57:48Z</time></trkpt><trkpt lat="43.916726982459856" lon="10.965761056170427"><ele>43.4</ele><time>2026-05-02T07:57:49Z</time></trkpt><trkpt lat="43.916736240402706" lon="10.965616475153118"><ele>43.8</ele><time>2026-05-02T07:57:50Z</time></trkpt><trkpt lat="43.91674450667291" lon="10.965487777910283"><ele>44.2</ele><time>2026-05-02T07:57:51Z</time></trkpt><trkpt lat="43.91675321456836" lon="10.965362115074582"><ele>44.6</ele><time>2026-05-02T07:57:52Z</time></trkpt><trkpt lat="43.91676275918483" lon="10.965226066880962"><ele>45.0</ele><time>2026-05-02T07:57:53Z</time></trkpt><trkpt lat="43.9167735614328" lon="10.965072092504744"><ele>44.75</ele><time>2026-05-02T07:57:54Z</time></trkpt><trkpt lat="43.91677768299001" lon="10.964899527165747"><ele>44.5</ele><time>2026-05-02T07:57:55Z</time></trkpt><trkpt lat="43.91680695785095" lon="10.964705386428058"><ele>44.25</ele><time>2026-05-02T07:57:56Z</time></trkpt><trkpt lat="43.91683513716062" lon="10.964497330812247"><ele>44.0</ele><time>2026-05-02T07:57:57Z</time></trkpt><trkpt lat="43.91686149406144" lon="10.964288144701124"><ele>44.666666666666664</ele><time>2026-05-02T07:57:58Z</time></trkpt><trkpt lat="43.91689014606622" lon="10.964067425097689"><ele>45.333333333333336</ele><time>2026-05-02T07:57:59Z</time></trkpt><trkpt lat="43.91692100453313" lon="10.963836814211593"><ele>46.0</ele><time>2026-05-02T07:58:00Z</time></trkpt><trkpt lat="43.91695138539996" lon="10.963602891338367"><ele>46.0</ele><time>2026-05-02T07:58:01Z</time></trkpt><trkpt lat="43.91698347540015" lon="10.963360786794045"><ele>46.0</ele><time>2026-05-02T07:58:02Z</time></trkpt><trkpt lat="43.917016745171885" lon="10.96311285856801"><ele>46.0</ele><time>2026-05-02T07:58:03Z</time></trkpt><trkpt lat="43.91704798701034" lon="10.962861096256615"><ele>46.0</ele><time>2026-05-02T07:58:04Z</time></trkpt><trkpt lat="43.91708037848202" lon="10.962604432094606"><ele>46.0</ele><time>2026-05-02T07:58:05Z</time></trkpt><trkpt lat="43.91711512069293" lon="10.962344637396052"><ele>46.0</ele><time>2026-05-02T07:58:06Z</time></trkpt><trkpt lat="43.917150224583644" lon="10.962080493745239"><ele>46.0</ele><time>2026-05-02T07:58:07Z</time></trkpt><trkpt lat="43.91718658702063" lon="10.96181413587886"><ele>46.0</ele><time>2026-05-02T07:58:08Z</time></trkpt><trkpt lat="43.917222913507224" lon="10.961543984530655"><ele>46.0</ele><time>2026-05-02T07:58:09Z</time></trkpt><trkpt lat="43.91725915937074" lon="10.961272643045193"><ele>46.333333333333336</ele><time>2026-05-02T07:58:10Z</time></trkpt><trkpt lat="43.917295593614014" lon="10.960999363889957"><ele>46.666666666666664</ele><time>2026-05-02T07:58:11Z</time></trkpt><trkpt lat="43.917331948776095" lon="10.960724735055717"><ele>47.0</ele><time>2026-05-02T07:58:12Z</time></trkpt><trkpt lat="43.917368961822014" lon="10.960441835204579"><ele>47.0</ele><time>2026-05-02T07:58:13Z</time></trkpt><trkpt lat="43.9174074391505" lon="10.960154806582702"><ele>47.0</ele><time>2026-05-02T07:58:14Z</time></trkpt><trkpt lat="43.917444912714664" lon="10.959863826657545"><ele>47.0</ele><time>2026-05-02T07:58:15Z</time></trkpt><trkpt lat="43.91748384622972" lon="10.959569554656454"><ele>47.0</ele><time>2026-05-02T07:58:16Z</time></trkpt><trkpt lat="43.917522995802095" lon="10.95927165853008"><ele>47.0</ele><time>2026-05-02T07:58:17Z</time></trkpt><trkpt lat="43.91756287109918" lon="10.958972699285761"><ele>47.0</ele><time>2026-05-02T07:58:18Z</time></trkpt><trkpt lat="43.91760231738056" lon="10.958669949766941"><ele>46.666666666666664</ele><time>2026-05-02T07:58:19Z</time></trkpt><trkpt lat="43.91764300778103" lon="10.958365264678784"><ele>46.333333333333336</ele><time>2026-05-02T07:58:20Z</time></trkpt><trkpt lat="43.917684330047905" lon="10.958059590927936"><ele>46.0</ele><time>2026-05-02T07:58:21Z</time></trkpt><trkpt lat="43.917724989694456" lon="10.95775426362009"><ele>46.66666666666667</ele><time>2026-05-02T07:58:22Z</time></trkpt><trkpt lat="43.91776570565514" lon="10.957448587652996"><ele>47.333333333333336</ele><time>2026-05-02T07:58:23Z</time></trkpt><trkpt lat="43.917804554889535" lon="10.957144348708805"><ele>48.0</ele><time>2026-05-02T07:58:24Z</time></trkpt><trkpt lat="43.91784297085435" lon="10.956841346674636"><ele>47.666666666666664</ele><time>2026-05-02T07:58:25Z</time></trkpt><trkpt lat="43.917880242578406" lon="10.956540972205897"><ele>47.33333333333333</ele><time>2026-05-02T07:58:26Z</time></trkpt><trkpt lat="43.91791922609799" lon="10.956244587256561"><ele>47.0</ele><time>2026-05-02T07:58:27Z</time></trkpt><trkpt lat="43.91795824812056" lon="10.955949510280137"><ele>47.0</ele><time>2026-05-02T07:58:28Z</time></trkpt><trkpt lat="43.91799743416624" lon="10.955657464365926"><ele>47.0</ele><time>2026-05-02T07:58:29Z</time></trkpt><trkpt lat="43.918035139442964" lon="10.955365415335406"><ele>47.0</ele><time>2026-05-02T07:58:30Z</time></trkpt><trkpt lat="43.91807359636076" lon="10.955069382985858"><ele>47.0</ele><time>2026-05-02T07:58:31Z</time></trkpt><trkpt lat="43.918113026016584" lon="10.954771307375564"><ele>47.0</ele><time>2026-05-02T07:58:32Z</time></trkpt><trkpt lat="43.91815246103734" lon="10.9544741726399"><ele>47.0</ele><time>2026-05-02T07:58:33Z</time></trkpt><trkpt lat="43.91819060370945" lon="10.954178289213203"><ele>47.0</ele><time>2026-05-02T07:58:34Z</time></trkpt><trkpt lat="43.91822745857777" lon="10.95388422210873"><ele>47.0</ele><time>2026-05-02T07:58:35Z</time></trkpt><trkpt lat="43.918261499751495" lon="10.953589662434068"><ele>47.0</ele><time>2026-05-02T07:58:36Z</time></trkpt><trkpt lat="43.91829622082174" lon="10.953297202266032"><ele>47.0</ele><time>2026-05-02T07:58:37Z</time></trkpt><trkpt lat="43.91833190033158" lon="10.95300485695803"><ele>47.0</ele><time>2026-05-02T07:58:38Z</time></trkpt><trkpt lat="43.918369227428514" lon="10.95271433993022"><ele>47.0</ele><time>2026-05-02T07:58:38.999Z</time></trkpt><trkpt lat="43.91840890942569" lon="10.95242416796321"><ele>47.0</ele><time>2026-05-02T07:58:39.999Z</time></trkpt><trkpt lat="43.91844571384401" lon="10.952129888616168"><ele>47.0</ele><time>2026-05-02T07:58:40.999Z</time></trkpt><trkpt lat="43.91847895407132" lon="10.951829599403483"><ele>47.0</ele><time>2026-05-02T07:58:41.999Z</time></trkpt><trkpt lat="43.918514219161324" lon="10.951529558050614"><ele>47.0</ele><time>2026-05-02T07:58:42.999Z</time></trkpt><trkpt lat="43.91855340072832" lon="10.95122946120634"><ele>47.0</ele><time>2026-05-02T07:58:43.999Z</time></trkpt><trkpt lat="43.918602937720586" lon="10.950930375629454"><ele>47.0</ele><time>2026-05-02T07:58:44.999Z</time></trkpt><trkpt lat="43.91864593317527" lon="10.950629503293156"><ele>47.33333333333333</ele><time>2026-05-02T07:58:45.999Z</time></trkpt><trkpt lat="43.91867612671378" lon="10.950319950479457"><ele>47.666666666666664</ele><time>2026-05-02T07:58:46.999Z</time></trkpt><trkpt lat="43.91871509677703" lon="10.95001481876105"><ele>48.0</ele><time>2026-05-02T07:58:47.999Z</time></trkpt><trkpt lat="43.91875597765823" lon="10.949706498944925"><ele>48.0</ele><time>2026-05-02T07:58:48.999Z</time></trkpt><trkpt lat="43.91879821450402" lon="10.949401377637448"><ele>48.0</ele><time>2026-05-02T07:58:49.999Z</time></trkpt><trkpt lat="43.918843681514495" lon="10.949103960788223"><ele>48.0</ele><time>2026-05-02T07:58:50.999Z</time></trkpt><trkpt lat="43.91888094901179" lon="10.94882358011214"><ele>48.0</ele><time>2026-05-02T07:58:51.999Z</time></trkpt><trkpt lat="43.91891209827476" lon="10.948563632865595"><ele>48.0</ele><time>2026-05-02T07:58:52.999Z</time></trkpt><trkpt lat="43.918941877864945" lon="10.948315819712683"><ele>48.0</ele><time>2026-05-02T07:58:53.999Z</time></trkpt><trkpt lat="43.91897157495897" lon="10.948080447460056"><ele>48.0</ele><time>2026-05-02T07:58:54.999Z</time></trkpt><trkpt lat="43.919001385683316" lon="10.94784753494961"><ele>48.0</ele><time>2026-05-02T07:58:55.999Z</time></trkpt><trkpt lat="43.91902850857114" lon="10.947611187329143"><ele>48.0</ele><time>2026-05-02T07:58:56.999Z</time></trkpt><trkpt lat="43.91905987146503" lon="10.947369619725242"><ele>48.0</ele><time>2026-05-02T07:58:57.999Z</time></trkpt><trkpt lat="43.919093885102335" lon="10.947124829465144"><ele>48.0</ele><time>2026-05-02T07:58:58.999Z</time></trkpt><trkpt lat="43.91912858461107" lon="10.946875946745878"><ele>48.0</ele><time>2026-05-02T07:58:59.999Z</time></trkpt><trkpt lat="43.91916026823383" lon="10.9466281782056"><ele>48.33333333333333</ele><time>2026-05-02T07:59:00.999Z</time></trkpt><trkpt lat="43.91919207013029" lon="10.946397045961955"><ele>48.666666666666664</ele><time>2026-05-02T07:59:02.001Z</time></trkpt><trkpt lat="43.9192223691021" lon="10.946180726693859"><ele>49.0</ele><time>2026-05-02T07:59:03.001Z</time></trkpt><trkpt lat="43.919258415236044" lon="10.94597559846513"><ele>49.666666666666664</ele><time>2026-05-02T07:59:04.001Z</time></trkpt><trkpt lat="43.91930307606919" lon="10.94576602466257"><ele>50.33333333333333</ele><time>2026-05-02T07:59:05.001Z</time></trkpt><trkpt lat="43.91935435298969" lon="10.945545466181956"><ele>51.0</ele><time>2026-05-02T07:59:06.001Z</time></trkpt><trkpt lat="43.919413396940314" lon="10.94532063847223"><ele>51.0</ele><time>2026-05-02T07:59:07.001Z</time></trkpt><trkpt lat="43.91948200403042" lon="10.945089974052886"><ele>51.0</ele><time>2026-05-02T07:59:08.001Z</time></trkpt><trkpt lat="43.919555834543935" lon="10.944854453487993"><ele>51.0</ele><time>2026-05-02T07:59:09.001Z</time></trkpt><trkpt lat="43.919631169136736" lon="10.944614131686583"><ele>50.66666666666667</ele><time>2026-05-02T07:59:10.001Z</time></trkpt><trkpt lat="43.91970933769464" lon="10.944370184040503"><ele>50.333333333333336</ele><time>2026-05-02T07:59:11.001Z</time></trkpt><trkpt lat="43.919788819838466" lon="10.944131368758105"><ele>50.0</ele><time>2026-05-02T07:59:12.001Z</time></trkpt><trkpt lat="43.91986699645462" lon="10.943906599343983"><ele>50.0</ele><time>2026-05-02T07:59:13.001Z</time></trkpt><trkpt lat="43.919942824308" lon="10.943693883525022"><ele>50.0</ele><time>2026-05-02T07:59:14.001Z</time></trkpt><trkpt lat="43.92001912019688" lon="10.943476638033108"><ele>50.0</ele><time>2026-05-02T07:59:15.001Z</time></trkpt><trkpt lat="43.920092820718466" lon="10.943266105013473"><ele>50.66666666666667</ele><time>2026-05-02T07:59:16.001Z</time></trkpt><trkpt lat="43.92016743105704" lon="10.943054745874772"><ele>51.33333333333333</ele><time>2026-05-02T07:59:17.001Z</time></trkpt><trkpt lat="43.92024400627101" lon="10.942840213632387"><ele>52.0</ele><time>2026-05-02T07:59:18.001Z</time></trkpt><trkpt lat="43.92032025096851" lon="10.942617073683984"><ele>51.666666666666664</ele><time>2026-05-02T07:59:19Z</time></trkpt><trkpt lat="43.92039949425682" lon="10.942392736674286"><ele>51.33333333333333</ele><time>2026-05-02T07:59:20Z</time></trkpt><trkpt lat="43.92048136478734" lon="10.942156875686004"><ele>51.0</ele><time>2026-05-02T07:59:21Z</time></trkpt><trkpt lat="43.92056575795179" lon="10.941914249872548"><ele>51.66666666666667</ele><time>2026-05-02T07:59:22Z</time></trkpt><trkpt lat="43.92064965562399" lon="10.941670891468117"><ele>52.333333333333336</ele><time>2026-05-02T07:59:23Z</time></trkpt><trkpt lat="43.92073326657108" lon="10.941423591064789"><ele>53.0</ele><time>2026-05-02T07:59:24Z</time></trkpt><trkpt lat="43.92081994298489" lon="10.941164025588265"><ele>52.0</ele><time>2026-05-02T07:59:25Z</time></trkpt><trkpt lat="43.92091235957652" lon="10.940887512221567"><ele>51.0</ele><time>2026-05-02T07:59:26Z</time></trkpt><trkpt lat="43.9210149214855" lon="10.940589720584462"><ele>51.0</ele><time>2026-05-02T07:59:27Z</time></trkpt><trkpt lat="43.92113041721331" lon="10.940277628459372"><ele>51.0</ele><time>2026-05-02T07:59:28Z</time></trkpt><trkpt lat="43.921240768451526" lon="10.939972474624948"><ele>51.0</ele><time>2026-05-02T07:59:29Z</time></trkpt><trkpt lat="43.92134139396201" lon="10.939675832389016"><ele>51.0</ele><time>2026-05-02T07:59:30Z</time></trkpt><trkpt lat="43.92143258574644" lon="10.93938858948218"><ele>51.0</ele><time>2026-05-02T07:59:31Z</time></trkpt><trkpt lat="43.92152407839556" lon="10.939105584546068"><ele>51.0</ele><time>2026-05-02T07:59:32Z</time></trkpt><trkpt lat="43.92163428285932" lon="10.93883470224527"><ele>51.0</ele><time>2026-05-02T07:59:33Z</time></trkpt><trkpt lat="43.92171677757085" lon="10.938544028333677"><ele>52.0</ele><time>2026-05-02T07:59:34Z</time></trkpt><trkpt lat="43.9218168202536" lon="10.938272233918688"><ele>53.0</ele><time>2026-05-02T07:59:35Z</time></trkpt><trkpt lat="43.921907399959785" lon="10.938017855696348"><ele>54.0</ele><time>2026-05-02T07:59:36Z</time></trkpt><trkpt lat="43.921988793547115" lon="10.937776428024632"><ele>53.0</ele><time>2026-05-02T07:59:37Z</time></trkpt><trkpt lat="43.922074545840566" lon="10.937527627991454"><ele>52.0</ele><time>2026-05-02T07:59:38Z</time></trkpt><trkpt lat="43.922165367387166" lon="10.937269161472702"><ele>51.0</ele><time>2026-05-02T07:59:39Z</time></trkpt><trkpt lat="43.922260823410284" lon="10.937004759913936"><ele>51.0</ele><time>2026-05-02T07:59:40Z</time></trkpt><trkpt lat="43.922356163616136" lon="10.936732004948519"><ele>51.0</ele><time>2026-05-02T07:59:41Z</time></trkpt><trkpt lat="43.92245144050515" lon="10.93646158548786"><ele>51.0</ele><time>2026-05-02T07:59:42Z</time></trkpt><trkpt lat="43.92254483566999" lon="10.936198758499867"><ele>51.33333333333333</ele><time>2026-05-02T07:59:43Z</time></trkpt><trkpt lat="43.9226357124287" lon="10.9359434025366"><ele>51.666666666666664</ele><time>2026-05-02T07:59:44Z</time></trkpt><trkpt lat="43.922723276361374" lon="10.935693264213704"><ele>52.0</ele><time>2026-05-02T07:59:45Z</time></trkpt><trkpt lat="43.92280891234651" lon="10.93545151593212"><ele>52.33333333333333</ele><time>2026-05-02T07:59:46Z</time></trkpt><trkpt lat="43.922889915266516" lon="10.935216607213848"><ele>52.66666666666667</ele><time>2026-05-02T07:59:47Z</time></trkpt><trkpt lat="43.922967879595056" lon="10.93499177817971"><ele>53.0</ele><time>2026-05-02T07:59:48Z</time></trkpt><trkpt lat="43.92304195319232" lon="10.934779682854343"><ele>53.333333333333336</ele><time>2026-05-02T07:59:49Z</time></trkpt><trkpt lat="43.92310971050242" lon="10.934579103868076"><ele>53.66666666666667</ele><time>2026-05-02T07:59:50Z</time></trkpt><trkpt lat="43.92317295064456" lon="10.93438912099683"><ele>54.0</ele><time>2026-05-02T07:59:51Z</time></trkpt><trkpt lat="43.923234129511386" lon="10.934208656625703"><ele>54.0</ele><time>2026-05-02T07:59:52Z</time></trkpt><trkpt lat="43.92329324946752" lon="10.934049190869954"><ele>54.00000000000001</ele><time>2026-05-02T07:59:53Z</time></trkpt><trkpt lat="43.92334482518633" lon="10.933905904167858"><ele>54.00000000000001</ele><time>2026-05-02T07:59:54Z</time></trkpt><trkpt lat="43.923391568436884" lon="10.933777321222703"><ele>54.0</ele><time>2026-05-02T07:59:55Z</time></trkpt><trkpt lat="43.92343692728827" lon="10.933673671734878"><ele>54.0</ele><time>2026-05-02T07:59:56Z</time></trkpt><trkpt lat="43.92349194394395" lon="10.93358756531957"><ele>53.800000000000004</ele><time>2026-05-02T07:59:57Z</time></trkpt><trkpt lat="43.92356026438785" lon="10.933520263083254"><ele>53.60000000000001</ele><time>2026-05-02T07:59:58Z</time></trkpt><trkpt lat="43.923647566102844" lon="10.933470428433777"><ele>53.4</ele><time>2026-05-02T07:59:59Z</time></trkpt><trkpt lat="43.92375050641297" lon="10.933419708967293"><ele>53.2</ele><time>2026-05-02T08:00:00Z</time></trkpt><trkpt lat="43.923850487976416" lon="10.933358771536648"><ele>53.0</ele><time>2026-05-02T08:00:01Z</time></trkpt><trkpt lat="43.92394206982377" lon="10.933278588349825"><ele>53.0</ele><time>2026-05-02T08:00:02Z</time></trkpt><trkpt lat="43.92402131711874" lon="10.93317955147546"><ele>53.0</ele><time>2026-05-02T08:00:03Z</time></trkpt><trkpt lat="43.924089760490524" lon="10.933068672480799"><ele>53.0</ele><time>2026-05-02T08:00:04Z</time></trkpt><trkpt lat="43.92414242718082" lon="10.93295463139049"><ele>53.0</ele><time>2026-05-02T08:00:05Z</time></trkpt><trkpt lat="43.92419270446467" lon="10.932840660778835"><ele>53.0</ele><time>2026-05-02T08:00:06Z</time></trkpt><trkpt lat="43.92426768391436" lon="10.932737229102505"><ele>53.0</ele><time>2026-05-02T08:00:07Z</time></trkpt><trkpt lat="43.92437242033684" lon="10.932668347237366"><ele>53.0</ele><time>2026-05-02T08:00:08Z</time></trkpt><trkpt lat="43.92451047550754" lon="10.932630638413197"><ele>53.0</ele><time>2026-05-02T08:00:09Z</time></trkpt><trkpt lat="43.92467952407424" lon="10.932622690504518"><ele>53.0</ele><time>2026-05-02T08:00:10Z</time></trkpt><trkpt lat="43.92487913958178" lon="10.932629002735558"><ele>53.5</ele><time>2026-05-02T08:00:11Z</time></trkpt><trkpt lat="43.92510301647778" lon="10.932628811355782"><ele>54.0</ele><time>2026-05-02T08:00:12Z</time></trkpt><trkpt lat="43.92532875092027" lon="10.932613335775558"><ele>54.0</ele><time>2026-05-02T08:00:13Z</time></trkpt><trkpt lat="43.92554644451801" lon="10.93259591670708"><ele>54.0</ele><time>2026-05-02T08:00:14Z</time></trkpt><trkpt lat="43.92574306200637" lon="10.932583015654268"><ele>54.0</ele><time>2026-05-02T08:00:15Z</time></trkpt><trkpt lat="43.925924808031944" lon="10.932579503507283"><ele>53.75</ele><time>2026-05-02T08:00:16Z</time></trkpt><trkpt lat="43.926082949106856" lon="10.932582286385125"><ele>53.5</ele><time>2026-05-02T08:00:17Z</time></trkpt><trkpt lat="43.926229329608915" lon="10.932582852270025"><ele>53.25</ele><time>2026-05-02T08:00:18Z</time></trkpt><trkpt lat="43.926367420665144" lon="10.932591128094035"><ele>53.0</ele><time>2026-05-02T08:00:19Z</time></trkpt><trkpt lat="43.92650444942267" lon="10.932608811310924"><ele>53.0</ele><time>2026-05-02T08:00:20Z</time></trkpt><trkpt lat="43.92664753411002" lon="10.93262654152402"><ele>53.0</ele><time>2026-05-02T08:00:21Z</time></trkpt><trkpt lat="43.92679154903867" lon="10.932644969214257"><ele>53.0</ele><time>2026-05-02T08:00:22Z</time></trkpt><trkpt lat="43.92693686229531" lon="10.932664910092146"><ele>53.0</ele><time>2026-05-02T08:00:23Z</time></trkpt><trkpt lat="43.92708367818481" lon="10.932687315116173"><ele>54.0</ele><time>2026-05-02T08:00:24Z</time></trkpt><trkpt lat="43.92723384895337" lon="10.932710618780458"><ele>55.0</ele><time>2026-05-02T08:00:25Z</time></trkpt><trkpt lat="43.927383689188815" lon="10.932736856984308"><ele>56.0</ele><time>2026-05-02T08:00:26Z</time></trkpt><trkpt lat="43.9275363849328" lon="10.932763186789648"><ele>56.333333333333336</ele><time>2026-05-02T08:00:27Z</time></trkpt><trkpt lat="43.927689788439274" lon="10.932788209182482"><ele>56.66666666666667</ele><time>2026-05-02T08:00:28Z</time></trkpt><trkpt lat="43.92784565570989" lon="10.932813077891097"><ele>57.0</ele><time>2026-05-02T08:00:29Z</time></trkpt><trkpt lat="43.928004054063294" lon="10.93283921488678"><ele>57.0</ele><time>2026-05-02T08:00:30Z</time></trkpt><trkpt lat="43.92816540226971" lon="10.932868097264734"><ele>57.0</ele><time>2026-05-02T08:00:31Z</time></trkpt><trkpt lat="43.928329531594194" lon="10.93289596068538"><ele>57.0</ele><time>2026-05-02T08:00:32Z</time></trkpt><trkpt lat="43.9284982013085" lon="10.93292364818358"><ele>56.66666666666667</ele><time>2026-05-02T08:00:33Z</time></trkpt><trkpt lat="43.92866969320655" lon="10.93295079136968"><ele>56.333333333333336</ele><time>2026-05-02T08:00:34Z</time></trkpt><trkpt lat="43.92884208222749" lon="10.932978021445958"><ele>56.0</ele><time>2026-05-02T08:00:35Z</time></trkpt><trkpt lat="43.92901165444848" lon="10.933002321275994"><ele>56.0</ele><time>2026-05-02T08:00:36Z</time></trkpt><trkpt lat="43.92917685968304" lon="10.933025133089947"><ele>56.0</ele><time>2026-05-02T08:00:37Z</time></trkpt><trkpt lat="43.92933942320966" lon="10.933047550002557"><ele>56.0</ele><time>2026-05-02T08:00:38Z</time></trkpt><trkpt lat="43.9295120844368" lon="10.933075779706662"><ele>55.66666666666667</ele><time>2026-05-02T08:00:39Z</time></trkpt><trkpt lat="43.92968245601525" lon="10.933104313533423"><ele>55.33333333333333</ele><time>2026-05-02T08:00:40Z</time></trkpt><trkpt lat="43.929848481629286" lon="10.933134920167616"><ele>55.0</ele><time>2026-05-02T08:00:41Z</time></trkpt><trkpt lat="43.93000367080563" lon="10.933164250325522"><ele>55.666666666666664</ele><time>2026-05-02T08:00:42Z</time></trkpt><trkpt lat="43.93015666377924" lon="10.933190506801976"><ele>56.33333333333333</ele><time>2026-05-02T08:00:43Z</time></trkpt><trkpt lat="43.930314152012464" lon="10.933215314647354"><ele>57.0</ele><time>2026-05-02T08:00:44Z</time></trkpt><trkpt lat="43.93047756266788" lon="10.933240117787658"><ele>57.0</ele><time>2026-05-02T08:00:44.999Z</time></trkpt><trkpt lat="43.93064451249813" lon="10.933266728287766"><ele>57.0</ele><time>2026-05-02T08:00:45.999Z</time></trkpt><trkpt lat="43.930815482002245" lon="10.93329583585476"><ele>57.0</ele><time>2026-05-02T08:00:46.999Z</time></trkpt><trkpt lat="43.93097584300432" lon="10.933321740099219"><ele>57.0</ele><time>2026-05-02T08:00:47.999Z</time></trkpt><trkpt lat="43.93112619231713" lon="10.933345513222795"><ele>57.0</ele><time>2026-05-02T08:00:48.999Z</time></trkpt><trkpt lat="43.93127495972398" lon="10.933370026589053"><ele>57.0</ele><time>2026-05-02T08:00:49.999Z</time></trkpt><trkpt lat="43.9314298390144" lon="10.933395389185574"><ele>57.0</ele><time>2026-05-02T08:00:50.999Z</time></trkpt><trkpt lat="43.93158913488665" lon="10.933422681985913"><ele>57.0</ele><time>2026-05-02T08:00:51.999Z</time></trkpt><trkpt lat="43.93175310186233" lon="10.933448402908862"><ele>57.0</ele><time>2026-05-02T08:00:52.999Z</time></trkpt><trkpt lat="43.93191903903276" lon="10.933477143287877"><ele>58.0</ele><time>2026-05-02T08:00:53.999Z</time></trkpt><trkpt lat="43.93208714982776" lon="10.933504927620753"><ele>59.0</ele><time>2026-05-02T08:00:54.999Z</time></trkpt><trkpt lat="43.93224585980601" lon="10.933529525064507"><ele>60.0</ele><time>2026-05-02T08:00:55.999Z</time></trkpt><trkpt lat="43.93240139286896" lon="10.93355661596357"><ele>60.0</ele><time>2026-05-02T08:00:56.999Z</time></trkpt><trkpt lat="43.932553618584926" lon="10.933584552556583"><ele>60.0</ele><time>2026-05-02T08:00:57.999Z</time></trkpt><trkpt lat="43.93270906808821" lon="10.933607469112017"><ele>60.0</ele><time>2026-05-02T08:00:58.999Z</time></trkpt><trkpt lat="43.93286779155915" lon="10.933631423582717"><ele>60.33333333333333</ele><time>2026-05-02T08:00:59.999Z</time></trkpt><trkpt lat="43.933031891340114" lon="10.933657352441656"><ele>60.666666666666664</ele><time>2026-05-02T08:01:00.999Z</time></trkpt><trkpt lat="43.93320014798758" lon="10.933685642929834"><ele>61.0</ele><time>2026-05-02T08:01:01.999Z</time></trkpt><trkpt lat="43.933371898470085" lon="10.933717108871422"><ele>61.33333333333333</ele><time>2026-05-02T08:01:02.999Z</time></trkpt><trkpt lat="43.93354434673192" lon="10.933747055285812"><ele>61.66666666666667</ele><time>2026-05-02T08:01:03.999Z</time></trkpt><trkpt lat="43.933714568821294" lon="10.933770761022677"><ele>62.0</ele><time>2026-05-02T08:01:04.999Z</time></trkpt><trkpt lat="43.93387972535147" lon="10.933792890616928"><ele>62.0</ele><time>2026-05-02T08:01:05.999Z</time></trkpt><trkpt lat="43.93404348841987" lon="10.93381742677756"><ele>62.0</ele><time>2026-05-02T08:01:06.999Z</time></trkpt><trkpt lat="43.93420749860943" lon="10.933842052479138"><ele>62.0</ele><time>2026-05-02T08:01:08.001Z</time></trkpt><trkpt lat="43.93437460451344" lon="10.933868281742848"><ele>62.0</ele><time>2026-05-02T08:01:09.001Z</time></trkpt><trkpt lat="43.9345414188609" lon="10.933895402732235"><ele>62.0</ele><time>2026-05-02T08:01:10.001Z</time></trkpt><trkpt lat="43.93470909691985" lon="10.933924251258322"><ele>62.0</ele><time>2026-05-02T08:01:11.001Z</time></trkpt><trkpt lat="43.934874444260956" lon="10.933951342589342"><ele>62.0</ele><time>2026-05-02T08:01:12.001Z</time></trkpt><trkpt lat="43.93503991220203" lon="10.933976088533306"><ele>62.0</ele><time>2026-05-02T08:01:13.001Z</time></trkpt><trkpt lat="43.935205121754294" lon="10.934002236594708"><ele>62.0</ele><time>2026-05-02T08:01:14.001Z</time></trkpt><trkpt lat="43.935357146875106" lon="10.934033065135676"><ele>63.333333333333336</ele><time>2026-05-02T08:01:15.001Z</time></trkpt><trkpt lat="43.935503664144235" lon="10.934063451039314"><ele>64.66666666666667</ele><time>2026-05-02T08:01:16.001Z</time></trkpt><trkpt lat="43.9356572846625" lon="10.93408584518895"><ele>66.0</ele><time>2026-05-02T08:01:17.001Z</time></trkpt><trkpt lat="43.93581993149259" lon="10.93410472924557"><ele>67.0</ele><time>2026-05-02T08:01:18.001Z</time></trkpt><trkpt lat="43.93598586249259" lon="10.934125325027201"><ele>68.0</ele><time>2026-05-02T08:01:19.001Z</time></trkpt><trkpt lat="43.9361542920213" lon="10.934144982585867"><ele>69.0</ele><time>2026-05-02T08:01:20.001Z</time></trkpt><trkpt lat="43.93632140489184" lon="10.93416282711322"><ele>69.0</ele><time>2026-05-02T08:01:21.001Z</time></trkpt><trkpt lat="43.936494246024225" lon="10.934179093916045"><ele>69.0</ele><time>2026-05-02T08:01:22.001Z</time></trkpt><trkpt lat="43.93668289558192" lon="10.93418953404406"><ele>69.0</ele><time>2026-05-02T08:01:23Z</time></trkpt><trkpt lat="43.9368934338872" lon="10.934194837081176"><ele>68.5</ele><time>2026-05-02T08:01:24Z</time></trkpt><trkpt lat="43.93711879615954" lon="10.934202643556983"><ele>68.0</ele><time>2026-05-02T08:01:25Z</time></trkpt><trkpt lat="43.93735437771816" lon="10.934212781028307"><ele>67.5</ele><time>2026-05-02T08:01:26Z</time></trkpt><trkpt lat="43.937598839932015" lon="10.934223927231258"><ele>67.0</ele><time>2026-05-02T08:01:27Z</time></trkpt><trkpt lat="43.93784062731167" lon="10.93423599733492"><ele>67.0</ele><time>2026-05-02T08:01:28Z</time></trkpt><trkpt lat="43.93809054657491" lon="10.934247448885092"><ele>67.0</ele><time>2026-05-02T08:01:29Z</time></trkpt><trkpt lat="43.93833792242287" lon="10.934255516511135"><ele>68.5</ele><time>2026-05-02T08:01:30Z</time></trkpt><trkpt lat="43.93858274910215" lon="10.934259380462342"><ele>70.0</ele><time>2026-05-02T08:01:31Z</time></trkpt><trkpt lat="43.93882747291411" lon="10.934262578003603"><ele>70.0</ele><time>2026-05-02T08:01:32Z</time></trkpt><trkpt lat="43.939071327798416" lon="10.93426626923702"><ele>70.0</ele><time>2026-05-02T08:01:33Z</time></trkpt><trkpt lat="43.9393144539001" lon="10.934271844181904"><ele>71.5</ele><time>2026-05-02T08:01:34Z</time></trkpt><trkpt lat="43.93955685363769" lon="10.9342777039474"><ele>73.0</ele><time>2026-05-02T08:01:35Z</time></trkpt><trkpt lat="43.93979768951214" lon="10.934283063113204"><ele>73.0</ele><time>2026-05-02T08:01:36Z</time></trkpt><trkpt lat="43.9400373339045" lon="10.93429661820737"><ele>73.0</ele><time>2026-05-02T08:01:37Z</time></trkpt><trkpt lat="43.94027536719033" lon="10.9343172025507"><ele>74.5</ele><time>2026-05-02T08:01:38Z</time></trkpt><trkpt lat="43.94051322177497" lon="10.934342786008893"><ele>76.0</ele><time>2026-05-02T08:01:39Z</time></trkpt><trkpt lat="43.94075102820984" lon="10.93437040795109"><ele>75.0</ele><time>2026-05-02T08:01:40Z</time></trkpt><trkpt lat="43.94099013792528" lon="10.934404661167735"><ele>74.0</ele><time>2026-05-02T08:01:41Z</time></trkpt><trkpt lat="43.94123010082486" lon="10.934448816253216"><ele>74.0</ele><time>2026-05-02T08:01:42Z</time></trkpt><trkpt lat="43.94147181902918" lon="10.9345016413817"><ele>74.0</ele><time>2026-05-02T08:01:43Z</time></trkpt><trkpt lat="43.94171510815276" lon="10.93455861707404"><ele>74.5</ele><time>2026-05-02T08:01:44Z</time></trkpt><trkpt lat="43.94194738764296" lon="10.934613859085209"><ele>75.0</ele><time>2026-05-02T08:01:45Z</time></trkpt><trkpt lat="43.942166622568465" lon="10.934666845746825"><ele>75.0</ele><time>2026-05-02T08:01:46Z</time></trkpt><trkpt lat="43.94237466619519" lon="10.934718675239656"><ele>75.0</ele><time>2026-05-02T08:01:47Z</time></trkpt><trkpt lat="43.94257186817928" lon="10.934767840353711"><ele>75.0</ele><time>2026-05-02T08:01:48Z</time></trkpt><trkpt lat="43.94276973940455" lon="10.93481512976315"><ele>75.0</ele><time>2026-05-02T08:01:49Z</time></trkpt><trkpt lat="43.942975975065245" lon="10.93485820406568"><ele>75.0</ele><time>2026-05-02T08:01:50Z</time></trkpt><trkpt lat="43.94318504048454" lon="10.934896852682606"><ele>75.0</ele><time>2026-05-02T08:01:51Z</time></trkpt><trkpt lat="43.943393738791045" lon="10.934938268059327"><ele>75.33333333333333</ele><time>2026-05-02T08:01:52Z</time></trkpt><trkpt lat="43.9435984174127" lon="10.934984229235186"><ele>75.66666666666666</ele><time>2026-05-02T08:01:53Z</time></trkpt><trkpt lat="43.94379941977529" lon="10.935031865114894"><ele>76.0</ele><time>2026-05-02T08:01:54Z</time></trkpt><trkpt lat="43.94399598182681" lon="10.935079134635288"><ele>76.33333333333333</ele><time>2026-05-02T08:01:55Z</time></trkpt><trkpt lat="43.944185957263024" lon="10.935127862977684"><ele>76.66666666666667</ele><time>2026-05-02T08:01:56Z</time></trkpt><trkpt lat="43.944366485641105" lon="10.935169997377859"><ele>77.0</ele><time>2026-05-02T08:01:57Z</time></trkpt><trkpt lat="43.94454072212348" lon="10.935204874186605"><ele>77.66666666666667</ele><time>2026-05-02T08:01:58Z</time></trkpt><trkpt lat="43.94471434624567" lon="10.935240446652456"><ele>78.33333333333333</ele><time>2026-05-02T08:01:59Z</time></trkpt><trkpt lat="43.9448877956596" lon="10.935281931595862"><ele>79.0</ele><time>2026-05-02T08:02:00Z</time></trkpt><trkpt lat="43.94506632334733" lon="10.935327456750695"><ele>79.33333333333333</ele><time>2026-05-02T08:02:01Z</time></trkpt><trkpt lat="43.94524500791847" lon="10.935374783400787"><ele>79.66666666666667</ele><time>2026-05-02T08:02:02Z</time></trkpt><trkpt lat="43.945413336208595" lon="10.935418006956404"><ele>80.0</ele><time>2026-05-02T08:02:03Z</time></trkpt><trkpt lat="43.94557401002322" lon="10.935456730136297"><ele>80.0</ele><time>2026-05-02T08:02:04Z</time></trkpt><trkpt lat="43.9457269338977" lon="10.935495055028738"><ele>80.0</ele><time>2026-05-02T08:02:05Z</time></trkpt><trkpt lat="43.94586893742796" lon="10.935544221259816"><ele>80.0</ele><time>2026-05-02T08:02:06Z</time></trkpt><trkpt lat="43.94599669174754" lon="10.93559574989316"><ele>80.0</ele><time>2026-05-02T08:02:07Z</time></trkpt><trkpt lat="43.946115257648" lon="10.935625143539973"><ele>80.25</ele><time>2026-05-02T08:02:08Z</time></trkpt><trkpt lat="43.946228833153924" lon="10.935630890044045"><ele>80.5</ele><time>2026-05-02T08:02:09Z</time></trkpt><trkpt lat="43.9463432004395" lon="10.935603333012926"><ele>80.75</ele><time>2026-05-02T08:02:10Z</time></trkpt><trkpt lat="43.94646081173904" lon="10.935541441192184"><ele>81.0</ele><time>2026-05-02T08:02:11Z</time></trkpt><trkpt lat="43.946574042660906" lon="10.935430150412651"><ele>81.0</ele><time>2026-05-02T08:02:12Z</time></trkpt><trkpt lat="43.946670472969494" lon="10.935297194855002"><ele>81.0</ele><time>2026-05-02T08:02:13Z</time></trkpt><trkpt lat="43.94674841068841" lon="10.935161407525136"><ele>81.0</ele><time>2026-05-02T08:02:14Z</time></trkpt><trkpt lat="43.94682089269975" lon="10.935032709792962"><ele>81.0</ele><time>2026-05-02T08:02:15Z</time></trkpt><trkpt lat="43.94689303537959" lon="10.934916755210331"><ele>81.19999999999999</ele><time>2026-05-02T08:02:16Z</time></trkpt><trkpt lat="43.9469556117282" lon="10.934804226604088"><ele>81.39999999999999</ele><time>2026-05-02T08:02:17Z</time></trkpt><trkpt lat="43.94701250055246" lon="10.934699784642"><ele>81.6</ele><time>2026-05-02T08:02:18Z</time></trkpt><trkpt lat="43.94706291955943" lon="10.934615142761075"><ele>81.8</ele><time>2026-05-02T08:02:19Z</time></trkpt><trkpt lat="43.947130984954164" lon="10.934509047828417"><ele>82.0</ele><time>2026-05-02T08:02:21Z</time></trkpt><trkpt lat="43.94718925082157" lon="10.934441413389026"><ele>82.0</ele><time>2026-05-02T08:02:24Z</time></trkpt><trkpt lat="43.94729549266306" lon="10.934387252156968"><ele>82.0</ele><time>2026-05-02T08:02:36Z</time></trkpt><trkpt lat="43.947341677141644" lon="10.934463997619233"><ele>82.0</ele><time>2026-05-02T08:02:37Z</time></trkpt><trkpt lat="43.94741542172715" lon="10.934547193601903"><ele>82.0</ele><time>2026-05-02T08:02:38Z</time></trkpt><trkpt lat="43.94751820803153" lon="10.934638185750883"><ele>82.0</ele><time>2026-05-02T08:02:39Z</time></trkpt><trkpt lat="43.94761964041756" lon="10.934762631308093"><ele>82.5</ele><time>2026-05-02T08:02:40Z</time></trkpt><trkpt lat="43.94772339480107" lon="10.934883513152508"><ele>83.0</ele><time>2026-05-02T08:02:41Z</time></trkpt><trkpt lat="43.94783385312784" lon="10.93501048064025"><ele>83.5</ele><time>2026-05-02T08:02:42Z</time></trkpt><trkpt lat="43.94794839973309" lon="10.935140640551136"><ele>84.0</ele><time>2026-05-02T08:02:43Z</time></trkpt><trkpt lat="43.94805810215449" lon="10.935268036192742"><ele>84.25</ele><time>2026-05-02T08:02:44Z</time></trkpt><trkpt lat="43.948172522959794" lon="10.935394530409658"><ele>84.5</ele><time>2026-05-02T08:02:45Z</time></trkpt><trkpt lat="43.94828307241346" lon="10.93552246041801"><ele>84.75</ele><time>2026-05-02T08:02:46Z</time></trkpt><trkpt lat="43.94839609194043" lon="10.935652139183107"><ele>85.0</ele><time>2026-05-02T08:02:47Z</time></trkpt><trkpt lat="43.94850648588747" lon="10.935777051769524"><ele>86.0</ele><time>2026-05-02T08:02:47.999Z</time></trkpt><trkpt lat="43.948620390917085" lon="10.935907213293067"><ele>87.0</ele><time>2026-05-02T08:02:48.999Z</time></trkpt><trkpt lat="43.948739049008026" lon="10.936045942910258"><ele>88.0</ele><time>2026-05-02T08:02:49.999Z</time></trkpt><trkpt lat="43.948859643904704" lon="10.936188376987047"><ele>88.0</ele><time>2026-05-02T08:02:50.999Z</time></trkpt><trkpt lat="43.94898344205406" lon="10.936329722213468"><ele>88.0</ele><time>2026-05-02T08:02:51.999Z</time></trkpt><trkpt lat="43.949109309008215" lon="10.936472052042015"><ele>88.0</ele><time>2026-05-02T08:02:52.999Z</time></trkpt><trkpt lat="43.94923793163576" lon="10.93661782083783"><ele>89.33333333333333</ele><time>2026-05-02T08:02:53.999Z</time></trkpt><trkpt lat="43.949365036921144" lon="10.936766280696471"><ele>90.66666666666667</ele><time>2026-05-02T08:02:54.999Z</time></trkpt><trkpt lat="43.949494479535126" lon="10.936918664129"><ele>92.0</ele><time>2026-05-02T08:02:55.999Z</time></trkpt><trkpt lat="43.9496237865725" lon="10.937070513852811"><ele>92.0</ele><time>2026-05-02T08:02:56.999Z</time></trkpt><trkpt lat="43.94975127059824" lon="10.937219985654858"><ele>92.0</ele><time>2026-05-02T08:02:57.999Z</time></trkpt><trkpt lat="43.949875058538744" lon="10.93736282311957"><ele>92.0</ele><time>2026-05-02T08:02:58.999Z</time></trkpt><trkpt lat="43.949995075086456" lon="10.937499434191444"><ele>92.25</ele><time>2026-05-02T08:02:59.999Z</time></trkpt><trkpt lat="43.95011028825529" lon="10.937630144986512"><ele>92.5</ele><time>2026-05-02T08:03:00.999Z</time></trkpt><trkpt lat="43.95021523453287" lon="10.937752710172095"><ele>92.75</ele><time>2026-05-02T08:03:01.999Z</time></trkpt><trkpt lat="43.95031122091285" lon="10.937867258311414"><ele>93.0</ele><time>2026-05-02T08:03:02.999Z</time></trkpt><trkpt lat="43.95039856421452" lon="10.937972037791008"><ele>93.0</ele><time>2026-05-02T08:03:03.999Z</time></trkpt><trkpt lat="43.95048150780836" lon="10.938064335965375"><ele>93.0</ele><time>2026-05-02T08:03:04.999Z</time></trkpt><trkpt lat="43.950562610073355" lon="10.938157200997633"><ele>93.0</ele><time>2026-05-02T08:03:05.999Z</time></trkpt><trkpt lat="43.95064486669957" lon="10.938252777098018"><ele>93.0</ele><time>2026-05-02T08:03:06.999Z</time></trkpt><trkpt lat="43.95072905698979" lon="10.938352513316287"><ele>93.0</ele><time>2026-05-02T08:03:07.999Z</time></trkpt><trkpt lat="43.95081959584191" lon="10.93845506702953"><ele>94.25</ele><time>2026-05-02T08:03:08.999Z</time></trkpt><trkpt lat="43.950915373860994" lon="10.938561880618687"><ele>95.5</ele><time>2026-05-02T08:03:09.999Z</time></trkpt><trkpt lat="43.95101589887985" lon="10.938670768301275"><ele>96.75</ele><time>2026-05-02T08:03:10.999Z</time></trkpt><trkpt lat="43.951115122192085" lon="10.938782138125145"><ele>98.0</ele><time>2026-05-02T08:03:11.999Z</time></trkpt><trkpt lat="43.95121751864145" lon="10.938896862497948"><ele>98.0</ele><time>2026-05-02T08:03:12.999Z</time></trkpt><trkpt lat="43.9513228251107" lon="10.939013257525296"><ele>98.0</ele><time>2026-05-02T08:03:14Z</time></trkpt><trkpt lat="43.95141773051342" lon="10.939119648357282"><ele>98.0</ele><time>2026-05-02T08:03:15Z</time></trkpt><trkpt lat="43.95149971036151" lon="10.939215292822803"><ele>98.0</ele><time>2026-05-02T08:03:16Z</time></trkpt><trkpt lat="43.9515834099742" lon="10.939308469228456"><ele>97.75</ele><time>2026-05-02T08:03:17Z</time></trkpt><trkpt lat="43.95166963629409" lon="10.939407077311408"><ele>97.5</ele><time>2026-05-02T08:03:18Z</time></trkpt><trkpt lat="43.951762628630554" lon="10.93951174230672"><ele>97.25</ele><time>2026-05-02T08:03:19Z</time></trkpt><trkpt lat="43.95185560760908" lon="10.939619074131551"><ele>97.0</ele><time>2026-05-02T08:03:20Z</time></trkpt><trkpt lat="43.951948175313355" lon="10.939732180577858"><ele>97.75</ele><time>2026-05-02T08:03:21Z</time></trkpt><trkpt lat="43.95204076886613" lon="10.939847698417324"><ele>98.5</ele><time>2026-05-02T08:03:22Z</time></trkpt><trkpt lat="43.95213335943461" lon="10.939960716798765"><ele>99.25</ele><time>2026-05-02T08:03:23Z</time></trkpt><trkpt lat="43.95222631266627" lon="10.940073474607372"><ele>100.0</ele><time>2026-05-02T08:03:24Z</time></trkpt><trkpt lat="43.9523211005657" lon="10.94018300266418"><ele>100.25</ele><time>2026-05-02T08:03:25Z</time></trkpt><trkpt lat="43.952414958825585" lon="10.940290638304063"><ele>100.5</ele><time>2026-05-02T08:03:26Z</time></trkpt><trkpt lat="43.95250817951124" lon="10.94039456357185"><ele>100.75</ele><time>2026-05-02T08:03:27Z</time></trkpt><trkpt lat="43.95259639983162" lon="10.940493421408386"><ele>101.0</ele><time>2026-05-02T08:03:28Z</time></trkpt><trkpt lat="43.95267477224717" lon="10.940586859936742"><ele>101.4</ele><time>2026-05-02T08:03:29Z</time></trkpt><trkpt lat="43.95274914813308" lon="10.940668778790842"><ele>101.8</ele><time>2026-05-02T08:03:30Z</time></trkpt><trkpt lat="43.95281643103471" lon="10.940773571606963"><ele>102.2</ele><time>2026-05-02T08:03:31Z</time></trkpt><trkpt lat="43.952905454126785" lon="10.940856571892894"><ele>102.60000000000001</ele><time>2026-05-02T08:03:32Z</time></trkpt><trkpt lat="43.952979982333055" lon="10.94095566945325"><ele>103.0</ele><time>2026-05-02T08:03:33Z</time></trkpt><trkpt lat="43.95304769100854" lon="10.941040171049572"><ele>103.00000000000001</ele><time>2026-05-02T08:03:34Z</time></trkpt><trkpt lat="43.953106006991895" lon="10.941108675337128"><ele>103.0</ele><time>2026-05-02T08:03:35Z</time></trkpt><trkpt lat="43.95316438375911" lon="10.941170617392237"><ele>103.0</ele><time>2026-05-02T08:03:36Z</time></trkpt><trkpt lat="43.95322245378467" lon="10.941231448151186"><ele>103.0</ele><time>2026-05-02T08:03:37Z</time></trkpt><trkpt lat="43.953288625407566" lon="10.941295134737326"><ele>103.00000000000001</ele><time>2026-05-02T08:03:38Z</time></trkpt><trkpt lat="43.953357864761614" lon="10.941355666522051"><ele>103.0</ele><time>2026-05-02T08:03:39Z</time></trkpt><trkpt lat="43.95342941046204" lon="10.941415835215606"><ele>103.66666666666667</ele><time>2026-05-02T08:03:40Z</time></trkpt><trkpt lat="43.953506110807574" lon="10.941480074000792"><ele>104.33333333333334</ele><time>2026-05-02T08:03:41Z</time></trkpt><trkpt lat="43.95357482379784" lon="10.941567838022504"><ele>105.0</ele><time>2026-05-02T08:03:42Z</time></trkpt><trkpt lat="43.953664166296214" lon="10.94161494720374"><ele>105.66666666666666</ele><time>2026-05-02T08:03:43Z</time></trkpt><trkpt lat="43.953740277513845" lon="10.941682403717632"><ele>106.33333333333333</ele><time>2026-05-02T08:03:44Z</time></trkpt><trkpt lat="43.95380947594873" lon="10.941735661633382"><ele>107.0</ele><time>2026-05-02T08:03:45Z</time></trkpt><trkpt lat="43.953867937710335" lon="10.941784257076279"><ele>107.14285714285715</ele><time>2026-05-02T08:03:46Z</time></trkpt><trkpt lat="43.95393240607808" lon="10.941838996930391"><ele>107.28571428571429</ele><time>2026-05-02T08:03:48Z</time></trkpt><trkpt lat="43.953989258036174" lon="10.941892981138821"><ele>107.42857142857143</ele><time>2026-05-02T08:03:52Z</time></trkpt><trkpt lat="43.95404688164796" lon="10.941958784989316"><ele>107.57142857142858</ele><time>2026-05-02T08:03:56Z</time></trkpt><trkpt lat="43.95409706838052" lon="10.942012484985346"><ele>107.71428571428571</ele><time>2026-05-02T08:04:00Z</time></trkpt><trkpt lat="43.95415479461522" lon="10.942071642003729"><ele>107.85714285714286</ele><time>2026-05-02T08:04:02Z</time></trkpt><trkpt lat="43.95420344379073" lon="10.942177321026115"><ele>108.0</ele><time>2026-05-02T08:04:04Z</time></trkpt><trkpt lat="43.954237953721645" lon="10.942357366255505"><ele>108.5</ele><time>2026-05-02T08:04:06Z</time></trkpt><trkpt lat="43.954254173446365" lon="10.942453369379754"><ele>109.0</ele><time>2026-05-02T08:04:07Z</time></trkpt><trkpt lat="43.954265953340254" lon="10.942545292548013"><ele>109.5</ele><time>2026-05-02T08:04:08Z</time></trkpt><trkpt lat="43.954278220905195" lon="10.942645336798819"><ele>110.0</ele><time>2026-05-02T08:04:09Z</time></trkpt><trkpt lat="43.954290085725276" lon="10.942757664670674"><ele>110.5</ele><time>2026-05-02T08:04:10Z</time></trkpt><trkpt lat="43.95430168544034" lon="10.942868594613927"><ele>111.0</ele><time>2026-05-02T08:04:11Z</time></trkpt><trkpt lat="43.954310702551595" lon="10.942982143325521"><ele>111.0</ele><time>2026-05-02T08:04:12Z</time></trkpt><trkpt lat="43.95432045966338" lon="10.943106342098524"><ele>111.0</ele><time>2026-05-02T08:04:13Z</time></trkpt><trkpt lat="43.9543248052702" lon="10.9432364956097"><ele>111.0</ele><time>2026-05-02T08:04:14Z</time></trkpt><trkpt lat="43.954320868732324" lon="10.9433703146845"><ele>111.0</ele><time>2026-05-02T08:04:15Z</time></trkpt><trkpt lat="43.95431497039942" lon="10.943507866954443"><ele>111.0</ele><time>2026-05-02T08:04:16Z</time></trkpt><trkpt lat="43.95430904391237" lon="10.943656759320211"><ele>111.25</ele><time>2026-05-02T08:04:17Z</time></trkpt><trkpt lat="43.9543060789868" lon="10.94380844477946"><ele>111.5</ele><time>2026-05-02T08:04:18Z</time></trkpt><trkpt lat="43.95431048853535" lon="10.943959564721391"><ele>111.75</ele><time>2026-05-02T08:04:19Z</time></trkpt><trkpt lat="43.9543330365049" lon="10.94411530212563"><ele>112.0</ele><time>2026-05-02T08:04:20Z</time></trkpt><trkpt lat="43.954396692907906" lon="10.94426735934763"><ele>112.0</ele><time>2026-05-02T08:04:21Z</time></trkpt><trkpt lat="43.95449148203466" lon="10.944422294863616"><ele>112.0</ele><time>2026-05-02T08:04:22Z</time></trkpt><trkpt lat="43.95461109758605" lon="10.944570625831492"><ele>112.0</ele><time>2026-05-02T08:04:23Z</time></trkpt><trkpt lat="43.954735456758776" lon="10.94469291152155"><ele>112.0</ele><time>2026-05-02T08:04:24Z</time></trkpt><trkpt lat="43.95484989986707" lon="10.944787246341113"><ele>111.99999999999999</ele><time>2026-05-02T08:04:25Z</time></trkpt><trkpt lat="43.954956467432275" lon="10.944857766352845"><ele>111.99999999999999</ele><time>2026-05-02T08:04:26Z</time></trkpt><trkpt lat="43.95505119643207" lon="10.944910147708189"><ele>112.0</ele><time>2026-05-02T08:04:27Z</time></trkpt><trkpt lat="43.95513271794107" lon="10.944965882925471"><ele>112.0</ele><time>2026-05-02T08:04:28Z</time></trkpt><trkpt lat="43.955207037577395" lon="10.94504970102772"><ele>112.0</ele><time>2026-05-02T08:04:29Z</time></trkpt><trkpt lat="43.95527974307431" lon="10.94516408646221"><ele>112.0</ele><time>2026-05-02T08:04:30Z</time></trkpt><trkpt lat="43.95535609119598" lon="10.945296213745607"><ele>112.0</ele><time>2026-05-02T08:04:31Z</time></trkpt><trkpt lat="43.95544214732493" lon="10.945432527991732"><ele>112.0</ele><time>2026-05-02T08:04:32Z</time></trkpt><trkpt lat="43.95553759472992" lon="10.94556678543332"><ele>112.0</ele><time>2026-05-02T08:04:33Z</time></trkpt><trkpt lat="43.95563521134698" lon="10.945693317433149"><ele>112.0</ele><time>2026-05-02T08:04:34Z</time></trkpt><trkpt lat="43.95572783246641" lon="10.945813228140661"><ele>112.0</ele><time>2026-05-02T08:04:35Z</time></trkpt><trkpt lat="43.95581949434349" lon="10.945923511201466"><ele>112.0</ele><time>2026-05-02T08:04:36Z</time></trkpt><trkpt lat="43.95592626263066" lon="10.94601706641622"><ele>113.0</ele><time>2026-05-02T08:04:37Z</time></trkpt><trkpt lat="43.95604657844006" lon="10.946084125164347"><ele>114.0</ele><time>2026-05-02T08:04:38Z</time></trkpt><trkpt lat="43.956169710527035" lon="10.946126150860406"><ele>115.0</ele><time>2026-05-02T08:04:39Z</time></trkpt><trkpt lat="43.95628456164534" lon="10.946146521007956"><ele>116.0</ele><time>2026-05-02T08:04:40Z</time></trkpt><trkpt lat="43.95638077203576" lon="10.946167812429492"><ele>115.99999999999999</ele><time>2026-05-02T08:04:41Z</time></trkpt><trkpt lat="43.95645692136256" lon="10.94621159287261"><ele>116.0</ele><time>2026-05-02T08:04:42Z</time></trkpt><trkpt lat="43.95651256992002" lon="10.946278226106614"><ele>116.0</ele><time>2026-05-02T08:04:49Z</time></trkpt><trkpt lat="43.95658247886563" lon="10.946376808817227"><ele>116.0</ele><time>2026-05-02T08:04:51Z</time></trkpt><trkpt lat="43.956574583836336" lon="10.94647209928991"><ele>115.99999999999999</ele><time>2026-05-02T08:04:52Z</time></trkpt><trkpt lat="43.9564983769089" lon="10.94650382053939"><ele>116.0</ele><time>2026-05-02T08:04:52.999Z</time></trkpt><trkpt lat="43.95644448876651" lon="10.94659351862071"><ele>116.0</ele><time>2026-05-02T08:04:53.999Z</time></trkpt><trkpt lat="43.95638928371814" lon="10.946679226966442"><ele>116.0</ele><time>2026-05-02T08:04:54.999Z</time></trkpt><trkpt lat="43.95635313279545" lon="10.946803512688323"><ele>116.0</ele><time>2026-05-02T08:04:55.999Z</time></trkpt><trkpt lat="43.956325160933936" lon="10.946934669790833"><ele>116.0</ele><time>2026-05-02T08:04:56.999Z</time></trkpt><trkpt lat="43.956302309852404" lon="10.947059189323733"><ele>116.0</ele><time>2026-05-02T08:04:57.999Z</time></trkpt><trkpt lat="43.95626544430069" lon="10.947176927900024"><ele>116.8</ele><time>2026-05-02T08:04:58.999Z</time></trkpt><trkpt lat="43.95626095336317" lon="10.94730162990288"><ele>117.6</ele><time>2026-05-02T08:04:59.999Z</time></trkpt><trkpt lat="43.95628785934792" lon="10.947425621424882"><ele>118.4</ele><time>2026-05-02T08:05:00.999Z</time></trkpt><trkpt lat="43.95630575647957" lon="10.947548662294862"><ele>119.2</ele><time>2026-05-02T08:05:01.999Z</time></trkpt><trkpt lat="43.95632878975332" lon="10.947679388988613"><ele>120.0</ele><time>2026-05-02T08:05:02.999Z</time></trkpt><trkpt lat="43.95635812340473" lon="10.947822036036504"><ele>120.0</ele><time>2026-05-02T08:05:03.999Z</time></trkpt><trkpt lat="43.95638985655626" lon="10.947974545909357"><ele>120.0</ele><time>2026-05-02T08:05:04.999Z</time></trkpt><trkpt lat="43.956422080614516" lon="10.948125645830126"><ele>120.0</ele><time>2026-05-02T08:05:05.999Z</time></trkpt><trkpt lat="43.95645998582624" lon="10.948271113823735"><ele>120.0</ele><time>2026-05-02T08:05:06.999Z</time></trkpt><trkpt lat="43.95651682958717" lon="10.948418837945923"><ele>120.0</ele><time>2026-05-02T08:05:07.999Z</time></trkpt><trkpt lat="43.95659046216796" lon="10.948560419346679"><ele>120.0</ele><time>2026-05-02T08:05:08.999Z</time></trkpt><trkpt lat="43.956673928065065" lon="10.948685285302453"><ele>120.0</ele><time>2026-05-02T08:05:09.999Z</time></trkpt><trkpt lat="43.9567680177227" lon="10.948801053583711"><ele>120.0</ele><time>2026-05-02T08:05:10.999Z</time></trkpt><trkpt lat="43.95686428352329" lon="10.948918058120283"><ele>120.25</ele><time>2026-05-02T08:05:11.999Z</time></trkpt><trkpt lat="43.956951964684905" lon="10.949027693836658"><ele>120.5</ele><time>2026-05-02T08:05:12.999Z</time></trkpt><trkpt lat="43.95703000182317" lon="10.949132251035337"><ele>120.75</ele><time>2026-05-02T08:05:13.999Z</time></trkpt><trkpt lat="43.957106314683706" lon="10.94925668063601"><ele>121.0</ele><time>2026-05-02T08:05:14.999Z</time></trkpt><trkpt lat="43.95717358233235" lon="10.949408603051259"><ele>121.0</ele><time>2026-05-02T08:05:15.999Z</time></trkpt><trkpt lat="43.95725540147524" lon="10.94955311322735"><ele>121.0</ele><time>2026-05-02T08:05:16.999Z</time></trkpt><trkpt lat="43.95733983303744" lon="10.949706993977857"><ele>121.0</ele><time>2026-05-02T08:05:17.999Z</time></trkpt><trkpt lat="43.957421336776804" lon="10.949866887911321"><ele>121.0</ele><time>2026-05-02T08:05:18.999Z</time></trkpt><trkpt lat="43.9575118591252" lon="10.950019762834911"><ele>122.5</ele><time>2026-05-02T08:05:20Z</time></trkpt><trkpt lat="43.95758211863418" lon="10.95018015702956"><ele>124.0</ele><time>2026-05-02T08:05:21Z</time></trkpt><trkpt lat="43.957647602368915" lon="10.950331518420958"><ele>125.5</ele><time>2026-05-02T08:05:22Z</time></trkpt><trkpt lat="43.95770688287168" lon="10.950476554149217"><ele>127.0</ele><time>2026-05-02T08:05:23Z</time></trkpt><trkpt lat="43.95774237968112" lon="10.950625868359936"><ele>127.0</ele><time>2026-05-02T08:05:24Z</time></trkpt><trkpt lat="43.95778680030445" lon="10.950762548734673"><ele>126.99999999999999</ele><time>2026-05-02T08:05:25Z</time></trkpt><trkpt lat="43.95782522320376" lon="10.950894523295046"><ele>126.99999999999999</ele><time>2026-05-02T08:05:26Z</time></trkpt><trkpt lat="43.957873408418465" lon="10.95102763756225"><ele>127.0</ele><time>2026-05-02T08:05:27Z</time></trkpt><trkpt lat="43.957873139490296" lon="10.951189134131967"><ele>127.0</ele><time>2026-05-02T08:05:28Z</time></trkpt><trkpt lat="43.957878195036756" lon="10.951368883772808"><ele>128.25</ele><time>2026-05-02T08:05:29Z</time></trkpt><trkpt lat="43.95787875037197" lon="10.951573169656113"><ele>129.5</ele><time>2026-05-02T08:05:30Z</time></trkpt><trkpt lat="43.957877861584095" lon="10.951752528585011"><ele>130.75</ele><time>2026-05-02T08:05:31Z</time></trkpt><trkpt lat="43.95787665433618" lon="10.95191613166742"><ele>132.0</ele><time>2026-05-02T08:05:32Z</time></trkpt><trkpt lat="43.95787541946756" lon="10.952083477920786"><ele>132.25</ele><time>2026-05-02T08:05:33Z</time></trkpt><trkpt lat="43.95787413313199" lon="10.95225779881392"><ele>132.5</ele><time>2026-05-02T08:05:34Z</time></trkpt><trkpt lat="43.95787317891987" lon="10.952437415485319"><ele>132.75</ele><time>2026-05-02T08:05:35Z</time></trkpt><trkpt lat="43.95789197956269" lon="10.952619884874844"><ele>133.0</ele><time>2026-05-02T08:05:36Z</time></trkpt><trkpt lat="43.95789684556208" lon="10.952804501959584"><ele>133.0</ele><time>2026-05-02T08:05:37Z</time></trkpt><trkpt lat="43.95790492600785" lon="10.952993502507805"><ele>133.0</ele><time>2026-05-02T08:05:38Z</time></trkpt><trkpt lat="43.95794576124432" lon="10.953210751511516"><ele>133.0</ele><time>2026-05-02T08:05:39Z</time></trkpt><trkpt lat="43.958001913797474" lon="10.95346771241171"><ele>133.0</ele><time>2026-05-02T08:05:40Z</time></trkpt><trkpt lat="43.95806331658199" lon="10.95372551674884"><ele>133.0</ele><time>2026-05-02T08:05:41Z</time></trkpt><trkpt lat="43.95812360078869" lon="10.953944347638377"><ele>133.0</ele><time>2026-05-02T08:05:42Z</time></trkpt><trkpt lat="43.95819457428138" lon="10.954153873223845"><ele>134.33333333333334</ele><time>2026-05-02T08:05:43Z</time></trkpt><trkpt lat="43.958247533054" lon="10.954357819858975"><ele>135.66666666666666</ele><time>2026-05-02T08:05:44Z</time></trkpt><trkpt lat="43.95829121148908" lon="10.954552787464518"><ele>137.0</ele><time>2026-05-02T08:05:45Z</time></trkpt><trkpt lat="43.95837038195068" lon="10.95474142193644"><ele>137.0</ele><time>2026-05-02T08:05:46Z</time></trkpt><trkpt lat="43.95849314682652" lon="10.95491389199587"><ele>137.0</ele><time>2026-05-02T08:05:47Z</time></trkpt><trkpt lat="43.95859902329307" lon="10.955109237257508"><ele>137.0</ele><time>2026-05-02T08:05:48Z</time></trkpt><trkpt lat="43.958705462787954" lon="10.955304269375503"><ele>137.0</ele><time>2026-05-02T08:05:49Z</time></trkpt><trkpt lat="43.95881998672914" lon="10.955472065773602"><ele>137.0</ele><time>2026-05-02T08:05:50Z</time></trkpt><trkpt lat="43.95893224425014" lon="10.955605338625855"><ele>137.0</ele><time>2026-05-02T08:05:51Z</time></trkpt><trkpt lat="43.959048172077345" lon="10.955733583297091"><ele>139.66666666666666</ele><time>2026-05-02T08:05:52Z</time></trkpt><trkpt lat="43.95916352856142" lon="10.955873296129807"><ele>142.33333333333334</ele><time>2026-05-02T08:05:53Z</time></trkpt><trkpt lat="43.95928609730773" lon="10.956017769528392"><ele>145.0</ele><time>2026-05-02T08:05:54Z</time></trkpt><trkpt lat="43.959417276172964" lon="10.95615613487235"><ele>145.0</ele><time>2026-05-02T08:05:55Z</time></trkpt><trkpt lat="43.95956541444384" lon="10.95627922225243"><ele>145.0</ele><time>2026-05-02T08:05:56Z</time></trkpt><trkpt lat="43.95969981711636" lon="10.95637107861326"><ele>145.0</ele><time>2026-05-02T08:05:57Z</time></trkpt><trkpt lat="43.959816159592364" lon="10.956439640468727"><ele>145.0</ele><time>2026-05-02T08:05:58Z</time></trkpt><trkpt lat="43.959931404979116" lon="10.956473226139238"><ele>145.25</ele><time>2026-05-02T08:05:59Z</time></trkpt><trkpt lat="43.96004783103376" lon="10.956460934039685"><ele>145.5</ele><time>2026-05-02T08:06:00Z</time></trkpt><trkpt lat="43.96016240975987" lon="10.956414003119912"><ele>145.75</ele><time>2026-05-02T08:06:01Z</time></trkpt><trkpt lat="43.960259501226616" lon="10.956323291643807"><ele>146.0</ele><time>2026-05-02T08:06:02Z</time></trkpt><trkpt lat="43.960332746792254" lon="10.956191433744037"><ele>146.0</ele><time>2026-05-02T08:06:03Z</time></trkpt><trkpt lat="43.96037672037083" lon="10.956019112800465"><ele>146.0</ele><time>2026-05-02T08:06:04Z</time></trkpt><trkpt lat="43.960389452383076" lon="10.95580960092727"><ele>146.0</ele><time>2026-05-02T08:06:05Z</time></trkpt><trkpt lat="43.96038617130128" lon="10.95557149824941"><ele>147.0</ele><time>2026-05-02T08:06:06Z</time></trkpt><trkpt lat="43.96038350326115" lon="10.955309100945575"><ele>148.0</ele><time>2026-05-02T08:06:07Z</time></trkpt><trkpt lat="43.96039063359627" lon="10.955081165988185"><ele>149.0</ele><time>2026-05-02T08:06:08Z</time></trkpt><trkpt lat="43.960406312924306" lon="10.954885595598892"><ele>150.2</ele><time>2026-05-02T08:06:09Z</time></trkpt><trkpt lat="43.96044896551994" lon="10.95472496871315"><ele>151.4</ele><time>2026-05-02T08:06:10Z</time></trkpt><trkpt lat="43.960515922926646" lon="10.954610485189267"><ele>152.6</ele><time>2026-05-02T08:06:11Z</time></trkpt><trkpt lat="43.96060184920708" lon="10.954555656594012"><ele>153.8</ele><time>2026-05-02T08:06:12Z</time></trkpt><trkpt lat="43.96069698539629" lon="10.954558320622445"><ele>155.0</ele><time>2026-05-02T08:06:13Z</time></trkpt><trkpt lat="43.960792047258494" lon="10.95462783819402"><ele>156.0</ele><time>2026-05-02T08:06:14Z</time></trkpt><trkpt lat="43.96090101994133" lon="10.954714750084744"><ele>157.0</ele><time>2026-05-02T08:06:15Z</time></trkpt><trkpt lat="43.961037446385546" lon="10.954806783134636"><ele>158.0</ele><time>2026-05-02T08:06:16Z</time></trkpt><trkpt lat="43.96118009197138" lon="10.954933020781374"><ele>159.0</ele><time>2026-05-02T08:06:17Z</time></trkpt><trkpt lat="43.96134424534996" lon="10.955073019699595"><ele>159.0</ele><time>2026-05-02T08:06:18Z</time></trkpt><trkpt lat="43.961523231250226" lon="10.955211368579771"><ele>159.0</ele><time>2026-05-02T08:06:19Z</time></trkpt><trkpt lat="43.96171468701554" lon="10.955322575460318"><ele>159.0</ele><time>2026-05-02T08:06:20Z</time></trkpt><trkpt lat="43.961913139702425" lon="10.955390345057442"><ele>163.33333333333334</ele><time>2026-05-02T08:06:21Z</time></trkpt><trkpt lat="43.96208383673032" lon="10.955473951713492"><ele>167.66666666666669</ele><time>2026-05-02T08:06:22Z</time></trkpt><trkpt lat="43.962247882164874" lon="10.955513098853787"><ele>172.0</ele><time>2026-05-02T08:06:23Z</time></trkpt><trkpt lat="43.962381792935034" lon="10.955598898160211"><ele>172.0</ele><time>2026-05-02T08:06:24Z</time></trkpt><trkpt lat="43.962484753447875" lon="10.955722784858489"><ele>172.0</ele><time>2026-05-02T08:06:25Z</time></trkpt><trkpt lat="43.962594274254876" lon="10.95585532959422"><ele>172.0</ele><time>2026-05-02T08:06:26Z</time></trkpt><trkpt lat="43.962713887241655" lon="10.956006506332479"><ele>172.0</ele><time>2026-05-02T08:06:27Z</time></trkpt><trkpt lat="43.962845973015376" lon="10.956155749892567"><ele>174.66666666666669</ele><time>2026-05-02T08:06:28Z</time></trkpt><trkpt lat="43.962991710507644" lon="10.956297596246616"><ele>177.33333333333334</ele><time>2026-05-02T08:06:29Z</time></trkpt><trkpt lat="43.96313949619392" lon="10.95642878833752"><ele>180.0</ele><time>2026-05-02T08:06:30Z</time></trkpt><trkpt lat="43.96328718821807" lon="10.956532662897635"><ele>181.25</ele><time>2026-05-02T08:06:31Z</time></trkpt><trkpt lat="43.96341865591189" lon="10.956622933466189"><ele>182.5</ele><time>2026-05-02T08:06:32Z</time></trkpt><trkpt lat="43.96354721751489" lon="10.956673146627896"><ele>183.75</ele><time>2026-05-02T08:06:33Z</time></trkpt><trkpt lat="43.963692448953594" lon="10.956684005414136"><ele>185.0</ele><time>2026-05-02T08:06:34Z</time></trkpt><trkpt lat="43.963843660998776" lon="10.956659032812883"><ele>185.0</ele><time>2026-05-02T08:06:35Z</time></trkpt><trkpt lat="43.96399841311742" lon="10.956611458575104"><ele>185.0</ele><time>2026-05-02T08:06:36Z</time></trkpt><trkpt lat="43.96415825509299" lon="10.956580321874094"><ele>185.0</ele><time>2026-05-02T08:06:37Z</time></trkpt><trkpt lat="43.96432572456966" lon="10.956599629454521"><ele>189.66666666666666</ele><time>2026-05-02T08:06:38Z</time></trkpt><trkpt lat="43.96449370688303" lon="10.956652230169286"><ele>194.33333333333331</ele><time>2026-05-02T08:06:39Z</time></trkpt><trkpt lat="43.96467113201339" lon="10.956649977106673"><ele>199.0</ele><time>2026-05-02T08:06:40Z</time></trkpt><trkpt lat="43.96485122880932" lon="10.956604495921505"><ele>202.33333333333331</ele><time>2026-05-02T08:06:41Z</time></trkpt><trkpt lat="43.965035636257966" lon="10.956592078399163"><ele>205.66666666666669</ele><time>2026-05-02T08:06:42Z</time></trkpt><trkpt lat="43.9652179474679" lon="10.956580751878672"><ele>209.0</ele><time>2026-05-02T08:06:43Z</time></trkpt><trkpt lat="43.96538352958372" lon="10.956590243108968"><ele>209.0</ele><time>2026-05-02T08:06:44Z</time></trkpt><trkpt lat="43.96553276743302" lon="10.956582058077537"><ele>209.0</ele><time>2026-05-02T08:06:45Z</time></trkpt><trkpt lat="43.965656350779525" lon="10.956608777372933"><ele>209.0</ele><time>2026-05-02T08:06:46Z</time></trkpt><trkpt lat="43.965762753791445" lon="10.956660183044493"><ele>209.0</ele><time>2026-05-02T08:06:47Z</time></trkpt><trkpt lat="43.96583342606396" lon="10.956773584912774"><ele>209.50000000000003</ele><time>2026-05-02T08:06:48Z</time></trkpt><trkpt lat="43.96589924154635" lon="10.956916294898175"><ele>210.0</ele><time>2026-05-02T08:06:49Z</time></trkpt><trkpt lat="43.96593122216747" lon="10.95704484344347"><ele>210.5</ele><time>2026-05-02T08:06:50Z</time></trkpt><trkpt lat="43.96591796712511" lon="10.957140629548189"><ele>211.0</ele><time>2026-05-02T08:06:51Z</time></trkpt><trkpt lat="43.96586958838943" lon="10.957204017530282"><ele>211.50000000000003</ele><time>2026-05-02T08:06:52Z</time></trkpt><trkpt lat="43.96578645246825" lon="10.95723274848461"><ele>212.0</ele><time>2026-05-02T08:06:53Z</time></trkpt><trkpt lat="43.96567897511048" lon="10.957307758208225"><ele>212.0</ele><time>2026-05-02T08:06:54Z</time></trkpt><trkpt lat="43.96556261704989" lon="10.957375041158834"><ele>212.0</ele><time>2026-05-02T08:06:55Z</time></trkpt><trkpt lat="43.96546787243232" lon="10.957454632544783"><ele>212.0</ele><time>2026-05-02T08:06:56Z</time></trkpt><trkpt lat="43.96541999373111" lon="10.957589145672456"><ele>212.0</ele><time>2026-05-02T08:06:57Z</time></trkpt><trkpt lat="43.96544645263478" lon="10.95776364441474"><ele>213.66666666666669</ele><time>2026-05-02T08:06:58Z</time></trkpt><trkpt lat="43.965463001073054" lon="10.957960860162972"><ele>215.33333333333331</ele><time>2026-05-02T08:06:59Z</time></trkpt><trkpt lat="43.96549428236979" lon="10.95817171569629"><ele>217.0</ele><time>2026-05-02T08:07:00Z</time></trkpt><trkpt lat="43.96553320804929" lon="10.958379420931893"><ele>217.0</ele><time>2026-05-02T08:07:00.999Z</time></trkpt><trkpt lat="43.96564142246772" lon="10.958565109860686"><ele>217.0</ele><time>2026-05-02T08:07:01.999Z</time></trkpt><trkpt lat="43.96576294520126" lon="10.958753753419119"><ele>217.0</ele><time>2026-05-02T08:07:02.999Z</time></trkpt><trkpt lat="43.96589423725602" lon="10.958959090892877"><ele>220.0</ele><time>2026-05-02T08:07:03.999Z</time></trkpt><trkpt lat="43.96603568272544" lon="10.959190218864597"><ele>223.0</ele><time>2026-05-02T08:07:04.999Z</time></trkpt><trkpt lat="43.966160893799824" lon="10.959405070273139"><ele>226.0</ele><time>2026-05-02T08:07:05.999Z</time></trkpt><trkpt lat="43.96627869507314" lon="10.959578642486848"><ele>226.0</ele><time>2026-05-02T08:07:06.999Z</time></trkpt><trkpt lat="43.96641496936431" lon="10.959723725660309"><ele>226.0</ele><time>2026-05-02T08:07:07.999Z</time></trkpt><trkpt lat="43.966577675447596" lon="10.959849291488194"><ele>226.0</ele><time>2026-05-02T08:07:08.999Z</time></trkpt><trkpt lat="43.966760566673344" lon="10.95994891755697"><ele>227.5</ele><time>2026-05-02T08:07:09.999Z</time></trkpt><trkpt lat="43.96696395231874" lon="10.960043944023315"><ele>229.0</ele><time>2026-05-02T08:07:10.999Z</time></trkpt><trkpt lat="43.967189894595805" lon="10.96014788288251"><ele>229.0</ele><time>2026-05-02T08:07:11.999Z</time></trkpt><trkpt lat="43.967402830455676" lon="10.960256974929347"><ele>229.0</ele><time>2026-05-02T08:07:12.999Z</time></trkpt><trkpt lat="43.967613706155326" lon="10.960373969958772"><ele>236.0</ele><time>2026-05-02T08:07:13.999Z</time></trkpt><trkpt lat="43.96779467054379" lon="10.960481487587778"><ele>243.0</ele><time>2026-05-02T08:07:14.999Z</time></trkpt><trkpt lat="43.96795526512604" lon="10.960591819287364"><ele>250.0</ele><time>2026-05-02T08:07:15.998Z</time></trkpt><trkpt lat="43.96809917384427" lon="10.960732231847924"><ele>247.66666666666666</ele><time>2026-05-02T08:07:16.998Z</time></trkpt><trkpt lat="43.968224954701256" lon="10.960884917961497"><ele>245.33333333333331</ele><time>2026-05-02T08:07:17.998Z</time></trkpt><trkpt lat="43.96832447877129" lon="10.961036670381459"><ele>243.0</ele><time>2026-05-02T08:07:18.998Z</time></trkpt><trkpt lat="43.96838911520534" lon="10.961216821589039"><ele>248.66666666666669</ele><time>2026-05-02T08:07:19.998Z</time></trkpt><trkpt lat="43.96840042644636" lon="10.961435663386984"><ele>254.33333333333334</ele><time>2026-05-02T08:07:20.998Z</time></trkpt><trkpt lat="43.96844641015602" lon="10.96163765523847"><ele>260.0</ele><time>2026-05-02T08:07:21.998Z</time></trkpt><trkpt lat="43.96852412184671" lon="10.961803393115579"><ele>260.0</ele><time>2026-05-02T08:07:22.998Z</time></trkpt><trkpt lat="43.968644743753096" lon="10.961940420919086"><ele>260.0</ele><time>2026-05-02T08:07:23.998Z</time></trkpt><trkpt lat="43.96878061564115" lon="10.96208665118722"><ele>260.0</ele><time>2026-05-02T08:07:24.998Z</time></trkpt><trkpt lat="43.968911279797474" lon="10.962221675985557"><ele>260.0</ele><time>2026-05-02T08:07:25.999Z</time></trkpt><trkpt lat="43.96902012454808" lon="10.96233668579598"><ele>260.0</ele><time>2026-05-02T08:07:26.999Z</time></trkpt><trkpt lat="43.96908148471354" lon="10.962484657216603"><ele>260.0</ele><time>2026-05-02T08:07:27.999Z</time></trkpt><trkpt lat="43.969064824872135" lon="10.962646530244028"><ele>260.0</ele><time>2026-05-02T08:07:28.999Z</time></trkpt><trkpt lat="43.969060506848166" lon="10.962829683498294"><ele>259.25</ele><time>2026-05-02T08:07:29.999Z</time></trkpt><trkpt lat="43.96906658572233" lon="10.963030397059939"><ele>258.5</ele><time>2026-05-02T08:07:30.999Z</time></trkpt><trkpt lat="43.96907198680237" lon="10.963230877216064"><ele>257.75</ele><time>2026-05-02T08:07:31.999Z</time></trkpt><trkpt lat="43.96909262987698" lon="10.963430168702827"><ele>257.0</ele><time>2026-05-02T08:07:32.999Z</time></trkpt><trkpt lat="43.969181384895286" lon="10.963593859822614"><ele>258.0</ele><time>2026-05-02T08:07:33.999Z</time></trkpt><trkpt lat="43.9692816113707" lon="10.963728952201711"><ele>259.0</ele><time>2026-05-02T08:07:34.999Z</time></trkpt><trkpt lat="43.96940150916865" lon="10.963820214420743"><ele>260.0</ele><time>2026-05-02T08:07:35.999Z</time></trkpt><trkpt lat="43.96951563536406" lon="10.963960861944257"><ele>261.0</ele><time>2026-05-02T08:07:36.999Z</time></trkpt><trkpt lat="43.969678341135634" lon="10.963959814237771"><ele>261.0</ele><time>2026-05-02T08:07:37.999Z</time></trkpt><trkpt lat="43.969811342789406" lon="10.963812798619342"><ele>261.0</ele><time>2026-05-02T08:07:38.999Z</time></trkpt><trkpt lat="43.96995156674168" lon="10.963799895582248"><ele>261.0</ele><time>2026-05-02T08:07:39.999Z</time></trkpt><trkpt lat="43.97002261870411" lon="10.96357894444301"><ele>264.75</ele><time>2026-05-02T08:07:40.999Z</time></trkpt><trkpt lat="43.97008875846548" lon="10.96340490423431"><ele>268.5</ele><time>2026-05-02T08:07:41.999Z</time></trkpt><trkpt lat="43.970122308906625" lon="10.963208368584583"><ele>272.25</ele><time>2026-05-02T08:07:42.999Z</time></trkpt><trkpt lat="43.970120633980386" lon="10.96300086184485"><ele>276.0</ele><time>2026-05-02T08:07:43.999Z</time></trkpt><trkpt lat="43.97007678955263" lon="10.962784203007462"><ele>277.0</ele><time>2026-05-02T08:07:44.999Z</time></trkpt><trkpt lat="43.970016547381725" lon="10.962563606630901"><ele>278.0</ele><time>2026-05-02T08:07:45.999Z</time></trkpt><trkpt lat="43.96995005332495" lon="10.962326709838635"><ele>279.0</ele><time>2026-05-02T08:07:46.999Z</time></trkpt><trkpt lat="43.96988461013152" lon="10.962075463766277"><ele>279.0</ele><time>2026-05-02T08:07:47.999Z</time></trkpt><trkpt lat="43.969824023403675" lon="10.961841353081017"><ele>279.0</ele><time>2026-05-02T08:07:48.999Z</time></trkpt><trkpt lat="43.96977907871807" lon="10.961642540846283"><ele>279.0</ele><time>2026-05-02T08:07:49.999Z</time></trkpt><trkpt lat="43.96975783228409" lon="10.961453815300835"><ele>281.25</ele><time>2026-05-02T08:07:50.999Z</time></trkpt><trkpt lat="43.96976208915715" lon="10.961271676768307"><ele>283.5</ele><time>2026-05-02T08:07:51.999Z</time></trkpt><trkpt lat="43.969797610306" lon="10.961083107232136"><ele>285.75</ele><time>2026-05-02T08:07:52.999Z</time></trkpt><trkpt lat="43.9698418833839" lon="10.960893277272575"><ele>288.0</ele><time>2026-05-02T08:07:53.999Z</time></trkpt><trkpt lat="43.96984264542891" lon="10.96069892674301"><ele>291.3333333333333</ele><time>2026-05-02T08:07:54.999Z</time></trkpt><trkpt lat="43.9697972717828" lon="10.960506837241743"><ele>294.66666666666663</ele><time>2026-05-02T08:07:55.999Z</time></trkpt><trkpt lat="43.969727971595795" lon="10.960321110334835"><ele>298.0</ele><time>2026-05-02T08:07:56.999Z</time></trkpt><trkpt lat="43.96962938907928" lon="10.960154025134164"><ele>295.5</ele><time>2026-05-02T08:07:57.999Z</time></trkpt><trkpt lat="43.969507976249965" lon="10.960024117204249"><ele>293.0</ele><time>2026-05-02T08:07:58.999Z</time></trkpt><trkpt lat="43.969365754468065" lon="10.95993239446278"><ele>290.5</ele><time>2026-05-02T08:07:59.999Z</time></trkpt><trkpt lat="43.96925088619723" lon="10.959834376276024"><ele>288.0</ele><time>2026-05-02T08:08:00.999Z</time></trkpt><trkpt lat="43.96917059839917" lon="10.959709718062994"><ele>288.0</ele><time>2026-05-02T08:08:01.999Z</time></trkpt><trkpt lat="43.969111231090686" lon="10.959562104649175"><ele>288.0</ele><time>2026-05-02T08:08:02.999Z</time></trkpt><trkpt lat="43.96908331248117" lon="10.959389594116171"><ele>288.0</ele><time>2026-05-02T08:08:03.999Z</time></trkpt><trkpt lat="43.96908481149987" lon="10.959188728172437"><ele>288.0</ele><time>2026-05-02T08:08:04.999Z</time></trkpt><trkpt lat="43.96909225979487" lon="10.958964804379033"><ele>292.0</ele><time>2026-05-02T08:08:05.999Z</time></trkpt><trkpt lat="43.96911267501378" lon="10.958722143923653"><ele>296.0</ele><time>2026-05-02T08:08:06.999Z</time></trkpt><trkpt lat="43.96916456294173" lon="10.958485320861154"><ele>300.0</ele><time>2026-05-02T08:08:07.999Z</time></trkpt><trkpt lat="43.96924995900209" lon="10.958286372440394"><ele>309.25</ele><time>2026-05-02T08:08:08.999Z</time></trkpt><trkpt lat="43.969334284281246" lon="10.958124822630438"><ele>318.5</ele><time>2026-05-02T08:08:09.999Z</time></trkpt><trkpt lat="43.96937802816473" lon="10.957956003224249"><ele>327.75</ele><time>2026-05-02T08:08:10.999Z</time></trkpt><trkpt lat="43.96937772786216" lon="10.957790235722547"><ele>337.0</ele><time>2026-05-02T08:08:11.999Z</time></trkpt><trkpt lat="43.96932847653485" lon="10.957628609565099"><ele>339.25</ele><time>2026-05-02T08:08:12.999Z</time></trkpt><trkpt lat="43.96923092698898" lon="10.95749497643736"><ele>341.5</ele><time>2026-05-02T08:08:13.999Z</time></trkpt><trkpt lat="43.96912975571409" lon="10.957362234723025"><ele>343.75</ele><time>2026-05-02T08:08:14.999Z</time></trkpt><trkpt lat="43.96907927240841" lon="10.957168757831262"><ele>346.0</ele><time>2026-05-02T08:08:15.999Z</time></trkpt><trkpt lat="43.96901676542797" lon="10.956957227157782"><ele>339.5</ele><time>2026-05-02T08:08:16.999Z</time></trkpt><trkpt lat="43.96898656069262" lon="10.956753760248809"><ele>333.0</ele><time>2026-05-02T08:08:17.999Z</time></trkpt><trkpt lat="43.96898387332344" lon="10.956572387580934"><ele>326.5</ele><time>2026-05-02T08:08:18.999Z</time></trkpt><trkpt lat="43.96901845088385" lon="10.956402148053874"><ele>320.0</ele><time>2026-05-02T08:08:19.999Z</time></trkpt><trkpt lat="43.96908528919158" lon="10.956229316746223"><ele>320.0</ele><time>2026-05-02T08:08:20.999Z</time></trkpt><trkpt lat="43.969176469618546" lon="10.9560454896662"><ele>320.0</ele><time>2026-05-02T08:08:21.999Z</time></trkpt><trkpt lat="43.96927679952579" lon="10.955841582999797"><ele>320.0</ele><time>2026-05-02T08:08:22.999Z</time></trkpt><trkpt lat="43.96937235547191" lon="10.955632903056815"><ele>322.8</ele><time>2026-05-02T08:08:23.999Z</time></trkpt><trkpt lat="43.96945216685613" lon="10.955463600241748"><ele>325.6</ele><time>2026-05-02T08:08:24.999Z</time></trkpt><trkpt lat="43.969519532684814" lon="10.95534299523046"><ele>328.4</ele><time>2026-05-02T08:08:25.999Z</time></trkpt><trkpt lat="43.969588162316256" lon="10.955278544989541"><ele>331.2</ele><time>2026-05-02T08:08:26.999Z</time></trkpt><trkpt lat="43.969663524279746" lon="10.955282607591695"><ele>334.0</ele><time>2026-05-02T08:08:27.999Z</time></trkpt><trkpt lat="43.96973321547932" lon="10.955341122163922"><ele>334.0</ele><time>2026-05-02T08:08:28.999Z</time></trkpt><trkpt lat="43.969762620783946" lon="10.955458113046943"><ele>334.0</ele><time>2026-05-02T08:08:29.999Z</time></trkpt><trkpt lat="43.96972923629258" lon="10.955592933350749"><ele>334.0</ele><time>2026-05-02T08:08:30.999Z</time></trkpt><trkpt lat="43.96969910806964" lon="10.955770324937367"><ele>334.0</ele><time>2026-05-02T08:08:31.999Z</time></trkpt><trkpt lat="43.96964424667792" lon="10.955965609034601"><ele>338.3333333333333</ele><time>2026-05-02T08:08:32.999Z</time></trkpt><trkpt lat="43.969604007620376" lon="10.956182758525395"><ele>342.6666666666667</ele><time>2026-05-02T08:08:33.999Z</time></trkpt><trkpt lat="43.96957958731958" lon="10.956408636584944"><ele>347.0</ele><time>2026-05-02T08:08:34.999Z</time></trkpt><trkpt lat="43.96956478692565" lon="10.956621339446732"><ele>346.75</ele><time>2026-05-02T08:08:35.999Z</time></trkpt><trkpt lat="43.96957066600645" lon="10.956816001507258"><ele>346.5</ele><time>2026-05-02T08:08:36.999Z</time></trkpt><trkpt lat="43.96960352571647" lon="10.957004326523556"><ele>346.25</ele><time>2026-05-02T08:08:37.999Z</time></trkpt><trkpt lat="43.96967882694815" lon="10.957192002283962"><ele>346.0</ele><time>2026-05-02T08:08:38.999Z</time></trkpt><trkpt lat="43.969795477906246" lon="10.957384741075776"><ele>343.0</ele><time>2026-05-02T08:08:39.999Z</time></trkpt><trkpt lat="43.96992710843064" lon="10.957592712798755"><ele>340.0</ele><time>2026-05-02T08:08:40.999Z</time></trkpt><trkpt lat="43.97006620851392" lon="10.957843804905687"><ele>337.0</ele><time>2026-05-02T08:08:41.999Z</time></trkpt><trkpt lat="43.97019640824967" lon="10.95813253766646"><ele>343.0</ele><time>2026-05-02T08:08:42.999Z</time></trkpt><trkpt lat="43.97030007125045" lon="10.95838543178841"><ele>349.0</ele><time>2026-05-02T08:08:43.999Z</time></trkpt><trkpt lat="43.9704094871542" lon="10.958591294021453"><ele>355.0</ele><time>2026-05-02T08:08:44.999Z</time></trkpt><trkpt lat="43.97054441358991" lon="10.958768435677039"><ele>355.0</ele><time>2026-05-02T08:08:45.999Z</time></trkpt><trkpt lat="43.970712219501635" lon="10.958923515510824"><ele>355.0</ele><time>2026-05-02T08:08:46.999Z</time></trkpt><trkpt lat="43.97090333980553" lon="10.959047895407464"><ele>355.0</ele><time>2026-05-02T08:08:47.999Z</time></trkpt><trkpt lat="43.97109772503004" lon="10.959171742045244"><ele>359.0</ele><time>2026-05-02T08:08:48.999Z</time></trkpt><trkpt lat="43.97125849171714" lon="10.959311736099156"><ele>363.0</ele><time>2026-05-02T08:08:49.999Z</time></trkpt><trkpt lat="43.97139976374471" lon="10.959488132055657"><ele>367.0</ele><time>2026-05-02T08:08:50.999Z</time></trkpt><trkpt lat="43.97152737060085" lon="10.959693053648216"><ele>367.0</ele><time>2026-05-02T08:08:51.999Z</time></trkpt><trkpt lat="43.971649464096345" lon="10.95990900562744"><ele>367.0</ele><time>2026-05-02T08:08:52.999Z</time></trkpt><trkpt lat="43.97177991030751" lon="10.960115581539725"><ele>367.0</ele><time>2026-05-02T08:08:53.999Z</time></trkpt><trkpt lat="43.97192372262053" lon="10.960300579394318"><ele>371.3333333333333</ele><time>2026-05-02T08:08:54.999Z</time></trkpt><trkpt lat="43.97208354846693" lon="10.96046245530039"><ele>375.6666666666667</ele><time>2026-05-02T08:08:55.999Z</time></trkpt><trkpt lat="43.97225976736318" lon="10.960595901590397"><ele>380.0</ele><time>2026-05-02T08:08:56.999Z</time></trkpt><trkpt lat="43.97244051335606" lon="10.960724917806344"><ele>380.6666666666667</ele><time>2026-05-02T08:08:57.999Z</time></trkpt><trkpt lat="43.97262177198009" lon="10.960861639500653"><ele>381.3333333333333</ele><time>2026-05-02T08:08:58.999Z</time></trkpt><trkpt lat="43.972803028932454" lon="10.961002674310574"><ele>382.0</ele><time>2026-05-02T08:08:59.999Z</time></trkpt><trkpt lat="43.97298333197168" lon="10.961146508959866"><ele>382.0</ele><time>2026-05-02T08:09:00.999Z</time></trkpt><trkpt lat="43.973157287534285" lon="10.961289805523108"><ele>382.0</ele><time>2026-05-02T08:09:01.999Z</time></trkpt><trkpt lat="43.97331878647927" lon="10.961409066330361"><ele>382.0</ele><time>2026-05-02T08:09:02.999Z</time></trkpt><trkpt lat="43.97346164521769" lon="10.961480301732504"><ele>391.5</ele><time>2026-05-02T08:09:03.999Z</time></trkpt><trkpt lat="43.9736004690898" lon="10.961493737425211"><ele>401.0</ele><time>2026-05-02T08:09:04.999Z</time></trkpt><trkpt lat="43.97372524757726" lon="10.961472971866412"><ele>410.5</ele><time>2026-05-02T08:09:05.998Z</time></trkpt><trkpt lat="43.97382848807979" lon="10.961506544631268"><ele>420.0</ele><time>2026-05-02T08:09:06.998Z</time></trkpt><trkpt lat="43.9739231532545" lon="10.961592218270848"><ele>424.75</ele><time>2026-05-02T08:09:07.998Z</time></trkpt><trkpt lat="43.973977563411" lon="10.961744900244298"><ele>429.5</ele><time>2026-05-02T08:09:08.998Z</time></trkpt><trkpt lat="43.97404317337497" lon="10.961919907817581"><ele>434.25</ele><time>2026-05-02T08:09:09.998Z</time></trkpt><trkpt lat="43.974102354715335" lon="10.962108176418349"><ele>439.0</ele><time>2026-05-02T08:09:10.998Z</time></trkpt><trkpt lat="43.974190640786226" lon="10.962271834586938"><ele>439.0</ele><time>2026-05-02T08:09:11.998Z</time></trkpt><trkpt lat="43.97431528714694" lon="10.96239610776395"><ele>439.0</ele><time>2026-05-02T08:09:12.998Z</time></trkpt><trkpt lat="43.97446217431536" lon="10.962468854434391"><ele>439.0</ele><time>2026-05-02T08:09:13.998Z</time></trkpt><trkpt lat="43.974590595928156" lon="10.962555728929898"><ele>430.6666666666667</ele><time>2026-05-02T08:09:14.998Z</time></trkpt><trkpt lat="43.97468009145589" lon="10.962719625246157"><ele>422.33333333333337</ele><time>2026-05-02T08:09:15.998Z</time></trkpt><trkpt lat="43.97476837032676" lon="10.96290956548847"><ele>414.0</ele><time>2026-05-02T08:09:16.998Z</time></trkpt><trkpt lat="43.974884354787605" lon="10.963084610599724"><ele>414.0</ele><time>2026-05-02T08:09:17.998Z</time></trkpt><trkpt lat="43.97500708614199" lon="10.963266475260903"><ele>414.0</ele><time>2026-05-02T08:09:18.998Z</time></trkpt><trkpt lat="43.97510201792821" lon="10.963450047670122"><ele>414.0</ele><time>2026-05-02T08:09:19.998Z</time></trkpt><trkpt lat="43.97520315773336" lon="10.963585856677675"><ele>424.5</ele><time>2026-05-02T08:09:20.998Z</time></trkpt><trkpt lat="43.97525702089256" lon="10.963732123980986"><ele>435.0</ele><time>2026-05-02T08:09:21.998Z</time></trkpt><trkpt lat="43.975283054532845" lon="10.96387580054683"><ele>445.5</ele><time>2026-05-02T08:09:22.998Z</time></trkpt><trkpt lat="43.975246151218876" lon="10.964027287831051"><ele>456.0</ele><time>2026-05-02T08:09:23.998Z</time></trkpt><trkpt lat="43.97517718577097" lon="10.964177571544253"><ele>459.0</ele><time>2026-05-02T08:09:24.998Z</time></trkpt><trkpt lat="43.97508092193767" lon="10.964342043203157"><ele>462.0</ele><time>2026-05-02T08:09:25.998Z</time></trkpt><trkpt lat="43.97496143029393" lon="10.96453035123578"><ele>465.0</ele><time>2026-05-02T08:09:26.998Z</time></trkpt><trkpt lat="43.97484689665037" lon="10.964740410998234"><ele>458.33333333333337</ele><time>2026-05-02T08:09:27.998Z</time></trkpt><trkpt lat="43.97472277657712" lon="10.964959787289272"><ele>451.6666666666667</ele><time>2026-05-02T08:09:28.998Z</time></trkpt><trkpt lat="43.9746263116458" lon="10.965191313566626"><ele>445.0</ele><time>2026-05-02T08:09:29.998Z</time></trkpt><trkpt lat="43.97454321299348" lon="10.96538780860399"><ele>445.0</ele><time>2026-05-02T08:09:30.998Z</time></trkpt><trkpt lat="43.974500784068475" lon="10.9655732708166"><ele>445.0</ele><time>2026-05-02T08:09:31.999Z</time></trkpt><trkpt lat="43.97446504328501" lon="10.96573340404385"><ele>445.0</ele><time>2026-05-02T08:09:32.999Z</time></trkpt><trkpt lat="43.9744693342632" lon="10.965900263851855"><ele>445.0</ele><time>2026-05-02T08:09:33.999Z</time></trkpt><trkpt lat="43.97451160247626" lon="10.966094139155848"><ele>446.33333333333337</ele><time>2026-05-02T08:09:34.999Z</time></trkpt><trkpt lat="43.97456006234685" lon="10.96629929371957"><ele>447.66666666666663</ele><time>2026-05-02T08:09:35.999Z</time></trkpt><trkpt lat="43.974610062859895" lon="10.966513458763949"><ele>449.0</ele><time>2026-05-02T08:09:36.999Z</time></trkpt><trkpt lat="43.974667845177684" lon="10.966718293914855"><ele>445.5</ele><time>2026-05-02T08:09:37.999Z</time></trkpt><trkpt lat="43.97474426464268" lon="10.966884490483459"><ele>442.0</ele><time>2026-05-02T08:09:38.999Z</time></trkpt><trkpt lat="43.97485270353504" lon="10.967012797475617"><ele>438.5</ele><time>2026-05-02T08:09:39.999Z</time></trkpt><trkpt lat="43.974977510162645" lon="10.967119122267672"><ele>435.0</ele><time>2026-05-02T08:09:40.999Z</time></trkpt><trkpt lat="43.97510095870055" lon="10.967176382210896"><ele>435.0</ele><time>2026-05-02T08:09:41.999Z</time></trkpt><trkpt lat="43.97521380853544" lon="10.967176378295315"><ele>435.0</ele><time>2026-05-02T08:09:42.999Z</time></trkpt><trkpt lat="43.975323866254485" lon="10.967118398359547"><ele>435.0</ele><time>2026-05-02T08:09:43.999Z</time></trkpt><trkpt lat="43.9754224329566" lon="10.966979180744625"><ele>435.0</ele><time>2026-05-02T08:09:44.999Z</time></trkpt><trkpt lat="43.97554228829784" lon="10.966829065807937"><ele>440.25</ele><time>2026-05-02T08:09:45.999Z</time></trkpt><trkpt lat="43.975652228052894" lon="10.966679306691915"><ele>445.5</ele><time>2026-05-02T08:09:46.999Z</time></trkpt><trkpt lat="43.975744104096606" lon="10.966551804550758"><ele>450.75</ele><time>2026-05-02T08:09:47.999Z</time></trkpt><trkpt lat="43.9758506017211" lon="10.966491101627428"><ele>456.0</ele><time>2026-05-02T08:09:48.999Z</time></trkpt><trkpt lat="43.975962210186786" lon="10.966486016635583"><ele>458.5</ele><time>2026-05-02T08:09:49.999Z</time></trkpt><trkpt lat="43.97609378468594" lon="10.966513490511282"><ele>461.0</ele><time>2026-05-02T08:09:50.999Z</time></trkpt><trkpt lat="43.97624187262893" lon="10.966537438540769"><ele>463.5</ele><time>2026-05-02T08:09:51.999Z</time></trkpt><trkpt lat="43.97640308322469" lon="10.966570152966733"><ele>466.0</ele><time>2026-05-02T08:09:52.999Z</time></trkpt><trkpt lat="43.976553109256244" lon="10.966544696529091"><ele>466.0</ele><time>2026-05-02T08:09:53.999Z</time></trkpt><trkpt lat="43.976685232974994" lon="10.96656635645325"><ele>466.0</ele><time>2026-05-02T08:09:54.999Z</time></trkpt><trkpt lat="43.976813742548686" lon="10.966631640939188"><ele>466.0</ele><time>2026-05-02T08:09:55.999Z</time></trkpt><trkpt lat="43.97694413857626" lon="10.96673490621769"><ele>466.0</ele><time>2026-05-02T08:09:56.999Z</time></trkpt><trkpt lat="43.977054457319554" lon="10.966889153303029"><ele>470.6666666666667</ele><time>2026-05-02T08:09:57.999Z</time></trkpt><trkpt lat="43.97718357785942" lon="10.967055721043593"><ele>475.33333333333337</ele><time>2026-05-02T08:09:58.999Z</time></trkpt><trkpt lat="43.977316446657284" lon="10.967235877169793"><ele>480.0</ele><time>2026-05-02T08:09:59.999Z</time></trkpt><trkpt lat="43.97744554508755" lon="10.967404250973146"><ele>485.0</ele><time>2026-05-02T08:10:00.999Z</time></trkpt><trkpt lat="43.97755937451322" lon="10.967583483269557"><ele>490.0</ele><time>2026-05-02T08:10:01.999Z</time></trkpt><trkpt lat="43.977682719766534" lon="10.967747783297781"><ele>495.0</ele><time>2026-05-02T08:10:02.999Z</time></trkpt><trkpt lat="43.9778147537851" lon="10.96789601498414"><ele>495.0</ele><time>2026-05-02T08:10:03.999Z</time></trkpt><trkpt lat="43.977931512301005" lon="10.968060829804635"><ele>495.0</ele><time>2026-05-02T08:10:04.999Z</time></trkpt><trkpt lat="43.9780489045268" lon="10.968224123660551"><ele>495.0</ele><time>2026-05-02T08:10:05.999Z</time></trkpt><trkpt lat="43.97817293796573" lon="10.96839647278355"><ele>499.0</ele><time>2026-05-02T08:10:06.999Z</time></trkpt><trkpt lat="43.97830089214482" lon="10.968571739436547"><ele>503.0</ele><time>2026-05-02T08:10:07.999Z</time></trkpt><trkpt lat="43.978433897208326" lon="10.96874862776503"><ele>507.0</ele><time>2026-05-02T08:10:08.999Z</time></trkpt><trkpt lat="43.978570477852415" lon="10.968928997450396"><ele>507.0</ele><time>2026-05-02T08:10:09.999Z</time></trkpt><trkpt lat="43.97871094055498" lon="10.96911101157899"><ele>507.0</ele><time>2026-05-02T08:10:10.999Z</time></trkpt><trkpt lat="43.97884031058476" lon="10.96927918755596"><ele>507.0</ele><time>2026-05-02T08:10:11.999Z</time></trkpt><trkpt lat="43.97894296737401" lon="10.969437919563289"><ele>507.75</ele><time>2026-05-02T08:10:12.999Z</time></trkpt><trkpt lat="43.97901982381047" lon="10.969596256890005"><ele>508.5</ele><time>2026-05-02T08:10:13.999Z</time></trkpt><trkpt lat="43.97906110116231" lon="10.96976403459407"><ele>509.25</ele><time>2026-05-02T08:10:14.999Z</time></trkpt><trkpt lat="43.97908767867615" lon="10.969965604963829"><ele>510.0</ele><time>2026-05-02T08:10:15.999Z</time></trkpt><trkpt lat="43.97906311025388" lon="10.970187434856161"><ele>510.0</ele><time>2026-05-02T08:10:16.999Z</time></trkpt><trkpt lat="43.979042916573164" lon="10.970427763559947"><ele>510.0</ele><time>2026-05-02T08:10:17.999Z</time></trkpt><trkpt lat="43.9790156283451" lon="10.970691337894987"><ele>510.0</ele><time>2026-05-02T08:10:18.999Z</time></trkpt><trkpt lat="43.97896670902325" lon="10.970974351424706"><ele>514.0</ele><time>2026-05-02T08:10:19.999Z</time></trkpt><trkpt lat="43.97891026470862" lon="10.971246502778143"><ele>518.0</ele><time>2026-05-02T08:10:20.999Z</time></trkpt><trkpt lat="43.97883809970339" lon="10.971461908811026"><ele>522.0</ele><time>2026-05-02T08:10:21.999Z</time></trkpt><trkpt lat="43.97879635827339" lon="10.971679528839577"><ele>524.3333333333334</ele><time>2026-05-02T08:10:22.999Z</time></trkpt><trkpt lat="43.97878847708472" lon="10.971915857965728"><ele>526.6666666666667</ele><time>2026-05-02T08:10:23.999Z</time></trkpt><trkpt lat="43.97879914512721" lon="10.972164298954066"><ele>529.0</ele><time>2026-05-02T08:10:24.999Z</time></trkpt><trkpt lat="43.97880340043433" lon="10.972424832885308"><ele>530.3333333333334</ele><time>2026-05-02T08:10:25.999Z</time></trkpt><trkpt lat="43.9788023682032" lon="10.972703535359466"><ele>531.6666666666666</ele><time>2026-05-02T08:10:26.999Z</time></trkpt><trkpt lat="43.97880817376735" lon="10.97299735900772"><ele>533.0</ele><time>2026-05-02T08:10:27.999Z</time></trkpt><trkpt lat="43.978825147268935" lon="10.97329686821024"><ele>532.0</ele><time>2026-05-02T08:10:28.999Z</time></trkpt><trkpt lat="43.978852863770754" lon="10.973568979147586"><ele>531.0</ele><time>2026-05-02T08:10:29.999Z</time></trkpt><trkpt lat="43.97889372374893" lon="10.973823154579232"><ele>530.0</ele><time>2026-05-02T08:10:30.999Z</time></trkpt><trkpt lat="43.97894144110247" lon="10.974053586700652"><ele>527.3333333333333</ele><time>2026-05-02T08:10:31.999Z</time></trkpt><trkpt lat="43.97901010699152" lon="10.974281639352453"><ele>524.6666666666666</ele><time>2026-05-02T08:10:32.999Z</time></trkpt><trkpt lat="43.97909381468218" lon="10.974504838912951"><ele>522.0</ele><time>2026-05-02T08:10:33.999Z</time></trkpt><trkpt lat="43.9791948606981" lon="10.974719405221196"><ele>522.0</ele><time>2026-05-02T08:10:34.999Z</time></trkpt><trkpt lat="43.97930587971516" lon="10.974930913550882"><ele>522.0</ele><time>2026-05-02T08:10:35.999Z</time></trkpt><trkpt lat="43.97941263770213" lon="10.97511551067702"><ele>522.0</ele><time>2026-05-02T08:10:36.999Z</time></trkpt><trkpt lat="43.97951122546424" lon="10.975278467609028"><ele>522.0</ele><time>2026-05-02T08:10:37.999Z</time></trkpt><trkpt lat="43.97961639502203" lon="10.975412819290915"><ele>522.0</ele><time>2026-05-02T08:10:38.999Z</time></trkpt><trkpt lat="43.97973896732702" lon="10.97550360510032"><ele>522.0</ele><time>2026-05-02T08:10:39.999Z</time></trkpt><trkpt lat="43.97986131521487" lon="10.975548979607694"><ele>522.0</ele><time>2026-05-02T08:10:40.999Z</time></trkpt><trkpt lat="43.9799839893918" lon="10.975534999441896"><ele>522.0</ele><time>2026-05-02T08:10:41.999Z</time></trkpt><trkpt lat="43.98011853995688" lon="10.975462897592465"><ele>522.0</ele><time>2026-05-02T08:10:42.999Z</time></trkpt><trkpt lat="43.980262503204095" lon="10.975350812106626"><ele>522.0</ele><time>2026-05-02T08:10:43.999Z</time></trkpt><trkpt lat="43.9804278727799" lon="10.975243009559929"><ele>522.0</ele><time>2026-05-02T08:10:44.999Z</time></trkpt><trkpt lat="43.98057701720857" lon="10.97511845058553"><ele>522.0</ele><time>2026-05-02T08:10:45.999Z</time></trkpt><trkpt lat="43.980722026317785" lon="10.975052476674707"><ele>522.0</ele><time>2026-05-02T08:10:46.999Z</time></trkpt><trkpt lat="43.98084395258757" lon="10.975030833915358"><ele>522.0</ele><time>2026-05-02T08:10:47.999Z</time></trkpt><trkpt lat="43.980951977807365" lon="10.97506385199806"><ele>524.25</ele><time>2026-05-02T08:10:48.999Z</time></trkpt><trkpt lat="43.981054209247866" lon="10.975147575908041"><ele>526.5</ele><time>2026-05-02T08:10:49.999Z</time></trkpt><trkpt lat="43.981159549874775" lon="10.975263043145887"><ele>528.75</ele><time>2026-05-02T08:10:50.999Z</time></trkpt><trkpt lat="43.98127570648221" lon="10.975378590276451"><ele>531.0</ele><time>2026-05-02T08:10:51.999Z</time></trkpt><trkpt lat="43.98141529242948" lon="10.975446811504648"><ele>531.0</ele><time>2026-05-02T08:10:52.999Z</time></trkpt><trkpt lat="43.98157491859395" lon="10.975446197520768"><ele>531.0</ele><time>2026-05-02T08:10:53.999Z</time></trkpt><trkpt lat="43.98174656452642" lon="10.975397563219342"><ele>531.0</ele><time>2026-05-02T08:10:54.999Z</time></trkpt><trkpt lat="43.9819285204209" lon="10.975347630840472"><ele>536.6666666666666</ele><time>2026-05-02T08:10:55.999Z</time></trkpt><trkpt lat="43.982114504024636" lon="10.975289090030568"><ele>542.3333333333333</ele><time>2026-05-02T08:10:56.999Z</time></trkpt><trkpt lat="43.982276932698376" lon="10.975238046277214"><ele>548.0</ele><time>2026-05-02T08:10:57.999Z</time></trkpt><trkpt lat="43.982426020019055" lon="10.975208875209498"><ele>554.75</ele><time>2026-05-02T08:10:58.999Z</time></trkpt><trkpt lat="43.982550660765604" lon="10.975226004094306"><ele>561.5</ele><time>2026-05-02T08:10:59.999Z</time></trkpt><trkpt lat="43.98266924559685" lon="10.975284699976017"><ele>568.25</ele><time>2026-05-02T08:11:00.999Z</time></trkpt><trkpt lat="43.982750544885505" lon="10.975411728638791"><ele>575.0</ele><time>2026-05-02T08:11:01.999Z</time></trkpt><trkpt lat="43.982809591053346" lon="10.975575873790518"><ele>575.0</ele><time>2026-05-02T08:11:02.999Z</time></trkpt><trkpt lat="43.982843763718094" lon="10.975775337587825"><ele>575.0</ele><time>2026-05-02T08:11:03.999Z</time></trkpt><trkpt lat="43.98286787932569" lon="10.976007660697391"><ele>575.0</ele><time>2026-05-02T08:11:04.999Z</time></trkpt><trkpt lat="43.98289561678814" lon="10.976267778142784"><ele>574.0</ele><time>2026-05-02T08:11:05.999Z</time></trkpt><trkpt lat="43.98293483654104" lon="10.976546293409475"><ele>573.0</ele><time>2026-05-02T08:11:06.999Z</time></trkpt><trkpt lat="43.98299449090199" lon="10.976816456473212"><ele>572.0</ele><time>2026-05-02T08:11:07.999Z</time></trkpt><trkpt lat="43.98306678413972" lon="10.977046164506458"><ele>572.3333333333333</ele><time>2026-05-02T08:11:08.999Z</time></trkpt><trkpt lat="43.98317569844709" lon="10.977230670146408"><ele>572.6666666666666</ele><time>2026-05-02T08:11:09.999Z</time></trkpt><trkpt lat="43.98331079148815" lon="10.977388381479887"><ele>573.0</ele><time>2026-05-02T08:11:10.999Z</time></trkpt><trkpt lat="43.9834718990185" lon="10.977520982167418"><ele>573.0</ele><time>2026-05-02T08:11:11.999Z</time></trkpt><trkpt lat="43.98363236174943" lon="10.977670112920556"><ele>573.0</ele><time>2026-05-02T08:11:12.998Z</time></trkpt><trkpt lat="43.98378021799256" lon="10.977851740485868"><ele>573.0</ele><time>2026-05-02T08:11:13.998Z</time></trkpt><trkpt lat="43.98395130486392" lon="10.978023674181717"><ele>573.0</ele><time>2026-05-02T08:11:14.998Z</time></trkpt><trkpt lat="43.984118240620624" lon="10.978228894704891"><ele>573.0</ele><time>2026-05-02T08:11:15.998Z</time></trkpt><trkpt lat="43.984289881455496" lon="10.97846357720558"><ele>582.0</ele><time>2026-05-02T08:11:16.998Z</time></trkpt><trkpt lat="43.98445026464287" lon="10.978708560313446"><ele>591.0</ele><time>2026-05-02T08:11:17.998Z</time></trkpt><trkpt lat="43.98459504883389" lon="10.978961765699973"><ele>585.0</ele><time>2026-05-02T08:11:18.998Z</time></trkpt><trkpt lat="43.98473774267526" lon="10.979210815246178"><ele>579.0</ele><time>2026-05-02T08:11:19.998Z</time></trkpt><trkpt lat="43.98488213224981" lon="10.979450687381961"><ele>589.3333333333334</ele><time>2026-05-02T08:11:20.998Z</time></trkpt><trkpt lat="43.9850152046829" lon="10.979671971829767"><ele>599.6666666666667</ele><time>2026-05-02T08:11:21.998Z</time></trkpt><trkpt lat="43.985139769808406" lon="10.979876768261786"><ele>610.0</ele><time>2026-05-02T08:11:22.998Z</time></trkpt><trkpt lat="43.98525668717882" lon="10.980068989888732"><ele>610.0</ele><time>2026-05-02T08:11:23.998Z</time></trkpt><trkpt lat="43.98536358005242" lon="10.980250524643795"><ele>610.0</ele><time>2026-05-02T08:11:24.998Z</time></trkpt><trkpt lat="43.98546701038357" lon="10.980424998901134"><ele>610.0</ele><time>2026-05-02T08:11:25.998Z</time></trkpt><trkpt lat="43.985568031535514" lon="10.980592607357679"><ele>610.0</ele><time>2026-05-02T08:11:26.998Z</time></trkpt><trkpt lat="43.98566457272825" lon="10.980767238365049"><ele>610.0</ele><time>2026-05-02T08:11:27.998Z</time></trkpt><trkpt lat="43.98574183408452" lon="10.980957503238768"><ele>610.0</ele><time>2026-05-02T08:11:28.998Z</time></trkpt><trkpt lat="43.985801025705804" lon="10.981150064005483"><ele>607.6666666666667</ele><time>2026-05-02T08:11:29.998Z</time></trkpt><trkpt lat="43.985819642695674" lon="10.981354803577615"><ele>605.3333333333334</ele><time>2026-05-02T08:11:30.998Z</time></trkpt><trkpt lat="43.985832589714725" lon="10.981562789871239"><ele>603.0</ele><time>2026-05-02T08:11:31.998Z</time></trkpt><trkpt lat="43.98582682209367" lon="10.981799442888482"><ele>602.0</ele><time>2026-05-02T08:11:32.998Z</time></trkpt><trkpt lat="43.985810393918406" lon="10.98204040744899"><ele>601.0</ele><time>2026-05-02T08:11:33.998Z</time></trkpt><trkpt lat="43.98580607817922" lon="10.982278400764988"><ele>600.0</ele><time>2026-05-02T08:11:34.998Z</time></trkpt><trkpt lat="43.985771638012466" lon="10.982489525053767"><ele>596.5</ele><time>2026-05-02T08:11:35.998Z</time></trkpt><trkpt lat="43.985757393101466" lon="10.982683523092971"><ele>593.0</ele><time>2026-05-02T08:11:36.998Z</time></trkpt><trkpt lat="43.985783700407374" lon="10.982852305142814"><ele>589.5</ele><time>2026-05-02T08:11:37.999Z</time></trkpt><trkpt lat="43.985847259557396" lon="10.98297891473078"><ele>586.0</ele><time>2026-05-02T08:11:38.999Z</time></trkpt><trkpt lat="43.98595534243405" lon="10.983066228495353"><ele>598.3333333333334</ele><time>2026-05-02T08:11:39.999Z</time></trkpt><trkpt lat="43.986095792859956" lon="10.983120757483201"><ele>610.6666666666666</ele><time>2026-05-02T08:11:40.999Z</time></trkpt><trkpt lat="43.986252734246776" lon="10.983154176520932"><ele>623.0</ele><time>2026-05-02T08:11:41.999Z</time></trkpt><trkpt lat="43.986422580965915" lon="10.983174080357582"><ele>623.0</ele><time>2026-05-02T08:11:42.999Z</time></trkpt><trkpt lat="43.9865604188897" lon="10.983225888106418"><ele>623.0</ele><time>2026-05-02T08:11:43.999Z</time></trkpt><trkpt lat="43.98668590743217" lon="10.98326175240481"><ele>623.0</ele><time>2026-05-02T08:11:44.999Z</time></trkpt><trkpt lat="43.986783249920656" lon="10.983346711195116"><ele>623.0</ele><time>2026-05-02T08:11:45.999Z</time></trkpt><trkpt lat="43.98685286831841" lon="10.983460199052619"><ele>631.75</ele><time>2026-05-02T08:11:46.999Z</time></trkpt><trkpt lat="43.98688625953274" lon="10.983614042353492"><ele>640.5</ele><time>2026-05-02T08:11:47.999Z</time></trkpt><trkpt lat="43.986891144837045" lon="10.983797451343808"><ele>649.25</ele><time>2026-05-02T08:11:48.999Z</time></trkpt><trkpt lat="43.986884028349124" lon="10.984003561936838"><ele>658.0</ele><time>2026-05-02T08:11:49.999Z</time></trkpt><trkpt lat="43.98688621608781" lon="10.984225663112163"><ele>658.6666666666667</ele><time>2026-05-02T08:11:50.999Z</time></trkpt><trkpt lat="43.98682463510046" lon="10.984450632810885"><ele>659.3333333333334</ele><time>2026-05-02T08:11:51.999Z</time></trkpt><trkpt lat="43.986752176813525" lon="10.98464832698231"><ele>660.0</ele><time>2026-05-02T08:11:52.999Z</time></trkpt><trkpt lat="43.986720739566586" lon="10.98486144303497"><ele>658.6666666666666</ele><time>2026-05-02T08:11:53.999Z</time></trkpt><trkpt lat="43.98672464835773" lon="10.985076643762783"><ele>657.3333333333333</ele><time>2026-05-02T08:11:54.999Z</time></trkpt><trkpt lat="43.986775280093674" lon="10.98529448621713"><ele>656.0</ele><time>2026-05-02T08:11:55.999Z</time></trkpt><trkpt lat="43.98684966648666" lon="10.985515090836884"><ele>656.0</ele><time>2026-05-02T08:11:56.999Z</time></trkpt><trkpt lat="43.98692726833569" lon="10.985750490918493"><ele>656.0</ele><time>2026-05-02T08:11:57.999Z</time></trkpt><trkpt lat="43.98700970820381" lon="10.985989864013431"><ele>656.0</ele><time>2026-05-02T08:11:58.999Z</time></trkpt><trkpt lat="43.98710297536586" lon="10.986223354525233"><ele>650.3333333333333</ele><time>2026-05-02T08:11:59.999Z</time></trkpt><trkpt lat="43.98721822551732" lon="10.986429069105975"><ele>644.6666666666666</ele><time>2026-05-02T08:12:00.999Z</time></trkpt><trkpt lat="43.987364954973636" lon="10.986591514024058"><ele>639.0</ele><time>2026-05-02T08:12:01.999Z</time></trkpt><trkpt lat="43.987537810198425" lon="10.98671239987111"><ele>637.6666666666666</ele><time>2026-05-02T08:12:02.999Z</time></trkpt><trkpt lat="43.98772071467179" lon="10.986818712519852"><ele>636.3333333333333</ele><time>2026-05-02T08:12:03.999Z</time></trkpt><trkpt lat="43.98790533840902" lon="10.986924858560279"><ele>635.0</ele><time>2026-05-02T08:12:04.999Z</time></trkpt><trkpt lat="43.98806884041825" lon="10.987022797259742"><ele>635.0</ele><time>2026-05-02T08:12:05.999Z</time></trkpt><trkpt lat="43.98822157510561" lon="10.987099612462481"><ele>635.0</ele><time>2026-05-02T08:12:06.999Z</time></trkpt><trkpt lat="43.98837545894193" lon="10.98714452790386"><ele>635.0</ele><time>2026-05-02T08:12:07.999Z</time></trkpt><trkpt lat="43.988535281386326" lon="10.987152282699851"><ele>637.0</ele><time>2026-05-02T08:12:08.999Z</time></trkpt><trkpt lat="43.98868708247663" lon="10.987146384670027"><ele>639.0</ele><time>2026-05-02T08:12:09.999Z</time></trkpt><trkpt lat="43.98881562918567" lon="10.987110441521613"><ele>641.0</ele><time>2026-05-02T08:12:10.999Z</time></trkpt><trkpt lat="43.988921818210876" lon="10.987036016099253"><ele>643.0</ele><time>2026-05-02T08:12:11.999Z</time></trkpt><trkpt lat="43.98899882832692" lon="10.986936122326586"><ele>643.0</ele><time>2026-05-02T08:12:12.999Z</time></trkpt><trkpt lat="43.98904284076447" lon="10.986795264880268"><ele>643.0</ele><time>2026-05-02T08:12:13.999Z</time></trkpt><trkpt lat="43.98906466706771" lon="10.986637403661767"><ele>643.0</ele><time>2026-05-02T08:12:14.999Z</time></trkpt><trkpt lat="43.98912366761761" lon="10.986520291973513"><ele>643.0</ele><time>2026-05-02T08:12:15.999Z</time></trkpt><trkpt lat="43.98921110116076" lon="10.986452145129771"><ele>643.0</ele><time>2026-05-02T08:12:16.999Z</time></trkpt><trkpt lat="43.98931727497171" lon="10.986437924250827"><ele>648.5</ele><time>2026-05-02T08:12:17.999Z</time></trkpt><trkpt lat="43.98943268924557" lon="10.986468348379406"><ele>654.0</ele><time>2026-05-02T08:12:18.999Z</time></trkpt><trkpt lat="43.98955554867409" lon="10.986523080378703"><ele>659.5</ele><time>2026-05-02T08:12:19.999Z</time></trkpt><trkpt lat="43.98967024738776" lon="10.986620436862012"><ele>665.0</ele><time>2026-05-02T08:12:20.999Z</time></trkpt><trkpt lat="43.98978309404884" lon="10.986780456166288"><ele>665.0</ele><time>2026-05-02T08:12:21.999Z</time></trkpt><trkpt lat="43.98990327578157" lon="10.986967560424025"><ele>665.0</ele><time>2026-05-02T08:12:22.999Z</time></trkpt><trkpt lat="43.990028711088634" lon="10.987154098885902"><ele>665.0</ele><time>2026-05-02T08:12:23.999Z</time></trkpt><trkpt lat="43.99015158830888" lon="10.987332159660653"><ele>676.0</ele><time>2026-05-02T08:12:24.999Z</time></trkpt><trkpt lat="43.99025593676597" lon="10.987512211106077"><ele>687.0</ele><time>2026-05-02T08:12:25.999Z</time></trkpt><trkpt lat="43.99032687229913" lon="10.987685376790909"><ele>698.0</ele><time>2026-05-02T08:12:26.999Z</time></trkpt><trkpt lat="43.99037644677516" lon="10.987877320510693"><ele>698.0</ele><time>2026-05-02T08:12:27.999Z</time></trkpt><trkpt lat="43.99039415912019" lon="10.988087025892792"><ele>698.0</ele><time>2026-05-02T08:12:28.999Z</time></trkpt><trkpt lat="43.990389395031045" lon="10.988320280007459"><ele>698.0</ele><time>2026-05-02T08:12:29.999Z</time></trkpt><trkpt lat="43.990388036899645" lon="10.988576126866317"><ele>698.0</ele><time>2026-05-02T08:12:30.999Z</time></trkpt><trkpt lat="43.990391580727604" lon="10.98884357569171"><ele>698.0</ele><time>2026-05-02T08:12:31.999Z</time></trkpt><trkpt lat="43.99039929428875" lon="10.989091895247274"><ele>698.0</ele><time>2026-05-02T08:12:32.999Z</time></trkpt><trkpt lat="43.99043022869474" lon="10.989307156921864"><ele>693.0</ele><time>2026-05-02T08:12:33.999Z</time></trkpt><trkpt lat="43.990488334021286" lon="10.989512187233023"><ele>688.0</ele><time>2026-05-02T08:12:34.999Z</time></trkpt><trkpt lat="43.99058089911566" lon="10.989704884676"><ele>683.0</ele><time>2026-05-02T08:12:35.999Z</time></trkpt><trkpt lat="43.99070806544263" lon="10.98987010918026"><ele>693.6666666666666</ele><time>2026-05-02T08:12:36.999Z</time></trkpt><trkpt lat="43.99085810292523" lon="10.990020980297269"><ele>704.3333333333334</ele><time>2026-05-02T08:12:37.999Z</time></trkpt><trkpt lat="43.99098549342255" lon="10.99019901633977"><ele>715.0</ele><time>2026-05-02T08:12:38.999Z</time></trkpt><trkpt lat="43.99109739314387" lon="10.990368236942691"><ele>715.0</ele><time>2026-05-02T08:12:39.999Z</time></trkpt><trkpt lat="43.991168925083024" lon="10.990572263066316"><ele>715.0</ele><time>2026-05-02T08:12:40.999Z</time></trkpt><trkpt lat="43.99122142042279" lon="10.990800406012534"><ele>715.0</ele><time>2026-05-02T08:12:41.999Z</time></trkpt><trkpt lat="43.99126853367375" lon="10.99101988363638"><ele>714.0</ele><time>2026-05-02T08:12:42.999Z</time></trkpt><trkpt lat="43.99130616161009" lon="10.991211841667829"><ele>713.0</ele><time>2026-05-02T08:12:43.999Z</time></trkpt><trkpt lat="43.99132896506711" lon="10.991374903783525"><ele>712.0</ele><time>2026-05-02T08:12:44.999Z</time></trkpt><trkpt lat="43.991323829665106" lon="10.99152277459306"><ele>711.0</ele><time>2026-05-02T08:12:45.999Z</time></trkpt><trkpt lat="43.99125615007083" lon="10.9916397618311"><ele>714.5</ele><time>2026-05-02T08:12:46.999Z</time></trkpt><trkpt lat="43.99117104412946" lon="10.991723053082"><ele>718.0</ele><time>2026-05-02T08:12:47.999Z</time></trkpt><trkpt lat="43.991075650713704" lon="10.991798164773247"><ele>721.5</ele><time>2026-05-02T08:12:48.999Z</time></trkpt><trkpt lat="43.99098009494566" lon="10.991895044552042"><ele>725.0</ele><time>2026-05-02T08:12:49.999Z</time></trkpt><trkpt lat="43.99088523088724" lon="10.992002872997983"><ele>720.25</ele><time>2026-05-02T08:12:50.999Z</time></trkpt><trkpt lat="43.99080655812386" lon="10.992127397338326"><ele>715.5</ele><time>2026-05-02T08:12:51.999Z</time></trkpt><trkpt lat="43.99074051154125" lon="10.992260215964256"><ele>710.75</ele><time>2026-05-02T08:12:52.999Z</time></trkpt><trkpt lat="43.9906850916828" lon="10.992410478510049"><ele>706.0</ele><time>2026-05-02T08:12:53.999Z</time></trkpt><trkpt lat="43.99064396566717" lon="10.99257474854085"><ele>706.0</ele><time>2026-05-02T08:12:54.999Z</time></trkpt><trkpt lat="43.99061371269178" lon="10.992748617294573"><ele>706.0</ele><time>2026-05-02T08:12:55.999Z</time></trkpt><trkpt lat="43.99059312809807" lon="10.992926392237734"><ele>706.0</ele><time>2026-05-02T08:12:56.999Z</time></trkpt><trkpt lat="43.99057794008728" lon="10.99310026241224"><ele>706.0</ele><time>2026-05-02T08:12:57.999Z</time></trkpt><trkpt lat="43.99056969453517" lon="10.993261184278124"><ele>706.75</ele><time>2026-05-02T08:12:58.999Z</time></trkpt><trkpt lat="43.99056633677014" lon="10.993422603916105"><ele>707.5</ele><time>2026-05-02T08:12:59.999Z</time></trkpt><trkpt lat="43.9905678696106" lon="10.99358459541962"><ele>708.25</ele><time>2026-05-02T08:13:00.999Z</time></trkpt><trkpt lat="43.990584192347555" lon="10.993769219833347"><ele>709.0</ele><time>2026-05-02T08:13:01.999Z</time></trkpt><trkpt lat="43.990601825203285" lon="10.994003089635312"><ele>708.3333333333334</ele><time>2026-05-02T08:13:02.999Z</time></trkpt><trkpt lat="43.99064986058287" lon="10.994265331784263"><ele>707.6666666666666</ele><time>2026-05-02T08:13:03.999Z</time></trkpt><trkpt lat="43.9906877044743" lon="10.994530413997035"><ele>707.0</ele><time>2026-05-02T08:13:04.999Z</time></trkpt><trkpt lat="43.99072285536284" lon="10.994787688067976"><ele>708.3333333333333</ele><time>2026-05-02T08:13:05.999Z</time></trkpt><trkpt lat="43.99075012091693" lon="10.995022286144666"><ele>709.6666666666666</ele><time>2026-05-02T08:13:06.999Z</time></trkpt><trkpt lat="43.990804452730565" lon="10.995225503612303"><ele>711.0</ele><time>2026-05-02T08:13:07.999Z</time></trkpt><trkpt lat="43.99087392234143" lon="10.995394237758909"><ele>715.8</ele><time>2026-05-02T08:13:08.999Z</time></trkpt><trkpt lat="43.99093902382173" lon="10.995543768255295"><ele>720.5999999999999</ele><time>2026-05-02T08:13:09.999Z</time></trkpt><trkpt lat="43.99097365952966" lon="10.995687022519107"><ele>725.4</ele><time>2026-05-02T08:13:10.999Z</time></trkpt><trkpt lat="43.990961117447746" lon="10.995826341766131"><ele>730.2</ele><time>2026-05-02T08:13:11.999Z</time></trkpt><trkpt lat="43.990911643934645" lon="10.995959123955268"><ele>735.0</ele><time>2026-05-02T08:13:12.999Z</time></trkpt><trkpt lat="43.99082434491343" lon="10.996045020334039"><ele>735.0</ele><time>2026-05-02T08:13:13.999Z</time></trkpt><trkpt lat="43.99070526835001" lon="10.996065741809103"><ele>735.0</ele><time>2026-05-02T08:13:14.999Z</time></trkpt><trkpt lat="43.99055867128418" lon="10.996062150268363"><ele>735.0</ele><time>2026-05-02T08:13:15.999Z</time></trkpt><trkpt lat="43.99037708392131" lon="10.996026763430892"><ele>735.0</ele><time>2026-05-02T08:13:16.999Z</time></trkpt><trkpt lat="43.99015701484801" lon="10.995959746589213"><ele>735.0</ele><time>2026-05-02T08:13:17.999Z</time></trkpt><trkpt lat="43.98989691648887" lon="10.995905887500014"><ele>722.0</ele><time>2026-05-02T08:13:18.999Z</time></trkpt><trkpt lat="43.98963947558281" lon="10.99583229622365"><ele>709.0</ele><time>2026-05-02T08:13:19.999Z</time></trkpt><trkpt lat="43.98938056340571" lon="10.995759451048109"><ele>709.0</ele><time>2026-05-02T08:13:20.999Z</time></trkpt><trkpt lat="43.98917577076824" lon="10.995717973364544"><ele>709.0</ele><time>2026-05-02T08:13:21.999Z</time></trkpt><trkpt lat="43.98898034163783" lon="10.995681986146293"><ele>709.0</ele><time>2026-05-02T08:13:22.999Z</time></trkpt><trkpt lat="43.988797736973204" lon="10.99565134786393"><ele>713.3333333333334</ele><time>2026-05-02T08:13:23.998Z</time></trkpt><trkpt lat="43.98861371446362" lon="10.995628904412097"><ele>717.6666666666666</ele><time>2026-05-02T08:13:24.998Z</time></trkpt><trkpt lat="43.988442968012095" lon="10.99552609350627"><ele>722.0</ele><time>2026-05-02T08:13:25.998Z</time></trkpt><trkpt lat="43.98826891415483" lon="10.9954350461923"><ele>723.6666666666666</ele><time>2026-05-02T08:13:26.998Z</time></trkpt><trkpt lat="43.988092035971235" lon="10.99534462026299"><ele>725.3333333333334</ele><time>2026-05-02T08:13:27.998Z</time></trkpt><trkpt lat="43.987911717077836" lon="10.995246446447398"><ele>727.0</ele><time>2026-05-02T08:13:28.998Z</time></trkpt><trkpt lat="43.98773958355708" lon="10.995132269739443"><ele>727.0</ele><time>2026-05-02T08:13:29.998Z</time></trkpt><trkpt lat="43.98757499835052" lon="10.995018727751429"><ele>727.0</ele><time>2026-05-02T08:13:30.998Z</time></trkpt><trkpt lat="43.98743741050444" lon="10.99492372648008"><ele>727.0</ele><time>2026-05-02T08:13:31.998Z</time></trkpt><trkpt lat="43.987297593028856" lon="10.994870368516176"><ele>725.8</ele><time>2026-05-02T08:13:32.998Z</time></trkpt><trkpt lat="43.98717635721184" lon="10.994906773046086"><ele>724.6</ele><time>2026-05-02T08:13:33.998Z</time></trkpt><trkpt lat="43.98708734915002" lon="10.99501098243336"><ele>723.4</ele><time>2026-05-02T08:13:34.998Z</time></trkpt><trkpt lat="43.9870192538818" lon="10.99513162675115"><ele>722.1999999999999</ele><time>2026-05-02T08:13:35.998Z</time></trkpt><trkpt lat="43.986983430921605" lon="10.995248773079986"><ele>721.0</ele><time>2026-05-02T08:13:36.998Z</time></trkpt><trkpt lat="43.98702391010652" lon="10.995385467603061"><ele>728.25</ele><time>2026-05-02T08:13:37.998Z</time></trkpt><trkpt lat="43.98709020866203" lon="10.99550366911172"><ele>735.5</ele><time>2026-05-02T08:13:38.998Z</time></trkpt><trkpt lat="43.98719639824212" lon="10.995598736644244"><ele>742.75</ele><time>2026-05-02T08:13:39.998Z</time></trkpt><trkpt lat="43.98733526556825" lon="10.995659405541792"><ele>750.0</ele><time>2026-05-02T08:13:40.998Z</time></trkpt><trkpt lat="43.98750464533966" lon="10.99569044816278"><ele>751.3333333333334</ele><time>2026-05-02T08:13:41.998Z</time></trkpt><trkpt lat="43.98768534167012" lon="10.995737971972627"><ele>752.6666666666667</ele><time>2026-05-02T08:13:42.998Z</time></trkpt><trkpt lat="43.98783406467409" lon="10.995796561986825"><ele>754.0</ele><time>2026-05-02T08:13:43.999Z</time></trkpt><trkpt lat="43.98797070482563" lon="10.99587814719937"><ele>754.0</ele><time>2026-05-02T08:13:44.999Z</time></trkpt><trkpt lat="43.988100500238374" lon="10.996003749664371"><ele>754.0</ele><time>2026-05-02T08:13:45.999Z</time></trkpt><trkpt lat="43.98820899295466" lon="10.996162046952644"><ele>754.0</ele><time>2026-05-02T08:13:46.999Z</time></trkpt><trkpt lat="43.98829096371645" lon="10.99636582347046"><ele>755.6666666666667</ele><time>2026-05-02T08:13:47.999Z</time></trkpt><trkpt lat="43.988373576323426" lon="10.996586624992863"><ele>757.3333333333334</ele><time>2026-05-02T08:13:48.999Z</time></trkpt><trkpt lat="43.98845008314834" lon="10.996815137417657"><ele>759.0</ele><time>2026-05-02T08:13:49.999Z</time></trkpt><trkpt lat="43.98852476813897" lon="10.997013819759694"><ele>759.0</ele><time>2026-05-02T08:13:50.999Z</time></trkpt><trkpt lat="43.98860298940364" lon="10.997179529788061"><ele>759.0</ele><time>2026-05-02T08:13:51.999Z</time></trkpt><trkpt lat="43.98868761352743" lon="10.99731545027526"><ele>759.0</ele><time>2026-05-02T08:13:52.999Z</time></trkpt><trkpt lat="43.98878003260664" lon="10.997412130047923"><ele>759.0</ele><time>2026-05-02T08:13:53.999Z</time></trkpt><trkpt lat="43.988899237856806" lon="10.997471324613779"><ele>759.0</ele><time>2026-05-02T08:13:54.999Z</time></trkpt><trkpt lat="43.98906364869647" lon="10.997486281641715"><ele>759.0</ele><time>2026-05-02T08:13:55.999Z</time></trkpt><trkpt lat="43.98924376983114" lon="10.997481236246902"><ele>759.0</ele><time>2026-05-02T08:13:56.999Z</time></trkpt><trkpt lat="43.98944633859693" lon="10.997466605618948"><ele>760.0</ele><time>2026-05-02T08:13:57.999Z</time></trkpt><trkpt lat="43.98966604016049" lon="10.997433291956561"><ele>761.0</ele><time>2026-05-02T08:13:58.999Z</time></trkpt><trkpt lat="43.98986909814515" lon="10.997396026545914"><ele>762.0</ele><time>2026-05-02T08:13:59.999Z</time></trkpt><trkpt lat="43.99004083918097" lon="10.997372162718202"><ele>762.5</ele><time>2026-05-02T08:14:00.999Z</time></trkpt><trkpt lat="43.99018157243897" lon="10.997361824456375"><ele>763.0</ele><time>2026-05-02T08:14:01.999Z</time></trkpt><trkpt lat="43.990301624092304" lon="10.99738650723741"><ele>763.5</ele><time>2026-05-02T08:14:02.999Z</time></trkpt><trkpt lat="43.99040428847416" lon="10.997468709936575"><ele>764.0</ele><time>2026-05-02T08:14:03.999Z</time></trkpt><trkpt lat="43.99047877792918" lon="10.997578842844963"><ele>769.6</ele><time>2026-05-02T08:14:04.999Z</time></trkpt><trkpt lat="43.99050037306406" lon="10.99771603821899"><ele>775.2</ele><time>2026-05-02T08:14:05.999Z</time></trkpt><trkpt lat="43.99045241374929" lon="10.99785196914643"><ele>780.8000000000001</ele><time>2026-05-02T08:14:06.999Z</time></trkpt><trkpt lat="43.99038224207371" lon="10.99795126319864"><ele>786.4000000000001</ele><time>2026-05-02T08:14:07.999Z</time></trkpt><trkpt lat="43.99028824737652" lon="10.998000882124622"><ele>792.0</ele><time>2026-05-02T08:14:08.999Z</time></trkpt><trkpt lat="43.99016141484473" lon="10.9980075105121"><ele>788.6666666666667</ele><time>2026-05-02T08:14:09.999Z</time></trkpt><trkpt lat="43.99000166607026" lon="10.998011378388101"><ele>785.3333333333334</ele><time>2026-05-02T08:14:10.999Z</time></trkpt><trkpt lat="43.98982460861344" lon="10.99804947586837"><ele>782.0</ele><time>2026-05-02T08:14:11.999Z</time></trkpt><trkpt lat="43.989624684569954" lon="10.998099283658886"><ele>782.0</ele><time>2026-05-02T08:14:12.999Z</time></trkpt><trkpt lat="43.98941832360733" lon="10.998180825434261"><ele>782.0</ele><time>2026-05-02T08:14:13.999Z</time></trkpt><trkpt lat="43.9892248857135" lon="10.998222003423901"><ele>782.0</ele><time>2026-05-02T08:14:14.999Z</time></trkpt><trkpt lat="43.98905610186657" lon="10.998271884302666"><ele>781.6666666666667</ele><time>2026-05-02T08:14:15.999Z</time></trkpt><trkpt lat="43.98889570695564" lon="10.998298583125557"><ele>781.3333333333333</ele><time>2026-05-02T08:14:16.999Z</time></trkpt><trkpt lat="43.98875239906143" lon="10.998208517497101"><ele>781.0</ele><time>2026-05-02T08:14:17.999Z</time></trkpt><trkpt lat="43.988600057940175" lon="10.998114182691731"><ele>781.0</ele><time>2026-05-02T08:14:18.999Z</time></trkpt><trkpt lat="43.988472176159085" lon="10.997965877608646"><ele>781.0</ele><time>2026-05-02T08:14:19.999Z</time></trkpt><trkpt lat="43.988366982790104" lon="10.997768636519679"><ele>781.0</ele><time>2026-05-02T08:14:20.999Z</time></trkpt><trkpt lat="43.988283433824286" lon="10.9975531716568"><ele>780.0</ele><time>2026-05-02T08:14:21.999Z</time></trkpt><trkpt lat="43.988189862939635" lon="10.997365099870317"><ele>779.0</ele><time>2026-05-02T08:14:22.999Z</time></trkpt><trkpt lat="43.98806528115194" lon="10.997210229391918"><ele>778.0</ele><time>2026-05-02T08:14:23.999Z</time></trkpt><trkpt lat="43.987927484762736" lon="10.997078116772421"><ele>778.0</ele><time>2026-05-02T08:14:24.999Z</time></trkpt><trkpt lat="43.98777439467486" lon="10.997004431669708"><ele>778.0</ele><time>2026-05-02T08:14:25.999Z</time></trkpt><trkpt lat="43.98759989822454" lon="10.996982056996943"><ele>778.0</ele><time>2026-05-02T08:14:26.999Z</time></trkpt><trkpt lat="43.98741685553354" lon="10.996984297639864"><ele>782.75</ele><time>2026-05-02T08:14:27.999Z</time></trkpt><trkpt lat="43.98724815034393" lon="10.996987824886507"><ele>787.5</ele><time>2026-05-02T08:14:28.999Z</time></trkpt><trkpt lat="43.98710538648227" lon="10.997006451425445"><ele>792.25</ele><time>2026-05-02T08:14:29.999Z</time></trkpt><trkpt lat="43.98698682678551" lon="10.997057644378827"><ele>797.0</ele><time>2026-05-02T08:14:30.999Z</time></trkpt><trkpt lat="43.98689424371956" lon="10.997153474597928"><ele>797.0</ele><time>2026-05-02T08:14:31.999Z</time></trkpt><trkpt lat="43.98683065399698" lon="10.997291617447349"><ele>797.0</ele><time>2026-05-02T08:14:32.999Z</time></trkpt><trkpt lat="43.98681592386262" lon="10.997467402308901"><ele>797.0</ele><time>2026-05-02T08:14:33.999Z</time></trkpt><trkpt lat="43.986842267195" lon="10.997660588448833"><ele>797.0</ele><time>2026-05-02T08:14:34.999Z</time></trkpt><trkpt lat="43.986896567207204" lon="10.997881555022023"><ele>802.0</ele><time>2026-05-02T08:14:35.999Z</time></trkpt><trkpt lat="43.986931003497425" lon="10.998137540764931"><ele>807.0</ele><time>2026-05-02T08:14:36.999Z</time></trkpt><trkpt lat="43.986949958677734" lon="10.99843076802238"><ele>812.0</ele><time>2026-05-02T08:14:37.999Z</time></trkpt><trkpt lat="43.9869606760955" lon="10.998751140274843"><ele>816.3333333333334</ele><time>2026-05-02T08:14:38.999Z</time></trkpt><trkpt lat="43.98694737212877" lon="10.99903820244693"><ele>820.6666666666667</ele><time>2026-05-02T08:14:39.999Z</time></trkpt><trkpt lat="43.986946125107714" lon="10.99928595611343"><ele>825.0</ele><time>2026-05-02T08:14:40.999Z</time></trkpt><trkpt lat="43.98693776706916" lon="10.999510164960173"><ele>823.25</ele><time>2026-05-02T08:14:41.999Z</time></trkpt><trkpt lat="43.98691579838947" lon="10.999709923263675"><ele>821.5</ele><time>2026-05-02T08:14:42.999Z</time></trkpt><trkpt lat="43.986839656397095" lon="10.999849752258866"><ele>819.75</ele><time>2026-05-02T08:14:43.999Z</time></trkpt><trkpt lat="43.98674767827865" lon="10.999943390239503"><ele>818.0</ele><time>2026-05-02T08:14:44.999Z</time></trkpt><trkpt lat="43.98664996729797" lon="10.999925232851787"><ele>818.0</ele><time>2026-05-02T08:14:45.999Z</time></trkpt><trkpt lat="43.98657853826054" lon="10.999865656601012"><ele>818.0</ele><time>2026-05-02T08:14:46.999Z</time></trkpt><trkpt lat="43.986503315269324" lon="10.999762778893201"><ele>818.0</ele><time>2026-05-02T08:14:47.999Z</time></trkpt><trkpt lat="43.9863965470529" lon="10.999653971049314"><ele>818.0</ele><time>2026-05-02T08:14:48.999Z</time></trkpt><trkpt lat="43.98625957793387" lon="10.999565171820459"><ele>818.0</ele><time>2026-05-02T08:14:49.999Z</time></trkpt><trkpt lat="43.986116780628535" lon="10.999470661105496"><ele>818.0</ele><time>2026-05-02T08:14:50.999Z</time></trkpt><trkpt lat="43.985989496905646" lon="10.999402978700799"><ele>818.0</ele><time>2026-05-02T08:14:51.999Z</time></trkpt><trkpt lat="43.985870346546534" lon="10.999366342623896"><ele>818.0</ele><time>2026-05-02T08:14:52.999Z</time></trkpt><trkpt lat="43.98575222589522" lon="10.999422550270927"><ele>818.3333333333334</ele><time>2026-05-02T08:14:53.999Z</time></trkpt><trkpt lat="43.98564217159818" lon="10.999548522744558"><ele>818.6666666666667</ele><time>2026-05-02T08:14:54.999Z</time></trkpt><trkpt lat="43.985517576807005" lon="10.999681663246692"><ele>819.0</ele><time>2026-05-02T08:14:55.999Z</time></trkpt><trkpt lat="43.98538859313002" lon="10.999838639095476"><ele>819.0</ele><time>2026-05-02T08:14:56.999Z</time></trkpt><trkpt lat="43.985264871907134" lon="11.000019589238072"><ele>819.0</ele><time>2026-05-02T08:14:57.999Z</time></trkpt><trkpt lat="43.98516960627497" lon="11.000186361014704"><ele>819.0</ele><time>2026-05-02T08:14:58.999Z</time></trkpt><trkpt lat="43.98507932319325" lon="11.000332704380513"><ele>815.6666666666667</ele><time>2026-05-02T08:14:59.999Z</time></trkpt><trkpt lat="43.98493064047167" lon="11.000375352449248"><ele>812.3333333333334</ele><time>2026-05-02T08:15:00.999Z</time></trkpt><trkpt lat="43.98476273138231" lon="11.000387711668573"><ele>809.0</ele><time>2026-05-02T08:15:01.999Z</time></trkpt><trkpt lat="43.984575101545566" lon="11.000437885662885"><ele>809.0</ele><time>2026-05-02T08:15:02.999Z</time></trkpt><trkpt lat="43.984365559352284" lon="11.000495170911748"><ele>809.0</ele><time>2026-05-02T08:15:03.999Z</time></trkpt><trkpt lat="43.98414511617712" lon="11.000582089956229"><ele>809.0</ele><time>2026-05-02T08:15:04.999Z</time></trkpt><trkpt lat="43.98391397054216" lon="11.000689289895774"><ele>805.0</ele><time>2026-05-02T08:15:05.999Z</time></trkpt><trkpt lat="43.983673681986296" lon="11.000800413502674"><ele>801.0</ele><time>2026-05-02T08:15:06.999Z</time></trkpt><trkpt lat="43.98342756552659" lon="11.000919517263616"><ele>809.5</ele><time>2026-05-02T08:15:07.999Z</time></trkpt><trkpt lat="43.98319790376517" lon="11.001034998319636"><ele>818.0</ele><time>2026-05-02T08:15:08.999Z</time></trkpt><trkpt lat="43.98299194983175" lon="11.00114457667153"><ele>818.0</ele><time>2026-05-02T08:15:09.999Z</time></trkpt><trkpt lat="43.982812026900476" lon="11.001247650856302"><ele>818.0</ele><time>2026-05-02T08:15:10.999Z</time></trkpt><trkpt lat="43.982648505472234" lon="11.001367429474637"><ele>818.0</ele><time>2026-05-02T08:15:11.999Z</time></trkpt><trkpt lat="43.982491509139344" lon="11.001533536426546"><ele>822.6666666666667</ele><time>2026-05-02T08:15:12.999Z</time></trkpt><trkpt lat="43.98234160274686" lon="11.001731103529398"><ele>827.3333333333333</ele><time>2026-05-02T08:15:13.999Z</time></trkpt><trkpt lat="43.9821908476493" lon="11.001940550910403"><ele>832.0</ele><time>2026-05-02T08:15:14.999Z</time></trkpt><trkpt lat="43.98202954146796" lon="11.00215955801635"><ele>832.0</ele><time>2026-05-02T08:15:15.999Z</time></trkpt><trkpt lat="43.98186237946883" lon="11.002402052693881"><ele>832.0</ele><time>2026-05-02T08:15:16.999Z</time></trkpt><trkpt lat="43.98168564140268" lon="11.002673807011751"><ele>832.5</ele><time>2026-05-02T08:15:17.999Z</time></trkpt><trkpt lat="43.98154948679185" lon="11.002996897766723"><ele>833.0</ele><time>2026-05-02T08:15:18.999Z</time></trkpt><trkpt lat="43.98137533631587" lon="11.003260138881659"><ele>841.0</ele><time>2026-05-02T08:15:19.999Z</time></trkpt><trkpt lat="43.981193073925766" lon="11.00349590476721"><ele>849.0</ele><time>2026-05-02T08:15:20.999Z</time></trkpt><trkpt lat="43.98102321931874" lon="11.003743946337122"><ele>849.0</ele><time>2026-05-02T08:15:21.999Z</time></trkpt><trkpt lat="43.98088876411933" lon="11.004042247163644"><ele>849.0</ele><time>2026-05-02T08:15:22.999Z</time></trkpt><trkpt lat="43.980746646018915" lon="11.004327282439496"><ele>847.5</ele><time>2026-05-02T08:15:23.999Z</time></trkpt><trkpt lat="43.980594248518344" lon="11.00459880153177"><ele>846.0</ele><time>2026-05-02T08:15:24.999Z</time></trkpt><trkpt lat="43.98047318063197" lon="11.004887262582908"><ele>848.6666666666667</ele><time>2026-05-02T08:15:25.999Z</time></trkpt><trkpt lat="43.98034548036374" lon="11.005148548282136"><ele>851.3333333333334</ele><time>2026-05-02T08:15:26.999Z</time></trkpt><trkpt lat="43.980232824625475" lon="11.005379669422917"><ele>854.0</ele><time>2026-05-02T08:15:27.999Z</time></trkpt><trkpt lat="43.98013638856929" lon="11.005574845714381"><ele>854.0</ele><time>2026-05-02T08:15:28.999Z</time></trkpt><trkpt lat="43.980057789752955" lon="11.005759523029905"><ele>854.0</ele><time>2026-05-02T08:15:29.999Z</time></trkpt><trkpt lat="43.98002027430954" lon="11.005950092573675"><ele>854.0</ele><time>2026-05-02T08:15:30.999Z</time></trkpt><trkpt lat="43.98003872444525" lon="11.00613477930333"><ele>854.0</ele><time>2026-05-02T08:15:31.999Z</time></trkpt><trkpt lat="43.98010966374032" lon="11.00629888715163"><ele>855.6666666666667</ele><time>2026-05-02T08:15:32.999Z</time></trkpt><trkpt lat="43.98022744751201" lon="11.006456846119162"><ele>857.3333333333333</ele><time>2026-05-02T08:15:33.998Z</time></trkpt><trkpt lat="43.980352408723206" lon="11.00662725300586"><ele>859.0</ele><time>2026-05-02T08:15:34.998Z</time></trkpt><trkpt lat="43.980495412892736" lon="11.006804286650018"><ele>860.3333333333333</ele><time>2026-05-02T08:15:35.998Z</time></trkpt><trkpt lat="43.98066090867753" lon="11.006976460202111"><ele>861.6666666666667</ele><time>2026-05-02T08:15:36.998Z</time></trkpt><trkpt lat="43.98084717343781" lon="11.007144672906596"><ele>863.0</ele><time>2026-05-02T08:15:37.998Z</time></trkpt><trkpt lat="43.98104534320505" lon="11.007318495389923"><ele>870.5</ele><time>2026-05-02T08:15:38.998Z</time></trkpt><trkpt lat="43.98124700669579" lon="11.007498158846069"><ele>878.0</ele><time>2026-05-02T08:15:39.998Z</time></trkpt><trkpt lat="43.98145359012268" lon="11.007684975304958"><ele>878.0</ele><time>2026-05-02T08:15:40.998Z</time></trkpt><trkpt lat="43.98165594876549" lon="11.00786517213217"><ele>878.0</ele><time>2026-05-02T08:15:41.998Z</time></trkpt><trkpt lat="43.981859632454494" lon="11.008037804403518"><ele>880.5</ele><time>2026-05-02T08:15:42.998Z</time></trkpt><trkpt lat="43.98206240151025" lon="11.00820753112666"><ele>883.0</ele><time>2026-05-02T08:15:43.998Z</time></trkpt><trkpt lat="43.98226723624406" lon="11.00836253491569"><ele>883.0</ele><time>2026-05-02T08:15:44.998Z</time></trkpt><trkpt lat="43.982478105821684" lon="11.008503136632477"><ele>883.0</ele><time>2026-05-02T08:15:45.998Z</time></trkpt><trkpt lat="43.982699573955806" lon="11.008637372544197"><ele>896.0</ele><time>2026-05-02T08:15:46.998Z</time></trkpt><trkpt lat="43.98291853289372" lon="11.008775084174037"><ele>909.0</ele><time>2026-05-02T08:15:47.998Z</time></trkpt><trkpt lat="43.98313762296976" lon="11.0089147281257"><ele>909.0</ele><time>2026-05-02T08:15:48.998Z</time></trkpt><trkpt lat="43.98334334047175" lon="11.009044163242995"><ele>909.0</ele><time>2026-05-02T08:15:49.999Z</time></trkpt><trkpt lat="43.9835288828714" lon="11.009178493566088"><ele>909.0</ele><time>2026-05-02T08:15:50.999Z</time></trkpt><trkpt lat="43.983703604222356" lon="11.00934745661874"><ele>910.0</ele><time>2026-05-02T08:15:51.999Z</time></trkpt><trkpt lat="43.98386723342333" lon="11.00954570861246"><ele>911.0</ele><time>2026-05-02T08:15:52.999Z</time></trkpt><trkpt lat="43.984003597345314" lon="11.009773161964183"><ele>912.0</ele><time>2026-05-02T08:15:53.999Z</time></trkpt><trkpt lat="43.98413379125979" lon="11.009978799887476"><ele>909.6666666666667</ele><time>2026-05-02T08:15:54.999Z</time></trkpt><trkpt lat="43.98421863454961" lon="11.010209388467349"><ele>907.3333333333334</ele><time>2026-05-02T08:15:55.999Z</time></trkpt><trkpt lat="43.98428201302103" lon="11.010430642919522"><ele>905.0</ele><time>2026-05-02T08:15:56.999Z</time></trkpt><trkpt lat="43.98434081318667" lon="11.01063282488399"><ele>905.0</ele><time>2026-05-02T08:15:57.999Z</time></trkpt><trkpt lat="43.98441377081754" lon="11.010795126842343"><ele>905.0</ele><time>2026-05-02T08:15:58.999Z</time></trkpt><trkpt lat="43.98450988360199" lon="11.010911228448357"><ele>905.0</ele><time>2026-05-02T08:15:59.999Z</time></trkpt><trkpt lat="43.984628045135686" lon="11.010959757152106"><ele>905.0</ele><time>2026-05-02T08:16:00.999Z</time></trkpt><trkpt lat="43.98474027342699" lon="11.010935705660891"><ele>905.0</ele><time>2026-05-02T08:16:01.999Z</time></trkpt><trkpt lat="43.98484955320027" lon="11.01084289374487"><ele>905.0</ele><time>2026-05-02T08:16:02.999Z</time></trkpt><trkpt lat="43.98495888179557" lon="11.010698671369653"><ele>905.0</ele><time>2026-05-02T08:16:03.999Z</time></trkpt><trkpt lat="43.98510127504057" lon="11.010565846228362"><ele>903.6666666666667</ele><time>2026-05-02T08:16:04.999Z</time></trkpt><trkpt lat="43.985269877633996" lon="11.010489643835081"><ele>902.3333333333333</ele><time>2026-05-02T08:16:05.999Z</time></trkpt><trkpt lat="43.98545580240717" lon="11.010463584659098"><ele>901.0</ele><time>2026-05-02T08:16:06.999Z</time></trkpt><trkpt lat="43.98565715626476" lon="11.010427037810274"><ele>901.0</ele><time>2026-05-02T08:16:07.999Z</time></trkpt><trkpt lat="43.98586384357583" lon="11.010336050158157"><ele>901.0</ele><time>2026-05-02T08:16:08.999Z</time></trkpt><trkpt lat="43.986043809175285" lon="11.010211283777224"><ele>901.0</ele><time>2026-05-02T08:16:09.999Z</time></trkpt><trkpt lat="43.98619246077368" lon="11.010097300774705"><ele>901.0</ele><time>2026-05-02T08:16:10.999Z</time></trkpt><trkpt lat="43.986308925341184" lon="11.009984333734067"><ele>901.0</ele><time>2026-05-02T08:16:11.999Z</time></trkpt><trkpt lat="43.986428155963324" lon="11.00994978218792"><ele>901.0</ele><time>2026-05-02T08:16:12.999Z</time></trkpt><trkpt lat="43.98653794921891" lon="11.00995691816738"><ele>901.0</ele><time>2026-05-02T08:16:13.999Z</time></trkpt><trkpt lat="43.98662936586118" lon="11.010035601285828"><ele>901.0</ele><time>2026-05-02T08:16:14.999Z</time></trkpt><trkpt lat="43.986671792727094" lon="11.010184950579083"><ele>901.0</ele><time>2026-05-02T08:16:15.999Z</time></trkpt><trkpt lat="43.98669250534557" lon="11.01035849956951"><ele>901.0</ele><time>2026-05-02T08:16:16.999Z</time></trkpt><trkpt lat="43.98673569386003" lon="11.010534841894161"><ele>901.0</ele><time>2026-05-02T08:16:17.999Z</time></trkpt><trkpt lat="43.98679355717724" lon="11.010664434660589"><ele>909.0</ele><time>2026-05-02T08:16:18.999Z</time></trkpt><trkpt lat="43.98688572371553" lon="11.010711701972156"><ele>917.0</ele><time>2026-05-02T08:16:19.999Z</time></trkpt><trkpt lat="43.9870053212815" lon="11.010705853811936"><ele>925.0</ele><time>2026-05-02T08:16:20.999Z</time></trkpt><trkpt lat="43.98714840228273" lon="11.01068632060558"><ele>933.0</ele><time>2026-05-02T08:16:21.999Z</time></trkpt><trkpt lat="43.98727941407553" lon="11.01066915820269"><ele>933.0</ele><time>2026-05-02T08:16:22.999Z</time></trkpt><trkpt lat="43.98739683328553" lon="11.010663074313168"><ele>933.0</ele><time>2026-05-02T08:16:23.999Z</time></trkpt><trkpt lat="43.98751496128827" lon="11.010735740543488"><ele>933.0</ele><time>2026-05-02T08:16:24.999Z</time></trkpt><trkpt lat="43.98760583378181" lon="11.010861417778342"><ele>933.0</ele><time>2026-05-02T08:16:25.999Z</time></trkpt><trkpt lat="43.98768395544122" lon="11.010959249200884"><ele>932.5999999999999</ele><time>2026-05-02T08:16:26.999Z</time></trkpt><trkpt lat="43.98778497520872" lon="11.010978044482332"><ele>932.1999999999999</ele><time>2026-05-02T08:16:27.999Z</time></trkpt><trkpt lat="43.9878977889101" lon="11.010947368493452"><ele>931.8</ele><time>2026-05-02T08:16:28.999Z</time></trkpt><trkpt lat="43.987999177309746" lon="11.010939255029195"><ele>931.4</ele><time>2026-05-02T08:16:29.999Z</time></trkpt><trkpt lat="43.98808675409404" lon="11.01098929540259"><ele>931.0</ele><time>2026-05-02T08:16:30.999Z</time></trkpt><trkpt lat="43.988151298499204" lon="11.011093010549544"><ele>931.0</ele><time>2026-05-02T08:16:31.999Z</time></trkpt><trkpt lat="43.98814780742675" lon="11.011266041536466"><ele>931.0</ele><time>2026-05-02T08:16:32.999Z</time></trkpt><trkpt lat="43.98816854835006" lon="11.011467901315033"><ele>931.0</ele><time>2026-05-02T08:16:33.999Z</time></trkpt><trkpt lat="43.988192405762724" lon="11.011703702480382"><ele>931.0</ele><time>2026-05-02T08:16:34.999Z</time></trkpt><trkpt lat="43.988236565690826" lon="11.011938099663407"><ele>926.75</ele><time>2026-05-02T08:16:35.999Z</time></trkpt><trkpt lat="43.98827983487851" lon="11.012129945148983"><ele>922.5</ele><time>2026-05-02T08:16:36.999Z</time></trkpt><trkpt lat="43.98829886246158" lon="11.012320764766825"><ele>918.25</ele><time>2026-05-02T08:16:37.999Z</time></trkpt><trkpt lat="43.98825098033182" lon="11.012492529772096"><ele>914.0</ele><time>2026-05-02T08:16:38.999Z</time></trkpt><trkpt lat="43.988161492459966" lon="11.0126151402735"><ele>914.0</ele><time>2026-05-02T08:16:39.999Z</time></trkpt><trkpt lat="43.98807202003105" lon="11.01271300387008"><ele>914.0000000000001</ele><time>2026-05-02T08:16:40.999Z</time></trkpt><trkpt lat="43.988027284047746" lon="11.012858947593127"><ele>914.0000000000001</ele><time>2026-05-02T08:16:41.999Z</time></trkpt><trkpt lat="43.98804242665484" lon="11.013015130061723"><ele>914.0</ele><time>2026-05-02T08:16:42.999Z</time></trkpt><trkpt lat="43.98806340930845" lon="11.013158026498557"><ele>914.0</ele><time>2026-05-02T08:16:43.999Z</time></trkpt><trkpt lat="43.98806879952965" lon="11.013297526083116"><ele>916.5</ele><time>2026-05-02T08:16:44.999Z</time></trkpt><trkpt lat="43.98797809877068" lon="11.01341971902666"><ele>919.0</ele><time>2026-05-02T08:16:45.999Z</time></trkpt><trkpt lat="43.987868175756" lon="11.013544053607419"><ele>921.5</ele><time>2026-05-02T08:16:46.999Z</time></trkpt><trkpt lat="43.987750082124116" lon="11.013703677568543"><ele>924.0</ele><time>2026-05-02T08:16:47.999Z</time></trkpt><trkpt lat="43.987633789677886" lon="11.01388722558871"><ele>924.0</ele><time>2026-05-02T08:16:48.999Z</time></trkpt><trkpt lat="43.987538626579266" lon="11.014052756364924"><ele>924.0</ele><time>2026-05-02T08:16:49.999Z</time></trkpt><trkpt lat="43.98746348616304" lon="11.01420502848885"><ele>924.0</ele><time>2026-05-02T08:16:50.999Z</time></trkpt><trkpt lat="43.98742659078739" lon="11.01437280458241"><ele>924.0</ele><time>2026-05-02T08:16:51.999Z</time></trkpt><trkpt lat="43.9874379168662" lon="11.01453966478824"><ele>922.75</ele><time>2026-05-02T08:16:52.999Z</time></trkpt><trkpt lat="43.987506153006045" lon="11.014676607470928"><ele>921.5</ele><time>2026-05-02T08:16:53.999Z</time></trkpt><trkpt lat="43.987612362345594" lon="11.01477586078159"><ele>920.25</ele><time>2026-05-02T08:16:54.999Z</time></trkpt><trkpt lat="43.98771131715254" lon="11.014905014164869"><ele>919.0</ele><time>2026-05-02T08:16:55.999Z</time></trkpt><trkpt lat="43.98780646325198" lon="11.015038745742189"><ele>919.0</ele><time>2026-05-02T08:16:56.999Z</time></trkpt><trkpt lat="43.98781655244142" lon="11.015243927723969"><ele>919.0</ele><time>2026-05-02T08:16:57.999Z</time></trkpt><trkpt lat="43.987819763036775" lon="11.015460424818976"><ele>919.0</ele><time>2026-05-02T08:16:58.999Z</time></trkpt><trkpt lat="43.98778415140489" lon="11.01568123807708"><ele>913.5</ele><time>2026-05-02T08:16:59.999Z</time></trkpt><trkpt lat="43.987763653615154" lon="11.015886449273316"><ele>908.0</ele><time>2026-05-02T08:17:00.999Z</time></trkpt><trkpt lat="43.9877691106753" lon="11.016063453486552"><ele>902.5</ele><time>2026-05-02T08:17:01.999Z</time></trkpt><trkpt lat="43.98780394744642" lon="11.016217537177546"><ele>897.0</ele><time>2026-05-02T08:17:02.999Z</time></trkpt><trkpt lat="43.98789874634191" lon="11.016327791180785"><ele>897.0</ele><time>2026-05-02T08:17:03.999Z</time></trkpt><trkpt lat="43.98802590561576" lon="11.016395462137387"><ele>897.0</ele><time>2026-05-02T08:17:04.999Z</time></trkpt><trkpt lat="43.988184653979694" lon="11.016398557223658"><ele>897.0</ele><time>2026-05-02T08:17:05.999Z</time></trkpt><trkpt lat="43.98835602884696" lon="11.016345794916802"><ele>896.0</ele><time>2026-05-02T08:17:06.999Z</time></trkpt><trkpt lat="43.98854588236939" lon="11.016256240816688"><ele>895.0</ele><time>2026-05-02T08:17:07.999Z</time></trkpt><trkpt lat="43.98875277509635" lon="11.016168114263696"><ele>894.0</ele><time>2026-05-02T08:17:08.999Z</time></trkpt><trkpt lat="43.98896796853913" lon="11.016076354059651"><ele>896.0</ele><time>2026-05-02T08:17:09.999Z</time></trkpt><trkpt lat="43.9891785853706" lon="11.0159455625081"><ele>898.0</ele><time>2026-05-02T08:17:10.999Z</time></trkpt><trkpt lat="43.98938113244269" lon="11.015765534802812"><ele>898.0</ele><time>2026-05-02T08:17:11.999Z</time></trkpt><trkpt lat="43.98957755998902" lon="11.01556994668424"><ele>898.0</ele><time>2026-05-02T08:17:12.999Z</time></trkpt><trkpt lat="43.98976129863052" lon="11.015421205588146"><ele>898.0</ele><time>2026-05-02T08:17:13.999Z</time></trkpt><trkpt lat="43.98992461529523" lon="11.015319604339803"><ele>898.0</ele><time>2026-05-02T08:17:14.999Z</time></trkpt><trkpt lat="43.99005912233469" lon="11.015206061669451"><ele>898.0</ele><time>2026-05-02T08:17:15.999Z</time></trkpt><trkpt lat="43.99015681524801" lon="11.015043254769758"><ele>892.3333333333333</ele><time>2026-05-02T08:17:16.999Z</time></trkpt><trkpt lat="43.990236486817054" lon="11.01483336028843"><ele>886.6666666666667</ele><time>2026-05-02T08:17:17.999Z</time></trkpt><trkpt lat="43.990325833856886" lon="11.014601588970718"><ele>881.0</ele><time>2026-05-02T08:17:18.999Z</time></trkpt><trkpt lat="43.99044141244158" lon="11.014365118807994"><ele>888.3333333333334</ele><time>2026-05-02T08:17:19.999Z</time></trkpt><trkpt lat="43.99053271203322" lon="11.014108743067023"><ele>895.6666666666667</ele><time>2026-05-02T08:17:20.999Z</time></trkpt><trkpt lat="43.990603801259766" lon="11.013869808772451"><ele>903.0</ele><time>2026-05-02T08:17:21.999Z</time></trkpt><trkpt lat="43.990704758630265" lon="11.013644233115029"><ele>904.0</ele><time>2026-05-02T08:17:22.999Z</time></trkpt><trkpt lat="43.99084485120689" lon="11.01342487729683"><ele>905.0</ele><time>2026-05-02T08:17:23.999Z</time></trkpt><trkpt lat="43.991004380579156" lon="11.013209103449606"><ele>906.0</ele><time>2026-05-02T08:17:24.999Z</time></trkpt><trkpt lat="43.99112058868799" lon="11.01298218156725"><ele>906.0</ele><time>2026-05-02T08:17:25.999Z</time></trkpt><trkpt lat="43.99121647135285" lon="11.012786564173256"><ele>906.0</ele><time>2026-05-02T08:17:26.999Z</time></trkpt><trkpt lat="43.99135432311653" lon="11.012651061940327"><ele>906.0</ele><time>2026-05-02T08:17:27.999Z</time></trkpt><trkpt lat="43.99154311663088" lon="11.01259499563936"><ele>901.6666666666667</ele><time>2026-05-02T08:17:28.999Z</time></trkpt><trkpt lat="43.991735822405815" lon="11.012497771161037"><ele>897.3333333333334</ele><time>2026-05-02T08:17:29.999Z</time></trkpt><trkpt lat="43.99193507655215" lon="11.012365486524464"><ele>893.0</ele><time>2026-05-02T08:17:30.999Z</time></trkpt><trkpt lat="43.992158878248645" lon="11.012262234119616"><ele>905.0</ele><time>2026-05-02T08:17:31.999Z</time></trkpt><trkpt lat="43.992383014989976" lon="11.012138343925935"><ele>917.0</ele><time>2026-05-02T08:17:32.999Z</time></trkpt><trkpt lat="43.99260468365097" lon="11.012016664598457"><ele>917.0</ele><time>2026-05-02T08:17:33.999Z</time></trkpt><trkpt lat="43.9928310591083" lon="11.011977983098307"><ele>917.0</ele><time>2026-05-02T08:17:34.999Z</time></trkpt><trkpt lat="43.99305163980594" lon="11.011977401181117"><ele>917.0</ele><time>2026-05-02T08:17:35.999Z</time></trkpt><trkpt lat="43.99327275520889" lon="11.011941953449933"><ele>912.6666666666667</ele><time>2026-05-02T08:17:36.999Z</time></trkpt><trkpt lat="43.99348168090868" lon="11.011869933310711"><ele>908.3333333333333</ele><time>2026-05-02T08:17:37.999Z</time></trkpt><trkpt lat="43.99366133566535" lon="11.011784172487383"><ele>904.0</ele><time>2026-05-02T08:17:38.999Z</time></trkpt><trkpt lat="43.993814744048855" lon="11.011682738035564"><ele>910.25</ele><time>2026-05-02T08:17:39.999Z</time></trkpt><trkpt lat="43.99394523228296" lon="11.011595335541012"><ele>916.5</ele><time>2026-05-02T08:17:40.999Z</time></trkpt><trkpt lat="43.994044567801055" lon="11.01149777586494"><ele>922.75</ele><time>2026-05-02T08:17:41.999Z</time></trkpt><trkpt lat="43.994146055308306" lon="11.011467962260987"><ele>929.0</ele><time>2026-05-02T08:17:42.999Z</time></trkpt><trkpt lat="43.994235093660976" lon="11.011550207345538"><ele>927.5</ele><time>2026-05-02T08:17:43.999Z</time></trkpt><trkpt lat="43.99434353900183" lon="11.011638451504055"><ele>926.0</ele><time>2026-05-02T08:17:44.999Z</time></trkpt><trkpt lat="43.99444098536837" lon="11.011762570738286"><ele>924.5</ele><time>2026-05-02T08:17:45.999Z</time></trkpt><trkpt lat="43.994446582831294" lon="11.01193961343196"><ele>923.0</ele><time>2026-05-02T08:17:46.998Z</time></trkpt><trkpt lat="43.994478155031366" lon="11.012098883359727"><ele>923.0</ele><time>2026-05-02T08:17:47.998Z</time></trkpt><trkpt lat="43.994580071688894" lon="11.012239822821838"><ele>923.0</ele><time>2026-05-02T08:17:48.998Z</time></trkpt><trkpt lat="43.994690799642214" lon="11.012384360625372"><ele>923.0</ele><time>2026-05-02T08:17:49.998Z</time></trkpt><trkpt lat="43.99480624832787" lon="11.012553019532294"><ele>919.0</ele><time>2026-05-02T08:17:50.998Z</time></trkpt><trkpt lat="43.99493643224008" lon="11.012743516683866"><ele>915.0</ele><time>2026-05-02T08:17:51.998Z</time></trkpt><trkpt lat="43.99507755595761" lon="11.012935109915915"><ele>911.0</ele><time>2026-05-02T08:17:52.998Z</time></trkpt><trkpt lat="43.9952235776195" lon="11.01313781613659"><ele>912.0</ele><time>2026-05-02T08:17:53.998Z</time></trkpt><trkpt lat="43.99537675419825" lon="11.013337735335188"><ele>913.0</ele><time>2026-05-02T08:17:54.998Z</time></trkpt><trkpt lat="43.99552184968688" lon="11.013541243007035"><ele>914.0</ele><time>2026-05-02T08:17:56Z</time></trkpt><trkpt lat="43.99565511992148" lon="11.013733996573833"><ele>914.0</ele><time>2026-05-02T08:17:57Z</time></trkpt><trkpt lat="43.99578597510139" lon="11.013908994015805"><ele>914.0</ele><time>2026-05-02T08:17:58Z</time></trkpt><trkpt lat="43.995911375882656" lon="11.014067940910618"><ele>914.0</ele><time>2026-05-02T08:17:59Z</time></trkpt><trkpt lat="43.996039035673924" lon="11.014202100341466"><ele>913.6666666666667</ele><time>2026-05-02T08:18:00Z</time></trkpt><trkpt lat="43.99617377856378" lon="11.01431195591139"><ele>913.3333333333333</ele><time>2026-05-02T08:18:01Z</time></trkpt><trkpt lat="43.99632896687783" lon="11.014413915020613"><ele>913.0</ele><time>2026-05-02T08:18:02Z</time></trkpt><trkpt lat="43.99649927024117" lon="11.014511313369379"><ele>915.0</ele><time>2026-05-02T08:18:03Z</time></trkpt><trkpt lat="43.99668442606697" lon="11.014608743089363"><ele>917.0</ele><time>2026-05-02T08:18:04Z</time></trkpt><trkpt lat="43.99688093245611" lon="11.014701846937868"><ele>919.0</ele><time>2026-05-02T08:18:05Z</time></trkpt><trkpt lat="43.99708878617171" lon="11.014793721175918"><ele>919.0</ele><time>2026-05-02T08:18:06Z</time></trkpt><trkpt lat="43.9973058503927" lon="11.01487260115966"><ele>919.0</ele><time>2026-05-02T08:18:07Z</time></trkpt><trkpt lat="43.99751188739079" lon="11.014938281303145"><ele>919.0</ele><time>2026-05-02T08:18:08Z</time></trkpt><trkpt lat="43.997699883028865" lon="11.015004642815425"><ele>906.0</ele><time>2026-05-02T08:18:09Z</time></trkpt><trkpt lat="43.99787753458592" lon="11.015061266286414"><ele>893.0</ele><time>2026-05-02T08:18:10Z</time></trkpt><trkpt lat="43.998042002414756" lon="11.015088378910571"><ele>880.0</ele><time>2026-05-02T08:18:11Z</time></trkpt><trkpt lat="43.99820306485907" lon="11.015070473761801"><ele>879.3333333333333</ele><time>2026-05-02T08:18:12Z</time></trkpt><trkpt lat="43.99838006917664" lon="11.014989989340727"><ele>878.6666666666667</ele><time>2026-05-02T08:18:13Z</time></trkpt><trkpt lat="43.998558919651025" lon="11.014874268909782"><ele>878.0</ele><time>2026-05-02T08:18:14Z</time></trkpt><trkpt lat="43.99874135342067" lon="11.014736834167905"><ele>878.0</ele><time>2026-05-02T08:18:15Z</time></trkpt><trkpt lat="43.99893254107587" lon="11.014594910684826"><ele>878.0</ele><time>2026-05-02T08:18:16Z</time></trkpt><trkpt lat="43.99913142343964" lon="11.014451063332642"><ele>878.0</ele><time>2026-05-02T08:18:17Z</time></trkpt><trkpt lat="43.99932862843184" lon="11.01430269566888"><ele>874.6666666666667</ele><time>2026-05-02T08:18:18Z</time></trkpt><trkpt lat="43.999508788405585" lon="11.01414834194346"><ele>871.3333333333333</ele><time>2026-05-02T08:18:19Z</time></trkpt><trkpt lat="43.999676195432485" lon="11.013982287996456"><ele>868.0</ele><time>2026-05-02T08:18:20Z</time></trkpt><trkpt lat="43.99982033151921" lon="11.01379346221571"><ele>868.0</ele><time>2026-05-02T08:18:21Z</time></trkpt><trkpt lat="43.99995981557291" lon="11.013593945835126"><ele>868.0</ele><time>2026-05-02T08:18:22Z</time></trkpt><trkpt lat="44.000076450240115" lon="11.013355014383945"><ele>868.0</ele><time>2026-05-02T08:18:23Z</time></trkpt><trkpt lat="44.000225946899675" lon="11.013143080599937"><ele>872.3333333333333</ele><time>2026-05-02T08:18:24Z</time></trkpt><trkpt lat="44.00039124378444" lon="11.012951340683475"><ele>876.6666666666667</ele><time>2026-05-02T08:18:25Z</time></trkpt><trkpt lat="44.000541115539654" lon="11.012810551009096"><ele>881.0</ele><time>2026-05-02T08:18:25.999Z</time></trkpt><trkpt lat="44.00068452456622" lon="11.012704650533497"><ele>874.6666666666667</ele><time>2026-05-02T08:18:26.999Z</time></trkpt><trkpt lat="44.00083921450649" lon="11.01264429343699"><ele>868.3333333333333</ele><time>2026-05-02T08:18:27.999Z</time></trkpt><trkpt lat="44.00099408376132" lon="11.012656338374171"><ele>862.0</ele><time>2026-05-02T08:18:28.999Z</time></trkpt><trkpt lat="44.001151017214426" lon="11.012675388707484"><ele>862.0</ele><time>2026-05-02T08:18:29.999Z</time></trkpt><trkpt lat="44.001304584768725" lon="11.012623540912273"><ele>862.0</ele><time>2026-05-02T08:18:30.999Z</time></trkpt><trkpt lat="44.00146811308775" lon="11.012508071608014"><ele>862.0</ele><time>2026-05-02T08:18:31.999Z</time></trkpt><trkpt lat="44.001647291794924" lon="11.012403509171753"><ele>867.3333333333333</ele><time>2026-05-02T08:18:32.999Z</time></trkpt><trkpt lat="44.001820527144716" lon="11.012290787746753"><ele>872.6666666666667</ele><time>2026-05-02T08:18:33.999Z</time></trkpt><trkpt lat="44.001984465001044" lon="11.012185646256063"><ele>878.0</ele><time>2026-05-02T08:18:34.999Z</time></trkpt><trkpt lat="44.00217182539531" lon="11.012159441898904"><ele>878.0</ele><time>2026-05-02T08:18:35.999Z</time></trkpt><trkpt lat="44.00234926637987" lon="11.012130686592565"><ele>878.0</ele><time>2026-05-02T08:18:36.999Z</time></trkpt><trkpt lat="44.002508707415736" lon="11.012084187985684"><ele>878.0</ele><time>2026-05-02T08:18:37.999Z</time></trkpt><trkpt lat="44.00263371532454" lon="11.011992644248508"><ele>879.25</ele><time>2026-05-02T08:18:38.999Z</time></trkpt><trkpt lat="44.002734826388306" lon="11.011853229332123"><ele>880.5</ele><time>2026-05-02T08:18:39.999Z</time></trkpt><trkpt lat="44.00281413754496" lon="11.011681792010476"><ele>881.75</ele><time>2026-05-02T08:18:40.999Z</time></trkpt><trkpt lat="44.002898171027105" lon="11.011576806045039"><ele>883.0</ele><time>2026-05-02T08:18:41.999Z</time></trkpt><trkpt lat="44.003012440267014" lon="11.011543703704278"><ele>883.0</ele><time>2026-05-02T08:18:42.999Z</time></trkpt><trkpt lat="44.00315956537176" lon="11.011562238487617"><ele>883.0</ele><time>2026-05-02T08:18:43.999Z</time></trkpt><trkpt lat="44.00331686433198" lon="11.011555644605156"><ele>883.0</ele><time>2026-05-02T08:18:44.999Z</time></trkpt><trkpt lat="44.003477836637174" lon="11.011471211277915"><ele>879.5</ele><time>2026-05-02T08:18:45.999Z</time></trkpt><trkpt lat="44.00361932876307" lon="11.011373597647905"><ele>876.0</ele><time>2026-05-02T08:18:46.999Z</time></trkpt><trkpt lat="44.00375873283707" lon="11.011303407449537"><ele>872.5</ele><time>2026-05-02T08:18:47.999Z</time></trkpt><trkpt lat="44.00387968652116" lon="11.01123789229355"><ele>869.0</ele><time>2026-05-02T08:18:48.999Z</time></trkpt><trkpt lat="44.00399871487582" lon="11.011181676603279"><ele>869.0</ele><time>2026-05-02T08:18:49.999Z</time></trkpt><trkpt lat="44.00410679621695" lon="11.011124850023654"><ele>869.0</ele><time>2026-05-02T08:18:50.999Z</time></trkpt><trkpt lat="44.00423112663078" lon="11.011120793358035"><ele>869.0</ele><time>2026-05-02T08:18:51.999Z</time></trkpt><trkpt lat="44.00435338090035" lon="11.011169977719687"><ele>869.0</ele><time>2026-05-02T08:18:52.999Z</time></trkpt><trkpt lat="44.004470839826844" lon="11.011195052524943"><ele>867.4000000000001</ele><time>2026-05-02T08:18:53.999Z</time></trkpt><trkpt lat="44.004575793090694" lon="11.011246124924572"><ele>865.8000000000001</ele><time>2026-05-02T08:18:54.999Z</time></trkpt><trkpt lat="44.004671531505146" lon="11.011286952682921"><ele>864.1999999999999</ele><time>2026-05-02T08:18:55.999Z</time></trkpt><trkpt lat="44.00476242318344" lon="11.011317572336836"><ele>862.5999999999999</ele><time>2026-05-02T08:18:56.999Z</time></trkpt><trkpt lat="44.00484993098993" lon="11.011332911935567"><ele>861.0</ele><time>2026-05-02T08:18:57.999Z</time></trkpt><trkpt lat="44.00493674587269" lon="11.011324622412449"><ele>858.6666666666666</ele><time>2026-05-02T08:18:58.999Z</time></trkpt><trkpt lat="44.00501767399548" lon="11.011283238412437"><ele>856.3333333333333</ele><time>2026-05-02T08:18:59.999Z</time></trkpt><trkpt lat="44.00507919965219" lon="11.011213020572885"><ele>854.0</ele><time>2026-05-02T08:19:00.999Z</time></trkpt><trkpt lat="44.00513612773782" lon="11.011143123548404"><ele>851.6666666666666</ele><time>2026-05-02T08:19:01.999Z</time></trkpt><trkpt lat="44.005199995872964" lon="11.011096184049821"><ele>849.3333333333333</ele><time>2026-05-02T08:19:02.999Z</time></trkpt><trkpt lat="44.00527442876288" lon="11.011101728068807"><ele>847.0</ele><time>2026-05-02T08:19:03.999Z</time></trkpt><trkpt lat="44.00535789695729" lon="11.011073166452707"><ele>847.0</ele><time>2026-05-02T08:19:04.999Z</time></trkpt><trkpt lat="44.00546058362146" lon="11.01109769093396"><ele>847.0</ele><time>2026-05-02T08:19:05.999Z</time></trkpt><trkpt lat="44.0055654323342" lon="11.011210394623678"><ele>847.0</ele><time>2026-05-02T08:19:06.999Z</time></trkpt><trkpt lat="44.005682212631065" lon="11.011296902323739"><ele>847.0</ele><time>2026-05-02T08:19:07.999Z</time></trkpt><trkpt lat="44.005795252609545" lon="11.01136061768619"><ele>845.6</ele><time>2026-05-02T08:19:08.999Z</time></trkpt><trkpt lat="44.005895878650264" lon="11.011442100394579"><ele>844.2</ele><time>2026-05-02T08:19:09.999Z</time></trkpt><trkpt lat="44.00599490266396" lon="11.011517391363036"><ele>842.8</ele><time>2026-05-02T08:19:10.999Z</time></trkpt><trkpt lat="44.00608560322513" lon="11.011597845021807"><ele>841.4</ele><time>2026-05-02T08:19:11.999Z</time></trkpt><trkpt lat="44.00616041276713" lon="11.011685602677185"><ele>840.0</ele><time>2026-05-02T08:19:12.999Z</time></trkpt><trkpt lat="44.006223650070794" lon="11.011768343927946"><ele>840.0</ele><time>2026-05-02T08:19:13.999Z</time></trkpt><trkpt lat="44.00630890862322" lon="11.011824520228581"><ele>840.0</ele><time>2026-05-02T08:19:14.999Z</time></trkpt><trkpt lat="44.006432093602506" lon="11.011851705001963"><ele>840.0</ele><time>2026-05-02T08:19:15.999Z</time></trkpt><trkpt lat="44.0065619515738" lon="11.01190593370087"><ele>840.0</ele><time>2026-05-02T08:19:16.999Z</time></trkpt><trkpt lat="44.006716539402476" lon="11.011941344595773"><ele>844.5</ele><time>2026-05-02T08:19:17.999Z</time></trkpt><trkpt lat="44.00685858610647" lon="11.01195820094157"><ele>849.0</ele><time>2026-05-02T08:19:18.999Z</time></trkpt><trkpt lat="44.00699236355513" lon="11.011980390813418"><ele>853.5</ele><time>2026-05-02T08:19:19.999Z</time></trkpt><trkpt lat="44.007120848283066" lon="11.012039483859212"><ele>858.0</ele><time>2026-05-02T08:19:20.999Z</time></trkpt><trkpt lat="44.007248250078774" lon="11.012125874748975"><ele>858.0</ele><time>2026-05-02T08:19:21.999Z</time></trkpt><trkpt lat="44.00735990264414" lon="11.012211855214327"><ele>858.0</ele><time>2026-05-02T08:19:22.999Z</time></trkpt><trkpt lat="44.007441681222936" lon="11.01230511147811"><ele>858.0</ele><time>2026-05-02T08:19:23.999Z</time></trkpt><trkpt lat="44.007527627503165" lon="11.01241376542684"><ele>858.0</ele><time>2026-05-02T08:19:24.999Z</time></trkpt><trkpt lat="44.00763378565218" lon="11.012508873026123"><ele>859.0</ele><time>2026-05-02T08:19:25.999Z</time></trkpt><trkpt lat="44.00772797620288" lon="11.012603931866431"><ele>860.0</ele><time>2026-05-02T08:19:26.999Z</time></trkpt><trkpt lat="44.00779262819964" lon="11.01274130264816"><ele>861.0</ele><time>2026-05-02T08:19:27.999Z</time></trkpt><trkpt lat="44.00779682446957" lon="11.012913042434896"><ele>862.0</ele><time>2026-05-02T08:19:28.999Z</time></trkpt><trkpt lat="44.0078383988157" lon="11.01304181243834"><ele>861.9999999999999</ele><time>2026-05-02T08:19:29.999Z</time></trkpt><trkpt lat="44.007893779853006" lon="11.013127926190394"><ele>862.0</ele><time>2026-05-02T08:19:30.999Z</time></trkpt><trkpt lat="44.00796180109835" lon="11.013199715821417"><ele>862.0</ele><time>2026-05-02T08:19:31.999Z</time></trkpt><trkpt lat="44.007989122971516" lon="11.013314908019614"><ele>862.0</ele><time>2026-05-02T08:19:32.999Z</time></trkpt><trkpt lat="44.00797332705231" lon="11.01341768252424"><ele>861.9999999999999</ele><time>2026-05-02T08:19:33.999Z</time></trkpt><trkpt lat="44.00790067006134" lon="11.013483196383861"><ele>862.0</ele><time>2026-05-02T08:19:34.999Z</time></trkpt><trkpt lat="44.00781754788185" lon="11.013558373657288"><ele>860.8</ele><time>2026-05-02T08:19:35.999Z</time></trkpt><trkpt lat="44.007732654733886" lon="11.013641077967478"><ele>859.6</ele><time>2026-05-02T08:19:36.999Z</time></trkpt><trkpt lat="44.00765704133018" lon="11.013696271140297"><ele>858.3999999999999</ele><time>2026-05-02T08:19:37.999Z</time></trkpt><trkpt lat="44.00762061748299" lon="11.013805943973793"><ele>857.1999999999999</ele><time>2026-05-02T08:19:38.999Z</time></trkpt><trkpt lat="44.00761815039125" lon="11.013959588527886"><ele>856.0</ele><time>2026-05-02T08:19:39.999Z</time></trkpt><trkpt lat="44.00763713672691" lon="11.014142211992688"><ele>857.75</ele><time>2026-05-02T08:19:40.999Z</time></trkpt><trkpt lat="44.0076080074564" lon="11.014341387747196"><ele>859.5</ele><time>2026-05-02T08:19:41.999Z</time></trkpt><trkpt lat="44.007586377033" lon="11.014517536729246"><ele>861.25</ele><time>2026-05-02T08:19:42.999Z</time></trkpt><trkpt lat="44.007537789079414" lon="11.01464727583477"><ele>863.0</ele><time>2026-05-02T08:19:43.999Z</time></trkpt><trkpt lat="44.0075153048289" lon="11.014772026717813"><ele>863.0</ele><time>2026-05-02T08:19:44.999Z</time></trkpt><trkpt lat="44.00752332246002" lon="11.0149075984582"><ele>863.0</ele><time>2026-05-02T08:19:45.999Z</time></trkpt><trkpt lat="44.00757344737176" lon="11.015054087942245"><ele>863.0</ele><time>2026-05-02T08:19:46.999Z</time></trkpt><trkpt lat="44.00765075240978" lon="11.015170298906805"><ele>863.0</ele><time>2026-05-02T08:19:47.999Z</time></trkpt><trkpt lat="44.00772245907037" lon="11.015255070093318"><ele>863.0</ele><time>2026-05-02T08:19:48.999Z</time></trkpt><trkpt lat="44.007822266751575" lon="11.0152949785154"><ele>863.25</ele><time>2026-05-02T08:19:49.999Z</time></trkpt><trkpt lat="44.007931599495976" lon="11.015299514221534"><ele>863.5</ele><time>2026-05-02T08:19:50.999Z</time></trkpt><trkpt lat="44.008056995621956" lon="11.01530394198976"><ele>863.75</ele><time>2026-05-02T08:19:51.999Z</time></trkpt><trkpt lat="44.00819307281427" lon="11.015408161046114"><ele>864.0</ele><time>2026-05-02T08:19:52.999Z</time></trkpt><trkpt lat="44.008320992373335" lon="11.015484418861273"><ele>869.2</ele><time>2026-05-02T08:19:53.999Z</time></trkpt><trkpt lat="44.00840576638592" lon="11.015553166320519"><ele>874.4000000000001</ele><time>2026-05-02T08:19:54.999Z</time></trkpt><trkpt lat="44.00847998511034" lon="11.01562685045908"><ele>879.6</ele><time>2026-05-02T08:19:55.999Z</time></trkpt><trkpt lat="44.00856178960712" lon="11.015687309214048"><ele>884.8</ele><time>2026-05-02T08:19:56.999Z</time></trkpt><trkpt lat="44.00865414774017" lon="11.015706197535135"><ele>890.0</ele><time>2026-05-02T08:19:57.999Z</time></trkpt><trkpt lat="44.00873540181349" lon="11.01575520081812"><ele>886.8</ele><time>2026-05-02T08:19:58.999Z</time></trkpt><trkpt lat="44.0087801281001" lon="11.015857375151642"><ele>883.6</ele><time>2026-05-02T08:19:59.999Z</time></trkpt><trkpt lat="44.00884796857377" lon="11.01592402853736"><ele>880.4000000000001</ele><time>2026-05-02T08:20:00.999Z</time></trkpt><trkpt lat="44.00877443488105" lon="11.016091946768116"><ele>877.2</ele><time>2026-05-02T08:20:02Z</time></trkpt><trkpt lat="44.008743001797775" lon="11.01626426510353"><ele>874.0</ele><time>2026-05-02T08:20:03Z</time></trkpt><trkpt lat="44.008671124340594" lon="11.016441848393411"><ele>874.0</ele><time>2026-05-02T08:20:04Z</time></trkpt><trkpt lat="44.00857333773231" lon="11.016596875217282"><ele>874.0</ele><time>2026-05-02T08:20:05Z</time></trkpt><trkpt lat="44.0084709022618" lon="11.016740833769312"><ele>874.0</ele><time>2026-05-02T08:20:06Z</time></trkpt><trkpt lat="44.008376298330454" lon="11.016867700198995"><ele>874.0</ele><time>2026-05-02T08:20:07Z</time></trkpt><trkpt lat="44.00828606939165" lon="11.016966383234184"><ele>870.0</ele><time>2026-05-02T08:20:08Z</time></trkpt><trkpt lat="44.008205439199685" lon="11.017052849868891"><ele>866.0000000000001</ele><time>2026-05-02T08:20:09Z</time></trkpt><trkpt lat="44.00816608201198" lon="11.017183152773896"><ele>862.0000000000001</ele><time>2026-05-02T08:20:10Z</time></trkpt><trkpt lat="44.00818095564996" lon="11.017347334511202"><ele>858.0</ele><time>2026-05-02T08:20:11Z</time></trkpt><trkpt lat="44.0082019386909" lon="11.01751955091684"><ele>854.0</ele><time>2026-05-02T08:20:12Z</time></trkpt><trkpt lat="44.008180802761565" lon="11.017709191015529"><ele>854.0</ele><time>2026-05-02T08:20:13Z</time></trkpt><trkpt lat="44.00817907411627" lon="11.017921627853708"><ele>854.0</ele><time>2026-05-02T08:20:14Z</time></trkpt><trkpt lat="44.00816023236842" lon="11.018139085173413"><ele>854.0</ele><time>2026-05-02T08:20:15Z</time></trkpt><trkpt lat="44.00817793512423" lon="11.018357989533355"><ele>853.75</ele><time>2026-05-02T08:20:16Z</time></trkpt><trkpt lat="44.0082218740724" lon="11.018553466491129"><ele>853.5</ele><time>2026-05-02T08:20:17Z</time></trkpt><trkpt lat="44.00819487348903" lon="11.018724274404146"><ele>853.25</ele><time>2026-05-02T08:20:18Z</time></trkpt><trkpt lat="44.008184519113335" lon="11.018912943495955"><ele>853.0</ele><time>2026-05-02T08:20:19Z</time></trkpt><trkpt lat="44.008203619250736" lon="11.019067129764391"><ele>851.0</ele><time>2026-05-02T08:20:20Z</time></trkpt><trkpt lat="44.00823936840151" lon="11.019188614662458"><ele>849.0</ele><time>2026-05-02T08:20:21Z</time></trkpt><trkpt lat="44.008297486657064" lon="11.01926038311379"><ele>847.0</ele><time>2026-05-02T08:20:22Z</time></trkpt><trkpt lat="44.008378191760265" lon="11.01931398416326"><ele>845.0</ele><time>2026-05-02T08:20:23Z</time></trkpt><trkpt lat="44.00847706545507" lon="11.019392682829377"><ele>843.0</ele><time>2026-05-02T08:20:24Z</time></trkpt><trkpt lat="44.00859835712504" lon="11.019453274783768"><ele>850.75</ele><time>2026-05-02T08:20:25Z</time></trkpt><trkpt lat="44.00870188589416" lon="11.019555578220102"><ele>858.5</ele><time>2026-05-02T08:20:26Z</time></trkpt><trkpt lat="44.00878009435784" lon="11.019689213865824"><ele>866.25</ele><time>2026-05-02T08:20:27Z</time></trkpt><trkpt lat="44.008841618420796" lon="11.019829674389435"><ele>874.0</ele><time>2026-05-02T08:20:28Z</time></trkpt><trkpt lat="44.00890926420175" lon="11.019894621266348"><ele>873.2</ele><time>2026-05-02T08:20:28.999Z</time></trkpt><trkpt lat="44.0089987699077" lon="11.019991886002995"><ele>872.4000000000001</ele><time>2026-05-02T08:20:29.999Z</time></trkpt><trkpt lat="44.009061815745774" lon="11.020032146742363"><ele>871.6</ele><time>2026-05-02T08:20:30.999Z</time></trkpt><trkpt lat="44.00918212059883" lon="11.020077327884364"><ele>870.8</ele><time>2026-05-02T08:20:32.999Z</time></trkpt><trkpt lat="44.009258478292956" lon="11.020085034297704"><ele>870.0</ele><time>2026-05-02T08:20:33.999Z</time></trkpt><trkpt lat="44.00934523772237" lon="11.02007821240645"><ele>870.0</ele><time>2026-05-02T08:20:34.999Z</time></trkpt><trkpt lat="44.00944486763796" lon="11.02006576537536"><ele>870.0</ele><time>2026-05-02T08:20:35.999Z</time></trkpt><trkpt lat="44.00955573487807" lon="11.020112180831434"><ele>870.0</ele><time>2026-05-02T08:20:36.999Z</time></trkpt><trkpt lat="44.00965866880379" lon="11.020179818665868"><ele>870.0</ele><time>2026-05-02T08:20:37.999Z</time></trkpt><trkpt lat="44.009758546383594" lon="11.020207117531502"><ele>870.0</ele><time>2026-05-02T08:20:38.999Z</time></trkpt><trkpt lat="44.00986272873476" lon="11.02018696690768"><ele>870.0</ele><time>2026-05-02T08:20:39.999Z</time></trkpt><trkpt lat="44.00998479179395" lon="11.020157982176391"><ele>870.0</ele><time>2026-05-02T08:20:40.999Z</time></trkpt><trkpt lat="44.010096227781624" lon="11.020121284849187"><ele>870.0</ele><time>2026-05-02T08:20:41.999Z</time></trkpt><trkpt lat="44.01019539884422" lon="11.020091541717525"><ele>870.0</ele><time>2026-05-02T08:20:42.999Z</time></trkpt><trkpt lat="44.01028320206484" lon="11.020166637287247"><ele>870.0</ele><time>2026-05-02T08:20:43.999Z</time></trkpt><trkpt lat="44.01034094085332" lon="11.020280582763046"><ele>871.0</ele><time>2026-05-02T08:20:44.999Z</time></trkpt><trkpt lat="44.01034766957431" lon="11.020424847448474"><ele>872.0</ele><time>2026-05-02T08:20:45.999Z</time></trkpt><trkpt lat="44.01037117330239" lon="11.020565872356594"><ele>873.0</ele><time>2026-05-02T08:20:46.999Z</time></trkpt><trkpt lat="44.01044338934531" lon="11.020700869230824"><ele>874.0</ele><time>2026-05-02T08:20:47.999Z</time></trkpt><trkpt lat="44.01051838069556" lon="11.020831162226301"><ele>875.0</ele><time>2026-05-02T08:20:48.999Z</time></trkpt><trkpt lat="44.010553001325206" lon="11.020968022835198"><ele>869.0</ele><time>2026-05-02T08:20:49.999Z</time></trkpt><trkpt lat="44.01055750983335" lon="11.021088162485537"><ele>863.0</ele><time>2026-05-02T08:20:50.999Z</time></trkpt><trkpt lat="44.01058010129052" lon="11.021197703474606"><ele>857.0</ele><time>2026-05-02T08:20:51.999Z</time></trkpt><trkpt lat="44.01063556899438" lon="11.021303520459442"><ele>851.0</ele><time>2026-05-02T08:20:52.999Z</time></trkpt><trkpt lat="44.01071044388543" lon="11.021418801084792"><ele>845.0</ele><time>2026-05-02T08:20:53.999Z</time></trkpt><trkpt lat="44.010788273217685" lon="11.021519914378679"><ele>844.6</ele><time>2026-05-02T08:20:54.999Z</time></trkpt><trkpt lat="44.01086399082961" lon="11.021620260869527"><ele>844.2</ele><time>2026-05-02T08:20:55.999Z</time></trkpt><trkpt lat="44.01094728816387" lon="11.021694499537851"><ele>843.8</ele><time>2026-05-02T08:20:56.999Z</time></trkpt><trkpt lat="44.0110531500983" lon="11.021737057759443"><ele>843.4</ele><time>2026-05-02T08:20:57.999Z</time></trkpt><trkpt lat="44.011181578900604" lon="11.021768583806876"><ele>843.0</ele><time>2026-05-02T08:20:58.999Z</time></trkpt><trkpt lat="44.01130813223572" lon="11.021818829507074"><ele>843.0</ele><time>2026-05-02T08:20:59.999Z</time></trkpt><trkpt lat="44.011448204752966" lon="11.021848861884408"><ele>843.0</ele><time>2026-05-02T08:21:00.999Z</time></trkpt><trkpt lat="44.01159085464397" lon="11.021874066716437"><ele>843.0</ele><time>2026-05-02T08:21:01.999Z</time></trkpt><trkpt lat="44.01171755705882" lon="11.021883035492422"><ele>843.0</ele><time>2026-05-02T08:21:02.999Z</time></trkpt><trkpt lat="44.01183322420662" lon="11.02189833497818"><ele>843.8</ele><time>2026-05-02T08:21:03.999Z</time></trkpt><trkpt lat="44.01194650630688" lon="11.02185705333087"><ele>844.5999999999999</ele><time>2026-05-02T08:21:04.999Z</time></trkpt><trkpt lat="44.012045790885495" lon="11.021880504133982"><ele>845.4000000000001</ele><time>2026-05-02T08:21:05.999Z</time></trkpt><trkpt lat="44.01212056873014" lon="11.021924449630308"><ele>846.2</ele><time>2026-05-02T08:21:06.999Z</time></trkpt><trkpt lat="44.012141736035325" lon="11.02204236060424"><ele>847.0</ele><time>2026-05-02T08:21:07.999Z</time></trkpt><trkpt lat="44.012156775976585" lon="11.022201440634575"><ele>847.0</ele><time>2026-05-02T08:21:08.999Z</time></trkpt><trkpt lat="44.012191003526226" lon="11.022443678812776"><ele>847.0</ele><time>2026-05-02T08:21:09.999Z</time></trkpt><trkpt lat="44.01221751712206" lon="11.022628911008773"><ele>847.0</ele><time>2026-05-02T08:21:10.999Z</time></trkpt><trkpt lat="44.012241039727016" lon="11.02275966720454"><ele>847.0</ele><time>2026-05-02T08:21:11.999Z</time></trkpt><trkpt lat="44.01224775163439" lon="11.02284857765273"><ele>842.4999999999999</ele><time>2026-05-02T08:21:12.999Z</time></trkpt><trkpt lat="44.01219919138523" lon="11.022911817842093"><ele>838.0</ele><time>2026-05-02T08:21:13.999Z</time></trkpt><trkpt lat="44.01213364235609" lon="11.02292306682577"><ele>833.5</ele><time>2026-05-02T08:21:14.999Z</time></trkpt><trkpt lat="44.01205169544636" lon="11.02281122729936"><ele>829.0</ele><time>2026-05-02T08:21:15.999Z</time></trkpt><trkpt lat="44.011964206895115" lon="11.022740415514292"><ele>824.4999999999999</ele><time>2026-05-02T08:21:16.999Z</time></trkpt><trkpt lat="44.01190745775783" lon="11.022698527238285"><ele>820.0</ele><time>2026-05-02T08:21:17.999Z</time></trkpt><trkpt lat="44.01184223428745" lon="11.022685706072828"><ele>820.0</ele><time>2026-05-02T08:21:18.999Z</time></trkpt><trkpt lat="44.01178999499627" lon="11.022802408833337"><ele>820.0</ele><time>2026-05-02T08:21:19.999Z</time></trkpt><trkpt lat="44.011765094038836" lon="11.022974259387034"><ele>820.0</ele><time>2026-05-02T08:21:20.999Z</time></trkpt><trkpt lat="44.0117421310521" lon="11.023180376039372"><ele>820.0</ele><time>2026-05-02T08:21:21.999Z</time></trkpt><trkpt lat="44.011704755957055" lon="11.023367675990428"><ele>817.0</ele><time>2026-05-02T08:21:22.999Z</time></trkpt><trkpt lat="44.01169309809033" lon="11.023510415070696"><ele>814.0</ele><time>2026-05-02T08:21:23.999Z</time></trkpt><trkpt lat="44.01169962600471" lon="11.023620822612322"><ele>811.0</ele><time>2026-05-02T08:21:24.999Z</time></trkpt><trkpt lat="44.01172877236429" lon="11.023704915750995"><ele>808.0</ele><time>2026-05-02T08:21:25.999Z</time></trkpt><trkpt lat="44.01181082902912" lon="11.023744037833422"><ele>805.0</ele><time>2026-05-02T08:21:26.999Z</time></trkpt><trkpt lat="44.01192533742264" lon="11.023705302060186"><ele>805.0</ele><time>2026-05-02T08:21:27.999Z</time></trkpt><trkpt lat="44.01204617706001" lon="11.023716236294312"><ele>805.0</ele><time>2026-05-02T08:21:28.999Z</time></trkpt><trkpt lat="44.01216310864753" lon="11.023791860499651"><ele>805.0</ele><time>2026-05-02T08:21:29.999Z</time></trkpt><trkpt lat="44.01228523896531" lon="11.0239175810171"><ele>805.0</ele><time>2026-05-02T08:21:30.999Z</time></trkpt><trkpt lat="44.01245648238935" lon="11.024003323294822"><ele>809.0</ele><time>2026-05-02T08:21:31.999Z</time></trkpt><trkpt lat="44.012648277352014" lon="11.024065030682813"><ele>813.0</ele><time>2026-05-02T08:21:32.999Z</time></trkpt><trkpt lat="44.01281435315667" lon="11.02414897882996"><ele>817.0</ele><time>2026-05-02T08:21:33.999Z</time></trkpt><trkpt lat="44.012958085565046" lon="11.024256244011895"><ele>814.2</ele><time>2026-05-02T08:21:34.999Z</time></trkpt><trkpt lat="44.01306840948477" lon="11.024362326267637"><ele>811.4000000000001</ele><time>2026-05-02T08:21:35.999Z</time></trkpt><trkpt lat="44.01314857941172" lon="11.024444749986207"><ele>808.5999999999999</ele><time>2026-05-02T08:21:36.999Z</time></trkpt><trkpt lat="44.01322121902005" lon="11.024511458984147"><ele>805.8</ele><time>2026-05-02T08:21:37.999Z</time></trkpt><trkpt lat="44.0133035632286" lon="11.02455747751251"><ele>803.0</ele><time>2026-05-02T08:21:38.999Z</time></trkpt><trkpt lat="44.013398918866876" lon="11.024535249348947"><ele>803.0</ele><time>2026-05-02T08:21:39.999Z</time></trkpt><trkpt lat="44.01350009340303" lon="11.02452371463725"><ele>803.0</ele><time>2026-05-02T08:21:41.999Z</time></trkpt><trkpt lat="44.013531287501266" lon="11.024615482265807"><ele>803.0</ele><time>2026-05-02T08:21:42.999Z</time></trkpt><trkpt lat="44.01352212093568" lon="11.024749299182982"><ele>803.0</ele><time>2026-05-02T08:21:43.999Z</time></trkpt><trkpt lat="44.013512436288124" lon="11.024890618062907"><ele>803.0</ele><time>2026-05-02T08:21:44.999Z</time></trkpt><trkpt lat="44.013508236178104" lon="11.025017339643732"><ele>797.6666666666667</ele><time>2026-05-02T08:21:45.999Z</time></trkpt><trkpt lat="44.0135102710154" lon="11.025116421288605"><ele>792.3333333333334</ele><time>2026-05-02T08:21:46.999Z</time></trkpt><trkpt lat="44.01351694211643" lon="11.025214597785666"><ele>787.0</ele><time>2026-05-02T08:21:47.999Z</time></trkpt><trkpt lat="44.01352577057095" lon="11.025301949430663"><ele>781.6666666666667</ele><time>2026-05-02T08:21:48.999Z</time></trkpt><trkpt lat="44.01354491727118" lon="11.025467853183882"><ele>776.3333333333334</ele><time>2026-05-02T08:21:50.999Z</time></trkpt><trkpt lat="44.01358073627983" lon="11.025541283169588"><ele>771.0</ele><time>2026-05-02T08:21:51.999Z</time></trkpt><trkpt lat="44.01362909041211" lon="11.025629681947697"><ele>771.0</ele><time>2026-05-02T08:21:52.999Z</time></trkpt><trkpt lat="44.013723828316316" lon="11.025697155278571"><ele>771.0</ele><time>2026-05-02T08:21:53.999Z</time></trkpt><trkpt lat="44.01382743054229" lon="11.02576418406325"><ele>771.0</ele><time>2026-05-02T08:21:54.999Z</time></trkpt><trkpt lat="44.01392605112513" lon="11.025830776496315"><ele>771.0</ele><time>2026-05-02T08:21:55.999Z</time></trkpt><trkpt lat="44.01402541920795" lon="11.025879335596203"><ele>771.0</ele><time>2026-05-02T08:21:56.999Z</time></trkpt><trkpt lat="44.0141195109212" lon="11.025929771200271"><ele>770.1999999999999</ele><time>2026-05-02T08:21:57.999Z</time></trkpt><trkpt lat="44.014218864933426" lon="11.025953100246683"><ele>769.4</ele><time>2026-05-02T08:21:58.999Z</time></trkpt><trkpt lat="44.014323093610926" lon="11.02598933404876"><ele>768.6</ele><time>2026-05-02T08:21:59.999Z</time></trkpt><trkpt lat="44.01442615746089" lon="11.02598452580898"><ele>767.8</ele><time>2026-05-02T08:22:00.999Z</time></trkpt><trkpt lat="44.01451423554748" lon="11.02597895793296"><ele>767.0</ele><time>2026-05-02T08:22:01.999Z</time></trkpt><trkpt lat="44.014606070810466" lon="11.025978471404622"><ele>767.0</ele><time>2026-05-02T08:22:02.999Z</time></trkpt><trkpt lat="44.01469577526306" lon="11.025996591777407"><ele>767.0</ele><time>2026-05-02T08:22:03.999Z</time></trkpt><trkpt lat="44.01479520619513" lon="11.026119455832006"><ele>767.0</ele><time>2026-05-02T08:22:04.999Z</time></trkpt><trkpt lat="44.014931132906696" lon="11.02623322691712"><ele>767.0</ele><time>2026-05-02T08:22:05.999Z</time></trkpt><trkpt lat="44.015083488390054" lon="11.026340576421669"><ele>769.5</ele><time>2026-05-02T08:22:06.999Z</time></trkpt><trkpt lat="44.01522086704999" lon="11.026434076577218"><ele>772.0</ele><time>2026-05-02T08:22:08Z</time></trkpt><trkpt lat="44.015337733313096" lon="11.026515353929328"><ele>774.5</ele><time>2026-05-02T08:22:09Z</time></trkpt><trkpt lat="44.01543501418941" lon="11.026583584738761"><ele>777.0</ele><time>2026-05-02T08:22:10Z</time></trkpt><trkpt lat="44.01552349581509" lon="11.026641864927944"><ele>774.5</ele><time>2026-05-02T08:22:11Z</time></trkpt><trkpt lat="44.01560872723533" lon="11.026707921234618"><ele>772.0</ele><time>2026-05-02T08:22:12Z</time></trkpt><trkpt lat="44.015672280826976" lon="11.026850233706435"><ele>769.5</ele><time>2026-05-02T08:22:13Z</time></trkpt><trkpt lat="44.015763158471195" lon="11.027062686730916"><ele>767.0</ele><time>2026-05-02T08:22:14Z</time></trkpt><trkpt lat="44.01586887048028" lon="11.027308143203383"><ele>762.0</ele><time>2026-05-02T08:22:15Z</time></trkpt><trkpt lat="44.015980442401364" lon="11.027561323723697"><ele>757.0</ele><time>2026-05-02T08:22:16Z</time></trkpt><trkpt lat="44.01608617900246" lon="11.027800253205095"><ele>752.0</ele><time>2026-05-02T08:22:17Z</time></trkpt><trkpt lat="44.01618835428764" lon="11.028021802612969"><ele>752.0</ele><time>2026-05-02T08:22:18Z</time></trkpt><trkpt lat="44.016299762898896" lon="11.028230585016159"><ele>752.0</ele><time>2026-05-02T08:22:19Z</time></trkpt><trkpt lat="44.01644230971901" lon="11.028445195312786"><ele>752.0</ele><time>2026-05-02T08:22:20Z</time></trkpt><trkpt lat="44.016603472831385" lon="11.028646748457357"><ele>751.0</ele><time>2026-05-02T08:22:21Z</time></trkpt><trkpt lat="44.01675765873249" lon="11.028834198495959"><ele>750.0</ele><time>2026-05-02T08:22:22Z</time></trkpt><trkpt lat="44.016866531243984" lon="11.029044211546179"><ele>749.0</ele><time>2026-05-02T08:22:23Z</time></trkpt><trkpt lat="44.0169600936076" lon="11.02924162788254"><ele>746.75</ele><time>2026-05-02T08:22:24Z</time></trkpt><trkpt lat="44.01705227272476" lon="11.029407287777664"><ele>744.5</ele><time>2026-05-02T08:22:25Z</time></trkpt><trkpt lat="44.01715162174506" lon="11.029530753951997"><ele>742.25</ele><time>2026-05-02T08:22:26Z</time></trkpt><trkpt lat="44.01727491799843" lon="11.029630183881121"><ele>740.0</ele><time>2026-05-02T08:22:27Z</time></trkpt><trkpt lat="44.01744065387948" lon="11.029659569467146"><ele>744.0</ele><time>2026-05-02T08:22:28Z</time></trkpt><trkpt lat="44.017632145887546" lon="11.02967824113742"><ele>748.0</ele><time>2026-05-02T08:22:29Z</time></trkpt><trkpt lat="44.01783792166501" lon="11.029689217719245"><ele>752.0</ele><time>2026-05-02T08:22:30Z</time></trkpt><trkpt lat="44.018034721390876" lon="11.029712867909439"><ele>752.0</ele><time>2026-05-02T08:22:31Z</time></trkpt><trkpt lat="44.01823169908708" lon="11.029769884471222"><ele>752.0</ele><time>2026-05-02T08:22:32Z</time></trkpt><trkpt lat="44.01844355187127" lon="11.029855564768603"><ele>752.0</ele><time>2026-05-02T08:22:33Z</time></trkpt><trkpt lat="44.01865895141399" lon="11.029960470799878"><ele>745.0</ele><time>2026-05-02T08:22:34Z</time></trkpt><trkpt lat="44.01888028676317" lon="11.030065322723509"><ele>738.0</ele><time>2026-05-02T08:22:35Z</time></trkpt><trkpt lat="44.019093168405504" lon="11.030216428128671"><ele>740.5</ele><time>2026-05-02T08:22:36Z</time></trkpt><trkpt lat="44.01931227205236" lon="11.030380775490947"><ele>743.0</ele><time>2026-05-02T08:22:37Z</time></trkpt><trkpt lat="44.01952095584764" lon="11.030565128338552"><ele>743.0</ele><time>2026-05-02T08:22:38Z</time></trkpt><trkpt lat="44.01970710551102" lon="11.030751720567306"><ele>743.0</ele><time>2026-05-02T08:22:39Z</time></trkpt><trkpt lat="44.019881742241374" lon="11.030925310114048"><ele>743.0</ele><time>2026-05-02T08:22:39.999Z</time></trkpt><trkpt lat="44.020044724452596" lon="11.031105104245167"><ele>738.0</ele><time>2026-05-02T08:22:40.999Z</time></trkpt><trkpt lat="44.020230551948565" lon="11.031229257397163"><ele>733.0</ele><time>2026-05-02T08:22:41.999Z</time></trkpt><trkpt lat="44.02041922743401" lon="11.031337541630323"><ele>728.0</ele><time>2026-05-02T08:22:42.999Z</time></trkpt><trkpt lat="44.02060039357388" lon="11.031428586730835"><ele>728.0</ele><time>2026-05-02T08:22:43.999Z</time></trkpt><trkpt lat="44.020738127629066" lon="11.031501833496659"><ele>728.0</ele><time>2026-05-02T08:22:44.999Z</time></trkpt><trkpt lat="44.02082024434883" lon="11.031643542647995"><ele>728.0</ele><time>2026-05-02T08:22:45.999Z</time></trkpt><trkpt lat="44.02086296279579" lon="11.03181597526741"><ele>728.0</ele><time>2026-05-02T08:22:46.999Z</time></trkpt><trkpt lat="44.0208586333708" lon="11.032023161251367"><ele>728.75</ele><time>2026-05-02T08:22:47.999Z</time></trkpt><trkpt lat="44.02082826233335" lon="11.032223489588533"><ele>729.5</ele><time>2026-05-02T08:22:48.999Z</time></trkpt><trkpt lat="44.020830486815875" lon="11.032396721733411"><ele>730.25</ele><time>2026-05-02T08:22:49.999Z</time></trkpt><trkpt lat="44.02088523975636" lon="11.032568257014796"><ele>731.0</ele><time>2026-05-02T08:22:50.999Z</time></trkpt><trkpt lat="44.02097106165178" lon="11.032724483894027"><ele>727.75</ele><time>2026-05-02T08:22:51.999Z</time></trkpt><trkpt lat="44.02107783827615" lon="11.032835435715445"><ele>724.5</ele><time>2026-05-02T08:22:52.999Z</time></trkpt><trkpt lat="44.02121330082319" lon="11.032895896252606"><ele>721.25</ele><time>2026-05-02T08:22:53.999Z</time></trkpt><trkpt lat="44.02136954645441" lon="11.032909210844664"><ele>718.0</ele><time>2026-05-02T08:22:54.999Z</time></trkpt><trkpt lat="44.02154227650317" lon="11.032875473919596"><ele>722.3333333333334</ele><time>2026-05-02T08:22:55.999Z</time></trkpt><trkpt lat="44.021710345531915" lon="11.03287889743342"><ele>726.6666666666666</ele><time>2026-05-02T08:22:56.999Z</time></trkpt><trkpt lat="44.02186757007514" lon="11.032953595269436"><ele>731.0</ele><time>2026-05-02T08:22:57.999Z</time></trkpt><trkpt lat="44.02201314974672" lon="11.033099597746748"><ele>731.0</ele><time>2026-05-02T08:22:58.999Z</time></trkpt><trkpt lat="44.02214484296732" lon="11.033270933236606"><ele>731.0</ele><time>2026-05-02T08:22:59.999Z</time></trkpt><trkpt lat="44.022294185080135" lon="11.033399792378564"><ele>731.0</ele><time>2026-05-02T08:23:00.999Z</time></trkpt><trkpt lat="44.022473714563255" lon="11.033482655682635"><ele>724.6666666666666</ele><time>2026-05-02T08:23:01.999Z</time></trkpt><trkpt lat="44.02268248512232" lon="11.033507893054574"><ele>718.3333333333334</ele><time>2026-05-02T08:23:02.999Z</time></trkpt><trkpt lat="44.02288806520682" lon="11.033568996379502"><ele>712.0</ele><time>2026-05-02T08:23:03.999Z</time></trkpt><trkpt lat="44.023105275148154" lon="11.033620021520179"><ele>717.0</ele><time>2026-05-02T08:23:04.999Z</time></trkpt><trkpt lat="44.0233289188932" lon="11.033668426059469"><ele>722.0</ele><time>2026-05-02T08:23:05.999Z</time></trkpt><trkpt lat="44.02355884167289" lon="11.033748465370145"><ele>722.0</ele><time>2026-05-02T08:23:06.999Z</time></trkpt><trkpt lat="44.023788447601355" lon="11.033835089056712"><ele>722.0</ele><time>2026-05-02T08:23:07.999Z</time></trkpt><trkpt lat="44.0239997103086" lon="11.033936737777953"><ele>727.0</ele><time>2026-05-02T08:23:08.999Z</time></trkpt><trkpt lat="44.02418811990558" lon="11.034060734012545"><ele>732.0</ele><time>2026-05-02T08:23:09.999Z</time></trkpt><trkpt lat="44.024344975286475" lon="11.034194244684091"><ele>737.0</ele><time>2026-05-02T08:23:10.999Z</time></trkpt><trkpt lat="44.024486495949745" lon="11.03430743801995"><ele>728.0</ele><time>2026-05-02T08:23:11.999Z</time></trkpt><trkpt lat="44.02462363867842" lon="11.034400462484966"><ele>719.0</ele><time>2026-05-02T08:23:12.999Z</time></trkpt><trkpt lat="44.02475118831469" lon="11.034465833206957"><ele>710.0</ele><time>2026-05-02T08:23:13.999Z</time></trkpt><trkpt lat="44.024874799422506" lon="11.034490785166398"><ele>701.0</ele><time>2026-05-02T08:23:14.999Z</time></trkpt><trkpt lat="44.02497701106977" lon="11.034470054221009"><ele>702.1999999999999</ele><time>2026-05-02T08:23:15.999Z</time></trkpt><trkpt lat="44.0250524265688" lon="11.034454488760312"><ele>703.4</ele><time>2026-05-02T08:23:16.999Z</time></trkpt><trkpt lat="44.02514358126674" lon="11.034527452803305"><ele>704.6</ele><time>2026-05-02T08:23:18.999Z</time></trkpt><trkpt lat="44.02520637269579" lon="11.034610763311072"><ele>705.8</ele><time>2026-05-02T08:23:19.999Z</time></trkpt><trkpt lat="44.025293988861826" lon="11.034700366929409"><ele>707.0</ele><time>2026-05-02T08:23:20.999Z</time></trkpt><trkpt lat="44.02542094386603" lon="11.0347504030098"><ele>707.0</ele><time>2026-05-02T08:23:21.999Z</time></trkpt><trkpt lat="44.02555760775135" lon="11.034846508099232"><ele>707.0</ele><time>2026-05-02T08:23:22.999Z</time></trkpt><trkpt lat="44.02569834138473" lon="11.034954983279329"><ele>707.0</ele><time>2026-05-02T08:23:23.999Z</time></trkpt><trkpt lat="44.025853991426075" lon="11.035079252223303"><ele>706.6666666666666</ele><time>2026-05-02T08:23:24.999Z</time></trkpt><trkpt lat="44.02601730070555" lon="11.035215727897631"><ele>706.3333333333334</ele><time>2026-05-02T08:23:25.999Z</time></trkpt><trkpt lat="44.02618881130006" lon="11.035367419455776"><ele>706.0</ele><time>2026-05-02T08:23:26.999Z</time></trkpt><trkpt lat="44.02636168616334" lon="11.035532560809502"><ele>706.0</ele><time>2026-05-02T08:23:27.999Z</time></trkpt><trkpt lat="44.026528891865325" lon="11.03569169962745"><ele>706.0</ele><time>2026-05-02T08:23:28.999Z</time></trkpt><trkpt lat="44.0266729918461" lon="11.03585459200025"><ele>706.0</ele><time>2026-05-02T08:23:29.999Z</time></trkpt><trkpt lat="44.02681199355006" lon="11.036007537075404"><ele>705.0</ele><time>2026-05-02T08:23:30.999Z</time></trkpt><trkpt lat="44.026946672280275" lon="11.036172410051073"><ele>704.0</ele><time>2026-05-02T08:23:31.999Z</time></trkpt><trkpt lat="44.02708678562957" lon="11.036349380658796"><ele>703.0</ele><time>2026-05-02T08:23:32.999Z</time></trkpt><trkpt lat="44.027227537577865" lon="11.03653331981194"><ele>705.3333333333334</ele><time>2026-05-02T08:23:33.999Z</time></trkpt><trkpt lat="44.02736582057432" lon="11.036722689183161"><ele>707.6666666666666</ele><time>2026-05-02T08:23:34.999Z</time></trkpt><trkpt lat="44.027490643114916" lon="11.036914143252787"><ele>710.0</ele><time>2026-05-02T08:23:35.999Z</time></trkpt><trkpt lat="44.02759686109648" lon="11.037108836668967"><ele>710.0</ele><time>2026-05-02T08:23:36.999Z</time></trkpt><trkpt lat="44.02769525443644" lon="11.037286162878825"><ele>710.0</ele><time>2026-05-02T08:23:37.999Z</time></trkpt><trkpt lat="44.02780380902609" lon="11.037453636021922"><ele>710.0</ele><time>2026-05-02T08:23:38.999Z</time></trkpt><trkpt lat="44.02794284265387" lon="11.03760276837386"><ele>705.6666666666666</ele><time>2026-05-02T08:23:39.999Z</time></trkpt><trkpt lat="44.02810178789829" lon="11.037738494918434"><ele>701.3333333333334</ele><time>2026-05-02T08:23:40.999Z</time></trkpt><trkpt lat="44.02827283513446" lon="11.037863714212438"><ele>697.0</ele><time>2026-05-02T08:23:41.999Z</time></trkpt><trkpt lat="44.02844295371888" lon="11.03795159236098"><ele>697.0</ele><time>2026-05-02T08:23:42.999Z</time></trkpt><trkpt lat="44.02859498790276" lon="11.037990386779851"><ele>697.0</ele><time>2026-05-02T08:23:43.999Z</time></trkpt><trkpt lat="44.02872609227879" lon="11.038039547020963"><ele>697.0</ele><time>2026-05-02T08:23:44.999Z</time></trkpt><trkpt lat="44.02883726593385" lon="11.03806539560674"><ele>697.0</ele><time>2026-05-02T08:23:45.999Z</time></trkpt><trkpt lat="44.02893509408359" lon="11.03810354360098"><ele>697.0</ele><time>2026-05-02T08:23:46.999Z</time></trkpt><trkpt lat="44.02900519978526" lon="11.038209396216486"><ele>697.0</ele><time>2026-05-02T08:23:47.999Z</time></trkpt><trkpt lat="44.029056160986705" lon="11.03834475953293"><ele>697.0</ele><time>2026-05-02T08:23:48.999Z</time></trkpt><trkpt lat="44.029118699037085" lon="11.038468420598575"><ele>697.0</ele><time>2026-05-02T08:23:49.999Z</time></trkpt><trkpt lat="44.02922155843373" lon="11.038555724536643"><ele>697.0</ele><time>2026-05-02T08:23:50.999Z</time></trkpt><trkpt lat="44.02931572049546" lon="11.038616554004562"><ele>694.5</ele><time>2026-05-02T08:23:51.999Z</time></trkpt><trkpt lat="44.0294290234853" lon="11.0386447239924"><ele>692.0</ele><time>2026-05-02T08:23:52.999Z</time></trkpt><trkpt lat="44.02955173866567" lon="11.038670560214024"><ele>689.5</ele><time>2026-05-02T08:23:53.999Z</time></trkpt><trkpt lat="44.02967344716289" lon="11.03872818995171"><ele>687.0</ele><time>2026-05-02T08:23:54.999Z</time></trkpt><trkpt lat="44.029808034397874" lon="11.038796304476264"><ele>687.0</ele><time>2026-05-02T08:23:55.999Z</time></trkpt><trkpt lat="44.02996798730439" lon="11.038860684091672"><ele>687.0</ele><time>2026-05-02T08:23:56.999Z</time></trkpt><trkpt lat="44.03016794557331" lon="11.038947952614341"><ele>687.0</ele><time>2026-05-02T08:23:57.999Z</time></trkpt><trkpt lat="44.03039782720905" lon="11.039013616497964"><ele>686.3333333333334</ele><time>2026-05-02T08:23:58.999Z</time></trkpt><trkpt lat="44.03060890400252" lon="11.03907749118337"><ele>685.6666666666667</ele><time>2026-05-02T08:23:59.999Z</time></trkpt><trkpt lat="44.03080159613471" lon="11.039121862831623"><ele>685.0</ele><time>2026-05-02T08:24:00.999Z</time></trkpt><trkpt lat="44.03097112733551" lon="11.039184106033952"><ele>685.0</ele><time>2026-05-02T08:24:01.999Z</time></trkpt><trkpt lat="44.03111998939914" lon="11.039246693889332"><ele>685.0</ele><time>2026-05-02T08:24:02.999Z</time></trkpt><trkpt lat="44.03125293342788" lon="11.039325347379066"><ele>685.0</ele><time>2026-05-02T08:24:03.999Z</time></trkpt><trkpt lat="44.031377350317506" lon="11.03941861825068"><ele>685.0</ele><time>2026-05-02T08:24:04.999Z</time></trkpt><trkpt lat="44.031508212287186" lon="11.039539328039993"><ele>685.0</ele><time>2026-05-02T08:24:05.999Z</time></trkpt><trkpt lat="44.03162413601919" lon="11.039656613223727"><ele>685.0</ele><time>2026-05-02T08:24:06.999Z</time></trkpt><trkpt lat="44.03173527014338" lon="11.039737178416955"><ele>685.0</ele><time>2026-05-02T08:24:07.999Z</time></trkpt><trkpt lat="44.031842904441" lon="11.039798300878497"><ele>685.0</ele><time>2026-05-02T08:24:08.999Z</time></trkpt><trkpt lat="44.03194514765402" lon="11.03985200318617"><ele>684.5</ele><time>2026-05-02T08:24:09.999Z</time></trkpt><trkpt lat="44.032076577742565" lon="11.03988818821883"><ele>684.0</ele><time>2026-05-02T08:24:10.999Z</time></trkpt><trkpt lat="44.032219255607416" lon="11.039914582436635"><ele>683.5</ele><time>2026-05-02T08:24:11.999Z</time></trkpt><trkpt lat="44.03237444254015" lon="11.039949832976983"><ele>683.0</ele><time>2026-05-02T08:24:12.999Z</time></trkpt><trkpt lat="44.032528810544264" lon="11.040014389334825"><ele>681.0</ele><time>2026-05-02T08:24:14Z</time></trkpt><trkpt lat="44.032691240685025" lon="11.040101184347538"><ele>679.0</ele><time>2026-05-02T08:24:15Z</time></trkpt><trkpt lat="44.03284784727233" lon="11.04023197152393"><ele>677.0</ele><time>2026-05-02T08:24:16Z</time></trkpt><trkpt lat="44.033024039906216" lon="11.040283026456272"><ele>677.0</ele><time>2026-05-02T08:24:17Z</time></trkpt><trkpt lat="44.03319448512371" lon="11.040368092663007"><ele>677.0</ele><time>2026-05-02T08:24:18Z</time></trkpt><trkpt lat="44.03335367466685" lon="11.040462742423085"><ele>677.0</ele><time>2026-05-02T08:24:19Z</time></trkpt><trkpt lat="44.03349512710482" lon="11.040570784031846"><ele>676.25</ele><time>2026-05-02T08:24:20Z</time></trkpt><trkpt lat="44.03362322797431" lon="11.040675732313407"><ele>675.5</ele><time>2026-05-02T08:24:21Z</time></trkpt><trkpt lat="44.03373459596536" lon="11.040750408242948"><ele>674.75</ele><time>2026-05-02T08:24:22Z</time></trkpt><trkpt lat="44.033848258173485" lon="11.040819435752457"><ele>674.0</ele><time>2026-05-02T08:24:23Z</time></trkpt><trkpt lat="44.03396205795459" lon="11.040833765414682"><ele>675.5</ele><time>2026-05-02T08:24:24Z</time></trkpt><trkpt lat="44.03411436215294" lon="11.040846092976722"><ele>677.0</ele><time>2026-05-02T08:24:25Z</time></trkpt><trkpt lat="44.03422662296348" lon="11.040839580900215"><ele>678.5</ele><time>2026-05-02T08:24:26Z</time></trkpt><trkpt lat="44.03434163035219" lon="11.04083047738719"><ele>680.0</ele><time>2026-05-02T08:24:27Z</time></trkpt><trkpt lat="44.03444419011552" lon="11.040797822048392"><ele>680.0</ele><time>2026-05-02T08:24:28Z</time></trkpt><trkpt lat="44.03453939576477" lon="11.040694198482855"><ele>680.0</ele><time>2026-05-02T08:24:29Z</time></trkpt><trkpt lat="44.0346447289129" lon="11.040617361469346"><ele>680.0</ele><time>2026-05-02T08:24:30Z</time></trkpt><trkpt lat="44.03472706211456" lon="11.04050040090645"><ele>680.0</ele><time>2026-05-02T08:24:31Z</time></trkpt><trkpt lat="44.03480857772627" lon="11.040383948554176"><ele>680.0</ele><time>2026-05-02T08:24:32Z</time></trkpt><trkpt lat="44.0348842048474" lon="11.040273340416265"><ele>680.0</ele><time>2026-05-02T08:24:33Z</time></trkpt><trkpt lat="44.0349715533804" lon="11.040157319056908"><ele>680.0</ele><time>2026-05-02T08:24:34Z</time></trkpt><trkpt lat="44.03503418593066" lon="11.040036338969848"><ele>680.0</ele><time>2026-05-02T08:24:35Z</time></trkpt><trkpt lat="44.035109446729074" lon="11.03994891950192"><ele>680.0</ele><time>2026-05-02T08:24:36Z</time></trkpt><trkpt lat="44.03518336221528" lon="11.03986594889802"><ele>680.8</ele><time>2026-05-02T08:24:37Z</time></trkpt><trkpt lat="44.03527457237116" lon="11.039788455314746"><ele>681.6</ele><time>2026-05-02T08:24:38Z</time></trkpt><trkpt lat="44.03538176735072" lon="11.0397255328211"><ele>682.4000000000001</ele><time>2026-05-02T08:24:39Z</time></trkpt><trkpt lat="44.03549013557142" lon="11.039681928892104"><ele>683.2</ele><time>2026-05-02T08:24:40Z</time></trkpt><trkpt lat="44.03557996798128" lon="11.039655987827368"><ele>684.0</ele><time>2026-05-02T08:24:41Z</time></trkpt><trkpt lat="44.035658080931434" lon="11.039653243790825"><ele>684.0</ele><time>2026-05-02T08:24:42Z</time></trkpt><trkpt lat="44.03574565771021" lon="11.039694671169478"><ele>684.0</ele><time>2026-05-02T08:24:43Z</time></trkpt><trkpt lat="44.035835429669916" lon="11.039760975696437"><ele>684.0</ele><time>2026-05-02T08:24:44Z</time></trkpt><trkpt lat="44.03591504902714" lon="11.039830581503626"><ele>684.0</ele><time>2026-05-02T08:24:45Z</time></trkpt><trkpt lat="44.03598561950596" lon="11.039875639754072"><ele>684.0</ele><time>2026-05-02T08:24:46Z</time></trkpt><trkpt lat="44.03605432548308" lon="11.039866677645444"><ele>684.0</ele><time>2026-05-02T08:24:47Z</time></trkpt><trkpt lat="44.036141707227735" lon="11.039841520181195"><ele>682.8000000000001</ele><time>2026-05-02T08:24:47.999Z</time></trkpt><trkpt lat="44.03619537366951" lon="11.039682910957866"><ele>681.6</ele><time>2026-05-02T08:24:48.999Z</time></trkpt><trkpt lat="44.03626139809575" lon="11.03959212279483"><ele>680.4</ele><time>2026-05-02T08:24:49.999Z</time></trkpt><trkpt lat="44.03633645321615" lon="11.039568204509209"><ele>679.2</ele><time>2026-05-02T08:24:50.999Z</time></trkpt><trkpt lat="44.0364301603695" lon="11.039615038598352"><ele>678.0</ele><time>2026-05-02T08:24:51.999Z</time></trkpt><trkpt lat="44.036561738970434" lon="11.039607295925528"><ele>677.0</ele><time>2026-05-02T08:24:52.999Z</time></trkpt><trkpt lat="44.03668909118771" lon="11.039516958109717"><ele>676.0</ele><time>2026-05-02T08:24:53.999Z</time></trkpt><trkpt lat="44.036797224396096" lon="11.03937912331392"><ele>675.0</ele><time>2026-05-02T08:24:54.999Z</time></trkpt><trkpt lat="44.03688947542716" lon="11.039219475172136"><ele>674.0</ele><time>2026-05-02T08:24:55.999Z</time></trkpt><trkpt lat="44.036957700052255" lon="11.0390686320439"><ele>674.0</ele><time>2026-05-02T08:24:56.999Z</time></trkpt><trkpt lat="44.037017475409904" lon="11.038972122258585"><ele>674.0</ele><time>2026-05-02T08:24:57.999Z</time></trkpt><trkpt lat="44.03709074423433" lon="11.038909605623758"><ele>674.0</ele><time>2026-05-02T08:24:58.999Z</time></trkpt><trkpt lat="44.0371804871053" lon="11.038858245391879"><ele>674.0</ele><time>2026-05-02T08:24:59.999Z</time></trkpt><trkpt lat="44.037274278391614" lon="11.03880660453236"><ele>674.0</ele><time>2026-05-02T08:25:00.999Z</time></trkpt><trkpt lat="44.037371966019414" lon="11.038716503789443"><ele>674.0</ele><time>2026-05-02T08:25:01.999Z</time></trkpt><trkpt lat="44.037448430820234" lon="11.038584963449749"><ele>674.0</ele><time>2026-05-02T08:25:02.999Z</time></trkpt><trkpt lat="44.03750316031238" lon="11.038450818247325"><ele>674.0</ele><time>2026-05-02T08:25:03.999Z</time></trkpt><trkpt lat="44.03753982131117" lon="11.038313725084652"><ele>674.0</ele><time>2026-05-02T08:25:04.999Z</time></trkpt><trkpt lat="44.03764388197888" lon="11.038178224359232"><ele>674.0</ele><time>2026-05-02T08:25:05.999Z</time></trkpt><trkpt lat="44.03775853838772" lon="11.038029506266772"><ele>674.0</ele><time>2026-05-02T08:25:06.999Z</time></trkpt><trkpt lat="44.03786878658103" lon="11.037923952521352"><ele>674.0</ele><time>2026-05-02T08:25:07.999Z</time></trkpt><trkpt lat="44.037980327442696" lon="11.037827072505362"><ele>674.0</ele><time>2026-05-02T08:25:08.999Z</time></trkpt><trkpt lat="44.038087355719526" lon="11.037725768424426"><ele>674.0</ele><time>2026-05-02T08:25:09.999Z</time></trkpt><trkpt lat="44.038182632548214" lon="11.037624401706402"><ele>674.0</ele><time>2026-05-02T08:25:10.999Z</time></trkpt><trkpt lat="44.038267941637" lon="11.037503300916102"><ele>674.0</ele><time>2026-05-02T08:25:11.999Z</time></trkpt><trkpt lat="44.03834843673322" lon="11.03736330326229"><ele>674.0</ele><time>2026-05-02T08:25:12.999Z</time></trkpt><trkpt lat="44.038419831302285" lon="11.03720942837582"><ele>671.4000000000001</ele><time>2026-05-02T08:25:13.999Z</time></trkpt><trkpt lat="44.03847430275064" lon="11.037067675415662"><ele>668.8</ele><time>2026-05-02T08:25:14.999Z</time></trkpt><trkpt lat="44.03851230099086" lon="11.036941030560333"><ele>666.2</ele><time>2026-05-02T08:25:15.999Z</time></trkpt><trkpt lat="44.03855892272402" lon="11.036844179884561"><ele>663.5999999999999</ele><time>2026-05-02T08:25:16.999Z</time></trkpt><trkpt lat="44.03861729459074" lon="11.03676724296562"><ele>661.0</ele><time>2026-05-02T08:25:17.999Z</time></trkpt><trkpt lat="44.0387236790094" lon="11.036735569854633"><ele>661.0</ele><time>2026-05-02T08:25:18.999Z</time></trkpt><trkpt lat="44.03884284023268" lon="11.036761001410927"><ele>661.0</ele><time>2026-05-02T08:25:19.999Z</time></trkpt><trkpt lat="44.03897270853787" lon="11.036767263873573"><ele>661.0</ele><time>2026-05-02T08:25:20.999Z</time></trkpt><trkpt lat="44.039123356274864" lon="11.036745498316353"><ele>661.0</ele><time>2026-05-02T08:25:21.999Z</time></trkpt><trkpt lat="44.03926698434946" lon="11.036706359714545"><ele>661.75</ele><time>2026-05-02T08:25:22.999Z</time></trkpt><trkpt lat="44.039405031465556" lon="11.036744030977106"><ele>662.5</ele><time>2026-05-02T08:25:23.999Z</time></trkpt><trkpt lat="44.039529418255526" lon="11.036808749576366"><ele>663.25</ele><time>2026-05-02T08:25:24.999Z</time></trkpt><trkpt lat="44.03965808957324" lon="11.036808578322278"><ele>664.0</ele><time>2026-05-02T08:25:25.999Z</time></trkpt><trkpt lat="44.03978493264561" lon="11.036878062506014"><ele>664.0</ele><time>2026-05-02T08:25:26.999Z</time></trkpt><trkpt lat="44.03993340181647" lon="11.036939297142288"><ele>664.0</ele><time>2026-05-02T08:25:27.999Z</time></trkpt><trkpt lat="44.04009662121351" lon="11.037011088441927"><ele>664.0</ele><time>2026-05-02T08:25:28.999Z</time></trkpt><trkpt lat="44.040253600589296" lon="11.037094703918802"><ele>660.3333333333334</ele><time>2026-05-02T08:25:29.999Z</time></trkpt><trkpt lat="44.040397556928184" lon="11.03718919626648"><ele>656.6666666666666</ele><time>2026-05-02T08:25:30.999Z</time></trkpt><trkpt lat="44.04052284467964" lon="11.037296840120643"><ele>653.0</ele><time>2026-05-02T08:25:31.999Z</time></trkpt><trkpt lat="44.04064617338725" lon="11.037412983281374"><ele>652.0</ele><time>2026-05-02T08:25:32.999Z</time></trkpt><trkpt lat="44.040759595947904" lon="11.037519393342821"><ele>651.0</ele><time>2026-05-02T08:25:33.999Z</time></trkpt><trkpt lat="44.04088813538043" lon="11.037600214359319"><ele>650.0</ele><time>2026-05-02T08:25:34.999Z</time></trkpt><trkpt lat="44.04101591419026" lon="11.037673655063585"><ele>649.0</ele><time>2026-05-02T08:25:35.999Z</time></trkpt><trkpt lat="44.041129073223644" lon="11.037753084932357"><ele>649.0</ele><time>2026-05-02T08:25:36.999Z</time></trkpt><trkpt lat="44.04121708129799" lon="11.037845545977373"><ele>649.0</ele><time>2026-05-02T08:25:37.999Z</time></trkpt><trkpt lat="44.04127995002565" lon="11.037959461940606"><ele>649.0</ele><time>2026-05-02T08:25:38.999Z</time></trkpt><trkpt lat="44.04132940691019" lon="11.038100878278753"><ele>649.0</ele><time>2026-05-02T08:25:39.999Z</time></trkpt><trkpt lat="44.041374993580014" lon="11.0382837214913"><ele>653.25</ele><time>2026-05-02T08:25:40.999Z</time></trkpt><trkpt lat="44.04141689485979" lon="11.038472433229867"><ele>657.5</ele><time>2026-05-02T08:25:41.999Z</time></trkpt><trkpt lat="44.041461710174204" lon="11.03865463285155"><ele>661.75</ele><time>2026-05-02T08:25:42.999Z</time></trkpt><trkpt lat="44.04152498195644" lon="11.038803782263464"><ele>666.0</ele><time>2026-05-02T08:25:43.999Z</time></trkpt><trkpt lat="44.041607375522275" lon="11.038930592062028"><ele>665.6666666666666</ele><time>2026-05-02T08:25:44.999Z</time></trkpt><trkpt lat="44.041718405208755" lon="11.039034569740739"><ele>665.3333333333333</ele><time>2026-05-02T08:25:45.999Z</time></trkpt><trkpt lat="44.04185997000588" lon="11.039114298384062"><ele>665.0</ele><time>2026-05-02T08:25:46.999Z</time></trkpt><trkpt lat="44.04203573320419" lon="11.03916145648794"><ele>665.0</ele><time>2026-05-02T08:25:47.999Z</time></trkpt><trkpt lat="44.04223799383872" lon="11.03918571364106"><ele>665.0</ele><time>2026-05-02T08:25:48.999Z</time></trkpt><trkpt lat="44.042418327147196" lon="11.039217729134565"><ele>665.0</ele><time>2026-05-02T08:25:49.999Z</time></trkpt><trkpt lat="44.04256845826328" lon="11.039217854752033"><ele>658.25</ele><time>2026-05-02T08:25:50.999Z</time></trkpt><trkpt lat="44.04269546599075" lon="11.03927939449977"><ele>651.5</ele><time>2026-05-02T08:25:51.999Z</time></trkpt><trkpt lat="44.042810259823256" lon="11.039389015432768"><ele>644.75</ele><time>2026-05-02T08:25:52.999Z</time></trkpt><trkpt lat="44.042928034505174" lon="11.039543937075749"><ele>638.0</ele><time>2026-05-02T08:25:53.999Z</time></trkpt><trkpt lat="44.043053370816516" lon="11.039708113910994"><ele>638.0</ele><time>2026-05-02T08:25:54.999Z</time></trkpt><trkpt lat="44.04317745063815" lon="11.039871769321866"><ele>638.0</ele><time>2026-05-02T08:25:55.999Z</time></trkpt><trkpt lat="44.043292231221365" lon="11.040017623823939"><ele>638.0</ele><time>2026-05-02T08:25:56.999Z</time></trkpt><trkpt lat="44.04340720095102" lon="11.040153682646787"><ele>642.0</ele><time>2026-05-02T08:25:57.999Z</time></trkpt><trkpt lat="44.04353245657101" lon="11.04027507640269"><ele>646.0</ele><time>2026-05-02T08:25:58.999Z</time></trkpt><trkpt lat="44.04367134707213" lon="11.04036217092892"><ele>650.0</ele><time>2026-05-02T08:25:59.999Z</time></trkpt><trkpt lat="44.04383323584257" lon="11.040409095504717"><ele>650.0</ele><time>2026-05-02T08:26:00.999Z</time></trkpt><trkpt lat="44.04401134067912" lon="11.040429211901897"><ele>650.0</ele><time>2026-05-02T08:26:01.999Z</time></trkpt><trkpt lat="44.044193418601836" lon="11.040442684124606"><ele>650.0</ele><time>2026-05-02T08:26:02.999Z</time></trkpt><trkpt lat="44.04437271361889" lon="11.040456829928273"><ele>645.3333333333333</ele><time>2026-05-02T08:26:03.999Z</time></trkpt><trkpt lat="44.04453783429416" lon="11.040473940364704"><ele>640.6666666666666</ele><time>2026-05-02T08:26:04.999Z</time></trkpt><trkpt lat="44.044704489775974" lon="11.04050280175272"><ele>636.0</ele><time>2026-05-02T08:26:05.999Z</time></trkpt><trkpt lat="44.044879095037004" lon="11.040550679685406"><ele>633.6666666666666</ele><time>2026-05-02T08:26:06.999Z</time></trkpt><trkpt lat="44.04506234551802" lon="11.040618256167045"><ele>631.3333333333333</ele><time>2026-05-02T08:26:07.999Z</time></trkpt><trkpt lat="44.04525479261762" lon="11.040708419724018"><ele>629.0</ele><time>2026-05-02T08:26:08.999Z</time></trkpt><trkpt lat="44.04546132075861" lon="11.04080877933585"><ele>629.3333333333333</ele><time>2026-05-02T08:26:09.999Z</time></trkpt><trkpt lat="44.045669321659794" lon="11.040906536122701"><ele>629.6666666666666</ele><time>2026-05-02T08:26:10.999Z</time></trkpt><trkpt lat="44.045864484294036" lon="11.041005928054274"><ele>630.0</ele><time>2026-05-02T08:26:11.999Z</time></trkpt><trkpt lat="44.04604820668454" lon="11.041109846842195"><ele>630.0</ele><time>2026-05-02T08:26:12.999Z</time></trkpt><trkpt lat="44.04621630558551" lon="11.041232524612694"><ele>630.0</ele><time>2026-05-02T08:26:13.999Z</time></trkpt><trkpt lat="44.04636772088754" lon="11.041388734130692"><ele>630.0</ele><time>2026-05-02T08:26:14.999Z</time></trkpt><trkpt lat="44.04649579972131" lon="11.041595258502596"><ele>629.6666666666666</ele><time>2026-05-02T08:26:15.999Z</time></trkpt><trkpt lat="44.046594216505405" lon="11.041815951165102"><ele>629.3333333333333</ele><time>2026-05-02T08:26:16.999Z</time></trkpt><trkpt lat="44.046709656356" lon="11.041992421863975"><ele>629.0</ele><time>2026-05-02T08:26:17.999Z</time></trkpt><trkpt lat="44.04687411479862" lon="11.042123050270375"><ele>629.0</ele><time>2026-05-02T08:26:19Z</time></trkpt><trkpt lat="44.047031232288155" lon="11.042222468792053"><ele>629.0</ele><time>2026-05-02T08:26:20Z</time></trkpt><trkpt lat="44.04718241358108" lon="11.042294029616606"><ele>629.0</ele><time>2026-05-02T08:26:21Z</time></trkpt><trkpt lat="44.04733945370025" lon="11.042298420333978"><ele>626.3333333333333</ele><time>2026-05-02T08:26:22Z</time></trkpt><trkpt lat="44.047515257470124" lon="11.042267442429837"><ele>623.6666666666666</ele><time>2026-05-02T08:26:23Z</time></trkpt><trkpt lat="44.0476931157723" lon="11.042275423577438"><ele>621.0</ele><time>2026-05-02T08:26:24Z</time></trkpt><trkpt lat="44.04785746810193" lon="11.042305788570506"><ele>621.0</ele><time>2026-05-02T08:26:25Z</time></trkpt><trkpt lat="44.04799500525146" lon="11.042356351536196"><ele>621.0</ele><time>2026-05-02T08:26:26Z</time></trkpt><trkpt lat="44.048116622853435" lon="11.042451206996127"><ele>621.0</ele><time>2026-05-02T08:26:27Z</time></trkpt><trkpt lat="44.048209434455885" lon="11.042591303350918"><ele>621.0</ele><time>2026-05-02T08:26:28Z</time></trkpt><trkpt lat="44.04827958190101" lon="11.04276207742614"><ele>620.0</ele><time>2026-05-02T08:26:29Z</time></trkpt><trkpt lat="44.048336522951224" lon="11.04296672541603"><ele>619.0</ele><time>2026-05-02T08:26:30Z</time></trkpt><trkpt lat="44.048394189458655" lon="11.043171723867001"><ele>618.0</ele><time>2026-05-02T08:26:31Z</time></trkpt><trkpt lat="44.048461580532724" lon="11.04336261108874"><ele>621.3333333333334</ele><time>2026-05-02T08:26:32Z</time></trkpt><trkpt lat="44.04854945740019" lon="11.043538251120799"><ele>624.6666666666667</ele><time>2026-05-02T08:26:33Z</time></trkpt><trkpt lat="44.04865993014122" lon="11.043704309188035"><ele>628.0</ele><time>2026-05-02T08:26:34Z</time></trkpt><trkpt lat="44.04878145267885" lon="11.043858712652362"><ele>628.0</ele><time>2026-05-02T08:26:35Z</time></trkpt><trkpt lat="44.04891006468055" lon="11.04397324878734"><ele>628.0</ele><time>2026-05-02T08:26:36Z</time></trkpt><trkpt lat="44.049038880567146" lon="11.044031765254005"><ele>628.0</ele><time>2026-05-02T08:26:37Z</time></trkpt><trkpt lat="44.049172272095944" lon="11.044027673134655"><ele>628.0</ele><time>2026-05-02T08:26:38Z</time></trkpt><trkpt lat="44.04930038416207" lon="11.04397932227604"><ele>626.0</ele><time>2026-05-02T08:26:39Z</time></trkpt><trkpt lat="44.04942418523922" lon="11.043980181295302"><ele>624.0</ele><time>2026-05-02T08:26:40Z</time></trkpt><trkpt lat="44.0495423372974" lon="11.044033042469861"><ele>622.0</ele><time>2026-05-02T08:26:41Z</time></trkpt><trkpt lat="44.04966219868176" lon="11.04411654388556"><ele>620.0</ele><time>2026-05-02T08:26:42Z</time></trkpt><trkpt lat="44.04978644167868" lon="11.044215466843061"><ele>620.0</ele><time>2026-05-02T08:26:43Z</time></trkpt><trkpt lat="44.04991861058509" lon="11.04431510979206"><ele>620.0</ele><time>2026-05-02T08:26:44Z</time></trkpt><trkpt lat="44.050048176609565" lon="11.044419488925634"><ele>620.0</ele><time>2026-05-02T08:26:45Z</time></trkpt><trkpt lat="44.05016099402681" lon="11.044529017544653"><ele>620.0</ele><time>2026-05-02T08:26:46Z</time></trkpt><trkpt lat="44.050258002992926" lon="11.044639641945839"><ele>622.0</ele><time>2026-05-02T08:26:47Z</time></trkpt><trkpt lat="44.0503406654507" lon="11.044748508414989"><ele>624.0</ele><time>2026-05-02T08:26:48Z</time></trkpt><trkpt lat="44.05041278058589" lon="11.044856713541702"><ele>626.0</ele><time>2026-05-02T08:26:49Z</time></trkpt><trkpt lat="44.05047985918345" lon="11.044976522724161"><ele>628.0</ele><time>2026-05-02T08:26:49.999Z</time></trkpt><trkpt lat="44.05052882820245" lon="11.045131135251522"><ele>628.0</ele><time>2026-05-02T08:26:50.999Z</time></trkpt><trkpt lat="44.05065515375839" lon="11.04520347172292"><ele>628.0</ele><time>2026-05-02T08:26:51.999Z</time></trkpt><trkpt lat="44.050774898437666" lon="11.045276555625053"><ele>628.0</ele><time>2026-05-02T08:26:52.999Z</time></trkpt><trkpt lat="44.05090818006511" lon="11.045354498815124"><ele>628.0</ele><time>2026-05-02T08:26:53.999Z</time></trkpt><trkpt lat="44.05105201068074" lon="11.045433205060554"><ele>621.75</ele><time>2026-05-02T08:26:54.999Z</time></trkpt><trkpt lat="44.05118940809882" lon="11.04550679064121"><ele>615.5</ele><time>2026-05-02T08:26:55.999Z</time></trkpt><trkpt lat="44.05131995782635" lon="11.045587665975281"><ele>609.25</ele><time>2026-05-02T08:26:56.999Z</time></trkpt><trkpt lat="44.05146362626129" lon="11.045604937091111"><ele>603.0</ele><time>2026-05-02T08:26:57.999Z</time></trkpt><trkpt lat="44.05160236930364" lon="11.045646662406915"><ele>604.6666666666666</ele><time>2026-05-02T08:26:58.999Z</time></trkpt><trkpt lat="44.051739845961514" lon="11.045658365071306"><ele>606.3333333333333</ele><time>2026-05-02T08:26:59.999Z</time></trkpt><trkpt lat="44.05181977852596" lon="11.045522851985947"><ele>608.0</ele><time>2026-05-02T08:27:00.999Z</time></trkpt><trkpt lat="44.05208977721765" lon="11.045445709266247"><ele>608.0</ele><time>2026-05-02T08:27:01.999Z</time></trkpt><trkpt lat="44.05224517515376" lon="11.045604638483043"><ele>608.0</ele><time>2026-05-02T08:27:02.999Z</time></trkpt><trkpt lat="44.05236201449012" lon="11.045676181945037"><ele>608.0</ele><time>2026-05-02T08:27:03.999Z</time></trkpt><trkpt lat="44.05249747369858" lon="11.045705129974845"><ele>609.0</ele><time>2026-05-02T08:27:04.999Z</time></trkpt><trkpt lat="44.05261087128295" lon="11.045661377451742"><ele>610.0</ele><time>2026-05-02T08:27:05.999Z</time></trkpt><trkpt lat="44.0526947035061" lon="11.04557852200991"><ele>611.0</ele><time>2026-05-02T08:27:06.999Z</time></trkpt><trkpt lat="44.052773841662116" lon="11.045483161910793"><ele>612.0</ele><time>2026-05-02T08:27:07.999Z</time></trkpt><trkpt lat="44.05277619731251" lon="11.045369299969101"><ele>613.0</ele><time>2026-05-02T08:27:08.999Z</time></trkpt><trkpt lat="44.052863240518285" lon="11.045221166696026"><ele>613.0</ele><time>2026-05-02T08:27:09.999Z</time></trkpt><trkpt lat="44.052937859249944" lon="11.045089056398826"><ele>613.0</ele><time>2026-05-02T08:27:10.999Z</time></trkpt><trkpt lat="44.05302784842329" lon="11.04489958517306"><ele>613.0</ele><time>2026-05-02T08:27:11.999Z</time></trkpt><trkpt lat="44.053128357747475" lon="11.044707009384306"><ele>613.3333333333334</ele><time>2026-05-02T08:27:12.999Z</time></trkpt><trkpt lat="44.05322008651755" lon="11.0445495594172"><ele>613.6666666666666</ele><time>2026-05-02T08:27:13.999Z</time></trkpt><trkpt lat="44.05337003130218" lon="11.044400610195417"><ele>614.0</ele><time>2026-05-02T08:27:14.999Z</time></trkpt><trkpt lat="44.05352359650303" lon="11.044362802779021"><ele>614.0</ele><time>2026-05-02T08:27:15.999Z</time></trkpt><trkpt lat="44.05364283617213" lon="11.044310571633268"><ele>614.0</ele><time>2026-05-02T08:27:16.999Z</time></trkpt><trkpt lat="44.05376275656115" lon="11.044245969677934"><ele>614.0</ele><time>2026-05-02T08:27:17.999Z</time></trkpt><trkpt lat="44.05387384744373" lon="11.044164005072464"><ele>614.0</ele><time>2026-05-02T08:27:18.999Z</time></trkpt><trkpt lat="44.05397849693144" lon="11.044120480252808"><ele>612.0</ele><time>2026-05-02T08:27:19.999Z</time></trkpt><trkpt lat="44.05406824334655" lon="11.044083662999936"><ele>610.0</ele><time>2026-05-02T08:27:20.999Z</time></trkpt><trkpt lat="44.0541524881367" lon="11.044081190753845"><ele>608.0</ele><time>2026-05-02T08:27:21.999Z</time></trkpt><trkpt lat="44.054243796756495" lon="11.044117067679325"><ele>606.0</ele><time>2026-05-02T08:27:22.999Z</time></trkpt><trkpt lat="44.05434355519126" lon="11.044185686707955"><ele>604.0</ele><time>2026-05-02T08:27:23.999Z</time></trkpt><trkpt lat="44.05442935857897" lon="11.044273180799765"><ele>604.0</ele><time>2026-05-02T08:27:24.999Z</time></trkpt><trkpt lat="44.054523667625595" lon="11.04438211300752"><ele>604.0</ele><time>2026-05-02T08:27:25.999Z</time></trkpt><trkpt lat="44.05462293246444" lon="11.044503300603568"><ele>604.0</ele><time>2026-05-02T08:27:26.999Z</time></trkpt><trkpt lat="44.05472912127601" lon="11.044617146199993"><ele>604.0</ele><time>2026-05-02T08:27:27.999Z</time></trkpt><trkpt lat="44.05481397720036" lon="11.044733881428131"><ele>604.0</ele><time>2026-05-02T08:27:28.999Z</time></trkpt><trkpt lat="44.054905724812365" lon="11.044854049446089"><ele>604.0</ele><time>2026-05-02T08:27:29.999Z</time></trkpt><trkpt lat="44.05502855068544" lon="11.044963850391174"><ele>604.0</ele><time>2026-05-02T08:27:30.999Z</time></trkpt><trkpt lat="44.05517226780199" lon="11.04504935471185"><ele>604.0</ele><time>2026-05-02T08:27:31.999Z</time></trkpt><trkpt lat="44.05531371067798" lon="11.045115297161326"><ele>606.75</ele><time>2026-05-02T08:27:32.999Z</time></trkpt><trkpt lat="44.05544871064935" lon="11.045174413786173"><ele>609.5</ele><time>2026-05-02T08:27:33.999Z</time></trkpt><trkpt lat="44.05557749023695" lon="11.045233883697986"><ele>612.25</ele><time>2026-05-02T08:27:34.999Z</time></trkpt><trkpt lat="44.05570553503654" lon="11.04530194916031"><ele>615.0</ele><time>2026-05-02T08:27:35.999Z</time></trkpt><trkpt lat="44.055825722606336" lon="11.04538291040816"><ele>615.0</ele><time>2026-05-02T08:27:36.999Z</time></trkpt><trkpt lat="44.05594739546206" lon="11.045484648223335"><ele>615.0</ele><time>2026-05-02T08:27:37.999Z</time></trkpt><trkpt lat="44.05607584114197" lon="11.045629744421852"><ele>615.0</ele><time>2026-05-02T08:27:38.999Z</time></trkpt><trkpt lat="44.056211444611044" lon="11.045814441571643"><ele>617.0</ele><time>2026-05-02T08:27:39.999Z</time></trkpt><trkpt lat="44.05636032692048" lon="11.046021541182638"><ele>619.0</ele><time>2026-05-02T08:27:40.999Z</time></trkpt><trkpt lat="44.056523201747574" lon="11.046230873798928"><ele>621.0</ele><time>2026-05-02T08:27:41.999Z</time></trkpt><trkpt lat="44.05669500797148" lon="11.046438002889499"><ele>612.3333333333334</ele><time>2026-05-02T08:27:42.999Z</time></trkpt><trkpt lat="44.056858409447315" lon="11.046636712779625"><ele>603.6666666666667</ele><time>2026-05-02T08:27:43.999Z</time></trkpt><trkpt lat="44.05699556033878" lon="11.0468357827267"><ele>595.0</ele><time>2026-05-02T08:27:44.999Z</time></trkpt><trkpt lat="44.057137072118465" lon="11.047035938882354"><ele>595.0</ele><time>2026-05-02T08:27:45.999Z</time></trkpt><trkpt lat="44.057267550498125" lon="11.047281694734801"><ele>595.0</ele><time>2026-05-02T08:27:46.999Z</time></trkpt><trkpt lat="44.05739797472413" lon="11.047526085112176"><ele>595.0</ele><time>2026-05-02T08:27:47.999Z</time></trkpt><trkpt lat="44.057564564304776" lon="11.04771483381805"><ele>597.3333333333334</ele><time>2026-05-02T08:27:48.999Z</time></trkpt><trkpt lat="44.05771292340569" lon="11.047907546609004"><ele>599.6666666666666</ele><time>2026-05-02T08:27:49.999Z</time></trkpt><trkpt lat="44.057857993819376" lon="11.048088410718897"><ele>602.0</ele><time>2026-05-02T08:27:50.999Z</time></trkpt><trkpt lat="44.0579988675424" lon="11.048253799493004"><ele>599.3333333333333</ele><time>2026-05-02T08:27:51.999Z</time></trkpt><trkpt lat="44.058138786982674" lon="11.048406100989615"><ele>596.6666666666666</ele><time>2026-05-02T08:27:52.999Z</time></trkpt><trkpt lat="44.05828025869098" lon="11.0485342789923"><ele>594.0</ele><time>2026-05-02T08:27:53.999Z</time></trkpt><trkpt lat="44.058433970399044" lon="11.048640386977933"><ele>594.0</ele><time>2026-05-02T08:27:54.999Z</time></trkpt><trkpt lat="44.058607732554876" lon="11.048720591758034"><ele>594.0</ele><time>2026-05-02T08:27:55.999Z</time></trkpt><trkpt lat="44.058794484910365" lon="11.048779669411555"><ele>594.0</ele><time>2026-05-02T08:27:56.999Z</time></trkpt><trkpt lat="44.05898615286329" lon="11.048834690167265"><ele>596.3333333333334</ele><time>2026-05-02T08:27:57.999Z</time></trkpt><trkpt lat="44.05916511032637" lon="11.048895999124582"><ele>598.6666666666667</ele><time>2026-05-02T08:27:58.999Z</time></trkpt><trkpt lat="44.059337832595084" lon="11.048948980131224"><ele>601.0</ele><time>2026-05-02T08:27:59.999Z</time></trkpt><trkpt lat="44.05950684587418" lon="11.04898018232194"><ele>601.0</ele><time>2026-05-02T08:28:00.999Z</time></trkpt><trkpt lat="44.05968121709" lon="11.04897136102645"><ele>601.0</ele><time>2026-05-02T08:28:01.999Z</time></trkpt><trkpt lat="44.05986565558071" lon="11.048921180702695"><ele>601.0</ele><time>2026-05-02T08:28:02.999Z</time></trkpt><trkpt lat="44.060062177618654" lon="11.048876737958938"><ele>600.0</ele><time>2026-05-02T08:28:03.999Z</time></trkpt><trkpt lat="44.06026018592556" lon="11.04878784266803"><ele>599.0</ele><time>2026-05-02T08:28:04.999Z</time></trkpt><trkpt lat="44.06044875101566" lon="11.048730975539511"><ele>598.0</ele><time>2026-05-02T08:28:05.999Z</time></trkpt><trkpt lat="44.06062838772726" lon="11.048693765537996"><ele>603.3333333333334</ele><time>2026-05-02T08:28:06.999Z</time></trkpt><trkpt lat="44.060791567005545" lon="11.048697293992676"><ele>608.6666666666666</ele><time>2026-05-02T08:28:07.999Z</time></trkpt><trkpt lat="44.060942459349754" lon="11.048795124431212"><ele>614.0</ele><time>2026-05-02T08:28:08.999Z</time></trkpt><trkpt lat="44.061100310402544" lon="11.048896342411824"><ele>614.0</ele><time>2026-05-02T08:28:09.999Z</time></trkpt><trkpt lat="44.061254548741246" lon="11.04899319588637"><ele>614.0</ele><time>2026-05-02T08:28:10.999Z</time></trkpt><trkpt lat="44.06136665040192" lon="11.049179046496924"><ele>614.0</ele><time>2026-05-02T08:28:11.999Z</time></trkpt><trkpt lat="44.061482573087915" lon="11.049372967740666"><ele>604.6666666666666</ele><time>2026-05-02T08:28:12.999Z</time></trkpt><trkpt lat="44.06157437870009" lon="11.049574074860395"><ele>595.3333333333334</ele><time>2026-05-02T08:28:13.999Z</time></trkpt><trkpt lat="44.06169105602951" lon="11.049727855899711"><ele>586.0</ele><time>2026-05-02T08:28:14.999Z</time></trkpt><trkpt lat="44.06183655082882" lon="11.049828119727774"><ele>586.0</ele><time>2026-05-02T08:28:15.999Z</time></trkpt><trkpt lat="44.06197253057662" lon="11.049893648954138"><ele>586.0</ele><time>2026-05-02T08:28:16.999Z</time></trkpt><trkpt lat="44.06211431863914" lon="11.049923989315824"><ele>586.0</ele><time>2026-05-02T08:28:17.998Z</time></trkpt><trkpt lat="44.062267186758945" lon="11.049887584651408"><ele>586.0</ele><time>2026-05-02T08:28:18.998Z</time></trkpt><trkpt lat="44.062430259366884" lon="11.049819522729685"><ele>592.0</ele><time>2026-05-02T08:28:19.998Z</time></trkpt><trkpt lat="44.0626019655122" lon="11.04974116616831"><ele>598.0</ele><time>2026-05-02T08:28:20.998Z</time></trkpt><trkpt lat="44.0627793691415" lon="11.049678206315594"><ele>604.0</ele><time>2026-05-02T08:28:21.998Z</time></trkpt><trkpt lat="44.062942802223425" lon="11.049639320886921"><ele>604.0</ele><time>2026-05-02T08:28:22.998Z</time></trkpt><trkpt lat="44.063102273216224" lon="11.0496278718511"><ele>604.0</ele><time>2026-05-02T08:28:23.998Z</time></trkpt><trkpt lat="44.06326956002035" lon="11.049652546083603"><ele>604.0</ele><time>2026-05-02T08:28:25Z</time></trkpt><trkpt lat="44.063440887635224" lon="11.049708009029793"><ele>608.3333333333334</ele><time>2026-05-02T08:28:26Z</time></trkpt><trkpt lat="44.06361365779886" lon="11.049778216249615"><ele>612.6666666666666</ele><time>2026-05-02T08:28:27Z</time></trkpt><trkpt lat="44.06378870615373" lon="11.04987273180548"><ele>617.0</ele><time>2026-05-02T08:28:28Z</time></trkpt><trkpt lat="44.06395612700842" lon="11.050009521708416"><ele>608.0</ele><time>2026-05-02T08:28:29Z</time></trkpt><trkpt lat="44.06411668442059" lon="11.05016623041161"><ele>599.0</ele><time>2026-05-02T08:28:30Z</time></trkpt><trkpt lat="44.06427811631456" lon="11.050333595942227"><ele>590.0</ele><time>2026-05-02T08:28:31Z</time></trkpt><trkpt lat="44.06444390881778" lon="11.050500015987945"><ele>590.0</ele><time>2026-05-02T08:28:32Z</time></trkpt><trkpt lat="44.06459825368447" lon="11.050658873361423"><ele>590.0</ele><time>2026-05-02T08:28:33Z</time></trkpt><trkpt lat="44.06474810171887" lon="11.05078895175464"><ele>590.0</ele><time>2026-05-02T08:28:34Z</time></trkpt><trkpt lat="44.06490529805108" lon="11.05089394756357"><ele>584.3333333333333</ele><time>2026-05-02T08:28:35Z</time></trkpt><trkpt lat="44.06507857516773" lon="11.050969099609263"><ele>578.6666666666666</ele><time>2026-05-02T08:28:36Z</time></trkpt><trkpt lat="44.06526330632485" lon="11.051018153857722"><ele>573.0</ele><time>2026-05-02T08:28:37Z</time></trkpt><trkpt lat="44.06545397321264" lon="11.051076068239345"><ele>573.0</ele><time>2026-05-02T08:28:38Z</time></trkpt><trkpt lat="44.0656462264468" lon="11.05114059766297"><ele>573.0</ele><time>2026-05-02T08:28:39Z</time></trkpt><trkpt lat="44.06584772473611" lon="11.05119035700861"><ele>573.0</ele><time>2026-05-02T08:28:40Z</time></trkpt><trkpt lat="44.06606440550668" lon="11.051218500547485"><ele>577.6666666666666</ele><time>2026-05-02T08:28:41Z</time></trkpt><trkpt lat="44.0662872786473" lon="11.05123743238067"><ele>582.3333333333333</ele><time>2026-05-02T08:28:42Z</time></trkpt><trkpt lat="44.066502741913034" lon="11.051253888787004"><ele>587.0</ele><time>2026-05-02T08:28:43Z</time></trkpt><trkpt lat="44.06670810623784" lon="11.051270821574207"><ele>590.6666666666666</ele><time>2026-05-02T08:28:44Z</time></trkpt><trkpt lat="44.06689901278746" lon="11.051263501678832"><ele>594.3333333333334</ele><time>2026-05-02T08:28:45Z</time></trkpt><trkpt lat="44.067077482937115" lon="11.051235531171907"><ele>598.0</ele><time>2026-05-02T08:28:46Z</time></trkpt><trkpt lat="44.06724722730621" lon="11.051226720359306"><ele>598.0</ele><time>2026-05-02T08:28:47Z</time></trkpt><trkpt lat="44.067430360503586" lon="11.051278431710674"><ele>598.0</ele><time>2026-05-02T08:28:48Z</time></trkpt><trkpt lat="44.06759495933508" lon="11.051372037760059"><ele>598.0</ele><time>2026-05-02T08:28:49Z</time></trkpt><trkpt lat="44.06776735548959" lon="11.051483833147772"><ele>603.3333333333334</ele><time>2026-05-02T08:28:50Z</time></trkpt><trkpt lat="44.0679433856104" lon="11.05161907481477"><ele>608.6666666666666</ele><time>2026-05-02T08:28:51Z</time></trkpt><trkpt lat="44.068114547654055" lon="11.051763930698407"><ele>614.0</ele><time>2026-05-02T08:28:52Z</time></trkpt><trkpt lat="44.068277161915525" lon="11.05188072406458"><ele>602.0</ele><time>2026-05-02T08:28:53Z</time></trkpt><trkpt lat="44.06843847076751" lon="11.051965542227562"><ele>590.0</ele><time>2026-05-02T08:28:54Z</time></trkpt><trkpt lat="44.068615134327" lon="11.052012082107153"><ele>578.0</ele><time>2026-05-02T08:28:55Z</time></trkpt><trkpt lat="44.06879823101204" lon="11.052056068709517"><ele>578.0</ele><time>2026-05-02T08:28:56Z</time></trkpt><trkpt lat="44.06898323789376" lon="11.052098541366831"><ele>578.0</ele><time>2026-05-02T08:28:56.999Z</time></trkpt><trkpt lat="44.06915579845094" lon="11.052143310917089"><ele>578.0</ele><time>2026-05-02T08:28:57.999Z</time></trkpt><trkpt lat="44.06932217279733" lon="11.052263677282431"><ele>573.3333333333333</ele><time>2026-05-02T08:28:58.999Z</time></trkpt><trkpt lat="44.06948017294714" lon="11.052426633878165"><ele>568.6666666666666</ele><time>2026-05-02T08:28:59.999Z</time></trkpt><trkpt lat="44.06961974429418" lon="11.052633000720013"><ele>564.0</ele><time>2026-05-02T08:29:00.999Z</time></trkpt><trkpt lat="44.06975356450153" lon="11.052856775204251"><ele>564.0</ele><time>2026-05-02T08:29:01.999Z</time></trkpt><trkpt lat="44.06989447970865" lon="11.053084162982433"><ele>564.0</ele><time>2026-05-02T08:29:02.999Z</time></trkpt><trkpt lat="44.07004432046843" lon="11.053310076694505"><ele>564.0</ele><time>2026-05-02T08:29:03.999Z</time></trkpt><trkpt lat="44.0701935360777" lon="11.053521311053283"><ele>562.0</ele><time>2026-05-02T08:29:04.999Z</time></trkpt><trkpt lat="44.07034338306061" lon="11.053704340053901"><ele>560.0</ele><time>2026-05-02T08:29:05.999Z</time></trkpt><trkpt lat="44.07048724114059" lon="11.053864563894418"><ele>558.0</ele><time>2026-05-02T08:29:06.999Z</time></trkpt><trkpt lat="44.070625690651895" lon="11.053993640175422"><ele>558.0</ele><time>2026-05-02T08:29:07.999Z</time></trkpt><trkpt lat="44.07077041133689" lon="11.054094325218122"><ele>558.0</ele><time>2026-05-02T08:29:08.999Z</time></trkpt><trkpt lat="44.07092662494008" lon="11.054167539296136"><ele>558.0</ele><time>2026-05-02T08:29:09.999Z</time></trkpt><trkpt lat="44.07108300227031" lon="11.054232375795873"><ele>558.25</ele><time>2026-05-02T08:29:10.999Z</time></trkpt><trkpt lat="44.071226523837296" lon="11.05427393387792"><ele>558.5</ele><time>2026-05-02T08:29:11.999Z</time></trkpt><trkpt lat="44.07136509981312" lon="11.054272912583452"><ele>558.75</ele><time>2026-05-02T08:29:12.999Z</time></trkpt><trkpt lat="44.071501075450115" lon="11.054224000388071"><ele>559.0</ele><time>2026-05-02T08:29:13.999Z</time></trkpt><trkpt lat="44.071644701160096" lon="11.054127553011314"><ele>567.3333333333334</ele><time>2026-05-02T08:29:14.999Z</time></trkpt><trkpt lat="44.071796707030096" lon="11.054014073862541"><ele>575.6666666666666</ele><time>2026-05-02T08:29:15.999Z</time></trkpt><trkpt lat="44.07195768146562" lon="11.053899210471947"><ele>584.0</ele><time>2026-05-02T08:29:16.999Z</time></trkpt><trkpt lat="44.07211571703167" lon="11.053790309859421"><ele>584.0</ele><time>2026-05-02T08:29:17.999Z</time></trkpt><trkpt lat="44.0722628153956" lon="11.053684667557393"><ele>584.0</ele><time>2026-05-02T08:29:18.999Z</time></trkpt><trkpt lat="44.0723882314912" lon="11.053573299640528"><ele>584.0</ele><time>2026-05-02T08:29:19.999Z</time></trkpt><trkpt lat="44.072489949992274" lon="11.053436362976823"><ele>579.6666666666666</ele><time>2026-05-02T08:29:20.999Z</time></trkpt><trkpt lat="44.072574495433116" lon="11.053260650230584"><ele>575.3333333333334</ele><time>2026-05-02T08:29:21.999Z</time></trkpt><trkpt lat="44.07265327472671" lon="11.053056339859294"><ele>571.0</ele><time>2026-05-02T08:29:22.999Z</time></trkpt><trkpt lat="44.072759669947786" lon="11.052849534396875"><ele>571.0</ele><time>2026-05-02T08:29:23.999Z</time></trkpt><trkpt lat="44.072898532352866" lon="11.05264754791943"><ele>571.0</ele><time>2026-05-02T08:29:24.999Z</time></trkpt><trkpt lat="44.07305575528272" lon="11.05244636633487"><ele>571.0</ele><time>2026-05-02T08:29:25.999Z</time></trkpt><trkpt lat="44.07320743497034" lon="11.052246615442067"><ele>566.6666666666667</ele><time>2026-05-02T08:29:26.999Z</time></trkpt><trkpt lat="44.073348746410424" lon="11.05206220525263"><ele>562.3333333333334</ele><time>2026-05-02T08:29:27.999Z</time></trkpt><trkpt lat="44.073485430169626" lon="11.051895098444678"><ele>558.0</ele><time>2026-05-02T08:29:28.999Z</time></trkpt><trkpt lat="44.073628303257344" lon="11.051749553145084"><ele>558.0</ele><time>2026-05-02T08:29:29.999Z</time></trkpt><trkpt lat="44.07377556528051" lon="11.051630549901923"><ele>558.0</ele><time>2026-05-02T08:29:30.999Z</time></trkpt><trkpt lat="44.07393905108857" lon="11.051536646060283"><ele>558.0</ele><time>2026-05-02T08:29:31.999Z</time></trkpt><trkpt lat="44.07411304731421" lon="11.051467646746325"><ele>564.6666666666666</ele><time>2026-05-02T08:29:32.999Z</time></trkpt><trkpt lat="44.07429486096223" lon="11.051421529457983"><ele>571.3333333333333</ele><time>2026-05-02T08:29:33.999Z</time></trkpt><trkpt lat="44.07448164888255" lon="11.051389695836532"><ele>578.0</ele><time>2026-05-02T08:29:34.999Z</time></trkpt><trkpt lat="44.07466907033199" lon="11.051355160605166"><ele>578.0</ele><time>2026-05-02T08:29:35.999Z</time></trkpt><trkpt lat="44.07485622193714" lon="11.051347283188763"><ele>578.0</ele><time>2026-05-02T08:29:36.999Z</time></trkpt><trkpt lat="44.07504119359066" lon="11.051365856190207"><ele>578.0</ele><time>2026-05-02T08:29:37.999Z</time></trkpt><trkpt lat="44.075216735333" lon="11.051414648522503"><ele>576.3333333333333</ele><time>2026-05-02T08:29:38.999Z</time></trkpt><trkpt lat="44.07537182017196" lon="11.051503503796887"><ele>574.6666666666666</ele><time>2026-05-02T08:29:39.999Z</time></trkpt><trkpt lat="44.07550676056861" lon="11.051639975729215"><ele>573.0</ele><time>2026-05-02T08:29:40.999Z</time></trkpt><trkpt lat="44.075650072603274" lon="11.051772028298313"><ele>570.3333333333334</ele><time>2026-05-02T08:29:41.999Z</time></trkpt><trkpt lat="44.07577762976884" lon="11.051952344186182"><ele>567.6666666666667</ele><time>2026-05-02T08:29:42.999Z</time></trkpt><trkpt lat="44.07588237724218" lon="11.052171308272694"><ele>565.0</ele><time>2026-05-02T08:29:43.999Z</time></trkpt><trkpt lat="44.075998289110885" lon="11.05235524389701"><ele>560.75</ele><time>2026-05-02T08:29:44.999Z</time></trkpt><trkpt lat="44.076100279482844" lon="11.052532290958126"><ele>556.5</ele><time>2026-05-02T08:29:45.999Z</time></trkpt><trkpt lat="44.07620597322205" lon="11.05266896290599"><ele>552.25</ele><time>2026-05-02T08:29:46.999Z</time></trkpt><trkpt lat="44.076308489534284" lon="11.052772340057716"><ele>548.0</ele><time>2026-05-02T08:29:47.999Z</time></trkpt><trkpt lat="44.076403185675204" lon="11.052833068510942"><ele>548.0</ele><time>2026-05-02T08:29:48.999Z</time></trkpt><trkpt lat="44.07650191105525" lon="11.05283101503601"><ele>548.0</ele><time>2026-05-02T08:29:49.999Z</time></trkpt><trkpt lat="44.07659885020755" lon="11.052769991561627"><ele>548.0</ele><time>2026-05-02T08:29:50.999Z</time></trkpt><trkpt lat="44.07669579517801" lon="11.052642815207951"><ele>548.0</ele><time>2026-05-02T08:29:51.999Z</time></trkpt><trkpt lat="44.07677430624881" lon="11.052473689258385"><ele>554.0</ele><time>2026-05-02T08:29:52.999Z</time></trkpt><trkpt lat="44.076821221756795" lon="11.052274600450392"><ele>560.0</ele><time>2026-05-02T08:29:53.999Z</time></trkpt><trkpt lat="44.07683823557009" lon="11.052036285591612"><ele>566.0</ele><time>2026-05-02T08:29:54.999Z</time></trkpt><trkpt lat="44.07684377039876" lon="11.051788820563806"><ele>571.0</ele><time>2026-05-02T08:29:55.999Z</time></trkpt><trkpt lat="44.0768661681891" lon="11.051573026124272"><ele>576.0</ele><time>2026-05-02T08:29:56.999Z</time></trkpt><trkpt lat="44.076910669099085" lon="11.051386083260606"><ele>581.0</ele><time>2026-05-02T08:29:57.999Z</time></trkpt><trkpt lat="44.07697414912784" lon="11.051233363827558"><ele>586.0</ele><time>2026-05-02T08:29:58.999Z</time></trkpt><trkpt lat="44.077068509628894" lon="11.051121341338032"><ele>586.0</ele><time>2026-05-02T08:29:59.999Z</time></trkpt><trkpt lat="44.07719130166683" lon="11.051043994412925"><ele>586.0</ele><time>2026-05-02T08:30:00.999Z</time></trkpt><trkpt lat="44.07732801013786" lon="11.051018236958738"><ele>586.0</ele><time>2026-05-02T08:30:01.999Z</time></trkpt><trkpt lat="44.077450640276346" lon="11.0510054876105"><ele>586.0</ele><time>2026-05-02T08:30:02.999Z</time></trkpt><trkpt lat="44.07756214129486" lon="11.050921480566792"><ele>579.3333333333334</ele><time>2026-05-02T08:30:03.999Z</time></trkpt><trkpt lat="44.07767532270563" lon="11.050769848597165"><ele>572.6666666666666</ele><time>2026-05-02T08:30:04.999Z</time></trkpt><trkpt lat="44.07780567677175" lon="11.050601214754153"><ele>566.0</ele><time>2026-05-02T08:30:05.999Z</time></trkpt><trkpt lat="44.07793247997091" lon="11.05042947309379"><ele>566.0</ele><time>2026-05-02T08:30:06.999Z</time></trkpt><trkpt lat="44.078066632306616" lon="11.050257278601029"><ele>566.0</ele><time>2026-05-02T08:30:07.999Z</time></trkpt><trkpt lat="44.078206040154555" lon="11.05009313219869"><ele>566.0</ele><time>2026-05-02T08:30:08.999Z</time></trkpt><trkpt lat="44.07834155042019" lon="11.049951377700358"><ele>564.3333333333333</ele><time>2026-05-02T08:30:09.999Z</time></trkpt><trkpt lat="44.07848282173657" lon="11.049829247964821"><ele>562.6666666666666</ele><time>2026-05-02T08:30:10.999Z</time></trkpt><trkpt lat="44.078629467826865" lon="11.049733337977983"><ele>561.0</ele><time>2026-05-02T08:30:11.999Z</time></trkpt><trkpt lat="44.078781273526324" lon="11.049723413559411"><ele>561.0</ele><time>2026-05-02T08:30:12.999Z</time></trkpt><trkpt lat="44.07892010097218" lon="11.049678749809186"><ele>561.0</ele><time>2026-05-02T08:30:13.999Z</time></trkpt><trkpt lat="44.07905675952681" lon="11.049598654213547"><ele>561.0</ele><time>2026-05-02T08:30:14.999Z</time></trkpt><trkpt lat="44.07918491424287" lon="11.049465165582921"><ele>555.6666666666666</ele><time>2026-05-02T08:30:15.999Z</time></trkpt><trkpt lat="44.07931847519048" lon="11.04931936840681"><ele>550.3333333333333</ele><time>2026-05-02T08:30:16.999Z</time></trkpt><trkpt lat="44.07947416853852" lon="11.049205039900961"><ele>545.0</ele><time>2026-05-02T08:30:17.999Z</time></trkpt><trkpt lat="44.079657171579825" lon="11.049116137399517"><ele>554.0</ele><time>2026-05-02T08:30:18.999Z</time></trkpt><trkpt lat="44.07983986096239" lon="11.049030952914112"><ele>563.0</ele><time>2026-05-02T08:30:19.999Z</time></trkpt><trkpt lat="44.08002086629838" lon="11.048935181685167"><ele>572.0</ele><time>2026-05-02T08:30:20.999Z</time></trkpt><trkpt lat="44.08019672522995" lon="11.048816072157212"><ele>572.0</ele><time>2026-05-02T08:30:21.999Z</time></trkpt><trkpt lat="44.080369265629635" lon="11.048676570106005"><ele>572.0</ele><time>2026-05-02T08:30:22.998Z</time></trkpt><trkpt lat="44.08054240292594" lon="11.048530192953434"><ele>572.0</ele><time>2026-05-02T08:30:23.998Z</time></trkpt><trkpt lat="44.080725422593666" lon="11.04839514818857"><ele>568.3333333333333</ele><time>2026-05-02T08:30:24.998Z</time></trkpt><trkpt lat="44.080912277948116" lon="11.04827097308185"><ele>564.6666666666666</ele><time>2026-05-02T08:30:25.998Z</time></trkpt><trkpt lat="44.08108506970048" lon="11.048140556472218"><ele>561.0</ele><time>2026-05-02T08:30:26.998Z</time></trkpt><trkpt lat="44.08124551585643" lon="11.047983001269802"><ele>561.0</ele><time>2026-05-02T08:30:27.998Z</time></trkpt><trkpt lat="44.081396780846156" lon="11.047798074198568"><ele>561.0</ele><time>2026-05-02T08:30:28.998Z</time></trkpt><trkpt lat="44.0815526170783" lon="11.047616736522222"><ele>561.0</ele><time>2026-05-02T08:30:29.998Z</time></trkpt><trkpt lat="44.08171447247023" lon="11.047441496814223"><ele>557.6666666666666</ele><time>2026-05-02T08:30:31Z</time></trkpt><trkpt lat="44.081881613095135" lon="11.047269709726926"><ele>554.3333333333333</ele><time>2026-05-02T08:30:32Z</time></trkpt><trkpt lat="44.08205322807651" lon="11.047098630938544"><ele>551.0</ele><time>2026-05-02T08:30:33Z</time></trkpt><trkpt lat="44.082227624425826" lon="11.046924406401867"><ele>551.0</ele><time>2026-05-02T08:30:34Z</time></trkpt><trkpt lat="44.08239943833858" lon="11.046741613458353"><ele>551.0</ele><time>2026-05-02T08:30:35Z</time></trkpt><trkpt lat="44.08255529601386" lon="11.046561010111775"><ele>551.0</ele><time>2026-05-02T08:30:36Z</time></trkpt><trkpt lat="44.08270565441434" lon="11.046401684990432"><ele>556.3333333333333</ele><time>2026-05-02T08:30:37Z</time></trkpt><trkpt lat="44.08286060294155" lon="11.046285239935875"><ele>561.6666666666666</ele><time>2026-05-02T08:30:38Z</time></trkpt><trkpt lat="44.08302254163568" lon="11.046218462089607"><ele>567.0</ele><time>2026-05-02T08:30:39Z</time></trkpt><trkpt lat="44.08318842782415" lon="11.046200167047598"><ele>565.6666666666666</ele><time>2026-05-02T08:30:40Z</time></trkpt><trkpt lat="44.083365172212304" lon="11.04621801490284"><ele>564.3333333333333</ele><time>2026-05-02T08:30:41Z</time></trkpt><trkpt lat="44.08352734513336" lon="11.046245442404787"><ele>563.0</ele><time>2026-05-02T08:30:42Z</time></trkpt><trkpt lat="44.083672026869884" lon="11.046314828663991"><ele>563.0</ele><time>2026-05-02T08:30:43Z</time></trkpt><trkpt lat="44.08379284610184" lon="11.046434882539346"><ele>563.0</ele><time>2026-05-02T08:30:44Z</time></trkpt><trkpt lat="44.08389908282969" lon="11.046571828267044"><ele>563.0</ele><time>2026-05-02T08:30:45Z</time></trkpt><trkpt lat="44.084020875335106" lon="11.04663673044976"><ele>563.0</ele><time>2026-05-02T08:30:46Z</time></trkpt><trkpt lat="44.08415871594583" lon="11.046647553332294"><ele>562.0</ele><time>2026-05-02T08:30:47Z</time></trkpt><trkpt lat="44.08430705288982" lon="11.046601636462327"><ele>561.0</ele><time>2026-05-02T08:30:48Z</time></trkpt><trkpt lat="44.08445889203581" lon="11.046495049912957"><ele>560.0</ele><time>2026-05-02T08:30:49Z</time></trkpt><trkpt lat="44.08461887413187" lon="11.046356337031126"><ele>560.0</ele><time>2026-05-02T08:30:50Z</time></trkpt><trkpt lat="44.08479164045704" lon="11.046229903571605"><ele>560.0</ele><time>2026-05-02T08:30:51Z</time></trkpt><trkpt lat="44.084947618937775" lon="11.046148382731026"><ele>560.0</ele><time>2026-05-02T08:30:52Z</time></trkpt><trkpt lat="44.08507838311466" lon="11.046076179309031"><ele>555.8</ele><time>2026-05-02T08:30:53Z</time></trkpt><trkpt lat="44.085164292036126" lon="11.045991612143478"><ele>551.6</ele><time>2026-05-02T08:30:54Z</time></trkpt><trkpt lat="44.08520495304514" lon="11.045875821755729"><ele>547.4</ele><time>2026-05-02T08:30:55Z</time></trkpt><trkpt lat="44.08520393691575" lon="11.04571620726101"><ele>543.2</ele><time>2026-05-02T08:30:56Z</time></trkpt><trkpt lat="44.08518978404569" lon="11.045536008567368"><ele>539.0</ele><time>2026-05-02T08:30:57Z</time></trkpt><trkpt lat="44.08517683356932" lon="11.045325356913354"><ele>539.0</ele><time>2026-05-02T08:30:58Z</time></trkpt><trkpt lat="44.08514966174632" lon="11.045087359241755"><ele>539.0</ele><time>2026-05-02T08:30:59Z</time></trkpt><trkpt lat="44.08508805210207" lon="11.04485014823307"><ele>539.0</ele><time>2026-05-02T08:31:00Z</time></trkpt><trkpt lat="44.08501630442199" lon="11.044666180157677"><ele>538.6</ele><time>2026-05-02T08:31:01Z</time></trkpt><trkpt lat="44.08498604254249" lon="11.044526294415649"><ele>538.2</ele><time>2026-05-02T08:31:02Z</time></trkpt><trkpt lat="44.08500202656339" lon="11.044401241833805"><ele>537.8000000000001</ele><time>2026-05-02T08:31:03Z</time></trkpt><trkpt lat="44.08506327016627" lon="11.04428592376246"><ele>537.4</ele><time>2026-05-02T08:31:03.999Z</time></trkpt><trkpt lat="44.08517639127663" lon="11.044212432312634"><ele>537.0</ele><time>2026-05-02T08:31:04.999Z</time></trkpt><trkpt lat="44.08526407591375" lon="11.044135485728614"><ele>537.0</ele><time>2026-05-02T08:31:05.999Z</time></trkpt><trkpt lat="44.08535993859767" lon="11.044148396923616"><ele>537.0</ele><time>2026-05-02T08:31:06.999Z</time></trkpt><trkpt lat="44.0854443565319" lon="11.04425233079999"><ele>537.0</ele><time>2026-05-02T08:31:07.999Z</time></trkpt><trkpt lat="44.08552399173342" lon="11.044396088900568"><ele>537.0</ele><time>2026-05-02T08:31:08.999Z</time></trkpt><trkpt lat="44.08562626035419" lon="11.044537027695354"><ele>537.0</ele><time>2026-05-02T08:31:09.999Z</time></trkpt><trkpt lat="44.08571461115481" lon="11.044697671232674"><ele>537.0</ele><time>2026-05-02T08:31:10.999Z</time></trkpt><trkpt lat="44.0857679284438" lon="11.044901532272545"><ele>537.0</ele><time>2026-05-02T08:31:11.999Z</time></trkpt><trkpt lat="44.08581842924245" lon="11.045123271576488"><ele>540.6666666666666</ele><time>2026-05-02T08:31:12.999Z</time></trkpt><trkpt lat="44.08587883770252" lon="11.04534813928921"><ele>544.3333333333333</ele><time>2026-05-02T08:31:13.999Z</time></trkpt><trkpt lat="44.08592154196738" lon="11.045564789358354"><ele>548.0</ele><time>2026-05-02T08:31:14.999Z</time></trkpt><trkpt lat="44.08597592919516" lon="11.04574019143016"><ele>545.0</ele><time>2026-05-02T08:31:15.999Z</time></trkpt><trkpt lat="44.08604324765952" lon="11.045882146642327"><ele>542.0</ele><time>2026-05-02T08:31:16.999Z</time></trkpt><trkpt lat="44.08612182048919" lon="11.045977725816808"><ele>539.0</ele><time>2026-05-02T08:31:17.999Z</time></trkpt><trkpt lat="44.08622538264923" lon="11.046026431805002"><ele>536.0</ele><time>2026-05-02T08:31:18.999Z</time></trkpt><trkpt lat="44.08635227960852" lon="11.046048150426781"><ele>536.0</ele><time>2026-05-02T08:31:19.999Z</time></trkpt><trkpt lat="44.086487543613295" lon="11.046131276424301"><ele>536.0</ele><time>2026-05-02T08:31:20.999Z</time></trkpt><trkpt lat="44.086631062706104" lon="11.046276075638708"><ele>536.0</ele><time>2026-05-02T08:31:21.999Z</time></trkpt><trkpt lat="44.086783301762594" lon="11.046446977106598"><ele>540.3333333333333</ele><time>2026-05-02T08:31:22.999Z</time></trkpt><trkpt lat="44.08694928479784" lon="11.04662913598429"><ele>544.6666666666666</ele><time>2026-05-02T08:31:23.999Z</time></trkpt><trkpt lat="44.08709278324162" lon="11.046817025577717"><ele>549.0</ele><time>2026-05-02T08:31:24.999Z</time></trkpt><trkpt lat="44.087193282485046" lon="11.046998629088632"><ele>549.0</ele><time>2026-05-02T08:31:25.999Z</time></trkpt><trkpt lat="44.0872719416244" lon="11.047197302531757"><ele>549.0</ele><time>2026-05-02T08:31:26.999Z</time></trkpt><trkpt lat="44.08733476396227" lon="11.047420012236488"><ele>549.0</ele><time>2026-05-02T08:31:27.999Z</time></trkpt><trkpt lat="44.0874254718385" lon="11.047652849579078"><ele>556.3333333333334</ele><time>2026-05-02T08:31:28.999Z</time></trkpt><trkpt lat="44.08753291503855" lon="11.047872870191423"><ele>563.6666666666667</ele><time>2026-05-02T08:31:29.999Z</time></trkpt><trkpt lat="44.08763090711673" lon="11.048049547089835"><ele>571.0</ele><time>2026-05-02T08:31:30.999Z</time></trkpt><trkpt lat="44.08773084312009" lon="11.048195930867502"><ele>572.0</ele><time>2026-05-02T08:31:31.999Z</time></trkpt><trkpt lat="44.087842066942095" lon="11.048305921980692"><ele>573.0</ele><time>2026-05-02T08:31:32.999Z</time></trkpt><trkpt lat="44.087978784545015" lon="11.04838734648046"><ele>574.0</ele><time>2026-05-02T08:31:33.999Z</time></trkpt><trkpt lat="44.088126427990524" lon="11.048432823944578"><ele>575.0</ele><time>2026-05-02T08:31:34.999Z</time></trkpt><trkpt lat="44.08827556206693" lon="11.048436882251657"><ele>575.0</ele><time>2026-05-02T08:31:35.999Z</time></trkpt><trkpt lat="44.08842823275679" lon="11.048389450749772"><ele>575.0</ele><time>2026-05-02T08:31:36.999Z</time></trkpt><trkpt lat="44.088567871083164" lon="11.048313109307937"><ele>575.0</ele><time>2026-05-02T08:31:37.999Z</time></trkpt><trkpt lat="44.08867115268289" lon="11.048217570640936"><ele>575.0</ele><time>2026-05-02T08:31:38.999Z</time></trkpt><trkpt lat="44.08874371701488" lon="11.048078107520112"><ele>579.5</ele><time>2026-05-02T08:31:39.999Z</time></trkpt><trkpt lat="44.088785795031185" lon="11.047889196369802"><ele>584.0</ele><time>2026-05-02T08:31:40.999Z</time></trkpt><trkpt lat="44.08884553623181" lon="11.047723283507311"><ele>588.5</ele><time>2026-05-02T08:31:41.999Z</time></trkpt><trkpt lat="44.088946619094706" lon="11.047627483168329"><ele>593.0</ele><time>2026-05-02T08:31:42.999Z</time></trkpt><trkpt lat="44.0890435847703" lon="11.04759080789576"><ele>594.8</ele><time>2026-05-02T08:31:43.999Z</time></trkpt><trkpt lat="44.089133321698135" lon="11.047621632888792"><ele>596.5999999999999</ele><time>2026-05-02T08:31:44.999Z</time></trkpt><trkpt lat="44.08918339027803" lon="11.047738705052863"><ele>598.4000000000001</ele><time>2026-05-02T08:31:45.999Z</time></trkpt><trkpt lat="44.08926663567596" lon="11.047791845810316"><ele>600.2</ele><time>2026-05-02T08:31:46.999Z</time></trkpt><trkpt lat="44.08936285785337" lon="11.047767909668735"><ele>602.0</ele><time>2026-05-02T08:31:47.999Z</time></trkpt><trkpt lat="44.089458402506125" lon="11.047675032170163"><ele>602.0</ele><time>2026-05-02T08:31:48.999Z</time></trkpt><trkpt lat="44.08956618750224" lon="11.047567425423228"><ele>602.0</ele><time>2026-05-02T08:31:49.999Z</time></trkpt><trkpt lat="44.0896918641148" lon="11.047458623480974"><ele>602.0</ele><time>2026-05-02T08:31:50.999Z</time></trkpt><trkpt lat="44.08982494199403" lon="11.047333561506754"><ele>602.0</ele><time>2026-05-02T08:31:51.999Z</time></trkpt><trkpt lat="44.089977917738565" lon="11.047205739674617"><ele>608.0</ele><time>2026-05-02T08:31:52.999Z</time></trkpt><trkpt lat="44.0901394960243" lon="11.04704956755749"><ele>614.0</ele><time>2026-05-02T08:31:53.999Z</time></trkpt><trkpt lat="44.09033019225642" lon="11.046918770616402"><ele>620.0</ele><time>2026-05-02T08:31:54.999Z</time></trkpt><trkpt lat="44.09050936103985" lon="11.04680567575399"><ele>620.0</ele><time>2026-05-02T08:31:55.999Z</time></trkpt><trkpt lat="44.0906615687114" lon="11.046695279036872"><ele>620.0</ele><time>2026-05-02T08:31:56.999Z</time></trkpt><trkpt lat="44.09079739768497" lon="11.046540695222436"><ele>620.0</ele><time>2026-05-02T08:31:57.999Z</time></trkpt><trkpt lat="44.09092131543843" lon="11.046323858391807"><ele>624.3333333333333</ele><time>2026-05-02T08:31:58.999Z</time></trkpt><trkpt lat="44.09105066069766" lon="11.04614432013649"><ele>628.6666666666666</ele><time>2026-05-02T08:31:59.999Z</time></trkpt><trkpt lat="44.09114644608789" lon="11.04598899915851"><ele>633.0</ele><time>2026-05-02T08:32:00.999Z</time></trkpt><trkpt lat="44.091250523925275" lon="11.045889106906825"><ele>633.0</ele><time>2026-05-02T08:32:01.999Z</time></trkpt><trkpt lat="44.09136012192045" lon="11.045848045304336"><ele>633.0</ele><time>2026-05-02T08:32:02.999Z</time></trkpt><trkpt lat="44.091483677819326" lon="11.045895990604386"><ele>633.0</ele><time>2026-05-02T08:32:03.999Z</time></trkpt><trkpt lat="44.09162368843637" lon="11.045920888859088"><ele>633.0</ele><time>2026-05-02T08:32:04.999Z</time></trkpt><trkpt lat="44.091768943535016" lon="11.045932297559064"><ele>629.6666666666666</ele><time>2026-05-02T08:32:05.999Z</time></trkpt><trkpt lat="44.09193126151258" lon="11.045900617575153"><ele>626.3333333333333</ele><time>2026-05-02T08:32:06.999Z</time></trkpt><trkpt lat="44.092087460263315" lon="11.045826743010608"><ele>623.0</ele><time>2026-05-02T08:32:07.999Z</time></trkpt><trkpt lat="44.092235325961546" lon="11.045727711008857"><ele>627.4</ele><time>2026-05-02T08:32:08.999Z</time></trkpt><trkpt lat="44.092354260755656" lon="11.045635399207612"><ele>631.8</ele><time>2026-05-02T08:32:09.999Z</time></trkpt><trkpt lat="44.09244830417766" lon="11.045551856170922"><ele>636.2</ele><time>2026-05-02T08:32:10.999Z</time></trkpt><trkpt lat="44.09250296441246" lon="11.045472414957201"><ele>640.6</ele><time>2026-05-02T08:32:11.999Z</time></trkpt><trkpt lat="44.09255713452448" lon="11.045392653082198"><ele>645.0</ele><time>2026-05-02T08:32:12.999Z</time></trkpt><trkpt lat="44.092620247723" lon="11.045331302818846"><ele>645.0</ele><time>2026-05-02T08:32:13.999Z</time></trkpt><trkpt lat="44.092705466154236" lon="11.045291554321347"><ele>645.0</ele><time>2026-05-02T08:32:14.999Z</time></trkpt><trkpt lat="44.09281217675658" lon="11.045283415423935"><ele>645.0</ele><time>2026-05-02T08:32:15.999Z</time></trkpt><trkpt lat="44.09294065034261" lon="11.04529366039801"><ele>645.0</ele><time>2026-05-02T08:32:16.999Z</time></trkpt><trkpt lat="44.09307860788587" lon="11.04530247880444"><ele>645.0</ele><time>2026-05-02T08:32:17.999Z</time></trkpt><trkpt lat="44.0932266261924" lon="11.045308184248272"><ele>645.0</ele><time>2026-05-02T08:32:18.999Z</time></trkpt><trkpt lat="44.0933811371738" lon="11.045312995490804"><ele>645.0</ele><time>2026-05-02T08:32:19.999Z</time></trkpt><trkpt lat="44.09350986327294" lon="11.045302939915517"><ele>645.0</ele><time>2026-05-02T08:32:20.999Z</time></trkpt><trkpt lat="44.0936195832633" lon="11.045267314390898"><ele>644.4</ele><time>2026-05-02T08:32:21.999Z</time></trkpt><trkpt lat="44.09370100180711" lon="11.045176310772097"><ele>643.8</ele><time>2026-05-02T08:32:22.999Z</time></trkpt><trkpt lat="44.09373738114014" lon="11.04503854410093"><ele>643.2</ele><time>2026-05-02T08:32:23.999Z</time></trkpt><trkpt lat="44.0937635787529" lon="11.044895826611"><ele>642.6</ele><time>2026-05-02T08:32:24.999Z</time></trkpt><trkpt lat="44.09382392555746" lon="11.044806985153036"><ele>642.0</ele><time>2026-05-02T08:32:25.999Z</time></trkpt><trkpt lat="44.093925222275" lon="11.0447683917851"><ele>640.25</ele><time>2026-05-02T08:32:26.998Z</time></trkpt><trkpt lat="44.09403578543917" lon="11.044801470134251"><ele>638.5</ele><time>2026-05-02T08:32:27.998Z</time></trkpt><trkpt lat="44.0941541325108" lon="11.044890664205314"><ele>636.75</ele><time>2026-05-02T08:32:28.998Z</time></trkpt><trkpt lat="44.094267155344745" lon="11.044970154767372"><ele>635.0</ele><time>2026-05-02T08:32:29.998Z</time></trkpt><trkpt lat="44.09437303314663" lon="11.04499232269162"><ele>638.8</ele><time>2026-05-02T08:32:30.998Z</time></trkpt><trkpt lat="44.094480358288905" lon="11.044962397915619"><ele>642.6</ele><time>2026-05-02T08:32:31.998Z</time></trkpt><trkpt lat="44.094567269797494" lon="11.044901516448405"><ele>646.4000000000001</ele><time>2026-05-02T08:32:32.998Z</time></trkpt><trkpt lat="44.094628433077446" lon="11.044790964002969"><ele>650.2</ele><time>2026-05-02T08:32:33.998Z</time></trkpt><trkpt lat="44.09467045782171" lon="11.04463947795959"><ele>654.0</ele><time>2026-05-02T08:32:34.998Z</time></trkpt><trkpt lat="44.094685574422165" lon="11.044460669297568"><ele>654.0</ele><time>2026-05-02T08:32:35.998Z</time></trkpt><trkpt lat="44.09467148855264" lon="11.044269733304906"><ele>654.0</ele><time>2026-05-02T08:32:37Z</time></trkpt><trkpt lat="44.09465877015533" lon="11.044103738030403"><ele>654.0</ele><time>2026-05-02T08:32:38Z</time></trkpt><trkpt lat="44.094696917285965" lon="11.043969892876467"><ele>654.0</ele><time>2026-05-02T08:32:39Z</time></trkpt><trkpt lat="44.09478811069384" lon="11.043875433655217"><ele>656.5</ele><time>2026-05-02T08:32:40Z</time></trkpt><trkpt lat="44.094914911339934" lon="11.043822855882711"><ele>659.0</ele><time>2026-05-02T08:32:41Z</time></trkpt><trkpt lat="44.0950215655441" lon="11.043759886328278"><ele>661.5</ele><time>2026-05-02T08:32:42Z</time></trkpt><trkpt lat="44.09510383423726" lon="11.043630896428834"><ele>664.0</ele><time>2026-05-02T08:32:43Z</time></trkpt><trkpt lat="44.095186456318864" lon="11.0435253822723"><ele>664.0</ele><time>2026-05-02T08:32:44Z</time></trkpt><trkpt lat="44.09526764524575" lon="11.04346160182731"><ele>664.0</ele><time>2026-05-02T08:32:45Z</time></trkpt><trkpt lat="44.09535120117973" lon="11.043476603068878"><ele>664.0</ele><time>2026-05-02T08:32:46Z</time></trkpt><trkpt lat="44.09540799715954" lon="11.04357023973433"><ele>664.0</ele><time>2026-05-02T08:32:47Z</time></trkpt><trkpt lat="44.09539605513663" lon="11.043675204208608"><ele>664.0</ele><time>2026-05-02T08:32:48Z</time></trkpt><trkpt lat="44.09541983013823" lon="11.043812906583351"><ele>664.0</ele><time>2026-05-02T08:32:49Z</time></trkpt><trkpt lat="44.095437811191836" lon="11.043966065864831"><ele>664.0</ele><time>2026-05-02T08:32:50Z</time></trkpt><trkpt lat="44.09549110788016" lon="11.044112165434372"><ele>664.0</ele><time>2026-05-02T08:32:51Z</time></trkpt><trkpt lat="44.09556969628699" lon="11.044220830978812"><ele>664.0</ele><time>2026-05-02T08:32:52Z</time></trkpt><trkpt lat="44.09566735749266" lon="11.044280191739063"><ele>664.0</ele><time>2026-05-02T08:32:53Z</time></trkpt><trkpt lat="44.09578652064877" lon="11.04428752781099"><ele>660.25</ele><time>2026-05-02T08:32:54Z</time></trkpt><trkpt lat="44.09590150843459" lon="11.044315157241256"><ele>656.5</ele><time>2026-05-02T08:32:55Z</time></trkpt><trkpt lat="44.095990502590304" lon="11.044425399863657"><ele>652.75</ele><time>2026-05-02T08:32:56Z</time></trkpt><trkpt lat="44.09605628459322" lon="11.04459375121082"><ele>649.0</ele><time>2026-05-02T08:32:57Z</time></trkpt><trkpt lat="44.09618703148424" lon="11.044722846395892"><ele>649.0</ele><time>2026-05-02T08:32:58Z</time></trkpt><trkpt lat="44.096310557899606" lon="11.044859388923308"><ele>649.0</ele><time>2026-05-02T08:32:59Z</time></trkpt><trkpt lat="44.09639485136036" lon="11.045012185100992"><ele>649.0</ele><time>2026-05-02T08:33:00Z</time></trkpt><trkpt lat="44.0965014235101" lon="11.04511967558703"><ele>649.0</ele><time>2026-05-02T08:33:01Z</time></trkpt><trkpt lat="44.096620781325164" lon="11.045207658269405"><ele>648.0</ele><time>2026-05-02T08:33:02Z</time></trkpt><trkpt lat="44.0967466092816" lon="11.045266822617148"><ele>647.0</ele><time>2026-05-02T08:33:03Z</time></trkpt><trkpt lat="44.096867142768474" lon="11.045292128423203"><ele>646.0</ele><time>2026-05-02T08:33:04Z</time></trkpt><trkpt lat="44.09696937477556" lon="11.04528161620198"><ele>645.0</ele><time>2026-05-02T08:33:04.999Z</time></trkpt><trkpt lat="44.09705747862546" lon="11.045224819322593"><ele>645.0</ele><time>2026-05-02T08:33:05.999Z</time></trkpt><trkpt lat="44.09714593816927" lon="11.045125805732438"><ele>645.0</ele><time>2026-05-02T08:33:06.999Z</time></trkpt><trkpt lat="44.09723928729752" lon="11.045003779423789"><ele>645.0</ele><time>2026-05-02T08:33:07.999Z</time></trkpt><trkpt lat="44.09733574767312" lon="11.044879053955626"><ele>645.0</ele><time>2026-05-02T08:33:08.999Z</time></trkpt><trkpt lat="44.09746071890115" lon="11.044845274709893"><ele>654.3333333333334</ele><time>2026-05-02T08:33:09.999Z</time></trkpt><trkpt lat="44.097607891889844" lon="11.044867997818223"><ele>663.6666666666667</ele><time>2026-05-02T08:33:10.999Z</time></trkpt><trkpt lat="44.09777041472993" lon="11.044917247884934"><ele>673.0</ele><time>2026-05-02T08:33:11.999Z</time></trkpt><trkpt lat="44.09791664030358" lon="11.044959138013864"><ele>672.25</ele><time>2026-05-02T08:33:12.999Z</time></trkpt><trkpt lat="44.09805291771352" lon="11.044978435621045"><ele>671.5</ele><time>2026-05-02T08:33:13.999Z</time></trkpt><trkpt lat="44.098191116275906" lon="11.044967975230028"><ele>670.75</ele><time>2026-05-02T08:33:14.999Z</time></trkpt><trkpt lat="44.09833206432607" lon="11.044922778038206"><ele>670.0</ele><time>2026-05-02T08:33:15.999Z</time></trkpt><trkpt lat="44.09846772995679" lon="11.044835841544659"><ele>670.0</ele><time>2026-05-02T08:33:16.999Z</time></trkpt><trkpt lat="44.098595095475574" lon="11.044705795556082"><ele>670.0</ele><time>2026-05-02T08:33:17.999Z</time></trkpt><trkpt lat="44.098732454717194" lon="11.04459836805079"><ele>670.0</ele><time>2026-05-02T08:33:18.999Z</time></trkpt><trkpt lat="44.0988766231361" lon="11.044565687010383"><ele>670.0</ele><time>2026-05-02T08:33:19.999Z</time></trkpt><trkpt lat="44.09899200640141" lon="11.04454717046797"><ele>670.0</ele><time>2026-05-02T08:33:20.999Z</time></trkpt><trkpt lat="44.09907276078895" lon="11.044474689577196"><ele>670.0</ele><time>2026-05-02T08:33:21.999Z</time></trkpt><trkpt lat="44.09912061538629" lon="11.04436913325614"><ele>670.0</ele><time>2026-05-02T08:33:22.999Z</time></trkpt><trkpt lat="44.09915769212643" lon="11.044214370504873"><ele>670.0</ele><time>2026-05-02T08:33:23.999Z</time></trkpt><trkpt lat="44.099192372861935" lon="11.044074335110531"><ele>667.5</ele><time>2026-05-02T08:33:24.999Z</time></trkpt><trkpt lat="44.09919582155598" lon="11.04393684918067"><ele>665.0</ele><time>2026-05-02T08:33:25.999Z</time></trkpt><trkpt lat="44.099162277825755" lon="11.043783122524983"><ele>662.5</ele><time>2026-05-02T08:33:26.999Z</time></trkpt><trkpt lat="44.09910579170598" lon="11.043617750284904"><ele>660.0</ele><time>2026-05-02T08:33:27.999Z</time></trkpt><trkpt lat="44.09906838745235" lon="11.04344965332429"><ele>660.0</ele><time>2026-05-02T08:33:28.999Z</time></trkpt><trkpt lat="44.09907023592064" lon="11.043311705201955"><ele>660.0</ele><time>2026-05-02T08:33:29.999Z</time></trkpt><trkpt lat="44.09910755827394" lon="11.043208034781708"><ele>660.0</ele><time>2026-05-02T08:33:30.999Z</time></trkpt><trkpt lat="44.099182595601604" lon="11.043180980868152"><ele>660.0</ele><time>2026-05-02T08:33:31.999Z</time></trkpt><trkpt lat="44.09925754419426" lon="11.043174818287875"><ele>660.0</ele><time>2026-05-02T08:33:32.999Z</time></trkpt><trkpt lat="44.09932757902352" lon="11.043251227871131"><ele>660.0</ele><time>2026-05-02T08:33:33.999Z</time></trkpt><trkpt lat="44.0993934221935" lon="11.043366574271719"><ele>660.0</ele><time>2026-05-02T08:33:34.999Z</time></trkpt><trkpt lat="44.09948832383164" lon="11.043488146835482"><ele>660.0</ele><time>2026-05-02T08:33:35.999Z</time></trkpt><trkpt lat="44.09960449361753" lon="11.043588324022302"><ele>660.0</ele><time>2026-05-02T08:33:36.999Z</time></trkpt><trkpt lat="44.09970779172318" lon="11.043706128373111"><ele>660.0</ele><time>2026-05-02T08:33:37.999Z</time></trkpt><trkpt lat="44.09982920002579" lon="11.043769670560463"><ele>659.25</ele><time>2026-05-02T08:33:38.999Z</time></trkpt><trkpt lat="44.09996371608722" lon="11.043789844445898"><ele>658.5</ele><time>2026-05-02T08:33:39.999Z</time></trkpt><trkpt lat="44.10009759674981" lon="11.043780859040362"><ele>657.75</ele><time>2026-05-02T08:33:40.999Z</time></trkpt><trkpt lat="44.10020902496979" lon="11.043767687275492"><ele>657.0</ele><time>2026-05-02T08:33:41.999Z</time></trkpt><trkpt lat="44.100288876234224" lon="11.043872047867094"><ele>657.0</ele><time>2026-05-02T08:33:42.999Z</time></trkpt><trkpt lat="44.100373367477715" lon="11.043990344004373"><ele>657.0</ele><time>2026-05-02T08:33:43.999Z</time></trkpt><trkpt lat="44.10043660799483" lon="11.044108079671979"><ele>657.0</ele><time>2026-05-02T08:33:44.999Z</time></trkpt><trkpt lat="44.100535184255534" lon="11.044176656187645"><ele>657.0</ele><time>2026-05-02T08:33:45.999Z</time></trkpt><trkpt lat="44.10065657839242" lon="11.04421974349973"><ele>658.0</ele><time>2026-05-02T08:33:46.999Z</time></trkpt><trkpt lat="44.100769737673644" lon="11.044232105447058"><ele>659.0</ele><time>2026-05-02T08:33:47.999Z</time></trkpt><trkpt lat="44.1008642902013" lon="11.044195008139905"><ele>660.0</ele><time>2026-05-02T08:33:48.999Z</time></trkpt><trkpt lat="44.10095106546828" lon="11.044097564260396"><ele>661.0</ele><time>2026-05-02T08:33:49.999Z</time></trkpt><trkpt lat="44.101042208627334" lon="11.04398975767833"><ele>662.0</ele><time>2026-05-02T08:33:50.999Z</time></trkpt><trkpt lat="44.10114872434522" lon="11.04394885648201"><ele>662.0</ele><time>2026-05-02T08:33:51.999Z</time></trkpt><trkpt lat="44.10126647329195" lon="11.043967811570012"><ele>662.0</ele><time>2026-05-02T08:33:52.999Z</time></trkpt><trkpt lat="44.10139962514454" lon="11.044056499321258"><ele>662.0</ele><time>2026-05-02T08:33:53.999Z</time></trkpt><trkpt lat="44.10152107714935" lon="11.044163996365963"><ele>662.0</ele><time>2026-05-02T08:33:54.999Z</time></trkpt><trkpt lat="44.101639139076305" lon="11.04423379752233"><ele>662.2</ele><time>2026-05-02T08:33:55.999Z</time></trkpt><trkpt lat="44.10175263257529" lon="11.044280213113858"><ele>662.4000000000001</ele><time>2026-05-02T08:33:56.999Z</time></trkpt><trkpt lat="44.10184033826176" lon="11.04428349627798"><ele>662.5999999999999</ele><time>2026-05-02T08:33:57.999Z</time></trkpt><trkpt lat="44.10191680292655" lon="11.044244322735459"><ele>662.8</ele><time>2026-05-02T08:33:58.999Z</time></trkpt><trkpt lat="44.1019774481471" lon="11.044138661270408"><ele>663.0</ele><time>2026-05-02T08:33:59.999Z</time></trkpt><trkpt lat="44.10202701353568" lon="11.043979322423809"><ele>663.0</ele><time>2026-05-02T08:34:00.999Z</time></trkpt><trkpt lat="44.10207332660617" lon="11.043809413395945"><ele>663.0</ele><time>2026-05-02T08:34:01.999Z</time></trkpt><trkpt lat="44.102164345680286" lon="11.04365934070503"><ele>663.0</ele><time>2026-05-02T08:34:02.999Z</time></trkpt><trkpt lat="44.1022715502958" lon="11.043554979116596"><ele>663.0</ele><time>2026-05-02T08:34:03.999Z</time></trkpt><trkpt lat="44.10235353750577" lon="11.043457100737278"><ele>663.0</ele><time>2026-05-02T08:34:04.999Z</time></trkpt><trkpt lat="44.10239270784521" lon="11.043330924032135"><ele>663.0</ele><time>2026-05-02T08:34:05.999Z</time></trkpt><trkpt lat="44.10240060012574" lon="11.04321076353653"><ele>663.0</ele><time>2026-05-02T08:34:06.999Z</time></trkpt><trkpt lat="44.10235561003382" lon="11.043096724835422"><ele>663.0</ele><time>2026-05-02T08:34:07.999Z</time></trkpt><trkpt lat="44.102304562796945" lon="11.042999476900658"><ele>663.0</ele><time>2026-05-02T08:34:08.999Z</time></trkpt><trkpt lat="44.10230708634979" lon="11.042871423328547"><ele>664.25</ele><time>2026-05-02T08:34:09.999Z</time></trkpt><trkpt lat="44.10236034978396" lon="11.042735618790855"><ele>665.5</ele><time>2026-05-02T08:34:10.999Z</time></trkpt><trkpt lat="44.10244809544087" lon="11.042613943367558"><ele>666.75</ele><time>2026-05-02T08:34:11.999Z</time></trkpt><trkpt lat="44.10255814044952" lon="11.042537966502701"><ele>668.0</ele><time>2026-05-02T08:34:12.999Z</time></trkpt><trkpt lat="44.1026441896261" lon="11.042463365778406"><ele>668.25</ele><time>2026-05-02T08:34:13.999Z</time></trkpt><trkpt lat="44.10269751550471" lon="11.04233798687711"><ele>668.5</ele><time>2026-05-02T08:34:14.999Z</time></trkpt><trkpt lat="44.102715394192295" lon="11.042180699185582"><ele>668.75</ele><time>2026-05-02T08:34:15.999Z</time></trkpt><trkpt lat="44.102748476225486" lon="11.042013852497133"><ele>669.0</ele><time>2026-05-02T08:34:16.999Z</time></trkpt><trkpt lat="44.10276500291098" lon="11.041823482202295"><ele>669.0</ele><time>2026-05-02T08:34:17.999Z</time></trkpt><trkpt lat="44.102817133308" lon="11.041640932485416"><ele>669.0</ele><time>2026-05-02T08:34:18.999Z</time></trkpt><trkpt lat="44.10287999640239" lon="11.041493194444477"><ele>669.0</ele><time>2026-05-02T08:34:19.999Z</time></trkpt><trkpt lat="44.102922212370814" lon="11.041343614501011"><ele>669.0</ele><time>2026-05-02T08:34:20.999Z</time></trkpt><trkpt lat="44.10292927475556" lon="11.041178351549908"><ele>670.8000000000001</ele><time>2026-05-02T08:34:21.999Z</time></trkpt><trkpt lat="44.102894677842215" lon="11.041024324574686"><ele>672.6</ele><time>2026-05-02T08:34:22.999Z</time></trkpt><trkpt lat="44.10286923050326" lon="11.040864029664807"><ele>674.4</ele><time>2026-05-02T08:34:23.999Z</time></trkpt><trkpt lat="44.10283412809578" lon="11.040739026608643"><ele>676.2</ele><time>2026-05-02T08:34:24.999Z</time></trkpt><trkpt lat="44.10280404190163" lon="11.040631799622693"><ele>678.0</ele><time>2026-05-02T08:34:25.999Z</time></trkpt><trkpt lat="44.10283116964085" lon="11.040524959052716"><ele>677.1666666666666</ele><time>2026-05-02T08:34:26.999Z</time></trkpt><trkpt lat="44.10288879168234" lon="11.040448544061"><ele>676.3333333333334</ele><time>2026-05-02T08:34:27.998Z</time></trkpt><trkpt lat="44.102963959564825" lon="11.0404172541547"><ele>675.5</ele><time>2026-05-02T08:34:28.998Z</time></trkpt><trkpt lat="44.1030307341389" lon="11.04047166425398"><ele>674.6666666666667</ele><time>2026-05-02T08:34:29.998Z</time></trkpt><trkpt lat="44.103111891421676" lon="11.040499795953712"><ele>673.8333333333334</ele><time>2026-05-02T08:34:30.998Z</time></trkpt><trkpt lat="44.103204159010126" lon="11.04048304180206"><ele>673.0</ele><time>2026-05-02T08:34:31.998Z</time></trkpt><trkpt lat="44.103297068684284" lon="11.040429908285278"><ele>673.0</ele><time>2026-05-02T08:34:32.998Z</time></trkpt><trkpt lat="44.10338074249723" lon="11.040389570821286"><ele>673.0</ele><time>2026-05-02T08:34:33.998Z</time></trkpt><trkpt lat="44.1034659340095" lon="11.040390170470685"><ele>673.0</ele><time>2026-05-02T08:34:34.998Z</time></trkpt><trkpt lat="44.103521428417785" lon="11.040496940399118"><ele>673.0</ele><time>2026-05-02T08:34:35.998Z</time></trkpt><trkpt lat="44.103560001976994" lon="11.040619050103967"><ele>673.0</ele><time>2026-05-02T08:34:36.998Z</time></trkpt><trkpt lat="44.10354653463017" lon="11.040771742374371"><ele>667.0</ele><time>2026-05-02T08:34:37.998Z</time></trkpt><trkpt lat="44.10351698809933" lon="11.040915879002808"><ele>661.0</ele><time>2026-05-02T08:34:38.998Z</time></trkpt><trkpt lat="44.1035377741975" lon="11.041048565921477"><ele>655.0</ele><time>2026-05-02T08:34:39.998Z</time></trkpt><trkpt lat="44.103586331760035" lon="11.041196170840651"><ele>649.0</ele><time>2026-05-02T08:34:40.998Z</time></trkpt><trkpt lat="44.10369303346666" lon="11.041307624388716"><ele>649.0</ele><time>2026-05-02T08:34:41.998Z</time></trkpt><trkpt lat="44.1037875601585" lon="11.041433794670663"><ele>649.0</ele><time>2026-05-02T08:34:42.999Z</time></trkpt><trkpt lat="44.10385802238156" lon="11.041577318554463"><ele>649.0</ele><time>2026-05-02T08:34:43.999Z</time></trkpt><trkpt lat="44.10391205693715" lon="11.041720669178055"><ele>649.0</ele><time>2026-05-02T08:34:44.999Z</time></trkpt><trkpt lat="44.103969794305485" lon="11.041842073496806"><ele>648.0</ele><time>2026-05-02T08:34:45.999Z</time></trkpt><trkpt lat="44.10404522636084" lon="11.041915418819022"><ele>647.0</ele><time>2026-05-02T08:34:46.999Z</time></trkpt><trkpt lat="44.10413405732975" lon="11.041950991498462"><ele>646.0</ele><time>2026-05-02T08:34:47.999Z</time></trkpt><trkpt lat="44.10422547602576" lon="11.041960720648218"><ele>645.0</ele><time>2026-05-02T08:34:48.999Z</time></trkpt><trkpt lat="44.10432167187134" lon="11.041945191094344"><ele>644.0</ele><time>2026-05-02T08:34:49.999Z</time></trkpt><trkpt lat="44.1044319044813" lon="11.041881147816726"><ele>644.0</ele><time>2026-05-02T08:34:50.999Z</time></trkpt><trkpt lat="44.10459733902018" lon="11.041803448305222"><ele>644.0</ele><time>2026-05-02T08:34:51.999Z</time></trkpt><trkpt lat="44.10476645042513" lon="11.041688047824607"><ele>644.0</ele><time>2026-05-02T08:34:52.999Z</time></trkpt><trkpt lat="44.10491454530622" lon="11.041563400288286"><ele>656.0</ele><time>2026-05-02T08:34:53.999Z</time></trkpt><trkpt lat="44.10506137384023" lon="11.041474243636609"><ele>668.0</ele><time>2026-05-02T08:34:54.999Z</time></trkpt><trkpt lat="44.10521838552819" lon="11.041405703840846"><ele>680.0</ele><time>2026-05-02T08:34:56Z</time></trkpt><trkpt lat="44.10538385900587" lon="11.04132378890567"><ele>680.0</ele><time>2026-05-02T08:34:56.999Z</time></trkpt><trkpt lat="44.10556348738323" lon="11.041254109303528"><ele>680.0</ele><time>2026-05-02T08:34:57.999Z</time></trkpt><trkpt lat="44.105760583604436" lon="11.0411959052233"><ele>680.0</ele><time>2026-05-02T08:34:58.999Z</time></trkpt><trkpt lat="44.10596637955568" lon="11.041130874114794"><ele>674.6666666666666</ele><time>2026-05-02T08:34:59.999Z</time></trkpt><trkpt lat="44.106142281938986" lon="11.041021333332225"><ele>669.3333333333334</ele><time>2026-05-02T08:35:00.999Z</time></trkpt><trkpt lat="44.10631349702837" lon="11.040985684496956"><ele>664.0</ele><time>2026-05-02T08:35:01.999Z</time></trkpt><trkpt lat="44.10647712888929" lon="11.040977037270183"><ele>660.0</ele><time>2026-05-02T08:35:02.999Z</time></trkpt><trkpt lat="44.10663378387919" lon="11.041004898955764"><ele>656.0</ele><time>2026-05-02T08:35:03.999Z</time></trkpt><trkpt lat="44.10678523286599" lon="11.041068756488482"><ele>652.0</ele><time>2026-05-02T08:35:04.999Z</time></trkpt><trkpt lat="44.10692360407194" lon="11.041179610117238"><ele>652.0</ele><time>2026-05-02T08:35:05.999Z</time></trkpt><trkpt lat="44.10705031979661" lon="11.041325314870921"><ele>652.0</ele><time>2026-05-02T08:35:06.999Z</time></trkpt><trkpt lat="44.107161588456705" lon="11.041498317710763"><ele>652.0</ele><time>2026-05-02T08:35:07.999Z</time></trkpt><trkpt lat="44.10727399427794" lon="11.041649039594047"><ele>648.0</ele><time>2026-05-02T08:35:08.999Z</time></trkpt><trkpt lat="44.10740960148691" lon="11.041761893804699"><ele>644.0</ele><time>2026-05-02T08:35:09.999Z</time></trkpt><trkpt lat="44.107560934219244" lon="11.041864051872347"><ele>640.0</ele><time>2026-05-02T08:35:10.999Z</time></trkpt><trkpt lat="44.10770962129018" lon="11.041959803986387"><ele>640.0</ele><time>2026-05-02T08:35:11.999Z</time></trkpt><trkpt lat="44.1078451668486" lon="11.042054247447727"><ele>640.0</ele><time>2026-05-02T08:35:12.999Z</time></trkpt><trkpt lat="44.10796698907095" lon="11.04214240987673"><ele>640.0</ele><time>2026-05-02T08:35:13.999Z</time></trkpt><trkpt lat="44.108080681186294" lon="11.042216024070786"><ele>640.0</ele><time>2026-05-02T08:35:14.999Z</time></trkpt><trkpt lat="44.10817267996359" lon="11.042233788104017"><ele>642.0</ele><time>2026-05-02T08:35:15.999Z</time></trkpt><trkpt lat="44.10827577790848" lon="11.042217144769094"><ele>644.0</ele><time>2026-05-02T08:35:16.999Z</time></trkpt><trkpt lat="44.10839409710471" lon="11.042160789045383"><ele>646.0</ele><time>2026-05-02T08:35:17.999Z</time></trkpt><trkpt lat="44.1085151044382" lon="11.042095485938724"><ele>648.0</ele><time>2026-05-02T08:35:18.999Z</time></trkpt><trkpt lat="44.10862981075167" lon="11.04201520126893"><ele>648.0</ele><time>2026-05-02T08:35:19.999Z</time></trkpt><trkpt lat="44.108701434600455" lon="11.041919097387352"><ele>648.0</ele><time>2026-05-02T08:35:20.999Z</time></trkpt><trkpt lat="44.108744911508616" lon="11.041771123913348"><ele>648.0</ele><time>2026-05-02T08:35:21.999Z</time></trkpt><trkpt lat="44.10880045316863" lon="11.041610438633626"><ele>648.0</ele><time>2026-05-02T08:35:22.999Z</time></trkpt><trkpt lat="44.108900993582445" lon="11.041486545066178"><ele>648.5</ele><time>2026-05-02T08:35:23.999Z</time></trkpt><trkpt lat="44.10903079482679" lon="11.041391829820613"><ele>649.0</ele><time>2026-05-02T08:35:24.999Z</time></trkpt><trkpt lat="44.109141141937606" lon="11.041300768519324"><ele>649.5</ele><time>2026-05-02T08:35:25.999Z</time></trkpt><trkpt lat="44.10922061655114" lon="11.04119048967877"><ele>650.0</ele><time>2026-05-02T08:35:26.999Z</time></trkpt><trkpt lat="44.10928811076433" lon="11.0410744622822"><ele>650.0</ele><time>2026-05-02T08:35:27.999Z</time></trkpt><trkpt lat="44.10931003009475" lon="11.040912238333556"><ele>650.0</ele><time>2026-05-02T08:35:28.999Z</time></trkpt><trkpt lat="44.10935200703454" lon="11.040762417134"><ele>650.0</ele><time>2026-05-02T08:35:29.999Z</time></trkpt><trkpt lat="44.109463349528426" lon="11.04065069075605"><ele>650.0</ele><time>2026-05-02T08:35:30.999Z</time></trkpt><trkpt lat="44.10958325686658" lon="11.040499384355883"><ele>652.3333333333333</ele><time>2026-05-02T08:35:31.999Z</time></trkpt><trkpt lat="44.10971802393702" lon="11.040351034735965"><ele>654.6666666666666</ele><time>2026-05-02T08:35:32.999Z</time></trkpt><trkpt lat="44.10983902831323" lon="11.040167010971617"><ele>657.0</ele><time>2026-05-02T08:35:33.999Z</time></trkpt><trkpt lat="44.1099471139944" lon="11.039960785851454"><ele>657.0</ele><time>2026-05-02T08:35:34.999Z</time></trkpt><trkpt lat="44.11006225572972" lon="11.039786937226642"><ele>657.0</ele><time>2026-05-02T08:35:35.999Z</time></trkpt><trkpt lat="44.110145911125265" lon="11.039631413624189"><ele>657.0</ele><time>2026-05-02T08:35:36.999Z</time></trkpt><trkpt lat="44.11023127621063" lon="11.039506785610817"><ele>657.0</ele><time>2026-05-02T08:35:37.999Z</time></trkpt><trkpt lat="44.1103441150736" lon="11.039451369229257"><ele>657.0</ele><time>2026-05-02T08:35:38.999Z</time></trkpt><trkpt lat="44.11048064603376" lon="11.039443016647846"><ele>657.0</ele><time>2026-05-02T08:35:39.999Z</time></trkpt><trkpt lat="44.11062678513702" lon="11.039438492771351"><ele>657.0</ele><time>2026-05-02T08:35:40.999Z</time></trkpt><trkpt lat="44.11077693543819" lon="11.039398842435553"><ele>657.0</ele><time>2026-05-02T08:35:41.999Z</time></trkpt><trkpt lat="44.11092103177187" lon="11.039312866359312"><ele>661.0</ele><time>2026-05-02T08:35:42.999Z</time></trkpt><trkpt lat="44.11104629722645" lon="11.03922312526442"><ele>665.0</ele><time>2026-05-02T08:35:43.999Z</time></trkpt><trkpt lat="44.111136026344056" lon="11.03912494512591"><ele>669.0</ele><time>2026-05-02T08:35:44.999Z</time></trkpt><trkpt lat="44.111196992883656" lon="11.039006796447856"><ele>673.0</ele><time>2026-05-02T08:35:45.999Z</time></trkpt><trkpt lat="44.111213434256875" lon="11.038875937484708"><ele>673.0</ele><time>2026-05-02T08:35:46.999Z</time></trkpt><trkpt lat="44.11124737120528" lon="11.038778185097765"><ele>673.0</ele><time>2026-05-02T08:35:47.999Z</time></trkpt><trkpt lat="44.11131250570468" lon="11.03871529494608"><ele>673.0</ele><time>2026-05-02T08:35:48.999Z</time></trkpt><trkpt lat="44.11138691112073" lon="11.038695060899586"><ele>673.0</ele><time>2026-05-02T08:35:49.999Z</time></trkpt><trkpt lat="44.111461633746" lon="11.038750082716549"><ele>673.0</ele><time>2026-05-02T08:35:50.999Z</time></trkpt><trkpt lat="44.111511250515804" lon="11.038876340051349"><ele>673.0</ele><time>2026-05-02T08:35:51.999Z</time></trkpt><trkpt lat="44.11151747133259" lon="11.039015196081944"><ele>673.0</ele><time>2026-05-02T08:35:52.999Z</time></trkpt><trkpt lat="44.111551355187466" lon="11.039124735695054"><ele>673.0</ele><time>2026-05-02T08:35:53.999Z</time></trkpt><trkpt lat="44.11161976926067" lon="11.03920544554652"><ele>673.0</ele><time>2026-05-02T08:35:54.999Z</time></trkpt><trkpt lat="44.11170836345894" lon="11.039189225067762"><ele>673.0</ele><time>2026-05-02T08:35:55.999Z</time></trkpt><trkpt lat="44.11179339977213" lon="11.039147840740537"><ele>673.0</ele><time>2026-05-02T08:35:56.999Z</time></trkpt><trkpt lat="44.111887009975746" lon="11.039093920187824"><ele>671.5</ele><time>2026-05-02T08:35:57.999Z</time></trkpt><trkpt lat="44.111983875878735" lon="11.03907182352609"><ele>670.0</ele><time>2026-05-02T08:35:58.999Z</time></trkpt><trkpt lat="44.11206902132462" lon="11.03914971286129"><ele>668.5</ele><time>2026-05-02T08:35:59.999Z</time></trkpt><trkpt lat="44.112135829562526" lon="11.039246066006177"><ele>667.0</ele><time>2026-05-02T08:36:00.999Z</time></trkpt><trkpt lat="44.11220195088035" lon="11.039292398338986"><ele>665.5</ele><time>2026-05-02T08:36:01.999Z</time></trkpt><trkpt lat="44.11227184716317" lon="11.039278211410162"><ele>664.0</ele><time>2026-05-02T08:36:02.999Z</time></trkpt><trkpt lat="44.11234282388579" lon="11.039197668962755"><ele>664.0</ele><time>2026-05-02T08:36:03.999Z</time></trkpt><trkpt lat="44.11241896609321" lon="11.039092309579937"><ele>664.0</ele><time>2026-05-02T08:36:04.999Z</time></trkpt><trkpt lat="44.1125106809099" lon="11.038985516551877"><ele>664.0</ele><time>2026-05-02T08:36:05.999Z</time></trkpt><trkpt lat="44.11258148838266" lon="11.038864608148884"><ele>664.0</ele><time>2026-05-02T08:36:06.999Z</time></trkpt><trkpt lat="44.11262661947597" lon="11.038724674535144"><ele>664.0</ele><time>2026-05-02T08:36:07.999Z</time></trkpt><trkpt lat="44.112694623102946" lon="11.038624391918516"><ele>664.0</ele><time>2026-05-02T08:36:08.999Z</time></trkpt><trkpt lat="44.112787488514634" lon="11.038596952635817"><ele>664.0</ele><time>2026-05-02T08:36:09.999Z</time></trkpt><trkpt lat="44.112884865125494" lon="11.038592387354068"><ele>664.0</ele><time>2026-05-02T08:36:10.999Z</time></trkpt><trkpt lat="44.11298114020013" lon="11.038545354642265"><ele>664.0</ele><time>2026-05-02T08:36:11.999Z</time></trkpt><trkpt lat="44.11305548445637" lon="11.038410599634036"><ele>664.0</ele><time>2026-05-02T08:36:12.999Z</time></trkpt><trkpt lat="44.11313812425751" lon="11.038276551668918"><ele>665.5</ele><time>2026-05-02T08:36:13.999Z</time></trkpt><trkpt lat="44.11323939368354" lon="11.03816751527494"><ele>667.0</ele><time>2026-05-02T08:36:14.999Z</time></trkpt><trkpt lat="44.113365007394286" lon="11.038165479290097"><ele>668.5</ele><time>2026-05-02T08:36:15.999Z</time></trkpt><trkpt lat="44.11348090070208" lon="11.03810562728374"><ele>670.0</ele><time>2026-05-02T08:36:16.999Z</time></trkpt><trkpt lat="44.11356183859034" lon="11.037946139125623"><ele>670.0</ele><time>2026-05-02T08:36:17.999Z</time></trkpt><trkpt lat="44.11367166027602" lon="11.037854056180835"><ele>670.0</ele><time>2026-05-02T08:36:18.999Z</time></trkpt><trkpt lat="44.11377878966344" lon="11.037749023493376"><ele>670.0</ele><time>2026-05-02T08:36:19.999Z</time></trkpt><trkpt lat="44.11388839847424" lon="11.037652578717356"><ele>670.0</ele><time>2026-05-02T08:36:20.999Z</time></trkpt><trkpt lat="44.11395969242171" lon="11.037507607991031"><ele>671.6</ele><time>2026-05-02T08:36:21.999Z</time></trkpt><trkpt lat="44.11401526309901" lon="11.037380818290824"><ele>673.2</ele><time>2026-05-02T08:36:22.998Z</time></trkpt><trkpt lat="44.11410217702621" lon="11.037316358458538"><ele>674.8</ele><time>2026-05-02T08:36:23.998Z</time></trkpt><trkpt lat="44.114199092142805" lon="11.037316749925475"><ele>676.4</ele><time>2026-05-02T08:36:24.998Z</time></trkpt><trkpt lat="44.11430431859979" lon="11.037375780491384"><ele>678.0</ele><time>2026-05-02T08:36:25.998Z</time></trkpt><trkpt lat="44.11441986997831" lon="11.037452195335405"><ele>678.0</ele><time>2026-05-02T08:36:26.998Z</time></trkpt><trkpt lat="44.11452570645826" lon="11.037498750135432"><ele>678.0</ele><time>2026-05-02T08:36:27.998Z</time></trkpt><trkpt lat="44.114624733339106" lon="11.037497481246612"><ele>678.0</ele><time>2026-05-02T08:36:28.998Z</time></trkpt><trkpt lat="44.11473235336355" lon="11.037442927292426"><ele>678.0</ele><time>2026-05-02T08:36:29.998Z</time></trkpt><trkpt lat="44.114838434724675" lon="11.037395391177302"><ele>678.0</ele><time>2026-05-02T08:36:30.998Z</time></trkpt><trkpt lat="44.11495362671513" lon="11.037390759055961"><ele>672.0</ele><time>2026-05-02T08:36:31.998Z</time></trkpt><trkpt lat="44.11506884542116" lon="11.037437665197789"><ele>666.0</ele><time>2026-05-02T08:36:32.998Z</time></trkpt><trkpt lat="44.11517636625006" lon="11.0375178840137"><ele>660.0</ele><time>2026-05-02T08:36:33.998Z</time></trkpt><trkpt lat="44.11527486158377" lon="11.03758990387614"><ele>654.0</ele><time>2026-05-02T08:36:34.998Z</time></trkpt><trkpt lat="44.115381822575095" lon="11.037608882261878"><ele>654.0</ele><time>2026-05-02T08:36:35.998Z</time></trkpt><trkpt lat="44.115482483109446" lon="11.037592172396131"><ele>654.0</ele><time>2026-05-02T08:36:36.998Z</time></trkpt><trkpt lat="44.115567089658356" lon="11.037546497767863"><ele>654.0</ele><time>2026-05-02T08:36:37.998Z</time></trkpt><trkpt lat="44.11562443362363" lon="11.03746543654916"><ele>654.0</ele><time>2026-05-02T08:36:38.998Z</time></trkpt><trkpt lat="44.115640181241574" lon="11.03735274136338"><ele>654.0</ele><time>2026-05-02T08:36:39.998Z</time></trkpt><trkpt lat="44.11562178023262" lon="11.037222791417875"><ele>654.0</ele><time>2026-05-02T08:36:40.998Z</time></trkpt><trkpt lat="44.11558162262171" lon="11.03707047248021"><ele>654.0</ele><time>2026-05-02T08:36:41.998Z</time></trkpt><trkpt lat="44.11556447079467" lon="11.036893838307867"><ele>654.0</ele><time>2026-05-02T08:36:42.998Z</time></trkpt><trkpt lat="44.11558100439259" lon="11.036711804022195"><ele>654.0</ele><time>2026-05-02T08:36:43.998Z</time></trkpt><trkpt lat="44.11560245674135" lon="11.03653156843428"><ele>659.75</ele><time>2026-05-02T08:36:44.998Z</time></trkpt><trkpt lat="44.11561388656278" lon="11.03634899472159"><ele>665.5</ele><time>2026-05-02T08:36:45.998Z</time></trkpt><trkpt lat="44.11561939250163" lon="11.036159605945375"><ele>671.25</ele><time>2026-05-02T08:36:46.998Z</time></trkpt><trkpt lat="44.115614510199116" lon="11.035971264968369"><ele>677.0</ele><time>2026-05-02T08:36:47.998Z</time></trkpt><trkpt lat="44.11559972530195" lon="11.035775488234115"><ele>679.0</ele><time>2026-05-02T08:36:48.999Z</time></trkpt><trkpt lat="44.11559156586066" lon="11.03559070508825"><ele>681.0</ele><time>2026-05-02T08:36:49.999Z</time></trkpt><trkpt lat="44.115600533575986" lon="11.03541736715428"><ele>683.0</ele><time>2026-05-02T08:36:50.999Z</time></trkpt><trkpt lat="44.11564101731847" lon="11.035244824868414"><ele>685.0</ele><time>2026-05-02T08:36:51.999Z</time></trkpt><trkpt lat="44.11570609651061" lon="11.035065141183965"><ele>671.3333333333334</ele><time>2026-05-02T08:36:52.999Z</time></trkpt><trkpt lat="44.115799605782094" lon="11.034882542537622"><ele>657.6666666666666</ele><time>2026-05-02T08:36:53.999Z</time></trkpt><trkpt lat="44.115896260665025" lon="11.034683914390865"><ele>644.0</ele><time>2026-05-02T08:36:54.999Z</time></trkpt><trkpt lat="44.11600401406836" lon="11.034474662682113"><ele>644.0</ele><time>2026-05-02T08:36:55.999Z</time></trkpt><trkpt lat="44.11612819371436" lon="11.034287896193462"><ele>644.0</ele><time>2026-05-02T08:36:56.999Z</time></trkpt><trkpt lat="44.1162435658939" lon="11.034129793487956"><ele>644.0</ele><time>2026-05-02T08:36:57.999Z</time></trkpt><trkpt lat="44.11634756945117" lon="11.033966698238103"><ele>650.6666666666666</ele><time>2026-05-02T08:36:59Z</time></trkpt><trkpt lat="44.11643115246521" lon="11.033766864017405"><ele>657.3333333333334</ele><time>2026-05-02T08:36:59.999Z</time></trkpt><trkpt lat="44.11649979843162" lon="11.033554015349647"><ele>664.0</ele><time>2026-05-02T08:37:01Z</time></trkpt><trkpt lat="44.11659070664329" lon="11.033362758140115"><ele>658.0</ele><time>2026-05-02T08:37:02Z</time></trkpt><trkpt lat="44.11669393945077" lon="11.033211246009328"><ele>652.0</ele><time>2026-05-02T08:37:03Z</time></trkpt><trkpt lat="44.11677486383689" lon="11.033043888669097"><ele>646.0</ele><time>2026-05-02T08:37:03.999Z</time></trkpt><trkpt lat="44.11683744114965" lon="11.032851599083886"><ele>640.0</ele><time>2026-05-02T08:37:04.999Z</time></trkpt><trkpt lat="44.116897337569895" lon="11.03264962477734"><ele>643.25</ele><time>2026-05-02T08:37:05.999Z</time></trkpt><trkpt lat="44.11695952586842" lon="11.032439837011903"><ele>646.5</ele><time>2026-05-02T08:37:06.999Z</time></trkpt><trkpt lat="44.117025117102216" lon="11.03226072620959"><ele>649.75</ele><time>2026-05-02T08:37:07.999Z</time></trkpt><trkpt lat="44.1171051796911" lon="11.032108304007368"><ele>653.0</ele><time>2026-05-02T08:37:08.999Z</time></trkpt><trkpt lat="44.117195600187856" lon="11.031997815388104"><ele>653.0</ele><time>2026-05-02T08:37:09.999Z</time></trkpt><trkpt lat="44.11729652167545" lon="11.03190943780378"><ele>653.0</ele><time>2026-05-02T08:37:10.999Z</time></trkpt><trkpt lat="44.1173891987298" lon="11.031810753255517"><ele>653.0</ele><time>2026-05-02T08:37:11.999Z</time></trkpt><trkpt lat="44.11746386368354" lon="11.031682219730786"><ele>653.0</ele><time>2026-05-02T08:37:12.999Z</time></trkpt><trkpt lat="44.11752269192768" lon="11.031554351556643"><ele>642.75</ele><time>2026-05-02T08:37:13.999Z</time></trkpt><trkpt lat="44.117556643679" lon="11.031412008732739"><ele>632.5</ele><time>2026-05-02T08:37:14.999Z</time></trkpt><trkpt lat="44.11756299033132" lon="11.031255362083542"><ele>622.25</ele><time>2026-05-02T08:37:15.999Z</time></trkpt><trkpt lat="44.11753570906545" lon="11.031088293311926"><ele>612.0</ele><time>2026-05-02T08:37:16.999Z</time></trkpt><trkpt lat="44.11747922268585" lon="11.030920592969654"><ele>618.75</ele><time>2026-05-02T08:37:17.999Z</time></trkpt><trkpt lat="44.117396995655355" lon="11.030766783350861"><ele>625.5</ele><time>2026-05-02T08:37:18.999Z</time></trkpt><trkpt lat="44.11729085033896" lon="11.030636968875791"><ele>632.25</ele><time>2026-05-02T08:37:19.999Z</time></trkpt><trkpt lat="44.11720552133826" lon="11.030499202000003"><ele>639.0</ele><time>2026-05-02T08:37:20.999Z</time></trkpt><trkpt lat="44.11712125162352" lon="11.030387607844716"><ele>639.0</ele><time>2026-05-02T08:37:21.999Z</time></trkpt><trkpt lat="44.11704561358984" lon="11.030285492036224"><ele>639.0</ele><time>2026-05-02T08:37:22.999Z</time></trkpt><trkpt lat="44.11701744547429" lon="11.030160931513606"><ele>639.0</ele><time>2026-05-02T08:37:23.999Z</time></trkpt><trkpt lat="44.117041394248695" lon="11.030021265295579"><ele>639.0</ele><time>2026-05-02T08:37:24.999Z</time></trkpt><trkpt lat="44.11708702597945" lon="11.029870624462896"><ele>639.0</ele><time>2026-05-02T08:37:25.999Z</time></trkpt><trkpt lat="44.11713806424127" lon="11.029684280456838"><ele>638.75</ele><time>2026-05-02T08:37:26.999Z</time></trkpt><trkpt lat="44.117169958973015" lon="11.029492118942269"><ele>638.5</ele><time>2026-05-02T08:37:27.999Z</time></trkpt><trkpt lat="44.117205972731156" lon="11.02932763935076"><ele>638.25</ele><time>2026-05-02T08:37:28.999Z</time></trkpt><trkpt lat="44.1172435353001" lon="11.029178217916494"><ele>638.0</ele><time>2026-05-02T08:37:29.999Z</time></trkpt><trkpt lat="44.117284859063766" lon="11.029037897583589"><ele>640.0</ele><time>2026-05-02T08:37:30.999Z</time></trkpt><trkpt lat="44.11734367798261" lon="11.028906009365556"><ele>642.0</ele><time>2026-05-02T08:37:31.999Z</time></trkpt><trkpt lat="44.117422141765076" lon="11.02878867101414"><ele>644.0</ele><time>2026-05-02T08:37:32.999Z</time></trkpt><trkpt lat="44.117511635652484" lon="11.028682506184136"><ele>646.0</ele><time>2026-05-02T08:37:33.999Z</time></trkpt><trkpt lat="44.11760657666072" lon="11.028576818446982"><ele>642.5</ele><time>2026-05-02T08:37:34.999Z</time></trkpt><trkpt lat="44.11770645466479" lon="11.028472376005327"><ele>639.0</ele><time>2026-05-02T08:37:35.999Z</time></trkpt><trkpt lat="44.11781477669811" lon="11.028379448731279"><ele>635.5</ele><time>2026-05-02T08:37:36.999Z</time></trkpt><trkpt lat="44.11793249877092" lon="11.028310851618848"><ele>632.0</ele><time>2026-05-02T08:37:37.999Z</time></trkpt><trkpt lat="44.118058643785396" lon="11.028302821685045"><ele>632.0</ele><time>2026-05-02T08:37:38.999Z</time></trkpt><trkpt lat="44.118183952862246" lon="11.028270766022185"><ele>632.0</ele><time>2026-05-02T08:37:39.999Z</time></trkpt><trkpt lat="44.118309552964114" lon="11.02822992229205"><ele>632.0</ele><time>2026-05-02T08:37:40.999Z</time></trkpt><trkpt lat="44.118440952950735" lon="11.028208142593101"><ele>632.0</ele><time>2026-05-02T08:37:41.999Z</time></trkpt><trkpt lat="44.11855904390885" lon="11.028182296783529"><ele>632.0</ele><time>2026-05-02T08:37:42.999Z</time></trkpt><trkpt lat="44.11864525818818" lon="11.028169185695289"><ele>632.0</ele><time>2026-05-02T08:37:43.999Z</time></trkpt><trkpt lat="44.11872683398627" lon="11.028184055407898"><ele>632.0</ele><time>2026-05-02T08:37:45.999Z</time></trkpt><trkpt lat="44.118709694837435" lon="11.028370367740761"><ele>632.0</ele><time>2026-05-02T08:37:46.999Z</time></trkpt><trkpt lat="44.11878490848764" lon="11.028493619364335"><ele>632.0</ele><time>2026-05-02T08:37:48.999Z</time></trkpt><trkpt lat="44.11892153890981" lon="11.028518336825565"><ele>629.6666666666666</ele><time>2026-05-02T08:37:50.999Z</time></trkpt><trkpt lat="44.11899430023156" lon="11.028534382155623"><ele>627.3333333333333</ele><time>2026-05-02T08:37:51.999Z</time></trkpt><trkpt lat="44.119066953362015" lon="11.028564908334111"><ele>625.0</ele><time>2026-05-02T08:37:52.999Z</time></trkpt><trkpt lat="44.119131391851205" lon="11.028605973896147"><ele>622.6666666666666</ele><time>2026-05-02T08:37:53.999Z</time></trkpt><trkpt lat="44.119191923805424" lon="11.028657233902925"><ele>620.3333333333334</ele><time>2026-05-02T08:37:54.999Z</time></trkpt><trkpt lat="44.119260827721305" lon="11.028722489125096"><ele>618.0</ele><time>2026-05-02T08:37:55.999Z</time></trkpt><trkpt lat="44.11934281684614" lon="11.028803017148418"><ele>616.75</ele><time>2026-05-02T08:37:56.999Z</time></trkpt><trkpt lat="44.11944340872122" lon="11.028876354870278"><ele>615.5</ele><time>2026-05-02T08:37:57.999Z</time></trkpt><trkpt lat="44.11955843111255" lon="11.028923297615048"><ele>614.25</ele><time>2026-05-02T08:37:58.999Z</time></trkpt><trkpt lat="44.119687132667444" lon="11.02892304723454"><ele>613.0</ele><time>2026-05-02T08:37:59.999Z</time></trkpt><trkpt lat="44.11982977668486" lon="11.028909933222057"><ele>610.75</ele><time>2026-05-02T08:38:00.999Z</time></trkpt><trkpt lat="44.11997386975952" lon="11.028900770908686"><ele>608.5</ele><time>2026-05-02T08:38:01.999Z</time></trkpt><trkpt lat="44.1201173959379" lon="11.028894928396076"><ele>606.25</ele><time>2026-05-02T08:38:02.999Z</time></trkpt><trkpt lat="44.12026569584507" lon="11.028887866302298"><ele>604.0</ele><time>2026-05-02T08:38:03.999Z</time></trkpt><trkpt lat="44.12040911263542" lon="11.028878233401315"><ele>604.0</ele><time>2026-05-02T08:38:04.999Z</time></trkpt><trkpt lat="44.1205463064079" lon="11.028865301822917"><ele>604.0</ele><time>2026-05-02T08:38:05.999Z</time></trkpt><trkpt lat="44.12066731427537" lon="11.028877983317846"><ele>604.0</ele><time>2026-05-02T08:38:06.999Z</time></trkpt><trkpt lat="44.12076751753759" lon="11.028940298033778"><ele>604.0</ele><time>2026-05-02T08:38:07.999Z</time></trkpt><trkpt lat="44.12082832475214" lon="11.029039443059027"><ele>601.5</ele><time>2026-05-02T08:38:08.999Z</time></trkpt><trkpt lat="44.12082848701543" lon="11.02916579641822"><ele>599.0</ele><time>2026-05-02T08:38:09.999Z</time></trkpt><trkpt lat="44.12076699134663" lon="11.029305695123858"><ele>596.5</ele><time>2026-05-02T08:38:10.999Z</time></trkpt><trkpt lat="44.12071734755639" lon="11.029469471806046"><ele>594.0</ele><time>2026-05-02T08:38:11.999Z</time></trkpt><trkpt lat="44.120668038010095" lon="11.02963426424004"><ele>594.0</ele><time>2026-05-02T08:38:12.999Z</time></trkpt><trkpt lat="44.12060941751009" lon="11.029785427892838"><ele>594.0</ele><time>2026-05-02T08:38:13.999Z</time></trkpt><trkpt lat="44.12052924152278" lon="11.029917957498402"><ele>594.0</ele><time>2026-05-02T08:38:14.999Z</time></trkpt><trkpt lat="44.12044145974377" lon="11.030058810114824"><ele>594.0</ele><time>2026-05-02T08:38:15.999Z</time></trkpt><trkpt lat="44.12033522211177" lon="11.030187562356877"><ele>590.0</ele><time>2026-05-02T08:38:16.999Z</time></trkpt><trkpt lat="44.12022426396692" lon="11.030325044950189"><ele>586.0</ele><time>2026-05-02T08:38:17.999Z</time></trkpt><trkpt lat="44.12011117842704" lon="11.030470970548318"><ele>582.0</ele><time>2026-05-02T08:38:18.999Z</time></trkpt><trkpt lat="44.119998192829044" lon="11.030633495337657"><ele>585.3333333333334</ele><time>2026-05-02T08:38:19.999Z</time></trkpt><trkpt lat="44.11988353176147" lon="11.030808255086706"><ele>588.6666666666667</ele><time>2026-05-02T08:38:20.999Z</time></trkpt><trkpt lat="44.119784693658374" lon="11.031002865278461"><ele>592.0</ele><time>2026-05-02T08:38:21.999Z</time></trkpt><trkpt lat="44.11970198037571" lon="11.031192077402785"><ele>592.0</ele><time>2026-05-02T08:38:22.999Z</time></trkpt><trkpt lat="44.119634605073536" lon="11.031376293687607"><ele>592.0</ele><time>2026-05-02T08:38:23.999Z</time></trkpt><trkpt lat="44.119596488135564" lon="11.03155890125664"><ele>592.0</ele><time>2026-05-02T08:38:24.999Z</time></trkpt><trkpt lat="44.11958131657788" lon="11.031731507214834"><ele>592.0</ele><time>2026-05-02T08:38:25.999Z</time></trkpt><trkpt lat="44.119567134794465" lon="11.031897396061984"><ele>590.25</ele><time>2026-05-02T08:38:26.999Z</time></trkpt><trkpt lat="44.119562599412916" lon="11.032062240038764"><ele>588.5</ele><time>2026-05-02T08:38:27.999Z</time></trkpt><trkpt lat="44.11956137404797" lon="11.032236860457765"><ele>586.75</ele><time>2026-05-02T08:38:28.999Z</time></trkpt><trkpt lat="44.11955946001869" lon="11.03241500603337"><ele>585.0</ele><time>2026-05-02T08:38:29.999Z</time></trkpt><trkpt lat="44.11956018032242" lon="11.03259401636813"><ele>582.25</ele><time>2026-05-02T08:38:30.999Z</time></trkpt><trkpt lat="44.119550759511775" lon="11.032762417121663"><ele>579.5</ele><time>2026-05-02T08:38:31.999Z</time></trkpt><trkpt lat="44.1195195857595" lon="11.032919137722487"><ele>576.75</ele><time>2026-05-02T08:38:32.998Z</time></trkpt><trkpt lat="44.11946350610106" lon="11.03305788595986"><ele>574.0</ele><time>2026-05-02T08:38:33.998Z</time></trkpt><trkpt lat="44.119356654156384" lon="11.033127980990422"><ele>574.0</ele><time>2026-05-02T08:38:34.998Z</time></trkpt><trkpt lat="44.11923551772908" lon="11.033185598621015"><ele>574.0</ele><time>2026-05-02T08:38:35.998Z</time></trkpt><trkpt lat="44.119097997449984" lon="11.033252479141437"><ele>574.0</ele><time>2026-05-02T08:38:36.998Z</time></trkpt><trkpt lat="44.118952668075686" lon="11.0333384081465"><ele>574.0</ele><time>2026-05-02T08:38:37.998Z</time></trkpt><trkpt lat="44.11881620051409" lon="11.033391440228538"><ele>572.3333333333334</ele><time>2026-05-02T08:38:38.998Z</time></trkpt><trkpt lat="44.11870302817774" lon="11.033438214247326"><ele>570.6666666666667</ele><time>2026-05-02T08:38:39.998Z</time></trkpt><trkpt lat="44.11862728073146" lon="11.03347631416474"><ele>569.0</ele><time>2026-05-02T08:38:40.998Z</time></trkpt><trkpt lat="44.11857331066796" lon="11.033530273966548"><ele>567.3333333333334</ele><time>2026-05-02T08:38:41.998Z</time></trkpt><trkpt lat="44.11855205980206" lon="11.033631528165827"><ele>565.6666666666666</ele><time>2026-05-02T08:38:42.998Z</time></trkpt><trkpt lat="44.118572461083176" lon="11.033733195266729"><ele>564.0</ele><time>2026-05-02T08:38:43.998Z</time></trkpt><trkpt lat="44.1186448845351" lon="11.033826765856602"><ele>564.0</ele><time>2026-05-02T08:38:44.998Z</time></trkpt><trkpt lat="44.118745139793056" lon="11.033908235261439"><ele>564.0</ele><time>2026-05-02T08:38:45.998Z</time></trkpt><trkpt lat="44.118871500453665" lon="11.03399834972201"><ele>564.0</ele><time>2026-05-02T08:38:46.998Z</time></trkpt><trkpt lat="44.11899822238155" lon="11.034134402520861"><ele>564.0</ele><time>2026-05-02T08:38:47.998Z</time></trkpt><trkpt lat="44.1191434429047" lon="11.034272341761053"><ele>560.0</ele><time>2026-05-02T08:38:48.998Z</time></trkpt><trkpt lat="44.11926422831408" lon="11.034408815959244"><ele>556.0</ele><time>2026-05-02T08:38:49.998Z</time></trkpt><trkpt lat="44.119387274392544" lon="11.034523715068149"><ele>552.0</ele><time>2026-05-02T08:38:50.998Z</time></trkpt><trkpt lat="44.11948374486807" lon="11.034643337074781"><ele>548.0</ele><time>2026-05-02T08:38:51.998Z</time></trkpt><trkpt lat="44.11955009492674" lon="11.034755046254375"><ele>548.0</ele><time>2026-05-02T08:38:52.998Z</time></trkpt><trkpt lat="44.119579011057375" lon="11.034872729660036"><ele>548.0</ele><time>2026-05-02T08:38:53.998Z</time></trkpt><trkpt lat="44.11956319917701" lon="11.034987505214902"><ele>548.0</ele><time>2026-05-02T08:38:54.999Z</time></trkpt><trkpt lat="44.11951311465386" lon="11.035085954106517"><ele>548.0</ele><time>2026-05-02T08:38:55.999Z</time></trkpt><trkpt lat="44.11943458988904" lon="11.035145872496386"><ele>548.0</ele><time>2026-05-02T08:38:56.999Z</time></trkpt><trkpt lat="44.119338449195276" lon="11.035129420683973"><ele>548.0</ele><time>2026-05-02T08:38:57.999Z</time></trkpt><trkpt lat="44.11923589595092" lon="11.035069521554293"><ele>548.0</ele><time>2026-05-02T08:38:58.999Z</time></trkpt><trkpt lat="44.11912592088925" lon="11.034968337741702"><ele>548.0</ele><time>2026-05-02T08:38:59.999Z</time></trkpt><trkpt lat="44.11901417730008" lon="11.034851018028254"><ele>548.0</ele><time>2026-05-02T08:39:00.999Z</time></trkpt><trkpt lat="44.11890299111903" lon="11.034723718552947"><ele>548.0</ele><time>2026-05-02T08:39:02Z</time></trkpt><trkpt lat="44.11880750626099" lon="11.034602272665266"><ele>548.1999999999999</ele><time>2026-05-02T08:39:02.999Z</time></trkpt><trkpt lat="44.11871152707812" lon="11.034499745441083"><ele>548.4</ele><time>2026-05-02T08:39:04Z</time></trkpt><trkpt lat="44.11861796943192" lon="11.034450294535965"><ele>548.5999999999999</ele><time>2026-05-02T08:39:05Z</time></trkpt><trkpt lat="44.11852871820302" lon="11.034473483574155"><ele>548.8</ele><time>2026-05-02T08:39:06Z</time></trkpt><trkpt lat="44.11845751474145" lon="11.034551976010388"><ele>549.0</ele><time>2026-05-02T08:39:07Z</time></trkpt><trkpt lat="44.118423516780425" lon="11.03465950002853"><ele>549.0</ele><time>2026-05-02T08:39:08Z</time></trkpt><trkpt lat="44.11842828597579" lon="11.034788933820844"><ele>549.0</ele><time>2026-05-02T08:39:09Z</time></trkpt><trkpt lat="44.11846847882537" lon="11.034922367487498"><ele>549.0</ele><time>2026-05-02T08:39:10Z</time></trkpt><trkpt lat="44.1185407630197" lon="11.035055914008465"><ele>549.0</ele><time>2026-05-02T08:39:10.999Z</time></trkpt><trkpt lat="44.1186290359896" lon="11.03519255570786"><ele>549.0</ele><time>2026-05-02T08:39:11.999Z</time></trkpt><trkpt lat="44.11872053041451" lon="11.035346634133061"><ele>545.25</ele><time>2026-05-02T08:39:12.999Z</time></trkpt><trkpt lat="44.118808507622916" lon="11.035511659372577"><ele>541.5</ele><time>2026-05-02T08:39:13.999Z</time></trkpt><trkpt lat="44.118886436272085" lon="11.035674165641655"><ele>537.75</ele><time>2026-05-02T08:39:14.999Z</time></trkpt><trkpt lat="44.11896104218537" lon="11.035831624584059"><ele>534.0</ele><time>2026-05-02T08:39:15.999Z</time></trkpt><trkpt lat="44.11903625336699" lon="11.035986417727019"><ele>532.5</ele><time>2026-05-02T08:39:16.999Z</time></trkpt><trkpt lat="44.119117838458266" lon="11.036135374254226"><ele>531.0</ele><time>2026-05-02T08:39:17.999Z</time></trkpt><trkpt lat="44.119202748927144" lon="11.03627192321648"><ele>529.5</ele><time>2026-05-02T08:39:18.999Z</time></trkpt><trkpt lat="44.11930208239831" lon="11.036384389898933"><ele>528.0</ele><time>2026-05-02T08:39:19.999Z</time></trkpt><trkpt lat="44.11941358592605" lon="11.036469362514321"><ele>528.0</ele><time>2026-05-02T08:39:20.999Z</time></trkpt><trkpt lat="44.11953136264985" lon="11.03652213286232"><ele>528.0</ele><time>2026-05-02T08:39:21.999Z</time></trkpt><trkpt lat="44.11965697537947" lon="11.036572462416137"><ele>528.0</ele><time>2026-05-02T08:39:22.999Z</time></trkpt><trkpt lat="44.11978460838305" lon="11.036647682353369"><ele>528.0</ele><time>2026-05-02T08:39:23.999Z</time></trkpt><trkpt lat="44.11989816895861" lon="11.036760581099626"><ele>525.4</ele><time>2026-05-02T08:39:24.999Z</time></trkpt><trkpt lat="44.119996731886914" lon="11.036883482271449"><ele>522.8</ele><time>2026-05-02T08:39:25.999Z</time></trkpt><trkpt lat="44.12007954859086" lon="11.03698032357243"><ele>520.2</ele><time>2026-05-02T08:39:26.999Z</time></trkpt><trkpt lat="44.12015118366637" lon="11.03703604476761"><ele>517.6</ele><time>2026-05-02T08:39:27.999Z</time></trkpt><trkpt lat="44.120223291909014" lon="11.037060534209552"><ele>515.0</ele><time>2026-05-02T08:39:28.999Z</time></trkpt><trkpt lat="44.12029713987584" lon="11.03705160151559"><ele>515.0</ele><time>2026-05-02T08:39:29.999Z</time></trkpt><trkpt lat="44.12036689429228" lon="11.037004652049774"><ele>515.0</ele><time>2026-05-02T08:39:30.999Z</time></trkpt><trkpt lat="44.12044035973924" lon="11.036929079488736"><ele>515.0</ele><time>2026-05-02T08:39:31.999Z</time></trkpt><trkpt lat="44.12054050311777" lon="11.036851350311371"><ele>515.0</ele><time>2026-05-02T08:39:32.999Z</time></trkpt><trkpt lat="44.120656730276636" lon="11.036784346844483"><ele>515.0</ele><time>2026-05-02T08:39:33.999Z</time></trkpt><trkpt lat="44.12080101390792" lon="11.036726305145883"><ele>514.0</ele><time>2026-05-02T08:39:34.999Z</time></trkpt><trkpt lat="44.120946844641004" lon="11.036667486033247"><ele>513.0</ele><time>2026-05-02T08:39:35.999Z</time></trkpt><trkpt lat="44.12109235226763" lon="11.036608378044612"><ele>512.0</ele><time>2026-05-02T08:39:36.999Z</time></trkpt><trkpt lat="44.12123222373928" lon="11.03657330095536"><ele>511.0</ele><time>2026-05-02T08:39:37.999Z</time></trkpt><trkpt lat="44.12137249710635" lon="11.0365710518656"><ele>512.25</ele><time>2026-05-02T08:39:38.999Z</time></trkpt><trkpt lat="44.121507729389904" lon="11.036574953511115"><ele>513.5</ele><time>2026-05-02T08:39:39.999Z</time></trkpt><trkpt lat="44.121626374164514" lon="11.036556461688829"><ele>514.75</ele><time>2026-05-02T08:39:40.999Z</time></trkpt><trkpt lat="44.12172734329487" lon="11.036501545774437"><ele>516.0</ele><time>2026-05-02T08:39:41.999Z</time></trkpt><trkpt lat="44.121826579011675" lon="11.036409778449503"><ele>516.0</ele><time>2026-05-02T08:39:42.999Z</time></trkpt><trkpt lat="44.12191952279198" lon="11.036311672989882"><ele>516.0</ele><time>2026-05-02T08:39:43.999Z</time></trkpt><trkpt lat="44.122007861781206" lon="11.036176977073527"><ele>516.0</ele><time>2026-05-02T08:39:44.999Z</time></trkpt><trkpt lat="44.12208294714577" lon="11.036018213129548"><ele>516.0</ele><time>2026-05-02T08:39:45.999Z</time></trkpt><trkpt lat="44.122155996815465" lon="11.035846036224028"><ele>517.25</ele><time>2026-05-02T08:39:46.999Z</time></trkpt><trkpt lat="44.122245413665816" lon="11.0356826107341"><ele>518.5</ele><time>2026-05-02T08:39:47.999Z</time></trkpt><trkpt lat="44.12234775238287" lon="11.035528511930904"><ele>519.75</ele><time>2026-05-02T08:39:48.999Z</time></trkpt><trkpt lat="44.12245940880106" lon="11.035397054304495"><ele>521.0</ele><time>2026-05-02T08:39:49.999Z</time></trkpt><trkpt lat="44.12258898643359" lon="11.035290050007456"><ele>520.25</ele><time>2026-05-02T08:39:50.999Z</time></trkpt><trkpt lat="44.1227270608284" lon="11.035228040557808"><ele>519.5</ele><time>2026-05-02T08:39:51.999Z</time></trkpt><trkpt lat="44.12285740493733" lon="11.035143897988863"><ele>518.75</ele><time>2026-05-02T08:39:52.999Z</time></trkpt><trkpt lat="44.12299270000003" lon="11.035052153230172"><ele>518.0</ele><time>2026-05-02T08:39:53.999Z</time></trkpt><trkpt lat="44.12312930728971" lon="11.034939078557665"><ele>513.6666666666666</ele><time>2026-05-02T08:39:54.999Z</time></trkpt><trkpt lat="44.12327368539185" lon="11.034833510696842"><ele>509.33333333333337</ele><time>2026-05-02T08:39:55.999Z</time></trkpt><trkpt lat="44.12340545473211" lon="11.034723608636781"><ele>505.0</ele><time>2026-05-02T08:39:56.999Z</time></trkpt><trkpt lat="44.12352748890231" lon="11.034596781522513"><ele>505.0</ele><time>2026-05-02T08:39:57.999Z</time></trkpt><trkpt lat="44.12363591162852" lon="11.03447399621659"><ele>505.0</ele><time>2026-05-02T08:39:58.999Z</time></trkpt><trkpt lat="44.12373645600878" lon="11.034355316403218"><ele>505.0</ele><time>2026-05-02T08:39:59.999Z</time></trkpt><trkpt lat="44.123826867071784" lon="11.0342449386838"><ele>505.0</ele><time>2026-05-02T08:40:00.999Z</time></trkpt><trkpt lat="44.12391590574355" lon="11.034140666117692"><ele>503.8</ele><time>2026-05-02T08:40:01.999Z</time></trkpt><trkpt lat="44.12399732283278" lon="11.034049944014859"><ele>502.6</ele><time>2026-05-02T08:40:02.999Z</time></trkpt><trkpt lat="44.124072086020234" lon="11.033961757287457"><ele>501.4</ele><time>2026-05-02T08:40:03.999Z</time></trkpt><trkpt lat="44.124143960840414" lon="11.03387852758475"><ele>500.2</ele><time>2026-05-02T08:40:04.999Z</time></trkpt><trkpt lat="44.12421718923171" lon="11.033792871112087"><ele>499.0</ele><time>2026-05-02T08:40:05.999Z</time></trkpt><trkpt lat="44.12429100040275" lon="11.033710238944325"><ele>499.00000000000006</ele><time>2026-05-02T08:40:06.999Z</time></trkpt><trkpt lat="44.124363963811646" lon="11.033628151388244"><ele>499.0</ele><time>2026-05-02T08:40:07.999Z</time></trkpt><trkpt lat="44.12443246749639" lon="11.03355363897457"><ele>499.0</ele><time>2026-05-02T08:40:08.999Z</time></trkpt><trkpt lat="44.124494302130806" lon="11.03349129608909"><ele>499.0</ele><time>2026-05-02T08:40:09.999Z</time></trkpt><trkpt lat="44.12455412674685" lon="11.033439379107348"><ele>499.00000000000006</ele><time>2026-05-02T08:40:10.999Z</time></trkpt><trkpt lat="44.124644281454195" lon="11.03335761228878"><ele>499.0</ele><time>2026-05-02T08:40:12.999Z</time></trkpt><trkpt lat="44.12468919798147" lon="11.03328082555006"><ele>506.0</ele><time>2026-05-02T08:40:15.999Z</time></trkpt><trkpt lat="44.124641050011206" lon="11.033339115963036"><ele>499.0</ele><time>2026-05-02T08:42:04.999Z</time></trkpt><trkpt lat="44.12471597919763" lon="11.033519223813416"><ele>499.0</ele><time>2026-05-02T08:43:02.998Z</time></trkpt><trkpt lat="44.12469231709724" lon="11.033429801855116"><ele>499.0</ele><time>2026-05-02T08:45:39.999Z</time></trkpt><trkpt lat="44.12471535352164" lon="11.03334807130749"><ele>499.0</ele><time>2026-05-02T08:45:54.999Z</time></trkpt></trkseg><trkseg><trkpt lat="44.11917257452139" lon="11.034246635370703"><ele>548.0</ele><time>2026-05-02T08:57:54.999Z</time></trkpt><trkpt lat="44.11911103930552" lon="11.034207903269897"><ele>548.0</ele><time>2026-05-02T08:57:59.999Z</time></trkpt><trkpt lat="44.11906745839775" lon="11.034142475138825"><ele>548.0</ele><time>2026-05-02T08:58:00.999Z</time></trkpt><trkpt lat="44.118992682964475" lon="11.0340933651277"><ele>548.0</ele><time>2026-05-02T08:58:01.999Z</time></trkpt><trkpt lat="44.118913107657406" lon="11.034027522552684"><ele>548.0</ele><time>2026-05-02T08:58:02.999Z</time></trkpt><trkpt lat="44.11883387343292" lon="11.033948897251307"><ele>548.0</ele><time>2026-05-02T08:58:03.999Z</time></trkpt><trkpt lat="44.118748811446665" lon="11.033879688355258"><ele>550.2857142857143</ele><time>2026-05-02T08:58:04.999Z</time></trkpt><trkpt lat="44.11866540330192" lon="11.033822022789419"><ele>552.5714285714286</ele><time>2026-05-02T08:58:05.999Z</time></trkpt><trkpt lat="44.11860985546694" lon="11.033769552199706"><ele>554.8571428571429</ele><time>2026-05-02T08:58:06.999Z</time></trkpt><trkpt lat="44.11857392175132" lon="11.033694136428364"><ele>557.1428571428571</ele><time>2026-05-02T08:58:07.999Z</time></trkpt><trkpt lat="44.11857248803368" lon="11.033600935995008"><ele>559.4285714285714</ele><time>2026-05-02T08:58:08.999Z</time></trkpt><trkpt lat="44.11861462271333" lon="11.033517912948275"><ele>561.7142857142858</ele><time>2026-05-02T08:58:09.999Z</time></trkpt><trkpt lat="44.11869435337591" lon="11.033484586483022"><ele>564.0</ele><time>2026-05-02T08:58:10.999Z</time></trkpt><trkpt lat="44.11879112070234" lon="11.033431148366873"><ele>564.0</ele><time>2026-05-02T08:58:11.999Z</time></trkpt><trkpt lat="44.118912737869096" lon="11.033394510170272"><ele>564.0</ele><time>2026-05-02T08:58:12.999Z</time></trkpt><trkpt lat="44.11904308743032" lon="11.033338082273561"><ele>564.0</ele><time>2026-05-02T08:58:13.999Z</time></trkpt><trkpt lat="44.119169002218065" lon="11.03327633977731"><ele>564.0</ele><time>2026-05-02T08:58:14.999Z</time></trkpt><trkpt lat="44.119292909833305" lon="11.033216914207692"><ele>566.0</ele><time>2026-05-02T08:58:15.999Z</time></trkpt><trkpt lat="44.11940618413371" lon="11.03314254727832"><ele>568.0</ele><time>2026-05-02T08:58:16.999Z</time></trkpt><trkpt lat="44.119493537737014" lon="11.033046401985803"><ele>570.0</ele><time>2026-05-02T08:58:17.999Z</time></trkpt><trkpt lat="44.119548020455" lon="11.032934918599027"><ele>572.0</ele><time>2026-05-02T08:58:18.999Z</time></trkpt><trkpt lat="44.11957354161067" lon="11.03278605956265"><ele>574.0</ele><time>2026-05-02T08:58:19.999Z</time></trkpt><trkpt lat="44.11956976838147" lon="11.032609727715696"><ele>576.75</ele><time>2026-05-02T08:58:20.999Z</time></trkpt><trkpt lat="44.11956528976544" lon="11.032414581840598"><ele>579.5</ele><time>2026-05-02T08:58:21.999Z</time></trkpt><trkpt lat="44.11958142958889" lon="11.032219278244522"><ele>582.25</ele><time>2026-05-02T08:58:22.999Z</time></trkpt><trkpt lat="44.119584519671314" lon="11.032013080236165"><ele>585.0</ele><time>2026-05-02T08:58:23.999Z</time></trkpt><trkpt lat="44.1195797711059" lon="11.031807185225102"><ele>587.3333333333334</ele><time>2026-05-02T08:58:24.999Z</time></trkpt><trkpt lat="44.11960383083973" lon="11.03160176268493"><ele>589.6666666666667</ele><time>2026-05-02T08:58:25.999Z</time></trkpt><trkpt lat="44.11964494796926" lon="11.031398477326416"><ele>592.0</ele><time>2026-05-02T08:58:26.999Z</time></trkpt><trkpt lat="44.11970925904846" lon="11.031201997094549"><ele>592.0</ele><time>2026-05-02T08:58:27.999Z</time></trkpt><trkpt lat="44.119796443358815" lon="11.031003684752031"><ele>592.0</ele><time>2026-05-02T08:58:28.999Z</time></trkpt><trkpt lat="44.11989483888669" lon="11.030812778965409"><ele>592.0</ele><time>2026-05-02T08:58:29.999Z</time></trkpt><trkpt lat="44.120010148469085" lon="11.030626974427202"><ele>588.6666666666667</ele><time>2026-05-02T08:58:30.999Z</time></trkpt><trkpt lat="44.1201386185568" lon="11.030447221641408"><ele>585.3333333333334</ele><time>2026-05-02T08:58:31.999Z</time></trkpt><trkpt lat="44.12028022154492" lon="11.030278031960519"><ele>582.0</ele><time>2026-05-02T08:58:32.999Z</time></trkpt><trkpt lat="44.12042089642658" lon="11.03011919767187"><ele>586.0</ele><time>2026-05-02T08:58:33.999Z</time></trkpt><trkpt lat="44.12054911184946" lon="11.02995643301846"><ele>590.0</ele><time>2026-05-02T08:58:34.999Z</time></trkpt><trkpt lat="44.120650353389436" lon="11.029773786883776"><ele>594.0</ele><time>2026-05-02T08:58:35.999Z</time></trkpt><trkpt lat="44.12072852948945" lon="11.029574195232561"><ele>593.5</ele><time>2026-05-02T08:58:36.999Z</time></trkpt><trkpt lat="44.120785411231005" lon="11.029376072845759"><ele>593.0</ele><time>2026-05-02T08:58:37.999Z</time></trkpt><trkpt lat="44.1208244080384" lon="11.029206612989489"><ele>592.5</ele><time>2026-05-02T08:58:38.999Z</time></trkpt><trkpt lat="44.12084389441178" lon="11.029062596902799"><ele>592.0</ele><time>2026-05-02T08:58:39.999Z</time></trkpt><trkpt lat="44.12082125269393" lon="11.028950697670098"><ele>592.0</ele><time>2026-05-02T08:58:40.999Z</time></trkpt><trkpt lat="44.12075569115037" lon="11.028871701931353"><ele>592.0</ele><time>2026-05-02T08:58:41.999Z</time></trkpt><trkpt lat="44.12065831301469" lon="11.028839820853223"><ele>592.0</ele><time>2026-05-02T08:58:42.999Z</time></trkpt><trkpt lat="44.12054985320937" lon="11.028844725833757"><ele>592.0</ele><time>2026-05-02T08:58:43.999Z</time></trkpt><trkpt lat="44.12043611880269" lon="11.028847713471468"><ele>592.0</ele><time>2026-05-02T08:58:44.999Z</time></trkpt><trkpt lat="44.120309252426466" lon="11.028854106280656"><ele>595.0</ele><time>2026-05-02T08:58:45.999Z</time></trkpt><trkpt lat="44.12017242185551" lon="11.02886379731065"><ele>598.0</ele><time>2026-05-02T08:58:46.999Z</time></trkpt><trkpt lat="44.120029112007145" lon="11.028877675486378"><ele>601.0</ele><time>2026-05-02T08:58:47.999Z</time></trkpt><trkpt lat="44.119884284277944" lon="11.028868222402698"><ele>604.0</ele><time>2026-05-02T08:58:48.999Z</time></trkpt><trkpt lat="44.11975298956002" lon="11.02887230399821"><ele>606.25</ele><time>2026-05-02T08:58:49.999Z</time></trkpt><trkpt lat="44.11963863369573" lon="11.028871239171126"><ele>608.5</ele><time>2026-05-02T08:58:50.999Z</time></trkpt><trkpt lat="44.11952892614803" lon="11.028856848821611"><ele>610.75</ele><time>2026-05-02T08:58:51.999Z</time></trkpt><trkpt lat="44.11941641722437" lon="11.028827753439556"><ele>613.0</ele><time>2026-05-02T08:58:52.999Z</time></trkpt><trkpt lat="44.11931305546452" lon="11.028741915393478"><ele>613.0</ele><time>2026-05-02T08:58:53.999Z</time></trkpt><trkpt lat="44.11922760153291" lon="11.028648294298831"><ele>613.0</ele><time>2026-05-02T08:58:54.999Z</time></trkpt><trkpt lat="44.11915595459147" lon="11.02853382801606"><ele>613.0</ele><time>2026-05-02T08:58:55.999Z</time></trkpt><trkpt lat="44.11910863952869" lon="11.028394436502074"><ele>613.0</ele><time>2026-05-02T08:58:56.999Z</time></trkpt><trkpt lat="44.11909822689665" lon="11.028240416043404"><ele>613.0</ele><time>2026-05-02T08:58:57.999Z</time></trkpt><trkpt lat="44.119116141667675" lon="11.028088750598215"><ele>614.75</ele><time>2026-05-02T08:58:58.999Z</time></trkpt><trkpt lat="44.11916917624286" lon="11.027946287651323"><ele>616.5</ele><time>2026-05-02T08:58:59.999Z</time></trkpt><trkpt lat="44.11925243952798" lon="11.02782398442572"><ele>618.25</ele><time>2026-05-02T08:59:00.998Z</time></trkpt><trkpt lat="44.11936164980545" lon="11.027725683405611"><ele>620.0</ele><time>2026-05-02T08:59:01.998Z</time></trkpt><trkpt lat="44.11945624987067" lon="11.027624042981993"><ele>620.0</ele><time>2026-05-02T08:59:02.998Z</time></trkpt><trkpt lat="44.11952504234172" lon="11.027501984744998"><ele>620.0</ele><time>2026-05-02T08:59:03.998Z</time></trkpt><trkpt lat="44.11958354466512" lon="11.027367965138858"><ele>620.0</ele><time>2026-05-02T08:59:04.998Z</time></trkpt><trkpt lat="44.11964816971932" lon="11.027228353998575"><ele>620.0</ele><time>2026-05-02T08:59:05.998Z</time></trkpt><trkpt lat="44.119734197494395" lon="11.027094583744043"><ele>620.6666666666666</ele><time>2026-05-02T08:59:06.998Z</time></trkpt><trkpt lat="44.11984561845177" lon="11.026964423950258"><ele>621.3333333333334</ele><time>2026-05-02T08:59:07.998Z</time></trkpt><trkpt lat="44.11997189914899" lon="11.026832463990639"><ele>622.0</ele><time>2026-05-02T08:59:08.998Z</time></trkpt><trkpt lat="44.12009269338415" lon="11.026697567700841"><ele>624.6666666666667</ele><time>2026-05-02T08:59:09.998Z</time></trkpt><trkpt lat="44.12021191597833" lon="11.02655722439548"><ele>627.3333333333334</ele><time>2026-05-02T08:59:10.998Z</time></trkpt><trkpt lat="44.120332897632636" lon="11.026416712294235"><ele>630.0</ele><time>2026-05-02T08:59:11.998Z</time></trkpt><trkpt lat="44.120453583761595" lon="11.026270016897435"><ele>630.0</ele><time>2026-05-02T08:59:12.998Z</time></trkpt><trkpt lat="44.120576341425355" lon="11.026119089362764"><ele>630.0</ele><time>2026-05-02T08:59:13.998Z</time></trkpt><trkpt lat="44.120705125023655" lon="11.025968743590894"><ele>630.0</ele><time>2026-05-02T08:59:14.998Z</time></trkpt><trkpt lat="44.120836863885394" lon="11.025817610079077"><ele>629.3333333333334</ele><time>2026-05-02T08:59:15.998Z</time></trkpt><trkpt lat="44.12096758783744" lon="11.025662125789102"><ele>628.6666666666667</ele><time>2026-05-02T08:59:16.998Z</time></trkpt><trkpt lat="44.12109274125277" lon="11.02550105702091"><ele>628.0</ele><time>2026-05-02T08:59:17.998Z</time></trkpt><trkpt lat="44.12121539364793" lon="11.02536791699325"><ele>628.0</ele><time>2026-05-02T08:59:18.998Z</time></trkpt><trkpt lat="44.121358319109504" lon="11.025262323487409"><ele>628.0</ele><time>2026-05-02T08:59:19.998Z</time></trkpt><trkpt lat="44.12151699877439" lon="11.025177485768948"><ele>628.0</ele><time>2026-05-02T08:59:20.998Z</time></trkpt><trkpt lat="44.12168473981278" lon="11.025101245337222"><ele>626.3333333333334</ele><time>2026-05-02T08:59:21.998Z</time></trkpt><trkpt lat="44.12185764019152" lon="11.025032294665879"><ele>624.6666666666666</ele><time>2026-05-02T08:59:22.998Z</time></trkpt><trkpt lat="44.12202603766563" lon="11.024962225413677"><ele>623.0</ele><time>2026-05-02T08:59:23.998Z</time></trkpt><trkpt lat="44.122185048040514" lon="11.024866793108732"><ele>625.6666666666666</ele><time>2026-05-02T08:59:24.998Z</time></trkpt><trkpt lat="44.122330963789544" lon="11.024739688477679"><ele>628.3333333333334</ele><time>2026-05-02T08:59:25.998Z</time></trkpt><trkpt lat="44.12245413250927" lon="11.024612597234684"><ele>631.0</ele><time>2026-05-02T08:59:26.998Z</time></trkpt><trkpt lat="44.12257190743842" lon="11.024484657753272"><ele>631.0</ele><time>2026-05-02T08:59:27.998Z</time></trkpt><trkpt lat="44.1226955787694" lon="11.024356847495117"><ele>631.0</ele><time>2026-05-02T08:59:28.998Z</time></trkpt><trkpt lat="44.12276432404491" lon="11.024143460676125"><ele>631.0</ele><time>2026-05-02T08:59:29.998Z</time></trkpt><trkpt lat="44.12282769722296" lon="11.023938826527568"><ele>634.3333333333334</ele><time>2026-05-02T08:59:30.998Z</time></trkpt><trkpt lat="44.12287969030159" lon="11.023731160884754"><ele>637.6666666666666</ele><time>2026-05-02T08:59:31.999Z</time></trkpt><trkpt lat="44.12293895178135" lon="11.02353228440657"><ele>641.0</ele><time>2026-05-02T08:59:32.999Z</time></trkpt><trkpt lat="44.123023931951764" lon="11.023375805012012"><ele>640.0</ele><time>2026-05-02T08:59:33.999Z</time></trkpt><trkpt lat="44.123087282000725" lon="11.023221262639264"><ele>639.0</ele><time>2026-05-02T08:59:34.999Z</time></trkpt><trkpt lat="44.12317199021593" lon="11.02309875773305"><ele>638.0</ele><time>2026-05-02T08:59:35.999Z</time></trkpt><trkpt lat="44.12326775009725" lon="11.022975319987806"><ele>637.0</ele><time>2026-05-02T08:59:36.999Z</time></trkpt><trkpt lat="44.1233731553969" lon="11.022852505002367"><ele>637.0</ele><time>2026-05-02T08:59:37.999Z</time></trkpt><trkpt lat="44.12348483199968" lon="11.022737239313365"><ele>637.0</ele><time>2026-05-02T08:59:38.999Z</time></trkpt><trkpt lat="44.12360406701788" lon="11.02263568153416"><ele>637.0</ele><time>2026-05-02T08:59:39.999Z</time></trkpt><trkpt lat="44.12372326605652" lon="11.022561627603741"><ele>637.0</ele><time>2026-05-02T08:59:40.999Z</time></trkpt><trkpt lat="44.12383852225744" lon="11.022516493527043"><ele>639.4000000000001</ele><time>2026-05-02T08:59:41.999Z</time></trkpt><trkpt lat="44.12393850609842" lon="11.022477821408756"><ele>641.8000000000001</ele><time>2026-05-02T08:59:42.999Z</time></trkpt><trkpt lat="44.12400786906979" lon="11.022396496575736"><ele>644.2</ele><time>2026-05-02T08:59:43.999Z</time></trkpt><trkpt lat="44.12404013135403" lon="11.022277699351347"><ele>646.6</ele><time>2026-05-02T08:59:44.999Z</time></trkpt><trkpt lat="44.12403214349668" lon="11.022123545526844"><ele>649.0</ele><time>2026-05-02T08:59:45.999Z</time></trkpt><trkpt lat="44.123998117266055" lon="11.021957424934845"><ele>649.0</ele><time>2026-05-02T08:59:46.999Z</time></trkpt><trkpt lat="44.12395757017084" lon="11.021783424302411"><ele>649.0</ele><time>2026-05-02T08:59:47.999Z</time></trkpt><trkpt lat="44.12392839926206" lon="11.021599308162909"><ele>649.0</ele><time>2026-05-02T08:59:48.999Z</time></trkpt><trkpt lat="44.12391525729914" lon="11.021407631941232"><ele>649.0</ele><time>2026-05-02T08:59:49.999Z</time></trkpt><trkpt lat="44.12391437983251" lon="11.021213960365762"><ele>650.25</ele><time>2026-05-02T08:59:50.999Z</time></trkpt><trkpt lat="44.1239480596912" lon="11.021044499002686"><ele>651.5</ele><time>2026-05-02T08:59:51.999Z</time></trkpt><trkpt lat="44.12398808236376" lon="11.020897469236942"><ele>652.75</ele><time>2026-05-02T08:59:52.999Z</time></trkpt><trkpt lat="44.12405630247078" lon="11.020780945307683"><ele>654.0</ele><time>2026-05-02T08:59:53.999Z</time></trkpt><trkpt lat="44.124142068760506" lon="11.02068392672161"><ele>648.75</ele><time>2026-05-02T08:59:54.999Z</time></trkpt><trkpt lat="44.12423507247169" lon="11.020572740606475"><ele>643.5</ele><time>2026-05-02T08:59:55.999Z</time></trkpt><trkpt lat="44.12434501642223" lon="11.020481362157179"><ele>638.25</ele><time>2026-05-02T08:59:56.999Z</time></trkpt><trkpt lat="44.124444316595316" lon="11.02037260547082"><ele>633.0</ele><time>2026-05-02T08:59:57.999Z</time></trkpt><trkpt lat="44.124539568510826" lon="11.020285416644588"><ele>633.0</ele><time>2026-05-02T08:59:58.999Z</time></trkpt><trkpt lat="44.12462217156596" lon="11.02019438986169"><ele>633.0</ele><time>2026-05-02T08:59:59.999Z</time></trkpt><trkpt lat="44.12470492789492" lon="11.020091305726288"><ele>633.0</ele><time>2026-05-02T09:00:00.999Z</time></trkpt><trkpt lat="44.1247487077159" lon="11.019924227663262"><ele>633.0</ele><time>2026-05-02T09:00:01.999Z</time></trkpt><trkpt lat="44.12482232341174" lon="11.019785997663197"><ele>630.5</ele><time>2026-05-02T09:00:02.999Z</time></trkpt><trkpt lat="44.12489494985545" lon="11.019646953864003"><ele>628.0</ele><time>2026-05-02T09:00:03.999Z</time></trkpt><trkpt lat="44.12497378382736" lon="11.019530530562708"><ele>625.5</ele><time>2026-05-02T09:00:04.999Z</time></trkpt><trkpt lat="44.12507550544888" lon="11.01944067561349"><ele>623.0</ele><time>2026-05-02T09:00:05.999Z</time></trkpt><trkpt lat="44.12520824371647" lon="11.019406674983824"><ele>623.0</ele><time>2026-05-02T09:00:06.999Z</time></trkpt><trkpt lat="44.12533829355937" lon="11.01932559958188"><ele>623.0</ele><time>2026-05-02T09:00:07.999Z</time></trkpt><trkpt lat="44.12546414810548" lon="11.019211142833822"><ele>623.0</ele><time>2026-05-02T09:00:08.999Z</time></trkpt><trkpt lat="44.12557736181946" lon="11.019061841442626"><ele>623.0</ele><time>2026-05-02T09:00:09.999Z</time></trkpt><trkpt lat="44.125684571129746" lon="11.018902462753736"><ele>620.0</ele><time>2026-05-02T09:00:10.999Z</time></trkpt><trkpt lat="44.125792621892934" lon="11.01873582805727"><ele>617.0</ele><time>2026-05-02T09:00:11.999Z</time></trkpt><trkpt lat="44.12591617555903" lon="11.018593170670004"><ele>614.0</ele><time>2026-05-02T09:00:12.999Z</time></trkpt><trkpt lat="44.1260196785927" lon="11.018425539864833"><ele>609.3333333333333</ele><time>2026-05-02T09:00:13.999Z</time></trkpt><trkpt lat="44.12614676308788" lon="11.018283241361729"><ele>604.6666666666666</ele><time>2026-05-02T09:00:14.999Z</time></trkpt><trkpt lat="44.12629926354818" lon="11.018176891394752"><ele>600.0</ele><time>2026-05-02T09:00:15.999Z</time></trkpt><trkpt lat="44.126434703999564" lon="11.018045568785157"><ele>601.75</ele><time>2026-05-02T09:00:16.999Z</time></trkpt><trkpt lat="44.12656675647382" lon="11.017948100862531"><ele>603.5</ele><time>2026-05-02T09:00:17.999Z</time></trkpt><trkpt lat="44.126697355894514" lon="11.01787462328063"><ele>605.25</ele><time>2026-05-02T09:00:18.999Z</time></trkpt><trkpt lat="44.126821795286084" lon="11.01784753031537"><ele>607.0</ele><time>2026-05-02T09:00:19.999Z</time></trkpt><trkpt lat="44.126937018615166" lon="11.01787262394048"><ele>607.0</ele><time>2026-05-02T09:00:20.999Z</time></trkpt><trkpt lat="44.127052876154025" lon="11.0179467295754"><ele>607.0</ele><time>2026-05-02T09:00:21.999Z</time></trkpt><trkpt lat="44.12716877214052" lon="11.018046946079417"><ele>607.0</ele><time>2026-05-02T09:00:22.999Z</time></trkpt><trkpt lat="44.127275746843885" lon="11.018131915546467"><ele>607.0</ele><time>2026-05-02T09:00:23.999Z</time></trkpt><trkpt lat="44.127385311433954" lon="11.018168162768278"><ele>605.75</ele><time>2026-05-02T09:00:24.999Z</time></trkpt><trkpt lat="44.12749401210115" lon="11.018158299847789"><ele>604.5</ele><time>2026-05-02T09:00:25.999Z</time></trkpt><trkpt lat="44.12760476875082" lon="11.018098633290679"><ele>603.25</ele><time>2026-05-02T09:00:26.999Z</time></trkpt><trkpt lat="44.12773075897629" lon="11.017978157990624"><ele>602.0</ele><time>2026-05-02T09:00:27.999Z</time></trkpt><trkpt lat="44.12787730431711" lon="11.017859325350754"><ele>602.0</ele><time>2026-05-02T09:00:28.999Z</time></trkpt><trkpt lat="44.12801128075501" lon="11.017741080338553"><ele>602.0</ele><time>2026-05-02T09:00:29.999Z</time></trkpt><trkpt lat="44.128129484857624" lon="11.017610028541847"><ele>602.0</ele><time>2026-05-02T09:00:30.999Z</time></trkpt><trkpt lat="44.12825840679303" lon="11.017510379521887"><ele>598.75</ele><time>2026-05-02T09:00:31.999Z</time></trkpt><trkpt lat="44.1283810517631" lon="11.017408666294514"><ele>595.5</ele><time>2026-05-02T09:00:32.999Z</time></trkpt><trkpt lat="44.12850563779425" lon="11.01731178472709"><ele>592.25</ele><time>2026-05-02T09:00:33.999Z</time></trkpt><trkpt lat="44.128637702291414" lon="11.017234106364945"><ele>589.0</ele><time>2026-05-02T09:00:34.999Z</time></trkpt><trkpt lat="44.12877234048207" lon="11.017168461934656"><ele>589.0</ele><time>2026-05-02T09:00:35.999Z</time></trkpt><trkpt lat="44.12889811446429" lon="11.017096294412863"><ele>589.0</ele><time>2026-05-02T09:00:36.999Z</time></trkpt><trkpt lat="44.129011121510686" lon="11.017014707376163"><ele>589.0</ele><time>2026-05-02T09:00:37.999Z</time></trkpt><trkpt lat="44.129118575326885" lon="11.016925973569212"><ele>589.0</ele><time>2026-05-02T09:00:38.999Z</time></trkpt><trkpt lat="44.12922056383162" lon="11.016825574545383"><ele>586.3333333333334</ele><time>2026-05-02T09:00:39.999Z</time></trkpt><trkpt lat="44.12939586710321" lon="11.016562516213622"><ele>583.6666666666666</ele><time>2026-05-02T09:00:41.999Z</time></trkpt><trkpt lat="44.12946648289793" lon="11.016415885796702"><ele>581.0</ele><time>2026-05-02T09:00:42.999Z</time></trkpt><trkpt lat="44.1295446067657" lon="11.016276079971899"><ele>581.0</ele><time>2026-05-02T09:00:43.999Z</time></trkpt><trkpt lat="44.12964522358977" lon="11.016149458577052"><ele>581.0</ele><time>2026-05-02T09:00:44.999Z</time></trkpt><trkpt lat="44.12976799097633" lon="11.016043976539219"><ele>581.0</ele><time>2026-05-02T09:00:45.999Z</time></trkpt><trkpt lat="44.1298915354237" lon="11.015959110029069"><ele>581.0</ele><time>2026-05-02T09:00:46.999Z</time></trkpt><trkpt lat="44.130008072495585" lon="11.015875954404285"><ele>580.25</ele><time>2026-05-02T09:00:47.999Z</time></trkpt><trkpt lat="44.13011862652299" lon="11.015782806584129"><ele>579.5</ele><time>2026-05-02T09:00:48.999Z</time></trkpt><trkpt lat="44.13022287776316" lon="11.015690782760315"><ele>578.75</ele><time>2026-05-02T09:00:49.999Z</time></trkpt><trkpt lat="44.130322777691525" lon="11.015604721603586"><ele>578.0</ele><time>2026-05-02T09:00:50.999Z</time></trkpt><trkpt lat="44.130413927879594" lon="11.015506841854434"><ele>578.0</ele><time>2026-05-02T09:00:51.999Z</time></trkpt><trkpt lat="44.13049390846292" lon="11.015385337674676"><ele>578.0</ele><time>2026-05-02T09:00:52.999Z</time></trkpt><trkpt lat="44.130560794621815" lon="11.015228252989658"><ele>578.0</ele><time>2026-05-02T09:00:53.999Z</time></trkpt><trkpt lat="44.1306223963721" lon="11.015061294876814"><ele>578.0</ele><time>2026-05-02T09:00:54.999Z</time></trkpt><trkpt lat="44.1306908084399" lon="11.01489001585846"><ele>577.25</ele><time>2026-05-02T09:00:55.999Z</time></trkpt><trkpt lat="44.130769457789526" lon="11.014724482460041"><ele>576.5</ele><time>2026-05-02T09:00:56.999Z</time></trkpt><trkpt lat="44.1308745421346" lon="11.01458162920226"><ele>575.75</ele><time>2026-05-02T09:00:57.999Z</time></trkpt><trkpt lat="44.1310052579544" lon="11.014461289790994"><ele>575.0</ele><time>2026-05-02T09:00:58.999Z</time></trkpt><trkpt lat="44.131149338381505" lon="11.01435348364034"><ele>575.0</ele><time>2026-05-02T09:00:59.999Z</time></trkpt><trkpt lat="44.131278276910436" lon="11.014236889348586"><ele>575.0</ele><time>2026-05-02T09:01:00.999Z</time></trkpt><trkpt lat="44.13138495261759" lon="11.01410990347687"><ele>575.0</ele><time>2026-05-02T09:01:01.999Z</time></trkpt><trkpt lat="44.1314574954048" lon="11.013973405233747"><ele>575.0</ele><time>2026-05-02T09:01:02.999Z</time></trkpt><trkpt lat="44.131492483827834" lon="11.013814763495857"><ele>572.0</ele><time>2026-05-02T09:01:03.999Z</time></trkpt><trkpt lat="44.13152532372509" lon="11.013646080188733"><ele>569.0</ele><time>2026-05-02T09:01:04.999Z</time></trkpt><trkpt lat="44.131493292616554" lon="11.013451495302625"><ele>566.0</ele><time>2026-05-02T09:01:05.999Z</time></trkpt><trkpt lat="44.13145760108674" lon="11.013253716348736"><ele>563.0</ele><time>2026-05-02T09:01:06.999Z</time></trkpt><trkpt lat="44.13140151669648" lon="11.0130500222949"><ele>561.3333333333333</ele><time>2026-05-02T09:01:07.999Z</time></trkpt><trkpt lat="44.13134558185989" lon="11.01283426609168"><ele>559.6666666666666</ele><time>2026-05-02T09:01:08.999Z</time></trkpt><trkpt lat="44.13129278302407" lon="11.012616561195676"><ele>558.0</ele><time>2026-05-02T09:01:09.999Z</time></trkpt><trkpt lat="44.131242570503204" lon="11.012398667077084"><ele>556.75</ele><time>2026-05-02T09:01:10.998Z</time></trkpt><trkpt lat="44.13119630268573" lon="11.012195977091482"><ele>555.5</ele><time>2026-05-02T09:01:11.998Z</time></trkpt><trkpt lat="44.13117563412842" lon="11.011997246187006"><ele>554.25</ele><time>2026-05-02T09:01:12.998Z</time></trkpt><trkpt lat="44.13113896604032" lon="11.011818399854016"><ele>553.0</ele><time>2026-05-02T09:01:13.998Z</time></trkpt><trkpt lat="44.13114704035375" lon="11.0116351529335"><ele>551.5</ele><time>2026-05-02T09:01:14.998Z</time></trkpt><trkpt lat="44.131199335173896" lon="11.011466446798973"><ele>550.0</ele><time>2026-05-02T09:01:15.998Z</time></trkpt><trkpt lat="44.13124009125362" lon="11.011288148123732"><ele>548.5</ele><time>2026-05-02T09:01:16.998Z</time></trkpt><trkpt lat="44.13130244751917" lon="11.01112071236454"><ele>547.0</ele><time>2026-05-02T09:01:17.998Z</time></trkpt><trkpt lat="44.1313783276798" lon="11.010973055023962"><ele>547.0</ele><time>2026-05-02T09:01:18.998Z</time></trkpt><trkpt lat="44.131475273483844" lon="11.010856284652034"><ele>547.0</ele><time>2026-05-02T09:01:19.998Z</time></trkpt><trkpt lat="44.131600197416404" lon="11.010770102606482"><ele>547.0</ele><time>2026-05-02T09:01:20.998Z</time></trkpt><trkpt lat="44.1317353208678" lon="11.010693174696852"><ele>547.0</ele><time>2026-05-02T09:01:21.998Z</time></trkpt><trkpt lat="44.13186869977476" lon="11.010622453090969"><ele>546.25</ele><time>2026-05-02T09:01:22.998Z</time></trkpt><trkpt lat="44.13199986683091" lon="11.0105576914643"><ele>545.5</ele><time>2026-05-02T09:01:23.998Z</time></trkpt><trkpt lat="44.132128581483954" lon="11.010505840458997"><ele>544.75</ele><time>2026-05-02T09:01:24.998Z</time></trkpt><trkpt lat="44.13225570673255" lon="11.010466034798439"><ele>544.0</ele><time>2026-05-02T09:01:25.998Z</time></trkpt><trkpt lat="44.1323796687271" lon="11.010421132098758"><ele>544.25</ele><time>2026-05-02T09:01:26.998Z</time></trkpt><trkpt lat="44.13248925075546" lon="11.0103464217141"><ele>544.5</ele><time>2026-05-02T09:01:27.998Z</time></trkpt><trkpt lat="44.13259054031888" lon="11.01024899004927"><ele>544.75</ele><time>2026-05-02T09:01:28.998Z</time></trkpt><trkpt lat="44.13265524116411" lon="11.010083307101102"><ele>545.0</ele><time>2026-05-02T09:01:29.998Z</time></trkpt><trkpt lat="44.132718655946" lon="11.009914849340285"><ele>542.5</ele><time>2026-05-02T09:01:30.998Z</time></trkpt><trkpt lat="44.13278524607977" lon="11.009759013580386"><ele>540.0</ele><time>2026-05-02T09:01:31.998Z</time></trkpt><trkpt lat="44.13285105388595" lon="11.009610295898547"><ele>537.5</ele><time>2026-05-02T09:01:32.998Z</time></trkpt><trkpt lat="44.13291151476279" lon="11.009462318905463"><ele>535.0</ele><time>2026-05-02T09:01:33.998Z</time></trkpt><trkpt lat="44.13296802411782" lon="11.009304786390253"><ele>533.0</ele><time>2026-05-02T09:01:34.998Z</time></trkpt><trkpt lat="44.133014111629656" lon="11.009133822809892"><ele>531.0</ele><time>2026-05-02T09:01:35.998Z</time></trkpt><trkpt lat="44.13304370996964" lon="11.008940843527313"><ele>529.0</ele><time>2026-05-02T09:01:36.998Z</time></trkpt><trkpt lat="44.133061192258104" lon="11.008754359943582"><ele>527.0</ele><time>2026-05-02T09:01:37.999Z</time></trkpt><trkpt lat="44.133064926181966" lon="11.008583419317283"><ele>527.0</ele><time>2026-05-02T09:01:38.999Z</time></trkpt><trkpt lat="44.13305988481889" lon="11.008422004781664"><ele>527.0</ele><time>2026-05-02T09:01:39.999Z</time></trkpt><trkpt lat="44.13303569986809" lon="11.008265240073298"><ele>527.0</ele><time>2026-05-02T09:01:40.999Z</time></trkpt><trkpt lat="44.13299094217179" lon="11.008113494948825"><ele>527.0</ele><time>2026-05-02T09:01:41.999Z</time></trkpt><trkpt lat="44.13292059689445" lon="11.007967563287988"><ele>526.75</ele><time>2026-05-02T09:01:42.999Z</time></trkpt><trkpt lat="44.13283419859812" lon="11.007815006871192"><ele>526.5</ele><time>2026-05-02T09:01:43.999Z</time></trkpt><trkpt lat="44.13276363612747" lon="11.00764636287554"><ele>526.25</ele><time>2026-05-02T09:01:44.999Z</time></trkpt><trkpt lat="44.13273660659226" lon="11.00745331036905"><ele>526.0</ele><time>2026-05-02T09:01:45.999Z</time></trkpt><trkpt lat="44.13270561010529" lon="11.007263805999672"><ele>527.25</ele><time>2026-05-02T09:01:46.999Z</time></trkpt><trkpt lat="44.13263816508763" lon="11.00707221504593"><ele>528.5</ele><time>2026-05-02T09:01:47.999Z</time></trkpt><trkpt lat="44.13254429669007" lon="11.006911857349213"><ele>529.75</ele><time>2026-05-02T09:01:48.999Z</time></trkpt><trkpt lat="44.13244563729154" lon="11.006773891513506"><ele>531.0</ele><time>2026-05-02T09:01:49.999Z</time></trkpt><trkpt lat="44.132369160608036" lon="11.00662140604171"><ele>526.5</ele><time>2026-05-02T09:01:50.999Z</time></trkpt><trkpt lat="44.13229822907918" lon="11.006468236613332"><ele>522.0</ele><time>2026-05-02T09:01:51.999Z</time></trkpt><trkpt lat="44.132228498680206" lon="11.00630794084211"><ele>517.5</ele><time>2026-05-02T09:01:52.999Z</time></trkpt><trkpt lat="44.13216372604928" lon="11.006139904047638"><ele>513.0</ele><time>2026-05-02T09:01:53.999Z</time></trkpt><trkpt lat="44.13211824843477" lon="11.005960584663212"><ele>512.5</ele><time>2026-05-02T09:01:54.999Z</time></trkpt><trkpt lat="44.13211598549601" lon="11.0057627136837"><ele>512.0</ele><time>2026-05-02T09:01:55.999Z</time></trkpt><trkpt lat="44.132108839855185" lon="11.005569586353436"><ele>511.5</ele><time>2026-05-02T09:01:56.999Z</time></trkpt><trkpt lat="44.13209036666544" lon="11.00538664819223"><ele>511.0</ele><time>2026-05-02T09:01:57.999Z</time></trkpt><trkpt lat="44.132080696425994" lon="11.005200891126348"><ele>511.0</ele><time>2026-05-02T09:01:58.999Z</time></trkpt><trkpt lat="44.132076387613026" lon="11.005011512584208"><ele>511.0</ele><time>2026-05-02T09:01:59.999Z</time></trkpt><trkpt lat="44.13205709972433" lon="11.004817885229869"><ele>511.0</ele><time>2026-05-02T09:02:00.999Z</time></trkpt><trkpt lat="44.132049915320046" lon="11.004619637497644"><ele>511.0</ele><time>2026-05-02T09:02:01.999Z</time></trkpt><trkpt lat="44.132059268627884" lon="11.004413538074678"><ele>509.5</ele><time>2026-05-02T09:02:02.999Z</time></trkpt><trkpt lat="44.13207950511403" lon="11.00421146087867"><ele>508.0</ele><time>2026-05-02T09:02:03.999Z</time></trkpt><trkpt lat="44.13209686559521" lon="11.00403667464543"><ele>506.5</ele><time>2026-05-02T09:02:04.999Z</time></trkpt><trkpt lat="44.13209014269199" lon="11.003876459305095"><ele>505.0</ele><time>2026-05-02T09:02:05.999Z</time></trkpt><trkpt lat="44.13204822998109" lon="11.003722789736683"><ele>504.75</ele><time>2026-05-02T09:02:06.999Z</time></trkpt><trkpt lat="44.13197210462943" lon="11.003600967910424"><ele>504.5</ele><time>2026-05-02T09:02:07.999Z</time></trkpt><trkpt lat="44.131881675131524" lon="11.003483511297166"><ele>504.25</ele><time>2026-05-02T09:02:08.999Z</time></trkpt><trkpt lat="44.13180126044575" lon="11.003358417726734"><ele>504.0</ele><time>2026-05-02T09:02:09.999Z</time></trkpt><trkpt lat="44.1317389322859" lon="11.003238116103844"><ele>502.1666666666667</ele><time>2026-05-02T09:02:10.999Z</time></trkpt><trkpt lat="44.13170507445884" lon="11.003144646307732"><ele>500.33333333333337</ele><time>2026-05-02T09:02:11.999Z</time></trkpt><trkpt lat="44.13169561012912" lon="11.00304941488801"><ele>498.5</ele><time>2026-05-02T09:02:12.999Z</time></trkpt><trkpt lat="44.1317224537744" lon="11.002949063218164"><ele>496.6666666666667</ele><time>2026-05-02T09:02:13.999Z</time></trkpt><trkpt lat="44.131803692035014" lon="11.002890058081295"><ele>494.83333333333337</ele><time>2026-05-02T09:02:14.999Z</time></trkpt><trkpt lat="44.13188816664793" lon="11.002802375816216"><ele>493.0</ele><time>2026-05-02T09:02:15.999Z</time></trkpt><trkpt lat="44.13199380751331" lon="11.002727946302489"><ele>493.0</ele><time>2026-05-02T09:02:16.999Z</time></trkpt><trkpt lat="44.13209261432363" lon="11.00262421357352"><ele>493.0</ele><time>2026-05-02T09:02:17.999Z</time></trkpt><trkpt lat="44.13220229718069" lon="11.00250270020451"><ele>493.0</ele><time>2026-05-02T09:02:18.999Z</time></trkpt><trkpt lat="44.132288843687114" lon="11.002345209434077"><ele>493.0</ele><time>2026-05-02T09:02:19.999Z</time></trkpt><trkpt lat="44.132345038600775" lon="11.00216414728713"><ele>492.25</ele><time>2026-05-02T09:02:20.999Z</time></trkpt><trkpt lat="44.1324128737294" lon="11.00200672227397"><ele>491.5</ele><time>2026-05-02T09:02:21.999Z</time></trkpt><trkpt lat="44.132494437662466" lon="11.001877351606256"><ele>490.75</ele><time>2026-05-02T09:02:22.999Z</time></trkpt><trkpt lat="44.13258943083551" lon="11.001795262230623"><ele>490.0</ele><time>2026-05-02T09:02:23.999Z</time></trkpt><trkpt lat="44.13269863073622" lon="11.00178852914963"><ele>490.0</ele><time>2026-05-02T09:02:24.999Z</time></trkpt><trkpt lat="44.132808248095024" lon="11.001785275889901"><ele>490.0</ele><time>2026-05-02T09:02:25.999Z</time></trkpt><trkpt lat="44.13292601540642" lon="11.001849082483824"><ele>490.0</ele><time>2026-05-02T09:02:26.999Z</time></trkpt><trkpt lat="44.13303819787341" lon="11.001973433007354"><ele>490.0</ele><time>2026-05-02T09:02:27.999Z</time></trkpt><trkpt lat="44.133155612644956" lon="11.002113817076841"><ele>487.75</ele><time>2026-05-02T09:02:28.999Z</time></trkpt><trkpt lat="44.13327698305297" lon="11.002232857075084"><ele>485.5</ele><time>2026-05-02T09:02:29.999Z</time></trkpt><trkpt lat="44.133375989858926" lon="11.00234900895573"><ele>483.25</ele><time>2026-05-02T09:02:30.999Z</time></trkpt><trkpt lat="44.13346834095709" lon="11.002443895564383"><ele>481.0</ele><time>2026-05-02T09:02:31.999Z</time></trkpt><trkpt lat="44.13353508620856" lon="11.00251896201876"><ele>481.00000000000006</ele><time>2026-05-02T09:02:32.999Z</time></trkpt><trkpt lat="44.13359492145135" lon="11.002573657144955"><ele>481.0</ele><time>2026-05-02T09:02:33.999Z</time></trkpt><trkpt lat="44.13367038240177" lon="11.002601916912754"><ele>481.0</ele><time>2026-05-02T09:02:34.999Z</time></trkpt><trkpt lat="44.1337507744491" lon="11.002584977786984"><ele>481.0</ele><time>2026-05-02T09:02:35.999Z</time></trkpt><trkpt lat="44.1338348454097" lon="11.002538897292286"><ele>481.00000000000006</ele><time>2026-05-02T09:02:36.999Z</time></trkpt><trkpt lat="44.13390057390793" lon="11.002429622116802"><ele>481.0</ele><time>2026-05-02T09:02:37.999Z</time></trkpt><trkpt lat="44.13398585555716" lon="11.00234497060111"><ele>479.8</ele><time>2026-05-02T09:02:38.999Z</time></trkpt><trkpt lat="44.13407826248373" lon="11.002273693394136"><ele>478.6</ele><time>2026-05-02T09:02:39.999Z</time></trkpt><trkpt lat="44.13418534752258" lon="11.002247366548168"><ele>477.4</ele><time>2026-05-02T09:02:40.999Z</time></trkpt><trkpt lat="44.134296043798635" lon="11.002263896011076"><ele>476.2</ele><time>2026-05-02T09:02:41.999Z</time></trkpt><trkpt lat="44.13439713460313" lon="11.00227792698783"><ele>475.0</ele><time>2026-05-02T09:02:42.999Z</time></trkpt><trkpt lat="44.13448224646735" lon="11.00223583696675"><ele>475.0</ele><time>2026-05-02T09:02:43.999Z</time></trkpt><trkpt lat="44.13453823918657" lon="11.002139699052396"><ele>475.0</ele><time>2026-05-02T09:02:44.999Z</time></trkpt><trkpt lat="44.134545259641065" lon="11.00199137966226"><ele>475.0</ele><time>2026-05-02T09:02:45.999Z</time></trkpt><trkpt lat="44.134543476681294" lon="11.001834146474096"><ele>475.0</ele><time>2026-05-02T09:02:46.999Z</time></trkpt><trkpt lat="44.134530433007725" lon="11.001663977860426"><ele>475.0</ele><time>2026-05-02T09:02:47.999Z</time></trkpt><trkpt lat="44.134510898033476" lon="11.00147930991436"><ele>472.5</ele><time>2026-05-02T09:02:48.999Z</time></trkpt><trkpt lat="44.134496841564186" lon="11.001302385305486"><ele>470.0</ele><time>2026-05-02T09:02:49.999Z</time></trkpt><trkpt lat="44.134495855927746" lon="11.001133168779573"><ele>467.5</ele><time>2026-05-02T09:02:50.999Z</time></trkpt><trkpt lat="44.13450925799961" lon="11.000975521587025"><ele>465.0</ele><time>2026-05-02T09:02:51.999Z</time></trkpt><trkpt lat="44.134539032839506" lon="11.000824699502065"><ele>463.3333333333333</ele><time>2026-05-02T09:02:52.999Z</time></trkpt><trkpt lat="44.134567829358694" lon="11.00069669710347"><ele>461.66666666666663</ele><time>2026-05-02T09:02:53.999Z</time></trkpt><trkpt lat="44.13456614193838" lon="11.000583289112376"><ele>460.0</ele><time>2026-05-02T09:02:54.999Z</time></trkpt><trkpt lat="44.13453647372206" lon="11.000490394746414"><ele>458.3333333333333</ele><time>2026-05-02T09:02:55.999Z</time></trkpt><trkpt lat="44.134487704269375" lon="11.000407442651772"><ele>456.66666666666663</ele><time>2026-05-02T09:02:56.999Z</time></trkpt><trkpt lat="44.13440044741385" lon="11.000390747647504"><ele>455.0</ele><time>2026-05-02T09:02:57.999Z</time></trkpt><trkpt lat="44.13432578209419" lon="11.000453966582848"><ele>455.0</ele><time>2026-05-02T09:02:58.999Z</time></trkpt><trkpt lat="44.13426436206435" lon="11.000535829004313"><ele>455.0</ele><time>2026-05-02T09:02:59.999Z</time></trkpt><trkpt lat="44.13418496917138" lon="11.00061680363876"><ele>455.0</ele><time>2026-05-02T09:03:00.999Z</time></trkpt><trkpt lat="44.13411151620302" lon="11.000724825940635"><ele>455.0</ele><time>2026-05-02T09:03:01.999Z</time></trkpt><trkpt lat="44.13403586094565" lon="11.00081987921314"><ele>455.0</ele><time>2026-05-02T09:03:02.999Z</time></trkpt><trkpt lat="44.133958983902005" lon="11.000910117772692"><ele>455.0</ele><time>2026-05-02T09:03:03.999Z</time></trkpt><trkpt lat="44.133862006032594" lon="11.00094276373978"><ele>455.0</ele><time>2026-05-02T09:03:04.999Z</time></trkpt><trkpt lat="44.13376847227516" lon="11.000935467846816"><ele>455.0</ele><time>2026-05-02T09:03:05.999Z</time></trkpt><trkpt lat="44.13368846175911" lon="11.000873068155784"><ele>455.0</ele><time>2026-05-02T09:03:06.999Z</time></trkpt><trkpt lat="44.13362840127276" lon="11.000764060352703"><ele>455.0</ele><time>2026-05-02T09:03:07.999Z</time></trkpt><trkpt lat="44.13357529592906" lon="11.000616612917172"><ele>455.0</ele><time>2026-05-02T09:03:08.999Z</time></trkpt><trkpt lat="44.13355274292463" lon="11.00042363146788"><ele>455.0</ele><time>2026-05-02T09:03:09.999Z</time></trkpt><trkpt lat="44.133528652758855" lon="11.000215078030338"><ele>455.0</ele><time>2026-05-02T09:03:10.999Z</time></trkpt><trkpt lat="44.13349548680806" lon="11.000009211938398"><ele>455.0</ele><time>2026-05-02T09:03:11.999Z</time></trkpt><trkpt lat="44.13348743430794" lon="10.999798742793036"><ele>455.0</ele><time>2026-05-02T09:03:12.999Z</time></trkpt><trkpt lat="44.13348088047843" lon="10.999587880233118"><ele>455.0</ele><time>2026-05-02T09:03:13.999Z</time></trkpt><trkpt lat="44.13348330318784" lon="10.99937023817772"><ele>455.0</ele><time>2026-05-02T09:03:14.999Z</time></trkpt><trkpt lat="44.13348966301452" lon="10.999149453822065"><ele>453.66666666666663</ele><time>2026-05-02T09:03:15.999Z</time></trkpt><trkpt lat="44.133498199755685" lon="10.998934448624626"><ele>452.33333333333337</ele><time>2026-05-02T09:03:16.999Z</time></trkpt><trkpt lat="44.13350870468764" lon="10.998724881899456"><ele>451.0</ele><time>2026-05-02T09:03:17.999Z</time></trkpt><trkpt lat="44.13352004263256" lon="10.998507774725802"><ele>448.75</ele><time>2026-05-02T09:03:18.999Z</time></trkpt><trkpt lat="44.133534071978104" lon="10.998293131579024"><ele>446.5</ele><time>2026-05-02T09:03:19.999Z</time></trkpt><trkpt lat="44.133546941131016" lon="10.998096065220306"><ele>444.25</ele><time>2026-05-02T09:03:20.999Z</time></trkpt><trkpt lat="44.133548866220956" lon="10.997913778384952"><ele>442.0</ele><time>2026-05-02T09:03:21.999Z</time></trkpt><trkpt lat="44.133529221637865" lon="10.997744748976096"><ele>442.0</ele><time>2026-05-02T09:03:22.999Z</time></trkpt><trkpt lat="44.13347475506851" lon="10.997596715952174"><ele>442.0</ele><time>2026-05-02T09:03:23.999Z</time></trkpt><trkpt lat="44.13339340312088" lon="10.997470872037749"><ele>442.0</ele><time>2026-05-02T09:03:24.999Z</time></trkpt><trkpt lat="44.13329787078026" lon="10.997364854473275"><ele>442.0</ele><time>2026-05-02T09:03:25.998Z</time></trkpt><trkpt lat="44.133201268416975" lon="10.99727414170454"><ele>441.5</ele><time>2026-05-02T09:03:26.998Z</time></trkpt><trkpt lat="44.13308820263618" lon="10.9971918332152"><ele>441.0</ele><time>2026-05-02T09:03:27.998Z</time></trkpt><trkpt lat="44.1329599255723" lon="10.997117068124789"><ele>440.5</ele><time>2026-05-02T09:03:28.998Z</time></trkpt><trkpt lat="44.132818954766684" lon="10.997045613236999"><ele>440.0</ele><time>2026-05-02T09:03:29.998Z</time></trkpt><trkpt lat="44.13267256115698" lon="10.996976094337409"><ele>440.0</ele><time>2026-05-02T09:03:30.998Z</time></trkpt><trkpt lat="44.132530673217936" lon="10.996915085887938"><ele>440.0</ele><time>2026-05-02T09:03:31.998Z</time></trkpt><trkpt lat="44.13239721228132" lon="10.996865280020666"><ele>440.0</ele><time>2026-05-02T09:03:32.998Z</time></trkpt><trkpt lat="44.13227131632796" lon="10.996838199246415"><ele>440.0</ele><time>2026-05-02T09:03:33.998Z</time></trkpt><trkpt lat="44.1321410844036" lon="10.996861037739052"><ele>436.3333333333333</ele><time>2026-05-02T09:03:34.998Z</time></trkpt><trkpt lat="44.13201204587978" lon="10.9969244776688"><ele>432.66666666666663</ele><time>2026-05-02T09:03:35.998Z</time></trkpt><trkpt lat="44.131864243118095" lon="10.997051014926537"><ele>429.0</ele><time>2026-05-02T09:03:36.998Z</time></trkpt><trkpt lat="44.131683946409034" lon="10.997172163542048"><ele>419.5</ele><time>2026-05-02T09:03:37.998Z</time></trkpt><trkpt lat="44.13148371002781" lon="10.997317341866971"><ele>410.0</ele><time>2026-05-02T09:03:38.998Z</time></trkpt><trkpt lat="44.131284292138936" lon="10.997485840181287"><ele>409.66666666666663</ele><time>2026-05-02T09:03:39.998Z</time></trkpt><trkpt lat="44.13107821877305" lon="10.997613150349618"><ele>409.33333333333337</ele><time>2026-05-02T09:03:40.998Z</time></trkpt><trkpt lat="44.13088273471397" lon="10.997729343857001"><ele>409.0</ele><time>2026-05-02T09:03:41.998Z</time></trkpt><trkpt lat="44.13069943346299" lon="10.997840235415987"><ele>409.0</ele><time>2026-05-02T09:03:42.999Z</time></trkpt><trkpt lat="44.13052686909668" lon="10.997951094580971"><ele>409.0</ele><time>2026-05-02T09:03:43.999Z</time></trkpt><trkpt lat="44.13036155523893" lon="10.998043291984231"><ele>409.0</ele><time>2026-05-02T09:03:44.999Z</time></trkpt><trkpt lat="44.130216179344" lon="10.998138060005509"><ele>409.0</ele><time>2026-05-02T09:03:45.999Z</time></trkpt><trkpt lat="44.13007786542424" lon="10.9982353956536"><ele>409.0</ele><time>2026-05-02T09:03:46.999Z</time></trkpt><trkpt lat="44.12992323348908" lon="10.998283881245301"><ele>409.0</ele><time>2026-05-02T09:03:47.999Z</time></trkpt><trkpt lat="44.12976878567172" lon="10.998323495444428"><ele>409.25</ele><time>2026-05-02T09:03:48.999Z</time></trkpt><trkpt lat="44.12962077215064" lon="10.998347716153228"><ele>409.5</ele><time>2026-05-02T09:03:49.999Z</time></trkpt><trkpt lat="44.129486601908255" lon="10.99833319204624"><ele>409.75</ele><time>2026-05-02T09:03:50.999Z</time></trkpt><trkpt lat="44.129367568109345" lon="10.998341257248082"><ele>410.0</ele><time>2026-05-02T09:03:51.999Z</time></trkpt><trkpt lat="44.129263200913535" lon="10.998272626892016"><ele>407.0</ele><time>2026-05-02T09:03:52.999Z</time></trkpt><trkpt lat="44.1291594687517" lon="10.998195778959667"><ele>404.0</ele><time>2026-05-02T09:03:53.999Z</time></trkpt><trkpt lat="44.12905037100357" lon="10.998125983449734"><ele>401.0</ele><time>2026-05-02T09:03:54.999Z</time></trkpt><trkpt lat="44.1289454263124" lon="10.998041193372368"><ele>398.0</ele><time>2026-05-02T09:03:55.999Z</time></trkpt><trkpt lat="44.128842205290134" lon="10.997956322037997"><ele>397.0</ele><time>2026-05-02T09:03:56.999Z</time></trkpt><trkpt lat="44.12873473074233" lon="10.997871533189288"><ele>396.0</ele><time>2026-05-02T09:03:57.999Z</time></trkpt><trkpt lat="44.12862905738967" lon="10.997793983185852"><ele>395.0</ele><time>2026-05-02T09:03:58.999Z</time></trkpt><trkpt lat="44.128551394347596" lon="10.997699024971475"><ele>394.0</ele><time>2026-05-02T09:03:59.999Z</time></trkpt><trkpt lat="44.12849055820602" lon="10.997640796544754"><ele>393.0</ele><time>2026-05-02T09:04:00.999Z</time></trkpt><trkpt lat="44.128475585261285" lon="10.997539211544256"><ele>393.0</ele><time>2026-05-02T09:04:01.999Z</time></trkpt><trkpt lat="44.12853038885208" lon="10.99741513885376"><ele>393.0</ele><time>2026-05-02T09:04:02.999Z</time></trkpt><trkpt lat="44.12857847561387" lon="10.997259962256264"><ele>393.0</ele><time>2026-05-02T09:04:03.999Z</time></trkpt><trkpt lat="44.12865896326313" lon="10.997103711645865"><ele>393.0</ele><time>2026-05-02T09:04:04.999Z</time></trkpt><trkpt lat="44.1287184060967" lon="10.996928551718756"><ele>393.0</ele><time>2026-05-02T09:04:05.999Z</time></trkpt><trkpt lat="44.12874544928519" lon="10.996727500749683"><ele>393.0</ele><time>2026-05-02T09:04:06.999Z</time></trkpt><trkpt lat="44.12874879009066" lon="10.99650851629858"><ele>393.0</ele><time>2026-05-02T09:04:07.999Z</time></trkpt><trkpt lat="44.12874771417694" lon="10.996284360416213"><ele>396.33333333333337</ele><time>2026-05-02T09:04:08.999Z</time></trkpt><trkpt lat="44.12874492193482" lon="10.99606812366231"><ele>399.6666666666667</ele><time>2026-05-02T09:04:09.999Z</time></trkpt><trkpt lat="44.12872550259578" lon="10.995855831260874"><ele>403.0</ele><time>2026-05-02T09:04:10.999Z</time></trkpt><trkpt lat="44.12869064588565" lon="10.995652038113581"><ele>404.75</ele><time>2026-05-02T09:04:11.999Z</time></trkpt><trkpt lat="44.128648997270744" lon="10.995473636046109"><ele>406.5</ele><time>2026-05-02T09:04:12.999Z</time></trkpt><trkpt lat="44.12860539897898" lon="10.995318282198694"><ele>408.25</ele><time>2026-05-02T09:04:13.999Z</time></trkpt><trkpt lat="44.128548846832246" lon="10.995182798430019"><ele>410.0</ele><time>2026-05-02T09:04:14.999Z</time></trkpt><trkpt lat="44.128471306503" lon="10.995067931578971"><ele>408.5</ele><time>2026-05-02T09:04:15.999Z</time></trkpt><trkpt lat="44.128377598368296" lon="10.994957217965615"><ele>407.0</ele><time>2026-05-02T09:04:16.999Z</time></trkpt><trkpt lat="44.1282890809805" lon="10.994833247387698"><ele>405.5</ele><time>2026-05-02T09:04:17.999Z</time></trkpt><trkpt lat="44.12820941388822" lon="10.99470490911712"><ele>404.0</ele><time>2026-05-02T09:04:18.999Z</time></trkpt><trkpt lat="44.128148961788355" lon="10.994588397433839"><ele>407.99999999999994</ele><time>2026-05-02T09:04:19.999Z</time></trkpt><trkpt lat="44.12810512743099" lon="10.994477483335398"><ele>412.0</ele><time>2026-05-02T09:04:20.999Z</time></trkpt><trkpt lat="44.12807463094144" lon="10.994366167955192"><ele>416.0</ele><time>2026-05-02T09:04:21.999Z</time></trkpt><trkpt lat="44.12805425365093" lon="10.994243247030195"><ele>420.0</ele><time>2026-05-02T09:04:22.999Z</time></trkpt><trkpt lat="44.128046296764275" lon="10.994132474010563"><ele>423.99999999999994</ele><time>2026-05-02T09:04:23.999Z</time></trkpt><trkpt lat="44.12804535900281" lon="10.994024319023135"><ele>428.0</ele><time>2026-05-02T09:04:24.999Z</time></trkpt><trkpt lat="44.12805043900538" lon="10.993917861201028"><ele>427.99999999999994</ele><time>2026-05-02T09:04:25.999Z</time></trkpt><trkpt lat="44.128061262707355" lon="10.993813449060282"><ele>428.0</ele><time>2026-05-02T09:04:26.999Z</time></trkpt><trkpt lat="44.128076199334004" lon="10.993721465110378"><ele>428.0</ele><time>2026-05-02T09:04:27.999Z</time></trkpt><trkpt lat="44.128070544977035" lon="10.993589110045047"><ele>428.0</ele><time>2026-05-02T09:04:29.999Z</time></trkpt><trkpt lat="44.1280216456218" lon="10.993502568576847"><ele>427.99999999999994</ele><time>2026-05-02T09:04:32.999Z</time></trkpt><trkpt lat="44.12806843486364" lon="10.993357885372065"><ele>428.0</ele><time>2026-05-02T09:04:34.999Z</time></trkpt><trkpt lat="44.12811059680414" lon="10.993247251839989"><ele>426.25</ele><time>2026-05-02T09:04:35.999Z</time></trkpt><trkpt lat="44.12814263189294" lon="10.993120338816723"><ele>424.5</ele><time>2026-05-02T09:04:36.999Z</time></trkpt><trkpt lat="44.12817774343476" lon="10.992961994539451"><ele>422.75</ele><time>2026-05-02T09:04:37.999Z</time></trkpt><trkpt lat="44.12817553669499" lon="10.99273973304866"><ele>421.0</ele><time>2026-05-02T09:04:38.999Z</time></trkpt><trkpt lat="44.12815076760966" lon="10.992526932056329"><ele>421.5</ele><time>2026-05-02T09:04:39.999Z</time></trkpt><trkpt lat="44.12813363790573" lon="10.992326651080765"><ele>422.0</ele><time>2026-05-02T09:04:40.999Z</time></trkpt><trkpt lat="44.128158260526426" lon="10.992140094477065"><ele>422.5</ele><time>2026-05-02T09:04:41.999Z</time></trkpt><trkpt lat="44.12821111857933" lon="10.992004158057506"><ele>423.0</ele><time>2026-05-02T09:04:42.999Z</time></trkpt><trkpt lat="44.12828572038217" lon="10.991914838419998"><ele>417.75</ele><time>2026-05-02T09:04:43.999Z</time></trkpt><trkpt lat="44.12838725225718" lon="10.99188583863772"><ele>412.5</ele><time>2026-05-02T09:04:44.999Z</time></trkpt><trkpt lat="44.128506700134245" lon="10.99187306035925"><ele>407.25</ele><time>2026-05-02T09:04:45.999Z</time></trkpt><trkpt lat="44.12862619268097" lon="10.991837231080973"><ele>402.0</ele><time>2026-05-02T09:04:46.999Z</time></trkpt><trkpt lat="44.12874859750418" lon="10.991801754678614"><ele>402.0</ele><time>2026-05-02T09:04:47.999Z</time></trkpt><trkpt lat="44.128862847678626" lon="10.991777141408313"><ele>402.0</ele><time>2026-05-02T09:04:48.999Z</time></trkpt><trkpt lat="44.12897327005531" lon="10.991759692815782"><ele>402.0</ele><time>2026-05-02T09:04:49.999Z</time></trkpt><trkpt lat="44.12906867931292" lon="10.99174963756773"><ele>402.0</ele><time>2026-05-02T09:04:50.999Z</time></trkpt><trkpt lat="44.12913336030933" lon="10.991746072675369"><ele>402.0</ele><time>2026-05-02T09:04:51.999Z</time></trkpt><trkpt lat="44.12920773389497" lon="10.991736049868933"><ele>401.5</ele><time>2026-05-02T09:04:54.999Z</time></trkpt><trkpt lat="44.129291976449956" lon="10.991709930497777"><ele>401.0</ele><time>2026-05-02T09:04:56.999Z</time></trkpt><trkpt lat="44.1293563120139" lon="10.991670633464368"><ele>400.5</ele><time>2026-05-02T09:04:59.999Z</time></trkpt><trkpt lat="44.12946412685206" lon="10.991616395813379"><ele>400.0</ele><time>2026-05-02T09:05:02.999Z</time></trkpt><trkpt lat="44.12953652617033" lon="10.991608068150953"><ele>399.5</ele><time>2026-05-02T09:05:03.999Z</time></trkpt><trkpt lat="44.12962160819942" lon="10.991590253525262"><ele>399.0</ele><time>2026-05-02T09:05:04.999Z</time></trkpt><trkpt lat="44.129712885763475" lon="10.99157085181142"><ele>399.0</ele><time>2026-05-02T09:05:05.999Z</time></trkpt><trkpt lat="44.12979727810562" lon="10.99154615976198"><ele>399.0</ele><time>2026-05-02T09:05:06.999Z</time></trkpt><trkpt lat="44.12987415121183" lon="10.991522882375971"><ele>399.0</ele><time>2026-05-02T09:05:07.999Z</time></trkpt><trkpt lat="44.12996852331644" lon="10.991498121583362"><ele>399.0</ele><time>2026-05-02T09:05:09.999Z</time></trkpt><trkpt lat="44.1300631003204" lon="10.991486659124261"><ele>399.0</ele><time>2026-05-02T09:05:17.999Z</time></trkpt><trkpt lat="44.130160198564475" lon="10.991463028718"><ele>400.0</ele><time>2026-05-02T09:05:19.999Z</time></trkpt><trkpt lat="44.13023191415785" lon="10.991437770428151"><ele>401.0</ele><time>2026-05-02T09:05:22.999Z</time></trkpt><trkpt lat="44.13030453135651" lon="10.991412844345327"><ele>402.0</ele><time>2026-05-02T09:05:25.999Z</time></trkpt><trkpt lat="44.13038732999951" lon="10.991388723540485"><ele>403.0</ele><time>2026-05-02T09:05:27.999Z</time></trkpt><trkpt lat="44.13049807819799" lon="10.991365569582381"><ele>404.0</ele><time>2026-05-02T09:05:29.999Z</time></trkpt><trkpt lat="44.13056542206413" lon="10.991352803984793"><ele>405.0</ele><time>2026-05-02T09:05:30.999Z</time></trkpt><trkpt lat="44.13064082485106" lon="10.991335751055093"><ele>404.4</ele><time>2026-05-02T09:05:31.999Z</time></trkpt><trkpt lat="44.13073135747963" lon="10.991310605314021"><ele>403.8</ele><time>2026-05-02T09:05:32.999Z</time></trkpt><trkpt lat="44.13083518287339" lon="10.991276060076794"><ele>403.20000000000005</ele><time>2026-05-02T09:05:33.999Z</time></trkpt><trkpt lat="44.13094603433354" lon="10.991248936066247"><ele>402.6</ele><time>2026-05-02T09:05:34.999Z</time></trkpt><trkpt lat="44.13105934452645" lon="10.991225869261656"><ele>402.0</ele><time>2026-05-02T09:05:35.999Z</time></trkpt><trkpt lat="44.13116042711076" lon="10.991200471131103"><ele>402.0</ele><time>2026-05-02T09:05:36.999Z</time></trkpt><trkpt lat="44.131247327768094" lon="10.991176379691325"><ele>402.0</ele><time>2026-05-02T09:05:37.999Z</time></trkpt><trkpt lat="44.131323317569574" lon="10.99115744555439"><ele>402.0</ele><time>2026-05-02T09:05:38.999Z</time></trkpt><trkpt lat="44.131388187848714" lon="10.991134799802055"><ele>402.0</ele><time>2026-05-02T09:05:39.999Z</time></trkpt><trkpt lat="44.13149976152516" lon="10.99110458171128"><ele>402.0</ele><time>2026-05-02T09:05:41.999Z</time></trkpt><trkpt lat="44.13157851929845" lon="10.991083141182834"><ele>402.0</ele><time>2026-05-02T09:05:43.998Z</time></trkpt><trkpt lat="44.13169099625697" lon="10.991041927579177"><ele>402.0</ele><time>2026-05-02T09:05:45.998Z</time></trkpt><trkpt lat="44.13176591634889" lon="10.991009604335717"><ele>402.0</ele><time>2026-05-02T09:05:46.998Z</time></trkpt><trkpt lat="44.13184024478172" lon="10.990983493483595"><ele>402.0</ele><time>2026-05-02T09:05:47.998Z</time></trkpt><trkpt lat="44.13194109150706" lon="10.990962736294312"><ele>402.0</ele><time>2026-05-02T09:05:48.999Z</time></trkpt><trkpt lat="44.132053958588095" lon="10.990909230717014"><ele>402.0</ele><time>2026-05-02T09:05:49.999Z</time></trkpt><trkpt lat="44.13218350577509" lon="10.99082212709196"><ele>402.66666666666663</ele><time>2026-05-02T09:05:50.999Z</time></trkpt><trkpt lat="44.1323280783838" lon="10.990761147114174"><ele>403.3333333333333</ele><time>2026-05-02T09:05:51.999Z</time></trkpt><trkpt lat="44.13248502472968" lon="10.990685592073923"><ele>404.0</ele><time>2026-05-02T09:05:52.999Z</time></trkpt><trkpt lat="44.132628209214936" lon="10.99060547825093"><ele>404.0</ele><time>2026-05-02T09:05:53.999Z</time></trkpt><trkpt lat="44.13277134083708" lon="10.990530475811767"><ele>404.0</ele><time>2026-05-02T09:05:54.999Z</time></trkpt><trkpt lat="44.13289421181479" lon="10.990399290013697"><ele>404.0</ele><time>2026-05-02T09:05:55.999Z</time></trkpt><trkpt lat="44.13299675476652" lon="10.99023759630129"><ele>404.0</ele><time>2026-05-02T09:05:56.999Z</time></trkpt><trkpt lat="44.13311493472041" lon="10.990093109129438"><ele>404.0</ele><time>2026-05-02T09:05:57.999Z</time></trkpt><trkpt lat="44.1332443387971" lon="10.989960394587142"><ele>404.0</ele><time>2026-05-02T09:05:58.999Z</time></trkpt><trkpt lat="44.13338482032167" lon="10.989836407242837"><ele>403.0</ele><time>2026-05-02T09:05:59.999Z</time></trkpt><trkpt lat="44.13353640821281" lon="10.989725922145379"><ele>402.0</ele><time>2026-05-02T09:06:00.999Z</time></trkpt><trkpt lat="44.133696225182355" lon="10.989620287784048"><ele>401.0</ele><time>2026-05-02T09:06:01.999Z</time></trkpt><trkpt lat="44.133864306849155" lon="10.989517859531857"><ele>401.0</ele><time>2026-05-02T09:06:02.999Z</time></trkpt><trkpt lat="44.134037905695905" lon="10.989413567253044"><ele>401.0</ele><time>2026-05-02T09:06:03.999Z</time></trkpt><trkpt lat="44.1342080623272" lon="10.989325550554899"><ele>401.0</ele><time>2026-05-02T09:06:04.999Z</time></trkpt><trkpt lat="44.13437259024864" lon="10.98926486304509"><ele>398.25</ele><time>2026-05-02T09:06:05.999Z</time></trkpt><trkpt lat="44.1345291749389" lon="10.989242721118398"><ele>395.5</ele><time>2026-05-02T09:06:06.999Z</time></trkpt><trkpt lat="44.134674056118726" lon="10.989251176380469"><ele>392.75</ele><time>2026-05-02T09:06:07.999Z</time></trkpt><trkpt lat="44.13480633777685" lon="10.989275462232316"><ele>390.0</ele><time>2026-05-02T09:06:08.999Z</time></trkpt><trkpt lat="44.13492753543414" lon="10.989305192020886"><ele>390.0</ele><time>2026-05-02T09:06:09.999Z</time></trkpt><trkpt lat="44.135039743914184" lon="10.989338560230367"><ele>390.0</ele><time>2026-05-02T09:06:10.999Z</time></trkpt><trkpt lat="44.13514090295208" lon="10.989373710223486"><ele>390.0</ele><time>2026-05-02T09:06:11.999Z</time></trkpt><trkpt lat="44.135233156239366" lon="10.989408573619173"><ele>390.0</ele><time>2026-05-02T09:06:12.999Z</time></trkpt><trkpt lat="44.135321915938455" lon="10.989440907963123"><ele>390.0</ele><time>2026-05-02T09:06:13.999Z</time></trkpt><trkpt lat="44.1354091153264" lon="10.9894760044734"><ele>390.0</ele><time>2026-05-02T09:06:14.999Z</time></trkpt><trkpt lat="44.13549838847503" lon="10.9895099874966"><ele>390.0</ele><time>2026-05-02T09:06:15.999Z</time></trkpt><trkpt lat="44.13558056098367" lon="10.98954069273999"><ele>390.0</ele><time>2026-05-02T09:06:16.999Z</time></trkpt><trkpt lat="44.13565213397756" lon="10.989566034608126"><ele>390.0</ele><time>2026-05-02T09:06:17.999Z</time></trkpt><trkpt lat="44.135732355277845" lon="10.98960368723006"><ele>390.0</ele><time>2026-05-02T09:06:19.999Z</time></trkpt><trkpt lat="44.13580626967894" lon="10.989643100130175"><ele>390.0</ele><time>2026-05-02T09:06:21.999Z</time></trkpt><trkpt lat="44.13593705869431" lon="10.989709505246585"><ele>390.4</ele><time>2026-05-02T09:06:23.999Z</time></trkpt><trkpt lat="44.13602383201656" lon="10.989759954586782"><ele>390.8</ele><time>2026-05-02T09:06:24.999Z</time></trkpt><trkpt lat="44.13612524957945" lon="10.989816534211405"><ele>391.20000000000005</ele><time>2026-05-02T09:06:25.999Z</time></trkpt><trkpt lat="44.136229881853055" lon="10.989875783755457"><ele>391.6</ele><time>2026-05-02T09:06:26.999Z</time></trkpt><trkpt lat="44.13634890683847" lon="10.989945692491833"><ele>392.0</ele><time>2026-05-02T09:06:27.999Z</time></trkpt><trkpt lat="44.13647396491462" lon="10.990020687622456"><ele>388.66666666666663</ele><time>2026-05-02T09:06:28.999Z</time></trkpt><trkpt lat="44.13660539523947" lon="10.990107084083089"><ele>385.3333333333333</ele><time>2026-05-02T09:06:29.999Z</time></trkpt><trkpt lat="44.13674077486244" lon="10.990206608964005"><ele>382.0</ele><time>2026-05-02T09:06:30.999Z</time></trkpt><trkpt lat="44.1368793228949" lon="10.99031871945739"><ele>382.0</ele><time>2026-05-02T09:06:31.999Z</time></trkpt><trkpt lat="44.137021310269354" lon="10.990425918318536"><ele>382.0</ele><time>2026-05-02T09:06:32.999Z</time></trkpt><trkpt lat="44.13717339786172" lon="10.990510967696846"><ele>382.0</ele><time>2026-05-02T09:06:33.999Z</time></trkpt><trkpt lat="44.13733612742369" lon="10.990572001463214"><ele>385.66666666666663</ele><time>2026-05-02T09:06:34.999Z</time></trkpt><trkpt lat="44.13750206733045" lon="10.99061086417822"><ele>389.3333333333333</ele><time>2026-05-02T09:06:35.999Z</time></trkpt><trkpt lat="44.13767417891946" lon="10.99066122145994"><ele>393.0</ele><time>2026-05-02T09:06:36.999Z</time></trkpt><trkpt lat="44.137841557802226" lon="10.99074395120236"><ele>387.6666666666667</ele><time>2026-05-02T09:06:37.999Z</time></trkpt><trkpt lat="44.13800347395549" lon="10.990847441475738"><ele>382.33333333333337</ele><time>2026-05-02T09:06:38.999Z</time></trkpt><trkpt lat="44.13814268113349" lon="10.99095311416751"><ele>377.0</ele><time>2026-05-02T09:06:39.999Z</time></trkpt><trkpt lat="44.13827816460855" lon="10.991027905228473"><ele>376.75</ele><time>2026-05-02T09:06:40.999Z</time></trkpt><trkpt lat="44.13841583428639" lon="10.991056199420719"><ele>376.5</ele><time>2026-05-02T09:06:41.999Z</time></trkpt><trkpt lat="44.138557955398056" lon="10.99102390146835"><ele>376.25</ele><time>2026-05-02T09:06:42.999Z</time></trkpt><trkpt lat="44.138696826496314" lon="10.990933484140761"><ele>376.0</ele><time>2026-05-02T09:06:43.999Z</time></trkpt><trkpt lat="44.138836124409046" lon="10.990827948434447"><ele>381.66666666666663</ele><time>2026-05-02T09:06:44.999Z</time></trkpt><trkpt lat="44.13898798581486" lon="10.990730247077861"><ele>387.3333333333333</ele><time>2026-05-02T09:06:45.999Z</time></trkpt><trkpt lat="44.13915255890471" lon="10.990650196701495"><ele>393.0</ele><time>2026-05-02T09:06:46.999Z</time></trkpt><trkpt lat="44.13932324202004" lon="10.990580947300526"><ele>393.0</ele><time>2026-05-02T09:06:47.999Z</time></trkpt><trkpt lat="44.13948313939838" lon="10.990522806028412"><ele>393.0</ele><time>2026-05-02T09:06:48.999Z</time></trkpt><trkpt lat="44.13962839476153" lon="10.990488243786805"><ele>393.0</ele><time>2026-05-02T09:06:49.999Z</time></trkpt><trkpt lat="44.139767976636634" lon="10.990418741213686"><ele>390.0</ele><time>2026-05-02T09:06:50.999Z</time></trkpt><trkpt lat="44.13990552780178" lon="10.990311400132432"><ele>387.0</ele><time>2026-05-02T09:06:51.999Z</time></trkpt><trkpt lat="44.14004144396538" lon="10.990186801569537"><ele>384.0</ele><time>2026-05-02T09:06:52.999Z</time></trkpt><trkpt lat="44.14017445161031" lon="10.990040569779163"><ele>389.66666666666663</ele><time>2026-05-02T09:06:53.999Z</time></trkpt><trkpt lat="44.14031843785816" lon="10.98992432061574"><ele>395.3333333333333</ele><time>2026-05-02T09:06:54.999Z</time></trkpt><trkpt lat="44.140452324042904" lon="10.989816564573719"><ele>401.0</ele><time>2026-05-02T09:06:55.999Z</time></trkpt><trkpt lat="44.14058183196894" lon="10.989724210710056"><ele>401.0</ele><time>2026-05-02T09:06:56.999Z</time></trkpt><trkpt lat="44.1407127520953" lon="10.98965015442439"><ele>401.0</ele><time>2026-05-02T09:06:57.999Z</time></trkpt><trkpt lat="44.14084457171405" lon="10.989592251611471"><ele>401.0</ele><time>2026-05-02T09:06:58.999Z</time></trkpt><trkpt lat="44.140969968298414" lon="10.989539378102016"><ele>401.0</ele><time>2026-05-02T09:06:59.999Z</time></trkpt><trkpt lat="44.14107862481039" lon="10.989477732090078"><ele>397.75</ele><time>2026-05-02T09:07:00.999Z</time></trkpt><trkpt lat="44.14117946042078" lon="10.989406976513447"><ele>394.5</ele><time>2026-05-02T09:07:01.999Z</time></trkpt><trkpt lat="44.141282443373036" lon="10.989331478679787"><ele>391.25</ele><time>2026-05-02T09:07:02.999Z</time></trkpt><trkpt lat="44.14138356427872" lon="10.989262248728082"><ele>388.0</ele><time>2026-05-02T09:07:03.999Z</time></trkpt><trkpt lat="44.141481749561876" lon="10.9891957348835"><ele>388.4</ele><time>2026-05-02T09:07:04.999Z</time></trkpt><trkpt lat="44.14157410019403" lon="10.98913333738121"><ele>388.79999999999995</ele><time>2026-05-02T09:07:05.999Z</time></trkpt><trkpt lat="44.141665866022485" lon="10.989069898533888"><ele>389.2</ele><time>2026-05-02T09:07:06.999Z</time></trkpt><trkpt lat="44.14175671946837" lon="10.989005295308033"><ele>389.6</ele><time>2026-05-02T09:07:07.999Z</time></trkpt><trkpt lat="44.14184386210798" lon="10.988936184348209"><ele>390.0</ele><time>2026-05-02T09:07:08.999Z</time></trkpt><trkpt lat="44.14193078097464" lon="10.988844895099142"><ele>390.0</ele><time>2026-05-02T09:07:09.999Z</time></trkpt><trkpt lat="44.1420307574779" lon="10.988745000610882"><ele>390.0</ele><time>2026-05-02T09:07:10.999Z</time></trkpt><trkpt lat="44.142127600780675" lon="10.988596563292027"><ele>390.0</ele><time>2026-05-02T09:07:11.999Z</time></trkpt><trkpt lat="44.142221205542555" lon="10.988436620446686"><ele>390.0</ele><time>2026-05-02T09:07:12.999Z</time></trkpt><trkpt lat="44.142302128507524" lon="10.988255652714393"><ele>388.66666666666663</ele><time>2026-05-02T09:07:13.999Z</time></trkpt><trkpt lat="44.142393142879385" lon="10.98807912407676"><ele>387.3333333333333</ele><time>2026-05-02T09:07:14.999Z</time></trkpt><trkpt lat="44.1424988411177" lon="10.987906878112677"><ele>386.0</ele><time>2026-05-02T09:07:15.999Z</time></trkpt><trkpt lat="44.14259893671775" lon="10.987719215408179"><ele>386.0</ele><time>2026-05-02T09:07:16.999Z</time></trkpt><trkpt lat="44.14273099802621" lon="10.987570740232858"><ele>386.0</ele><time>2026-05-02T09:07:17.999Z</time></trkpt><trkpt lat="44.14287531571595" lon="10.987437072044365"><ele>386.0</ele><time>2026-05-02T09:07:18.999Z</time></trkpt><trkpt lat="44.14301413976844" lon="10.987315667773302"><ele>383.75</ele><time>2026-05-02T09:07:19.999Z</time></trkpt><trkpt lat="44.1431470428417" lon="10.98721530123258"><ele>381.5</ele><time>2026-05-02T09:07:20.999Z</time></trkpt><trkpt lat="44.143274088373445" lon="10.987122879596635"><ele>379.25</ele><time>2026-05-02T09:07:21.999Z</time></trkpt><trkpt lat="44.143404534823546" lon="10.987061951904218"><ele>377.0</ele><time>2026-05-02T09:07:22.999Z</time></trkpt><trkpt lat="44.143522461138474" lon="10.986975005782195"><ele>377.0</ele><time>2026-05-02T09:07:23.999Z</time></trkpt><trkpt lat="44.14362873333402" lon="10.986862675273528"><ele>377.0</ele><time>2026-05-02T09:07:24.999Z</time></trkpt><trkpt lat="44.143729804615504" lon="10.98673279537824"><ele>377.0</ele><time>2026-05-02T09:07:25.999Z</time></trkpt><trkpt lat="44.14381681298898" lon="10.986605044376114"><ele>377.0</ele><time>2026-05-02T09:07:26.999Z</time></trkpt><trkpt lat="44.14391930237647" lon="10.986514740112492"><ele>377.0</ele><time>2026-05-02T09:07:27.999Z</time></trkpt><trkpt lat="44.14400928921664" lon="10.986440791306617"><ele>377.0</ele><time>2026-05-02T09:07:28.999Z</time></trkpt><trkpt lat="44.14409373045532" lon="10.986374576582104"><ele>377.0</ele><time>2026-05-02T09:07:29.999Z</time></trkpt><trkpt lat="44.14418348186225" lon="10.986313516181871"><ele>377.0</ele><time>2026-05-02T09:07:30.999Z</time></trkpt><trkpt lat="44.14427798880981" lon="10.986255272413455"><ele>377.0</ele><time>2026-05-02T09:07:31.999Z</time></trkpt><trkpt lat="44.14437827922063" lon="10.986196336419622"><ele>377.0</ele><time>2026-05-02T09:07:32.999Z</time></trkpt><trkpt lat="44.14448200870992" lon="10.986138998068174"><ele>377.0</ele><time>2026-05-02T09:07:33.999Z</time></trkpt><trkpt lat="44.1445877216429" lon="10.98608569864164"><ele>377.0</ele><time>2026-05-02T09:07:34.999Z</time></trkpt><trkpt lat="44.14469369632002" lon="10.986037250511272"><ele>377.0</ele><time>2026-05-02T09:07:35.999Z</time></trkpt><trkpt lat="44.14479918237468" lon="10.985992535621945"><ele>377.0</ele><time>2026-05-02T09:07:36.999Z</time></trkpt><trkpt lat="44.144898796061824" lon="10.985953471122137"><ele>378.8</ele><time>2026-05-02T09:07:37.999Z</time></trkpt><trkpt lat="44.14499178368178" lon="10.985914760266626"><ele>380.6</ele><time>2026-05-02T09:07:38.999Z</time></trkpt><trkpt lat="44.14508506600578" lon="10.985882023074527"><ele>382.40000000000003</ele><time>2026-05-02T09:07:39.999Z</time></trkpt><trkpt lat="44.14517883159908" lon="10.985850460083311"><ele>384.20000000000005</ele><time>2026-05-02T09:07:40.999Z</time></trkpt><trkpt lat="44.14526704555945" lon="10.98582191826874"><ele>386.0</ele><time>2026-05-02T09:07:41.999Z</time></trkpt><trkpt lat="44.145350944142976" lon="10.98579688813496"><ele>386.0</ele><time>2026-05-02T09:07:42.999Z</time></trkpt><trkpt lat="44.14544041511632" lon="10.98577667696205"><ele>386.0</ele><time>2026-05-02T09:07:43.999Z</time></trkpt><trkpt lat="44.14554699126178" lon="10.985759708865515"><ele>386.0</ele><time>2026-05-02T09:07:44.999Z</time></trkpt><trkpt lat="44.145673920634174" lon="10.985752084485123"><ele>386.0</ele><time>2026-05-02T09:07:45.999Z</time></trkpt><trkpt lat="44.145825634594935" lon="10.985756985084862"><ele>380.0</ele><time>2026-05-02T09:07:46.999Z</time></trkpt><trkpt lat="44.146003450761825" lon="10.98577448529545"><ele>374.0</ele><time>2026-05-02T09:07:47.999Z</time></trkpt><trkpt lat="44.14618177341503" lon="10.985799958896369"><ele>368.0</ele><time>2026-05-02T09:07:48.999Z</time></trkpt><trkpt lat="44.14633324783065" lon="10.98583352091706"><ele>367.0</ele><time>2026-05-02T09:07:49.999Z</time></trkpt><trkpt lat="44.14649054357648" lon="10.985861308647241"><ele>366.0</ele><time>2026-05-02T09:07:50.999Z</time></trkpt><trkpt lat="44.14666085830848" lon="10.985884366103333"><ele>365.0</ele><time>2026-05-02T09:07:51.999Z</time></trkpt><trkpt lat="44.14683166163681" lon="10.985904244919334"><ele>365.0</ele><time>2026-05-02T09:07:52.999Z</time></trkpt><trkpt lat="44.14698739671089" lon="10.985921116039101"><ele>365.0</ele><time>2026-05-02T09:07:53.999Z</time></trkpt><trkpt lat="44.147143156031746" lon="10.9859340686873"><ele>365.0</ele><time>2026-05-02T09:07:55Z</time></trkpt><trkpt lat="44.147310590289415" lon="10.985941854050681"><ele>377.0</ele><time>2026-05-02T09:07:56Z</time></trkpt><trkpt lat="44.147488088206714" lon="10.98594360694857"><ele>389.0</ele><time>2026-05-02T09:07:57Z</time></trkpt><trkpt lat="44.14767346007609" lon="10.98593783418162"><ele>401.0</ele><time>2026-05-02T09:07:58Z</time></trkpt><trkpt lat="44.14786582989626" lon="10.985931173563054"><ele>401.0</ele><time>2026-05-02T09:07:59Z</time></trkpt><trkpt lat="44.14808280218494" lon="10.985920534290091"><ele>401.0</ele><time>2026-05-02T09:08:00Z</time></trkpt><trkpt lat="44.14832465883976" lon="10.985911007432803"><ele>424.5</ele><time>2026-05-02T09:08:01Z</time></trkpt><trkpt lat="44.14858991546015" lon="10.98589670208837"><ele>448.0</ele><time>2026-05-02T09:08:02Z</time></trkpt><trkpt lat="44.14887829689479" lon="10.985878215383343"><ele>441.5</ele><time>2026-05-02T09:08:03Z</time></trkpt><trkpt lat="44.14917331997654" lon="10.985856569884703"><ele>435.0</ele><time>2026-05-02T09:08:04.066Z</time></trkpt><trkpt lat="44.14944358636225" lon="10.985821028714117"><ele>420.5</ele><time>2026-05-02T09:08:05.066Z</time></trkpt><trkpt lat="44.149704423127254" lon="10.98577180851638"><ele>406.0</ele><time>2026-05-02T09:08:06.06Z</time></trkpt><trkpt lat="44.14996574163904" lon="10.985717628529603"><ele>401.5</ele><time>2026-05-02T09:08:07.06Z</time></trkpt><trkpt lat="44.150222144916626" lon="10.98566646762755"><ele>397.0</ele><time>2026-05-02T09:08:08.061Z</time></trkpt><trkpt lat="44.15057103765959" lon="10.985681676009218"><ele>388.0</ele><time>2026-05-02T09:08:10Z</time></trkpt><trkpt lat="44.15083000341502" lon="10.98563122675276"><ele>379.0</ele><time>2026-05-02T09:08:11Z</time></trkpt><trkpt lat="44.15118336295679" lon="10.985554471611515"><ele>379.0</ele><time>2026-05-02T09:08:12Z</time></trkpt><trkpt lat="44.151485656679775" lon="10.985488621380822"><ele>379.0</ele><time>2026-05-02T09:08:13Z</time></trkpt><trkpt lat="44.151807824170554" lon="10.985382541805093"><ele>383.5</ele><time>2026-05-02T09:08:14Z</time></trkpt><trkpt lat="44.152054515034926" lon="10.985332335605827"><ele>388.0</ele><time>2026-05-02T09:08:15Z</time></trkpt><trkpt lat="44.15229416119384" lon="10.985273857256063"><ele>403.0</ele><time>2026-05-02T09:08:16Z</time></trkpt><trkpt lat="44.15253194886852" lon="10.985202028637914"><ele>418.0</ele><time>2026-05-02T09:08:17Z</time></trkpt><trkpt lat="44.15276591372095" lon="10.985122795250817"><ele>418.0</ele><time>2026-05-02T09:08:18Z</time></trkpt><trkpt lat="44.152996884083656" lon="10.985032483976953"><ele>418.0</ele><time>2026-05-02T09:08:18.999Z</time></trkpt><trkpt lat="44.153224729629734" lon="10.984932894128747"><ele>432.0</ele><time>2026-05-02T09:08:19.999Z</time></trkpt><trkpt lat="44.153463527669004" lon="10.984817373293613"><ele>446.0</ele><time>2026-05-02T09:08:21.058Z</time></trkpt><trkpt lat="44.15368685452025" lon="10.98469492979738"><ele>446.0</ele><time>2026-05-02T09:08:22.057Z</time></trkpt><trkpt lat="44.15391032262896" lon="10.984558096223491"><ele>446.0</ele><time>2026-05-02T09:08:23.058Z</time></trkpt><trkpt lat="44.15413302425767" lon="10.984416258770615"><ele>418.0</ele><time>2026-05-02T09:08:24.056Z</time></trkpt><trkpt lat="44.1556938609769" lon="10.982987955096101"><ele>418.5</ele><time>2026-05-02T09:08:28.207Z</time></trkpt><trkpt lat="44.15605849149723" lon="10.98262251714972"><ele>419.0</ele><time>2026-05-02T09:08:29.206Z</time></trkpt><trkpt lat="44.15642437240996" lon="10.98225931398587"><ele>411.0</ele><time>2026-05-02T09:08:30.206Z</time></trkpt><trkpt lat="44.1567908229446" lon="10.981895545368966"><ele>405.0</ele><time>2026-05-02T09:08:31.207Z</time></trkpt><trkpt lat="44.1570411" lon="10.9816471"><ele>399.0</ele><time>2026-05-02T09:08:32.206Z</time></trkpt><trkpt lat="44.15864709497654" lon="10.980104473854373"><ele>388.0</ele><time>2026-05-02T09:08:44.999Z</time></trkpt><trkpt lat="44.15886118453048" lon="10.979906808406033"><ele>377.0</ele><time>2026-05-02T09:08:45.999Z</time></trkpt><trkpt lat="44.159083573249326" lon="10.979682675696736"><ele>377.0</ele><time>2026-05-02T09:08:46.999Z</time></trkpt><trkpt lat="44.159260691208615" lon="10.979478427892284"><ele>377.0</ele><time>2026-05-02T09:08:47.999Z</time></trkpt><trkpt lat="44.159467254795814" lon="10.979338520710522"><ele>373.5</ele><time>2026-05-02T09:08:48.999Z</time></trkpt><trkpt lat="44.15966055426184" lon="10.979041133852686"><ele>370.0</ele><time>2026-05-02T09:08:49.999Z</time></trkpt><trkpt lat="44.159865448633155" lon="10.97884616066851"><ele>375.5</ele><time>2026-05-02T09:08:50.999Z</time></trkpt><trkpt lat="44.16008260036982" lon="10.978640587631011"><ele>381.0</ele><time>2026-05-02T09:08:51.999Z</time></trkpt><trkpt lat="44.160295445122784" lon="10.978433536518505"><ele>376.0</ele><time>2026-05-02T09:08:52.999Z</time></trkpt><trkpt lat="44.16051061177333" lon="10.978211793939845"><ele>371.0</ele><time>2026-05-02T09:08:53.999Z</time></trkpt><trkpt lat="44.16072054452364" lon="10.977979661930506"><ele>371.0</ele><time>2026-05-02T09:08:54.999Z</time></trkpt><trkpt lat="44.160943570662546" lon="10.977737730205723"><ele>371.0</ele><time>2026-05-02T09:08:55.999Z</time></trkpt><trkpt lat="44.16114640973915" lon="10.977496137598102"><ele>364.5</ele><time>2026-05-02T09:08:56.999Z</time></trkpt><trkpt lat="44.16133252245243" lon="10.977217755064318"><ele>358.0</ele><time>2026-05-02T09:08:57.999Z</time></trkpt><trkpt lat="44.16152667636175" lon="10.976951290013188"><ele>355.5</ele><time>2026-05-02T09:08:58.999Z</time></trkpt><trkpt lat="44.161712896359965" lon="10.976698025041781"><ele>353.0</ele><time>2026-05-02T09:08:59.999Z</time></trkpt><trkpt lat="44.16190082006999" lon="10.976440751407972"><ele>351.0</ele><time>2026-05-02T09:09:00.999Z</time></trkpt><trkpt lat="44.162085452571425" lon="10.976187584755952"><ele>349.0</ele><time>2026-05-02T09:09:01.999Z</time></trkpt><trkpt lat="44.16227845172904" lon="10.975953867102291"><ele>344.5</ele><time>2026-05-02T09:09:02.999Z</time></trkpt><trkpt lat="44.162485198725435" lon="10.975759508994965"><ele>340.0</ele><time>2026-05-02T09:09:03.999Z</time></trkpt><trkpt lat="44.16270438458412" lon="10.975593852383147"><ele>340.0</ele><time>2026-05-02T09:09:04.999Z</time></trkpt><trkpt lat="44.16293672948154" lon="10.975437474166693"><ele>340.0</ele><time>2026-05-02T09:09:05.999Z</time></trkpt><trkpt lat="44.16317365958723" lon="10.975353366364239"><ele>339.5</ele><time>2026-05-02T09:09:06.999Z</time></trkpt><trkpt lat="44.163409148711985" lon="10.975279901609387"><ele>339.0</ele><time>2026-05-02T09:09:07.999Z</time></trkpt><trkpt lat="44.16364573445275" lon="10.975237197455701"><ele>339.0</ele><time>2026-05-02T09:09:08.999Z</time></trkpt><trkpt lat="44.1638911633338" lon="10.975222727270163"><ele>339.0</ele><time>2026-05-02T09:09:09.999Z</time></trkpt><trkpt lat="44.16413116277623" lon="10.975239646852796"><ele>338.0</ele><time>2026-05-02T09:09:10.999Z</time></trkpt><trkpt lat="44.16437217394956" lon="10.975285139995941"><ele>337.0</ele><time>2026-05-02T09:09:11.999Z</time></trkpt><trkpt lat="44.164612222238084" lon="10.975364453788345"><ele>337.0</ele><time>2026-05-02T09:09:12.999Z</time></trkpt><trkpt lat="44.16485476795927" lon="10.975477099886879"><ele>337.0</ele><time>2026-05-02T09:09:13.999Z</time></trkpt><trkpt lat="44.165109685035304" lon="10.975595454666475"><ele>337.0</ele><time>2026-05-02T09:09:14.999Z</time></trkpt><trkpt lat="44.165360473933255" lon="10.975740832637316"><ele>337.0</ele><time>2026-05-02T09:09:15.999Z</time></trkpt><trkpt lat="44.16561763733932" lon="10.975883185385262"><ele>337.0</ele><time>2026-05-02T09:09:16.999Z</time></trkpt><trkpt lat="44.165883143180174" lon="10.976016196943391"><ele>337.0</ele><time>2026-05-02T09:09:17.999Z</time></trkpt><trkpt lat="44.16615250191679" lon="10.976140122053884"><ele>337.0</ele><time>2026-05-02T09:09:18.999Z</time></trkpt><trkpt lat="44.16642346407858" lon="10.976260749488677"><ele>337.0</ele><time>2026-05-02T09:09:19.999Z</time></trkpt><trkpt lat="44.16669618431403" lon="10.976386072545747"><ele>336.5</ele><time>2026-05-02T09:09:20.999Z</time></trkpt><trkpt lat="44.16696739057019" lon="10.97651325730263"><ele>336.0</ele><time>2026-05-02T09:09:21.999Z</time></trkpt><trkpt lat="44.167227075022886" lon="10.976667763024713"><ele>335.0</ele><time>2026-05-02T09:09:22.999Z</time></trkpt><trkpt lat="44.167489780781686" lon="10.976776956089179"><ele>334.0</ele><time>2026-05-02T09:09:23.999Z</time></trkpt><trkpt lat="44.16773808135368" lon="10.976919370150636"><ele>334.0</ele><time>2026-05-02T09:09:24.999Z</time></trkpt><trkpt lat="44.16798485309303" lon="10.977053158930307"><ele>334.0</ele><time>2026-05-02T09:09:25.999Z</time></trkpt><trkpt lat="44.168230609764095" lon="10.977181192894179"><ele>333.0</ele><time>2026-05-02T09:09:26.999Z</time></trkpt><trkpt lat="44.16847608412275" lon="10.977305620714045"><ele>332.0</ele><time>2026-05-02T09:09:27.999Z</time></trkpt><trkpt lat="44.16872212702903" lon="10.977431760942373"><ele>333.0</ele><time>2026-05-02T09:09:28.999Z</time></trkpt><trkpt lat="44.16896396888609" lon="10.977556991851937"><ele>334.0</ele><time>2026-05-02T09:09:29.999Z</time></trkpt><trkpt lat="44.16920659979947" lon="10.977683080625464"><ele>332.0</ele><time>2026-05-02T09:09:30.999Z</time></trkpt><trkpt lat="44.1694491021218" lon="10.977808147843843"><ele>330.0</ele><time>2026-05-02T09:09:31.999Z</time></trkpt><trkpt lat="44.16969148154355" lon="10.977933513002743"><ele>330.5</ele><time>2026-05-02T09:09:32.999Z</time></trkpt><trkpt lat="44.16993650915113" lon="10.978057730829303"><ele>331.0</ele><time>2026-05-02T09:09:33.999Z</time></trkpt><trkpt lat="44.17018145667042" lon="10.978180406402561"><ele>331.0</ele><time>2026-05-02T09:09:34.999Z</time></trkpt><trkpt lat="44.17042629539429" lon="10.978301873905869"><ele>331.0</ele><time>2026-05-02T09:09:35.999Z</time></trkpt><trkpt lat="44.1706714848689" lon="10.978423627679941"><ele>330.5</ele><time>2026-05-02T09:09:36.999Z</time></trkpt><trkpt lat="44.17091611631607" lon="10.978547460468523"><ele>330.0</ele><time>2026-05-02T09:09:37.999Z</time></trkpt><trkpt lat="44.171159782013504" lon="10.978672707837559"><ele>330.0</ele><time>2026-05-02T09:09:38.999Z</time></trkpt><trkpt lat="44.171403067128374" lon="10.978797534566873"><ele>330.0</ele><time>2026-05-02T09:09:39.999Z</time></trkpt><trkpt lat="44.17164542468355" lon="10.978920800663461"><ele>329.0</ele><time>2026-05-02T09:09:40.999Z</time></trkpt><trkpt lat="44.171888860429355" lon="10.97904539759426"><ele>328.0</ele><time>2026-05-02T09:09:41.999Z</time></trkpt><trkpt lat="44.17213123334065" lon="10.979171113431544"><ele>328.5</ele><time>2026-05-02T09:09:42.999Z</time></trkpt><trkpt lat="44.1723704420616" lon="10.979292648295955"><ele>329.0</ele><time>2026-05-02T09:09:43.999Z</time></trkpt><trkpt lat="44.17261411310635" lon="10.979406761149045"><ele>329.0</ele><time>2026-05-02T09:09:44.999Z</time></trkpt><trkpt lat="44.172858655613" lon="10.979508355753685"><ele>329.0</ele><time>2026-05-02T09:09:45.999Z</time></trkpt><trkpt lat="44.173107949721306" lon="10.979588471247503"><ele>328.0</ele><time>2026-05-02T09:09:46.999Z</time></trkpt><trkpt lat="44.173360961285425" lon="10.979643762193431"><ele>327.0</ele><time>2026-05-02T09:09:47.999Z</time></trkpt><trkpt lat="44.173616635129854" lon="10.97966885098508"><ele>327.0</ele><time>2026-05-02T09:09:48.999Z</time></trkpt><trkpt lat="44.17387280986152" lon="10.97967715786267"><ele>327.0</ele><time>2026-05-02T09:09:49.999Z</time></trkpt><trkpt lat="44.174127167457755" lon="10.979686210197647"><ele>326.0</ele><time>2026-05-02T09:09:50.999Z</time></trkpt><trkpt lat="44.174383335408926" lon="10.979693723996999"><ele>325.0</ele><time>2026-05-02T09:09:51.999Z</time></trkpt><trkpt lat="44.17463910201319" lon="10.979707290513147"><ele>325.0</ele><time>2026-05-02T09:09:52.999Z</time></trkpt><trkpt lat="44.17489324067871" lon="10.979726954791975"><ele>325.0</ele><time>2026-05-02T09:09:53.999Z</time></trkpt><trkpt lat="44.175146914600745" lon="10.979746606698471"><ele>325.0</ele><time>2026-05-02T09:09:54.999Z</time></trkpt><trkpt lat="44.17539994460666" lon="10.979761349162192"><ele>325.0</ele><time>2026-05-02T09:09:55.999Z</time></trkpt><trkpt lat="44.17565445103897" lon="10.97977065860626"><ele>324.5</ele><time>2026-05-02T09:09:56.999Z</time></trkpt><trkpt lat="44.175909034721236" lon="10.97978185030562"><ele>324.0</ele><time>2026-05-02T09:09:57.999Z</time></trkpt><trkpt lat="44.17616383155104" lon="10.979795974524928"><ele>324.0</ele><time>2026-05-02T09:09:58.999Z</time></trkpt><trkpt lat="44.176420095197585" lon="10.979812019990623"><ele>324.0</ele><time>2026-05-02T09:10:00Z</time></trkpt><trkpt lat="44.176675933500405" lon="10.979834305864687"><ele>324.5</ele><time>2026-05-02T09:10:01Z</time></trkpt><trkpt lat="44.17693071707581" lon="10.979883637597688"><ele>325.0</ele><time>2026-05-02T09:10:02Z</time></trkpt><trkpt lat="44.17718367156183" lon="10.979952552880274"><ele>326.5</ele><time>2026-05-02T09:10:03Z</time></trkpt><trkpt lat="44.17743649498374" lon="10.98004845851402"><ele>328.0</ele><time>2026-05-02T09:10:04Z</time></trkpt><trkpt lat="44.17768061807" lon="10.980165817794436"><ele>328.0</ele><time>2026-05-02T09:10:05Z</time></trkpt><trkpt lat="44.177914602508" lon="10.980308292161768"><ele>328.0</ele><time>2026-05-02T09:10:06Z</time></trkpt><trkpt lat="44.17814412252599" lon="10.980470983127056"><ele>328.5</ele><time>2026-05-02T09:10:07Z</time></trkpt><trkpt lat="44.17836690099349" lon="10.98065079381503"><ele>329.0</ele><time>2026-05-02T09:10:08Z</time></trkpt><trkpt lat="44.17858125109339" lon="10.980852915736"><ele>329.0</ele><time>2026-05-02T09:10:09Z</time></trkpt><trkpt lat="44.17878118342261" lon="10.981079625732253"><ele>329.0</ele><time>2026-05-02T09:10:10Z</time></trkpt><trkpt lat="44.17897128756133" lon="10.981321728055832"><ele>327.5</ele><time>2026-05-02T09:10:11Z</time></trkpt><trkpt lat="44.179148779222885" lon="10.981582313117082"><ele>326.0</ele><time>2026-05-02T09:10:12Z</time></trkpt><trkpt lat="44.179318796551215" lon="10.981855175268448"><ele>325.5</ele><time>2026-05-02T09:10:13Z</time></trkpt><trkpt lat="44.179474659038014" lon="10.982140093053951"><ele>325.0</ele><time>2026-05-02T09:10:14Z</time></trkpt><trkpt lat="44.17961884269034" lon="10.98243568978"><ele>327.0</ele><time>2026-05-02T09:10:15Z</time></trkpt><trkpt lat="44.17974692850983" lon="10.982746732996382"><ele>329.0</ele><time>2026-05-02T09:10:16Z</time></trkpt><trkpt lat="44.17986606655496" lon="10.983062852729313"><ele>326.0</ele><time>2026-05-02T09:10:17Z</time></trkpt><trkpt lat="44.1799829052833" lon="10.983379368319476"><ele>323.0</ele><time>2026-05-02T09:10:18Z</time></trkpt><trkpt lat="44.18010728307726" lon="10.983690787629067"><ele>323.0</ele><time>2026-05-02T09:10:19Z</time></trkpt><trkpt lat="44.18023955104202" lon="10.983992250245011"><ele>323.0</ele><time>2026-05-02T09:10:20Z</time></trkpt><trkpt lat="44.18038065307443" lon="10.984284373895228"><ele>324.5</ele><time>2026-05-02T09:10:21Z</time></trkpt><trkpt lat="44.18053258122704" lon="10.984563410677138"><ele>326.0</ele><time>2026-05-02T09:10:22Z</time></trkpt><trkpt lat="44.18069891386185" lon="10.98481474573717"><ele>324.5</ele><time>2026-05-02T09:10:23Z</time></trkpt><trkpt lat="44.180866299721046" lon="10.985043644991276"><ele>323.0</ele><time>2026-05-02T09:10:24Z</time></trkpt><trkpt lat="44.1810269748327" lon="10.98525574327685"><ele>323.0</ele><time>2026-05-02T09:10:25Z</time></trkpt><trkpt lat="44.18117529347478" lon="10.985456371926126"><ele>323.0</ele><time>2026-05-02T09:10:26Z</time></trkpt><trkpt lat="44.18131521542272" lon="10.985645761310264"><ele>323.0</ele><time>2026-05-02T09:10:27Z</time></trkpt><trkpt lat="44.18144764623339" lon="10.98582683903691"><ele>323.0</ele><time>2026-05-02T09:10:28Z</time></trkpt><trkpt lat="44.18156915678968" lon="10.986000200203925"><ele>323.0</ele><time>2026-05-02T09:10:29Z</time></trkpt><trkpt lat="44.181686540553635" lon="10.986164182489409"><ele>323.0</ele><time>2026-05-02T09:10:30Z</time></trkpt><trkpt lat="44.18179522789875" lon="10.986309701897241"><ele>323.0</ele><time>2026-05-02T09:10:30.999Z</time></trkpt><trkpt lat="44.1818981387329" lon="10.98642550422118"><ele>323.0</ele><time>2026-05-02T09:10:31.999Z</time></trkpt><trkpt lat="44.181991443504074" lon="10.986513212812536"><ele>323.0</ele><time>2026-05-02T09:10:32.999Z</time></trkpt><trkpt lat="44.18206463304708" lon="10.986562114730791"><ele>323.0</ele><time>2026-05-02T09:10:33.999Z</time></trkpt><trkpt lat="44.18217568486548" lon="10.986551758400871"><ele>323.0</ele><time>2026-05-02T09:10:35.999Z</time></trkpt><trkpt lat="44.18222348800299" lon="10.986402692111422"><ele>323.0</ele><time>2026-05-02T09:10:37.999Z</time></trkpt><trkpt lat="44.18219562372442" lon="10.986292297023073"><ele>323.0</ele><time>2026-05-02T09:10:38.999Z</time></trkpt><trkpt lat="44.18213539489532" lon="10.986180057797593"><ele>323.0</ele><time>2026-05-02T09:10:39.999Z</time></trkpt><trkpt lat="44.1820702202941" lon="10.986046214661412"><ele>323.0</ele><time>2026-05-02T09:10:40.999Z</time></trkpt><trkpt lat="44.182017682879135" lon="10.985879884137217"><ele>323.0</ele><time>2026-05-02T09:10:41.999Z</time></trkpt><trkpt lat="44.18196564764134" lon="10.985685363171457"><ele>324.6666666666667</ele><time>2026-05-02T09:10:42.999Z</time></trkpt><trkpt lat="44.181906010019205" lon="10.985491604498007"><ele>326.3333333333333</ele><time>2026-05-02T09:10:43.999Z</time></trkpt><trkpt lat="44.18183495680491" lon="10.985286340636568"><ele>328.0</ele><time>2026-05-02T09:10:44.999Z</time></trkpt><trkpt lat="44.18176433215229" lon="10.985078587721585"><ele>328.66666666666663</ele><time>2026-05-02T09:10:45.999Z</time></trkpt><trkpt lat="44.18168873714736" lon="10.984867949573879"><ele>329.3333333333333</ele><time>2026-05-02T09:10:46.999Z</time></trkpt><trkpt lat="44.18161115504153" lon="10.984651723335551"><ele>330.0</ele><time>2026-05-02T09:10:47.999Z</time></trkpt><trkpt lat="44.18153491212409" lon="10.984416517590546"><ele>328.0</ele><time>2026-05-02T09:10:48.999Z</time></trkpt><trkpt lat="44.18147673583487" lon="10.984170825293718"><ele>326.0</ele><time>2026-05-02T09:10:49.999Z</time></trkpt><trkpt lat="44.18143929769671" lon="10.983912251243915"><ele>324.0</ele><time>2026-05-02T09:10:50.999Z</time></trkpt><trkpt lat="44.18141505166107" lon="10.983663338388864"><ele>324.0</ele><time>2026-05-02T09:10:51.999Z</time></trkpt><trkpt lat="44.18137648817281" lon="10.983417285218462"><ele>324.0</ele><time>2026-05-02T09:10:52.999Z</time></trkpt><trkpt lat="44.18133802279763" lon="10.983172386888421"><ele>324.0</ele><time>2026-05-02T09:10:53.999Z</time></trkpt><trkpt lat="44.18130023874152" lon="10.982939671567117"><ele>324.0</ele><time>2026-05-02T09:10:54.999Z</time></trkpt><trkpt lat="44.18125753856344" lon="10.982710312000238"><ele>324.0</ele><time>2026-05-02T09:10:55.999Z</time></trkpt><trkpt lat="44.181225226883576" lon="10.982512152524949"><ele>324.0</ele><time>2026-05-02T09:10:56.999Z</time></trkpt><trkpt lat="44.181190968323484" lon="10.982318626895989"><ele>324.0</ele><time>2026-05-02T09:10:57.999Z</time></trkpt><trkpt lat="44.181155530108086" lon="10.982132251783117"><ele>324.0</ele><time>2026-05-02T09:10:58.999Z</time></trkpt><trkpt lat="44.1811168489994" lon="10.981957837444831"><ele>324.0</ele><time>2026-05-02T09:10:59.999Z</time></trkpt><trkpt lat="44.18107196613286" lon="10.981798707294415"><ele>324.0</ele><time>2026-05-02T09:11:00.999Z</time></trkpt><trkpt lat="44.18102555572996" lon="10.98165194656961"><ele>325.2</ele><time>2026-05-02T09:11:01.999Z</time></trkpt><trkpt lat="44.18097893679081" lon="10.98151476543605"><ele>326.4</ele><time>2026-05-02T09:11:02.999Z</time></trkpt><trkpt lat="44.18092286421746" lon="10.98139342662805"><ele>327.6</ele><time>2026-05-02T09:11:03.999Z</time></trkpt><trkpt lat="44.18087805294884" lon="10.981255814683562"><ele>328.8</ele><time>2026-05-02T09:11:04.999Z</time></trkpt><trkpt lat="44.18080639951355" lon="10.981128181535077"><ele>330.0</ele><time>2026-05-02T09:11:05.999Z</time></trkpt><trkpt lat="44.18073491912728" lon="10.981020816697141"><ele>329.3333333333333</ele><time>2026-05-02T09:11:06.999Z</time></trkpt><trkpt lat="44.18066367573434" lon="10.980933673828819"><ele>328.6666666666667</ele><time>2026-05-02T09:11:07.999Z</time></trkpt><trkpt lat="44.18059436376951" lon="10.980851306813188"><ele>328.0</ele><time>2026-05-02T09:11:08.999Z</time></trkpt><trkpt lat="44.18053019974465" lon="10.980774837069351"><ele>327.33333333333337</ele><time>2026-05-02T09:11:09.999Z</time></trkpt><trkpt lat="44.18047144961678" lon="10.980704512696475"><ele>326.6666666666667</ele><time>2026-05-02T09:11:10.999Z</time></trkpt><trkpt lat="44.18041775243761" lon="10.980640236751443"><ele>326.0</ele><time>2026-05-02T09:11:11.999Z</time></trkpt><trkpt lat="44.18036941733158" lon="10.980582379241733"><ele>326.0</ele><time>2026-05-02T09:11:12.999Z</time></trkpt><trkpt lat="44.18029787215453" lon="10.980496739047883"><ele>326.0</ele><time>2026-05-02T09:11:14.999Z</time></trkpt><trkpt lat="44.18023794304787" lon="10.98044918267097"><ele>326.0</ele><time>2026-05-02T09:12:12Z</time></trkpt><trkpt lat="44.18019352418013" lon="10.98033531390392"><ele>326.0</ele><time>2026-05-02T09:12:14Z</time></trkpt><trkpt lat="44.18029402652958" lon="10.980174085094252"><ele>326.0</ele><time>2026-05-02T09:12:16Z</time></trkpt><trkpt lat="44.18035805404256" lon="10.980075414393411"><ele>326.6</ele><time>2026-05-02T09:12:17Z</time></trkpt><trkpt lat="44.180430268099514" lon="10.979959362864678"><ele>327.20000000000005</ele><time>2026-05-02T09:12:18Z</time></trkpt><trkpt lat="44.18050298185399" lon="10.979842506534727"><ele>327.79999999999995</ele><time>2026-05-02T09:12:19Z</time></trkpt><trkpt lat="44.18057406499004" lon="10.979725925937167"><ele>328.4</ele><time>2026-05-02T09:12:20Z</time></trkpt><trkpt lat="44.18064700892033" lon="10.979605736103649"><ele>329.0</ele><time>2026-05-02T09:12:21Z</time></trkpt><trkpt lat="44.18072234631141" lon="10.979480658248512"><ele>329.75</ele><time>2026-05-02T09:12:22Z</time></trkpt><trkpt lat="44.18079797540599" lon="10.979354126942516"><ele>330.5</ele><time>2026-05-02T09:12:23Z</time></trkpt><trkpt lat="44.18086781600378" lon="10.979227052708314"><ele>331.25</ele><time>2026-05-02T09:12:24Z</time></trkpt><trkpt lat="44.18093004314762" lon="10.979097008088539"><ele>332.0</ele><time>2026-05-02T09:12:25Z</time></trkpt><trkpt lat="44.180984659782126" lon="10.978964745952776"><ele>332.25</ele><time>2026-05-02T09:12:26Z</time></trkpt><trkpt lat="44.18103856299956" lon="10.978820723994593"><ele>332.5</ele><time>2026-05-02T09:12:27Z</time></trkpt><trkpt lat="44.18109198089793" lon="10.978653623002923"><ele>332.75</ele><time>2026-05-02T09:12:28Z</time></trkpt><trkpt lat="44.181156416323205" lon="10.978471088007804"><ele>333.0</ele><time>2026-05-02T09:12:29Z</time></trkpt><trkpt lat="44.18122751562998" lon="10.97826738043572"><ele>331.6666666666667</ele><time>2026-05-02T09:12:30Z</time></trkpt><trkpt lat="44.18129319394929" lon="10.978071913072064"><ele>330.33333333333337</ele><time>2026-05-02T09:12:31Z</time></trkpt><trkpt lat="44.18134598053425" lon="10.977854048034962"><ele>329.0</ele><time>2026-05-02T09:12:32Z</time></trkpt><trkpt lat="44.181419778834545" lon="10.977648477050298"><ele>330.0</ele><time>2026-05-02T09:12:33Z</time></trkpt><trkpt lat="44.181490419770746" lon="10.977443619191755"><ele>331.0</ele><time>2026-05-02T09:12:34Z</time></trkpt><trkpt lat="44.181561917014605" lon="10.977239405935304"><ele>332.0</ele><time>2026-05-02T09:12:35Z</time></trkpt><trkpt lat="44.18163363180407" lon="10.97703650047153"><ele>332.0</ele><time>2026-05-02T09:12:36Z</time></trkpt><trkpt lat="44.18170742884208" lon="10.976829919822714"><ele>332.0</ele><time>2026-05-02T09:12:37Z</time></trkpt><trkpt lat="44.18177910732669" lon="10.97662256896759"><ele>332.0</ele><time>2026-05-02T09:12:38Z</time></trkpt><trkpt lat="44.181846199942036" lon="10.976421635155157"><ele>331.6666666666667</ele><time>2026-05-02T09:12:39Z</time></trkpt><trkpt lat="44.18190994599424" lon="10.976230803471196"><ele>331.3333333333333</ele><time>2026-05-02T09:12:40Z</time></trkpt><trkpt lat="44.18197471007507" lon="10.97604310298187"><ele>331.0</ele><time>2026-05-02T09:12:40.999Z</time></trkpt><trkpt lat="44.18204105181224" lon="10.975852627749964"><ele>330.3333333333333</ele><time>2026-05-02T09:12:41.999Z</time></trkpt><trkpt lat="44.18210836986071" lon="10.975656985213014"><ele>329.6666666666667</ele><time>2026-05-02T09:12:42.999Z</time></trkpt><trkpt lat="44.18217403911319" lon="10.975464104713193"><ele>329.0</ele><time>2026-05-02T09:12:43.999Z</time></trkpt><trkpt lat="44.182235230673186" lon="10.9752808975585"><ele>329.0</ele><time>2026-05-02T09:12:44.999Z</time></trkpt><trkpt lat="44.18229276462419" lon="10.975117413392997"><ele>329.0</ele><time>2026-05-02T09:12:45.999Z</time></trkpt><trkpt lat="44.18234651960843" lon="10.974955274053588"><ele>329.0</ele><time>2026-05-02T09:12:46.999Z</time></trkpt><trkpt lat="44.182417939476935" lon="10.97478990380051"><ele>329.0</ele><time>2026-05-02T09:12:47.999Z</time></trkpt><trkpt lat="44.18248201929423" lon="10.974604114047338"><ele>330.6666666666667</ele><time>2026-05-02T09:12:48.999Z</time></trkpt><trkpt lat="44.18255016077009" lon="10.974405370593681"><ele>332.3333333333333</ele><time>2026-05-02T09:12:49.999Z</time></trkpt><trkpt lat="44.18262351276024" lon="10.97419152091009"><ele>334.0</ele><time>2026-05-02T09:12:50.999Z</time></trkpt><trkpt lat="44.182690465956746" lon="10.973957909258788"><ele>334.0</ele><time>2026-05-02T09:12:51.999Z</time></trkpt><trkpt lat="44.18278026969718" lon="10.973721009911598"><ele>334.0</ele><time>2026-05-02T09:12:52.999Z</time></trkpt><trkpt lat="44.182873501201556" lon="10.97346838037949"><ele>334.0</ele><time>2026-05-02T09:12:53.999Z</time></trkpt><trkpt lat="44.182966378198856" lon="10.973212637046295"><ele>334.0</ele><time>2026-05-02T09:12:54.999Z</time></trkpt><trkpt lat="44.18305946502078" lon="10.972952634922656"><ele>334.0</ele><time>2026-05-02T09:12:55.999Z</time></trkpt><trkpt lat="44.18315039866607" lon="10.9726904105967"><ele>334.0</ele><time>2026-05-02T09:12:56.999Z</time></trkpt><trkpt lat="44.18323688359618" lon="10.972423905990924"><ele>336.3333333333333</ele><time>2026-05-02T09:12:57.999Z</time></trkpt><trkpt lat="44.18331235417459" lon="10.972152768307199"><ele>338.6666666666667</ele><time>2026-05-02T09:12:58.999Z</time></trkpt><trkpt lat="44.18335008287169" lon="10.971863312574959"><ele>341.0</ele><time>2026-05-02T09:12:59.999Z</time></trkpt><trkpt lat="44.18335392989687" lon="10.97156907290701"><ele>341.6666666666667</ele><time>2026-05-02T09:13:00.999Z</time></trkpt><trkpt lat="44.18336053187221" lon="10.971271265474083"><ele>342.3333333333333</ele><time>2026-05-02T09:13:01.999Z</time></trkpt><trkpt lat="44.183385925443396" lon="10.970977662572787"><ele>343.0</ele><time>2026-05-02T09:13:02.999Z</time></trkpt><trkpt lat="44.1834170845789" lon="10.970682501064934"><ele>343.0</ele><time>2026-05-02T09:13:03.999Z</time></trkpt><trkpt lat="44.18345475695115" lon="10.970384631571973"><ele>343.0</ele><time>2026-05-02T09:13:04.999Z</time></trkpt><trkpt lat="44.183506081335516" lon="10.970087778734285"><ele>343.0</ele><time>2026-05-02T09:13:05.999Z</time></trkpt><trkpt lat="44.18357350412991" lon="10.969797079158202"><ele>342.66666666666663</ele><time>2026-05-02T09:13:06.999Z</time></trkpt><trkpt lat="44.18366356380719" lon="10.969513765338286"><ele>342.3333333333333</ele><time>2026-05-02T09:13:07.999Z</time></trkpt><trkpt lat="44.183770929201536" lon="10.969241795274876"><ele>342.0</ele><time>2026-05-02T09:13:08.999Z</time></trkpt><trkpt lat="44.18388736526737" lon="10.968975637529054"><ele>343.3333333333333</ele><time>2026-05-02T09:13:09.999Z</time></trkpt><trkpt lat="44.18400286364508" lon="10.96871119775263"><ele>344.66666666666663</ele><time>2026-05-02T09:13:10.999Z</time></trkpt><trkpt lat="44.184110176266465" lon="10.968453007823104"><ele>346.0</ele><time>2026-05-02T09:13:11.999Z</time></trkpt><trkpt lat="44.184225823288685" lon="10.968207819914916"><ele>348.66666666666663</ele><time>2026-05-02T09:13:12.999Z</time></trkpt><trkpt lat="44.18435764796602" lon="10.967997148771323"><ele>351.3333333333333</ele><time>2026-05-02T09:13:13.999Z</time></trkpt><trkpt lat="44.18449995779243" lon="10.96781059561034"><ele>354.0</ele><time>2026-05-02T09:13:14.999Z</time></trkpt><trkpt lat="44.18465357343377" lon="10.967655926863639"><ele>354.0</ele><time>2026-05-02T09:13:15.999Z</time></trkpt><trkpt lat="44.18483458533526" lon="10.967574992303641"><ele>354.0</ele><time>2026-05-02T09:13:16.999Z</time></trkpt><trkpt lat="44.18501327030503" lon="10.967471341353548"><ele>354.0</ele><time>2026-05-02T09:13:17.999Z</time></trkpt><trkpt lat="44.18519578519376" lon="10.967371525908774"><ele>355.3333333333333</ele><time>2026-05-02T09:13:18.999Z</time></trkpt><trkpt lat="44.18536708904424" lon="10.967223540504312"><ele>356.66666666666663</ele><time>2026-05-02T09:13:19.999Z</time></trkpt><trkpt lat="44.18554803259793" lon="10.967080865734822"><ele>358.0</ele><time>2026-05-02T09:13:20.999Z</time></trkpt><trkpt lat="44.1857155454659" lon="10.966917750147513"><ele>360.0</ele><time>2026-05-02T09:13:21.999Z</time></trkpt><trkpt lat="44.18589696090003" lon="10.966805577398967"><ele>362.0</ele><time>2026-05-02T09:13:22.999Z</time></trkpt><trkpt lat="44.18607640061704" lon="10.966715297643924"><ele>364.0</ele><time>2026-05-02T09:13:23.999Z</time></trkpt><trkpt lat="44.18623729500034" lon="10.966627814416137"><ele>364.0</ele><time>2026-05-02T09:13:24.999Z</time></trkpt><trkpt lat="44.18638648780676" lon="10.96654785502014"><ele>364.0</ele><time>2026-05-02T09:13:25.999Z</time></trkpt><trkpt lat="44.186484173125606" lon="10.966360626234733"><ele>364.0</ele><time>2026-05-02T09:13:26.999Z</time></trkpt><trkpt lat="44.186571901724236" lon="10.966163439745776"><ele>366.0</ele><time>2026-05-02T09:13:27.999Z</time></trkpt><trkpt lat="44.18663311741951" lon="10.965927352237806"><ele>368.0</ele><time>2026-05-02T09:13:28.999Z</time></trkpt><trkpt lat="44.18668759732523" lon="10.96567164453476"><ele>370.0</ele><time>2026-05-02T09:13:29.999Z</time></trkpt><trkpt lat="44.186747828828864" lon="10.965406540330097"><ele>370.0</ele><time>2026-05-02T09:13:30.999Z</time></trkpt><trkpt lat="44.18681020818665" lon="10.965141625127524"><ele>370.0</ele><time>2026-05-02T09:13:31.999Z</time></trkpt><trkpt lat="44.18687243268746" lon="10.964872689759938"><ele>370.0</ele><time>2026-05-02T09:13:32.999Z</time></trkpt><trkpt lat="44.18693295518256" lon="10.964599827281708"><ele>369.3333333333333</ele><time>2026-05-02T09:13:33.999Z</time></trkpt><trkpt lat="44.18699480564911" lon="10.964325614403247"><ele>368.6666666666667</ele><time>2026-05-02T09:13:34.999Z</time></trkpt><trkpt lat="44.18705834887351" lon="10.964048845350828"><ele>368.0</ele><time>2026-05-02T09:13:35.999Z</time></trkpt><trkpt lat="44.18712479831454" lon="10.96377198616175"><ele>367.33333333333337</ele><time>2026-05-02T09:13:36.999Z</time></trkpt><trkpt lat="44.18719242222564" lon="10.96349608555993"><ele>366.6666666666667</ele><time>2026-05-02T09:13:37.999Z</time></trkpt><trkpt lat="44.18726008901917" lon="10.963217214591133"><ele>366.0</ele><time>2026-05-02T09:13:38.999Z</time></trkpt><trkpt lat="44.187323538374535" lon="10.962937673981944"><ele>369.3333333333333</ele><time>2026-05-02T09:13:39.999Z</time></trkpt><trkpt lat="44.187385347743856" lon="10.9626576678952"><ele>372.66666666666663</ele><time>2026-05-02T09:13:40.999Z</time></trkpt><trkpt lat="44.18745235523913" lon="10.962389628895808"><ele>376.0</ele><time>2026-05-02T09:13:41.999Z</time></trkpt><trkpt lat="44.18753758718605" lon="10.962140490045334"><ele>376.0</ele><time>2026-05-02T09:13:42.999Z</time></trkpt><trkpt lat="44.18763981834603" lon="10.961907746082083"><ele>376.0</ele><time>2026-05-02T09:13:43.999Z</time></trkpt><trkpt lat="44.187773447615896" lon="10.961712466510363"><ele>376.0</ele><time>2026-05-02T09:13:44.999Z</time></trkpt><trkpt lat="44.18790189697763" lon="10.961509022416465"><ele>373.66666666666663</ele><time>2026-05-02T09:13:45.999Z</time></trkpt><trkpt lat="44.188056496242325" lon="10.961343229125939"><ele>371.3333333333333</ele><time>2026-05-02T09:13:46.999Z</time></trkpt><trkpt lat="44.18822199290147" lon="10.961193945634996"><ele>369.0</ele><time>2026-05-02T09:13:47.999Z</time></trkpt><trkpt lat="44.18839143476465" lon="10.961095041533142"><ele>373.0</ele><time>2026-05-02T09:13:48.999Z</time></trkpt><trkpt lat="44.1885450950757" lon="10.961000326021038"><ele>377.0</ele><time>2026-05-02T09:13:49.999Z</time></trkpt><trkpt lat="44.18867559321729" lon="10.960938073572995"><ele>381.0</ele><time>2026-05-02T09:13:50.999Z</time></trkpt><trkpt lat="44.18880827340288" lon="10.960955196711232"><ele>385.0</ele><time>2026-05-02T09:13:51.999Z</time></trkpt><trkpt lat="44.18892464950456" lon="10.96103007690448"><ele>385.5</ele><time>2026-05-02T09:13:52.999Z</time></trkpt><trkpt lat="44.18902911855746" lon="10.961159119458365"><ele>386.0</ele><time>2026-05-02T09:13:53.999Z</time></trkpt><trkpt lat="44.18912263287332" lon="10.961295499297988"><ele>386.5</ele><time>2026-05-02T09:13:54.999Z</time></trkpt><trkpt lat="44.18922069105244" lon="10.961386213789936"><ele>387.0</ele><time>2026-05-02T09:13:55.999Z</time></trkpt><trkpt lat="44.18932292937393" lon="10.961442370398341"><ele>387.0</ele><time>2026-05-02T09:13:56.999Z</time></trkpt><trkpt lat="44.18942234879154" lon="10.961471480143038"><ele>387.0</ele><time>2026-05-02T09:13:57.999Z</time></trkpt><trkpt lat="44.18952368464611" lon="10.96150363645472"><ele>387.0</ele><time>2026-05-02T09:13:58.999Z</time></trkpt><trkpt lat="44.18961876765117" lon="10.96154343757459"><ele>387.0</ele><time>2026-05-02T09:13:59.999Z</time></trkpt><trkpt lat="44.189709851595616" lon="10.961570669133037"><ele>387.0</ele><time>2026-05-02T09:14:00.999Z</time></trkpt><trkpt lat="44.189796643088854" lon="10.961576154110627"><ele>387.40000000000003</ele><time>2026-05-02T09:14:01.999Z</time></trkpt><trkpt lat="44.1898752449127" lon="10.961539723405961"><ele>387.8</ele><time>2026-05-02T09:14:02.999Z</time></trkpt><trkpt lat="44.18994258212966" lon="10.96145634267584"><ele>388.2</ele><time>2026-05-02T09:14:03.999Z</time></trkpt><trkpt lat="44.19001998068928" lon="10.961334077627384"><ele>388.6</ele><time>2026-05-02T09:14:04.999Z</time></trkpt><trkpt lat="44.190072716297045" lon="10.961146886251035"><ele>389.0</ele><time>2026-05-02T09:14:05.999Z</time></trkpt><trkpt lat="44.19005438994587" lon="10.96095243814321"><ele>388.25</ele><time>2026-05-02T09:14:06.999Z</time></trkpt><trkpt lat="44.190035523302825" lon="10.960797438430877"><ele>387.5</ele><time>2026-05-02T09:14:07.999Z</time></trkpt><trkpt lat="44.19001524869465" lon="10.960649407582025"><ele>386.75</ele><time>2026-05-02T09:14:08.999Z</time></trkpt><trkpt lat="44.18998924351673" lon="10.960476260958428"><ele>386.0</ele><time>2026-05-02T09:14:09.999Z</time></trkpt><trkpt lat="44.18995078785805" lon="10.960289136884002"><ele>386.0</ele><time>2026-05-02T09:14:11Z</time></trkpt><trkpt lat="44.18989308163844" lon="10.960095489722407"><ele>386.0</ele><time>2026-05-02T09:14:12Z</time></trkpt><trkpt lat="44.18982019967641" lon="10.959911747173042"><ele>386.0</ele><time>2026-05-02T09:14:13Z</time></trkpt><trkpt lat="44.18973048100067" lon="10.959736298718832"><ele>385.25</ele><time>2026-05-02T09:14:14Z</time></trkpt><trkpt lat="44.1896307552953" lon="10.95957906947759"><ele>384.5</ele><time>2026-05-02T09:14:14.999Z</time></trkpt><trkpt lat="44.18952615293276" lon="10.959444075314693"><ele>383.75</ele><time>2026-05-02T09:14:15.999Z</time></trkpt><trkpt lat="44.18941585195195" lon="10.959319516653467"><ele>383.0</ele><time>2026-05-02T09:14:16.999Z</time></trkpt><trkpt lat="44.18931278279243" lon="10.9592067069419"><ele>384.25</ele><time>2026-05-02T09:14:17.999Z</time></trkpt><trkpt lat="44.18921868223692" lon="10.959102344341543"><ele>385.5</ele><time>2026-05-02T09:14:18.999Z</time></trkpt><trkpt lat="44.189127593240435" lon="10.959000715564859"><ele>386.75</ele><time>2026-05-02T09:14:19.999Z</time></trkpt><trkpt lat="44.189036248733586" lon="10.958899055501158"><ele>388.0</ele><time>2026-05-02T09:14:20.999Z</time></trkpt><trkpt lat="44.18894352486044" lon="10.958798445949858"><ele>384.75</ele><time>2026-05-02T09:14:21.999Z</time></trkpt><trkpt lat="44.18885109251907" lon="10.958695757140156"><ele>381.5</ele><time>2026-05-02T09:14:22.999Z</time></trkpt><trkpt lat="44.18875643386718" lon="10.958594498435431"><ele>378.25</ele><time>2026-05-02T09:14:23.999Z</time></trkpt><trkpt lat="44.18867099666291" lon="10.958494474603139"><ele>375.0</ele><time>2026-05-02T09:14:24.999Z</time></trkpt><trkpt lat="44.188607183790594" lon="10.95838212643203"><ele>376.4</ele><time>2026-05-02T09:14:25.999Z</time></trkpt><trkpt lat="44.18859709877353" lon="10.95824523360024"><ele>377.8</ele><time>2026-05-02T09:14:26.999Z</time></trkpt><trkpt lat="44.18859020929088" lon="10.958108207132392"><ele>379.20000000000005</ele><time>2026-05-02T09:14:27.999Z</time></trkpt><trkpt lat="44.18863339733609" lon="10.957974751591884"><ele>380.6</ele><time>2026-05-02T09:14:28.999Z</time></trkpt><trkpt lat="44.188710483245885" lon="10.9578697658174"><ele>382.0</ele><time>2026-05-02T09:14:29.999Z</time></trkpt><trkpt lat="44.18880128496921" lon="10.957773097745532"><ele>382.0</ele><time>2026-05-02T09:14:30.999Z</time></trkpt><trkpt lat="44.188905466577054" lon="10.957680891056953"><ele>382.0</ele><time>2026-05-02T09:14:31.999Z</time></trkpt><trkpt lat="44.1890237883074" lon="10.95759515077541"><ele>382.0</ele><time>2026-05-02T09:14:32.999Z</time></trkpt><trkpt lat="44.18914061596409" lon="10.957511849999086"><ele>382.0</ele><time>2026-05-02T09:14:33.999Z</time></trkpt><trkpt lat="44.189266361856774" lon="10.957463861379592"><ele>384.0</ele><time>2026-05-02T09:14:34.999Z</time></trkpt><trkpt lat="44.189396935121174" lon="10.95743026691078"><ele>386.0</ele><time>2026-05-02T09:14:35.999Z</time></trkpt><trkpt lat="44.18950141445237" lon="10.957338320045777"><ele>388.0</ele><time>2026-05-02T09:14:36.999Z</time></trkpt><trkpt lat="44.189603342107034" lon="10.957242692635967"><ele>390.0</ele><time>2026-05-02T09:14:37.999Z</time></trkpt><trkpt lat="44.18972849377448" lon="10.957123238254422"><ele>394.66666666666663</ele><time>2026-05-02T09:14:38.999Z</time></trkpt><trkpt lat="44.18985886701275" lon="10.956969076314438"><ele>399.3333333333333</ele><time>2026-05-02T09:14:39.999Z</time></trkpt><trkpt lat="44.18996405695234" lon="10.956823199940331"><ele>404.0</ele><time>2026-05-02T09:14:40.999Z</time></trkpt><trkpt lat="44.19007207193398" lon="10.95670527869678"><ele>401.79999999999995</ele><time>2026-05-02T09:14:41.999Z</time></trkpt><trkpt lat="44.190168005397815" lon="10.956600282533639"><ele>399.59999999999997</ele><time>2026-05-02T09:14:42.999Z</time></trkpt><trkpt lat="44.19024408018064" lon="10.956495904110186"><ele>397.4</ele><time>2026-05-02T09:14:43.999Z</time></trkpt><trkpt lat="44.19029877069697" lon="10.956383362701178"><ele>395.2</ele><time>2026-05-02T09:14:44.999Z</time></trkpt><trkpt lat="44.19033474187298" lon="10.95626201653702"><ele>393.0</ele><time>2026-05-02T09:14:45.999Z</time></trkpt><trkpt lat="44.190329769632044" lon="10.956130292148044"><ele>393.0</ele><time>2026-05-02T09:14:46.999Z</time></trkpt><trkpt lat="44.19031144581007" lon="10.956003393768654"><ele>393.0</ele><time>2026-05-02T09:14:47.999Z</time></trkpt><trkpt lat="44.19028646954913" lon="10.95587344956303"><ele>393.0</ele><time>2026-05-02T09:14:48.999Z</time></trkpt><trkpt lat="44.19025603277036" lon="10.955720072904299"><ele>393.0</ele><time>2026-05-02T09:14:49.999Z</time></trkpt><trkpt lat="44.190207661861656" lon="10.955551435039657"><ele>393.0</ele><time>2026-05-02T09:14:50.999Z</time></trkpt><trkpt lat="44.19018854264683" lon="10.955343832435435"><ele>392.66666666666663</ele><time>2026-05-02T09:14:51.999Z</time></trkpt><trkpt lat="44.1901443478202" lon="10.955125381851824"><ele>392.3333333333333</ele><time>2026-05-02T09:14:52.999Z</time></trkpt><trkpt lat="44.19014277802157" lon="10.954894499451134"><ele>392.0</ele><time>2026-05-02T09:14:53.999Z</time></trkpt><trkpt lat="44.19014694792415" lon="10.954687331980791"><ele>392.0</ele><time>2026-05-02T09:14:54.999Z</time></trkpt><trkpt lat="44.19018701131848" lon="10.954511803928114"><ele>392.0</ele><time>2026-05-02T09:14:55.999Z</time></trkpt><trkpt lat="44.190261825224766" lon="10.954382755519132"><ele>392.0</ele><time>2026-05-02T09:14:56.999Z</time></trkpt><trkpt lat="44.190354617308074" lon="10.954316225434843"><ele>392.0</ele><time>2026-05-02T09:14:57.999Z</time></trkpt><trkpt lat="44.19044387753323" lon="10.95429495123006"><ele>392.0</ele><time>2026-05-02T09:14:58.999Z</time></trkpt><trkpt lat="44.19053111126723" lon="10.95428984083929"><ele>392.0</ele><time>2026-05-02T09:14:59.999Z</time></trkpt><trkpt lat="44.19062308607401" lon="10.954291702349806"><ele>392.0</ele><time>2026-05-02T09:15:00.999Z</time></trkpt><trkpt lat="44.19071779403044" lon="10.954281751461211"><ele>392.0</ele><time>2026-05-02T09:15:01.999Z</time></trkpt><trkpt lat="44.19080930940995" lon="10.95425795845903"><ele>392.0</ele><time>2026-05-02T09:15:02.999Z</time></trkpt><trkpt lat="44.190899993529214" lon="10.954217566098112"><ele>392.0</ele><time>2026-05-02T09:15:03.999Z</time></trkpt><trkpt lat="44.19099695241706" lon="10.9541804779109"><ele>394.6</ele><time>2026-05-02T09:15:04.999Z</time></trkpt><trkpt lat="44.19109726317748" lon="10.954141038110544"><ele>397.20000000000005</ele><time>2026-05-02T09:15:05.999Z</time></trkpt><trkpt lat="44.19119653035317" lon="10.954095598427575"><ele>399.8</ele><time>2026-05-02T09:15:06.999Z</time></trkpt><trkpt lat="44.19127294776484" lon="10.954059561456344"><ele>402.4</ele><time>2026-05-02T09:15:07.999Z</time></trkpt><trkpt lat="44.19137832680396" lon="10.953979604831074"><ele>405.0</ele><time>2026-05-02T09:15:09.999Z</time></trkpt><trkpt lat="44.19141002039061" lon="10.953903325374391"><ele>405.0</ele><time>2026-05-02T09:15:10.999Z</time></trkpt><trkpt lat="44.191378177970584" lon="10.95373957455551"><ele>405.0</ele><time>2026-05-02T09:15:12.999Z</time></trkpt><trkpt lat="44.19130927290286" lon="10.95368905722114"><ele>405.0</ele><time>2026-05-02T09:15:13.999Z</time></trkpt><trkpt lat="44.19120655885604" lon="10.95365489724301"><ele>405.0</ele><time>2026-05-02T09:15:14.999Z</time></trkpt><trkpt lat="44.1910763999728" lon="10.95368810904222"><ele>405.0</ele><time>2026-05-02T09:15:15.999Z</time></trkpt><trkpt lat="44.19093247474512" lon="10.953708125066559"><ele>405.0</ele><time>2026-05-02T09:15:16.999Z</time></trkpt><trkpt lat="44.190783161193906" lon="10.953683089961274"><ele>405.0</ele><time>2026-05-02T09:15:17.999Z</time></trkpt><trkpt lat="44.19062678523782" lon="10.953634429023895"><ele>405.0</ele><time>2026-05-02T09:15:18.999Z</time></trkpt><trkpt lat="44.19048293768155" lon="10.953553405232883"><ele>405.4</ele><time>2026-05-02T09:15:19.999Z</time></trkpt><trkpt lat="44.19036586788928" lon="10.95347725478466"><ele>405.8</ele><time>2026-05-02T09:15:20.999Z</time></trkpt><trkpt lat="44.19029150704457" lon="10.953394783238787"><ele>406.20000000000005</ele><time>2026-05-02T09:15:21.999Z</time></trkpt><trkpt lat="44.19025620334097" lon="10.953312964544008"><ele>406.6</ele><time>2026-05-02T09:15:22.999Z</time></trkpt><trkpt lat="44.190228186526795" lon="10.953113348861978"><ele>407.0</ele><time>2026-05-02T09:15:24.999Z</time></trkpt><trkpt lat="44.190236926900845" lon="10.952969194737115"><ele>407.0</ele><time>2026-05-02T09:15:25.999Z</time></trkpt><trkpt lat="44.19027143654268" lon="10.952810097163402"><ele>407.0</ele><time>2026-05-02T09:15:26.999Z</time></trkpt><trkpt lat="44.19032972090505" lon="10.95265501516424"><ele>407.0</ele><time>2026-05-02T09:15:27.999Z</time></trkpt><trkpt lat="44.190407428630614" lon="10.952496050956546"><ele>407.0</ele><time>2026-05-02T09:15:28.999Z</time></trkpt><trkpt lat="44.190481667073854" lon="10.952334074040937"><ele>407.0</ele><time>2026-05-02T09:15:29.999Z</time></trkpt><trkpt lat="44.19054521378422" lon="10.952155457266059"><ele>407.0</ele><time>2026-05-02T09:15:30.999Z</time></trkpt><trkpt lat="44.19059575220441" lon="10.951944735086764"><ele>407.0</ele><time>2026-05-02T09:15:31.999Z</time></trkpt><trkpt lat="44.19062431040858" lon="10.951703004921445"><ele>406.66666666666663</ele><time>2026-05-02T09:15:32.999Z</time></trkpt><trkpt lat="44.19063825930712" lon="10.951442408483887"><ele>406.33333333333337</ele><time>2026-05-02T09:15:33.999Z</time></trkpt><trkpt lat="44.190672780043016" lon="10.951169567069519"><ele>406.0</ele><time>2026-05-02T09:15:34.999Z</time></trkpt><trkpt lat="44.190695940232416" lon="10.95088672385893"><ele>407.0</ele><time>2026-05-02T09:15:35.999Z</time></trkpt><trkpt lat="44.19069358169012" lon="10.950608895415211"><ele>408.0</ele><time>2026-05-02T09:15:36.999Z</time></trkpt><trkpt lat="44.190682449556824" lon="10.950343493803251"><ele>409.0</ele><time>2026-05-02T09:15:37.999Z</time></trkpt><trkpt lat="44.190670110992514" lon="10.950102606819264"><ele>411.0</ele><time>2026-05-02T09:15:38.999Z</time></trkpt><trkpt lat="44.1906410613715" lon="10.949902722831943"><ele>413.0</ele><time>2026-05-02T09:15:39.999Z</time></trkpt><trkpt lat="44.19057948031055" lon="10.949741889493723"><ele>415.0</ele><time>2026-05-02T09:15:40.999Z</time></trkpt><trkpt lat="44.1904985941053" lon="10.949610533573209"><ele>417.0</ele><time>2026-05-02T09:15:41.999Z</time></trkpt><trkpt lat="44.19039141747612" lon="10.949487910719009"><ele>417.0</ele><time>2026-05-02T09:15:42.999Z</time></trkpt><trkpt lat="44.19026965802325" lon="10.94938744749736"><ele>417.0</ele><time>2026-05-02T09:15:43.999Z</time></trkpt><trkpt lat="44.19013777239258" lon="10.949315587585572"><ele>417.0</ele><time>2026-05-02T09:15:44.999Z</time></trkpt><trkpt lat="44.18999433050184" lon="10.949345324627625"><ele>417.0</ele><time>2026-05-02T09:15:45.999Z</time></trkpt><trkpt lat="44.18985785820829" lon="10.949395344001317"><ele>417.75</ele><time>2026-05-02T09:15:46.999Z</time></trkpt><trkpt lat="44.189741702673786" lon="10.949504063858393"><ele>418.5</ele><time>2026-05-02T09:15:47.999Z</time></trkpt><trkpt lat="44.18964626113834" lon="10.949660459539377"><ele>419.25</ele><time>2026-05-02T09:15:48.999Z</time></trkpt><trkpt lat="44.18956435942536" lon="10.94985106352232"><ele>420.0</ele><time>2026-05-02T09:15:49.999Z</time></trkpt><trkpt lat="44.189485437168514" lon="10.950062632230162"><ele>420.0</ele><time>2026-05-02T09:15:50.999Z</time></trkpt><trkpt lat="44.189393766138274" lon="10.950271964870076"><ele>420.0</ele><time>2026-05-02T09:15:51.999Z</time></trkpt><trkpt lat="44.18927242002002" lon="10.95045445912116"><ele>420.0</ele><time>2026-05-02T09:15:52.999Z</time></trkpt><trkpt lat="44.18910575004188" lon="10.950591757731535"><ele>421.0</ele><time>2026-05-02T09:15:53.999Z</time></trkpt><trkpt lat="44.1889436721564" lon="10.9507360576615"><ele>422.0</ele><time>2026-05-02T09:15:54.999Z</time></trkpt><trkpt lat="44.18881362639371" lon="10.950851597312134"><ele>423.0</ele><time>2026-05-02T09:15:55.999Z</time></trkpt><trkpt lat="44.18871505223205" lon="10.95094790259654"><ele>423.0</ele><time>2026-05-02T09:15:56.999Z</time></trkpt><trkpt lat="44.18861349918134" lon="10.95097397868518"><ele>423.0</ele><time>2026-05-02T09:15:57.999Z</time></trkpt><trkpt lat="44.18851610878274" lon="10.950934539429358"><ele>423.0</ele><time>2026-05-02T09:15:58.999Z</time></trkpt><trkpt lat="44.188435225668" lon="10.950794707964333"><ele>423.0</ele><time>2026-05-02T09:15:59.999Z</time></trkpt><trkpt lat="44.188327762201844" lon="10.950639459503986"><ele>423.0</ele><time>2026-05-02T09:16:00.999Z</time></trkpt><trkpt lat="44.18822370580855" lon="10.950438339406581"><ele>423.0</ele><time>2026-05-02T09:16:01.999Z</time></trkpt><trkpt lat="44.18810230136428" lon="10.950216588137952"><ele>423.0</ele><time>2026-05-02T09:16:02.999Z</time></trkpt><trkpt lat="44.18795152675765" lon="10.949983542449425"><ele>420.66666666666663</ele><time>2026-05-02T09:16:03.999Z</time></trkpt><trkpt lat="44.18779747566068" lon="10.949762782099087"><ele>418.3333333333333</ele><time>2026-05-02T09:16:04.999Z</time></trkpt><trkpt lat="44.187671687917586" lon="10.949527447295614"><ele>416.0</ele><time>2026-05-02T09:16:05.999Z</time></trkpt><trkpt lat="44.1875431693707" lon="10.949328387022902"><ele>420.66666666666663</ele><time>2026-05-02T09:16:06.999Z</time></trkpt><trkpt lat="44.18747131613425" lon="10.949119648650015"><ele>425.33333333333337</ele><time>2026-05-02T09:16:07.999Z</time></trkpt><trkpt lat="44.187440801015335" lon="10.948898797190957"><ele>430.0</ele><time>2026-05-02T09:16:08.999Z</time></trkpt><trkpt lat="44.187451495746544" lon="10.948657529880549"><ele>430.0</ele><time>2026-05-02T09:16:09.999Z</time></trkpt><trkpt lat="44.18749626257834" lon="10.948404889889913"><ele>430.0</ele><time>2026-05-02T09:16:10.999Z</time></trkpt><trkpt lat="44.18755233385611" lon="10.94814785544823"><ele>430.0</ele><time>2026-05-02T09:16:11.999Z</time></trkpt><trkpt lat="44.18756816416147" lon="10.94786798727006"><ele>430.33333333333337</ele><time>2026-05-02T09:16:12.999Z</time></trkpt><trkpt lat="44.18755270115521" lon="10.947574202802066"><ele>430.66666666666663</ele><time>2026-05-02T09:16:13.999Z</time></trkpt><trkpt lat="44.187517678533744" lon="10.947271484758877"><ele>431.0</ele><time>2026-05-02T09:16:14.999Z</time></trkpt><trkpt lat="44.18747341294593" lon="10.946965501757715"><ele>431.0</ele><time>2026-05-02T09:16:15.999Z</time></trkpt><trkpt lat="44.187400248576246" lon="10.946668050493704"><ele>431.0</ele><time>2026-05-02T09:16:17Z</time></trkpt><trkpt lat="44.18729582015952" lon="10.946379164938444"><ele>427.5</ele><time>2026-05-02T09:16:18Z</time></trkpt><trkpt lat="44.1871874210041" lon="10.946094734176242"><ele>424.0</ele><time>2026-05-02T09:16:19Z</time></trkpt><trkpt lat="44.18707888537204" lon="10.945810685482627"><ele>424.0</ele><time>2026-05-02T09:16:20Z</time></trkpt><trkpt lat="44.18696387679271" lon="10.945526977228793"><ele>424.0</ele><time>2026-05-02T09:16:21Z</time></trkpt><trkpt lat="44.186841464703626" lon="10.945250044085276"><ele>426.0</ele><time>2026-05-02T09:16:22Z</time></trkpt><trkpt lat="44.186699222422654" lon="10.944986570463518"><ele>428.0</ele><time>2026-05-02T09:16:23Z</time></trkpt><trkpt lat="44.18654507402939" lon="10.944738426837025"><ele>422.5</ele><time>2026-05-02T09:16:24Z</time></trkpt><trkpt lat="44.18638867099542" lon="10.944497127433912"><ele>417.0</ele><time>2026-05-02T09:16:25Z</time></trkpt><trkpt lat="44.18623119954417" lon="10.944263766467074"><ele>419.0</ele><time>2026-05-02T09:16:26Z</time></trkpt><trkpt lat="44.186066176160175" lon="10.944046850627531"><ele>421.0</ele><time>2026-05-02T09:16:27Z</time></trkpt><trkpt lat="44.185903148605725" lon="10.943860365891336"><ele>423.0</ele><time>2026-05-02T09:16:28Z</time></trkpt><trkpt lat="44.18575058696888" lon="10.943706225032619"><ele>423.0</ele><time>2026-05-02T09:16:29Z</time></trkpt><trkpt lat="44.185591286833116" lon="10.943601446310428"><ele>423.0</ele><time>2026-05-02T09:16:29.999Z</time></trkpt><trkpt lat="44.185427890347924" lon="10.94355269760648"><ele>423.0</ele><time>2026-05-02T09:16:30.999Z</time></trkpt><trkpt lat="44.18527215360804" lon="10.943554614937849"><ele>423.0</ele><time>2026-05-02T09:16:31.999Z</time></trkpt><trkpt lat="44.18513254254138" lon="10.943600624695522"><ele>423.0</ele><time>2026-05-02T09:16:32.999Z</time></trkpt><trkpt lat="44.185002493699066" lon="10.943691468879367"><ele>423.0</ele><time>2026-05-02T09:16:33.999Z</time></trkpt><trkpt lat="44.18488280235787" lon="10.943839481753079"><ele>423.0</ele><time>2026-05-02T09:16:34.998Z</time></trkpt><trkpt lat="44.184771531610465" lon="10.944026304321197"><ele>423.66666666666663</ele><time>2026-05-02T09:16:35.998Z</time></trkpt><trkpt lat="44.1846466202302" lon="10.944214345403536"><ele>424.3333333333333</ele><time>2026-05-02T09:16:36.998Z</time></trkpt><trkpt lat="44.18452534654938" lon="10.944379624379872"><ele>425.0</ele><time>2026-05-02T09:16:37.998Z</time></trkpt><trkpt lat="44.184411302742355" lon="10.944533492343998"><ele>425.0</ele><time>2026-05-02T09:16:38.998Z</time></trkpt><trkpt lat="44.184291016284405" lon="10.944643816248963"><ele>425.0</ele><time>2026-05-02T09:16:39.997Z</time></trkpt><trkpt lat="44.184159950509226" lon="10.944682147329946"><ele>425.0</ele><time>2026-05-02T09:16:40.997Z</time></trkpt><trkpt lat="44.18403306584492" lon="10.944657949310526"><ele>425.0</ele><time>2026-05-02T09:16:41.997Z</time></trkpt><trkpt lat="44.18390916442049" lon="10.944553882144561"><ele>426.0</ele><time>2026-05-02T09:16:42.997Z</time></trkpt><trkpt lat="44.183811050145565" lon="10.944388802686708"><ele>427.0</ele><time>2026-05-02T09:16:43.997Z</time></trkpt><trkpt lat="44.18370197913202" lon="10.944207093507353"><ele>428.0</ele><time>2026-05-02T09:16:44.997Z</time></trkpt><trkpt lat="44.18358300042664" lon="10.94405834515912"><ele>429.75</ele><time>2026-05-02T09:16:45.997Z</time></trkpt><trkpt lat="44.18349524899313" lon="10.943901363192625"><ele>431.5</ele><time>2026-05-02T09:16:46.997Z</time></trkpt><trkpt lat="44.18344259567714" lon="10.94372583860405"><ele>433.25</ele><time>2026-05-02T09:16:47.996Z</time></trkpt><trkpt lat="44.18343204043226" lon="10.943515412849322"><ele>435.0</ele><time>2026-05-02T09:16:48.996Z</time></trkpt><trkpt lat="44.18341040413988" lon="10.94332512525394"><ele>436.5</ele><time>2026-05-02T09:16:49.996Z</time></trkpt><trkpt lat="44.183352963478086" lon="10.943171266978625"><ele>438.0</ele><time>2026-05-02T09:16:50.996Z</time></trkpt><trkpt lat="44.183256980555335" lon="10.943068678853626"><ele>439.5</ele><time>2026-05-02T09:16:51.996Z</time></trkpt><trkpt lat="44.18313912512459" lon="10.943047169334033"><ele>441.0</ele><time>2026-05-02T09:16:52.996Z</time></trkpt><trkpt lat="44.18300936289416" lon="10.943107053928397"><ele>441.0</ele><time>2026-05-02T09:16:53.996Z</time></trkpt><trkpt lat="44.18288947779351" lon="10.943223962991219"><ele>441.0</ele><time>2026-05-02T09:16:54.996Z</time></trkpt><trkpt lat="44.18277850580254" lon="10.943360620038423"><ele>441.0</ele><time>2026-05-02T09:16:55.996Z</time></trkpt><trkpt lat="44.18266762707104" lon="10.943426533108216"><ele>441.0</ele><time>2026-05-02T09:16:56.996Z</time></trkpt><trkpt lat="44.182571726510574" lon="10.9434138913482"><ele>441.0</ele><time>2026-05-02T09:16:57.996Z</time></trkpt><trkpt lat="44.182504861237035" lon="10.943311053355542"><ele>441.0</ele><time>2026-05-02T09:16:58.996Z</time></trkpt><trkpt lat="44.18250712157224" lon="10.943161945724317"><ele>441.0</ele><time>2026-05-02T09:16:59.996Z</time></trkpt><trkpt lat="44.18250395473143" lon="10.942998038282566"><ele>441.0</ele><time>2026-05-02T09:17:00.996Z</time></trkpt><trkpt lat="44.18250167861172" lon="10.942812021516529"><ele>441.0</ele><time>2026-05-02T09:17:01.996Z</time></trkpt><trkpt lat="44.182514806380425" lon="10.94260574731248"><ele>441.0</ele><time>2026-05-02T09:17:02.996Z</time></trkpt><trkpt lat="44.18252998405661" lon="10.9423756089015"><ele>441.0</ele><time>2026-05-02T09:17:03.995Z</time></trkpt><trkpt lat="44.18254940176461" lon="10.942120376757789"><ele>442.66666666666663</ele><time>2026-05-02T09:17:04.995Z</time></trkpt><trkpt lat="44.18257468679645" lon="10.941842712796712"><ele>444.3333333333333</ele><time>2026-05-02T09:17:05.995Z</time></trkpt><trkpt lat="44.182604308538764" lon="10.941541873238174"><ele>446.0</ele><time>2026-05-02T09:17:06.995Z</time></trkpt><trkpt lat="44.18263350877203" lon="10.941250941078899"><ele>447.66666666666663</ele><time>2026-05-02T09:17:07.995Z</time></trkpt><trkpt lat="44.18265607051026" lon="10.940992124937107"><ele>449.33333333333337</ele><time>2026-05-02T09:17:08.995Z</time></trkpt><trkpt lat="44.182659763251266" lon="10.940761276038673"><ele>451.0</ele><time>2026-05-02T09:17:09.995Z</time></trkpt><trkpt lat="44.18261706755608" lon="10.940563439091228"><ele>450.6666666666667</ele><time>2026-05-02T09:17:10.995Z</time></trkpt><trkpt lat="44.18252067161465" lon="10.94041375889694"><ele>450.33333333333337</ele><time>2026-05-02T09:17:11.995Z</time></trkpt><trkpt lat="44.18239994132216" lon="10.940280836894615"><ele>450.0</ele><time>2026-05-02T09:17:12.995Z</time></trkpt><trkpt lat="44.18223651103144" lon="10.940212531091007"><ele>450.0</ele><time>2026-05-02T09:17:13.995Z</time></trkpt><trkpt lat="44.182097314724125" lon="10.940111568410362"><ele>450.0</ele><time>2026-05-02T09:17:14.995Z</time></trkpt><trkpt lat="44.1819877997578" lon="10.939943603851278"><ele>450.0</ele><time>2026-05-02T09:17:15.995Z</time></trkpt><trkpt lat="44.181867358831056" lon="10.939753957862521"><ele>452.0</ele><time>2026-05-02T09:17:16.995Z</time></trkpt><trkpt lat="44.18172332351205" lon="10.939582354520653"><ele>454.0</ele><time>2026-05-02T09:17:17.995Z</time></trkpt><trkpt lat="44.18153544115055" lon="10.939463337448142"><ele>456.0</ele><time>2026-05-02T09:17:18.995Z</time></trkpt><trkpt lat="44.181363928809624" lon="10.939299500174556"><ele>459.33333333333337</ele><time>2026-05-02T09:17:19.995Z</time></trkpt><trkpt lat="44.18118102325959" lon="10.939153367725611"><ele>462.6666666666667</ele><time>2026-05-02T09:17:20.995Z</time></trkpt><trkpt lat="44.181007390102515" lon="10.93901526553245"><ele>466.0</ele><time>2026-05-02T09:17:21.995Z</time></trkpt><trkpt lat="44.18085204010242" lon="10.93889170724348"><ele>466.0</ele><time>2026-05-02T09:17:22.995Z</time></trkpt><trkpt lat="44.18071079340398" lon="10.938779579645765"><ele>466.0</ele><time>2026-05-02T09:17:23.995Z</time></trkpt><trkpt lat="44.180581182931384" lon="10.938666150887848"><ele>466.0</ele><time>2026-05-02T09:17:24.995Z</time></trkpt><trkpt lat="44.180461182033916" lon="10.938532306628241"><ele>464.6666666666667</ele><time>2026-05-02T09:17:25.995Z</time></trkpt><trkpt lat="44.180388799409705" lon="10.938343291003585"><ele>463.33333333333337</ele><time>2026-05-02T09:17:26.995Z</time></trkpt><trkpt lat="44.18035929633686" lon="10.938131730761087"><ele>462.0</ele><time>2026-05-02T09:17:27.995Z</time></trkpt><trkpt lat="44.18037564211581" lon="10.937924184720075"><ele>462.0</ele><time>2026-05-02T09:17:28.995Z</time></trkpt><trkpt lat="44.18043204732209" lon="10.93773488794687"><ele>462.0</ele><time>2026-05-02T09:17:29.995Z</time></trkpt><trkpt lat="44.18052896243489" lon="10.937560426908268"><ele>462.0</ele><time>2026-05-02T09:17:30.995Z</time></trkpt><trkpt lat="44.18066232549238" lon="10.937391044787008"><ele>467.0</ele><time>2026-05-02T09:17:31.995Z</time></trkpt><trkpt lat="44.18079013393473" lon="10.937209280764607"><ele>472.0</ele><time>2026-05-02T09:17:32.995Z</time></trkpt><trkpt lat="44.18089828303821" lon="10.937038535993482"><ele>477.0</ele><time>2026-05-02T09:17:33.995Z</time></trkpt><trkpt lat="44.18097801312615" lon="10.93688480342061"><ele>477.0</ele><time>2026-05-02T09:17:34.995Z</time></trkpt><trkpt lat="44.18101673719173" lon="10.936719064251898"><ele>477.0</ele><time>2026-05-02T09:17:35.995Z</time></trkpt><trkpt lat="44.181006029557714" lon="10.936556752993507"><ele>477.0</ele><time>2026-05-02T09:17:36.995Z</time></trkpt><trkpt lat="44.18093880081843" lon="10.936412766724784"><ele>477.0</ele><time>2026-05-02T09:17:37.995Z</time></trkpt><trkpt lat="44.18082821107343" lon="10.936291342091584"><ele>477.0</ele><time>2026-05-02T09:17:38.995Z</time></trkpt><trkpt lat="44.18068316578876" lon="10.936190134363775"><ele>477.0</ele><time>2026-05-02T09:17:39.995Z</time></trkpt><trkpt lat="44.180515212635385" lon="10.936097356139575"><ele>477.0</ele><time>2026-05-02T09:17:40.995Z</time></trkpt><trkpt lat="44.18033318474697" lon="10.935991879037985"><ele>477.33333333333337</ele><time>2026-05-02T09:17:41.995Z</time></trkpt><trkpt lat="44.18014754018684" lon="10.935847692903483"><ele>477.6666666666667</ele><time>2026-05-02T09:17:42.995Z</time></trkpt><trkpt lat="44.17995614612106" lon="10.93574119610873"><ele>478.0</ele><time>2026-05-02T09:17:43.995Z</time></trkpt><trkpt lat="44.17979089031232" lon="10.935613913469757"><ele>476.0</ele><time>2026-05-02T09:17:44.995Z</time></trkpt><trkpt lat="44.17964488615621" lon="10.935454618784362"><ele>474.0</ele><time>2026-05-02T09:17:45.995Z</time></trkpt><trkpt lat="44.17951076160804" lon="10.935256786749813"><ele>472.0</ele><time>2026-05-02T09:17:46.995Z</time></trkpt><trkpt lat="44.17939240697973" lon="10.935029182610775"><ele>472.0</ele><time>2026-05-02T09:17:47.995Z</time></trkpt><trkpt lat="44.17929547129797" lon="10.934771751250398"><ele>472.0</ele><time>2026-05-02T09:17:48.995Z</time></trkpt><trkpt lat="44.179196065023554" lon="10.934508212892819"><ele>472.0</ele><time>2026-05-02T09:17:49.995Z</time></trkpt><trkpt lat="44.17908440133329" lon="10.934254493333023"><ele>468.6666666666667</ele><time>2026-05-02T09:17:50.995Z</time></trkpt><trkpt lat="44.17895085879481" lon="10.934023901976136"><ele>465.33333333333337</ele><time>2026-05-02T09:17:51.995Z</time></trkpt><trkpt lat="44.1788141865321" lon="10.933809719395429"><ele>462.0</ele><time>2026-05-02T09:17:52.995Z</time></trkpt><trkpt lat="44.178701796038155" lon="10.933595797172817"><ele>465.33333333333337</ele><time>2026-05-02T09:17:53.995Z</time></trkpt><trkpt lat="44.178638037384204" lon="10.933342286205878"><ele>468.6666666666667</ele><time>2026-05-02T09:17:54.995Z</time></trkpt><trkpt lat="44.178590086742524" lon="10.933097003382171"><ele>472.0</ele><time>2026-05-02T09:17:55.995Z</time></trkpt><trkpt lat="44.17859303171053" lon="10.93283329464847"><ele>472.0</ele><time>2026-05-02T09:17:56.995Z</time></trkpt><trkpt lat="44.17862562847351" lon="10.932561457060123"><ele>472.0</ele><time>2026-05-02T09:17:57.995Z</time></trkpt><trkpt lat="44.17867290109321" lon="10.932315409994972"><ele>472.0</ele><time>2026-05-02T09:17:58.995Z</time></trkpt><trkpt lat="44.17868010454509" lon="10.932100849392768"><ele>474.33333333333337</ele><time>2026-05-02T09:17:59.994Z</time></trkpt><trkpt lat="44.17863486166709" lon="10.931904837824076"><ele>476.66666666666663</ele><time>2026-05-02T09:18:00.994Z</time></trkpt><trkpt lat="44.17854089738719" lon="10.93172302839855"><ele>479.0</ele><time>2026-05-02T09:18:01.994Z</time></trkpt><trkpt lat="44.17840119747965" lon="10.931568469016545"><ele>480.66666666666663</ele><time>2026-05-02T09:18:02.994Z</time></trkpt><trkpt lat="44.178269630480344" lon="10.9313973768953"><ele>482.33333333333337</ele><time>2026-05-02T09:18:03.994Z</time></trkpt><trkpt lat="44.1781637996048" lon="10.931170492383082"><ele>484.0</ele><time>2026-05-02T09:18:04.994Z</time></trkpt><trkpt lat="44.17808870447457" lon="10.930925046858693"><ele>480.0</ele><time>2026-05-02T09:18:05.994Z</time></trkpt><trkpt lat="44.1780496826011" lon="10.930663123290747"><ele>476.0</ele><time>2026-05-02T09:18:06.994Z</time></trkpt><trkpt lat="44.178003968955466" lon="10.930419177365097"><ele>472.0</ele><time>2026-05-02T09:18:07.994Z</time></trkpt><trkpt lat="44.17791573978446" lon="10.930211293664133"><ele>476.33333333333337</ele><time>2026-05-02T09:18:08.994Z</time></trkpt><trkpt lat="44.17779071744988" lon="10.930021671629829"><ele>480.66666666666663</ele><time>2026-05-02T09:18:09.994Z</time></trkpt><trkpt lat="44.177642422967914" lon="10.929857750548818"><ele>485.0</ele><time>2026-05-02T09:18:10.994Z</time></trkpt><trkpt lat="44.177503952581674" lon="10.92970175023746"><ele>485.0</ele><time>2026-05-02T09:18:11.994Z</time></trkpt><trkpt lat="44.17738004024096" lon="10.92955699521496"><ele>485.0</ele><time>2026-05-02T09:18:12.994Z</time></trkpt><trkpt lat="44.17726780044715" lon="10.929420807136054"><ele>485.0</ele><time>2026-05-02T09:18:13.994Z</time></trkpt><trkpt lat="44.1771640963509" lon="10.9292935154468"><ele>485.0</ele><time>2026-05-02T09:18:14.994Z</time></trkpt><trkpt lat="44.17707308207242" lon="10.9291699842378"><ele>483.5</ele><time>2026-05-02T09:18:15.994Z</time></trkpt><trkpt lat="44.177021149296024" lon="10.929016662953092"><ele>482.0</ele><time>2026-05-02T09:18:16.994Z</time></trkpt><trkpt lat="44.17697030432176" lon="10.928869716303597"><ele>480.5</ele><time>2026-05-02T09:18:17.994Z</time></trkpt><trkpt lat="44.176969519850765" lon="10.928705727952444"><ele>479.0</ele><time>2026-05-02T09:18:18.994Z</time></trkpt><trkpt lat="44.17697392016691" lon="10.928541630461327"><ele>479.5</ele><time>2026-05-02T09:18:19.994Z</time></trkpt><trkpt lat="44.177007153689274" lon="10.92837409160033"><ele>480.0</ele><time>2026-05-02T09:18:20.994Z</time></trkpt><trkpt lat="44.17707839209606" lon="10.928207071977448"><ele>480.5</ele><time>2026-05-02T09:18:21.995Z</time></trkpt><trkpt lat="44.177152285143755" lon="10.928000049914617"><ele>481.0</ele><time>2026-05-02T09:18:22.995Z</time></trkpt><trkpt lat="44.177196175438816" lon="10.927751181991804"><ele>478.0</ele><time>2026-05-02T09:18:23.996Z</time></trkpt><trkpt lat="44.17723311964254" lon="10.927521952042346"><ele>475.0</ele><time>2026-05-02T09:18:24.996Z</time></trkpt><trkpt lat="44.177240073484825" lon="10.927306278859083"><ele>472.0</ele><time>2026-05-02T09:18:25.996Z</time></trkpt><trkpt lat="44.177200546950004" lon="10.927097208816887"><ele>472.0</ele><time>2026-05-02T09:18:26.996Z</time></trkpt><trkpt lat="44.177115181058284" lon="10.926895782239345"><ele>472.0</ele><time>2026-05-02T09:18:27.996Z</time></trkpt><trkpt lat="44.17699679357677" lon="10.926702132249307"><ele>472.0</ele><time>2026-05-02T09:18:28.996Z</time></trkpt><trkpt lat="44.17690587439348" lon="10.926498459189913"><ele>473.33333333333337</ele><time>2026-05-02T09:18:29.997Z</time></trkpt><trkpt lat="44.176874818110825" lon="10.92626516895724"><ele>474.66666666666663</ele><time>2026-05-02T09:18:30.997Z</time></trkpt><trkpt lat="44.17685248648156" lon="10.926034028019307"><ele>476.0</ele><time>2026-05-02T09:18:31.997Z</time></trkpt><trkpt lat="44.17681995099902" lon="10.92582032809506"><ele>474.0</ele><time>2026-05-02T09:18:32.997Z</time></trkpt><trkpt lat="44.17673372600091" lon="10.925653718502412"><ele>472.0</ele><time>2026-05-02T09:18:33.997Z</time></trkpt><trkpt lat="44.176608507838566" lon="10.925528481073984"><ele>470.0</ele><time>2026-05-02T09:18:34.998Z</time></trkpt><trkpt lat="44.17644748351703" lon="10.925453270055735"><ele>470.0</ele><time>2026-05-02T09:18:35.998Z</time></trkpt><trkpt lat="44.1762832656539" lon="10.92535843562275"><ele>470.0</ele><time>2026-05-02T09:18:36.998Z</time></trkpt><trkpt lat="44.17611235108623" lon="10.925265821651763"><ele>470.0</ele><time>2026-05-02T09:18:37.998Z</time></trkpt><trkpt lat="44.175943088258336" lon="10.925171655842615"><ele>470.0</ele><time>2026-05-02T09:18:38.998Z</time></trkpt><trkpt lat="44.17578577305088" lon="10.925083790274572"><ele>470.0</ele><time>2026-05-02T09:18:39.998Z</time></trkpt><trkpt lat="44.17563417020554" lon="10.925020605310623"><ele>470.0</ele><time>2026-05-02T09:18:40.998Z</time></trkpt><trkpt lat="44.17552022956238" lon="10.924914499527539"><ele>469.6</ele><time>2026-05-02T09:18:41.998Z</time></trkpt><trkpt lat="44.17545961107969" lon="10.924793438330774"><ele>469.2</ele><time>2026-05-02T09:18:42.998Z</time></trkpt><trkpt lat="44.175455706184486" lon="10.924659920093614"><ele>468.79999999999995</ele><time>2026-05-02T09:18:43.999Z</time></trkpt><trkpt lat="44.175496099182574" lon="10.924512270034015"><ele>468.4</ele><time>2026-05-02T09:18:44.999Z</time></trkpt><trkpt lat="44.17557103440241" lon="10.92436472696128"><ele>468.0</ele><time>2026-05-02T09:18:45.999Z</time></trkpt><trkpt lat="44.1756380701961" lon="10.924181865632914"><ele>477.66666666666663</ele><time>2026-05-02T09:18:46.999Z</time></trkpt><trkpt lat="44.17570079231285" lon="10.92396030614663"><ele>487.3333333333333</ele><time>2026-05-02T09:18:47.999Z</time></trkpt><trkpt lat="44.17577370226073" lon="10.92373580572952"><ele>497.0</ele><time>2026-05-02T09:18:48.999Z</time></trkpt><trkpt lat="44.17582226096095" lon="10.9235296575341"><ele>496.75</ele><time>2026-05-02T09:18:49.999Z</time></trkpt><trkpt lat="44.17582609577978" lon="10.92332886159314"><ele>496.5</ele><time>2026-05-02T09:18:50.999Z</time></trkpt><trkpt lat="44.17578628528822" lon="10.92314051658099"><ele>496.25</ele><time>2026-05-02T09:18:51.999Z</time></trkpt><trkpt lat="44.17569305900434" lon="10.922966746441038"><ele>496.0</ele><time>2026-05-02T09:18:52.999Z</time></trkpt><trkpt lat="44.175608248422144" lon="10.922777621412635"><ele>490.0</ele><time>2026-05-02T09:18:53.999Z</time></trkpt><trkpt lat="44.175559599884075" lon="10.922566865349657"><ele>484.0</ele><time>2026-05-02T09:18:54.999Z</time></trkpt><trkpt lat="44.17555095674272" lon="10.9223389688713"><ele>478.0</ele><time>2026-05-02T09:18:55.999Z</time></trkpt><trkpt lat="44.175564353047896" lon="10.922104516956178"><ele>478.0</ele><time>2026-05-02T09:18:56.999Z</time></trkpt><trkpt lat="44.17556856280601" lon="10.921886826454408"><ele>478.0</ele><time>2026-05-02T09:18:57.999Z</time></trkpt><trkpt lat="44.17553829328894" lon="10.921693163786433"><ele>478.0</ele><time>2026-05-02T09:18:58.999Z</time></trkpt><trkpt lat="44.17546786326444" lon="10.921525027100131"><ele>478.0</ele><time>2026-05-02T09:18:59.999Z</time></trkpt><trkpt lat="44.17534601657449" lon="10.921374959340055"><ele>481.0</ele><time>2026-05-02T09:19:00.999Z</time></trkpt><trkpt lat="44.17519970270199" lon="10.921234832107386"><ele>484.0</ele><time>2026-05-02T09:19:01.999Z</time></trkpt><trkpt lat="44.175044144573796" lon="10.921079329026519"><ele>487.0</ele><time>2026-05-02T09:19:02.999Z</time></trkpt><trkpt lat="44.174884132705564" lon="10.920913995603692"><ele>489.6666666666667</ele><time>2026-05-02T09:19:03.999Z</time></trkpt><trkpt lat="44.174728488232844" lon="10.920763503011209"><ele>492.33333333333337</ele><time>2026-05-02T09:19:04.999Z</time></trkpt><trkpt lat="44.17457262694076" lon="10.92064562946017"><ele>495.0</ele><time>2026-05-02T09:19:05.999Z</time></trkpt><trkpt lat="44.174409036175845" lon="10.9205894148057"><ele>495.0</ele><time>2026-05-02T09:19:06.999Z</time></trkpt><trkpt lat="44.17425101317372" lon="10.920534553617596"><ele>495.0</ele><time>2026-05-02T09:19:07.999Z</time></trkpt><trkpt lat="44.174103145827914" lon="10.920491745469507"><ele>495.0</ele><time>2026-05-02T09:19:08.999Z</time></trkpt><trkpt lat="44.17397528224809" lon="10.920354268354673"><ele>490.33333333333337</ele><time>2026-05-02T09:19:09.999Z</time></trkpt><trkpt lat="44.1738779772445" lon="10.920189977279119"><ele>485.6666666666667</ele><time>2026-05-02T09:19:10.999Z</time></trkpt><trkpt lat="44.17382809049991" lon="10.91999233340724"><ele>481.0</ele><time>2026-05-02T09:19:11.999Z</time></trkpt><trkpt lat="44.17382192380014" lon="10.919766110139927"><ele>481.0</ele><time>2026-05-02T09:19:12.999Z</time></trkpt><trkpt lat="44.17385631309717" lon="10.91954226530463"><ele>481.0</ele><time>2026-05-02T09:19:13.999Z</time></trkpt><trkpt lat="44.173937823348616" lon="10.91933708396553"><ele>481.0</ele><time>2026-05-02T09:19:14.999Z</time></trkpt><trkpt lat="44.174016968223505" lon="10.919141247087953"><ele>480.33333333333337</ele><time>2026-05-02T09:19:15.999Z</time></trkpt><trkpt lat="44.17403867880777" lon="10.918923312889108"><ele>479.66666666666663</ele><time>2026-05-02T09:19:16.999Z</time></trkpt><trkpt lat="44.1740208052507" lon="10.918701764956008"><ele>479.0</ele><time>2026-05-02T09:19:17.999Z</time></trkpt><trkpt lat="44.17396403856403" lon="10.918495696630504"><ele>480.66666666666663</ele><time>2026-05-02T09:19:18.999Z</time></trkpt><trkpt lat="44.17385420856043" lon="10.918320714955394"><ele>482.33333333333337</ele><time>2026-05-02T09:19:19.999Z</time></trkpt><trkpt lat="44.17370634971507" lon="10.91819023106383"><ele>484.0</ele><time>2026-05-02T09:19:20.999Z</time></trkpt><trkpt lat="44.173567418811146" lon="10.918050895239514"><ele>484.0</ele><time>2026-05-02T09:19:21.999Z</time></trkpt><trkpt lat="44.173474268596685" lon="10.917864834455997"><ele>484.0</ele><time>2026-05-02T09:19:22.999Z</time></trkpt><trkpt lat="44.173437784542166" lon="10.917631617131237"><ele>484.0</ele><time>2026-05-02T09:19:23.999Z</time></trkpt><trkpt lat="44.173383353376444" lon="10.917393741575998"><ele>488.0</ele><time>2026-05-02T09:19:24.999Z</time></trkpt><trkpt lat="44.173342550819626" lon="10.917147649398743"><ele>492.0</ele><time>2026-05-02T09:19:25.999Z</time></trkpt><trkpt lat="44.17331819054382" lon="10.916897500404978"><ele>496.0</ele><time>2026-05-02T09:19:26.999Z</time></trkpt><trkpt lat="44.17330974404063" lon="10.916633949700064"><ele>497.0</ele><time>2026-05-02T09:19:27.999Z</time></trkpt><trkpt lat="44.173320918688034" lon="10.916367321744527"><ele>498.0</ele><time>2026-05-02T09:19:28.999Z</time></trkpt><trkpt lat="44.17333875628012" lon="10.916118479488452"><ele>499.0</ele><time>2026-05-02T09:19:29.999Z</time></trkpt><trkpt lat="44.17334102711817" lon="10.915881607908261"><ele>499.0</ele><time>2026-05-02T09:19:30.999Z</time></trkpt><trkpt lat="44.17331745872724" lon="10.915655914599494"><ele>499.0</ele><time>2026-05-02T09:19:31.999Z</time></trkpt><trkpt lat="44.173249438398706" lon="10.915446465393625"><ele>499.0</ele><time>2026-05-02T09:19:32.999Z</time></trkpt><trkpt lat="44.17314084249092" lon="10.915256461372396"><ele>495.6666666666667</ele><time>2026-05-02T09:19:33.999Z</time></trkpt><trkpt lat="44.17301358831737" lon="10.91507019301728"><ele>492.33333333333337</ele><time>2026-05-02T09:19:34.999Z</time></trkpt><trkpt lat="44.172892438326855" lon="10.914861334491855"><ele>489.0</ele><time>2026-05-02T09:19:35.999Z</time></trkpt><trkpt lat="44.1727985847107" lon="10.914622686845748"><ele>489.0</ele><time>2026-05-02T09:19:36.999Z</time></trkpt><trkpt lat="44.172719171469" lon="10.914362002524785"><ele>489.0</ele><time>2026-05-02T09:19:37.999Z</time></trkpt><trkpt lat="44.17264191923996" lon="10.914091918051543"><ele>489.0</ele><time>2026-05-02T09:19:38.999Z</time></trkpt><trkpt lat="44.17256791337347" lon="10.91383009485268"><ele>489.0</ele><time>2026-05-02T09:19:39.999Z</time></trkpt><trkpt lat="44.172507641561936" lon="10.913576168241073"><ele>489.0</ele><time>2026-05-02T09:19:40.999Z</time></trkpt><trkpt lat="44.17244246297696" lon="10.913346930192686"><ele>489.0</ele><time>2026-05-02T09:19:41.999Z</time></trkpt><trkpt lat="44.17237443867699" lon="10.913143909353815"><ele>489.75</ele><time>2026-05-02T09:19:42.999Z</time></trkpt><trkpt lat="44.17235830879766" lon="10.912935407136922"><ele>490.5</ele><time>2026-05-02T09:19:43.999Z</time></trkpt><trkpt lat="44.172384914434296" lon="10.912758448752447"><ele>491.25</ele><time>2026-05-02T09:19:44.999Z</time></trkpt><trkpt lat="44.17244802793318" lon="10.912604231887409"><ele>492.0</ele><time>2026-05-02T09:19:45.999Z</time></trkpt><trkpt lat="44.172543109714" lon="10.91247033548803"><ele>488.66666666666663</ele><time>2026-05-02T09:19:46.999Z</time></trkpt><trkpt lat="44.17266476591904" lon="10.912348724268151"><ele>485.3333333333333</ele><time>2026-05-02T09:19:47.999Z</time></trkpt><trkpt lat="44.17276234309157" lon="10.912183569369322"><ele>482.0</ele><time>2026-05-02T09:19:48.999Z</time></trkpt><trkpt lat="44.17282454402089" lon="10.911962026098543"><ele>478.66666666666663</ele><time>2026-05-02T09:19:49.999Z</time></trkpt><trkpt lat="44.172847987318974" lon="10.911703248210456"><ele>475.33333333333337</ele><time>2026-05-02T09:19:50.999Z</time></trkpt><trkpt lat="44.1728745402866" lon="10.911434449955713"><ele>472.0</ele><time>2026-05-02T09:19:51.999Z</time></trkpt><trkpt lat="44.17290411208796" lon="10.911175572068517"><ele>472.0</ele><time>2026-05-02T09:19:52.999Z</time></trkpt><trkpt lat="44.172928905265415" lon="10.910931684672368"><ele>472.0</ele><time>2026-05-02T09:19:53.999Z</time></trkpt><trkpt lat="44.17292172369461" lon="10.910687118617147"><ele>472.0</ele><time>2026-05-02T09:19:54.999Z</time></trkpt><trkpt lat="44.17288025130733" lon="10.910447502013248"><ele>471.6666666666667</ele><time>2026-05-02T09:19:55.999Z</time></trkpt><trkpt lat="44.1727998495303" lon="10.910215358303569"><ele>471.33333333333337</ele><time>2026-05-02T09:19:56.999Z</time></trkpt><trkpt lat="44.172692054928255" lon="10.90999311182321"><ele>471.0</ele><time>2026-05-02T09:19:57.999Z</time></trkpt><trkpt lat="44.172574357013495" lon="10.909769049863248"><ele>471.0</ele><time>2026-05-02T09:19:58.999Z</time></trkpt><trkpt lat="44.17247649041464" lon="10.909516931014828"><ele>471.0</ele><time>2026-05-02T09:19:59.999Z</time></trkpt><trkpt lat="44.17235700017573" lon="10.909277753205549"><ele>471.0</ele><time>2026-05-02T09:20:00.999Z</time></trkpt><trkpt lat="44.172257169718826" lon="10.909022631616047"><ele>471.0</ele><time>2026-05-02T09:20:01.999Z</time></trkpt><trkpt lat="44.17216090247853" lon="10.90876826930256"><ele>471.0</ele><time>2026-05-02T09:20:02.999Z</time></trkpt><trkpt lat="44.17208153974165" lon="10.908512733039808"><ele>471.0</ele><time>2026-05-02T09:20:03.999Z</time></trkpt><trkpt lat="44.17202135158145" lon="10.908250758343247"><ele>473.33333333333337</ele><time>2026-05-02T09:20:04.999Z</time></trkpt><trkpt lat="44.171974753642864" lon="10.907986416434698"><ele>475.6666666666667</ele><time>2026-05-02T09:20:05.999Z</time></trkpt><trkpt lat="44.171931100269184" lon="10.907721867881758"><ele>478.0</ele><time>2026-05-02T09:20:06.999Z</time></trkpt><trkpt lat="44.17187649849393" lon="10.907467522528483"><ele>481.0</ele><time>2026-05-02T09:20:07.999Z</time></trkpt><trkpt lat="44.17181624910961" lon="10.90721676616021"><ele>484.0</ele><time>2026-05-02T09:20:08.999Z</time></trkpt><trkpt lat="44.17177738894487" lon="10.90696578188133"><ele>487.0</ele><time>2026-05-02T09:20:09.999Z</time></trkpt><trkpt lat="44.17176203295212" lon="10.906711271123488"><ele>488.6666666666667</ele><time>2026-05-02T09:20:10.999Z</time></trkpt><trkpt lat="44.17176157543754" lon="10.906455504809077"><ele>490.33333333333337</ele><time>2026-05-02T09:20:11.999Z</time></trkpt><trkpt lat="44.17177540748148" lon="10.906203924479014"><ele>492.0</ele><time>2026-05-02T09:20:12.999Z</time></trkpt><trkpt lat="44.17176643741737" lon="10.905967406804233"><ele>491.33333333333337</ele><time>2026-05-02T09:20:13.999Z</time></trkpt><trkpt lat="44.171728357257024" lon="10.905750937485783"><ele>490.6666666666667</ele><time>2026-05-02T09:20:14.999Z</time></trkpt><trkpt lat="44.17167888668107" lon="10.905540455524617"><ele>490.0</ele><time>2026-05-02T09:20:15.999Z</time></trkpt><trkpt lat="44.171663251566734" lon="10.905333995463183"><ele>490.0</ele><time>2026-05-02T09:20:16.999Z</time></trkpt><trkpt lat="44.171689072029075" lon="10.905132621139202"><ele>490.0</ele><time>2026-05-02T09:20:17.999Z</time></trkpt><trkpt lat="44.1717483939392" lon="10.904930034271294"><ele>490.0</ele><time>2026-05-02T09:20:18.999Z</time></trkpt><trkpt lat="44.171845268512186" lon="10.904727790953048"><ele>488.33333333333337</ele><time>2026-05-02T09:20:19.999Z</time></trkpt><trkpt lat="44.17195637168688" lon="10.904518488097994"><ele>486.66666666666663</ele><time>2026-05-02T09:20:20.999Z</time></trkpt><trkpt lat="44.17207230221976" lon="10.904302978646095"><ele>485.0</ele><time>2026-05-02T09:20:21.999Z</time></trkpt><trkpt lat="44.17220214195073" lon="10.904105372372946"><ele>484.3333333333333</ele><time>2026-05-02T09:20:22.999Z</time></trkpt><trkpt lat="44.17233713968442" lon="10.903949788997956"><ele>483.66666666666663</ele><time>2026-05-02T09:20:23.999Z</time></trkpt><trkpt lat="44.17246893074545" lon="10.903835980538291"><ele>483.0</ele><time>2026-05-02T09:20:24.999Z</time></trkpt><trkpt lat="44.17256670142044" lon="10.903717000424098"><ele>484.75</ele><time>2026-05-02T09:20:25.999Z</time></trkpt><trkpt lat="44.17262283098481" lon="10.903566152687985"><ele>486.5</ele><time>2026-05-02T09:20:26.999Z</time></trkpt><trkpt lat="44.17262782619312" lon="10.903381616890293"><ele>488.25</ele><time>2026-05-02T09:20:28Z</time></trkpt><trkpt lat="44.172599430604414" lon="10.903185245137568"><ele>490.0</ele><time>2026-05-02T09:20:29Z</time></trkpt><trkpt lat="44.1725422519933" lon="10.902970990420663"><ele>490.0</ele><time>2026-05-02T09:20:30Z</time></trkpt><trkpt lat="44.17247337639133" lon="10.902738718592897"><ele>490.0</ele><time>2026-05-02T09:20:31Z</time></trkpt><trkpt lat="44.17240729060751" lon="10.90250182928065"><ele>490.0</ele><time>2026-05-02T09:20:32Z</time></trkpt><trkpt lat="44.17234777555808" lon="10.902267171156288"><ele>487.6666666666667</ele><time>2026-05-02T09:20:33Z</time></trkpt><trkpt lat="44.17230955962184" lon="10.90202365174465"><ele>485.33333333333337</ele><time>2026-05-02T09:20:34Z</time></trkpt><trkpt lat="44.17230863732334" lon="10.901755041751397"><ele>483.0</ele><time>2026-05-02T09:20:35Z</time></trkpt><trkpt lat="44.17233434732632" lon="10.901478234959962"><ele>485.0</ele><time>2026-05-02T09:20:36Z</time></trkpt><trkpt lat="44.17237089200325" lon="10.901196682632618"><ele>487.0</ele><time>2026-05-02T09:20:37Z</time></trkpt><trkpt lat="44.172398497844824" lon="10.90090905773969"><ele>489.0</ele><time>2026-05-02T09:20:38Z</time></trkpt><trkpt lat="44.17240661260242" lon="10.900636800902898"><ele>489.0</ele><time>2026-05-02T09:20:39Z</time></trkpt><trkpt lat="44.172384460903686" lon="10.90038388821829"><ele>489.0</ele><time>2026-05-02T09:20:40Z</time></trkpt><trkpt lat="44.172325512717364" lon="10.900157331794057"><ele>489.0</ele><time>2026-05-02T09:20:41Z</time></trkpt><trkpt lat="44.172247730597206" lon="10.899954168897624"><ele>485.0</ele><time>2026-05-02T09:20:42Z</time></trkpt><trkpt lat="44.172143811163835" lon="10.899778777791902"><ele>481.0</ele><time>2026-05-02T09:20:43Z</time></trkpt><trkpt lat="44.17201243482801" lon="10.899640133406924"><ele>477.0</ele><time>2026-05-02T09:20:44Z</time></trkpt><trkpt lat="44.17186735475818" lon="10.899526249775324"><ele>477.0</ele><time>2026-05-02T09:20:45Z</time></trkpt><trkpt lat="44.17170567165888" lon="10.899426982912587"><ele>477.0</ele><time>2026-05-02T09:20:46Z</time></trkpt><trkpt lat="44.17153580307124" lon="10.899338302451548"><ele>477.0</ele><time>2026-05-02T09:20:47Z</time></trkpt><trkpt lat="44.17136674856566" lon="10.899290059752039"><ele>477.66666666666663</ele><time>2026-05-02T09:20:48Z</time></trkpt><trkpt lat="44.17120820653413" lon="10.899292910823112"><ele>478.3333333333333</ele><time>2026-05-02T09:20:49Z</time></trkpt><trkpt lat="44.171061288704806" lon="10.899278345245651"><ele>479.0</ele><time>2026-05-02T09:20:50Z</time></trkpt><trkpt lat="44.17092726196541" lon="10.899204159648662"><ele>480.5</ele><time>2026-05-02T09:20:51Z</time></trkpt><trkpt lat="44.17080636883176" lon="10.899085972346544"><ele>482.0</ele><time>2026-05-02T09:20:52Z</time></trkpt><trkpt lat="44.170706478190155" lon="10.898925906932721"><ele>483.5</ele><time>2026-05-02T09:20:53Z</time></trkpt><trkpt lat="44.17065702508709" lon="10.898745064753703"><ele>485.0</ele><time>2026-05-02T09:20:54Z</time></trkpt><trkpt lat="44.17062937947798" lon="10.898579069486091"><ele>486.0</ele><time>2026-05-02T09:20:55Z</time></trkpt><trkpt lat="44.170562774711996" lon="10.898440726863965"><ele>487.0</ele><time>2026-05-02T09:20:56Z</time></trkpt><trkpt lat="44.17046234770095" lon="10.898331362467056"><ele>488.0</ele><time>2026-05-02T09:20:57Z</time></trkpt><trkpt lat="44.1703423694084" lon="10.898278103969684"><ele>489.0</ele><time>2026-05-02T09:20:58Z</time></trkpt><trkpt lat="44.17020543517628" lon="10.898278207746944"><ele>491.25</ele><time>2026-05-02T09:20:59Z</time></trkpt><trkpt lat="44.1700676724066" lon="10.898315626740047"><ele>493.5</ele><time>2026-05-02T09:21:00Z</time></trkpt><trkpt lat="44.16994687139658" lon="10.89836724189319"><ele>495.75</ele><time>2026-05-02T09:21:01Z</time></trkpt><trkpt lat="44.169856743229005" lon="10.898460343897371"><ele>498.0</ele><time>2026-05-02T09:21:02Z</time></trkpt><trkpt lat="44.16978812960464" lon="10.898617156825614"><ele>504.66666666666663</ele><time>2026-05-02T09:21:03Z</time></trkpt><trkpt lat="44.169733990436455" lon="10.898812476551727"><ele>511.3333333333333</ele><time>2026-05-02T09:21:04Z</time></trkpt><trkpt lat="44.16968552023714" lon="10.89902941491047"><ele>518.0</ele><time>2026-05-02T09:21:05Z</time></trkpt><trkpt lat="44.16960336797286" lon="10.899237142598059"><ele>511.3333333333333</ele><time>2026-05-02T09:21:06Z</time></trkpt><trkpt lat="44.169487191053946" lon="10.899422194085219"><ele>504.66666666666663</ele><time>2026-05-02T09:21:07Z</time></trkpt><trkpt lat="44.169347026448094" lon="10.899581658154023"><ele>498.0</ele><time>2026-05-02T09:21:08Z</time></trkpt><trkpt lat="44.16917827230897" lon="10.899709689673363"><ele>501.33333333333337</ele><time>2026-05-02T09:21:09Z</time></trkpt><trkpt lat="44.16901428162775" lon="10.899817005206833"><ele>504.6666666666667</ele><time>2026-05-02T09:21:10Z</time></trkpt><trkpt lat="44.16885374147236" lon="10.89988850577751"><ele>508.0</ele><time>2026-05-02T09:21:11Z</time></trkpt><trkpt lat="44.16869200203218" lon="10.89991193521735"><ele>508.0</ele><time>2026-05-02T09:21:11.999Z</time></trkpt><trkpt lat="44.16854441197083" lon="10.899907224212267"><ele>508.0</ele><time>2026-05-02T09:21:12.999Z</time></trkpt><trkpt lat="44.168416342389236" lon="10.899973713483941"><ele>508.0</ele><time>2026-05-02T09:21:13.999Z</time></trkpt><trkpt lat="44.168304621129835" lon="10.90011316466006"><ele>508.0</ele><time>2026-05-02T09:21:14.999Z</time></trkpt><trkpt lat="44.16820803028351" lon="10.900292541150197"><ele>508.6666666666667</ele><time>2026-05-02T09:21:15.999Z</time></trkpt><trkpt lat="44.16810191013689" lon="10.90046878713322"><ele>509.33333333333337</ele><time>2026-05-02T09:21:16.999Z</time></trkpt><trkpt lat="44.167966236330514" lon="10.900598250821513"><ele>510.0</ele><time>2026-05-02T09:21:17.999Z</time></trkpt><trkpt lat="44.16781645810477" lon="10.900670401842914"><ele>510.0</ele><time>2026-05-02T09:21:18.999Z</time></trkpt><trkpt lat="44.16765073459415" lon="10.900690219950784"><ele>510.0</ele><time>2026-05-02T09:21:19.999Z</time></trkpt><trkpt lat="44.16747745013399" lon="10.900685280102321"><ele>510.0</ele><time>2026-05-02T09:21:20.999Z</time></trkpt><trkpt lat="44.16732219280633" lon="10.90072597589204"><ele>510.0</ele><time>2026-05-02T09:21:21.999Z</time></trkpt><trkpt lat="44.16719635297046" lon="10.900820384642364"><ele>510.0</ele><time>2026-05-02T09:21:22.999Z</time></trkpt><trkpt lat="44.16711114271888" lon="10.900951262594768"><ele>510.0</ele><time>2026-05-02T09:21:23.999Z</time></trkpt><trkpt lat="44.16706045911872" lon="10.901109088453856"><ele>510.0</ele><time>2026-05-02T09:21:24.999Z</time></trkpt><trkpt lat="44.16703676614628" lon="10.90128574818394"><ele>510.0</ele><time>2026-05-02T09:21:25.999Z</time></trkpt><trkpt lat="44.16696308697804" lon="10.901405875185615"><ele>510.0</ele><time>2026-05-02T09:21:26.999Z</time></trkpt><trkpt lat="44.16686638459299" lon="10.901454167320688"><ele>510.0</ele><time>2026-05-02T09:21:27.999Z</time></trkpt><trkpt lat="44.16676438090986" lon="10.901409049714168"><ele>510.0</ele><time>2026-05-02T09:21:28.999Z</time></trkpt><trkpt lat="44.16666308698189" lon="10.901291829475054"><ele>510.0</ele><time>2026-05-02T09:21:29.999Z</time></trkpt><trkpt lat="44.16655874627267" lon="10.901142595477431"><ele>510.0</ele><time>2026-05-02T09:21:30.999Z</time></trkpt><trkpt lat="44.16642180102793" lon="10.901001019867971"><ele>510.0</ele><time>2026-05-02T09:21:31.999Z</time></trkpt><trkpt lat="44.166268661642356" lon="10.90084645713684"><ele>513.0</ele><time>2026-05-02T09:21:32.999Z</time></trkpt><trkpt lat="44.16610584227204" lon="10.900670385315815"><ele>516.0</ele><time>2026-05-02T09:21:33.999Z</time></trkpt><trkpt lat="44.16592812408316" lon="10.900481485834273"><ele>519.0</ele><time>2026-05-02T09:21:34.999Z</time></trkpt><trkpt lat="44.165739760300866" lon="10.900293869838219"><ele>517.5</ele><time>2026-05-02T09:21:35.999Z</time></trkpt><trkpt lat="44.16555082913568" lon="10.900113911051177"><ele>516.0</ele><time>2026-05-02T09:21:36.999Z</time></trkpt><trkpt lat="44.165360082700396" lon="10.89994470994772"><ele>522.0</ele><time>2026-05-02T09:21:37.999Z</time></trkpt><trkpt lat="44.165157810121215" lon="10.899796318394277"><ele>528.0</ele><time>2026-05-02T09:21:38.999Z</time></trkpt><trkpt lat="44.164941985171986" lon="10.899667851212827"><ele>524.5</ele><time>2026-05-02T09:21:39.999Z</time></trkpt><trkpt lat="44.16472056699504" lon="10.899557117176254"><ele>521.0</ele><time>2026-05-02T09:21:40.999Z</time></trkpt><trkpt lat="44.16449647075502" lon="10.8994566795852"><ele>521.0</ele><time>2026-05-02T09:21:41.999Z</time></trkpt><trkpt lat="44.164272352410315" lon="10.899357801299775"><ele>521.0</ele><time>2026-05-02T09:21:42.999Z</time></trkpt><trkpt lat="44.16404320135609" lon="10.899274200756727"><ele>530.0</ele><time>2026-05-02T09:21:43.999Z</time></trkpt><trkpt lat="44.1638103759247" lon="10.899221934828166"><ele>539.0</ele><time>2026-05-02T09:21:44.999Z</time></trkpt><trkpt lat="44.16357606574199" lon="10.899194172574111"><ele>539.0</ele><time>2026-05-02T09:21:45.999Z</time></trkpt><trkpt lat="44.16334526939642" lon="10.899184162424497"><ele>539.0</ele><time>2026-05-02T09:21:46.999Z</time></trkpt><trkpt lat="44.163121144383304" lon="10.89915135091057"><ele>538.6666666666666</ele><time>2026-05-02T09:21:47.999Z</time></trkpt><trkpt lat="44.16290397736825" lon="10.899134609931474"><ele>538.3333333333334</ele><time>2026-05-02T09:21:48.999Z</time></trkpt><trkpt lat="44.16270207984839" lon="10.899102187919723"><ele>538.0</ele><time>2026-05-02T09:21:49.999Z</time></trkpt><trkpt lat="44.16251943609633" lon="10.899049766339216"><ele>538.0</ele><time>2026-05-02T09:21:50.999Z</time></trkpt><trkpt lat="44.1623694202891" lon="10.898907231605497"><ele>538.0</ele><time>2026-05-02T09:21:51.999Z</time></trkpt><trkpt lat="44.16221761672493" lon="10.89877411711723"><ele>538.0</ele><time>2026-05-02T09:21:52.999Z</time></trkpt><trkpt lat="44.16206821898174" lon="10.898692448978899"><ele>539.0</ele><time>2026-05-02T09:21:53.999Z</time></trkpt><trkpt lat="44.16190013179953" lon="10.898659752215814"><ele>540.0</ele><time>2026-05-02T09:21:54.999Z</time></trkpt><trkpt lat="44.16172751563202" lon="10.898669064316996"><ele>541.0</ele><time>2026-05-02T09:21:55.999Z</time></trkpt><trkpt lat="44.161549617594005" lon="10.898683853303222"><ele>540.6666666666667</ele><time>2026-05-02T09:21:56.999Z</time></trkpt><trkpt lat="44.16137210037251" lon="10.898697077991663"><ele>540.3333333333334</ele><time>2026-05-02T09:21:57.999Z</time></trkpt><trkpt lat="44.16119490440313" lon="10.898702745318634"><ele>540.0</ele><time>2026-05-02T09:21:58.999Z</time></trkpt><trkpt lat="44.161017918805584" lon="10.898647131510039"><ele>540.0</ele><time>2026-05-02T09:21:59.999Z</time></trkpt><trkpt lat="44.16084523290608" lon="10.898557555953222"><ele>540.0</ele><time>2026-05-02T09:22:00.999Z</time></trkpt><trkpt lat="44.160676955865895" lon="10.898443485869107"><ele>540.0</ele><time>2026-05-02T09:22:01.999Z</time></trkpt><trkpt lat="44.1605286891528" lon="10.898337492074006"><ele>541.0</ele><time>2026-05-02T09:22:02.999Z</time></trkpt><trkpt lat="44.16040527128492" lon="10.8982145326723"><ele>542.0</ele><time>2026-05-02T09:22:03.999Z</time></trkpt><trkpt lat="44.160311233783474" lon="10.898070787796257"><ele>543.0</ele><time>2026-05-02T09:22:04.999Z</time></trkpt><trkpt lat="44.160241488831" lon="10.897903914685518"><ele>544.0</ele><time>2026-05-02T09:22:05.999Z</time></trkpt><trkpt lat="44.160205473794434" lon="10.897723027480215"><ele>547.0</ele><time>2026-05-02T09:22:06.999Z</time></trkpt><trkpt lat="44.160186454776024" lon="10.897560530908002"><ele>550.0</ele><time>2026-05-02T09:22:07.999Z</time></trkpt><trkpt lat="44.16015558102768" lon="10.897437632305033"><ele>553.0</ele><time>2026-05-02T09:22:08.999Z</time></trkpt><trkpt lat="44.16009184128767" lon="10.89734808509448"><ele>556.0</ele><time>2026-05-02T09:22:09.999Z</time></trkpt><trkpt lat="44.15999398478482" lon="10.897282740224185"><ele>559.0</ele><time>2026-05-02T09:22:10.999Z</time></trkpt><trkpt lat="44.159852064972846" lon="10.897259573579714"><ele>559.0</ele><time>2026-05-02T09:22:11.999Z</time></trkpt><trkpt lat="44.15970469643436" lon="10.897283606605141"><ele>559.0</ele><time>2026-05-02T09:22:12.999Z</time></trkpt><trkpt lat="44.15957913441649" lon="10.897293073585274"><ele>559.0</ele><time>2026-05-02T09:22:13.999Z</time></trkpt><trkpt lat="44.15947615289198" lon="10.897254225760896"><ele>559.0</ele><time>2026-05-02T09:22:14.999Z</time></trkpt><trkpt lat="44.15939492060261" lon="10.897182504432333"><ele>559.0</ele><time>2026-05-02T09:22:15.999Z</time></trkpt><trkpt lat="44.15931797835183" lon="10.897111354125142"><ele>559.0</ele><time>2026-05-02T09:22:16.999Z</time></trkpt><trkpt lat="44.15926466722091" lon="10.897000660146574"><ele>559.0</ele><time>2026-05-02T09:22:17.999Z</time></trkpt><trkpt lat="44.1592434428818" lon="10.896864350587176"><ele>559.0</ele><time>2026-05-02T09:22:18.999Z</time></trkpt><trkpt lat="44.15922407227114" lon="10.896732145521716"><ele>559.0</ele><time>2026-05-02T09:22:19.999Z</time></trkpt><trkpt lat="44.15918688640127" lon="10.89661453967202"><ele>560.8333333333334</ele><time>2026-05-02T09:22:20.999Z</time></trkpt><trkpt lat="44.15915652015838" lon="10.896496241103062"><ele>562.6666666666667</ele><time>2026-05-02T09:22:21.999Z</time></trkpt><trkpt lat="44.159105196825834" lon="10.896385827538104"><ele>564.5</ele><time>2026-05-02T09:22:22.999Z</time></trkpt><trkpt lat="44.15903974181705" lon="10.896286292906954"><ele>566.3333333333334</ele><time>2026-05-02T09:22:23.999Z</time></trkpt><trkpt lat="44.15897132326165" lon="10.896209994342051"><ele>568.1666666666666</ele><time>2026-05-02T09:22:24.999Z</time></trkpt><trkpt lat="44.158906504103285" lon="10.896151122870172"><ele>570.0</ele><time>2026-05-02T09:22:25.999Z</time></trkpt><trkpt lat="44.158828951870326" lon="10.896110788239273"><ele>571.2</ele><time>2026-05-02T09:22:26.999Z</time></trkpt><trkpt lat="44.15874150205618" lon="10.89609791146192"><ele>572.4</ele><time>2026-05-02T09:22:27.999Z</time></trkpt><trkpt lat="44.15865169254464" lon="10.896112086780125"><ele>573.6</ele><time>2026-05-02T09:22:28.999Z</time></trkpt><trkpt lat="44.1585730069903" lon="10.896135627566888"><ele>574.8</ele><time>2026-05-02T09:22:29.999Z</time></trkpt><trkpt lat="44.15848920080646" lon="10.896186727930312"><ele>576.0</ele><time>2026-05-02T09:22:30.999Z</time></trkpt><trkpt lat="44.15838556706685" lon="10.896245174793796"><ele>576.0</ele><time>2026-05-02T09:22:31.999Z</time></trkpt><trkpt lat="44.15827842910666" lon="10.89633362813454"><ele>576.0</ele><time>2026-05-02T09:22:32.999Z</time></trkpt><trkpt lat="44.15816750994397" lon="10.89643799601218"><ele>576.0</ele><time>2026-05-02T09:22:34Z</time></trkpt><trkpt lat="44.15807225740475" lon="10.89657518616231"><ele>576.0</ele><time>2026-05-02T09:22:35Z</time></trkpt><trkpt lat="44.15798003937738" lon="10.896689728327026"><ele>578.0</ele><time>2026-05-02T09:22:36Z</time></trkpt><trkpt lat="44.15790565916664" lon="10.89679601693003"><ele>580.0</ele><time>2026-05-02T09:22:37Z</time></trkpt><trkpt lat="44.157846283660675" lon="10.896891071569934"><ele>582.0</ele><time>2026-05-02T09:22:38Z</time></trkpt><trkpt lat="44.157794419225596" lon="10.896992606105988"><ele>584.0</ele><time>2026-05-02T09:22:39Z</time></trkpt><trkpt lat="44.15775126615997" lon="10.89710643083996"><ele>586.0</ele><time>2026-05-02T09:22:40Z</time></trkpt><trkpt lat="44.15771571755877" lon="10.89723031038318"><ele>586.0</ele><time>2026-05-02T09:22:41Z</time></trkpt><trkpt lat="44.15769332956612" lon="10.89739257427581"><ele>586.0</ele><time>2026-05-02T09:22:42Z</time></trkpt><trkpt lat="44.157715800195106" lon="10.897573485326394"><ele>586.0</ele><time>2026-05-02T09:22:43Z</time></trkpt><trkpt lat="44.15771715962524" lon="10.897719538459134"><ele>586.0</ele><time>2026-05-02T09:22:44Z</time></trkpt><trkpt lat="44.15771372975487" lon="10.897831207984186"><ele>586.0</ele><time>2026-05-02T09:22:45Z</time></trkpt><trkpt lat="44.15770313170163" lon="10.897929167417356"><ele>586.1666666666667</ele><time>2026-05-02T09:22:46Z</time></trkpt><trkpt lat="44.15768312893097" lon="10.898028985993506"><ele>586.3333333333334</ele><time>2026-05-02T09:22:47Z</time></trkpt><trkpt lat="44.157641235512024" lon="10.898128169923908"><ele>586.5</ele><time>2026-05-02T09:22:48Z</time></trkpt><trkpt lat="44.15757728408482" lon="10.898194526589192"><ele>586.6666666666666</ele><time>2026-05-02T09:22:49Z</time></trkpt><trkpt lat="44.15749179963186" lon="10.898203002528223"><ele>586.8333333333333</ele><time>2026-05-02T09:22:50Z</time></trkpt><trkpt lat="44.1573920803239" lon="10.898207229239347"><ele>587.0</ele><time>2026-05-02T09:22:51Z</time></trkpt><trkpt lat="44.157262571345086" lon="10.898225618169837"><ele>587.0</ele><time>2026-05-02T09:22:52Z</time></trkpt><trkpt lat="44.15714420755393" lon="10.898293519465238"><ele>587.0</ele><time>2026-05-02T09:22:53Z</time></trkpt><trkpt lat="44.15705101503197" lon="10.898381583450012"><ele>587.0</ele><time>2026-05-02T09:22:54Z</time></trkpt><trkpt lat="44.156959592435484" lon="10.898393571158866"><ele>587.0</ele><time>2026-05-02T09:22:55Z</time></trkpt><trkpt lat="44.15688209906076" lon="10.89839872094604"><ele>587.0</ele><time>2026-05-02T09:22:56Z</time></trkpt><trkpt lat="44.156811665820086" lon="10.898344765667085"><ele>587.0</ele><time>2026-05-02T09:22:57Z</time></trkpt><trkpt lat="44.15673646203715" lon="10.89828697583206"><ele>587.0</ele><time>2026-05-02T09:22:58Z</time></trkpt><trkpt lat="44.15665364274546" lon="10.898233682761783"><ele>587.0</ele><time>2026-05-02T09:22:59Z</time></trkpt><trkpt lat="44.156561978812455" lon="10.898187654868599"><ele>587.0</ele><time>2026-05-02T09:23:00Z</time></trkpt><trkpt lat="44.156469219508594" lon="10.898164583831681"><ele>587.0</ele><time>2026-05-02T09:23:01Z</time></trkpt><trkpt lat="44.1563801399367" lon="10.898148785114698"><ele>587.2</ele><time>2026-05-02T09:23:02Z</time></trkpt><trkpt lat="44.15628316635367" lon="10.89813330850607"><ele>587.4000000000001</ele><time>2026-05-02T09:23:03Z</time></trkpt><trkpt lat="44.156187878261896" lon="10.898114191219983"><ele>587.5999999999999</ele><time>2026-05-02T09:23:04Z</time></trkpt><trkpt lat="44.15609579661613" lon="10.898107972490589"><ele>587.8</ele><time>2026-05-02T09:23:05Z</time></trkpt><trkpt lat="44.15597815728415" lon="10.898104739829598"><ele>588.0</ele><time>2026-05-02T09:23:06Z</time></trkpt><trkpt lat="44.155848089802106" lon="10.89806633907569"><ele>588.0</ele><time>2026-05-02T09:23:07Z</time></trkpt><trkpt lat="44.15573426974674" lon="10.89806096957976"><ele>588.0</ele><time>2026-05-02T09:23:08Z</time></trkpt><trkpt lat="44.15564606571883" lon="10.898037250885475"><ele>588.0</ele><time>2026-05-02T09:23:09Z</time></trkpt><trkpt lat="44.15556886362402" lon="10.898020577990295"><ele>588.0</ele><time>2026-05-02T09:23:10Z</time></trkpt><trkpt lat="44.15548147966715" lon="10.897962084940191"><ele>588.0</ele><time>2026-05-02T09:23:11.999Z</time></trkpt><trkpt lat="44.15544875614515" lon="10.897870386546007"><ele>588.0</ele><time>2026-05-02T09:23:13.999Z</time></trkpt><trkpt lat="44.155504789302604" lon="10.897746692406182"><ele>588.0</ele><time>2026-05-02T09:23:15.999Z</time></trkpt><trkpt lat="44.15557152138074" lon="10.897753788951372"><ele>588.0</ele><time>2026-05-02T09:23:16.999Z</time></trkpt><trkpt lat="44.15564166168201" lon="10.897750821316475"><ele>588.0</ele><time>2026-05-02T09:23:17.999Z</time></trkpt><trkpt lat="44.155708613144576" lon="10.897782170691393"><ele>588.0</ele><time>2026-05-02T09:23:18.999Z</time></trkpt><trkpt lat="44.1557811523279" lon="10.897800826890562"><ele>588.0</ele><time>2026-05-02T09:23:19.999Z</time></trkpt><trkpt lat="44.1558745441676" lon="10.89778536029583"><ele>588.0</ele><time>2026-05-02T09:23:20.999Z</time></trkpt><trkpt lat="44.15598570757144" lon="10.897753085277861"><ele>588.0</ele><time>2026-05-02T09:23:21.999Z</time></trkpt><trkpt lat="44.15611396212327" lon="10.897709282083113"><ele>588.0</ele><time>2026-05-02T09:23:22.999Z</time></trkpt><trkpt lat="44.156266812844464" lon="10.89768409792765"><ele>588.0</ele><time>2026-05-02T09:23:23.999Z</time></trkpt><trkpt lat="44.15641465490917" lon="10.897645440012218"><ele>588.0</ele><time>2026-05-02T09:23:24.999Z</time></trkpt><trkpt lat="44.156531871738274" lon="10.89763758519276"><ele>588.0</ele><time>2026-05-02T09:23:25.999Z</time></trkpt><trkpt lat="44.15661419994859" lon="10.897588962387504"><ele>588.0</ele><time>2026-05-02T09:23:26.999Z</time></trkpt><trkpt lat="44.156676196515456" lon="10.897517307124543"><ele>588.0</ele><time>2026-05-02T09:23:27.999Z</time></trkpt><trkpt lat="44.15669172638003" lon="10.897376731247583"><ele>588.0</ele><time>2026-05-02T09:23:28.999Z</time></trkpt><trkpt lat="44.156650626213555" lon="10.897211492329847"><ele>591.0</ele><time>2026-05-02T09:23:29.999Z</time></trkpt><trkpt lat="44.15661182347674" lon="10.897028102648536"><ele>594.0</ele><time>2026-05-02T09:23:30.999Z</time></trkpt><trkpt lat="44.15658365937083" lon="10.896825112575483"><ele>597.0</ele><time>2026-05-02T09:23:31.999Z</time></trkpt><trkpt lat="44.15660796089567" lon="10.896618409375543"><ele>600.0</ele><time>2026-05-02T09:23:32.999Z</time></trkpt><trkpt lat="44.15663794682383" lon="10.896410572012773"><ele>603.3333333333334</ele><time>2026-05-02T09:23:33.999Z</time></trkpt><trkpt lat="44.156661802827294" lon="10.896187207110874"><ele>606.6666666666667</ele><time>2026-05-02T09:23:34.999Z</time></trkpt><trkpt lat="44.15672267690425" lon="10.895963642799805"><ele>610.0</ele><time>2026-05-02T09:23:35.999Z</time></trkpt><trkpt lat="44.1567848994249" lon="10.895735477774172"><ele>613.3333333333334</ele><time>2026-05-02T09:23:36.999Z</time></trkpt><trkpt lat="44.156856115264375" lon="10.895529256426464"><ele>616.6666666666666</ele><time>2026-05-02T09:23:37.999Z</time></trkpt><trkpt lat="44.156948029902345" lon="10.895336274281826"><ele>620.0</ele><time>2026-05-02T09:23:38.999Z</time></trkpt><trkpt lat="44.157068649400216" lon="10.895167761370404"><ele>618.6666666666666</ele><time>2026-05-02T09:23:39.999Z</time></trkpt><trkpt lat="44.15720342159615" lon="10.895028483801656"><ele>617.3333333333334</ele><time>2026-05-02T09:23:40.999Z</time></trkpt><trkpt lat="44.15734743776801" lon="10.89490777571205"><ele>616.0</ele><time>2026-05-02T09:23:41.999Z</time></trkpt><trkpt lat="44.15748080437942" lon="10.894768697071173"><ele>616.0</ele><time>2026-05-02T09:23:42.999Z</time></trkpt><trkpt lat="44.15758875034529" lon="10.894613653908438"><ele>616.0</ele><time>2026-05-02T09:23:43.999Z</time></trkpt><trkpt lat="44.15767894417481" lon="10.894431017285463"><ele>616.0</ele><time>2026-05-02T09:23:44.999Z</time></trkpt><trkpt lat="44.15778709529286" lon="10.894315625652444"><ele>616.0</ele><time>2026-05-02T09:23:45.999Z</time></trkpt><trkpt lat="44.157908631590395" lon="10.894268466545824"><ele>616.0</ele><time>2026-05-02T09:23:46.999Z</time></trkpt><trkpt lat="44.15804169762382" lon="10.894246219178243"><ele>616.0</ele><time>2026-05-02T09:23:47.999Z</time></trkpt><trkpt lat="44.158181663071666" lon="10.894219884966114"><ele>616.0</ele><time>2026-05-02T09:23:48.999Z</time></trkpt><trkpt lat="44.15831830082339" lon="10.894146957087719"><ele>619.0</ele><time>2026-05-02T09:23:49.999Z</time></trkpt><trkpt lat="44.15843181532958" lon="10.894061695632223"><ele>622.0</ele><time>2026-05-02T09:23:50.999Z</time></trkpt><trkpt lat="44.15852998566219" lon="10.893983996764296"><ele>625.0</ele><time>2026-05-02T09:23:51.999Z</time></trkpt><trkpt lat="44.15862099416394" lon="10.893915532403678"><ele>628.0</ele><time>2026-05-02T09:23:52.999Z</time></trkpt><trkpt lat="44.1587177520866" lon="10.893843293522789"><ele>628.0</ele><time>2026-05-02T09:23:53.999Z</time></trkpt><trkpt lat="44.158818587522305" lon="10.893767425466521"><ele>628.0</ele><time>2026-05-02T09:23:54.999Z</time></trkpt><trkpt lat="44.15892850263097" lon="10.893701763350245"><ele>628.0</ele><time>2026-05-02T09:23:55.999Z</time></trkpt><trkpt lat="44.15905346587531" lon="10.893661800351229"><ele>628.0</ele><time>2026-05-02T09:23:56.999Z</time></trkpt><trkpt lat="44.15920251259319" lon="10.893685874077097"><ele>625.6666666666667</ele><time>2026-05-02T09:23:57.999Z</time></trkpt><trkpt lat="44.159361056682215" lon="10.893687746456084"><ele>623.3333333333334</ele><time>2026-05-02T09:23:58.999Z</time></trkpt><trkpt lat="44.159522204620934" lon="10.893669832149676"><ele>621.0</ele><time>2026-05-02T09:23:59.999Z</time></trkpt><trkpt lat="44.15968903273928" lon="10.893684668393853"><ele>621.0</ele><time>2026-05-02T09:24:00.999Z</time></trkpt><trkpt lat="44.159861100166374" lon="10.893707520827448"><ele>621.0</ele><time>2026-05-02T09:24:01.999Z</time></trkpt><trkpt lat="44.16002892323275" lon="10.893749661599434"><ele>621.0</ele><time>2026-05-02T09:24:02.999Z</time></trkpt><trkpt lat="44.16018776381619" lon="10.893807057215644"><ele>623.0</ele><time>2026-05-02T09:24:03.999Z</time></trkpt><trkpt lat="44.16033851796583" lon="10.893871494138933"><ele>625.0</ele><time>2026-05-02T09:24:04.999Z</time></trkpt><trkpt lat="44.160484311557084" lon="10.893947668670744"><ele>627.0</ele><time>2026-05-02T09:24:05.999Z</time></trkpt><trkpt lat="44.160625516068464" lon="10.894030580323072"><ele>628.0</ele><time>2026-05-02T09:24:06.999Z</time></trkpt><trkpt lat="44.16076496548053" lon="10.894111459717916"><ele>629.0</ele><time>2026-05-02T09:24:07.999Z</time></trkpt><trkpt lat="44.160905162200045" lon="10.894195046196405"><ele>630.0</ele><time>2026-05-02T09:24:08.999Z</time></trkpt><trkpt lat="44.16104558290454" lon="10.894291451686913"><ele>630.0</ele><time>2026-05-02T09:24:09.999Z</time></trkpt><trkpt lat="44.161183771061395" lon="10.894379791622745"><ele>630.0</ele><time>2026-05-02T09:24:10.999Z</time></trkpt><trkpt lat="44.161317575455655" lon="10.894462421440165"><ele>630.0</ele><time>2026-05-02T09:24:11.999Z</time></trkpt><trkpt lat="44.161452894582496" lon="10.89453031033265"><ele>630.0</ele><time>2026-05-02T09:24:12.999Z</time></trkpt><trkpt lat="44.16159731779508" lon="10.894570917549558"><ele>631.0</ele><time>2026-05-02T09:24:13.999Z</time></trkpt><trkpt lat="44.16174965651211" lon="10.894559644090865"><ele>632.0</ele><time>2026-05-02T09:24:14.999Z</time></trkpt><trkpt lat="44.16189981184872" lon="10.894526030837362"><ele>633.0</ele><time>2026-05-02T09:24:15.999Z</time></trkpt><trkpt lat="44.16204636297554" lon="10.894485364793802"><ele>633.0</ele><time>2026-05-02T09:24:16.999Z</time></trkpt><trkpt lat="44.1621812231734" lon="10.894444374623497"><ele>633.0</ele><time>2026-05-02T09:24:17.999Z</time></trkpt><trkpt lat="44.162307876539586" lon="10.894421942282985"><ele>633.0</ele><time>2026-05-02T09:24:18.999Z</time></trkpt><trkpt lat="44.162420135715486" lon="10.89436807890931"><ele>633.0</ele><time>2026-05-02T09:24:19.999Z</time></trkpt><trkpt lat="44.16253490230288" lon="10.894332545147787"><ele>633.75</ele><time>2026-05-02T09:24:20.999Z</time></trkpt><trkpt lat="44.16265426935263" lon="10.894289297749648"><ele>634.5</ele><time>2026-05-02T09:24:21.999Z</time></trkpt><trkpt lat="44.162789578665475" lon="10.894254330093869"><ele>635.25</ele><time>2026-05-02T09:24:22.999Z</time></trkpt><trkpt lat="44.16293715704492" lon="10.894209733608832"><ele>636.0</ele><time>2026-05-02T09:24:23.999Z</time></trkpt><trkpt lat="44.16309033950052" lon="10.89415735271807"><ele>639.3333333333334</ele><time>2026-05-02T09:24:24.999Z</time></trkpt><trkpt lat="44.16324848759481" lon="10.89410202206235"><ele>642.6666666666667</ele><time>2026-05-02T09:24:25.999Z</time></trkpt><trkpt lat="44.163415917763935" lon="10.894048151008723"><ele>646.0</ele><time>2026-05-02T09:24:26.999Z</time></trkpt><trkpt lat="44.163588362495005" lon="10.893987083699239"><ele>646.0</ele><time>2026-05-02T09:24:27.999Z</time></trkpt><trkpt lat="44.16376560408113" lon="10.893928565740381"><ele>646.0</ele><time>2026-05-02T09:24:28.999Z</time></trkpt><trkpt lat="44.16394733401233" lon="10.893871267040819"><ele>646.0</ele><time>2026-05-02T09:24:29.999Z</time></trkpt><trkpt lat="44.16413149267342" lon="10.89380839730228"><ele>646.0</ele><time>2026-05-02T09:24:30.999Z</time></trkpt><trkpt lat="44.164305175411634" lon="10.893726814470291"><ele>646.0</ele><time>2026-05-02T09:24:31.999Z</time></trkpt><trkpt lat="44.164458032648234" lon="10.893617234471447"><ele>646.0</ele><time>2026-05-02T09:24:32.999Z</time></trkpt><trkpt lat="44.16458844311693" lon="10.893497266213863"><ele>648.5</ele><time>2026-05-02T09:24:33.999Z</time></trkpt><trkpt lat="44.164693918787904" lon="10.89336528296163"><ele>651.0</ele><time>2026-05-02T09:24:34.999Z</time></trkpt><trkpt lat="44.164764055053816" lon="10.893216325424781"><ele>653.5</ele><time>2026-05-02T09:24:35.999Z</time></trkpt><trkpt lat="44.16479252255762" lon="10.893044098435874"><ele>656.0</ele><time>2026-05-02T09:24:36.999Z</time></trkpt><trkpt lat="44.16477101736699" lon="10.892852323885402"><ele>656.0</ele><time>2026-05-02T09:24:37.999Z</time></trkpt><trkpt lat="44.16472636341664" lon="10.892653341783848"><ele>656.0</ele><time>2026-05-02T09:24:39Z</time></trkpt><trkpt lat="44.16467061115284" lon="10.892445770541766"><ele>656.0</ele><time>2026-05-02T09:24:40Z</time></trkpt><trkpt lat="44.16462103279217" lon="10.892227188889548"><ele>658.6666666666666</ele><time>2026-05-02T09:24:41Z</time></trkpt><trkpt lat="44.164575704499754" lon="10.892000727546598"><ele>661.3333333333334</ele><time>2026-05-02T09:24:42Z</time></trkpt><trkpt lat="44.16453936618918" lon="10.891770642481296"><ele>664.0</ele><time>2026-05-02T09:24:43Z</time></trkpt><trkpt lat="44.16452182250626" lon="10.891552319045562"><ele>665.25</ele><time>2026-05-02T09:24:44Z</time></trkpt><trkpt lat="44.164536368224866" lon="10.891353659963007"><ele>666.5</ele><time>2026-05-02T09:24:45Z</time></trkpt><trkpt lat="44.1645729410799" lon="10.891176444554532"><ele>667.75</ele><time>2026-05-02T09:24:46Z</time></trkpt><trkpt lat="44.16458262173936" lon="10.891010586302745"><ele>669.0</ele><time>2026-05-02T09:24:47Z</time></trkpt><trkpt lat="44.164547481634926" lon="10.89084049319104"><ele>670.6666666666666</ele><time>2026-05-02T09:24:48Z</time></trkpt><trkpt lat="44.16448824069765" lon="10.890667266950107"><ele>672.3333333333333</ele><time>2026-05-02T09:24:49Z</time></trkpt><trkpt lat="44.16442270319649" lon="10.890466792072147"><ele>674.0</ele><time>2026-05-02T09:24:50Z</time></trkpt><trkpt lat="44.16432209766202" lon="10.890280861609016"><ele>673.25</ele><time>2026-05-02T09:24:51Z</time></trkpt><trkpt lat="44.16426992537894" lon="10.890089502875371"><ele>672.5</ele><time>2026-05-02T09:24:52Z</time></trkpt><trkpt lat="44.164258486292006" lon="10.889878993893385"><ele>671.75</ele><time>2026-05-02T09:24:53Z</time></trkpt><trkpt lat="44.16424167887358" lon="10.889674752228826"><ele>671.0</ele><time>2026-05-02T09:24:54Z</time></trkpt><trkpt lat="44.16418053041553" lon="10.88950455604738"><ele>671.0</ele><time>2026-05-02T09:24:55Z</time></trkpt><trkpt lat="44.16409244741665" lon="10.889361299108241"><ele>671.0</ele><time>2026-05-02T09:24:56Z</time></trkpt><trkpt lat="44.163982869076754" lon="10.889236500645035"><ele>671.0</ele><time>2026-05-02T09:24:56.999Z</time></trkpt><trkpt lat="44.16390569261877" lon="10.889085664654184"><ele>671.0</ele><time>2026-05-02T09:24:57.999Z</time></trkpt><trkpt lat="44.16386295955585" lon="10.888900178655879"><ele>678.25</ele><time>2026-05-02T09:24:58.999Z</time></trkpt><trkpt lat="44.16387680228439" lon="10.888700736024507"><ele>685.5</ele><time>2026-05-02T09:24:59.999Z</time></trkpt><trkpt lat="44.16388030567422" lon="10.888498448167285"><ele>692.75</ele><time>2026-05-02T09:25:00.999Z</time></trkpt><trkpt lat="44.16393508824105" lon="10.888297176266464"><ele>700.0</ele><time>2026-05-02T09:25:01.999Z</time></trkpt><trkpt lat="44.16402083008894" lon="10.888110812005912"><ele>688.6666666666667</ele><time>2026-05-02T09:25:02.999Z</time></trkpt><trkpt lat="44.16413422951373" lon="10.887954498258596"><ele>677.3333333333334</ele><time>2026-05-02T09:25:03.999Z</time></trkpt><trkpt lat="44.1642767073655" lon="10.887847493965626"><ele>666.0</ele><time>2026-05-02T09:25:04.999Z</time></trkpt><trkpt lat="44.16441885160018" lon="10.887753652877628"><ele>666.0</ele><time>2026-05-02T09:25:05.999Z</time></trkpt><trkpt lat="44.16454133969674" lon="10.887604876869469"><ele>666.0</ele><time>2026-05-02T09:25:06.999Z</time></trkpt><trkpt lat="44.164638681820776" lon="10.887403980236238"><ele>666.0</ele><time>2026-05-02T09:25:07.999Z</time></trkpt><trkpt lat="44.16471804280376" lon="10.887179663774438"><ele>671.0</ele><time>2026-05-02T09:25:08.999Z</time></trkpt><trkpt lat="44.16478649966343" lon="10.886944811931906"><ele>676.0</ele><time>2026-05-02T09:25:09.999Z</time></trkpt><trkpt lat="44.16487207834777" lon="10.886716484863113"><ele>681.0</ele><time>2026-05-02T09:25:10.999Z</time></trkpt><trkpt lat="44.164996332983826" lon="10.886517936166323"><ele>681.0</ele><time>2026-05-02T09:25:11.999Z</time></trkpt><trkpt lat="44.16514007809658" lon="10.886340953594631"><ele>681.0</ele><time>2026-05-02T09:25:12.999Z</time></trkpt><trkpt lat="44.16526026633947" lon="10.886137750347551"><ele>681.0</ele><time>2026-05-02T09:25:13.999Z</time></trkpt><trkpt lat="44.16536980136672" lon="10.885905564369324"><ele>690.3333333333334</ele><time>2026-05-02T09:25:14.999Z</time></trkpt><trkpt lat="44.16547692368278" lon="10.885681817311944"><ele>699.6666666666667</ele><time>2026-05-02T09:25:15.999Z</time></trkpt><trkpt lat="44.165571682892974" lon="10.885475571100635"><ele>709.0</ele><time>2026-05-02T09:25:16.999Z</time></trkpt><trkpt lat="44.16564071817797" lon="10.885294819206559"><ele>709.0</ele><time>2026-05-02T09:25:17.999Z</time></trkpt><trkpt lat="44.16566796207381" lon="10.885103502161723"><ele>709.0</ele><time>2026-05-02T09:25:18.999Z</time></trkpt><trkpt lat="44.16563834799179" lon="10.884927057952016"><ele>709.0</ele><time>2026-05-02T09:25:19.999Z</time></trkpt><trkpt lat="44.16558374183202" lon="10.884753117028565"><ele>709.0</ele><time>2026-05-02T09:25:20.999Z</time></trkpt><trkpt lat="44.16556384027639" lon="10.884579365369042"><ele>712.25</ele><time>2026-05-02T09:25:21.999Z</time></trkpt><trkpt lat="44.16559954766779" lon="10.884429162278522"><ele>715.5</ele><time>2026-05-02T09:25:22.999Z</time></trkpt><trkpt lat="44.165695464229756" lon="10.884326374966328"><ele>718.75</ele><time>2026-05-02T09:25:23.999Z</time></trkpt><trkpt lat="44.16580914490318" lon="10.884211453043465"><ele>722.0</ele><time>2026-05-02T09:25:24.999Z</time></trkpt><trkpt lat="44.165940059233684" lon="10.884074504426138"><ele>710.0</ele><time>2026-05-02T09:25:25.999Z</time></trkpt><trkpt lat="44.16610431277134" lon="10.883968397898252"><ele>698.0</ele><time>2026-05-02T09:25:26.999Z</time></trkpt><trkpt lat="44.16623093178869" lon="10.883832595740353"><ele>686.0</ele><time>2026-05-02T09:25:27.999Z</time></trkpt><trkpt lat="44.166370105725576" lon="10.883752564221624"><ele>682.0</ele><time>2026-05-02T09:25:28.999Z</time></trkpt><trkpt lat="44.16652911114042" lon="10.88372712094844"><ele>678.0</ele><time>2026-05-02T09:25:29.999Z</time></trkpt><trkpt lat="44.166705507551214" lon="10.883736626512457"><ele>674.0</ele><time>2026-05-02T09:25:30.999Z</time></trkpt><trkpt lat="44.1668604764725" lon="10.883702167661404"><ele>674.0</ele><time>2026-05-02T09:25:31.999Z</time></trkpt><trkpt lat="44.167004084348484" lon="10.883623555901098"><ele>674.0</ele><time>2026-05-02T09:25:32.999Z</time></trkpt><trkpt lat="44.16714879766177" lon="10.883493084322765"><ele>674.0</ele><time>2026-05-02T09:25:33.999Z</time></trkpt><trkpt lat="44.16729182427012" lon="10.883349896831437"><ele>677.6666666666666</ele><time>2026-05-02T09:25:34.999Z</time></trkpt><trkpt lat="44.16744195982074" lon="10.883240767383557"><ele>681.3333333333334</ele><time>2026-05-02T09:25:35.999Z</time></trkpt><trkpt lat="44.16759667041689" lon="10.88317858696686"><ele>685.0</ele><time>2026-05-02T09:25:36.999Z</time></trkpt><trkpt lat="44.16776666843475" lon="10.883154729073679"><ele>685.0</ele><time>2026-05-02T09:25:37.999Z</time></trkpt><trkpt lat="44.16794146030268" lon="10.88316377018876"><ele>685.0</ele><time>2026-05-02T09:25:38.999Z</time></trkpt><trkpt lat="44.16810776296857" lon="10.883214351898358"><ele>685.0</ele><time>2026-05-02T09:25:39.999Z</time></trkpt><trkpt lat="44.16826541463702" lon="10.883313432192612"><ele>683.0</ele><time>2026-05-02T09:25:40.999Z</time></trkpt><trkpt lat="44.168418540171395" lon="10.88344305547966"><ele>681.0</ele><time>2026-05-02T09:25:41.999Z</time></trkpt><trkpt lat="44.16855219989381" lon="10.88361622497953"><ele>679.0</ele><time>2026-05-02T09:25:42.999Z</time></trkpt><trkpt lat="44.16864110467546" lon="10.88383840879814"><ele>679.0</ele><time>2026-05-02T09:25:43.999Z</time></trkpt><trkpt lat="44.16872385270053" lon="10.88407079841009"><ele>679.0</ele><time>2026-05-02T09:25:44.999Z</time></trkpt><trkpt lat="44.1688006888753" lon="10.884312710485778"><ele>679.0</ele><time>2026-05-02T09:25:45.999Z</time></trkpt><trkpt lat="44.168883522854706" lon="10.88455386320212"><ele>680.25</ele><time>2026-05-02T09:25:46.999Z</time></trkpt><trkpt lat="44.16894393464642" lon="10.884778481790944"><ele>681.5</ele><time>2026-05-02T09:25:47.999Z</time></trkpt><trkpt lat="44.169006305596525" lon="10.884948441655098"><ele>682.75</ele><time>2026-05-02T09:25:48.999Z</time></trkpt><trkpt lat="44.16908627204106" lon="10.885060993926695"><ele>684.0</ele><time>2026-05-02T09:25:49.999Z</time></trkpt><trkpt lat="44.169179247793664" lon="10.885127152240043"><ele>687.0</ele><time>2026-05-02T09:25:50.999Z</time></trkpt><trkpt lat="44.169284022523215" lon="10.885072608942565"><ele>690.0</ele><time>2026-05-02T09:25:51.999Z</time></trkpt><trkpt lat="44.16937484969073" lon="10.884977219067098"><ele>693.0</ele><time>2026-05-02T09:25:52.999Z</time></trkpt><trkpt lat="44.16947120401142" lon="10.884856309781954"><ele>696.0</ele><time>2026-05-02T09:25:53.999Z</time></trkpt><trkpt lat="44.16961568983181" lon="10.884792648004014"><ele>696.0</ele><time>2026-05-02T09:25:54.999Z</time></trkpt><trkpt lat="44.169765509995436" lon="10.884814368031611"><ele>696.0</ele><time>2026-05-02T09:25:55.999Z</time></trkpt><trkpt lat="44.16991761705498" lon="10.88484056154922"><ele>696.0</ele><time>2026-05-02T09:25:56.999Z</time></trkpt><trkpt lat="44.170069117601635" lon="10.884801219641112"><ele>696.0</ele><time>2026-05-02T09:25:57.999Z</time></trkpt><trkpt lat="44.17019808254459" lon="10.884696069173991"><ele>696.0</ele><time>2026-05-02T09:25:58.999Z</time></trkpt><trkpt lat="44.17030305956871" lon="10.884532898449324"><ele>696.0</ele><time>2026-05-02T09:25:59.999Z</time></trkpt><trkpt lat="44.17040151204388" lon="10.884341611362817"><ele>698.3333333333334</ele><time>2026-05-02T09:26:00.999Z</time></trkpt><trkpt lat="44.170522488195346" lon="10.884168764717181"><ele>700.6666666666667</ele><time>2026-05-02T09:26:01.999Z</time></trkpt><trkpt lat="44.17066174495424" lon="10.884024892090691"><ele>703.0</ele><time>2026-05-02T09:26:02.999Z</time></trkpt><trkpt lat="44.17078823319286" lon="10.883891473855549"><ele>703.0</ele><time>2026-05-02T09:26:03.999Z</time></trkpt><trkpt lat="44.17090526263611" lon="10.883755503265174"><ele>703.0</ele><time>2026-05-02T09:26:04.999Z</time></trkpt><trkpt lat="44.17102035823717" lon="10.883620321092664"><ele>703.0</ele><time>2026-05-02T09:26:05.999Z</time></trkpt><trkpt lat="44.17113771180597" lon="10.883485985866033"><ele>707.0</ele><time>2026-05-02T09:26:06.999Z</time></trkpt><trkpt lat="44.171253786293406" lon="10.883349090337543"><ele>711.0</ele><time>2026-05-02T09:26:07.999Z</time></trkpt><trkpt lat="44.17136994464878" lon="10.883208993588962"><ele>715.0</ele><time>2026-05-02T09:26:08.998Z</time></trkpt><trkpt lat="44.17147831447534" lon="10.883067329341252"><ele>713.0</ele><time>2026-05-02T09:26:09.998Z</time></trkpt><trkpt lat="44.17157025121048" lon="10.882931227599954"><ele>711.0</ele><time>2026-05-02T09:26:10.998Z</time></trkpt><trkpt lat="44.171663193681006" lon="10.882825340753758"><ele>709.0</ele><time>2026-05-02T09:26:11.998Z</time></trkpt><trkpt lat="44.17176546899249" lon="10.882768465816495"><ele>707.0</ele><time>2026-05-02T09:26:12.998Z</time></trkpt><trkpt lat="44.171863215938544" lon="10.882747936713967"><ele>707.0</ele><time>2026-05-02T09:26:13.998Z</time></trkpt><trkpt lat="44.171942529623884" lon="10.88273360786357"><ele>707.0</ele><time>2026-05-02T09:26:14.998Z</time></trkpt><trkpt lat="44.17205675111472" lon="10.882687514977171"><ele>707.0</ele><time>2026-05-02T09:26:16.998Z</time></trkpt><trkpt lat="44.17213435239185" lon="10.882662971693877"><ele>707.0</ele><time>2026-05-02T09:26:17.998Z</time></trkpt><trkpt lat="44.172233565949824" lon="10.88265451782402"><ele>707.0</ele><time>2026-05-02T09:26:18.998Z</time></trkpt><trkpt lat="44.17234456228066" lon="10.882673850336962"><ele>707.75</ele><time>2026-05-02T09:26:19.998Z</time></trkpt><trkpt lat="44.17245884882474" lon="10.882730259188628"><ele>708.5</ele><time>2026-05-02T09:26:20.998Z</time></trkpt><trkpt lat="44.17257663528617" lon="10.882820343335828"><ele>709.25</ele><time>2026-05-02T09:26:21.998Z</time></trkpt><trkpt lat="44.172683021422806" lon="10.882908477162811"><ele>710.0</ele><time>2026-05-02T09:26:22.998Z</time></trkpt><trkpt lat="44.17279343456194" lon="10.882927873319549"><ele>710.0</ele><time>2026-05-02T09:26:23.998Z</time></trkpt><trkpt lat="44.17291461298471" lon="10.882874538761946"><ele>710.0</ele><time>2026-05-02T09:26:24.998Z</time></trkpt><trkpt lat="44.173030226916545" lon="10.882767933420231"><ele>710.0</ele><time>2026-05-02T09:26:25.998Z</time></trkpt><trkpt lat="44.17314940735725" lon="10.882615659425051"><ele>710.0</ele><time>2026-05-02T09:26:26.998Z</time></trkpt><trkpt lat="44.17327460224031" lon="10.882453254075765"><ele>712.25</ele><time>2026-05-02T09:26:27.998Z</time></trkpt><trkpt lat="44.17340041173597" lon="10.882292302971234"><ele>714.5</ele><time>2026-05-02T09:26:28.998Z</time></trkpt><trkpt lat="44.173499763315" lon="10.882148999530239"><ele>716.75</ele><time>2026-05-02T09:26:29.998Z</time></trkpt><trkpt lat="44.173561994903096" lon="10.88200815963217"><ele>719.0</ele><time>2026-05-02T09:26:30.998Z</time></trkpt><trkpt lat="44.17358262268882" lon="10.881843453312076"><ele>723.0</ele><time>2026-05-02T09:26:31.998Z</time></trkpt><trkpt lat="44.173560576545675" lon="10.881647473607188"><ele>727.0</ele><time>2026-05-02T09:26:32.998Z</time></trkpt><trkpt lat="44.17352150668739" lon="10.88143049480537"><ele>731.0</ele><time>2026-05-02T09:26:33.998Z</time></trkpt><trkpt lat="44.173488697422215" lon="10.8811937087698"><ele>730.3333333333333</ele><time>2026-05-02T09:26:34.998Z</time></trkpt><trkpt lat="44.17345345687235" lon="10.880930513029874"><ele>729.6666666666666</ele><time>2026-05-02T09:26:35.998Z</time></trkpt><trkpt lat="44.17340504645985" lon="10.880648305523746"><ele>729.0</ele><time>2026-05-02T09:26:36.998Z</time></trkpt><trkpt lat="44.17336605758934" lon="10.88034837939471"><ele>727.0</ele><time>2026-05-02T09:26:37.998Z</time></trkpt><trkpt lat="44.1733207529195" lon="10.880036600319933"><ele>725.0</ele><time>2026-05-02T09:26:38.998Z</time></trkpt><trkpt lat="44.17327408704982" lon="10.879730194957867"><ele>725.0</ele><time>2026-05-02T09:26:39.998Z</time></trkpt><trkpt lat="44.17323370085475" lon="10.879454865816482"><ele>725.0</ele><time>2026-05-02T09:26:40.998Z</time></trkpt><trkpt lat="44.17326662614512" lon="10.879206882240602"><ele>725.0</ele><time>2026-05-02T09:26:41.998Z</time></trkpt><trkpt lat="44.1732880197593" lon="10.87898872386199"><ele>727.25</ele><time>2026-05-02T09:26:42.998Z</time></trkpt><trkpt lat="44.17335357260025" lon="10.878844621251824"><ele>729.5</ele><time>2026-05-02T09:26:43.998Z</time></trkpt><trkpt lat="44.173446943133115" lon="10.878762968137664"><ele>731.75</ele><time>2026-05-02T09:26:44.999Z</time></trkpt><trkpt lat="44.17357804078114" lon="10.878736385936062"><ele>734.0</ele><time>2026-05-02T09:26:45.999Z</time></trkpt><trkpt lat="44.17369774534301" lon="10.878662114520555"><ele>734.0</ele><time>2026-05-02T09:26:46.999Z</time></trkpt><trkpt lat="44.173803243497304" lon="10.878506567921947"><ele>734.0</ele><time>2026-05-02T09:26:47.999Z</time></trkpt><trkpt lat="44.17388168420906" lon="10.87831392606536"><ele>734.0</ele><time>2026-05-02T09:26:48.999Z</time></trkpt><trkpt lat="44.17393195654025" lon="10.878098047510159"><ele>738.5</ele><time>2026-05-02T09:26:49.999Z</time></trkpt><trkpt lat="44.17394602071215" lon="10.877884246726495"><ele>743.0</ele><time>2026-05-02T09:26:50.999Z</time></trkpt><trkpt lat="44.173922307587546" lon="10.877701859525281"><ele>747.5</ele><time>2026-05-02T09:26:51.999Z</time></trkpt><trkpt lat="44.17386561132575" lon="10.877550611264619"><ele>752.0</ele><time>2026-05-02T09:26:52.999Z</time></trkpt><trkpt lat="44.17375576937238" lon="10.87742564531117"><ele>753.25</ele><time>2026-05-02T09:26:53.999Z</time></trkpt><trkpt lat="44.17364819415635" lon="10.87729951724221"><ele>754.5</ele><time>2026-05-02T09:26:54.999Z</time></trkpt><trkpt lat="44.17361338167048" lon="10.877159200000797"><ele>755.75</ele><time>2026-05-02T09:26:55.999Z</time></trkpt><trkpt lat="44.17363067937517" lon="10.877014721416964"><ele>757.0</ele><time>2026-05-02T09:26:56.999Z</time></trkpt><trkpt lat="44.17368491944557" lon="10.876850865223373"><ele>757.0</ele><time>2026-05-02T09:26:57.999Z</time></trkpt><trkpt lat="44.17369181814239" lon="10.876646805572273"><ele>757.0</ele><time>2026-05-02T09:26:58.999Z</time></trkpt><trkpt lat="44.17365612987472" lon="10.876405861569333"><ele>757.0</ele><time>2026-05-02T09:26:59.999Z</time></trkpt><trkpt lat="44.17367355280829" lon="10.87615894910187"><ele>757.3333333333334</ele><time>2026-05-02T09:27:00.999Z</time></trkpt><trkpt lat="44.173734478033715" lon="10.87592474700535"><ele>757.6666666666666</ele><time>2026-05-02T09:27:01.999Z</time></trkpt><trkpt lat="44.173830268335685" lon="10.875694201649004"><ele>758.0</ele><time>2026-05-02T09:27:02.999Z</time></trkpt><trkpt lat="44.173937508040595" lon="10.875503996099527"><ele>758.0</ele><time>2026-05-02T09:27:03.999Z</time></trkpt><trkpt lat="44.17399094611071" lon="10.875275024259116"><ele>758.0</ele><time>2026-05-02T09:27:04.999Z</time></trkpt><trkpt lat="44.1740143819555" lon="10.875003583353925"><ele>758.0</ele><time>2026-05-02T09:27:05.999Z</time></trkpt><trkpt lat="44.17403741259879" lon="10.874734774171733"><ele>754.6666666666666</ele><time>2026-05-02T09:27:06.999Z</time></trkpt><trkpt lat="44.17402984739132" lon="10.874499558923585"><ele>751.3333333333334</ele><time>2026-05-02T09:27:07.999Z</time></trkpt><trkpt lat="44.17404179107995" lon="10.874295721453468"><ele>748.0</ele><time>2026-05-02T09:27:09Z</time></trkpt><trkpt lat="44.17414751626875" lon="10.874149548187036"><ele>748.0</ele><time>2026-05-02T09:27:10Z</time></trkpt><trkpt lat="44.174272028699406" lon="10.874000046451856"><ele>748.0</ele><time>2026-05-02T09:27:11Z</time></trkpt><trkpt lat="44.17437447850884" lon="10.87385143670976"><ele>748.0</ele><time>2026-05-02T09:27:12Z</time></trkpt><trkpt lat="44.17446411182015" lon="10.873715862349377"><ele>748.0</ele><time>2026-05-02T09:27:12.999Z</time></trkpt><trkpt lat="44.17448273055878" lon="10.873546196023852"><ele>748.25</ele><time>2026-05-02T09:27:13.999Z</time></trkpt><trkpt lat="44.17447325757715" lon="10.873379370089292"><ele>748.5</ele><time>2026-05-02T09:27:14.999Z</time></trkpt><trkpt lat="44.17440433413328" lon="10.873202595737324"><ele>748.75</ele><time>2026-05-02T09:27:15.999Z</time></trkpt><trkpt lat="44.17432475582762" lon="10.873026911455028"><ele>749.0</ele><time>2026-05-02T09:27:16.999Z</time></trkpt><trkpt lat="44.17430625341305" lon="10.872839806952369"><ele>749.0</ele><time>2026-05-02T09:27:17.999Z</time></trkpt><trkpt lat="44.174345100024034" lon="10.872659642744718"><ele>749.0</ele><time>2026-05-02T09:27:18.999Z</time></trkpt><trkpt lat="44.1744216112464" lon="10.87247799522215"><ele>749.0</ele><time>2026-05-02T09:27:19.999Z</time></trkpt><trkpt lat="44.17452787307468" lon="10.872297188715338"><ele>749.6666666666666</ele><time>2026-05-02T09:27:20.999Z</time></trkpt><trkpt lat="44.17464221616854" lon="10.872096849114246"><ele>750.3333333333334</ele><time>2026-05-02T09:27:21.999Z</time></trkpt><trkpt lat="44.17478185025997" lon="10.87193275452376"><ele>751.0</ele><time>2026-05-02T09:27:22.999Z</time></trkpt><trkpt lat="44.174932422694155" lon="10.8717915368951"><ele>748.0</ele><time>2026-05-02T09:27:23.999Z</time></trkpt><trkpt lat="44.17509976997834" lon="10.871685310259517"><ele>745.0</ele><time>2026-05-02T09:27:24.999Z</time></trkpt><trkpt lat="44.175284381049245" lon="10.871623629712216"><ele>742.0</ele><time>2026-05-02T09:27:25.999Z</time></trkpt><trkpt lat="44.175463044263" lon="10.871526588405066"><ele>742.0</ele><time>2026-05-02T09:27:26.999Z</time></trkpt><trkpt lat="44.17564631892131" lon="10.871495278372636"><ele>742.0</ele><time>2026-05-02T09:27:27.999Z</time></trkpt><trkpt lat="44.17582004426854" lon="10.871527867466268"><ele>742.0</ele><time>2026-05-02T09:27:28.999Z</time></trkpt><trkpt lat="44.17599536633753" lon="10.871604184078498"><ele>741.0</ele><time>2026-05-02T09:27:29.999Z</time></trkpt><trkpt lat="44.17617007042833" lon="10.871702632341847"><ele>740.0</ele><time>2026-05-02T09:27:30.999Z</time></trkpt><trkpt lat="44.17634053850628" lon="10.871846815165119"><ele>739.0</ele><time>2026-05-02T09:27:31.999Z</time></trkpt><trkpt lat="44.17651210536079" lon="10.872023815881306"><ele>737.5</ele><time>2026-05-02T09:27:32.999Z</time></trkpt><trkpt lat="44.17669651354477" lon="10.872200696786471"><ele>736.0</ele><time>2026-05-02T09:27:33.999Z</time></trkpt><trkpt lat="44.17690118579206" lon="10.872355615177336"><ele>736.0</ele><time>2026-05-02T09:27:34.999Z</time></trkpt><trkpt lat="44.1770976562281" lon="10.87247399099096"><ele>736.0</ele><time>2026-05-02T09:27:35.999Z</time></trkpt><trkpt lat="44.17727547980501" lon="10.872602002804632"><ele>736.0</ele><time>2026-05-02T09:27:36.999Z</time></trkpt><trkpt lat="44.17744201661521" lon="10.872768028458013"><ele>737.3333333333334</ele><time>2026-05-02T09:27:37.999Z</time></trkpt><trkpt lat="44.17760280208042" lon="10.87295328550821"><ele>738.6666666666666</ele><time>2026-05-02T09:27:38.999Z</time></trkpt><trkpt lat="44.177751039063985" lon="10.873161632478544"><ele>740.0</ele><time>2026-05-02T09:27:39.999Z</time></trkpt><trkpt lat="44.17786152113576" lon="10.873419067391374"><ele>735.0</ele><time>2026-05-02T09:27:40.999Z</time></trkpt><trkpt lat="44.17797839059962" lon="10.873685042872424"><ele>730.0</ele><time>2026-05-02T09:27:41.999Z</time></trkpt><trkpt lat="44.17809925542863" lon="10.873964382707463"><ele>733.6666666666667</ele><time>2026-05-02T09:27:42.999Z</time></trkpt><trkpt lat="44.17822397347312" lon="10.874241657796938"><ele>737.3333333333334</ele><time>2026-05-02T09:27:43.999Z</time></trkpt><trkpt lat="44.178329844253106" lon="10.87449005930773"><ele>741.0</ele><time>2026-05-02T09:27:44.999Z</time></trkpt><trkpt lat="44.17843243102462" lon="10.874700958943057"><ele>741.0</ele><time>2026-05-02T09:27:45.999Z</time></trkpt><trkpt lat="44.17855090826178" lon="10.874872433040943"><ele>741.0</ele><time>2026-05-02T09:27:46.999Z</time></trkpt><trkpt lat="44.178701489316175" lon="10.875003219431294"><ele>741.0</ele><time>2026-05-02T09:27:47.999Z</time></trkpt><trkpt lat="44.17885170352046" lon="10.875143664074809"><ele>736.3333333333334</ele><time>2026-05-02T09:27:48.999Z</time></trkpt><trkpt lat="44.17895532527293" lon="10.875340917704056"><ele>731.6666666666667</ele><time>2026-05-02T09:27:49.999Z</time></trkpt><trkpt lat="44.179019109907685" lon="10.87555973613818"><ele>727.0</ele><time>2026-05-02T09:27:50.999Z</time></trkpt><trkpt lat="44.17905054628822" lon="10.875815465401582"><ele>734.3333333333334</ele><time>2026-05-02T09:27:51.999Z</time></trkpt><trkpt lat="44.17907786490553" lon="10.87606582941427"><ele>741.6666666666666</ele><time>2026-05-02T09:27:52.999Z</time></trkpt><trkpt lat="44.179060995768765" lon="10.876292618055176"><ele>749.0</ele><time>2026-05-02T09:27:53.999Z</time></trkpt><trkpt lat="44.17904493205788" lon="10.87648020882369"><ele>749.0</ele><time>2026-05-02T09:27:54.999Z</time></trkpt><trkpt lat="44.1790569444151" lon="10.876623081435698"><ele>749.0</ele><time>2026-05-02T09:27:55.999Z</time></trkpt><trkpt lat="44.17912377042181" lon="10.876732982204787"><ele>749.0</ele><time>2026-05-02T09:27:56.999Z</time></trkpt><trkpt lat="44.17922621379269" lon="10.876801052031741"><ele>749.0</ele><time>2026-05-02T09:27:57.999Z</time></trkpt><trkpt lat="44.17935868879429" lon="10.876805791702324"><ele>749.0</ele><time>2026-05-02T09:27:58.999Z</time></trkpt><trkpt lat="44.17950843334726" lon="10.87676599767504"><ele>749.0</ele><time>2026-05-02T09:27:59.999Z</time></trkpt><trkpt lat="44.17967824135644" lon="10.876737821354066"><ele>749.0</ele><time>2026-05-02T09:28:00.999Z</time></trkpt><trkpt lat="44.179838370757594" lon="10.876770190409923"><ele>747.25</ele><time>2026-05-02T09:28:01.999Z</time></trkpt><trkpt lat="44.17996969453777" lon="10.87686078350581"><ele>745.5</ele><time>2026-05-02T09:28:02.999Z</time></trkpt><trkpt lat="44.18006742210036" lon="10.876970009776933"><ele>743.75</ele><time>2026-05-02T09:28:03.999Z</time></trkpt><trkpt lat="44.18016842450674" lon="10.877061968546306"><ele>742.0</ele><time>2026-05-02T09:28:04.999Z</time></trkpt><trkpt lat="44.180300427475636" lon="10.877093964618636"><ele>742.0</ele><time>2026-05-02T09:28:05.999Z</time></trkpt><trkpt lat="44.18042926223914" lon="10.877084583530358"><ele>742.0</ele><time>2026-05-02T09:28:06.999Z</time></trkpt><trkpt lat="44.18055633177149" lon="10.877091590219221"><ele>742.0</ele><time>2026-05-02T09:28:07.999Z</time></trkpt><trkpt lat="44.18068088975398" lon="10.877119003835796"><ele>742.0</ele><time>2026-05-02T09:28:08.999Z</time></trkpt><trkpt lat="44.18079769768161" lon="10.877204897011707"><ele>744.75</ele><time>2026-05-02T09:28:09.999Z</time></trkpt><trkpt lat="44.180929989310535" lon="10.877273495880623"><ele>747.5</ele><time>2026-05-02T09:28:10.999Z</time></trkpt><trkpt lat="44.1810695897861" lon="10.877317256969627"><ele>750.25</ele><time>2026-05-02T09:28:11.999Z</time></trkpt><trkpt lat="44.181214610144714" lon="10.87735818557512"><ele>753.0</ele><time>2026-05-02T09:28:12.999Z</time></trkpt><trkpt lat="44.18136191990288" lon="10.877395879338076"><ele>754.3333333333334</ele><time>2026-05-02T09:28:13.999Z</time></trkpt><trkpt lat="44.181517435383036" lon="10.877416986900366"><ele>755.6666666666667</ele><time>2026-05-02T09:28:14.999Z</time></trkpt><trkpt lat="44.18167831047817" lon="10.87741339728879"><ele>757.0</ele><time>2026-05-02T09:28:15.999Z</time></trkpt><trkpt lat="44.18183557263847" lon="10.877413446834082"><ele>757.0</ele><time>2026-05-02T09:28:16.999Z</time></trkpt><trkpt lat="44.181983695998525" lon="10.877411083252163"><ele>757.0</ele><time>2026-05-02T09:28:17.999Z</time></trkpt><trkpt lat="44.18213296757211" lon="10.877386972167736"><ele>757.0</ele><time>2026-05-02T09:28:18.999Z</time></trkpt><trkpt lat="44.182288647284494" lon="10.877305683723002"><ele>757.3333333333334</ele><time>2026-05-02T09:28:19.999Z</time></trkpt><trkpt lat="44.18244531121713" lon="10.877197476756882"><ele>757.6666666666666</ele><time>2026-05-02T09:28:20.999Z</time></trkpt><trkpt lat="44.18259302619131" lon="10.87707917584537"><ele>758.0</ele><time>2026-05-02T09:28:21.999Z</time></trkpt><trkpt lat="44.18273085733836" lon="10.87696029790148"><ele>758.0</ele><time>2026-05-02T09:28:22.999Z</time></trkpt><trkpt lat="44.18285957720036" lon="10.87685362666148"><ele>758.0</ele><time>2026-05-02T09:28:23.999Z</time></trkpt><trkpt lat="44.18297867096501" lon="10.876757016021395"><ele>758.0</ele><time>2026-05-02T09:28:24.999Z</time></trkpt><trkpt lat="44.183101450941734" lon="10.876667188969387"><ele>758.0</ele><time>2026-05-02T09:28:25.999Z</time></trkpt><trkpt lat="44.183233387282044" lon="10.876611522879784"><ele>759.25</ele><time>2026-05-02T09:28:26.999Z</time></trkpt><trkpt lat="44.18337602588294" lon="10.876598787954682"><ele>760.5</ele><time>2026-05-02T09:28:27.999Z</time></trkpt><trkpt lat="44.18351277529745" lon="10.876622509452659"><ele>761.75</ele><time>2026-05-02T09:28:28.999Z</time></trkpt><trkpt lat="44.18364210345891" lon="10.87667508660866"><ele>763.0</ele><time>2026-05-02T09:28:29.999Z</time></trkpt><trkpt lat="44.1837795000248" lon="10.876748291257302"><ele>761.0</ele><time>2026-05-02T09:28:30.999Z</time></trkpt><trkpt lat="44.183924649955486" lon="10.876834881883841"><ele>759.0</ele><time>2026-05-02T09:28:31.999Z</time></trkpt><trkpt lat="44.184078398360626" lon="10.876929430280642"><ele>757.0</ele><time>2026-05-02T09:28:32.999Z</time></trkpt><trkpt lat="44.18422997257572" lon="10.877023975588585"><ele>757.0</ele><time>2026-05-02T09:28:33.999Z</time></trkpt><trkpt lat="44.18437072214021" lon="10.877104324668718"><ele>757.0</ele><time>2026-05-02T09:28:34.999Z</time></trkpt><trkpt lat="44.184494346227844" lon="10.877168060864182"><ele>757.0</ele><time>2026-05-02T09:28:35.999Z</time></trkpt><trkpt lat="44.18460104471462" lon="10.877213210921512"><ele>757.0</ele><time>2026-05-02T09:28:36.999Z</time></trkpt><trkpt lat="44.18470851669991" lon="10.877227624590073"><ele>757.0</ele><time>2026-05-02T09:28:37.999Z</time></trkpt><trkpt lat="44.1848169691315" lon="10.877180859884202"><ele>757.0</ele><time>2026-05-02T09:28:38.999Z</time></trkpt><trkpt lat="44.18492761148385" lon="10.877073756321463"><ele>757.0</ele><time>2026-05-02T09:28:39.999Z</time></trkpt><trkpt lat="44.18504137098773" lon="10.876928919211897"><ele>757.0</ele><time>2026-05-02T09:28:40.999Z</time></trkpt><trkpt lat="44.18515415007731" lon="10.876758590967386"><ele>759.6666666666667</ele><time>2026-05-02T09:28:41.999Z</time></trkpt><trkpt lat="44.18526023899676" lon="10.876578783261166"><ele>762.3333333333334</ele><time>2026-05-02T09:28:42.999Z</time></trkpt><trkpt lat="44.18533966084545" lon="10.876398325039544"><ele>765.0</ele><time>2026-05-02T09:28:43.999Z</time></trkpt><trkpt lat="44.18538031445656" lon="10.876207324909219"><ele>765.0</ele><time>2026-05-02T09:28:44.999Z</time></trkpt><trkpt lat="44.18538112968421" lon="10.875996544411477"><ele>765.0</ele><time>2026-05-02T09:28:45.999Z</time></trkpt><trkpt lat="44.1853397406305" lon="10.875758926753427"><ele>765.0</ele><time>2026-05-02T09:28:46.999Z</time></trkpt><trkpt lat="44.18528754506145" lon="10.875503942717035"><ele>765.3333333333334</ele><time>2026-05-02T09:28:47.999Z</time></trkpt><trkpt lat="44.18526300818388" lon="10.875236399654062"><ele>765.6666666666667</ele><time>2026-05-02T09:28:48.999Z</time></trkpt><trkpt lat="44.185230130400534" lon="10.875011287799158"><ele>766.0</ele><time>2026-05-02T09:28:49.999Z</time></trkpt><trkpt lat="44.18519044555422" lon="10.874822647901674"><ele>764.25</ele><time>2026-05-02T09:28:51Z</time></trkpt><trkpt lat="44.18521118027025" lon="10.874649598512832"><ele>762.5</ele><time>2026-05-02T09:28:52Z</time></trkpt><trkpt lat="44.18526458687238" lon="10.874506663147665"><ele>760.75</ele><time>2026-05-02T09:28:53Z</time></trkpt><trkpt lat="44.18536639814227" lon="10.87440677530479"><ele>759.0</ele><time>2026-05-02T09:28:54Z</time></trkpt><trkpt lat="44.1854967576744" lon="10.874334495386519"><ele>759.0</ele><time>2026-05-02T09:28:55Z</time></trkpt><trkpt lat="44.1856179010765" lon="10.874245894421481"><ele>759.0</ele><time>2026-05-02T09:28:56Z</time></trkpt><trkpt lat="44.18571461471712" lon="10.874090043576851"><ele>759.0</ele><time>2026-05-02T09:28:57Z</time></trkpt><trkpt lat="44.185767290487576" lon="10.873908663989557"><ele>759.0</ele><time>2026-05-02T09:28:58Z</time></trkpt><trkpt lat="44.18581172627933" lon="10.873743311711898"><ele>757.0</ele><time>2026-05-02T09:28:59Z</time></trkpt><trkpt lat="44.18583584151479" lon="10.873616551114953"><ele>755.0</ele><time>2026-05-02T09:29:00Z</time></trkpt><trkpt lat="44.18588480171426" lon="10.873524796271695"><ele>753.0</ele><time>2026-05-02T09:29:01Z</time></trkpt><trkpt lat="44.18596408081962" lon="10.873495659496946"><ele>751.0</ele><time>2026-05-02T09:29:02Z</time></trkpt><trkpt lat="44.186039725677645" lon="10.873537642058816"><ele>749.0</ele><time>2026-05-02T09:29:03Z</time></trkpt><trkpt lat="44.18608390037952" lon="10.873629703312554"><ele>747.0</ele><time>2026-05-02T09:29:04Z</time></trkpt><trkpt lat="44.186076577276495" lon="10.8737371530416"><ele>747.0</ele><time>2026-05-02T09:29:05Z</time></trkpt><trkpt lat="44.18600255263226" lon="10.873799386525805"><ele>747.0</ele><time>2026-05-02T09:29:06Z</time></trkpt><trkpt lat="44.18594013581862" lon="10.873910871958765"><ele>747.0</ele><time>2026-05-02T09:29:07Z</time></trkpt><trkpt lat="44.18585063353387" lon="10.874026621019507"><ele>747.0</ele><time>2026-05-02T09:29:08Z</time></trkpt><trkpt lat="44.185770516008226" lon="10.87418397358722"><ele>747.0</ele><time>2026-05-02T09:29:09Z</time></trkpt><trkpt lat="44.185714080761" lon="10.874365204637197"><ele>746.0</ele><time>2026-05-02T09:29:10Z</time></trkpt><trkpt lat="44.18568995283817" lon="10.874551579649047"><ele>745.0</ele><time>2026-05-02T09:29:11Z</time></trkpt><trkpt lat="44.18572246845612" lon="10.874731468434717"><ele>744.0</ele><time>2026-05-02T09:29:12Z</time></trkpt><trkpt lat="44.18579875389467" lon="10.874899596137746"><ele>743.0</ele><time>2026-05-02T09:29:13Z</time></trkpt><trkpt lat="44.185913681904914" lon="10.875063557130257"><ele>744.0</ele><time>2026-05-02T09:29:14Z</time></trkpt><trkpt lat="44.185952243931894" lon="10.87525722091944"><ele>745.0</ele><time>2026-05-02T09:29:15Z</time></trkpt><trkpt lat="44.18594538523143" lon="10.87548448900293"><ele>746.0</ele><time>2026-05-02T09:29:16Z</time></trkpt><trkpt lat="44.18594262822441" lon="10.875746838424087"><ele>745.6666666666666</ele><time>2026-05-02T09:29:17Z</time></trkpt><trkpt lat="44.185939049894074" lon="10.87601125755928"><ele>745.3333333333334</ele><time>2026-05-02T09:29:18Z</time></trkpt><trkpt lat="44.185988384003736" lon="10.876283129907945"><ele>745.0</ele><time>2026-05-02T09:29:19Z</time></trkpt><trkpt lat="44.186074707516966" lon="10.876541710482314"><ele>746.6666666666667</ele><time>2026-05-02T09:29:20Z</time></trkpt><trkpt lat="44.18619455682231" lon="10.876796689060177"><ele>748.3333333333334</ele><time>2026-05-02T09:29:21Z</time></trkpt><trkpt lat="44.18633505150729" lon="10.877024719011862"><ele>750.0</ele><time>2026-05-02T09:29:22Z</time></trkpt><trkpt lat="44.18646922420422" lon="10.87723028763183"><ele>748.0</ele><time>2026-05-02T09:29:23Z</time></trkpt><trkpt lat="44.18658694813585" lon="10.877413702577453"><ele>746.0</ele><time>2026-05-02T09:29:24Z</time></trkpt><trkpt lat="44.18671141389488" lon="10.877562683260397"><ele>744.0</ele><time>2026-05-02T09:29:25Z</time></trkpt><trkpt lat="44.1868598790961" lon="10.87764468985645"><ele>744.0</ele><time>2026-05-02T09:29:26Z</time></trkpt><trkpt lat="44.18700984851288" lon="10.877681696070841"><ele>744.0</ele><time>2026-05-02T09:29:27Z</time></trkpt><trkpt lat="44.18715628429761" lon="10.877653796526698"><ele>744.0</ele><time>2026-05-02T09:29:28Z</time></trkpt><trkpt lat="44.18729189953919" lon="10.877563800644682"><ele>741.3333333333334</ele><time>2026-05-02T09:29:29Z</time></trkpt><trkpt lat="44.187413913534115" lon="10.877430696521387"><ele>738.6666666666667</ele><time>2026-05-02T09:29:30Z</time></trkpt><trkpt lat="44.187517602459074" lon="10.877247491143331"><ele>736.0</ele><time>2026-05-02T09:29:31Z</time></trkpt><trkpt lat="44.187652675159626" lon="10.877086048135176"><ele>736.0</ele><time>2026-05-02T09:29:32Z</time></trkpt><trkpt lat="44.18781453774423" lon="10.876955544854118"><ele>736.0</ele><time>2026-05-02T09:29:33Z</time></trkpt><trkpt lat="44.18797375770767" lon="10.87685155871289"><ele>736.0</ele><time>2026-05-02T09:29:34Z</time></trkpt><trkpt lat="44.18813131774269" lon="10.876792094335318"><ele>736.3333333333334</ele><time>2026-05-02T09:29:35Z</time></trkpt><trkpt lat="44.18829722935674" lon="10.876819891736748"><ele>736.6666666666666</ele><time>2026-05-02T09:29:36Z</time></trkpt><trkpt lat="44.18847668268116" lon="10.876894046691083"><ele>737.0</ele><time>2026-05-02T09:29:37Z</time></trkpt><trkpt lat="44.18867339541999" lon="10.876920619733395"><ele>737.0</ele><time>2026-05-02T09:29:37.999Z</time></trkpt><trkpt lat="44.18887804042658" lon="10.876874956845008"><ele>737.0</ele><time>2026-05-02T09:29:38.999Z</time></trkpt><trkpt lat="44.189075882373544" lon="10.87680655736048"><ele>737.0</ele><time>2026-05-02T09:29:39.999Z</time></trkpt><trkpt lat="44.189254575585494" lon="10.876696311956122"><ele>731.3333333333333</ele><time>2026-05-02T09:29:40.999Z</time></trkpt><trkpt lat="44.18940991326319" lon="10.876562468933743"><ele>725.6666666666666</ele><time>2026-05-02T09:29:41.999Z</time></trkpt><trkpt lat="44.18955816551205" lon="10.876453726816981"><ele>720.0</ele><time>2026-05-02T09:29:42.999Z</time></trkpt><trkpt lat="44.18971176855904" lon="10.876417588278532"><ele>721.0</ele><time>2026-05-02T09:29:43.999Z</time></trkpt><trkpt lat="44.18984739450437" lon="10.876452139222238"><ele>722.0</ele><time>2026-05-02T09:29:44.999Z</time></trkpt><trkpt lat="44.18992901169713" lon="10.876566524433509"><ele>723.0</ele><time>2026-05-02T09:29:45.999Z</time></trkpt><trkpt lat="44.18995431132642" lon="10.87671661366254"><ele>724.0</ele><time>2026-05-02T09:29:46.999Z</time></trkpt><trkpt lat="44.190012160977176" lon="10.87687912942388"><ele>724.0</ele><time>2026-05-02T09:29:47.999Z</time></trkpt><trkpt lat="44.19009124357002" lon="10.877044107752717"><ele>724.0</ele><time>2026-05-02T09:29:48.999Z</time></trkpt><trkpt lat="44.190199939743046" lon="10.877165819449612"><ele>724.0</ele><time>2026-05-02T09:29:49.999Z</time></trkpt><trkpt lat="44.19033507712889" lon="10.877230951685757"><ele>724.0</ele><time>2026-05-02T09:29:50.999Z</time></trkpt><trkpt lat="44.19049477848938" lon="10.877241521049324"><ele>724.0</ele><time>2026-05-02T09:29:51.999Z</time></trkpt><trkpt lat="44.19066086673915" lon="10.877255615074716"><ele>724.0</ele><time>2026-05-02T09:29:52.999Z</time></trkpt><trkpt lat="44.19082818814294" lon="10.8773130999788"><ele>724.0</ele><time>2026-05-02T09:29:53.999Z</time></trkpt><trkpt lat="44.190984237241295" lon="10.877439449610199"><ele>725.6666666666667</ele><time>2026-05-02T09:29:54.999Z</time></trkpt><trkpt lat="44.19112674053109" lon="10.877576873783722"><ele>727.3333333333334</ele><time>2026-05-02T09:29:55.999Z</time></trkpt><trkpt lat="44.1912673889613" lon="10.877643827602695"><ele>729.0</ele><time>2026-05-02T09:29:56.999Z</time></trkpt><trkpt lat="44.19140804742117" lon="10.87763638158911"><ele>723.75</ele><time>2026-05-02T09:29:57.999Z</time></trkpt><trkpt lat="44.19153417380071" lon="10.877560098287619"><ele>718.5</ele><time>2026-05-02T09:29:58.999Z</time></trkpt><trkpt lat="44.19166272965954" lon="10.877466207853008"><ele>713.25</ele><time>2026-05-02T09:29:59.999Z</time></trkpt><trkpt lat="44.191799738635986" lon="10.877435580822237"><ele>708.0</ele><time>2026-05-02T09:30:00.999Z</time></trkpt><trkpt lat="44.19194778176221" lon="10.877493405030673"><ele>710.3333333333334</ele><time>2026-05-02T09:30:01.999Z</time></trkpt><trkpt lat="44.19208777197769" lon="10.877632338360492"><ele>712.6666666666667</ele><time>2026-05-02T09:30:02.999Z</time></trkpt><trkpt lat="44.19221746208174" lon="10.87774866445736"><ele>715.0</ele><time>2026-05-02T09:30:03.999Z</time></trkpt><trkpt lat="44.19233371872279" lon="10.87785154714611"><ele>715.25</ele><time>2026-05-02T09:30:04.999Z</time></trkpt><trkpt lat="44.19245861860991" lon="10.877880400220965"><ele>715.5</ele><time>2026-05-02T09:30:05.999Z</time></trkpt><trkpt lat="44.19259210262982" lon="10.877836994686136"><ele>715.75</ele><time>2026-05-02T09:30:06.999Z</time></trkpt><trkpt lat="44.1927306634305" lon="10.87775664856474"><ele>716.0</ele><time>2026-05-02T09:30:07.999Z</time></trkpt><trkpt lat="44.19286867937118" lon="10.877652943559243"><ele>711.75</ele><time>2026-05-02T09:30:08.999Z</time></trkpt><trkpt lat="44.19297807051019" lon="10.877514677269254"><ele>707.5</ele><time>2026-05-02T09:30:09.999Z</time></trkpt><trkpt lat="44.19304480356478" lon="10.87734636534175"><ele>703.25</ele><time>2026-05-02T09:30:10.999Z</time></trkpt><trkpt lat="44.19308168757487" lon="10.877127198999105"><ele>699.0</ele><time>2026-05-02T09:30:11.999Z</time></trkpt><trkpt lat="44.19311236057829" lon="10.876897055310545"><ele>699.0</ele><time>2026-05-02T09:30:12.999Z</time></trkpt><trkpt lat="44.19318017201567" lon="10.876660404483916"><ele>699.0</ele><time>2026-05-02T09:30:13.999Z</time></trkpt><trkpt lat="44.19329305733978" lon="10.876432815094043"><ele>699.0</ele><time>2026-05-02T09:30:14.999Z</time></trkpt><trkpt lat="44.19342056635024" lon="10.876195734325867"><ele>699.0</ele><time>2026-05-02T09:30:15.999Z</time></trkpt><trkpt lat="44.19354707558915" lon="10.875943740965218"><ele>699.0</ele><time>2026-05-02T09:30:16.999Z</time></trkpt><trkpt lat="44.1936618620057" lon="10.875674553550157"><ele>699.0</ele><time>2026-05-02T09:30:17.999Z</time></trkpt><trkpt lat="44.1937604765777" lon="10.875394501346442"><ele>696.6666666666666</ele><time>2026-05-02T09:30:18.999Z</time></trkpt><trkpt lat="44.1938564781917" lon="10.875125711445644"><ele>694.3333333333333</ele><time>2026-05-02T09:30:19.999Z</time></trkpt><trkpt lat="44.193959713713035" lon="10.874914209125768"><ele>692.0</ele><time>2026-05-02T09:30:20.999Z</time></trkpt><trkpt lat="44.19405445596791" lon="10.874742913705171"><ele>692.0</ele><time>2026-05-02T09:30:21.999Z</time></trkpt><trkpt lat="44.19415224779194" lon="10.874600288780151"><ele>692.0</ele><time>2026-05-02T09:30:22.999Z</time></trkpt><trkpt lat="44.19427208816596" lon="10.874507337189627"><ele>692.0</ele><time>2026-05-02T09:30:23.999Z</time></trkpt><trkpt lat="44.194414885827186" lon="10.874515212444702"><ele>692.0</ele><time>2026-05-02T09:30:24.999Z</time></trkpt><trkpt lat="44.194576626058115" lon="10.874534925157397"><ele>692.0</ele><time>2026-05-02T09:30:25.999Z</time></trkpt><trkpt lat="44.19474435622044" lon="10.87459155020009"><ele>692.0</ele><time>2026-05-02T09:30:26.999Z</time></trkpt><trkpt lat="44.19488606882661" lon="10.874595350137549"><ele>692.0</ele><time>2026-05-02T09:30:27.999Z</time></trkpt><trkpt lat="44.19500016523537" lon="10.87454572966771"><ele>692.0</ele><time>2026-05-02T09:30:28.999Z</time></trkpt><trkpt lat="44.195076454919466" lon="10.874445682346806"><ele>691.5</ele><time>2026-05-02T09:30:29.999Z</time></trkpt><trkpt lat="44.19513723583957" lon="10.874323258108515"><ele>691.0</ele><time>2026-05-02T09:30:30.999Z</time></trkpt><trkpt lat="44.195139780364855" lon="10.874129328712"><ele>690.5</ele><time>2026-05-02T09:30:31.999Z</time></trkpt><trkpt lat="44.195054593449875" lon="10.87397429702578"><ele>690.0</ele><time>2026-05-02T09:30:32.999Z</time></trkpt><trkpt lat="44.19497569721094" lon="10.873809616818122"><ele>687.75</ele><time>2026-05-02T09:30:33.999Z</time></trkpt><trkpt lat="44.194917667207875" lon="10.873660588546255"><ele>685.5</ele><time>2026-05-02T09:30:34.999Z</time></trkpt><trkpt lat="44.19488998127615" lon="10.87349483168471"><ele>683.25</ele><time>2026-05-02T09:30:35.999Z</time></trkpt><trkpt lat="44.19492584773835" lon="10.873299506009786"><ele>681.0</ele><time>2026-05-02T09:30:36.999Z</time></trkpt><trkpt lat="44.19500230969351" lon="10.87311117279299"><ele>679.6666666666666</ele><time>2026-05-02T09:30:37.999Z</time></trkpt><trkpt lat="44.19512639815727" lon="10.872964319558099"><ele>678.3333333333333</ele><time>2026-05-02T09:30:38.999Z</time></trkpt><trkpt lat="44.19523736230317" lon="10.872837695807675"><ele>677.0</ele><time>2026-05-02T09:30:39.999Z</time></trkpt><trkpt lat="44.19532216625155" lon="10.872664441819236"><ele>674.3333333333333</ele><time>2026-05-02T09:30:40.999Z</time></trkpt><trkpt lat="44.19535296993115" lon="10.872448002578894"><ele>671.6666666666666</ele><time>2026-05-02T09:30:41.999Z</time></trkpt><trkpt lat="44.19535496998882" lon="10.872206831369445"><ele>669.0</ele><time>2026-05-02T09:30:42.999Z</time></trkpt><trkpt lat="44.19535743079118" lon="10.871950036677152"><ele>666.3333333333334</ele><time>2026-05-02T09:30:43.999Z</time></trkpt><trkpt lat="44.1953999909205" lon="10.87172289230475"><ele>663.6666666666667</ele><time>2026-05-02T09:30:44.999Z</time></trkpt><trkpt lat="44.19546691642696" lon="10.871518812075628"><ele>661.0</ele><time>2026-05-02T09:30:45.999Z</time></trkpt><trkpt lat="44.19555905626126" lon="10.871343093607026"><ele>664.25</ele><time>2026-05-02T09:30:46.999Z</time></trkpt><trkpt lat="44.19567774695875" lon="10.871215689335438"><ele>667.5</ele><time>2026-05-02T09:30:47.999Z</time></trkpt><trkpt lat="44.19578485746462" lon="10.871101122161473"><ele>670.75</ele><time>2026-05-02T09:30:48.999Z</time></trkpt><trkpt lat="44.195860692151285" lon="10.870971109109098"><ele>674.0</ele><time>2026-05-02T09:30:49.999Z</time></trkpt><trkpt lat="44.195898162104115" lon="10.87082630982109"><ele>674.0</ele><time>2026-05-02T09:30:50.999Z</time></trkpt><trkpt lat="44.19589192819873" lon="10.870673432682487"><ele>674.0</ele><time>2026-05-02T09:30:51.999Z</time></trkpt><trkpt lat="44.19586816744622" lon="10.870498752377491"><ele>674.0</ele><time>2026-05-02T09:30:52.999Z</time></trkpt><trkpt lat="44.19579340448145" lon="10.870306362908277"><ele>674.0</ele><time>2026-05-02T09:30:53.999Z</time></trkpt><trkpt lat="44.19569478106737" lon="10.870108092441622"><ele>664.6666666666666</ele><time>2026-05-02T09:30:54.999Z</time></trkpt><trkpt lat="44.195622580058675" lon="10.869874270920816"><ele>655.3333333333334</ele><time>2026-05-02T09:30:55.999Z</time></trkpt><trkpt lat="44.195583954548525" lon="10.869613542722595"><ele>646.0</ele><time>2026-05-02T09:30:57Z</time></trkpt><trkpt lat="44.19556486073171" lon="10.869355890453704"><ele>645.3333333333334</ele><time>2026-05-02T09:30:58Z</time></trkpt><trkpt lat="44.19551825936221" lon="10.869112522479437"><ele>644.6666666666666</ele><time>2026-05-02T09:30:59Z</time></trkpt><trkpt lat="44.195437622366974" lon="10.868900818412062"><ele>644.0</ele><time>2026-05-02T09:31:00Z</time></trkpt><trkpt lat="44.19534879343028" lon="10.868699989841405"><ele>644.0</ele><time>2026-05-02T09:31:01Z</time></trkpt><trkpt lat="44.19527588845439" lon="10.868535970304347"><ele>644.0</ele><time>2026-05-02T09:31:02Z</time></trkpt><trkpt lat="44.195223783151185" lon="10.868411169391175"><ele>644.0</ele><time>2026-05-02T09:31:03Z</time></trkpt><trkpt lat="44.19521606147275" lon="10.868284679793332"><ele>644.0</ele><time>2026-05-02T09:31:04Z</time></trkpt><trkpt lat="44.195256152348044" lon="10.868188436476228"><ele>644.0</ele><time>2026-05-02T09:31:05Z</time></trkpt><trkpt lat="44.1953268859489" lon="10.868144700026011"><ele>644.0</ele><time>2026-05-02T09:31:06Z</time></trkpt><trkpt lat="44.195416117603045" lon="10.868175654867235"><ele>644.0</ele><time>2026-05-02T09:31:07Z</time></trkpt><trkpt lat="44.19548646881059" lon="10.868308898677542"><ele>644.0</ele><time>2026-05-02T09:31:08Z</time></trkpt><trkpt lat="44.19559223167439" lon="10.868390266087692"><ele>644.0</ele><time>2026-05-02T09:31:09Z</time></trkpt><trkpt lat="44.195724544529476" lon="10.86843702735347"><ele>647.3333333333333</ele><time>2026-05-02T09:31:10Z</time></trkpt><trkpt lat="44.19587665672503" lon="10.868423035172956"><ele>650.6666666666666</ele><time>2026-05-02T09:31:11Z</time></trkpt><trkpt lat="44.19604341808313" lon="10.868417374236804"><ele>654.0</ele><time>2026-05-02T09:31:12Z</time></trkpt><trkpt lat="44.19623108322125" lon="10.868465136476427"><ele>659.0</ele><time>2026-05-02T09:31:13Z</time></trkpt><trkpt lat="44.19641796662405" lon="10.868532699580602"><ele>664.0</ele><time>2026-05-02T09:31:14Z</time></trkpt><trkpt lat="44.19659803928512" lon="10.868597637715881"><ele>669.0</ele><time>2026-05-02T09:31:15Z</time></trkpt><trkpt lat="44.196763372752166" lon="10.868676639176854"><ele>669.0</ele><time>2026-05-02T09:31:16Z</time></trkpt><trkpt lat="44.196907127682444" lon="10.86879749384526"><ele>669.0</ele><time>2026-05-02T09:31:17Z</time></trkpt><trkpt lat="44.19702228950471" lon="10.868957865683392"><ele>669.0</ele><time>2026-05-02T09:31:18Z</time></trkpt><trkpt lat="44.19715600944394" lon="10.869092696618475"><ele>669.0</ele><time>2026-05-02T09:31:19Z</time></trkpt><trkpt lat="44.19725918588348" lon="10.869267575790976"><ele>669.0</ele><time>2026-05-02T09:31:20Z</time></trkpt><trkpt lat="44.19733223489678" lon="10.869454636076766"><ele>669.0</ele><time>2026-05-02T09:31:21Z</time></trkpt><trkpt lat="44.1973835913744" lon="10.86961762494487"><ele>669.0</ele><time>2026-05-02T09:31:22Z</time></trkpt><trkpt lat="44.19743056790719" lon="10.869744761935877"><ele>667.6</ele><time>2026-05-02T09:31:23Z</time></trkpt><trkpt lat="44.19749787499172" lon="10.869818801626698"><ele>666.2</ele><time>2026-05-02T09:31:24Z</time></trkpt><trkpt lat="44.197582424250335" lon="10.86982124913584"><ele>664.8000000000001</ele><time>2026-05-02T09:31:25Z</time></trkpt><trkpt lat="44.197654256412896" lon="10.869766430865578"><ele>663.4000000000001</ele><time>2026-05-02T09:31:26Z</time></trkpt><trkpt lat="44.19768988949046" lon="10.869642471075116"><ele>662.0</ele><time>2026-05-02T09:31:27Z</time></trkpt><trkpt lat="44.19768825311581" lon="10.869478219237271"><ele>662.0</ele><time>2026-05-02T09:31:28Z</time></trkpt><trkpt lat="44.19768525676466" lon="10.869282790412937"><ele>662.0</ele><time>2026-05-02T09:31:29Z</time></trkpt><trkpt lat="44.197739765176216" lon="10.869055573173263"><ele>662.0</ele><time>2026-05-02T09:31:30Z</time></trkpt><trkpt lat="44.197832833689596" lon="10.868805231207034"><ele>654.5</ele><time>2026-05-02T09:31:31Z</time></trkpt><trkpt lat="44.197930193913244" lon="10.868505639251001"><ele>647.0</ele><time>2026-05-02T09:31:32Z</time></trkpt><trkpt lat="44.197978237693576" lon="10.868178120661796"><ele>643.0</ele><time>2026-05-02T09:31:33Z</time></trkpt><trkpt lat="44.19803570094588" lon="10.867891104165755"><ele>639.0</ele><time>2026-05-02T09:31:34Z</time></trkpt><trkpt lat="44.19810890686662" lon="10.867625885267275"><ele>635.0</ele><time>2026-05-02T09:31:35Z</time></trkpt><trkpt lat="44.19818817230719" lon="10.867401815024447"><ele>635.0</ele><time>2026-05-02T09:31:36Z</time></trkpt><trkpt lat="44.198283874233915" lon="10.867217154642754"><ele>635.0</ele><time>2026-05-02T09:31:37Z</time></trkpt><trkpt lat="44.198407037422236" lon="10.867071591125624"><ele>635.0</ele><time>2026-05-02T09:31:38Z</time></trkpt><trkpt lat="44.19853936598521" lon="10.866966951819172"><ele>635.0</ele><time>2026-05-02T09:31:39Z</time></trkpt><trkpt lat="44.19867833894103" lon="10.86689626781946"><ele>635.0</ele><time>2026-05-02T09:31:40Z</time></trkpt><trkpt lat="44.198817351756325" lon="10.866845373355721"><ele>635.0</ele><time>2026-05-02T09:31:41Z</time></trkpt><trkpt lat="44.19895537026574" lon="10.86683339477965"><ele>635.0</ele><time>2026-05-02T09:31:42Z</time></trkpt><trkpt lat="44.1990900427631" lon="10.866857238387945"><ele>634.75</ele><time>2026-05-02T09:31:43Z</time></trkpt><trkpt lat="44.1992223271847" lon="10.866898872469946"><ele>634.5</ele><time>2026-05-02T09:31:44Z</time></trkpt><trkpt lat="44.19934528889684" lon="10.866983443651172"><ele>634.25</ele><time>2026-05-02T09:31:45Z</time></trkpt><trkpt lat="44.19945355686806" lon="10.867110659906663"><ele>634.0</ele><time>2026-05-02T09:31:46Z</time></trkpt><trkpt lat="44.19955082195808" lon="10.867254618948966"><ele>634.0</ele><time>2026-05-02T09:31:47Z</time></trkpt><trkpt lat="44.19966000111123" lon="10.867393389274534"><ele>634.0</ele><time>2026-05-02T09:31:48Z</time></trkpt><trkpt lat="44.19977846780439" lon="10.867520748850696"><ele>634.0</ele><time>2026-05-02T09:31:49Z</time></trkpt><trkpt lat="44.199908204837925" lon="10.867608131420946"><ele>634.0</ele><time>2026-05-02T09:31:50Z</time></trkpt><trkpt lat="44.20004440196697" lon="10.867638334633416"><ele>632.3333333333334</ele><time>2026-05-02T09:31:51Z</time></trkpt><trkpt lat="44.20018689108234" lon="10.86761363484669"><ele>630.6666666666666</ele><time>2026-05-02T09:31:52Z</time></trkpt><trkpt lat="44.20033471289152" lon="10.867541937294794"><ele>629.0</ele><time>2026-05-02T09:31:53Z</time></trkpt><trkpt lat="44.200466029238136" lon="10.867431619459934"><ele>626.6666666666666</ele><time>2026-05-02T09:31:53.999Z</time></trkpt><trkpt lat="44.20057485735028" lon="10.867273635141899"><ele>624.3333333333334</ele><time>2026-05-02T09:31:54.999Z</time></trkpt><trkpt lat="44.200661161503035" lon="10.867073238407805"><ele>622.0</ele><time>2026-05-02T09:31:55.999Z</time></trkpt><trkpt lat="44.20075710342154" lon="10.86690198069755"><ele>622.0</ele><time>2026-05-02T09:31:56.999Z</time></trkpt><trkpt lat="44.20089251222814" lon="10.866806291368542"><ele>622.0</ele><time>2026-05-02T09:31:57.999Z</time></trkpt><trkpt lat="44.20105190328752" lon="10.866733345660629"><ele>622.0</ele><time>2026-05-02T09:31:58.999Z</time></trkpt><trkpt lat="44.20123281745881" lon="10.866660008874689"><ele>620.0</ele><time>2026-05-02T09:31:59.999Z</time></trkpt><trkpt lat="44.20140762728849" lon="10.866590962008294"><ele>618.0</ele><time>2026-05-02T09:32:00.999Z</time></trkpt><trkpt lat="44.2015666686672" lon="10.86656457739397"><ele>616.0</ele><time>2026-05-02T09:32:01.999Z</time></trkpt><trkpt lat="44.201728494160314" lon="10.866611637590971"><ele>615.6666666666667</ele><time>2026-05-02T09:32:02.999Z</time></trkpt><trkpt lat="44.20189130384636" lon="10.86669957725932"><ele>615.3333333333334</ele><time>2026-05-02T09:32:03.999Z</time></trkpt><trkpt lat="44.20204193358715" lon="10.866747155838786"><ele>615.0</ele><time>2026-05-02T09:32:04.999Z</time></trkpt><trkpt lat="44.202185545595874" lon="10.866708058746788"><ele>614.6666666666666</ele><time>2026-05-02T09:32:05.999Z</time></trkpt><trkpt lat="44.20233611265302" lon="10.866596786400313"><ele>614.3333333333333</ele><time>2026-05-02T09:32:06.999Z</time></trkpt><trkpt lat="44.202493532931165" lon="10.866458444664765"><ele>614.0</ele><time>2026-05-02T09:32:07.999Z</time></trkpt><trkpt lat="44.20264891207218" lon="10.866299964369814"><ele>614.0</ele><time>2026-05-02T09:32:08.999Z</time></trkpt><trkpt lat="44.20278715365877" lon="10.866108822343158"><ele>614.0</ele><time>2026-05-02T09:32:09.999Z</time></trkpt><trkpt lat="44.20290528622936" lon="10.865876430634664"><ele>614.0</ele><time>2026-05-02T09:32:10.999Z</time></trkpt><trkpt lat="44.20300117018214" lon="10.865635810854148"><ele>612.25</ele><time>2026-05-02T09:32:11.999Z</time></trkpt><trkpt lat="44.20308112980247" lon="10.86541918832487"><ele>610.5</ele><time>2026-05-02T09:32:12.999Z</time></trkpt><trkpt lat="44.20315717274522" lon="10.865250904802265"><ele>608.75</ele><time>2026-05-02T09:32:13.999Z</time></trkpt><trkpt lat="44.20322959564048" lon="10.865149049861753"><ele>607.0</ele><time>2026-05-02T09:32:14.999Z</time></trkpt><trkpt lat="44.20331358330145" lon="10.865080585808236"><ele>607.0</ele><time>2026-05-02T09:32:15.999Z</time></trkpt><trkpt lat="44.20340866131968" lon="10.865090730845093"><ele>607.0</ele><time>2026-05-02T09:32:16.999Z</time></trkpt><trkpt lat="44.20350450736521" lon="10.865166468183887"><ele>607.0</ele><time>2026-05-02T09:32:17.999Z</time></trkpt><trkpt lat="44.20358963797159" lon="10.865313333587798"><ele>607.0</ele><time>2026-05-02T09:32:18.999Z</time></trkpt><trkpt lat="44.20373808482114" lon="10.865413018891457"><ele>607.0</ele><time>2026-05-02T09:32:19.999Z</time></trkpt><trkpt lat="44.20390763453354" lon="10.865522825768252"><ele>607.0</ele><time>2026-05-02T09:32:20.999Z</time></trkpt><trkpt lat="44.20408630320627" lon="10.865616746944438"><ele>607.0</ele><time>2026-05-02T09:32:21.999Z</time></trkpt><trkpt lat="44.20425574362772" lon="10.86570054458851"><ele>605.25</ele><time>2026-05-02T09:32:22.999Z</time></trkpt><trkpt lat="44.20439879677472" lon="10.865769009797065"><ele>603.5</ele><time>2026-05-02T09:32:23.999Z</time></trkpt><trkpt lat="44.204516986058046" lon="10.865803733650914"><ele>601.75</ele><time>2026-05-02T09:32:24.999Z</time></trkpt><trkpt lat="44.20462212336974" lon="10.865782237110473"><ele>600.0</ele><time>2026-05-02T09:32:25.999Z</time></trkpt><trkpt lat="44.20470334777044" lon="10.865699925726311"><ele>600.0</ele><time>2026-05-02T09:32:26.999Z</time></trkpt><trkpt lat="44.20475148951741" lon="10.86557908044047"><ele>600.0</ele><time>2026-05-02T09:32:27.999Z</time></trkpt><trkpt lat="44.204771316318194" lon="10.865407573514693"><ele>600.0</ele><time>2026-05-02T09:32:28.999Z</time></trkpt><trkpt lat="44.20477900716024" lon="10.865192840613979"><ele>600.0</ele><time>2026-05-02T09:32:29.999Z</time></trkpt><trkpt lat="44.204791155717864" lon="10.864958056281504"><ele>599.6666666666666</ele><time>2026-05-02T09:32:30.999Z</time></trkpt><trkpt lat="44.20481174920606" lon="10.864713073833487"><ele>599.3333333333333</ele><time>2026-05-02T09:32:31.999Z</time></trkpt><trkpt lat="44.20484053191472" lon="10.864483349427514"><ele>599.0</ele><time>2026-05-02T09:32:32.999Z</time></trkpt><trkpt lat="44.20489107490799" lon="10.864272908675087"><ele>596.0</ele><time>2026-05-02T09:32:33.999Z</time></trkpt><trkpt lat="44.20496534985645" lon="10.864063020965396"><ele>593.0</ele><time>2026-05-02T09:32:34.999Z</time></trkpt><trkpt lat="44.20505403560899" lon="10.863853646422683"><ele>590.0</ele><time>2026-05-02T09:32:35.999Z</time></trkpt><trkpt lat="44.20515975029098" lon="10.863665606563668"><ele>590.0</ele><time>2026-05-02T09:32:36.999Z</time></trkpt><trkpt lat="44.20527006013984" lon="10.863535474152062"><ele>590.0</ele><time>2026-05-02T09:32:37.999Z</time></trkpt><trkpt lat="44.20538147294911" lon="10.863461271750683"><ele>590.0</ele><time>2026-05-02T09:32:38.999Z</time></trkpt><trkpt lat="44.20550685498368" lon="10.863448673521525"><ele>590.0</ele><time>2026-05-02T09:32:39.999Z</time></trkpt><trkpt lat="44.20563645058118" lon="10.863492489882741"><ele>590.25</ele><time>2026-05-02T09:32:40.999Z</time></trkpt><trkpt lat="44.20576898576071" lon="10.86358936371016"><ele>590.5</ele><time>2026-05-02T09:32:41.999Z</time></trkpt><trkpt lat="44.205889162751696" lon="10.863731894149291"><ele>590.75</ele><time>2026-05-02T09:32:42.999Z</time></trkpt><trkpt lat="44.2059682736" lon="10.863886926674425"><ele>591.0</ele><time>2026-05-02T09:32:43.999Z</time></trkpt><trkpt lat="44.20605704784539" lon="10.863996088447228"><ele>591.0</ele><time>2026-05-02T09:32:44.999Z</time></trkpt><trkpt lat="44.206167566704906" lon="10.86403663729265"><ele>591.0</ele><time>2026-05-02T09:32:45.999Z</time></trkpt><trkpt lat="44.20629921809729" lon="10.864006690053547"><ele>591.0</ele><time>2026-05-02T09:32:46.999Z</time></trkpt><trkpt lat="44.20643133369022" lon="10.86391206230044"><ele>591.0</ele><time>2026-05-02T09:32:47.999Z</time></trkpt><trkpt lat="44.20656435819797" lon="10.863784606086112"><ele>592.0</ele><time>2026-05-02T09:32:48.999Z</time></trkpt><trkpt lat="44.20669301880578" lon="10.863635868352075"><ele>593.0</ele><time>2026-05-02T09:32:49.999Z</time></trkpt><trkpt lat="44.206804634696354" lon="10.863442688401804"><ele>594.0</ele><time>2026-05-02T09:32:50.999Z</time></trkpt><trkpt lat="44.20689494323469" lon="10.863214796332196"><ele>589.6666666666666</ele><time>2026-05-02T09:32:51.999Z</time></trkpt><trkpt lat="44.20697423316725" lon="10.862965840383243"><ele>585.3333333333333</ele><time>2026-05-02T09:32:52.999Z</time></trkpt><trkpt lat="44.20703754124476" lon="10.862716907045561"><ele>581.0</ele><time>2026-05-02T09:32:53.999Z</time></trkpt><trkpt lat="44.20708222280936" lon="10.862484569144764"><ele>581.5</ele><time>2026-05-02T09:32:54.999Z</time></trkpt><trkpt lat="44.207127956600296" lon="10.862299199508906"><ele>582.0</ele><time>2026-05-02T09:32:55.999Z</time></trkpt><trkpt lat="44.207200338155616" lon="10.862162898850215"><ele>582.5</ele><time>2026-05-02T09:32:56.999Z</time></trkpt><trkpt lat="44.2073227202273" lon="10.862091853283012"><ele>583.0</ele><time>2026-05-02T09:32:57.999Z</time></trkpt><trkpt lat="44.20746320901083" lon="10.862005864643542"><ele>583.0</ele><time>2026-05-02T09:32:58.999Z</time></trkpt><trkpt lat="44.207583769342676" lon="10.861875650304432"><ele>583.0</ele><time>2026-05-02T09:32:59.999Z</time></trkpt><trkpt lat="44.20766881866534" lon="10.861678195614308"><ele>583.0</ele><time>2026-05-02T09:33:00.999Z</time></trkpt><trkpt lat="44.20774980466353" lon="10.861473878469239"><ele>580.0</ele><time>2026-05-02T09:33:02Z</time></trkpt><trkpt lat="44.207847503227725" lon="10.86130520909102"><ele>577.0</ele><time>2026-05-02T09:33:03Z</time></trkpt><trkpt lat="44.207952100247" lon="10.861157571617298"><ele>574.0</ele><time>2026-05-02T09:33:04Z</time></trkpt><trkpt lat="44.208051347768425" lon="10.861013798225015"><ele>571.0</ele><time>2026-05-02T09:33:05Z</time></trkpt><trkpt lat="44.208137995233685" lon="10.860862201872028"><ele>571.25</ele><time>2026-05-02T09:33:06Z</time></trkpt><trkpt lat="44.208200932454716" lon="10.860692010571604"><ele>571.5</ele><time>2026-05-02T09:33:07Z</time></trkpt><trkpt lat="44.20822840889974" lon="10.860503958894599"><ele>571.75</ele><time>2026-05-02T09:33:08Z</time></trkpt><trkpt lat="44.20821482034079" lon="10.860321161109159"><ele>572.0</ele><time>2026-05-02T09:33:09Z</time></trkpt><trkpt lat="44.20822269541577" lon="10.860173818827295"><ele>572.0</ele><time>2026-05-02T09:33:10Z</time></trkpt><trkpt lat="44.20827054112977" lon="10.86006947152825"><ele>572.0</ele><time>2026-05-02T09:33:11Z</time></trkpt><trkpt lat="44.20833792268524" lon="10.860028066158717"><ele>572.0</ele><time>2026-05-02T09:33:12Z</time></trkpt><trkpt lat="44.20842800242435" lon="10.860051937632056"><ele>572.0</ele><time>2026-05-02T09:33:13Z</time></trkpt><trkpt lat="44.208541561235066" lon="10.860133551198556"><ele>572.0</ele><time>2026-05-02T09:33:14Z</time></trkpt><trkpt lat="44.20867896547355" lon="10.860249920311547"><ele>572.0</ele><time>2026-05-02T09:33:15Z</time></trkpt><trkpt lat="44.208845437468845" lon="10.860402369475157"><ele>572.0</ele><time>2026-05-02T09:33:16Z</time></trkpt><trkpt lat="44.20899956275637" lon="10.86056286113896"><ele>572.0</ele><time>2026-05-02T09:33:17Z</time></trkpt><trkpt lat="44.20918210099064" lon="10.860723939176113"><ele>570.3333333333333</ele><time>2026-05-02T09:33:18Z</time></trkpt><trkpt lat="44.20936380768666" lon="10.860850427314775"><ele>568.6666666666666</ele><time>2026-05-02T09:33:19Z</time></trkpt><trkpt lat="44.209538505693004" lon="10.860965343152937"><ele>567.0</ele><time>2026-05-02T09:33:20Z</time></trkpt><trkpt lat="44.20968894417554" lon="10.861106397419059"><ele>567.5</ele><time>2026-05-02T09:33:21Z</time></trkpt><trkpt lat="44.20982106436022" lon="10.861266665176448"><ele>568.0</ele><time>2026-05-02T09:33:22Z</time></trkpt><trkpt lat="44.20992213895174" lon="10.861401913917486"><ele>568.5</ele><time>2026-05-02T09:33:23Z</time></trkpt><trkpt lat="44.2100140420174" lon="10.861491299754313"><ele>569.0</ele><time>2026-05-02T09:33:24Z</time></trkpt><trkpt lat="44.21010905780134" lon="10.861522957719338"><ele>569.0</ele><time>2026-05-02T09:33:25Z</time></trkpt><trkpt lat="44.210205949987646" lon="10.86146841730445"><ele>569.0</ele><time>2026-05-02T09:33:26Z</time></trkpt><trkpt lat="44.210293537369836" lon="10.861349191143427"><ele>569.0</ele><time>2026-05-02T09:33:27Z</time></trkpt><trkpt lat="44.2103564757067" lon="10.861172068555012"><ele>569.0</ele><time>2026-05-02T09:33:28Z</time></trkpt><trkpt lat="44.2104605716192" lon="10.861037955970286"><ele>564.3333333333333</ele><time>2026-05-02T09:33:29Z</time></trkpt><trkpt lat="44.210597206270705" lon="10.860933128944477"><ele>559.6666666666666</ele><time>2026-05-02T09:33:30Z</time></trkpt><trkpt lat="44.210773387750244" lon="10.860865207760988"><ele>555.0</ele><time>2026-05-02T09:33:31Z</time></trkpt><trkpt lat="44.21096993875307" lon="10.860797391203418"><ele>555.0</ele><time>2026-05-02T09:33:32Z</time></trkpt><trkpt lat="44.2111672430889" lon="10.860696411324456"><ele>555.0</ele><time>2026-05-02T09:33:33Z</time></trkpt><trkpt lat="44.21136930175418" lon="10.860586527055101"><ele>555.0</ele><time>2026-05-02T09:33:34Z</time></trkpt><trkpt lat="44.21157795721058" lon="10.860476251387542"><ele>557.3333333333334</ele><time>2026-05-02T09:33:35Z</time></trkpt><trkpt lat="44.21178233533506" lon="10.860361759286322"><ele>559.6666666666667</ele><time>2026-05-02T09:33:36Z</time></trkpt><trkpt lat="44.21198195944546" lon="10.860227103335959"><ele>562.0</ele><time>2026-05-02T09:33:37Z</time></trkpt><trkpt lat="44.21217287932646" lon="10.86007654307701"><ele>559.0</ele><time>2026-05-02T09:33:38Z</time></trkpt><trkpt lat="44.212344628518224" lon="10.859895114797105"><ele>556.0</ele><time>2026-05-02T09:33:39Z</time></trkpt><trkpt lat="44.21250170441583" lon="10.859711947153942"><ele>553.0</ele><time>2026-05-02T09:33:40Z</time></trkpt><trkpt lat="44.21262200863312" lon="10.859501587213256"><ele>548.75</ele><time>2026-05-02T09:33:41Z</time></trkpt><trkpt lat="44.21271683261149" lon="10.859283952091541"><ele>544.5</ele><time>2026-05-02T09:33:42Z</time></trkpt><trkpt lat="44.21280009580569" lon="10.859113467690454"><ele>540.25</ele><time>2026-05-02T09:33:43Z</time></trkpt><trkpt lat="44.21288730207108" lon="10.8590071135279"><ele>536.0</ele><time>2026-05-02T09:33:44Z</time></trkpt><trkpt lat="44.212992198165445" lon="10.858955429638069"><ele>536.0</ele><time>2026-05-02T09:33:45Z</time></trkpt><trkpt lat="44.2131212100677" lon="10.85898728657239"><ele>536.0</ele><time>2026-05-02T09:33:46Z</time></trkpt><trkpt lat="44.213264188705146" lon="10.859087119072914"><ele>536.0</ele><time>2026-05-02T09:33:47Z</time></trkpt><trkpt lat="44.21341903331775" lon="10.859208529394481"><ele>539.75</ele><time>2026-05-02T09:33:48Z</time></trkpt><trkpt lat="44.213539322623014" lon="10.859317516767673"><ele>543.5</ele><time>2026-05-02T09:33:49Z</time></trkpt><trkpt lat="44.21361403462416" lon="10.85944868529246"><ele>547.25</ele><time>2026-05-02T09:33:50Z</time></trkpt><trkpt lat="44.213623047889676" lon="10.859646702152554"><ele>551.0</ele><time>2026-05-02T09:33:51Z</time></trkpt><trkpt lat="44.21367531443807" lon="10.859878786123195"><ele>551.6666666666666</ele><time>2026-05-02T09:33:52Z</time></trkpt><trkpt lat="44.21373553566927" lon="10.860141859660244"><ele>552.3333333333334</ele><time>2026-05-02T09:33:53Z</time></trkpt><trkpt lat="44.213827564046476" lon="10.860444298948586"><ele>553.0</ele><time>2026-05-02T09:33:54Z</time></trkpt><trkpt lat="44.213921058110046" lon="10.860750261500955"><ele>548.3333333333334</ele><time>2026-05-02T09:33:55Z</time></trkpt><trkpt lat="44.21398886259927" lon="10.861024354960175"><ele>543.6666666666666</ele><time>2026-05-02T09:33:56Z</time></trkpt><trkpt lat="44.214044498816854" lon="10.86125146075633"><ele>539.0</ele><time>2026-05-02T09:33:57Z</time></trkpt><trkpt lat="44.21409920738427" lon="10.86143059220313"><ele>539.0</ele><time>2026-05-02T09:33:58Z</time></trkpt><trkpt lat="44.214177427579074" lon="10.861554196078153"><ele>539.0</ele><time>2026-05-02T09:33:58.999Z</time></trkpt><trkpt lat="44.214296228227646" lon="10.861631332690232"><ele>539.0</ele><time>2026-05-02T09:33:59.999Z</time></trkpt><trkpt lat="44.21445570771716" lon="10.86165554473809"><ele>539.0</ele><time>2026-05-02T09:34:00.999Z</time></trkpt><trkpt lat="44.21459614866592" lon="10.86164768249599"><ele>539.0</ele><time>2026-05-02T09:34:01.999Z</time></trkpt><trkpt lat="44.21470646746964" lon="10.861609769794583"><ele>539.0</ele><time>2026-05-02T09:34:02.999Z</time></trkpt><trkpt lat="44.214795493600256" lon="10.861489820922047"><ele>539.0</ele><time>2026-05-02T09:34:03.999Z</time></trkpt><trkpt lat="44.214864018703686" lon="10.861311983228275"><ele>539.0</ele><time>2026-05-02T09:34:04.999Z</time></trkpt><trkpt lat="44.21491484009979" lon="10.861088578133929"><ele>535.3333333333333</ele><time>2026-05-02T09:34:05.999Z</time></trkpt><trkpt lat="44.214939617305596" lon="10.86081535480589"><ele>531.6666666666666</ele><time>2026-05-02T09:34:06.999Z</time></trkpt><trkpt lat="44.21494839716039" lon="10.86050717170894"><ele>528.0</ele><time>2026-05-02T09:34:07.999Z</time></trkpt><trkpt lat="44.21496340709662" lon="10.86025281064066"><ele>526.5</ele><time>2026-05-02T09:34:08.999Z</time></trkpt><trkpt lat="44.21496657440987" lon="10.860048362724182"><ele>525.0</ele><time>2026-05-02T09:34:09.999Z</time></trkpt><trkpt lat="44.214915575159125" lon="10.859880576442714"><ele>523.5</ele><time>2026-05-02T09:34:10.999Z</time></trkpt><trkpt lat="44.21482824730545" lon="10.85973842311338"><ele>522.0</ele><time>2026-05-02T09:34:11.999Z</time></trkpt><trkpt lat="44.214769904615736" lon="10.859584393401866"><ele>521.5</ele><time>2026-05-02T09:34:12.999Z</time></trkpt><trkpt lat="44.21477388942726" lon="10.859415429506484"><ele>521.0</ele><time>2026-05-02T09:34:13.999Z</time></trkpt><trkpt lat="44.21482970882705" lon="10.859225827111818"><ele>520.5</ele><time>2026-05-02T09:34:14.999Z</time></trkpt><trkpt lat="44.21492279812326" lon="10.859022826318522"><ele>520.0</ele><time>2026-05-02T09:34:15.999Z</time></trkpt><trkpt lat="44.21505656667455" lon="10.858837038361989"><ele>520.0</ele><time>2026-05-02T09:34:16.999Z</time></trkpt><trkpt lat="44.21519275457658" lon="10.858705134563984"><ele>520.0</ele><time>2026-05-02T09:34:17.999Z</time></trkpt><trkpt lat="44.215321096823516" lon="10.858576481696357"><ele>520.0</ele><time>2026-05-02T09:34:18.999Z</time></trkpt><trkpt lat="44.21543209767902" lon="10.858435490073814"><ele>518.6666666666667</ele><time>2026-05-02T09:34:19.999Z</time></trkpt><trkpt lat="44.21553868309604" lon="10.858275108427078"><ele>517.3333333333334</ele><time>2026-05-02T09:34:20.999Z</time></trkpt><trkpt lat="44.21558066120751" lon="10.858057369376928"><ele>516.0</ele><time>2026-05-02T09:34:21.999Z</time></trkpt><trkpt lat="44.215667916914086" lon="10.857899978002132"><ele>516.0</ele><time>2026-05-02T09:34:22.999Z</time></trkpt><trkpt lat="44.21579250717534" lon="10.857767136180545"><ele>516.0</ele><time>2026-05-02T09:34:23.999Z</time></trkpt><trkpt lat="44.21594296740994" lon="10.857655374906996"><ele>516.0</ele><time>2026-05-02T09:34:24.999Z</time></trkpt><trkpt lat="44.21610280209713" lon="10.857582073888649"><ele>513.3333333333334</ele><time>2026-05-02T09:34:25.999Z</time></trkpt><trkpt lat="44.21626424580908" lon="10.857557913844913"><ele>510.6666666666667</ele><time>2026-05-02T09:34:26.999Z</time></trkpt><trkpt lat="44.21643709766234" lon="10.857570050002023"><ele>508.0</ele><time>2026-05-02T09:34:27.999Z</time></trkpt><trkpt lat="44.216619999580054" lon="10.857552096110318"><ele>508.0</ele><time>2026-05-02T09:34:28.999Z</time></trkpt><trkpt lat="44.21678773662021" lon="10.857479812199138"><ele>508.0</ele><time>2026-05-02T09:34:29.999Z</time></trkpt><trkpt lat="44.216940417163734" lon="10.85738762558621"><ele>508.0</ele><time>2026-05-02T09:34:30.999Z</time></trkpt><trkpt lat="44.2170474213244" lon="10.857214170063267"><ele>508.0</ele><time>2026-05-02T09:34:31.999Z</time></trkpt><trkpt lat="44.21714046823108" lon="10.857033075686934"><ele>508.0</ele><time>2026-05-02T09:34:32.999Z</time></trkpt><trkpt lat="44.21724542269118" lon="10.85687575634642"><ele>508.0</ele><time>2026-05-02T09:34:33.999Z</time></trkpt><trkpt lat="44.21738424042921" lon="10.856768794607056"><ele>505.33333333333337</ele><time>2026-05-02T09:34:34.999Z</time></trkpt><trkpt lat="44.21753591602235" lon="10.856716203160428"><ele>502.66666666666663</ele><time>2026-05-02T09:34:35.999Z</time></trkpt><trkpt lat="44.21770405096664" lon="10.856715989814145"><ele>500.0</ele><time>2026-05-02T09:34:36.999Z</time></trkpt><trkpt lat="44.21787758072858" lon="10.856777639067356"><ele>500.0</ele><time>2026-05-02T09:34:37.999Z</time></trkpt><trkpt lat="44.218059285971066" lon="10.856894790694312"><ele>500.0</ele><time>2026-05-02T09:34:38.999Z</time></trkpt><trkpt lat="44.21826785650857" lon="10.857044275748324"><ele>500.0</ele><time>2026-05-02T09:34:39.999Z</time></trkpt><trkpt lat="44.21849060724792" lon="10.85716713149999"><ele>500.0</ele><time>2026-05-02T09:34:40.999Z</time></trkpt><trkpt lat="44.218689136799945" lon="10.857296629160334"><ele>500.0</ele><time>2026-05-02T09:34:41.999Z</time></trkpt><trkpt lat="44.21885653836761" lon="10.857435472609174"><ele>500.0</ele><time>2026-05-02T09:34:42.999Z</time></trkpt><trkpt lat="44.21897833334941" lon="10.857564791131288"><ele>499.6</ele><time>2026-05-02T09:34:43.999Z</time></trkpt><trkpt lat="44.21907903116487" lon="10.857638826648545"><ele>499.2</ele><time>2026-05-02T09:34:44.999Z</time></trkpt><trkpt lat="44.219174415400516" lon="10.857636229253401"><ele>498.79999999999995</ele><time>2026-05-02T09:34:45.999Z</time></trkpt><trkpt lat="44.219262702803626" lon="10.857574926098495"><ele>498.4</ele><time>2026-05-02T09:34:46.999Z</time></trkpt><trkpt lat="44.21931447977197" lon="10.85744758982865"><ele>498.0</ele><time>2026-05-02T09:34:47.999Z</time></trkpt><trkpt lat="44.2193374787107" lon="10.857276476029172"><ele>496.0</ele><time>2026-05-02T09:34:48.999Z</time></trkpt><trkpt lat="44.219271968858266" lon="10.857105383499714"><ele>494.0</ele><time>2026-05-02T09:34:49.999Z</time></trkpt><trkpt lat="44.21917458654527" lon="10.85693948869589"><ele>492.0</ele><time>2026-05-02T09:34:50.999Z</time></trkpt><trkpt lat="44.21905042636899" lon="10.85676621584597"><ele>492.33333333333337</ele><time>2026-05-02T09:34:51.999Z</time></trkpt><trkpt lat="44.218925121399785" lon="10.856551440661034"><ele>492.6666666666667</ele><time>2026-05-02T09:34:52.999Z</time></trkpt><trkpt lat="44.21880113620599" lon="10.856312328133516"><ele>493.0</ele><time>2026-05-02T09:34:53.999Z</time></trkpt><trkpt lat="44.21868013101943" lon="10.856068262225932"><ele>490.33333333333337</ele><time>2026-05-02T09:34:54.999Z</time></trkpt><trkpt lat="44.21856550347941" lon="10.855817965654614"><ele>487.66666666666663</ele><time>2026-05-02T09:34:55.999Z</time></trkpt><trkpt lat="44.21847219080329" lon="10.855565711945031"><ele>485.0</ele><time>2026-05-02T09:34:56.999Z</time></trkpt><trkpt lat="44.21839909635057" lon="10.855320759094008"><ele>483.75</ele><time>2026-05-02T09:34:57.999Z</time></trkpt><trkpt lat="44.21833637416992" lon="10.855113989829917"><ele>482.5</ele><time>2026-05-02T09:34:58.999Z</time></trkpt><trkpt lat="44.21826638732807" lon="10.854946870314988"><ele>481.25</ele><time>2026-05-02T09:34:59.999Z</time></trkpt><trkpt lat="44.218179690011674" lon="10.854818821143295"><ele>480.0</ele><time>2026-05-02T09:35:00.999Z</time></trkpt><trkpt lat="44.21807580109253" lon="10.854733218863672"><ele>480.0</ele><time>2026-05-02T09:35:01.999Z</time></trkpt><trkpt lat="44.21795291683286" lon="10.854719335727554"><ele>480.0</ele><time>2026-05-02T09:35:02.999Z</time></trkpt><trkpt lat="44.21782180322893" lon="10.85476897393294"><ele>480.0</ele><time>2026-05-02T09:35:03.999Z</time></trkpt><trkpt lat="44.21771905801077" lon="10.854816015151847"><ele>480.0</ele><time>2026-05-02T09:35:04.999Z</time></trkpt><trkpt lat="44.217642528458796" lon="10.854788049673981"><ele>480.0</ele><time>2026-05-02T09:35:05.999Z</time></trkpt><trkpt lat="44.217595354699746" lon="10.85470453707722"><ele>480.0</ele><time>2026-05-02T09:35:06.999Z</time></trkpt><trkpt lat="44.21760915587416" lon="10.854592405234184"><ele>480.0</ele><time>2026-05-02T09:35:08Z</time></trkpt><trkpt lat="44.217670523163484" lon="10.854527450096509"><ele>480.0</ele><time>2026-05-02T09:35:09Z</time></trkpt><trkpt lat="44.21777384213418" lon="10.854559837376657"><ele>480.0</ele><time>2026-05-02T09:35:10Z</time></trkpt><trkpt lat="44.21790168015139" lon="10.854567641140038"><ele>480.0</ele><time>2026-05-02T09:35:11Z</time></trkpt><trkpt lat="44.21805244218945" lon="10.854593041502934"><ele>479.0</ele><time>2026-05-02T09:35:12Z</time></trkpt><trkpt lat="44.21823494777933" lon="10.854601100312157"><ele>478.0</ele><time>2026-05-02T09:35:13Z</time></trkpt><trkpt lat="44.21844346388628" lon="10.854642498887175"><ele>477.0</ele><time>2026-05-02T09:35:14Z</time></trkpt><trkpt lat="44.21864495690867" lon="10.854648325383778"><ele>477.0</ele><time>2026-05-02T09:35:15Z</time></trkpt><trkpt lat="44.21882270707518" lon="10.854731208965903"><ele>477.0</ele><time>2026-05-02T09:35:16Z</time></trkpt><trkpt lat="44.21899517818271" lon="10.854848717803527"><ele>477.0</ele><time>2026-05-02T09:35:17Z</time></trkpt><trkpt lat="44.21916061712263" lon="10.854995342784692"><ele>476.0</ele><time>2026-05-02T09:35:18Z</time></trkpt><trkpt lat="44.21930256400074" lon="10.85515502691622"><ele>475.0</ele><time>2026-05-02T09:35:19Z</time></trkpt><trkpt lat="44.219403096218535" lon="10.855338256658486"><ele>474.0</ele><time>2026-05-02T09:35:20Z</time></trkpt><trkpt lat="44.21954757652314" lon="10.855448444078613"><ele>474.0</ele><time>2026-05-02T09:35:21Z</time></trkpt><trkpt lat="44.21973970798411" lon="10.855494077292697"><ele>474.0</ele><time>2026-05-02T09:35:22Z</time></trkpt><trkpt lat="44.21993713081018" lon="10.855587799416222"><ele>474.0</ele><time>2026-05-02T09:35:23Z</time></trkpt><trkpt lat="44.22012984140916" lon="10.855721681729158"><ele>471.0</ele><time>2026-05-02T09:35:24Z</time></trkpt><trkpt lat="44.22030086173111" lon="10.85582671963644"><ele>468.0</ele><time>2026-05-02T09:35:25Z</time></trkpt><trkpt lat="44.220465300445284" lon="10.855880514482406"><ele>465.0</ele><time>2026-05-02T09:35:26Z</time></trkpt><trkpt lat="44.22061332535483" lon="10.85588600969188"><ele>463.8</ele><time>2026-05-02T09:35:27Z</time></trkpt><trkpt lat="44.2207291537254" lon="10.855868896517032"><ele>462.6</ele><time>2026-05-02T09:35:28Z</time></trkpt><trkpt lat="44.22080771908669" lon="10.855815320254054"><ele>461.4</ele><time>2026-05-02T09:35:29Z</time></trkpt><trkpt lat="44.22084534845471" lon="10.85570362149194"><ele>460.2</ele><time>2026-05-02T09:35:30Z</time></trkpt><trkpt lat="44.220838223944256" lon="10.855570449388827"><ele>459.0</ele><time>2026-05-02T09:35:31Z</time></trkpt><trkpt lat="44.22078209577818" lon="10.855446693312343"><ele>459.0</ele><time>2026-05-02T09:35:32Z</time></trkpt><trkpt lat="44.22067471208499" lon="10.855380558765773"><ele>459.0</ele><time>2026-05-02T09:35:33Z</time></trkpt><trkpt lat="44.22054237336618" lon="10.855331687718131"><ele>459.0</ele><time>2026-05-02T09:35:34Z</time></trkpt><trkpt lat="44.22042192118584" lon="10.855235926201203"><ele>459.0</ele><time>2026-05-02T09:35:35Z</time></trkpt><trkpt lat="44.22032640455415" lon="10.85507521811175"><ele>459.0</ele><time>2026-05-02T09:35:36Z</time></trkpt><trkpt lat="44.22027498667492" lon="10.854884646005022"><ele>459.0</ele><time>2026-05-02T09:35:37Z</time></trkpt><trkpt lat="44.22024781968547" lon="10.854687155972506"><ele>459.0</ele><time>2026-05-02T09:35:38Z</time></trkpt><trkpt lat="44.22019492911375" lon="10.854515087488211"><ele>459.0</ele><time>2026-05-02T09:35:39Z</time></trkpt><trkpt lat="44.220091352952664" lon="10.854402728383306"><ele>459.0</ele><time>2026-05-02T09:35:40Z</time></trkpt><trkpt lat="44.219966732394674" lon="10.854330409531784"><ele>459.0</ele><time>2026-05-02T09:35:41Z</time></trkpt><trkpt lat="44.21987400633112" lon="10.854252013284958"><ele>459.0</ele><time>2026-05-02T09:35:42Z</time></trkpt><trkpt lat="44.21984382585092" lon="10.854143829871028"><ele>459.0</ele><time>2026-05-02T09:35:43Z</time></trkpt><trkpt lat="44.21987081361401" lon="10.854026106727202"><ele>459.0</ele><time>2026-05-02T09:35:44Z</time></trkpt><trkpt lat="44.219939539279544" lon="10.85395249448678"><ele>457.5</ele><time>2026-05-02T09:35:45Z</time></trkpt><trkpt lat="44.22005626772632" lon="10.853946732699873"><ele>456.0</ele><time>2026-05-02T09:35:46Z</time></trkpt><trkpt lat="44.22018831352316" lon="10.85396798254767"><ele>454.5</ele><time>2026-05-02T09:35:47Z</time></trkpt><trkpt lat="44.220336485259004" lon="10.854012321242475"><ele>453.0</ele><time>2026-05-02T09:35:48Z</time></trkpt><trkpt lat="44.220491448758175" lon="10.854106175973234"><ele>453.0</ele><time>2026-05-02T09:35:49Z</time></trkpt><trkpt lat="44.22062925475026" lon="10.854249350701062"><ele>453.0</ele><time>2026-05-02T09:35:50Z</time></trkpt><trkpt lat="44.22076747224589" lon="10.854348650669026"><ele>453.0</ele><time>2026-05-02T09:35:51Z</time></trkpt><trkpt lat="44.22092348359013" lon="10.854404682114602"><ele>453.0</ele><time>2026-05-02T09:35:52Z</time></trkpt><trkpt lat="44.22107221787379" lon="10.854437214793398"><ele>453.0</ele><time>2026-05-02T09:35:53Z</time></trkpt><trkpt lat="44.221217332339904" lon="10.85445615576944"><ele>453.0</ele><time>2026-05-02T09:35:54Z</time></trkpt><trkpt lat="44.22134860879108" lon="10.854444197809384"><ele>453.0</ele><time>2026-05-02T09:35:55Z</time></trkpt><trkpt lat="44.22147404537885" lon="10.854366446570515"><ele>450.0</ele><time>2026-05-02T09:35:56Z</time></trkpt><trkpt lat="44.22159005717408" lon="10.854235545535866"><ele>447.0</ele><time>2026-05-02T09:35:57Z</time></trkpt><trkpt lat="44.221711419848965" lon="10.854098802986885"><ele>444.0</ele><time>2026-05-02T09:35:58Z</time></trkpt><trkpt lat="44.22184589421994" lon="10.854014829340278"><ele>444.0</ele><time>2026-05-02T09:35:59Z</time></trkpt><trkpt lat="44.22196621027676" lon="10.853898463341555"><ele>444.0</ele><time>2026-05-02T09:36:00Z</time></trkpt><trkpt lat="44.22204724549669" lon="10.853742778600818"><ele>444.0</ele><time>2026-05-02T09:36:01Z</time></trkpt><trkpt lat="44.22214949131368" lon="10.853639912744535"><ele>444.0</ele><time>2026-05-02T09:36:02Z</time></trkpt><trkpt lat="44.22226237289069" lon="10.853581176658926"><ele>443.25</ele><time>2026-05-02T09:36:03Z</time></trkpt><trkpt lat="44.22238652152345" lon="10.853580647406453"><ele>442.5</ele><time>2026-05-02T09:36:04Z</time></trkpt><trkpt lat="44.22249710528503" lon="10.853636170987174"><ele>441.75</ele><time>2026-05-02T09:36:05Z</time></trkpt><trkpt lat="44.222585508341176" lon="10.853740540125445"><ele>441.0</ele><time>2026-05-02T09:36:06Z</time></trkpt><trkpt lat="44.22262928588584" lon="10.853881889039739"><ele>441.0</ele><time>2026-05-02T09:36:07Z</time></trkpt><trkpt lat="44.22262387400131" lon="10.854039326950453"><ele>441.0</ele><time>2026-05-02T09:36:08Z</time></trkpt><trkpt lat="44.22259624265528" lon="10.854190403616041"><ele>441.0</ele><time>2026-05-02T09:36:09Z</time></trkpt><trkpt lat="44.22259231108872" lon="10.854327899801135"><ele>441.0</ele><time>2026-05-02T09:36:09.999Z</time></trkpt><trkpt lat="44.222639740365686" lon="10.854443793979348"><ele>441.0</ele><time>2026-05-02T09:36:10.999Z</time></trkpt><trkpt lat="44.222713703635584" lon="10.85450275546969"><ele>441.0</ele><time>2026-05-02T09:36:11.999Z</time></trkpt><trkpt lat="44.222796398616175" lon="10.854466015830694"><ele>441.0</ele><time>2026-05-02T09:36:12.999Z</time></trkpt><trkpt lat="44.22285467315402" lon="10.854374962132393"><ele>441.0</ele><time>2026-05-02T09:36:13.999Z</time></trkpt><trkpt lat="44.222874727533686" lon="10.854238838420853"><ele>441.0</ele><time>2026-05-02T09:36:14.999Z</time></trkpt><trkpt lat="44.22286392168499" lon="10.85405603907542"><ele>441.0</ele><time>2026-05-02T09:36:15.999Z</time></trkpt><trkpt lat="44.22283540389238" lon="10.853863622551986"><ele>441.0</ele><time>2026-05-02T09:36:16.999Z</time></trkpt><trkpt lat="44.22278551028353" lon="10.853676907842623"><ele>441.0</ele><time>2026-05-02T09:36:17.999Z</time></trkpt><trkpt lat="44.22269956114629" lon="10.853495215458095"><ele>441.0</ele><time>2026-05-02T09:36:18.999Z</time></trkpt><trkpt lat="44.22259538076394" lon="10.853315027851849"><ele>436.66666666666663</ele><time>2026-05-02T09:36:19.999Z</time></trkpt><trkpt lat="44.22251916493133" lon="10.853098730331347"><ele>432.3333333333333</ele><time>2026-05-02T09:36:20.999Z</time></trkpt><trkpt lat="44.22246285463271" lon="10.852860218581393"><ele>428.0</ele><time>2026-05-02T09:36:21.999Z</time></trkpt><trkpt lat="44.22243127340944" lon="10.852598770680517"><ele>425.3333333333333</ele><time>2026-05-02T09:36:22.999Z</time></trkpt><trkpt lat="44.22238690340823" lon="10.852342747242043"><ele>422.66666666666663</ele><time>2026-05-02T09:36:23.999Z</time></trkpt><trkpt lat="44.222340570316206" lon="10.85208455876308"><ele>420.0</ele><time>2026-05-02T09:36:24.999Z</time></trkpt><trkpt lat="44.2222950141995" lon="10.851849318903973"><ele>420.75</ele><time>2026-05-02T09:36:25.999Z</time></trkpt><trkpt lat="44.22230613324152" lon="10.851635269084772"><ele>421.5</ele><time>2026-05-02T09:36:26.999Z</time></trkpt><trkpt lat="44.22236406835396" lon="10.851462662020813"><ele>422.25</ele><time>2026-05-02T09:36:27.999Z</time></trkpt><trkpt lat="44.222465983469" lon="10.851311920760573"><ele>423.0</ele><time>2026-05-02T09:36:28.999Z</time></trkpt><trkpt lat="44.22259570386881" lon="10.851177027785685"><ele>423.0</ele><time>2026-05-02T09:36:29.999Z</time></trkpt><trkpt lat="44.22273204969179" lon="10.851019155052276"><ele>423.0</ele><time>2026-05-02T09:36:30.999Z</time></trkpt><trkpt lat="44.22286232608416" lon="10.850832194188282"><ele>423.0</ele><time>2026-05-02T09:36:31.999Z</time></trkpt><trkpt lat="44.222984074848405" lon="10.850608510897144"><ele>422.33333333333337</ele><time>2026-05-02T09:36:32.999Z</time></trkpt><trkpt lat="44.22310224712682" lon="10.85036843781745"><ele>421.6666666666667</ele><time>2026-05-02T09:36:33.999Z</time></trkpt><trkpt lat="44.22321817461456" lon="10.8501278768412"><ele>421.0</ele><time>2026-05-02T09:36:34.999Z</time></trkpt><trkpt lat="44.22335403882636" lon="10.849913251698677"><ele>426.33333333333337</ele><time>2026-05-02T09:36:35.999Z</time></trkpt><trkpt lat="44.2235076943244" lon="10.849726600162562"><ele>431.66666666666663</ele><time>2026-05-02T09:36:36.999Z</time></trkpt><trkpt lat="44.22365787791264" lon="10.849577198176917"><ele>437.0</ele><time>2026-05-02T09:36:37.999Z</time></trkpt><trkpt lat="44.223821453606284" lon="10.849490115408535"><ele>437.66666666666663</ele><time>2026-05-02T09:36:38.999Z</time></trkpt><trkpt lat="44.223997741583695" lon="10.849411346479632"><ele>438.33333333333337</ele><time>2026-05-02T09:36:39.999Z</time></trkpt><trkpt lat="44.22417530419426" lon="10.8493046037309"><ele>439.0</ele><time>2026-05-02T09:36:40.999Z</time></trkpt><trkpt lat="44.22435559542736" lon="10.849192439279735"><ele>439.0</ele><time>2026-05-02T09:36:41.999Z</time></trkpt><trkpt lat="44.22450273544846" lon="10.849032949712564"><ele>439.0</ele><time>2026-05-02T09:36:42.999Z</time></trkpt><trkpt lat="44.224638924195325" lon="10.848949606000186"><ele>439.0</ele><time>2026-05-02T09:36:43.999Z</time></trkpt><trkpt lat="44.2247920245818" lon="10.848942186000349"><ele>438.6666666666667</ele><time>2026-05-02T09:36:44.999Z</time></trkpt><trkpt lat="44.22495588738318" lon="10.848948133487989"><ele>438.33333333333337</ele><time>2026-05-02T09:36:45.999Z</time></trkpt><trkpt lat="44.225113098637785" lon="10.848888507198396"><ele>438.0</ele><time>2026-05-02T09:36:46.999Z</time></trkpt><trkpt lat="44.2252730757758" lon="10.848775311485308"><ele>438.0</ele><time>2026-05-02T09:36:47.999Z</time></trkpt><trkpt lat="44.22543716010339" lon="10.848648332854859"><ele>438.0</ele><time>2026-05-02T09:36:48.999Z</time></trkpt><trkpt lat="44.22560146523787" lon="10.84851563087794"><ele>438.0</ele><time>2026-05-02T09:36:49.999Z</time></trkpt><trkpt lat="44.22574703770872" lon="10.84835709750234"><ele>439.66666666666663</ele><time>2026-05-02T09:36:50.999Z</time></trkpt><trkpt lat="44.22586859959899" lon="10.848164349908792"><ele>441.3333333333333</ele><time>2026-05-02T09:36:51.999Z</time></trkpt><trkpt lat="44.22598815802299" lon="10.847961825998517"><ele>443.0</ele><time>2026-05-02T09:36:52.999Z</time></trkpt><trkpt lat="44.226092383668394" lon="10.847740573510302"><ele>444.0</ele><time>2026-05-02T09:36:53.999Z</time></trkpt><trkpt lat="44.22617706734832" lon="10.847545680681018"><ele>445.0</ele><time>2026-05-02T09:36:54.999Z</time></trkpt><trkpt lat="44.22624577932036" lon="10.847381880143844"><ele>446.0</ele><time>2026-05-02T09:36:55.999Z</time></trkpt><trkpt lat="44.226366735726586" lon="10.847284548055454"><ele>447.0</ele><time>2026-05-02T09:36:56.999Z</time></trkpt><trkpt lat="44.22650554638908" lon="10.84721937878808"><ele>447.0</ele><time>2026-05-02T09:36:57.999Z</time></trkpt><trkpt lat="44.226659711392706" lon="10.847206801914982"><ele>447.0</ele><time>2026-05-02T09:36:58.999Z</time></trkpt><trkpt lat="44.226822774825784" lon="10.84721601123411"><ele>447.0</ele><time>2026-05-02T09:36:59.999Z</time></trkpt><trkpt lat="44.226986472405095" lon="10.847210824980376"><ele>447.0</ele><time>2026-05-02T09:37:00.999Z</time></trkpt><trkpt lat="44.227135640237265" lon="10.847171685590338"><ele>447.0</ele><time>2026-05-02T09:37:01.999Z</time></trkpt><trkpt lat="44.227272214130636" lon="10.847073887675355"><ele>447.0</ele><time>2026-05-02T09:37:02.999Z</time></trkpt><trkpt lat="44.22740170458634" lon="10.84693908671862"><ele>450.33333333333337</ele><time>2026-05-02T09:37:03.999Z</time></trkpt><trkpt lat="44.22753133739644" lon="10.846777488765373"><ele>453.6666666666667</ele><time>2026-05-02T09:37:04.999Z</time></trkpt><trkpt lat="44.22765870804286" lon="10.846609098280013"><ele>457.0</ele><time>2026-05-02T09:37:05.999Z</time></trkpt><trkpt lat="44.22776330814845" lon="10.846453523012793"><ele>457.0</ele><time>2026-05-02T09:37:06.999Z</time></trkpt><trkpt lat="44.22783532217581" lon="10.846290092104791"><ele>457.0</ele><time>2026-05-02T09:37:07.999Z</time></trkpt><trkpt lat="44.22786309318546" lon="10.846118311372612"><ele>457.0</ele><time>2026-05-02T09:37:08.999Z</time></trkpt><trkpt lat="44.22784070367183" lon="10.845942174104932"><ele>457.0</ele><time>2026-05-02T09:37:09.999Z</time></trkpt><trkpt lat="44.22776956874757" lon="10.845754605782405"><ele>460.0</ele><time>2026-05-02T09:37:10.999Z</time></trkpt><trkpt lat="44.227667845830375" lon="10.845559597093605"><ele>463.0</ele><time>2026-05-02T09:37:11.999Z</time></trkpt><trkpt lat="44.22753743625777" lon="10.845357406932681"><ele>466.0</ele><time>2026-05-02T09:37:12.999Z</time></trkpt><trkpt lat="44.22736484424769" lon="10.845162496586624"><ele>469.0</ele><time>2026-05-02T09:37:14Z</time></trkpt><trkpt lat="44.227214359469656" lon="10.84497943483881"><ele>472.0</ele><time>2026-05-02T09:37:15Z</time></trkpt><trkpt lat="44.22706786790308" lon="10.8448449029184"><ele>475.0</ele><time>2026-05-02T09:37:16Z</time></trkpt><trkpt lat="44.226984950407875" lon="10.844666420821303"><ele>475.0</ele><time>2026-05-02T09:37:17Z</time></trkpt><trkpt lat="44.22694508651826" lon="10.84445877333938"><ele>475.0</ele><time>2026-05-02T09:37:18Z</time></trkpt><trkpt lat="44.22694112022001" lon="10.84419805364895"><ele>475.0</ele><time>2026-05-02T09:37:19Z</time></trkpt><trkpt lat="44.22694023859545" lon="10.843914933393158"><ele>475.33333333333337</ele><time>2026-05-02T09:37:20Z</time></trkpt><trkpt lat="44.226923954818304" lon="10.843659148264805"><ele>475.66666666666663</ele><time>2026-05-02T09:37:21Z</time></trkpt><trkpt lat="44.2268853636317" lon="10.843429968465657"><ele>476.0</ele><time>2026-05-02T09:37:22Z</time></trkpt><trkpt lat="44.22680814027726" lon="10.843199240776103"><ele>476.0</ele><time>2026-05-02T09:37:23Z</time></trkpt><trkpt lat="44.226706625121004" lon="10.84300139128007"><ele>476.0</ele><time>2026-05-02T09:37:24Z</time></trkpt><trkpt lat="44.22663005245864" lon="10.842821619494384"><ele>476.0</ele><time>2026-05-02T09:37:25Z</time></trkpt><trkpt lat="44.22657599180322" lon="10.84265428762168"><ele>476.3333333333333</ele><time>2026-05-02T09:37:26Z</time></trkpt><trkpt lat="44.22658861175315" lon="10.842452526820242"><ele>476.66666666666663</ele><time>2026-05-02T09:37:27Z</time></trkpt><trkpt lat="44.22664477217964" lon="10.842231558003391"><ele>477.0</ele><time>2026-05-02T09:37:28Z</time></trkpt><trkpt lat="44.22669549427891" lon="10.841989465492313"><ele>479.33333333333337</ele><time>2026-05-02T09:37:29Z</time></trkpt><trkpt lat="44.22673580670972" lon="10.841713377976642"><ele>481.6666666666667</ele><time>2026-05-02T09:37:30Z</time></trkpt><trkpt lat="44.22679036218184" lon="10.841428382300997"><ele>484.0</ele><time>2026-05-02T09:37:31Z</time></trkpt><trkpt lat="44.22683672371124" lon="10.841153145169894"><ele>484.33333333333337</ele><time>2026-05-02T09:37:32Z</time></trkpt><trkpt lat="44.22691664139565" lon="10.840921031920331"><ele>484.66666666666663</ele><time>2026-05-02T09:37:33Z</time></trkpt><trkpt lat="44.226976476476274" lon="10.840686313411553"><ele>485.0</ele><time>2026-05-02T09:37:34Z</time></trkpt><trkpt lat="44.22701136706409" lon="10.840439119462253"><ele>485.0</ele><time>2026-05-02T09:37:35Z</time></trkpt><trkpt lat="44.22701200373246" lon="10.84020428694838"><ele>485.0</ele><time>2026-05-02T09:37:36Z</time></trkpt><trkpt lat="44.22697517023339" lon="10.839960447064277"><ele>485.0</ele><time>2026-05-02T09:37:37Z</time></trkpt><trkpt lat="44.2269502682212" lon="10.839732571279068"><ele>484.3333333333333</ele><time>2026-05-02T09:37:38Z</time></trkpt><trkpt lat="44.2269979553844" lon="10.839528853011052"><ele>483.66666666666663</ele><time>2026-05-02T09:37:39Z</time></trkpt><trkpt lat="44.22707603010683" lon="10.839325427297146"><ele>483.0</ele><time>2026-05-02T09:37:40Z</time></trkpt><trkpt lat="44.227164160618244" lon="10.839102622924928"><ele>484.66666666666663</ele><time>2026-05-02T09:37:41Z</time></trkpt><trkpt lat="44.22724493371414" lon="10.8388613875627"><ele>486.3333333333333</ele><time>2026-05-02T09:37:42Z</time></trkpt><trkpt lat="44.22733307168559" lon="10.838641152454151"><ele>488.0</ele><time>2026-05-02T09:37:43Z</time></trkpt><trkpt lat="44.22741145272335" lon="10.838439829773904"><ele>484.25</ele><time>2026-05-02T09:37:44Z</time></trkpt><trkpt lat="44.227476756168066" lon="10.83824264293841"><ele>480.5</ele><time>2026-05-02T09:37:45Z</time></trkpt><trkpt lat="44.2275141784826" lon="10.838047786226891"><ele>476.75</ele><time>2026-05-02T09:37:46Z</time></trkpt><trkpt lat="44.22751266167521" lon="10.837857335779091"><ele>473.0</ele><time>2026-05-02T09:37:47Z</time></trkpt><trkpt lat="44.22747991203785" lon="10.837679485692904"><ele>472.5</ele><time>2026-05-02T09:37:48Z</time></trkpt><trkpt lat="44.22746434033757" lon="10.837500846146336"><ele>472.0</ele><time>2026-05-02T09:37:49Z</time></trkpt><trkpt lat="44.22744673951942" lon="10.837332450392017"><ele>471.5</ele><time>2026-05-02T09:37:50Z</time></trkpt><trkpt lat="44.22738085706582" lon="10.837183558057177"><ele>471.0</ele><time>2026-05-02T09:37:51Z</time></trkpt><trkpt lat="44.22728060940485" lon="10.83705100424506"><ele>475.5</ele><time>2026-05-02T09:37:52Z</time></trkpt><trkpt lat="44.22716114654595" lon="10.836928060120801"><ele>480.0</ele><time>2026-05-02T09:37:53Z</time></trkpt><trkpt lat="44.22706082529086" lon="10.836798667410681"><ele>484.5</ele><time>2026-05-02T09:37:54Z</time></trkpt><trkpt lat="44.226982210382054" lon="10.83665806289865"><ele>489.0</ele><time>2026-05-02T09:37:55Z</time></trkpt><trkpt lat="44.22693821548696" lon="10.83647255809197"><ele>489.0</ele><time>2026-05-02T09:37:56Z</time></trkpt><trkpt lat="44.22691022486293" lon="10.836248021172425"><ele>489.0</ele><time>2026-05-02T09:37:57Z</time></trkpt><trkpt lat="44.22687536319978" lon="10.8360262356467"><ele>489.0</ele><time>2026-05-02T09:37:58Z</time></trkpt><trkpt lat="44.22683316708031" lon="10.835828768368993"><ele>485.66666666666663</ele><time>2026-05-02T09:37:59Z</time></trkpt><trkpt lat="44.22675867555135" lon="10.835648035188596"><ele>482.3333333333333</ele><time>2026-05-02T09:38:00Z</time></trkpt><trkpt lat="44.22666501473545" lon="10.835462490706682"><ele>479.0</ele><time>2026-05-02T09:38:01Z</time></trkpt><trkpt lat="44.22656017858368" lon="10.835304480551756"><ele>479.0</ele><time>2026-05-02T09:38:02Z</time></trkpt><trkpt lat="44.22648381883392" lon="10.835148010492217"><ele>479.0</ele><time>2026-05-02T09:38:03Z</time></trkpt><trkpt lat="44.22648161213522" lon="10.834941922105884"><ele>479.0</ele><time>2026-05-02T09:38:04Z</time></trkpt><trkpt lat="44.22648557024495" lon="10.834739075653182"><ele>479.0</ele><time>2026-05-02T09:38:05Z</time></trkpt><trkpt lat="44.22647811520712" lon="10.834546426182591"><ele>479.3333333333333</ele><time>2026-05-02T09:38:06Z</time></trkpt><trkpt lat="44.22641394606579" lon="10.834331189821912"><ele>479.66666666666663</ele><time>2026-05-02T09:38:06.999Z</time></trkpt><trkpt lat="44.226322690864606" lon="10.834107775244005"><ele>480.0</ele><time>2026-05-02T09:38:07.999Z</time></trkpt><trkpt lat="44.22622827763483" lon="10.833870937912563"><ele>480.0</ele><time>2026-05-02T09:38:08.999Z</time></trkpt><trkpt lat="44.22613332353845" lon="10.833681197188973"><ele>480.0</ele><time>2026-05-02T09:38:09.999Z</time></trkpt><trkpt lat="44.22602140565379" lon="10.833551375589401"><ele>480.0</ele><time>2026-05-02T09:38:10.999Z</time></trkpt><trkpt lat="44.22589563338977" lon="10.833489371693373"><ele>480.0</ele><time>2026-05-02T09:38:11.999Z</time></trkpt><trkpt lat="44.22575055642571" lon="10.833496009082074"><ele>481.75</ele><time>2026-05-02T09:38:12.999Z</time></trkpt><trkpt lat="44.2256011905923" lon="10.833466142857604"><ele>483.5</ele><time>2026-05-02T09:38:13.999Z</time></trkpt><trkpt lat="44.22547193815476" lon="10.833424670511587"><ele>485.25</ele><time>2026-05-02T09:38:14.999Z</time></trkpt><trkpt lat="44.22539678324507" lon="10.83332108208445"><ele>487.0</ele><time>2026-05-02T09:38:15.999Z</time></trkpt><trkpt lat="44.22536396368088" lon="10.833176660798603"><ele>487.0</ele><time>2026-05-02T09:38:16.999Z</time></trkpt><trkpt lat="44.22538282439592" lon="10.833005119791547"><ele>487.0</ele><time>2026-05-02T09:38:17.999Z</time></trkpt><trkpt lat="44.22545073528131" lon="10.832826216864072"><ele>487.0</ele><time>2026-05-02T09:38:18.999Z</time></trkpt><trkpt lat="44.2255022380463" lon="10.832636650043252"><ele>487.0</ele><time>2026-05-02T09:38:19.999Z</time></trkpt><trkpt lat="44.225535533916414" lon="10.83244299820184"><ele>486.5</ele><time>2026-05-02T09:38:20.999Z</time></trkpt><trkpt lat="44.2255300439442" lon="10.832276254983931"><ele>486.0</ele><time>2026-05-02T09:38:21.999Z</time></trkpt><trkpt lat="44.22547598372732" lon="10.832129598839558"><ele>485.5</ele><time>2026-05-02T09:38:22.999Z</time></trkpt><trkpt lat="44.22535618884664" lon="10.831997158635582"><ele>485.0</ele><time>2026-05-02T09:38:23.999Z</time></trkpt><trkpt lat="44.22521195897217" lon="10.831895689331027"><ele>485.0</ele><time>2026-05-02T09:38:24.999Z</time></trkpt><trkpt lat="44.22505568587896" lon="10.831816414695869"><ele>485.0</ele><time>2026-05-02T09:38:25.999Z</time></trkpt><trkpt lat="44.22490898812543" lon="10.831798213988101"><ele>485.0</ele><time>2026-05-02T09:38:26.999Z</time></trkpt><trkpt lat="44.22475896093411" lon="10.831842800570694"><ele>488.0</ele><time>2026-05-02T09:38:27.999Z</time></trkpt><trkpt lat="44.22460062642193" lon="10.831921083282083"><ele>491.0</ele><time>2026-05-02T09:38:28.999Z</time></trkpt><trkpt lat="44.22444376406214" lon="10.832016303575838"><ele>494.0</ele><time>2026-05-02T09:38:29.999Z</time></trkpt><trkpt lat="44.224289455730826" lon="10.832108306021853"><ele>494.0</ele><time>2026-05-02T09:38:30.999Z</time></trkpt><trkpt lat="44.224139122867896" lon="10.832170072542128"><ele>494.0</ele><time>2026-05-02T09:38:31.999Z</time></trkpt><trkpt lat="44.2240012640797" lon="10.832192546913815"><ele>494.0</ele><time>2026-05-02T09:38:32.999Z</time></trkpt><trkpt lat="44.22387766839767" lon="10.832167583442398"><ele>494.0</ele><time>2026-05-02T09:38:33.999Z</time></trkpt><trkpt lat="44.22378306867821" lon="10.832062987439716"><ele>495.75</ele><time>2026-05-02T09:38:34.999Z</time></trkpt><trkpt lat="44.2236915770214" lon="10.8319425900164"><ele>497.5</ele><time>2026-05-02T09:38:35.999Z</time></trkpt><trkpt lat="44.223654126814914" lon="10.831740154059782"><ele>499.25</ele><time>2026-05-02T09:38:36.999Z</time></trkpt><trkpt lat="44.22360847946992" lon="10.831531126980229"><ele>501.0</ele><time>2026-05-02T09:38:37.999Z</time></trkpt><trkpt lat="44.223638161831" lon="10.831315453545304"><ele>501.0</ele><time>2026-05-02T09:38:38.999Z</time></trkpt><trkpt lat="44.223688530417945" lon="10.831090803851332"><ele>501.0</ele><time>2026-05-02T09:38:39.999Z</time></trkpt><trkpt lat="44.223748861628565" lon="10.830849822369343"><ele>501.0</ele><time>2026-05-02T09:38:40.999Z</time></trkpt><trkpt lat="44.2238235731505" lon="10.830641978233574"><ele>501.33333333333337</ele><time>2026-05-02T09:38:41.999Z</time></trkpt><trkpt lat="44.22387456112369" lon="10.830430138693359"><ele>501.6666666666667</ele><time>2026-05-02T09:38:42.999Z</time></trkpt><trkpt lat="44.22390275255533" lon="10.83019526818456"><ele>502.0</ele><time>2026-05-02T09:38:43.999Z</time></trkpt><trkpt lat="44.22392216659819" lon="10.829943440444259"><ele>503.0</ele><time>2026-05-02T09:38:44.999Z</time></trkpt><trkpt lat="44.22392508683593" lon="10.829687829826772"><ele>504.0</ele><time>2026-05-02T09:38:45.999Z</time></trkpt><trkpt lat="44.22388790798064" lon="10.829440728657685"><ele>505.0</ele><time>2026-05-02T09:38:46.999Z</time></trkpt><trkpt lat="44.223857097108976" lon="10.829195686091975"><ele>506.6666666666667</ele><time>2026-05-02T09:38:47.999Z</time></trkpt><trkpt lat="44.22381797676688" lon="10.828962958739481"><ele>508.33333333333337</ele><time>2026-05-02T09:38:48.999Z</time></trkpt><trkpt lat="44.223813290289314" lon="10.828753881059697"><ele>510.0</ele><time>2026-05-02T09:38:49.999Z</time></trkpt><trkpt lat="44.22379261632951" lon="10.828563312371427"><ele>508.0</ele><time>2026-05-02T09:38:50.999Z</time></trkpt><trkpt lat="44.22373143218962" lon="10.82838225849648"><ele>506.0</ele><time>2026-05-02T09:38:51.999Z</time></trkpt><trkpt lat="44.223635950774806" lon="10.828218085186668"><ele>504.0</ele><time>2026-05-02T09:38:52.999Z</time></trkpt><trkpt lat="44.22351278277688" lon="10.828078466484634"><ele>504.0</ele><time>2026-05-02T09:38:53.999Z</time></trkpt><trkpt lat="44.223354710340885" lon="10.827964951335982"><ele>504.0</ele><time>2026-05-02T09:38:54.999Z</time></trkpt><trkpt lat="44.22318079399925" lon="10.827862795137278"><ele>504.0</ele><time>2026-05-02T09:38:55.999Z</time></trkpt><trkpt lat="44.22298635417623" lon="10.827768641747808"><ele>505.33333333333337</ele><time>2026-05-02T09:38:56.999Z</time></trkpt><trkpt lat="44.22277845821187" lon="10.82768238792716"><ele>506.6666666666667</ele><time>2026-05-02T09:38:57.999Z</time></trkpt><trkpt lat="44.222566488022714" lon="10.827584356759761"><ele>508.0</ele><time>2026-05-02T09:38:58.999Z</time></trkpt><trkpt lat="44.22236755805095" lon="10.827460958451253"><ele>512.0</ele><time>2026-05-02T09:38:59.999Z</time></trkpt><trkpt lat="44.222203564513364" lon="10.827343176067043"><ele>516.0</ele><time>2026-05-02T09:39:00.999Z</time></trkpt><trkpt lat="44.22207886704395" lon="10.827241837746106"><ele>520.0</ele><time>2026-05-02T09:39:01.999Z</time></trkpt><trkpt lat="44.221989447646685" lon="10.827123874308235"><ele>520.0</ele><time>2026-05-02T09:39:02.999Z</time></trkpt><trkpt lat="44.22194240763001" lon="10.826973178778955"><ele>520.0</ele><time>2026-05-02T09:39:03.999Z</time></trkpt><trkpt lat="44.22196760923505" lon="10.826805123437172"><ele>520.0</ele><time>2026-05-02T09:39:04.999Z</time></trkpt><trkpt lat="44.221976667257856" lon="10.826611983956363"><ele>520.0</ele><time>2026-05-02T09:39:05.999Z</time></trkpt><trkpt lat="44.221986959246046" lon="10.826389961056037"><ele>519.0</ele><time>2026-05-02T09:39:06.999Z</time></trkpt><trkpt lat="44.22195242348781" lon="10.82613443580163"><ele>518.0</ele><time>2026-05-02T09:39:07.999Z</time></trkpt><trkpt lat="44.22188555093877" lon="10.825907015132616"><ele>517.0</ele><time>2026-05-02T09:39:08.999Z</time></trkpt><trkpt lat="44.22183402389565" lon="10.825715096276603"><ele>516.5</ele><time>2026-05-02T09:39:09.999Z</time></trkpt><trkpt lat="44.221822712700884" lon="10.825534428160903"><ele>516.0</ele><time>2026-05-02T09:39:10.999Z</time></trkpt><trkpt lat="44.22184085003927" lon="10.825363669482583"><ele>515.5</ele><time>2026-05-02T09:39:11.999Z</time></trkpt><trkpt lat="44.2219152491196" lon="10.82523477579266"><ele>515.0</ele><time>2026-05-02T09:39:12.999Z</time></trkpt><trkpt lat="44.22202004880937" lon="10.825139509832168"><ele>513.75</ele><time>2026-05-02T09:39:13.999Z</time></trkpt><trkpt lat="44.22208398558779" lon="10.824998318916675"><ele>512.5</ele><time>2026-05-02T09:39:14.999Z</time></trkpt><trkpt lat="44.222102268698954" lon="10.824813527657138"><ele>511.25</ele><time>2026-05-02T09:39:15.999Z</time></trkpt><trkpt lat="44.22207076055547" lon="10.824602814300306"><ele>510.0</ele><time>2026-05-02T09:39:16.999Z</time></trkpt><trkpt lat="44.22200182102339" lon="10.824399121582093"><ele>508.33333333333337</ele><time>2026-05-02T09:39:17.999Z</time></trkpt><trkpt lat="44.221885312259886" lon="10.824212754796454"><ele>506.6666666666667</ele><time>2026-05-02T09:39:18.999Z</time></trkpt><trkpt lat="44.221746725409645" lon="10.824037697117463"><ele>505.0</ele><time>2026-05-02T09:39:20Z</time></trkpt><trkpt lat="44.22160378668966" lon="10.823861035307829"><ele>506.33333333333337</ele><time>2026-05-02T09:39:21Z</time></trkpt><trkpt lat="44.22147388838348" lon="10.823696590844273"><ele>507.66666666666663</ele><time>2026-05-02T09:39:22Z</time></trkpt><trkpt lat="44.22133216635395" lon="10.823562848037385"><ele>509.0</ele><time>2026-05-02T09:39:23Z</time></trkpt><trkpt lat="44.221173328878955" lon="10.823447565435186"><ele>505.3333333333333</ele><time>2026-05-02T09:39:24Z</time></trkpt><trkpt lat="44.22101586741326" lon="10.823377799982683"><ele>501.66666666666663</ele><time>2026-05-02T09:39:25Z</time></trkpt><trkpt lat="44.22088011438572" lon="10.823285005828629"><ele>498.0</ele><time>2026-05-02T09:39:26Z</time></trkpt><trkpt lat="44.220763548557024" lon="10.823161572709564"><ele>498.0</ele><time>2026-05-02T09:39:27Z</time></trkpt><trkpt lat="44.220665136963376" lon="10.823029978676452"><ele>498.0</ele><time>2026-05-02T09:39:28Z</time></trkpt><trkpt lat="44.22062262138646" lon="10.822872767960414"><ele>498.0</ele><time>2026-05-02T09:39:29Z</time></trkpt><trkpt lat="44.22063283566762" lon="10.82272106310483"><ele>498.0</ele><time>2026-05-02T09:39:30Z</time></trkpt><trkpt lat="44.22069209396428" lon="10.822581409582579"><ele>498.0</ele><time>2026-05-02T09:39:31Z</time></trkpt><trkpt lat="44.220794361026115" lon="10.822442987398567"><ele>498.0</ele><time>2026-05-02T09:39:32Z</time></trkpt><trkpt lat="44.22089306392961" lon="10.82227068595246"><ele>498.0</ele><time>2026-05-02T09:39:33Z</time></trkpt><trkpt lat="44.22097444588032" lon="10.822048649762543"><ele>498.0</ele><time>2026-05-02T09:39:34Z</time></trkpt><trkpt lat="44.22104364748277" lon="10.821826875284344"><ele>498.0</ele><time>2026-05-02T09:39:35Z</time></trkpt><trkpt lat="44.22109879311798" lon="10.821629950471449"><ele>498.0</ele><time>2026-05-02T09:39:36Z</time></trkpt><trkpt lat="44.221119890755034" lon="10.821439518788504"><ele>500.33333333333337</ele><time>2026-05-02T09:39:37Z</time></trkpt><trkpt lat="44.221083956134215" lon="10.821228336146625"><ele>502.6666666666667</ele><time>2026-05-02T09:39:38Z</time></trkpt><trkpt lat="44.22102031780112" lon="10.820987039840054"><ele>505.0</ele><time>2026-05-02T09:39:39Z</time></trkpt><trkpt lat="44.22095745603991" lon="10.82073561519589"><ele>505.0</ele><time>2026-05-02T09:39:40Z</time></trkpt><trkpt lat="44.22089696777726" lon="10.82047611201981"><ele>505.0</ele><time>2026-05-02T09:39:41Z</time></trkpt><trkpt lat="44.220835500706904" lon="10.820209987450477"><ele>505.0</ele><time>2026-05-02T09:39:42Z</time></trkpt><trkpt lat="44.22077742914967" lon="10.819956980746763"><ele>504.5</ele><time>2026-05-02T09:39:43Z</time></trkpt><trkpt lat="44.22071691116869" lon="10.81976523843005"><ele>504.0</ele><time>2026-05-02T09:39:44Z</time></trkpt><trkpt lat="44.2206305868425" lon="10.819611681480396"><ele>503.5</ele><time>2026-05-02T09:39:45Z</time></trkpt><trkpt lat="44.22050607465026" lon="10.819519250289048"><ele>503.0</ele><time>2026-05-02T09:39:46Z</time></trkpt><trkpt lat="44.22035122807013" lon="10.819463800621405"><ele>503.0</ele><time>2026-05-02T09:39:47Z</time></trkpt><trkpt lat="44.22020839716797" lon="10.819367182272757"><ele>503.0</ele><time>2026-05-02T09:39:48Z</time></trkpt><trkpt lat="44.22011362668199" lon="10.819188383478139"><ele>503.0</ele><time>2026-05-02T09:39:49Z</time></trkpt><trkpt lat="44.220007815523935" lon="10.81899872762422"><ele>503.0</ele><time>2026-05-02T09:39:50Z</time></trkpt><trkpt lat="44.21991867002474" lon="10.818785859189182"><ele>503.0</ele><time>2026-05-02T09:39:51Z</time></trkpt><trkpt lat="44.21982693966466" lon="10.818560765551076"><ele>503.0</ele><time>2026-05-02T09:39:52Z</time></trkpt><trkpt lat="44.2197205573125" lon="10.818332078104032"><ele>502.66666666666663</ele><time>2026-05-02T09:39:53Z</time></trkpt><trkpt lat="44.2195843728481" lon="10.818128693129157"><ele>502.33333333333337</ele><time>2026-05-02T09:39:54Z</time></trkpt><trkpt lat="44.2194343997268" lon="10.817963480491557"><ele>502.0</ele><time>2026-05-02T09:39:55Z</time></trkpt><trkpt lat="44.21930482401604" lon="10.817790739657042"><ele>498.33333333333337</ele><time>2026-05-02T09:39:56Z</time></trkpt><trkpt lat="44.219204771283806" lon="10.817576950433"><ele>494.66666666666663</ele><time>2026-05-02T09:39:57Z</time></trkpt><trkpt lat="44.21913033275276" lon="10.817328397525547"><ele>491.0</ele><time>2026-05-02T09:39:58Z</time></trkpt><trkpt lat="44.21906254855449" lon="10.817079134060709"><ele>494.0</ele><time>2026-05-02T09:39:59Z</time></trkpt><trkpt lat="44.21897247817852" lon="10.816837439635263"><ele>497.0</ele><time>2026-05-02T09:40:00Z</time></trkpt><trkpt lat="44.21886649546472" lon="10.816608460810164"><ele>500.0</ele><time>2026-05-02T09:40:01Z</time></trkpt><trkpt lat="44.21873735539859" lon="10.81639282832166"><ele>500.0</ele><time>2026-05-02T09:40:02Z</time></trkpt><trkpt lat="44.21859332500417" lon="10.816188854705631"><ele>500.0</ele><time>2026-05-02T09:40:03Z</time></trkpt><trkpt lat="44.218441536058876" lon="10.815987458360405"><ele>500.0</ele><time>2026-05-02T09:40:04Z</time></trkpt><trkpt lat="44.218299837900865" lon="10.81579113302869"><ele>501.0</ele><time>2026-05-02T09:40:05Z</time></trkpt><trkpt lat="44.21815927190588" lon="10.815618502225268"><ele>502.0</ele><time>2026-05-02T09:40:06Z</time></trkpt><trkpt lat="44.21803445210914" lon="10.815454874007496"><ele>503.0</ele><time>2026-05-02T09:40:07Z</time></trkpt><trkpt lat="44.21794290866982" lon="10.815257511347584"><ele>498.66666666666663</ele><time>2026-05-02T09:40:08Z</time></trkpt><trkpt lat="44.21788021512855" lon="10.815035600670887"><ele>494.33333333333337</ele><time>2026-05-02T09:40:09Z</time></trkpt><trkpt lat="44.21778881578284" lon="10.814849323997555"><ele>490.0</ele><time>2026-05-02T09:40:10Z</time></trkpt><trkpt lat="44.21769977907121" lon="10.814701709383575"><ele>490.00000000000006</ele><time>2026-05-02T09:40:11Z</time></trkpt><trkpt lat="44.217632640470434" lon="10.81459586204203"><ele>490.0</ele><time>2026-05-02T09:40:12Z</time></trkpt><trkpt lat="44.21758389435867" lon="10.814513698696759"><ele>490.0</ele><time>2026-05-02T09:40:13Z</time></trkpt><trkpt lat="44.217584661719194" lon="10.814413212505738"><ele>490.0</ele><time>2026-05-02T09:40:14Z</time></trkpt><trkpt lat="44.21763250423324" lon="10.81433568069186"><ele>490.00000000000006</ele><time>2026-05-02T09:40:15Z</time></trkpt><trkpt lat="44.21770882018662" lon="10.81431081914654"><ele>490.0</ele><time>2026-05-02T09:40:16Z</time></trkpt><trkpt lat="44.21780719809325" lon="10.81437455374867"><ele>490.0</ele><time>2026-05-02T09:40:16.999Z</time></trkpt><trkpt lat="44.217901089574404" lon="10.814515206457653"><ele>490.0</ele><time>2026-05-02T09:40:17.999Z</time></trkpt><trkpt lat="44.21798601171671" lon="10.814715943486434"><ele>490.0</ele><time>2026-05-02T09:40:18.999Z</time></trkpt><trkpt lat="44.218129936144784" lon="10.814883348510271"><ele>488.6666666666667</ele><time>2026-05-02T09:40:19.999Z</time></trkpt><trkpt lat="44.21829933635974" lon="10.815014748009256"><ele>487.33333333333337</ele><time>2026-05-02T09:40:20.999Z</time></trkpt><trkpt lat="44.21846023387832" lon="10.81510575144173"><ele>486.0</ele><time>2026-05-02T09:40:21.999Z</time></trkpt><trkpt lat="44.21858484046394" lon="10.815262179695836"><ele>486.0</ele><time>2026-05-02T09:40:22.999Z</time></trkpt><trkpt lat="44.21867332192836" lon="10.815460149147901"><ele>486.0</ele><time>2026-05-02T09:40:23.999Z</time></trkpt><trkpt lat="44.21872824877417" lon="10.815692662952747"><ele>486.0</ele><time>2026-05-02T09:40:24.999Z</time></trkpt><trkpt lat="44.218805151737996" lon="10.815926656893682"><ele>483.66666666666663</ele><time>2026-05-02T09:40:25.999Z</time></trkpt><trkpt lat="44.218922286173225" lon="10.816165527207197"><ele>481.3333333333333</ele><time>2026-05-02T09:40:26.999Z</time></trkpt><trkpt lat="44.21903906243967" lon="10.81637085978379"><ele>479.0</ele><time>2026-05-02T09:40:27.999Z</time></trkpt><trkpt lat="44.21913841817838" lon="10.816522030097198"><ele>479.0</ele><time>2026-05-02T09:40:28.999Z</time></trkpt><trkpt lat="44.21926123216632" lon="10.816626377609236"><ele>479.0</ele><time>2026-05-02T09:40:29.999Z</time></trkpt><trkpt lat="44.219371279848595" lon="10.816677135766241"><ele>479.0</ele><time>2026-05-02T09:40:30.999Z</time></trkpt><trkpt lat="44.219491879153935" lon="10.816700267494705"><ele>479.0</ele><time>2026-05-02T09:40:31.999Z</time></trkpt><trkpt lat="44.219612480086425" lon="10.816717905647385"><ele>479.0</ele><time>2026-05-02T09:40:32.999Z</time></trkpt><trkpt lat="44.21973524044751" lon="10.816744011702676"><ele>479.0</ele><time>2026-05-02T09:40:33.999Z</time></trkpt><trkpt lat="44.219858508140405" lon="10.816737357331846"><ele>479.0</ele><time>2026-05-02T09:40:34.999Z</time></trkpt><trkpt lat="44.21997342359085" lon="10.816671038819234"><ele>479.0</ele><time>2026-05-02T09:40:35.999Z</time></trkpt><trkpt lat="44.22006476899356" lon="10.816556094908764"><ele>475.0</ele><time>2026-05-02T09:40:36.999Z</time></trkpt><trkpt lat="44.22013211304442" lon="10.81638501900058"><ele>471.0</ele><time>2026-05-02T09:40:37.999Z</time></trkpt><trkpt lat="44.22018405454523" lon="10.816175285967342"><ele>467.0</ele><time>2026-05-02T09:40:38.999Z</time></trkpt><trkpt lat="44.22024027324899" lon="10.815945231548534"><ele>465.3333333333333</ele><time>2026-05-02T09:40:39.999Z</time></trkpt><trkpt lat="44.220305276684066" lon="10.815694092730771"><ele>463.66666666666663</ele><time>2026-05-02T09:40:40.999Z</time></trkpt><trkpt lat="44.220375920182384" lon="10.815428606055653"><ele>462.0</ele><time>2026-05-02T09:40:41.999Z</time></trkpt><trkpt lat="44.22044929312073" lon="10.815143914099094"><ele>462.0</ele><time>2026-05-02T09:40:42.999Z</time></trkpt><trkpt lat="44.2205236753948" lon="10.81486369493349"><ele>462.0</ele><time>2026-05-02T09:40:43.999Z</time></trkpt><trkpt lat="44.22058376240489" lon="10.814615366850413"><ele>462.0</ele><time>2026-05-02T09:40:44.999Z</time></trkpt><trkpt lat="44.220609976216025" lon="10.814404917055901"><ele>464.0</ele><time>2026-05-02T09:40:45.999Z</time></trkpt><trkpt lat="44.22059318877425" lon="10.814228710189573"><ele>466.0</ele><time>2026-05-02T09:40:46.999Z</time></trkpt><trkpt lat="44.22053889057192" lon="10.814077819395445"><ele>468.0</ele><time>2026-05-02T09:40:47.999Z</time></trkpt><trkpt lat="44.22043933065769" lon="10.813942330905501"><ele>470.0</ele><time>2026-05-02T09:40:48.999Z</time></trkpt><trkpt lat="44.22030429787479" lon="10.813824154377485"><ele>470.0</ele><time>2026-05-02T09:40:49.999Z</time></trkpt><trkpt lat="44.22016134805873" lon="10.813688089766353"><ele>470.0</ele><time>2026-05-02T09:40:50.999Z</time></trkpt><trkpt lat="44.22000274458404" lon="10.813547275405377"><ele>470.0</ele><time>2026-05-02T09:40:51.999Z</time></trkpt><trkpt lat="44.219834523698545" lon="10.81339372019974"><ele>469.0</ele><time>2026-05-02T09:40:52.999Z</time></trkpt><trkpt lat="44.21966085784899" lon="10.813227888580641"><ele>468.0</ele><time>2026-05-02T09:40:53.999Z</time></trkpt><trkpt lat="44.219499123912314" lon="10.813061450235455"><ele>467.0</ele><time>2026-05-02T09:40:54.999Z</time></trkpt><trkpt lat="44.219379078146815" lon="10.81285238708165"><ele>471.3333333333333</ele><time>2026-05-02T09:40:55.999Z</time></trkpt><trkpt lat="44.21932590840049" lon="10.812617943587634"><ele>475.66666666666663</ele><time>2026-05-02T09:40:56.999Z</time></trkpt><trkpt lat="44.21924478192543" lon="10.81238637066323"><ele>480.0</ele><time>2026-05-02T09:40:57.999Z</time></trkpt><trkpt lat="44.219146015286135" lon="10.8121446481138"><ele>480.0</ele><time>2026-05-02T09:40:58.999Z</time></trkpt><trkpt lat="44.219023753942054" lon="10.811909119598742"><ele>480.0</ele><time>2026-05-02T09:40:59.999Z</time></trkpt><trkpt lat="44.21887963713441" lon="10.811692215700653"><ele>480.0</ele><time>2026-05-02T09:41:00.999Z</time></trkpt><trkpt lat="44.21870745989327" lon="10.81150474386132"><ele>481.33333333333337</ele><time>2026-05-02T09:41:01.999Z</time></trkpt><trkpt lat="44.218522618762414" lon="10.811329149728858"><ele>482.6666666666667</ele><time>2026-05-02T09:41:02.999Z</time></trkpt><trkpt lat="44.21834403711534" lon="10.81117024015069"><ele>484.0</ele><time>2026-05-02T09:41:03.999Z</time></trkpt><trkpt lat="44.218198150872496" lon="10.811003716476804"><ele>482.25</ele><time>2026-05-02T09:41:04.999Z</time></trkpt><trkpt lat="44.21806274998796" lon="10.810882866755586"><ele>480.5</ele><time>2026-05-02T09:41:05.999Z</time></trkpt><trkpt lat="44.21799208281586" lon="10.810746065784414"><ele>478.75</ele><time>2026-05-02T09:41:06.999Z</time></trkpt><trkpt lat="44.21797697906883" lon="10.810607991048323"><ele>477.0</ele><time>2026-05-02T09:41:07.999Z</time></trkpt><trkpt lat="44.21800782333353" lon="10.81043282041856"><ele>477.0</ele><time>2026-05-02T09:41:08.999Z</time></trkpt><trkpt lat="44.21804849379023" lon="10.810233366918357"><ele>477.0</ele><time>2026-05-02T09:41:09.999Z</time></trkpt><trkpt lat="44.21808898571046" lon="10.809999836052718"><ele>477.0</ele><time>2026-05-02T09:41:10.999Z</time></trkpt><trkpt lat="44.2181070987471" lon="10.80974223382691"><ele>477.75</ele><time>2026-05-02T09:41:11.999Z</time></trkpt><trkpt lat="44.218106196469165" lon="10.80950191380571"><ele>478.5</ele><time>2026-05-02T09:41:12.999Z</time></trkpt><trkpt lat="44.21807430708939" lon="10.809303162733755"><ele>479.25</ele><time>2026-05-02T09:41:13.999Z</time></trkpt><trkpt lat="44.21805776171186" lon="10.809151630934462"><ele>480.0</ele><time>2026-05-02T09:41:14.999Z</time></trkpt><trkpt lat="44.218071701242074" lon="10.809048172050009"><ele>481.0</ele><time>2026-05-02T09:41:15.999Z</time></trkpt><trkpt lat="44.218114267346955" lon="10.808972934336845"><ele>482.0</ele><time>2026-05-02T09:41:16.999Z</time></trkpt><trkpt lat="44.2181925869978" lon="10.808955795610846"><ele>483.0</ele><time>2026-05-02T09:41:17.999Z</time></trkpt><trkpt lat="44.21827601726214" lon="10.80900322460444"><ele>484.0</ele><time>2026-05-02T09:41:18.999Z</time></trkpt><trkpt lat="44.21834193163679" lon="10.809112736925314"><ele>485.0</ele><time>2026-05-02T09:41:19.999Z</time></trkpt><trkpt lat="44.21840860832199" lon="10.809213846154497"><ele>486.0</ele><time>2026-05-02T09:41:20.999Z</time></trkpt><trkpt lat="44.218472202535345" lon="10.809306903281584"><ele>488.5</ele><time>2026-05-02T09:41:21.999Z</time></trkpt><trkpt lat="44.218517525827835" lon="10.80940901083909"><ele>491.0</ele><time>2026-05-02T09:41:22.999Z</time></trkpt><trkpt lat="44.21854018235688" lon="10.8095336813255"><ele>493.5</ele><time>2026-05-02T09:41:23.999Z</time></trkpt><trkpt lat="44.2185455566243" lon="10.809664506825632"><ele>496.0</ele><time>2026-05-02T09:41:24.999Z</time></trkpt><trkpt lat="44.21853438466665" lon="10.80979078632055"><ele>498.5</ele><time>2026-05-02T09:41:26Z</time></trkpt><trkpt lat="44.21852678556208" lon="10.80990299382875"><ele>501.0</ele><time>2026-05-02T09:41:27Z</time></trkpt><trkpt lat="44.21854267276119" lon="10.809991226225183"><ele>501.0</ele><time>2026-05-02T09:41:28Z</time></trkpt><trkpt lat="44.218635828417256" lon="10.810098313101717"><ele>501.0</ele><time>2026-05-02T09:41:30Z</time></trkpt><trkpt lat="44.21870061201517" lon="10.810104587974955"><ele>501.0</ele><time>2026-05-02T09:41:31Z</time></trkpt><trkpt lat="44.218760388000874" lon="10.81006294931278"><ele>501.0</ele><time>2026-05-02T09:41:32Z</time></trkpt><trkpt lat="44.2188084880023" lon="10.80998860831363"><ele>501.0</ele><time>2026-05-02T09:41:33Z</time></trkpt><trkpt lat="44.218817577300214" lon="10.809863559832461"><ele>501.0</ele><time>2026-05-02T09:41:34Z</time></trkpt><trkpt lat="44.21880365546655" lon="10.809739420998916"><ele>501.0</ele><time>2026-05-02T09:41:35Z</time></trkpt><trkpt lat="44.21877844637657" lon="10.809614158425877"><ele>501.0</ele><time>2026-05-02T09:41:36Z</time></trkpt><trkpt lat="44.2187368949098" lon="10.80948530854311"><ele>501.0</ele><time>2026-05-02T09:41:37Z</time></trkpt><trkpt lat="44.218718551204226" lon="10.80935010986976"><ele>501.0</ele><time>2026-05-02T09:41:38Z</time></trkpt><trkpt lat="44.218702607008034" lon="10.809218296250386"><ele>501.0</ele><time>2026-05-02T09:41:39Z</time></trkpt><trkpt lat="44.21870767907842" lon="10.809077426988846"><ele>501.6</ele><time>2026-05-02T09:41:40Z</time></trkpt><trkpt lat="44.21868179018544" lon="10.808937248426423"><ele>502.20000000000005</ele><time>2026-05-02T09:41:41Z</time></trkpt><trkpt lat="44.218675567294895" lon="10.808790607168367"><ele>502.79999999999995</ele><time>2026-05-02T09:41:42Z</time></trkpt><trkpt lat="44.218668363291684" lon="10.808636617189125"><ele>503.4</ele><time>2026-05-02T09:41:43Z</time></trkpt><trkpt lat="44.21866531992556" lon="10.808476993262158"><ele>504.0</ele><time>2026-05-02T09:41:44Z</time></trkpt><trkpt lat="44.21867309427646" lon="10.808321774694198"><ele>504.3333333333333</ele><time>2026-05-02T09:41:45Z</time></trkpt><trkpt lat="44.21869469046463" lon="10.808186144049037"><ele>504.66666666666663</ele><time>2026-05-02T09:41:46Z</time></trkpt><trkpt lat="44.218723571772514" lon="10.808075542035166"><ele>505.0</ele><time>2026-05-02T09:41:47Z</time></trkpt><trkpt lat="44.21874943317543" lon="10.807984000735443"><ele>505.3333333333333</ele><time>2026-05-02T09:41:48Z</time></trkpt><trkpt lat="44.21879905229372" lon="10.807889981391538"><ele>505.66666666666663</ele><time>2026-05-02T09:41:50Z</time></trkpt><trkpt lat="44.218873594685085" lon="10.807820414571523"><ele>506.0</ele><time>2026-05-02T09:41:52Z</time></trkpt><trkpt lat="44.2189771058919" lon="10.807759874880198"><ele>508.0</ele><time>2026-05-02T09:41:54Z</time></trkpt><trkpt lat="44.21905873889758" lon="10.807668036644154"><ele>510.0</ele><time>2026-05-02T09:41:56Z</time></trkpt><trkpt lat="44.2191256466513" lon="10.807597821615357"><ele>512.0</ele><time>2026-05-02T09:41:57Z</time></trkpt><trkpt lat="44.219209372683565" lon="10.8075288435709"><ele>514.0</ele><time>2026-05-02T09:41:58Z</time></trkpt><trkpt lat="44.21929631622035" lon="10.807455767617235"><ele>516.0</ele><time>2026-05-02T09:41:59Z</time></trkpt><trkpt lat="44.21938506456895" lon="10.807386557528801"><ele>516.0</ele><time>2026-05-02T09:42:00Z</time></trkpt><trkpt lat="44.21947240312332" lon="10.807346035518606"><ele>516.0</ele><time>2026-05-02T09:42:01Z</time></trkpt><trkpt lat="44.219556195774956" lon="10.80734395323994"><ele>516.0</ele><time>2026-05-02T09:42:02Z</time></trkpt><trkpt lat="44.21964019225055" lon="10.807378648132905"><ele>516.0</ele><time>2026-05-02T09:42:03Z</time></trkpt><trkpt lat="44.219726724771895" lon="10.807458838909485"><ele>516.0</ele><time>2026-05-02T09:42:04Z</time></trkpt><trkpt lat="44.219818012812766" lon="10.80758386144643"><ele>517.3333333333334</ele><time>2026-05-02T09:42:05Z</time></trkpt><trkpt lat="44.21991933476727" lon="10.807742145901027"><ele>518.6666666666667</ele><time>2026-05-02T09:42:06Z</time></trkpt><trkpt lat="44.22002455605494" lon="10.80791689704877"><ele>520.0</ele><time>2026-05-02T09:42:07Z</time></trkpt><trkpt lat="44.22013172084944" lon="10.808088885115037"><ele>520.0</ele><time>2026-05-02T09:42:08Z</time></trkpt><trkpt lat="44.22024394650265" lon="10.808263862043177"><ele>520.0</ele><time>2026-05-02T09:42:09Z</time></trkpt><trkpt lat="44.22035606180287" lon="10.808434442865583"><ele>520.0</ele><time>2026-05-02T09:42:10Z</time></trkpt><trkpt lat="44.22045489307913" lon="10.808583618460236"><ele>520.2</ele><time>2026-05-02T09:42:11Z</time></trkpt><trkpt lat="44.22055238448199" lon="10.80869375358669"><ele>520.4</ele><time>2026-05-02T09:42:12Z</time></trkpt><trkpt lat="44.22065579473734" lon="10.808771906441242"><ele>520.6</ele><time>2026-05-02T09:42:13Z</time></trkpt><trkpt lat="44.22075172478655" lon="10.808814293658395"><ele>520.8</ele><time>2026-05-02T09:42:14Z</time></trkpt><trkpt lat="44.220837431922575" lon="10.808815224122188"><ele>521.0</ele><time>2026-05-02T09:42:15Z</time></trkpt><trkpt lat="44.22090446846971" lon="10.808770787882215"><ele>521.0</ele><time>2026-05-02T09:42:16Z</time></trkpt><trkpt lat="44.22097373285215" lon="10.808685510904114"><ele>521.0</ele><time>2026-05-02T09:42:17Z</time></trkpt><trkpt lat="44.22105255068495" lon="10.808575793939045"><ele>521.0</ele><time>2026-05-02T09:42:18Z</time></trkpt><trkpt lat="44.2211566034665" lon="10.808466741119314"><ele>521.0</ele><time>2026-05-02T09:42:19Z</time></trkpt><trkpt lat="44.22127480494996" lon="10.808360864339157"><ele>522.25</ele><time>2026-05-02T09:42:20Z</time></trkpt><trkpt lat="44.22138156750975" lon="10.808223721237852"><ele>523.5</ele><time>2026-05-02T09:42:21Z</time></trkpt><trkpt lat="44.22146579136111" lon="10.808056664420004"><ele>524.75</ele><time>2026-05-02T09:42:22Z</time></trkpt><trkpt lat="44.221553611177235" lon="10.807915696850944"><ele>526.0</ele><time>2026-05-02T09:42:23Z</time></trkpt><trkpt lat="44.221659511557554" lon="10.807801705086067"><ele>529.25</ele><time>2026-05-02T09:42:24Z</time></trkpt><trkpt lat="44.22178370336929" lon="10.807705924572865"><ele>532.5</ele><time>2026-05-02T09:42:25Z</time></trkpt><trkpt lat="44.22190082504647" lon="10.807573963508075"><ele>535.75</ele><time>2026-05-02T09:42:25.999Z</time></trkpt><trkpt lat="44.22199363346581" lon="10.807404720320822"><ele>539.0</ele><time>2026-05-02T09:42:26.999Z</time></trkpt><trkpt lat="44.222110048521834" lon="10.807266657890645"><ele>540.75</ele><time>2026-05-02T09:42:27.999Z</time></trkpt><trkpt lat="44.22222358407749" lon="10.807125443019777"><ele>542.5</ele><time>2026-05-02T09:42:28.999Z</time></trkpt><trkpt lat="44.22233412402463" lon="10.807011706056251"><ele>544.25</ele><time>2026-05-02T09:42:29.999Z</time></trkpt><trkpt lat="44.22242769728668" lon="10.806924053510821"><ele>546.0</ele><time>2026-05-02T09:42:30.999Z</time></trkpt><trkpt lat="44.22252503178663" lon="10.806900715423534"><ele>547.0</ele><time>2026-05-02T09:42:31.999Z</time></trkpt><trkpt lat="44.22263461716985" lon="10.806917427623347"><ele>548.0</ele><time>2026-05-02T09:42:32.999Z</time></trkpt><trkpt lat="44.22273709909901" lon="10.8069622981072"><ele>549.0</ele><time>2026-05-02T09:42:33.999Z</time></trkpt><trkpt lat="44.222819016227746" lon="10.806974491215176"><ele>550.0</ele><time>2026-05-02T09:42:34.999Z</time></trkpt><trkpt lat="44.22288567190129" lon="10.806965239562285"><ele>551.0</ele><time>2026-05-02T09:42:35.999Z</time></trkpt><trkpt lat="44.22292157419228" lon="10.80684004324764"><ele>553.0</ele><time>2026-05-02T09:42:36.999Z</time></trkpt><trkpt lat="44.2229419083141" lon="10.806700744691666"><ele>555.0</ele><time>2026-05-02T09:42:37.999Z</time></trkpt><trkpt lat="44.22296769161544" lon="10.806531419667538"><ele>557.0</ele><time>2026-05-02T09:42:38.999Z</time></trkpt><trkpt lat="44.22295908165319" lon="10.80632387502087"><ele>559.0</ele><time>2026-05-02T09:42:39.999Z</time></trkpt><trkpt lat="44.22290944624886" lon="10.806106191538138"><ele>561.3333333333334</ele><time>2026-05-02T09:42:40.999Z</time></trkpt><trkpt lat="44.22286900787633" lon="10.80587224004307"><ele>563.6666666666666</ele><time>2026-05-02T09:42:41.999Z</time></trkpt><trkpt lat="44.222884867951635" lon="10.80563846016736"><ele>566.0</ele><time>2026-05-02T09:42:42.999Z</time></trkpt><trkpt lat="44.222882889923085" lon="10.805418686225549"><ele>566.0</ele><time>2026-05-02T09:42:43.999Z</time></trkpt><trkpt lat="44.222875947666424" lon="10.80524285345954"><ele>566.0</ele><time>2026-05-02T09:42:44.999Z</time></trkpt><trkpt lat="44.2228804045302" lon="10.805102457257021"><ele>566.0</ele><time>2026-05-02T09:42:45.999Z</time></trkpt><trkpt lat="44.22295877418644" lon="10.805015621391268"><ele>566.0</ele><time>2026-05-02T09:42:46.999Z</time></trkpt><trkpt lat="44.22303631261926" lon="10.80490406660484"><ele>566.0</ele><time>2026-05-02T09:42:47.999Z</time></trkpt><trkpt lat="44.22313992169443" lon="10.80481086415681"><ele>571.3333333333333</ele><time>2026-05-02T09:42:48.999Z</time></trkpt><trkpt lat="44.2232747252199" lon="10.804753598977737"><ele>576.6666666666666</ele><time>2026-05-02T09:42:49.999Z</time></trkpt><trkpt lat="44.22342113596129" lon="10.80470996068577"><ele>582.0</ele><time>2026-05-02T09:42:50.999Z</time></trkpt><trkpt lat="44.22358382324241" lon="10.804644546654666"><ele>582.0</ele><time>2026-05-02T09:42:51.999Z</time></trkpt><trkpt lat="44.22376698206253" lon="10.804598279952303"><ele>582.0</ele><time>2026-05-02T09:42:52.999Z</time></trkpt><trkpt lat="44.22395596833129" lon="10.804544635101564"><ele>582.0</ele><time>2026-05-02T09:42:53.999Z</time></trkpt><trkpt lat="44.22412646592233" lon="10.804501583488728"><ele>582.0</ele><time>2026-05-02T09:42:54.999Z</time></trkpt><trkpt lat="44.22426599698671" lon="10.804471452712225"><ele>582.0</ele><time>2026-05-02T09:42:55.999Z</time></trkpt><trkpt lat="44.22436663234838" lon="10.804440452411413"><ele>582.0</ele><time>2026-05-02T09:42:56.999Z</time></trkpt><trkpt lat="44.22444036786058" lon="10.804415066455666"><ele>582.0</ele><time>2026-05-02T09:42:57.999Z</time></trkpt><trkpt lat="44.2244894841482" lon="10.804329484022483"><ele>582.0</ele><time>2026-05-02T09:42:58.999Z</time></trkpt><trkpt lat="44.22449164763012" lon="10.804172783410946"><ele>584.6666666666666</ele><time>2026-05-02T09:42:59.999Z</time></trkpt><trkpt lat="44.2244435697071" lon="10.804004089613311"><ele>587.3333333333333</ele><time>2026-05-02T09:43:00.999Z</time></trkpt><trkpt lat="44.22439886123441" lon="10.803803529543066"><ele>590.0</ele><time>2026-05-02T09:43:01.999Z</time></trkpt><trkpt lat="44.22434185087657" lon="10.803578728220973"><ele>591.75</ele><time>2026-05-02T09:43:02.999Z</time></trkpt><trkpt lat="44.22428646549599" lon="10.80337521506821"><ele>593.5</ele><time>2026-05-02T09:43:03.999Z</time></trkpt><trkpt lat="44.22421866201636" lon="10.803213671959814"><ele>595.25</ele><time>2026-05-02T09:43:04.999Z</time></trkpt><trkpt lat="44.224167767241376" lon="10.803072386611344"><ele>597.0</ele><time>2026-05-02T09:43:05.999Z</time></trkpt><trkpt lat="44.22414467455182" lon="10.802932368292685"><ele>597.0</ele><time>2026-05-02T09:43:06.999Z</time></trkpt><trkpt lat="44.22417272657172" lon="10.802801295752118"><ele>597.0</ele><time>2026-05-02T09:43:07.999Z</time></trkpt><trkpt lat="44.22422694101804" lon="10.802645283900942"><ele>597.0</ele><time>2026-05-02T09:43:08.999Z</time></trkpt><trkpt lat="44.22430338395876" lon="10.802456932481867"><ele>597.0</ele><time>2026-05-02T09:43:09.999Z</time></trkpt><trkpt lat="44.22435991515026" lon="10.802219527044592"><ele>598.3333333333334</ele><time>2026-05-02T09:43:10.999Z</time></trkpt><trkpt lat="44.22441309523604" lon="10.80197359943386"><ele>599.6666666666667</ele><time>2026-05-02T09:43:11.999Z</time></trkpt><trkpt lat="44.2244521307776" lon="10.801771658977605"><ele>601.0</ele><time>2026-05-02T09:43:12.999Z</time></trkpt><trkpt lat="44.22447244204086" lon="10.801587089318623"><ele>602.0</ele><time>2026-05-02T09:43:13.999Z</time></trkpt><trkpt lat="44.22448152170998" lon="10.801435560704924"><ele>603.0</ele><time>2026-05-02T09:43:14.999Z</time></trkpt><trkpt lat="44.22449321164695" lon="10.801318661141266"><ele>604.0</ele><time>2026-05-02T09:43:15.999Z</time></trkpt><trkpt lat="44.22448577782583" lon="10.80122517376315"><ele>605.0</ele><time>2026-05-02T09:43:16.999Z</time></trkpt><trkpt lat="44.22450409053595" lon="10.801129632553272"><ele>606.0</ele><time>2026-05-02T09:43:18.999Z</time></trkpt><trkpt lat="44.224413004139066" lon="10.80104278015504"><ele>607.0</ele><time>2026-05-02T09:43:20.999Z</time></trkpt><trkpt lat="44.22434992307014" lon="10.801015164655025"><ele>608.2</ele><time>2026-05-02T09:43:21.999Z</time></trkpt><trkpt lat="44.22428969981764" lon="10.80095386466695"><ele>609.4000000000001</ele><time>2026-05-02T09:43:22.999Z</time></trkpt><trkpt lat="44.22423458779274" lon="10.800905109550248"><ele>610.5999999999999</ele><time>2026-05-02T09:43:23.999Z</time></trkpt><trkpt lat="44.22417117716065" lon="10.80082904818393"><ele>611.8</ele><time>2026-05-02T09:43:25.999Z</time></trkpt><trkpt lat="44.224298929034525" lon="10.800690236963447"><ele>613.0</ele><time>2026-05-02T09:43:28.999Z</time></trkpt><trkpt lat="44.224370847390226" lon="10.80061060318185"><ele>613.0</ele><time>2026-05-02T09:43:29.999Z</time></trkpt><trkpt lat="44.224424916044526" lon="10.800513018377888"><ele>613.0</ele><time>2026-05-02T09:43:31Z</time></trkpt><trkpt lat="44.22449239052284" lon="10.800425146862475"><ele>613.0</ele><time>2026-05-02T09:43:32Z</time></trkpt><trkpt lat="44.2245380334005" lon="10.800300401175214"><ele>613.0</ele><time>2026-05-02T09:43:33Z</time></trkpt><trkpt lat="44.22455919541722" lon="10.800164482471114"><ele>613.0</ele><time>2026-05-02T09:43:34Z</time></trkpt><trkpt lat="44.22459254915882" lon="10.80002866635045"><ele>614.25</ele><time>2026-05-02T09:43:35Z</time></trkpt><trkpt lat="44.22465404401676" lon="10.799910390321266"><ele>615.5</ele><time>2026-05-02T09:43:36Z</time></trkpt><trkpt lat="44.22471924157838" lon="10.799779735229322"><ele>616.75</ele><time>2026-05-02T09:43:37Z</time></trkpt><trkpt lat="44.224796180411886" lon="10.799653463402901"><ele>618.0</ele><time>2026-05-02T09:43:38Z</time></trkpt><trkpt lat="44.22487072603003" lon="10.799532039385518"><ele>619.0</ele><time>2026-05-02T09:43:39Z</time></trkpt><trkpt lat="44.224939078645164" lon="10.799410748741499"><ele>620.0</ele><time>2026-05-02T09:43:40Z</time></trkpt><trkpt lat="44.22502064174487" lon="10.799332374631584"><ele>621.0</ele><time>2026-05-02T09:43:41Z</time></trkpt><trkpt lat="44.22507994028017" lon="10.799266162788214"><ele>622.0</ele><time>2026-05-02T09:43:42Z</time></trkpt><trkpt lat="44.22513523106523" lon="10.799202489355169"><ele>623.0</ele><time>2026-05-02T09:43:43Z</time></trkpt><trkpt lat="44.22515718822913" lon="10.799080334554871"><ele>624.0</ele><time>2026-05-02T09:43:44Z</time></trkpt><trkpt lat="44.22515482536147" lon="10.798949611635155"><ele>625.5</ele><time>2026-05-02T09:43:45Z</time></trkpt><trkpt lat="44.225144110640244" lon="10.798810833878226"><ele>627.0</ele><time>2026-05-02T09:43:46Z</time></trkpt><trkpt lat="44.22511544552793" lon="10.798659302091075"><ele>628.5</ele><time>2026-05-02T09:43:47Z</time></trkpt><trkpt lat="44.225057061070146" lon="10.79850323560528"><ele>630.0</ele><time>2026-05-02T09:43:48Z</time></trkpt><trkpt lat="44.22497209431905" lon="10.79836169592115"><ele>631.0</ele><time>2026-05-02T09:43:49Z</time></trkpt><trkpt lat="44.224884068401295" lon="10.798188125861698"><ele>632.0</ele><time>2026-05-02T09:43:50Z</time></trkpt><trkpt lat="44.22479846502955" lon="10.798008596866477"><ele>633.0</ele><time>2026-05-02T09:43:51Z</time></trkpt><trkpt lat="44.22474768389964" lon="10.797830373888674"><ele>634.0</ele><time>2026-05-02T09:43:52Z</time></trkpt><trkpt lat="44.22470996501289" lon="10.797689302909625"><ele>635.8</ele><time>2026-05-02T09:43:53Z</time></trkpt><trkpt lat="44.2246666334893" lon="10.797569612800144"><ele>637.5999999999999</ele><time>2026-05-02T09:43:54Z</time></trkpt><trkpt lat="44.224654837996184" lon="10.797470320057455"><ele>639.4</ele><time>2026-05-02T09:43:55Z</time></trkpt><trkpt lat="44.22466513510388" lon="10.797302426761654"><ele>641.1999999999999</ele><time>2026-05-02T09:43:57Z</time></trkpt><trkpt lat="44.224695426953936" lon="10.797195403784961"><ele>643.0</ele><time>2026-05-02T09:43:58Z</time></trkpt><trkpt lat="44.22472726913314" lon="10.797074594416893"><ele>643.0</ele><time>2026-05-02T09:43:59Z</time></trkpt><trkpt lat="44.224756548935105" lon="10.796961343369361"><ele>643.0</ele><time>2026-05-02T09:44:00Z</time></trkpt><trkpt lat="44.22477414570184" lon="10.796842277729148"><ele>643.0</ele><time>2026-05-02T09:44:01Z</time></trkpt><trkpt lat="44.22479544748099" lon="10.79671681325628"><ele>643.0</ele><time>2026-05-02T09:44:02Z</time></trkpt><trkpt lat="44.224757728338034" lon="10.796585766981497"><ele>643.0</ele><time>2026-05-02T09:44:03Z</time></trkpt><trkpt lat="44.22472723343776" lon="10.796452699264297"><ele>644.5999999999999</ele><time>2026-05-02T09:44:04Z</time></trkpt><trkpt lat="44.22472503472815" lon="10.796345600076553"><ele>646.1999999999999</ele><time>2026-05-02T09:44:05Z</time></trkpt><trkpt lat="44.22471936690849" lon="10.796187461599823"><ele>647.8</ele><time>2026-05-02T09:44:07Z</time></trkpt><trkpt lat="44.22477867796881" lon="10.796123003849427"><ele>649.4</ele><time>2026-05-02T09:44:08Z</time></trkpt><trkpt lat="44.224869332009284" lon="10.796068428092836"><ele>651.0</ele><time>2026-05-02T09:44:09Z</time></trkpt><trkpt lat="44.22495511385056" lon="10.79602323630753"><ele>652.2857142857143</ele><time>2026-05-02T09:44:10Z</time></trkpt><trkpt lat="44.225029582772315" lon="10.795984551697254"><ele>653.5714285714286</ele><time>2026-05-02T09:44:11Z</time></trkpt><trkpt lat="44.22510095773714" lon="10.795947068678817"><ele>654.8571428571429</ele><time>2026-05-02T09:44:12Z</time></trkpt><trkpt lat="44.225171208506296" lon="10.795909503115723"><ele>656.1428571428571</ele><time>2026-05-02T09:44:13Z</time></trkpt><trkpt lat="44.225242067480075" lon="10.795869987997563"><ele>657.4285714285714</ele><time>2026-05-02T09:44:14Z</time></trkpt><trkpt lat="44.22531054275887" lon="10.795831420349083"><ele>658.7142857142858</ele><time>2026-05-02T09:44:15Z</time></trkpt><trkpt lat="44.22537334655111" lon="10.795793843243926"><ele>660.0</ele><time>2026-05-02T09:44:16Z</time></trkpt><trkpt lat="44.22543888016571" lon="10.795759980215951"><ele>660.0000000000001</ele><time>2026-05-02T09:44:17Z</time></trkpt><trkpt lat="44.22550864905318" lon="10.795721993592002"><ele>660.0</ele><time>2026-05-02T09:44:18Z</time></trkpt><trkpt lat="44.22557673058043" lon="10.795680459471432"><ele>660.0</ele><time>2026-05-02T09:44:19Z</time></trkpt><trkpt lat="44.22564470811038" lon="10.795641958405543"><ele>660.0</ele><time>2026-05-02T09:44:20Z</time></trkpt><trkpt lat="44.225714781091796" lon="10.795602695751953"><ele>660.0</ele><time>2026-05-02T09:44:21Z</time></trkpt><trkpt lat="44.22578432713865" lon="10.795564372222533"><ele>660.0000000000001</ele><time>2026-05-02T09:44:22Z</time></trkpt><trkpt lat="44.22585307907342" lon="10.795517377194766"><ele>660.0</ele><time>2026-05-02T09:44:23Z</time></trkpt><trkpt lat="44.225908188089534" lon="10.795448858125818"><ele>660.6666666666666</ele><time>2026-05-02T09:44:24Z</time></trkpt><trkpt lat="44.22596927685668" lon="10.79537013278463"><ele>661.3333333333334</ele><time>2026-05-02T09:44:25Z</time></trkpt><trkpt lat="44.2260051033842" lon="10.795251237710726"><ele>662.0</ele><time>2026-05-02T09:44:26Z</time></trkpt><trkpt lat="44.22604468612319" lon="10.79514644027849"><ele>662.6666666666667</ele><time>2026-05-02T09:44:26.999Z</time></trkpt><trkpt lat="44.22608422642415" lon="10.795051955979075"><ele>663.3333333333334</ele><time>2026-05-02T09:44:27.999Z</time></trkpt><trkpt lat="44.22612912444046" lon="10.79496858851167"><ele>664.0</ele><time>2026-05-02T09:44:28.999Z</time></trkpt><trkpt lat="44.226185111767556" lon="10.79490256216056"><ele>666.0</ele><time>2026-05-02T09:44:29.999Z</time></trkpt><trkpt lat="44.22624213708881" lon="10.794825749503818"><ele>668.0</ele><time>2026-05-02T09:44:30.999Z</time></trkpt><trkpt lat="44.226319829419204" lon="10.794776135623245"><ele>670.0</ele><time>2026-05-02T09:44:31.999Z</time></trkpt><trkpt lat="44.22640711331957" lon="10.794745788486043"><ele>672.0</ele><time>2026-05-02T09:44:32.999Z</time></trkpt><trkpt lat="44.22649662686974" lon="10.794739534415555"><ele>674.0</ele><time>2026-05-02T09:44:33.999Z</time></trkpt><trkpt lat="44.22658451900083" lon="10.794741572012086"><ele>676.0</ele><time>2026-05-02T09:44:34.999Z</time></trkpt><trkpt lat="44.22667335493447" lon="10.794754923797429"><ele>677.6666666666667</ele><time>2026-05-02T09:44:35.999Z</time></trkpt><trkpt lat="44.22676434782036" lon="10.794731004514805"><ele>679.3333333333334</ele><time>2026-05-02T09:44:36.999Z</time></trkpt><trkpt lat="44.22684939549749" lon="10.794679291940275"><ele>681.0</ele><time>2026-05-02T09:44:37.999Z</time></trkpt><trkpt lat="44.22693357678223" lon="10.794654587365896"><ele>682.6666666666666</ele><time>2026-05-02T09:44:38.999Z</time></trkpt><trkpt lat="44.22700858890931" lon="10.794629807807164"><ele>684.3333333333333</ele><time>2026-05-02T09:44:39.999Z</time></trkpt><trkpt lat="44.22708259039325" lon="10.794595440357291"><ele>686.0</ele><time>2026-05-02T09:44:40.999Z</time></trkpt><trkpt lat="44.22715153147205" lon="10.79455752555629"><ele>686.0</ele><time>2026-05-02T09:44:41.999Z</time></trkpt><trkpt lat="44.22721434982896" lon="10.794514678868552"><ele>686.0</ele><time>2026-05-02T09:44:42.999Z</time></trkpt><trkpt lat="44.22727715968129" lon="10.794473072097011"><ele>686.0</ele><time>2026-05-02T09:44:43.999Z</time></trkpt><trkpt lat="44.22734277448849" lon="10.794443547683109"><ele>686.0</ele><time>2026-05-02T09:44:44.999Z</time></trkpt><trkpt lat="44.2274108190561" lon="10.794434982243214"><ele>686.0</ele><time>2026-05-02T09:44:45.999Z</time></trkpt><trkpt lat="44.227480296660524" lon="10.794444757445952"><ele>686.0</ele><time>2026-05-02T09:44:46.999Z</time></trkpt><trkpt lat="44.22756577274869" lon="10.794417302716626"><ele>686.0</ele><time>2026-05-02T09:44:48.999Z</time></trkpt><trkpt lat="44.22757283789325" lon="10.794278298158396"><ele>689.4</ele><time>2026-05-02T09:44:50.999Z</time></trkpt><trkpt lat="44.227519094777435" lon="10.7942273948961"><ele>692.8</ele><time>2026-05-02T09:44:51.999Z</time></trkpt><trkpt lat="44.227436150209286" lon="10.794217643039826"><ele>696.1999999999999</ele><time>2026-05-02T09:44:52.999Z</time></trkpt><trkpt lat="44.22732771281067" lon="10.794208562134752"><ele>699.5999999999999</ele><time>2026-05-02T09:44:53.999Z</time></trkpt><trkpt lat="44.227220644187064" lon="10.79418435498469"><ele>703.0</ele><time>2026-05-02T09:44:54.999Z</time></trkpt><trkpt lat="44.22712951929615" lon="10.794159820653228"><ele>703.0</ele><time>2026-05-02T09:44:55.999Z</time></trkpt><trkpt lat="44.22705806908527" lon="10.794143295072598"><ele>703.0</ele><time>2026-05-02T09:44:56.999Z</time></trkpt><trkpt lat="44.226986155970124" lon="10.794128908822286"><ele>703.0</ele><time>2026-05-02T09:44:57.999Z</time></trkpt><trkpt lat="44.22691280956542" lon="10.794113373880682"><ele>703.0</ele><time>2026-05-02T09:44:58.999Z</time></trkpt><trkpt lat="44.22681312552239" lon="10.79408250694601"><ele>703.0</ele><time>2026-05-02T09:45:00.999Z</time></trkpt><trkpt lat="44.22674100298862" lon="10.794040736086627"><ele>703.0</ele><time>2026-05-02T09:45:02.999Z</time></trkpt><trkpt lat="44.22674151005848" lon="10.793934278544146"><ele>703.0</ele><time>2026-05-02T09:45:04.999Z</time></trkpt><trkpt lat="44.226820837252106" lon="10.793916289846734"><ele>703.0</ele><time>2026-05-02T09:45:05.999Z</time></trkpt><trkpt lat="44.226898877104055" lon="10.793920159648108"><ele>703.0</ele><time>2026-05-02T09:45:06.999Z</time></trkpt><trkpt lat="44.22696599558341" lon="10.793894098847856"><ele>703.0</ele><time>2026-05-02T09:45:07.999Z</time></trkpt><trkpt lat="44.227033087844546" lon="10.793882125598648"><ele>703.0</ele><time>2026-05-02T09:45:08.999Z</time></trkpt><trkpt lat="44.22715276189135" lon="10.79384234987072"><ele>703.0</ele><time>2026-05-02T09:45:10.999Z</time></trkpt><trkpt lat="44.22725817864071" lon="10.793783773427233"><ele>703.2</ele><time>2026-05-02T09:45:12.999Z</time></trkpt><trkpt lat="44.227352594159086" lon="10.793694305302848"><ele>703.4</ele><time>2026-05-02T09:45:14.999Z</time></trkpt><trkpt lat="44.227413831066606" lon="10.793587654840433"><ele>703.6</ele><time>2026-05-02T09:45:16.999Z</time></trkpt><trkpt lat="44.22741068570999" lon="10.793441908141146"><ele>703.8000000000001</ele><time>2026-05-02T09:45:18.999Z</time></trkpt><trkpt lat="44.22729199292948" lon="10.793406448589119"><ele>704.0</ele><time>2026-05-02T09:45:20.999Z</time></trkpt><trkpt lat="44.22722118114403" lon="10.793484303228565"><ele>703.8333333333333</ele><time>2026-05-02T09:45:21.999Z</time></trkpt><trkpt lat="44.22715292088645" lon="10.793536483234863"><ele>703.6666666666666</ele><time>2026-05-02T09:45:22.999Z</time></trkpt><trkpt lat="44.22707519925021" lon="10.793521848600797"><ele>703.5</ele><time>2026-05-02T09:45:23.999Z</time></trkpt><trkpt lat="44.226988027986344" lon="10.793523532821913"><ele>703.3333333333334</ele><time>2026-05-02T09:45:24.999Z</time></trkpt><trkpt lat="44.22689886558643" lon="10.793548184481587"><ele>703.1666666666667</ele><time>2026-05-02T09:45:25.999Z</time></trkpt><trkpt lat="44.226811289813895" lon="10.793528052008162"><ele>703.0</ele><time>2026-05-02T09:45:26.999Z</time></trkpt><trkpt lat="44.22673369442042" lon="10.793525633668597"><ele>703.0</ele><time>2026-05-02T09:45:27.999Z</time></trkpt><trkpt lat="44.226662265847914" lon="10.793517847653636"><ele>703.0</ele><time>2026-05-02T09:45:28.999Z</time></trkpt><trkpt lat="44.22658764071026" lon="10.793505423738273"><ele>703.0</ele><time>2026-05-02T09:45:29.999Z</time></trkpt><trkpt lat="44.22651189265409" lon="10.793479988217307"><ele>703.0</ele><time>2026-05-02T09:45:30.999Z</time></trkpt><trkpt lat="44.22644021983732" lon="10.793426245113293"><ele>703.0</ele><time>2026-05-02T09:45:31.999Z</time></trkpt><trkpt lat="44.226396697997075" lon="10.793330773414626"><ele>703.0</ele><time>2026-05-02T09:45:32.999Z</time></trkpt><trkpt lat="44.2263598529192" lon="10.793237524158963"><ele>705.0</ele><time>2026-05-02T09:45:33.999Z</time></trkpt><trkpt lat="44.22632319132386" lon="10.793146651558036"><ele>707.0</ele><time>2026-05-02T09:45:34.999Z</time></trkpt><trkpt lat="44.226283366004445" lon="10.79306882053985"><ele>709.0</ele><time>2026-05-02T09:45:35.999Z</time></trkpt><trkpt lat="44.22623830431577" lon="10.79299548237115"><ele>711.0</ele><time>2026-05-02T09:45:37Z</time></trkpt><trkpt lat="44.22618155050745" lon="10.79292987238611"><ele>713.0</ele><time>2026-05-02T09:45:38Z</time></trkpt><trkpt lat="44.22612411721419" lon="10.792868976376022"><ele>715.0</ele><time>2026-05-02T09:45:39Z</time></trkpt><trkpt lat="44.22606372910676" lon="10.792817744846204"><ele>717.0</ele><time>2026-05-02T09:45:40Z</time></trkpt><trkpt lat="44.226022977454896" lon="10.792733582661864"><ele>720.0</ele><time>2026-05-02T09:45:41Z</time></trkpt><trkpt lat="44.225984111974675" lon="10.792590217177784"><ele>723.0</ele><time>2026-05-02T09:45:43Z</time></trkpt><trkpt lat="44.225943311674165" lon="10.792459588455593"><ele>726.0</ele><time>2026-05-02T09:45:45Z</time></trkpt><trkpt lat="44.22591372187984" lon="10.79232451774122"><ele>729.0</ele><time>2026-05-02T09:45:47Z</time></trkpt><trkpt lat="44.2258607872606" lon="10.792184029715257"><ele>732.0</ele><time>2026-05-02T09:45:49Z</time></trkpt><trkpt lat="44.225787802814" lon="10.792035817391355"><ele>732.0</ele><time>2026-05-02T09:45:51Z</time></trkpt><trkpt lat="44.225744161560506" lon="10.791961731514403"><ele>732.0</ele><time>2026-05-02T09:45:52Z</time></trkpt><trkpt lat="44.22566020061811" lon="10.791860386829534"><ele>732.0</ele><time>2026-05-02T09:45:54Z</time></trkpt><trkpt lat="44.22560894310548" lon="10.791807898876572"><ele>732.0</ele><time>2026-05-02T09:45:56Z</time></trkpt><trkpt lat="44.22553297205257" lon="10.79175615119247"><ele>732.0</ele><time>2026-05-02T09:45:58Z</time></trkpt><trkpt lat="44.22547073324765" lon="10.79168076753046"><ele>732.0</ele><time>2026-05-02T09:46:00Z</time></trkpt><trkpt lat="44.22545251850377" lon="10.791561476536483"><ele>732.1666666666666</ele><time>2026-05-02T09:46:01Z</time></trkpt><trkpt lat="44.225379712747774" lon="10.79154416727663"><ele>732.3333333333334</ele><time>2026-05-02T09:46:02Z</time></trkpt><trkpt lat="44.225317352573825" lon="10.791520750602876"><ele>732.5</ele><time>2026-05-02T09:46:03Z</time></trkpt><trkpt lat="44.225244853256406" lon="10.791494457542706"><ele>732.6666666666667</ele><time>2026-05-02T09:46:04Z</time></trkpt><trkpt lat="44.22516931517093" lon="10.791452757218721"><ele>732.8333333333334</ele><time>2026-05-02T09:46:05Z</time></trkpt><trkpt lat="44.225101391733716" lon="10.791367512271234"><ele>733.0</ele><time>2026-05-02T09:46:06Z</time></trkpt><trkpt lat="44.2250575874217" lon="10.791237221530118"><ele>733.0</ele><time>2026-05-02T09:46:07Z</time></trkpt><trkpt lat="44.22501142673678" lon="10.791074718077626"><ele>733.0</ele><time>2026-05-02T09:46:08Z</time></trkpt><trkpt lat="44.224976691615986" lon="10.790922155349152"><ele>733.0</ele><time>2026-05-02T09:46:09Z</time></trkpt><trkpt lat="44.22494025087629" lon="10.790825337723426"><ele>733.0</ele><time>2026-05-02T09:46:10Z</time></trkpt><trkpt lat="44.224920244018634" lon="10.790713161886567"><ele>733.0</ele><time>2026-05-02T09:46:11Z</time></trkpt><trkpt lat="44.22483544458976" lon="10.790563647386175"><ele>735.0</ele><time>2026-05-02T09:46:12Z</time></trkpt><trkpt lat="44.22470470373094" lon="10.790415930486027"><ele>737.0</ele><time>2026-05-02T09:46:13Z</time></trkpt><trkpt lat="44.2245684637463" lon="10.790281635679676"><ele>739.0</ele><time>2026-05-02T09:46:14Z</time></trkpt><trkpt lat="44.22441307813805" lon="10.790210039783739"><ele>741.8000000000001</ele><time>2026-05-02T09:46:15Z</time></trkpt><trkpt lat="44.224274921823074" lon="10.790152204618453"><ele>744.6</ele><time>2026-05-02T09:46:16Z</time></trkpt><trkpt lat="44.22416188928497" lon="10.790099268348426"><ele>747.4</ele><time>2026-05-02T09:46:17Z</time></trkpt><trkpt lat="44.22406501972435" lon="10.7900555771435"><ele>750.2</ele><time>2026-05-02T09:46:18Z</time></trkpt><trkpt lat="44.224021569154026" lon="10.789957074334602"><ele>753.0</ele><time>2026-05-02T09:46:19Z</time></trkpt><trkpt lat="44.22403381491554" lon="10.78984813056211"><ele>753.0</ele><time>2026-05-02T09:46:20Z</time></trkpt><trkpt lat="44.2240881873796" lon="10.7897508338851"><ele>753.0</ele><time>2026-05-02T09:46:21Z</time></trkpt><trkpt lat="44.22419675145199" lon="10.789721029273803"><ele>753.0</ele><time>2026-05-02T09:46:22Z</time></trkpt><trkpt lat="44.2243296169342" lon="10.789718900134888"><ele>753.0</ele><time>2026-05-02T09:46:23Z</time></trkpt><trkpt lat="44.22449187389305" lon="10.789740223942704"><ele>753.0</ele><time>2026-05-02T09:46:24Z</time></trkpt><trkpt lat="44.22468198549904" lon="10.789818973199061"><ele>753.0</ele><time>2026-05-02T09:46:25Z</time></trkpt><trkpt lat="44.22489582149972" lon="10.789915925855068"><ele>753.0</ele><time>2026-05-02T09:46:26Z</time></trkpt><trkpt lat="44.22512681274024" lon="10.790037920354594"><ele>751.0</ele><time>2026-05-02T09:46:27Z</time></trkpt><trkpt lat="44.225324676319595" lon="10.790184978117269"><ele>749.0</ele><time>2026-05-02T09:46:28Z</time></trkpt><trkpt lat="44.22547666638972" lon="10.790344627884668"><ele>747.0</ele><time>2026-05-02T09:46:29Z</time></trkpt><trkpt lat="44.225584002116776" lon="10.79049576733021"><ele>749.5</ele><time>2026-05-02T09:46:30Z</time></trkpt><trkpt lat="44.22567564610748" lon="10.790615523095914"><ele>752.0</ele><time>2026-05-02T09:46:31Z</time></trkpt><trkpt lat="44.225794780229826" lon="10.790672394463579"><ele>754.5</ele><time>2026-05-02T09:46:32Z</time></trkpt><trkpt lat="44.225957853900866" lon="10.79067203381769"><ele>757.0</ele><time>2026-05-02T09:46:33Z</time></trkpt><trkpt lat="44.22613485184934" lon="10.790648888051225"><ele>757.0</ele><time>2026-05-02T09:46:34Z</time></trkpt><trkpt lat="44.226315037054015" lon="10.790579420923292"><ele>757.0</ele><time>2026-05-02T09:46:35Z</time></trkpt><trkpt lat="44.22645251907432" lon="10.790527823727162"><ele>757.0</ele><time>2026-05-02T09:46:36Z</time></trkpt><trkpt lat="44.22657942396372" lon="10.790558130567613"><ele>760.6666666666667</ele><time>2026-05-02T09:46:37Z</time></trkpt><trkpt lat="44.22671922212563" lon="10.790658427375755"><ele>764.3333333333334</ele><time>2026-05-02T09:46:37.999Z</time></trkpt><trkpt lat="44.22686307287767" lon="10.790735632223596"><ele>768.0</ele><time>2026-05-02T09:46:38.999Z</time></trkpt><trkpt lat="44.22703191256398" lon="10.790737455562665"><ele>768.0</ele><time>2026-05-02T09:46:39.999Z</time></trkpt><trkpt lat="44.227225608354644" lon="10.790711832991052"><ele>768.0</ele><time>2026-05-02T09:46:40.999Z</time></trkpt><trkpt lat="44.227432202381124" lon="10.790754933236489"><ele>768.0</ele><time>2026-05-02T09:46:41.999Z</time></trkpt><trkpt lat="44.22763738856603" lon="10.790825498126534"><ele>769.6666666666667</ele><time>2026-05-02T09:46:42.999Z</time></trkpt><trkpt lat="44.22781293706285" lon="10.790857381898636"><ele>771.3333333333334</ele><time>2026-05-02T09:46:43.999Z</time></trkpt><trkpt lat="44.227956288720364" lon="10.79086924948283"><ele>773.0</ele><time>2026-05-02T09:46:44.999Z</time></trkpt><trkpt lat="44.22808668349792" lon="10.790856524985083"><ele>773.2</ele><time>2026-05-02T09:46:45.999Z</time></trkpt><trkpt lat="44.22820249177188" lon="10.790803761998745"><ele>773.4</ele><time>2026-05-02T09:46:46.999Z</time></trkpt><trkpt lat="44.228293447165456" lon="10.790712824324645"><ele>773.6</ele><time>2026-05-02T09:46:47.999Z</time></trkpt><trkpt lat="44.22835087205188" lon="10.790600861824158"><ele>773.8000000000001</ele><time>2026-05-02T09:46:48.999Z</time></trkpt><trkpt lat="44.228366940892016" lon="10.790480565642998"><ele>774.0</ele><time>2026-05-02T09:46:49.999Z</time></trkpt><trkpt lat="44.228325602361934" lon="10.790382766667028"><ele>774.0</ele><time>2026-05-02T09:46:50.999Z</time></trkpt><trkpt lat="44.228265518838526" lon="10.790301997839059"><ele>774.0</ele><time>2026-05-02T09:46:51.999Z</time></trkpt><trkpt lat="44.22815519459125" lon="10.790326605287737"><ele>774.0</ele><time>2026-05-02T09:46:52.999Z</time></trkpt><trkpt lat="44.228057620442044" lon="10.79038879817459"><ele>774.0</ele><time>2026-05-02T09:46:53.999Z</time></trkpt><trkpt lat="44.22795645590931" lon="10.7904704086125"><ele>774.0</ele><time>2026-05-02T09:46:54.999Z</time></trkpt><trkpt lat="44.22783491840162" lon="10.790490815755065"><ele>773.75</ele><time>2026-05-02T09:46:55.999Z</time></trkpt><trkpt lat="44.227703306663884" lon="10.79046938545287"><ele>773.5</ele><time>2026-05-02T09:46:56.999Z</time></trkpt><trkpt lat="44.22756764670617" lon="10.790431879768377"><ele>773.25</ele><time>2026-05-02T09:46:57.999Z</time></trkpt><trkpt lat="44.22745460712423" lon="10.790384220960295"><ele>773.0</ele><time>2026-05-02T09:46:58.999Z</time></trkpt><trkpt lat="44.22737248646814" lon="10.790297363458835"><ele>774.75</ele><time>2026-05-02T09:46:59.999Z</time></trkpt><trkpt lat="44.22729530568891" lon="10.790174212609314"><ele>776.5</ele><time>2026-05-02T09:47:00.999Z</time></trkpt><trkpt lat="44.22723579810506" lon="10.790003128263"><ele>778.25</ele><time>2026-05-02T09:47:01.999Z</time></trkpt><trkpt lat="44.22714498342786" lon="10.789830414392542"><ele>780.0</ele><time>2026-05-02T09:47:02.999Z</time></trkpt><trkpt lat="44.22706667717596" lon="10.789638699870373"><ele>780.0</ele><time>2026-05-02T09:47:03.999Z</time></trkpt><trkpt lat="44.22698703232826" lon="10.789463623680225"><ele>780.0</ele><time>2026-05-02T09:47:04.999Z</time></trkpt><trkpt lat="44.22689048178496" lon="10.789331699047153"><ele>780.0</ele><time>2026-05-02T09:47:05.999Z</time></trkpt><trkpt lat="44.22676669909433" lon="10.789253214084253"><ele>780.0</ele><time>2026-05-02T09:47:06.999Z</time></trkpt><trkpt lat="44.22662326229005" lon="10.789196534042206"><ele>781.25</ele><time>2026-05-02T09:47:07.999Z</time></trkpt><trkpt lat="44.226477913971024" lon="10.789132082226073"><ele>782.5</ele><time>2026-05-02T09:47:08.999Z</time></trkpt><trkpt lat="44.2263514094643" lon="10.78904290117817"><ele>783.75</ele><time>2026-05-02T09:47:09.999Z</time></trkpt><trkpt lat="44.22625887181895" lon="10.788929849979942"><ele>785.0</ele><time>2026-05-02T09:47:10.999Z</time></trkpt><trkpt lat="44.22618617699853" lon="10.788774669593927"><ele>785.0</ele><time>2026-05-02T09:47:11.999Z</time></trkpt><trkpt lat="44.226123717446356" lon="10.788611767189385"><ele>785.0</ele><time>2026-05-02T09:47:12.999Z</time></trkpt><trkpt lat="44.22608727095351" lon="10.788462074424471"><ele>785.0</ele><time>2026-05-02T09:47:13.999Z</time></trkpt><trkpt lat="44.22610161805736" lon="10.788325408023805"><ele>785.0</ele><time>2026-05-02T09:47:14.999Z</time></trkpt><trkpt lat="44.2261718317426" lon="10.788205119084825"><ele>786.5</ele><time>2026-05-02T09:47:15.999Z</time></trkpt><trkpt lat="44.22627699107971" lon="10.788080765302821"><ele>788.0</ele><time>2026-05-02T09:47:16.999Z</time></trkpt><trkpt lat="44.2263712480665" lon="10.78795655398382"><ele>789.5</ele><time>2026-05-02T09:47:17.999Z</time></trkpt><trkpt lat="44.22642957922695" lon="10.787825421354253"><ele>791.0</ele><time>2026-05-02T09:47:18.999Z</time></trkpt><trkpt lat="44.22645525235066" lon="10.787679082499867"><ele>793.0</ele><time>2026-05-02T09:47:19.999Z</time></trkpt><trkpt lat="44.2264337306429" lon="10.787524536281165"><ele>795.0</ele><time>2026-05-02T09:47:20.999Z</time></trkpt><trkpt lat="44.226367197226736" lon="10.787391146495818"><ele>797.0</ele><time>2026-05-02T09:47:21.999Z</time></trkpt><trkpt lat="44.226260171642664" lon="10.787289524963747"><ele>799.0</ele><time>2026-05-02T09:47:22.999Z</time></trkpt><trkpt lat="44.226129443740355" lon="10.787194860748862"><ele>799.0</ele><time>2026-05-02T09:47:23.999Z</time></trkpt><trkpt lat="44.22598874701941" lon="10.787099214695665"><ele>799.0</ele><time>2026-05-02T09:47:24.999Z</time></trkpt><trkpt lat="44.22583940166944" lon="10.787041307432808"><ele>799.0</ele><time>2026-05-02T09:47:25.999Z</time></trkpt><trkpt lat="44.225686477795854" lon="10.787050163742387"><ele>798.6</ele><time>2026-05-02T09:47:26.999Z</time></trkpt><trkpt lat="44.22555700904146" lon="10.787079859920302"><ele>798.2</ele><time>2026-05-02T09:47:27.999Z</time></trkpt><trkpt lat="44.22544991271934" lon="10.787104882220001"><ele>797.8000000000001</ele><time>2026-05-02T09:47:28.999Z</time></trkpt><trkpt lat="44.22536552395887" lon="10.787087892843811"><ele>797.4000000000001</ele><time>2026-05-02T09:47:29.999Z</time></trkpt><trkpt lat="44.22529876400867" lon="10.7869925861925"><ele>797.0</ele><time>2026-05-02T09:47:30.999Z</time></trkpt><trkpt lat="44.22526428640153" lon="10.78683759039913"><ele>798.6666666666667</ele><time>2026-05-02T09:47:31.999Z</time></trkpt><trkpt lat="44.22527472553731" lon="10.786631789750636"><ele>800.3333333333333</ele><time>2026-05-02T09:47:32.999Z</time></trkpt><trkpt lat="44.22529113729358" lon="10.786404083784015"><ele>802.0</ele><time>2026-05-02T09:47:33.999Z</time></trkpt><trkpt lat="44.22529722538746" lon="10.786160323427172"><ele>804.0</ele><time>2026-05-02T09:47:34.999Z</time></trkpt><trkpt lat="44.22528620940104" lon="10.785952977499713"><ele>806.0</ele><time>2026-05-02T09:47:35.999Z</time></trkpt><trkpt lat="44.22526884467393" lon="10.785770391041233"><ele>808.0</ele><time>2026-05-02T09:47:36.999Z</time></trkpt><trkpt lat="44.225185794388615" lon="10.785636384605148"><ele>810.0</ele><time>2026-05-02T09:47:37.999Z</time></trkpt><trkpt lat="44.22506380712104" lon="10.785577236367448"><ele>810.0</ele><time>2026-05-02T09:47:38.999Z</time></trkpt><trkpt lat="44.22498066759099" lon="10.785512739159332"><ele>810.0</ele><time>2026-05-02T09:47:39.999Z</time></trkpt><trkpt lat="44.224936812171165" lon="10.785425013876585"><ele>810.0</ele><time>2026-05-02T09:47:40.999Z</time></trkpt><trkpt lat="44.224957142479425" lon="10.785311578972903"><ele>810.0</ele><time>2026-05-02T09:47:41.999Z</time></trkpt><trkpt lat="44.225029688677516" lon="10.785231076439937"><ele>810.0</ele><time>2026-05-02T09:47:43Z</time></trkpt><trkpt lat="44.22512687141422" lon="10.785217780767573"><ele>810.0</ele><time>2026-05-02T09:47:44Z</time></trkpt><trkpt lat="44.22521119026512" lon="10.785306163540785"><ele>810.0</ele><time>2026-05-02T09:47:45Z</time></trkpt><trkpt lat="44.225272233661066" lon="10.785445828159036"><ele>810.0</ele><time>2026-05-02T09:47:46Z</time></trkpt><trkpt lat="44.225336112946955" lon="10.78560092396144"><ele>810.0</ele><time>2026-05-02T09:47:47Z</time></trkpt><trkpt lat="44.22544282035619" lon="10.785712624435194"><ele>810.0</ele><time>2026-05-02T09:47:48Z</time></trkpt><trkpt lat="44.22557144870241" lon="10.785801694317234"><ele>814.0</ele><time>2026-05-02T09:47:49Z</time></trkpt><trkpt lat="44.22572236526289" lon="10.785866430019874"><ele>818.0</ele><time>2026-05-02T09:47:50Z</time></trkpt><trkpt lat="44.22588996885747" lon="10.785921881225109"><ele>822.0</ele><time>2026-05-02T09:47:51Z</time></trkpt><trkpt lat="44.22605728741957" lon="10.785971369352461"><ele>822.0</ele><time>2026-05-02T09:47:52Z</time></trkpt><trkpt lat="44.22621190144783" lon="10.785991925668196"><ele>822.0</ele><time>2026-05-02T09:47:53Z</time></trkpt><trkpt lat="44.22634816313522" lon="10.785949213735663"><ele>822.0</ele><time>2026-05-02T09:47:54Z</time></trkpt><trkpt lat="44.22649548012491" lon="10.78583929779458"><ele>822.0</ele><time>2026-05-02T09:47:55Z</time></trkpt><trkpt lat="44.22667365446334" lon="10.785720904991338"><ele>822.0</ele><time>2026-05-02T09:47:56Z</time></trkpt><trkpt lat="44.22686288263668" lon="10.78558690846159"><ele>822.0</ele><time>2026-05-02T09:47:57Z</time></trkpt><trkpt lat="44.22704713907779" lon="10.785455101477067"><ele>822.0</ele><time>2026-05-02T09:47:58Z</time></trkpt><trkpt lat="44.22720508737023" lon="10.78534111473877"><ele>822.0</ele><time>2026-05-02T09:47:59Z</time></trkpt><trkpt lat="44.22732372208243" lon="10.785255499475152"><ele>822.0</ele><time>2026-05-02T09:48:00Z</time></trkpt><trkpt lat="44.22742290662938" lon="10.785183924029077"><ele>822.0</ele><time>2026-05-02T09:48:01Z</time></trkpt><trkpt lat="44.2274994206477" lon="10.785109339147311"><ele>823.4000000000001</ele><time>2026-05-02T09:48:02Z</time></trkpt><trkpt lat="44.22758002342653" lon="10.78512392919828"><ele>824.8000000000001</ele><time>2026-05-02T09:48:03Z</time></trkpt><trkpt lat="44.227650586308116" lon="10.785195408444071"><ele>826.2</ele><time>2026-05-02T09:48:04Z</time></trkpt><trkpt lat="44.22767523230919" lon="10.785323554276417"><ele>827.6</ele><time>2026-05-02T09:48:05Z</time></trkpt><trkpt lat="44.227651137709096" lon="10.785443853658458"><ele>829.0</ele><time>2026-05-02T09:48:06Z</time></trkpt><trkpt lat="44.2276052456317" lon="10.78556670408666"><ele>828.9999999999999</ele><time>2026-05-02T09:48:07Z</time></trkpt><trkpt lat="44.227574067035015" lon="10.785697179630244"><ele>829.0</ele><time>2026-05-02T09:48:08Z</time></trkpt><trkpt lat="44.22756843650383" lon="10.785822170307343"><ele>829.0</ele><time>2026-05-02T09:48:09Z</time></trkpt><trkpt lat="44.22760507329108" lon="10.785920288878295"><ele>829.0</ele><time>2026-05-02T09:48:10Z</time></trkpt><trkpt lat="44.227676207845576" lon="10.785985357014468"><ele>828.9999999999999</ele><time>2026-05-02T09:48:11Z</time></trkpt><trkpt lat="44.22776986095581" lon="10.785972791443946"><ele>829.0</ele><time>2026-05-02T09:48:12Z</time></trkpt><trkpt lat="44.22784787861831" lon="10.785890813384365"><ele>829.0</ele><time>2026-05-02T09:48:13Z</time></trkpt><trkpt lat="44.22789553366818" lon="10.785748232871486"><ele>829.0</ele><time>2026-05-02T09:48:14Z</time></trkpt><trkpt lat="44.227933642123894" lon="10.78557066312604"><ele>829.0</ele><time>2026-05-02T09:48:15Z</time></trkpt><trkpt lat="44.228001980233536" lon="10.78538715191704"><ele>829.0</ele><time>2026-05-02T09:48:16Z</time></trkpt><trkpt lat="44.22804754054129" lon="10.78519507455391"><ele>830.6666666666666</ele><time>2026-05-02T09:48:17Z</time></trkpt><trkpt lat="44.22804711330924" lon="10.784981488557344"><ele>832.3333333333333</ele><time>2026-05-02T09:48:18Z</time></trkpt><trkpt lat="44.22799519817829" lon="10.784776597795727"><ele>834.0</ele><time>2026-05-02T09:48:19Z</time></trkpt><trkpt lat="44.22789116904008" lon="10.78458550772347"><ele>834.0</ele><time>2026-05-02T09:48:20Z</time></trkpt><trkpt lat="44.22775967627006" lon="10.784398873997466"><ele>834.0</ele><time>2026-05-02T09:48:21Z</time></trkpt><trkpt lat="44.2276014025929" lon="10.78422649665045"><ele>834.0</ele><time>2026-05-02T09:48:22Z</time></trkpt><trkpt lat="44.22743453659083" lon="10.784058171633934"><ele>837.6666666666667</ele><time>2026-05-02T09:48:23Z</time></trkpt><trkpt lat="44.22726313424631" lon="10.783906374051114"><ele>841.3333333333334</ele><time>2026-05-02T09:48:24Z</time></trkpt><trkpt lat="44.22708010322212" lon="10.783800847000194"><ele>845.0</ele><time>2026-05-02T09:48:25Z</time></trkpt><trkpt lat="44.226898441361406" lon="10.783720158838513"><ele>845.0</ele><time>2026-05-02T09:48:26Z</time></trkpt><trkpt lat="44.22673809843962" lon="10.783656560698903"><ele>845.0</ele><time>2026-05-02T09:48:27Z</time></trkpt><trkpt lat="44.2265923850825" lon="10.783621705152356"><ele>845.0</ele><time>2026-05-02T09:48:28Z</time></trkpt><trkpt lat="44.2264590757206" lon="10.783657174726308"><ele>847.6666666666667</ele><time>2026-05-02T09:48:29Z</time></trkpt><trkpt lat="44.22632695453999" lon="10.783764327576097"><ele>850.3333333333333</ele><time>2026-05-02T09:48:30Z</time></trkpt><trkpt lat="44.22619651059689" lon="10.783918003726637"><ele>853.0</ele><time>2026-05-02T09:48:31Z</time></trkpt><trkpt lat="44.22605987427406" lon="10.78403756215297"><ele>853.0</ele><time>2026-05-02T09:48:32Z</time></trkpt><trkpt lat="44.22596058685158" lon="10.784147006851121"><ele>853.0</ele><time>2026-05-02T09:48:33Z</time></trkpt><trkpt lat="44.225853039614094" lon="10.78417036877925"><ele>853.0</ele><time>2026-05-02T09:48:34Z</time></trkpt><trkpt lat="44.22574537892351" lon="10.784122598017902"><ele>853.0</ele><time>2026-05-02T09:48:35Z</time></trkpt><trkpt lat="44.22564365019907" lon="10.783990044735635"><ele>855.0</ele><time>2026-05-02T09:48:36Z</time></trkpt><trkpt lat="44.2255264900558" lon="10.78383337794567"><ele>857.0</ele><time>2026-05-02T09:48:37Z</time></trkpt><trkpt lat="44.22543427896366" lon="10.783623106114375"><ele>859.0</ele><time>2026-05-02T09:48:38Z</time></trkpt><trkpt lat="44.22535569117263" lon="10.783431620131013"><ele>859.0</ele><time>2026-05-02T09:48:39Z</time></trkpt><trkpt lat="44.225314072671694" lon="10.783202963282712"><ele>859.0</ele><time>2026-05-02T09:48:40Z</time></trkpt><trkpt lat="44.22527565554974" lon="10.78296672648172"><ele>859.0</ele><time>2026-05-02T09:48:41Z</time></trkpt><trkpt lat="44.22523132286503" lon="10.782702389242226"><ele>861.3333333333333</ele><time>2026-05-02T09:48:41.999Z</time></trkpt><trkpt lat="44.22518358593805" lon="10.78242386146066"><ele>863.6666666666667</ele><time>2026-05-02T09:48:42.999Z</time></trkpt><trkpt lat="44.22513835508608" lon="10.78214083646617"><ele>866.0</ele><time>2026-05-02T09:48:43.999Z</time></trkpt><trkpt lat="44.22511325257651" lon="10.781911021607453"><ele>865.5999999999999</ele><time>2026-05-02T09:48:44.999Z</time></trkpt><trkpt lat="44.22511536020702" lon="10.781725685134083"><ele>865.1999999999999</ele><time>2026-05-02T09:48:45.999Z</time></trkpt><trkpt lat="44.225153612277545" lon="10.781575286420614"><ele>864.8000000000001</ele><time>2026-05-02T09:48:46.999Z</time></trkpt><trkpt lat="44.22521370967075" lon="10.7814683212649"><ele>864.4000000000001</ele><time>2026-05-02T09:48:47.999Z</time></trkpt><trkpt lat="44.22530568192885" lon="10.781423935626375"><ele>864.0</ele><time>2026-05-02T09:48:48.999Z</time></trkpt><trkpt lat="44.22541379748812" lon="10.78142719442396"><ele>864.0</ele><time>2026-05-02T09:48:49.999Z</time></trkpt><trkpt lat="44.22551502365998" lon="10.781539771678595"><ele>864.0</ele><time>2026-05-02T09:48:50.999Z</time></trkpt><trkpt lat="44.22563838391782" lon="10.781621471382236"><ele>864.0</ele><time>2026-05-02T09:48:51.999Z</time></trkpt><trkpt lat="44.225774878156244" lon="10.781698249798007"><ele>864.0</ele><time>2026-05-02T09:48:52.999Z</time></trkpt><trkpt lat="44.22594457139192" lon="10.781736321165504"><ele>867.0</ele><time>2026-05-02T09:48:53.999Z</time></trkpt><trkpt lat="44.22613584518325" lon="10.781750920364638"><ele>870.0</ele><time>2026-05-02T09:48:54.999Z</time></trkpt><trkpt lat="44.22634500503435" lon="10.781759203089797"><ele>873.0</ele><time>2026-05-02T09:48:55.999Z</time></trkpt><trkpt lat="44.22655921959624" lon="10.781764230986804"><ele>874.3333333333333</ele><time>2026-05-02T09:48:56.999Z</time></trkpt><trkpt lat="44.22675068450685" lon="10.781765265502049"><ele>875.6666666666666</ele><time>2026-05-02T09:48:57.999Z</time></trkpt><trkpt lat="44.22692633764783" lon="10.781755257060452"><ele>877.0</ele><time>2026-05-02T09:48:58.999Z</time></trkpt><trkpt lat="44.227103928142334" lon="10.781710481888094"><ele>877.0</ele><time>2026-05-02T09:48:59.999Z</time></trkpt><trkpt lat="44.22729620936344" lon="10.781619388770896"><ele>877.0</ele><time>2026-05-02T09:49:00.999Z</time></trkpt><trkpt lat="44.227509363068926" lon="10.781531660199612"><ele>877.0</ele><time>2026-05-02T09:49:01.999Z</time></trkpt><trkpt lat="44.22774489014079" lon="10.78142546962647"><ele>878.0</ele><time>2026-05-02T09:49:02.999Z</time></trkpt><trkpt lat="44.22800403688359" lon="10.781309495665306"><ele>879.0</ele><time>2026-05-02T09:49:03.999Z</time></trkpt><trkpt lat="44.22827011759581" lon="10.781182735017428"><ele>879.5</ele><time>2026-05-02T09:49:04.999Z</time></trkpt><trkpt lat="44.228506298562806" lon="10.781093259032763"><ele>880.0</ele><time>2026-05-02T09:49:05.999Z</time></trkpt><trkpt lat="44.22871986024665" lon="10.781000680016366"><ele>882.3333333333333</ele><time>2026-05-02T09:49:06.999Z</time></trkpt><trkpt lat="44.22891388771527" lon="10.780917526434063"><ele>884.6666666666667</ele><time>2026-05-02T09:49:07.999Z</time></trkpt><trkpt lat="44.229098551815156" lon="10.780817609905743"><ele>887.0</ele><time>2026-05-02T09:49:08.999Z</time></trkpt><trkpt lat="44.229275958376" lon="10.780678460843198"><ele>887.0</ele><time>2026-05-02T09:49:09.999Z</time></trkpt><trkpt lat="44.22945465946325" lon="10.780513587754445"><ele>887.0</ele><time>2026-05-02T09:49:10.999Z</time></trkpt><trkpt lat="44.22963315283256" lon="10.780335738743343"><ele>887.0</ele><time>2026-05-02T09:49:11.999Z</time></trkpt><trkpt lat="44.22980361484536" lon="10.780200149795848"><ele>889.6666666666667</ele><time>2026-05-02T09:49:12.999Z</time></trkpt><trkpt lat="44.22995935800405" lon="10.780075341657186"><ele>892.3333333333333</ele><time>2026-05-02T09:49:13.999Z</time></trkpt><trkpt lat="44.23009815420771" lon="10.779946484182766"><ele>895.0</ele><time>2026-05-02T09:49:14.999Z</time></trkpt><trkpt lat="44.23023037130852" lon="10.779887086434197"><ele>895.0</ele><time>2026-05-02T09:49:15.999Z</time></trkpt><trkpt lat="44.230353633363165" lon="10.77987848366218"><ele>895.0</ele><time>2026-05-02T09:49:16.999Z</time></trkpt><trkpt lat="44.23047577782042" lon="10.77991686577231"><ele>895.0</ele><time>2026-05-02T09:49:17.999Z</time></trkpt><trkpt lat="44.23059724545146" lon="10.780023257157925"><ele>895.0</ele><time>2026-05-02T09:49:18.999Z</time></trkpt><trkpt lat="44.23071663128951" lon="10.780176222804787"><ele>897.6666666666666</ele><time>2026-05-02T09:49:19.999Z</time></trkpt><trkpt lat="44.23083645145051" lon="10.780348820052746"><ele>900.3333333333333</ele><time>2026-05-02T09:49:20.999Z</time></trkpt><trkpt lat="44.23098388607037" lon="10.780507269223191"><ele>903.0</ele><time>2026-05-02T09:49:21.999Z</time></trkpt><trkpt lat="44.231155411763766" lon="10.780648789887815"><ele>903.0</ele><time>2026-05-02T09:49:22.999Z</time></trkpt><trkpt lat="44.23133846116431" lon="10.780758057965198"><ele>903.0</ele><time>2026-05-02T09:49:23.999Z</time></trkpt><trkpt lat="44.2315137677421" lon="10.780814701383461"><ele>903.0</ele><time>2026-05-02T09:49:24.999Z</time></trkpt><trkpt lat="44.23169802479911" lon="10.780827190832435"><ele>905.0</ele><time>2026-05-02T09:49:25.999Z</time></trkpt><trkpt lat="44.23189489333472" lon="10.780798504036383"><ele>907.0</ele><time>2026-05-02T09:49:26.999Z</time></trkpt><trkpt lat="44.23210533311368" lon="10.780734513351264"><ele>909.0</ele><time>2026-05-02T09:49:27.999Z</time></trkpt><trkpt lat="44.23232671689498" lon="10.78065446210526"><ele>909.0</ele><time>2026-05-02T09:49:28.999Z</time></trkpt><trkpt lat="44.23256250963847" lon="10.780566953396109"><ele>909.0</ele><time>2026-05-02T09:49:29.999Z</time></trkpt><trkpt lat="44.232778672572294" lon="10.780494197575301"><ele>909.0</ele><time>2026-05-02T09:49:30.999Z</time></trkpt><trkpt lat="44.232980346028626" lon="10.780432036849582"><ele>909.0</ele><time>2026-05-02T09:49:31.999Z</time></trkpt><trkpt lat="44.23316759282648" lon="10.780373700275485"><ele>909.0</ele><time>2026-05-02T09:49:32.999Z</time></trkpt><trkpt lat="44.23334149599814" lon="10.78032484916605"><ele>908.3333333333333</ele><time>2026-05-02T09:49:33.999Z</time></trkpt><trkpt lat="44.23350654847688" lon="10.780295047998166"><ele>907.6666666666666</ele><time>2026-05-02T09:49:34.999Z</time></trkpt><trkpt lat="44.233671938009245" lon="10.780292623282815"><ele>907.0</ele><time>2026-05-02T09:49:35.999Z</time></trkpt><trkpt lat="44.233841162432014" lon="10.780309229696796"><ele>908.6666666666666</ele><time>2026-05-02T09:49:36.999Z</time></trkpt><trkpt lat="44.234012303463935" lon="10.780331636135456"><ele>910.3333333333333</ele><time>2026-05-02T09:49:37.999Z</time></trkpt><trkpt lat="44.23418048709575" lon="10.780351670377183"><ele>912.0</ele><time>2026-05-02T09:49:38.999Z</time></trkpt><trkpt lat="44.23432972711378" lon="10.780364542077075"><ele>912.0</ele><time>2026-05-02T09:49:39.999Z</time></trkpt><trkpt lat="44.23446709090077" lon="10.780377023307755"><ele>912.0</ele><time>2026-05-02T09:49:40.999Z</time></trkpt><trkpt lat="44.2345941781269" lon="10.7803921892791"><ele>912.0</ele><time>2026-05-02T09:49:41.999Z</time></trkpt><trkpt lat="44.234707142434004" lon="10.78039605357482"><ele>912.0</ele><time>2026-05-02T09:49:42.999Z</time></trkpt><trkpt lat="44.234777128914146" lon="10.780377742628357"><ele>912.0</ele><time>2026-05-02T09:49:43.999Z</time></trkpt><trkpt lat="44.234843397730295" lon="10.780361070076394"><ele>912.6</ele><time>2026-05-02T09:49:45.999Z</time></trkpt><trkpt lat="44.234912985502525" lon="10.78040571846241"><ele>913.2</ele><time>2026-05-02T09:49:50Z</time></trkpt><trkpt lat="44.2349882723179" lon="10.780417553909457"><ele>913.8</ele><time>2026-05-02T09:49:52Z</time></trkpt><trkpt lat="44.2350657605022" lon="10.780304264642627"><ele>914.4</ele><time>2026-05-02T09:49:54Z</time></trkpt><trkpt lat="44.235052669394854" lon="10.780134145889393"><ele>915.0</ele><time>2026-05-02T09:49:56Z</time></trkpt><trkpt lat="44.23499208148857" lon="10.780066848308683"><ele>915.8</ele><time>2026-05-02T09:49:57Z</time></trkpt><trkpt lat="44.234925938046146" lon="10.779996635549887"><ele>916.6</ele><time>2026-05-02T09:49:58Z</time></trkpt><trkpt lat="44.234867796731685" lon="10.779883009613355"><ele>917.4000000000001</ele><time>2026-05-02T09:49:59Z</time></trkpt><trkpt lat="44.234817384465195" lon="10.779723197028083"><ele>918.2</ele><time>2026-05-02T09:50:00Z</time></trkpt><trkpt lat="44.23477073146303" lon="10.779540919675034"><ele>919.0</ele><time>2026-05-02T09:50:01Z</time></trkpt><trkpt lat="44.23473376382941" lon="10.779347830238788"><ele>925.0</ele><time>2026-05-02T09:50:02Z</time></trkpt><trkpt lat="44.23471379804276" lon="10.779140109520366"><ele>931.0</ele><time>2026-05-02T09:50:03Z</time></trkpt><trkpt lat="44.23472004510864" lon="10.7789079631293"><ele>937.0</ele><time>2026-05-02T09:50:04Z</time></trkpt><trkpt lat="44.23474701301159" lon="10.778659916630495"><ele>934.6666666666666</ele><time>2026-05-02T09:50:05Z</time></trkpt><trkpt lat="44.23478932047538" lon="10.77841740288134"><ele>932.3333333333333</ele><time>2026-05-02T09:50:06Z</time></trkpt><trkpt lat="44.23485829327629" lon="10.778210343064064"><ele>930.0</ele><time>2026-05-02T09:50:07Z</time></trkpt><trkpt lat="44.23492675301225" lon="10.778045922313789"><ele>930.0</ele><time>2026-05-02T09:50:08Z</time></trkpt><trkpt lat="44.23494924683281" lon="10.777881473283513"><ele>930.0</ele><time>2026-05-02T09:50:09Z</time></trkpt><trkpt lat="44.23493622687381" lon="10.777732010536852"><ele>930.0</ele><time>2026-05-02T09:50:10Z</time></trkpt><trkpt lat="44.234909740947074" lon="10.777608615479787"><ele>930.0</ele><time>2026-05-02T09:50:11Z</time></trkpt><trkpt lat="44.23486944930802" lon="10.777485821362568"><ele>930.0</ele><time>2026-05-02T09:50:12Z</time></trkpt><trkpt lat="44.23482772929418" lon="10.777359632008793"><ele>938.5</ele><time>2026-05-02T09:50:13Z</time></trkpt><trkpt lat="44.23476868908625" lon="10.777232090002517"><ele>947.0</ele><time>2026-05-02T09:50:14Z</time></trkpt><trkpt lat="44.2346953914554" lon="10.777101561454804"><ele>955.5</ele><time>2026-05-02T09:50:15Z</time></trkpt><trkpt lat="44.23463484961058" lon="10.776961077308519"><ele>964.0</ele><time>2026-05-02T09:50:16Z</time></trkpt><trkpt lat="44.234609873846566" lon="10.776802180928492"><ele>964.75</ele><time>2026-05-02T09:50:17Z</time></trkpt><trkpt lat="44.234623730979486" lon="10.776636216928777"><ele>965.5</ele><time>2026-05-02T09:50:18Z</time></trkpt><trkpt lat="44.2346726118159" lon="10.776473147888156"><ele>966.25</ele><time>2026-05-02T09:50:19Z</time></trkpt><trkpt lat="44.234751597714215" lon="10.776308180197802"><ele>967.0</ele><time>2026-05-02T09:50:20Z</time></trkpt><trkpt lat="44.23487449551461" lon="10.776151860570739"><ele>963.3333333333333</ele><time>2026-05-02T09:50:21Z</time></trkpt><trkpt lat="44.2349969005618" lon="10.775964204343804"><ele>959.6666666666667</ele><time>2026-05-02T09:50:22Z</time></trkpt><trkpt lat="44.23509998668383" lon="10.775742149403243"><ele>956.0</ele><time>2026-05-02T09:50:23Z</time></trkpt><trkpt lat="44.23521603903783" lon="10.775578812217583"><ele>956.0</ele><time>2026-05-02T09:50:24Z</time></trkpt><trkpt lat="44.235339381832404" lon="10.775468740906184"><ele>956.0</ele><time>2026-05-02T09:50:25Z</time></trkpt><trkpt lat="44.235472361398415" lon="10.775412054839077"><ele>956.0</ele><time>2026-05-02T09:50:26Z</time></trkpt><trkpt lat="44.23560385199724" lon="10.77538856429891"><ele>956.0</ele><time>2026-05-02T09:50:27Z</time></trkpt><trkpt lat="44.235710072180936" lon="10.77533663935876"><ele>955.0</ele><time>2026-05-02T09:50:28Z</time></trkpt><trkpt lat="44.235791008364075" lon="10.775220564039248"><ele>954.0</ele><time>2026-05-02T09:50:29Z</time></trkpt><trkpt lat="44.23584348726844" lon="10.775082136288397"><ele>953.0</ele><time>2026-05-02T09:50:30Z</time></trkpt><trkpt lat="44.23585880233474" lon="10.774894702514082"><ele>952.0</ele><time>2026-05-02T09:50:31Z</time></trkpt><trkpt lat="44.23585267317104" lon="10.774726854280914"><ele>952.0</ele><time>2026-05-02T09:50:32Z</time></trkpt><trkpt lat="44.2358025413901" lon="10.77458239412733"><ele>952.0</ele><time>2026-05-02T09:50:33Z</time></trkpt><trkpt lat="44.23570905440009" lon="10.774458568460085"><ele>952.0</ele><time>2026-05-02T09:50:34Z</time></trkpt><trkpt lat="44.23561704530751" lon="10.774308450277857"><ele>952.0</ele><time>2026-05-02T09:50:35Z</time></trkpt><trkpt lat="44.235513544535" lon="10.774158153909546"><ele>958.0</ele><time>2026-05-02T09:50:36Z</time></trkpt><trkpt lat="44.23543484507735" lon="10.77394055362214"><ele>964.0</ele><time>2026-05-02T09:50:37Z</time></trkpt><trkpt lat="44.23535268212934" lon="10.773703514605684"><ele>970.0</ele><time>2026-05-02T09:50:38Z</time></trkpt><trkpt lat="44.23527978236374" lon="10.773455145431885"><ele>970.0</ele><time>2026-05-02T09:50:39Z</time></trkpt><trkpt lat="44.235217400451084" lon="10.773225282134979"><ele>970.0</ele><time>2026-05-02T09:50:40Z</time></trkpt><trkpt lat="44.235139245769865" lon="10.773012918486375"><ele>970.0</ele><time>2026-05-02T09:50:41Z</time></trkpt><trkpt lat="44.23503273019901" lon="10.772819181170355"><ele>973.0</ele><time>2026-05-02T09:50:42Z</time></trkpt><trkpt lat="44.234918509022634" lon="10.772643079902409"><ele>976.0</ele><time>2026-05-02T09:50:43Z</time></trkpt><trkpt lat="44.234805863773055" lon="10.772513073987515"><ele>979.0</ele><time>2026-05-02T09:50:44Z</time></trkpt><trkpt lat="44.234671219588776" lon="10.772435704865986"><ele>979.0</ele><time>2026-05-02T09:50:45Z</time></trkpt><trkpt lat="44.234515733652614" lon="10.77238473531585"><ele>979.0</ele><time>2026-05-02T09:50:46Z</time></trkpt><trkpt lat="44.23434596760644" lon="10.772355517951558"><ele>979.0</ele><time>2026-05-02T09:50:47Z</time></trkpt><trkpt lat="44.234175667023024" lon="10.772342824998965"><ele>979.0</ele><time>2026-05-02T09:50:47.999Z</time></trkpt><trkpt lat="44.23400421486465" lon="10.7723177491041"><ele>979.0</ele><time>2026-05-02T09:50:48.999Z</time></trkpt><trkpt lat="44.233843481269666" lon="10.77223578762061"><ele>979.0</ele><time>2026-05-02T09:50:49.999Z</time></trkpt><trkpt lat="44.23368682709618" lon="10.772106338716766"><ele>979.3333333333333</ele><time>2026-05-02T09:50:50.999Z</time></trkpt><trkpt lat="44.23352203316104" lon="10.771956709543032"><ele>979.6666666666667</ele><time>2026-05-02T09:50:51.999Z</time></trkpt><trkpt lat="44.23336162786129" lon="10.77180410178576"><ele>980.0</ele><time>2026-05-02T09:50:52.999Z</time></trkpt><trkpt lat="44.23320370788854" lon="10.771722444659583"><ele>986.5</ele><time>2026-05-02T09:50:53.999Z</time></trkpt><trkpt lat="44.23307515685292" lon="10.771615879121242"><ele>993.0</ele><time>2026-05-02T09:50:54.999Z</time></trkpt><trkpt lat="44.23297845656734" lon="10.771476067410822"><ele>999.5</ele><time>2026-05-02T09:50:55.999Z</time></trkpt><trkpt lat="44.23291468159376" lon="10.77128927534499"><ele>1006.0</ele><time>2026-05-02T09:50:56.999Z</time></trkpt><trkpt lat="44.23285522564827" lon="10.771049349404587"><ele>1001.3333333333333</ele><time>2026-05-02T09:50:57.999Z</time></trkpt><trkpt lat="44.23278945564576" lon="10.770797448900863"><ele>996.6666666666667</ele><time>2026-05-02T09:50:58.999Z</time></trkpt><trkpt lat="44.232707043579936" lon="10.770529578188912"><ele>992.0</ele><time>2026-05-02T09:50:59.999Z</time></trkpt><trkpt lat="44.2326389663569" lon="10.770299998000008"><ele>990.0</ele><time>2026-05-02T09:51:00.999Z</time></trkpt><trkpt lat="44.232584217539745" lon="10.770087083541343"><ele>988.0</ele><time>2026-05-02T09:51:01.999Z</time></trkpt><trkpt lat="44.232537911118534" lon="10.769881582292617"><ele>986.0</ele><time>2026-05-02T09:51:02.999Z</time></trkpt><trkpt lat="44.23249474720869" lon="10.7697038498849"><ele>986.0</ele><time>2026-05-02T09:51:03.999Z</time></trkpt><trkpt lat="44.23244042562703" lon="10.769558217021622"><ele>985.9999999999999</ele><time>2026-05-02T09:51:04.999Z</time></trkpt><trkpt lat="44.232360593170206" lon="10.769451607962862"><ele>985.9999999999999</ele><time>2026-05-02T09:51:05.999Z</time></trkpt><trkpt lat="44.23225663513393" lon="10.769409940554594"><ele>986.0</ele><time>2026-05-02T09:51:06.999Z</time></trkpt><trkpt lat="44.23214506154557" lon="10.769435665452518"><ele>986.0</ele><time>2026-05-02T09:51:07.999Z</time></trkpt><trkpt lat="44.232036226128166" lon="10.76952424558327"><ele>989.25</ele><time>2026-05-02T09:51:08.999Z</time></trkpt><trkpt lat="44.2319319532054" lon="10.7696556770467"><ele>992.5</ele><time>2026-05-02T09:51:09.999Z</time></trkpt><trkpt lat="44.23181608973384" lon="10.769758380282754"><ele>995.75</ele><time>2026-05-02T09:51:10.999Z</time></trkpt><trkpt lat="44.231710822294474" lon="10.769809200844573"><ele>999.0</ele><time>2026-05-02T09:51:11.999Z</time></trkpt><trkpt lat="44.231612828576424" lon="10.769807558667122"><ele>999.0</ele><time>2026-05-02T09:51:12.999Z</time></trkpt><trkpt lat="44.231523022194665" lon="10.769750145543806"><ele>999.0</ele><time>2026-05-02T09:51:13.999Z</time></trkpt><trkpt lat="44.23141696565558" lon="10.769679756468474"><ele>999.0</ele><time>2026-05-02T09:51:14.999Z</time></trkpt><trkpt lat="44.231297092924066" lon="10.769595882185234"><ele>999.0</ele><time>2026-05-02T09:51:15.999Z</time></trkpt><trkpt lat="44.231164123457376" lon="10.769510984517053"><ele>998.75</ele><time>2026-05-02T09:51:16.999Z</time></trkpt><trkpt lat="44.23103219247839" lon="10.769428133221083"><ele>998.5</ele><time>2026-05-02T09:51:17.999Z</time></trkpt><trkpt lat="44.230916168360274" lon="10.76935362295307"><ele>998.25</ele><time>2026-05-02T09:51:18.999Z</time></trkpt><trkpt lat="44.23081114640329" lon="10.769285728992214"><ele>998.0</ele><time>2026-05-02T09:51:19.999Z</time></trkpt><trkpt lat="44.23071134445181" lon="10.769222370289524"><ele>1002.75</ele><time>2026-05-02T09:51:20.999Z</time></trkpt><trkpt lat="44.23061104140905" lon="10.769159622898657"><ele>1007.5</ele><time>2026-05-02T09:51:21.999Z</time></trkpt><trkpt lat="44.230510098876664" lon="10.769098598062765"><ele>1012.25</ele><time>2026-05-02T09:51:22.999Z</time></trkpt><trkpt lat="44.23040537667887" lon="10.769034010917645"><ele>1017.0</ele><time>2026-05-02T09:51:23.999Z</time></trkpt><trkpt lat="44.23030716550175" lon="10.768947939730396"><ele>1017.0</ele><time>2026-05-02T09:51:24.999Z</time></trkpt><trkpt lat="44.23023276769931" lon="10.768819289294225"><ele>1017.0</ele><time>2026-05-02T09:51:25.999Z</time></trkpt><trkpt lat="44.23018710845831" lon="10.768664981983244"><ele>1017.0</ele><time>2026-05-02T09:51:26.999Z</time></trkpt><trkpt lat="44.23019661785446" lon="10.768485024758759"><ele>1017.0</ele><time>2026-05-02T09:51:27.999Z</time></trkpt><trkpt lat="44.230190777826444" lon="10.768315602052006"><ele>1016.75</ele><time>2026-05-02T09:51:28.999Z</time></trkpt><trkpt lat="44.23022931637188" lon="10.76816584508039"><ele>1016.5</ele><time>2026-05-02T09:51:29.999Z</time></trkpt><trkpt lat="44.2302993029181" lon="10.768046867105634"><ele>1016.25</ele><time>2026-05-02T09:51:30.999Z</time></trkpt><trkpt lat="44.23038504431279" lon="10.767937988131527"><ele>1016.0</ele><time>2026-05-02T09:51:31.999Z</time></trkpt><trkpt lat="44.2304576848946" lon="10.76781517131744"><ele>1016.0</ele><time>2026-05-02T09:51:32.999Z</time></trkpt><trkpt lat="44.23053970697047" lon="10.767709753912362"><ele>1015.9999999999999</ele><time>2026-05-02T09:51:33.999Z</time></trkpt><trkpt lat="44.23061772582128" lon="10.767602146918057"><ele>1015.9999999999999</ele><time>2026-05-02T09:51:34.999Z</time></trkpt><trkpt lat="44.230694403711595" lon="10.76749808171204"><ele>1016.0</ele><time>2026-05-02T09:51:35.999Z</time></trkpt><trkpt lat="44.23076453059532" lon="10.76739239421788"><ele>1016.0</ele><time>2026-05-02T09:51:36.999Z</time></trkpt><trkpt lat="44.230809200549444" lon="10.767266650680659"><ele>1014.8</ele><time>2026-05-02T09:51:37.999Z</time></trkpt><trkpt lat="44.23082420143282" lon="10.767117399053266"><ele>1013.5999999999999</ele><time>2026-05-02T09:51:38.999Z</time></trkpt><trkpt lat="44.23083345659441" lon="10.766983126797527"><ele>1012.4</ele><time>2026-05-02T09:51:39.999Z</time></trkpt><trkpt lat="44.230841313923015" lon="10.76686583896407"><ele>1011.2</ele><time>2026-05-02T09:51:40.999Z</time></trkpt><trkpt lat="44.230846253646845" lon="10.76674327912837"><ele>1010.0</ele><time>2026-05-02T09:51:41.999Z</time></trkpt><trkpt lat="44.23083668563803" lon="10.766624744531343"><ele>1010.0000000000001</ele><time>2026-05-02T09:51:42.999Z</time></trkpt><trkpt lat="44.2308027282718" lon="10.766539787274434"><ele>1010.0</ele><time>2026-05-02T09:51:43.999Z</time></trkpt><trkpt lat="44.230756467638486" lon="10.766472615500378"><ele>1010.0</ele><time>2026-05-02T09:51:44.999Z</time></trkpt><trkpt lat="44.23069376944166" lon="10.766428234275603"><ele>1010.0</ele><time>2026-05-02T09:51:45.999Z</time></trkpt><trkpt lat="44.230624830543164" lon="10.76641113665293"><ele>1010.0000000000001</ele><time>2026-05-02T09:51:46.999Z</time></trkpt><trkpt lat="44.23051216564647" lon="10.766436403711763"><ele>1010.0</ele><time>2026-05-02T09:51:48.999Z</time></trkpt><trkpt lat="44.23044466711902" lon="10.766452745057762"><ele>1012.0000000000001</ele><time>2026-05-02T09:51:50.999Z</time></trkpt><trkpt lat="44.230376526228426" lon="10.766463992480983"><ele>1014.0</ele><time>2026-05-02T09:51:55Z</time></trkpt><trkpt lat="44.230295775357675" lon="10.766508709926274"><ele>1016.0</ele><time>2026-05-02T09:51:58Z</time></trkpt><trkpt lat="44.230271092428666" lon="10.766646493229656"><ele>1018.0</ele><time>2026-05-02T09:52:00Z</time></trkpt><trkpt lat="44.23026410828122" lon="10.766743256522986"><ele>1020.0000000000001</ele><time>2026-05-02T09:52:02Z</time></trkpt><trkpt lat="44.2302565717405" lon="10.766844300223903"><ele>1022.0</ele><time>2026-05-02T09:52:04Z</time></trkpt><trkpt lat="44.23023786789053" lon="10.76694785708582"><ele>1022.0</ele><time>2026-05-02T09:52:06Z</time></trkpt><trkpt lat="44.23019765679153" lon="10.767042920358042"><ele>1022.0</ele><time>2026-05-02T09:52:21Z</time></trkpt><trkpt lat="44.23004380437486" lon="10.76707500934944"><ele>1022.0</ele><time>2026-05-02T09:52:24Z</time></trkpt><trkpt lat="44.22996775123382" lon="10.767107931606473"><ele>1022.0</ele><time>2026-05-02T09:52:25Z</time></trkpt><trkpt lat="44.22989130599967" lon="10.767153703825793"><ele>1022.0</ele><time>2026-05-02T09:52:26Z</time></trkpt><trkpt lat="44.229820177756146" lon="10.767233433077497"><ele>1028.0</ele><time>2026-05-02T09:52:27Z</time></trkpt><trkpt lat="44.22975920483456" lon="10.767342478573925"><ele>1034.0</ele><time>2026-05-02T09:52:28Z</time></trkpt><trkpt lat="44.22971612256477" lon="10.767485233463624"><ele>1040.0</ele><time>2026-05-02T09:52:29Z</time></trkpt><trkpt lat="44.2296888652939" lon="10.767648298591729"><ele>1046.0</ele><time>2026-05-02T09:52:30Z</time></trkpt><trkpt lat="44.229625809796495" lon="10.767821153558684"><ele>1046.0</ele><time>2026-05-02T09:52:31Z</time></trkpt><trkpt lat="44.229546681935936" lon="10.767983564858259"><ele>1046.0</ele><time>2026-05-02T09:52:32Z</time></trkpt><trkpt lat="44.22946078141495" lon="10.768144145928797"><ele>1046.0</ele><time>2026-05-02T09:52:33Z</time></trkpt><trkpt lat="44.229389068128036" lon="10.76831687262013"><ele>1046.0</ele><time>2026-05-02T09:52:34Z</time></trkpt><trkpt lat="44.22933892756029" lon="10.76849049199082"><ele>1044.75</ele><time>2026-05-02T09:52:35Z</time></trkpt><trkpt lat="44.22931769203929" lon="10.768657535253737"><ele>1043.5</ele><time>2026-05-02T09:52:36Z</time></trkpt><trkpt lat="44.229314796222354" lon="10.768829282397022"><ele>1042.25</ele><time>2026-05-02T09:52:37Z</time></trkpt><trkpt lat="44.229309041662596" lon="10.769001231051584"><ele>1041.0</ele><time>2026-05-02T09:52:38Z</time></trkpt><trkpt lat="44.22928872771015" lon="10.76917081846447"><ele>1041.0</ele><time>2026-05-02T09:52:39Z</time></trkpt><trkpt lat="44.22925294085303" lon="10.769337877063816"><ele>1041.0</ele><time>2026-05-02T09:52:40Z</time></trkpt><trkpt lat="44.22921425511093" lon="10.769497466940036"><ele>1041.0</ele><time>2026-05-02T09:52:41Z</time></trkpt><trkpt lat="44.229184805597406" lon="10.769641315097537"><ele>1041.0</ele><time>2026-05-02T09:52:42Z</time></trkpt><trkpt lat="44.2291707169369" lon="10.769777165183113"><ele>1041.0</ele><time>2026-05-02T09:52:43Z</time></trkpt><trkpt lat="44.2291726371988" lon="10.769896692744386"><ele>1041.0</ele><time>2026-05-02T09:52:44Z</time></trkpt><trkpt lat="44.229192103234105" lon="10.770005187162216"><ele>1041.0</ele><time>2026-05-02T09:52:45Z</time></trkpt><trkpt lat="44.229220869746" lon="10.770097199632717"><ele>1041.0</ele><time>2026-05-02T09:52:46Z</time></trkpt><trkpt lat="44.229249238603956" lon="10.770184259510192"><ele>1041.0</ele><time>2026-05-02T09:52:46.999Z</time></trkpt><trkpt lat="44.229276837600295" lon="10.770267645063022"><ele>1041.0</ele><time>2026-05-02T09:52:47.999Z</time></trkpt><trkpt lat="44.22929887835938" lon="10.770353464955539"><ele>1041.0</ele><time>2026-05-02T09:52:48.999Z</time></trkpt><trkpt lat="44.22930361569949" lon="10.770448952462043"><ele>1041.8</ele><time>2026-05-02T09:52:49.999Z</time></trkpt><trkpt lat="44.22931837943648" lon="10.770539230814043"><ele>1042.6</ele><time>2026-05-02T09:52:50.999Z</time></trkpt><trkpt lat="44.229184322030065" lon="10.770660151770441"><ele>1043.4</ele><time>2026-05-02T09:52:52.999Z</time></trkpt><trkpt lat="44.22909875550687" lon="10.77067578294983"><ele>1044.2</ele><time>2026-05-02T09:52:53.999Z</time></trkpt><trkpt lat="44.229010861352585" lon="10.77069371644515"><ele>1045.0</ele><time>2026-05-02T09:52:54.999Z</time></trkpt><trkpt lat="44.22893725552364" lon="10.770708989289128"><ele>1045.0</ele><time>2026-05-02T09:52:55.999Z</time></trkpt><trkpt lat="44.22887337199492" lon="10.770746542444188"><ele>1045.0</ele><time>2026-05-02T09:52:56.999Z</time></trkpt><trkpt lat="44.228815720439016" lon="10.77082128885283"><ele>1045.0</ele><time>2026-05-02T09:52:57.999Z</time></trkpt><trkpt lat="44.228694406649694" lon="10.770832521190432"><ele>1045.0</ele><time>2026-05-02T09:52:58.999Z</time></trkpt><trkpt lat="44.22863340234344" lon="10.770924778719543"><ele>1045.0</ele><time>2026-05-02T09:52:59.999Z</time></trkpt><trkpt lat="44.22864811601353" lon="10.771104633342137"><ele>1041.5</ele><time>2026-05-02T09:53:00.999Z</time></trkpt><trkpt lat="44.22860164801928" lon="10.77119207026163"><ele>1038.0</ele><time>2026-05-02T09:53:01.999Z</time></trkpt><trkpt lat="44.228551769939216" lon="10.771279157495377"><ele>1034.5</ele><time>2026-05-02T09:53:02.999Z</time></trkpt><trkpt lat="44.228497095774706" lon="10.771356645355315"><ele>1031.0</ele><time>2026-05-02T09:53:03.999Z</time></trkpt><trkpt lat="44.22842761370895" lon="10.771398661549254"><ele>1027.5</ele><time>2026-05-02T09:53:04.999Z</time></trkpt><trkpt lat="44.228350978676225" lon="10.77139653169762"><ele>1024.0</ele><time>2026-05-02T09:53:05.999Z</time></trkpt><trkpt lat="44.22826694743256" lon="10.771354515548321"><ele>1024.0</ele><time>2026-05-02T09:53:06.999Z</time></trkpt><trkpt lat="44.22816531693868" lon="10.771273982925033"><ele>1024.0</ele><time>2026-05-02T09:53:07.999Z</time></trkpt><trkpt lat="44.228062914100164" lon="10.77117845310982"><ele>1024.0</ele><time>2026-05-02T09:53:08.999Z</time></trkpt><trkpt lat="44.22797603401464" lon="10.771081130168964"><ele>1024.0</ele><time>2026-05-02T09:53:09.999Z</time></trkpt><trkpt lat="44.22788749605892" lon="10.771016814061614"><ele>1023.5</ele><time>2026-05-02T09:53:10.999Z</time></trkpt><trkpt lat="44.2277828407269" lon="10.770996027263113"><ele>1023.0</ele><time>2026-05-02T09:53:11.999Z</time></trkpt><trkpt lat="44.227660170267605" lon="10.771011636076391"><ele>1022.5</ele><time>2026-05-02T09:53:12.999Z</time></trkpt><trkpt lat="44.227529274450056" lon="10.771034524603879"><ele>1022.0</ele><time>2026-05-02T09:53:13.999Z</time></trkpt><trkpt lat="44.227406620430635" lon="10.7710385495703"><ele>1023.25</ele><time>2026-05-02T09:53:14.999Z</time></trkpt><trkpt lat="44.227283993665736" lon="10.771064084125547"><ele>1024.5</ele><time>2026-05-02T09:53:15.999Z</time></trkpt><trkpt lat="44.2271674924817" lon="10.771127979505358"><ele>1025.75</ele><time>2026-05-02T09:53:16.999Z</time></trkpt><trkpt lat="44.227048488833205" lon="10.771223819058864"><ele>1027.0</ele><time>2026-05-02T09:53:17.999Z</time></trkpt><trkpt lat="44.22694339184184" lon="10.771325343604516"><ele>1027.0</ele><time>2026-05-02T09:53:18.999Z</time></trkpt><trkpt lat="44.22684486329894" lon="10.771425958822018"><ele>1027.0</ele><time>2026-05-02T09:53:19.999Z</time></trkpt><trkpt lat="44.22675551939904" lon="10.771496031958124"><ele>1027.0</ele><time>2026-05-02T09:53:20.999Z</time></trkpt><trkpt lat="44.22667649551327" lon="10.771561034516532"><ele>1027.0</ele><time>2026-05-02T09:53:21.999Z</time></trkpt><trkpt lat="44.22660355974101" lon="10.771621559231713"><ele>1027.0</ele><time>2026-05-02T09:53:22.999Z</time></trkpt><trkpt lat="44.22651887867303" lon="10.771674799835994"><ele>1029.5</ele><time>2026-05-02T09:53:23.999Z</time></trkpt><trkpt lat="44.22641811466594" lon="10.77171027710635"><ele>1032.0</ele><time>2026-05-02T09:53:24.999Z</time></trkpt><trkpt lat="44.22629756761903" lon="10.77173758860832"><ele>1034.5</ele><time>2026-05-02T09:53:25.999Z</time></trkpt><trkpt lat="44.22618416430674" lon="10.771784210555957"><ele>1037.0</ele><time>2026-05-02T09:53:26.999Z</time></trkpt><trkpt lat="44.226071157555566" lon="10.771845510391111"><ele>1032.0</ele><time>2026-05-02T09:53:27.999Z</time></trkpt><trkpt lat="44.22596582357707" lon="10.771933549116596"><ele>1027.0</ele><time>2026-05-02T09:53:28.999Z</time></trkpt><trkpt lat="44.225857838540165" lon="10.772029103476763"><ele>1022.0</ele><time>2026-05-02T09:53:29.999Z</time></trkpt><trkpt lat="44.2257469472652" lon="10.772117423625655"><ele>1017.0</ele><time>2026-05-02T09:53:30.999Z</time></trkpt><trkpt lat="44.225650348267145" lon="10.772228095673066"><ele>1021.8</ele><time>2026-05-02T09:53:31.999Z</time></trkpt><trkpt lat="44.22556507126737" lon="10.77234711949801"><ele>1026.6</ele><time>2026-05-02T09:53:32.999Z</time></trkpt><trkpt lat="44.225474842296215" lon="10.772431512038496"><ele>1031.3999999999999</ele><time>2026-05-02T09:53:33.999Z</time></trkpt><trkpt lat="44.22536585014371" lon="10.772466845184924"><ele>1036.2</ele><time>2026-05-02T09:53:34.999Z</time></trkpt><trkpt lat="44.22526633813244" lon="10.772488455017921"><ele>1041.0</ele><time>2026-05-02T09:53:35.999Z</time></trkpt><trkpt lat="44.225178711433145" lon="10.772546391986564"><ele>1041.0</ele><time>2026-05-02T09:53:36.999Z</time></trkpt><trkpt lat="44.22510677327233" lon="10.772647533996937"><ele>1041.0</ele><time>2026-05-02T09:53:37.999Z</time></trkpt><trkpt lat="44.225056450693565" lon="10.772778783614259"><ele>1041.0</ele><time>2026-05-02T09:53:38.999Z</time></trkpt><trkpt lat="44.22501198817" lon="10.772933386235682"><ele>1041.0</ele><time>2026-05-02T09:53:39.999Z</time></trkpt><trkpt lat="44.22497544205013" lon="10.773087418102165"><ele>1041.0</ele><time>2026-05-02T09:53:40.999Z</time></trkpt><trkpt lat="44.224932814049005" lon="10.773225121791684"><ele>1036.3999999999999</ele><time>2026-05-02T09:53:41.999Z</time></trkpt><trkpt lat="44.22487622164675" lon="10.773336224806144"><ele>1031.8</ele><time>2026-05-02T09:53:42.999Z</time></trkpt><trkpt lat="44.22481322474451" lon="10.773434625940617"><ele>1027.1999999999998</ele><time>2026-05-02T09:53:43.999Z</time></trkpt><trkpt lat="44.224739234797426" lon="10.77352241660787"><ele>1022.5999999999999</ele><time>2026-05-02T09:53:44.999Z</time></trkpt><trkpt lat="44.224662564970224" lon="10.77360173548903"><ele>1018.0</ele><time>2026-05-02T09:53:45.999Z</time></trkpt><trkpt lat="44.224596438179894" lon="10.773689892550966"><ele>1018.0</ele><time>2026-05-02T09:53:46.999Z</time></trkpt><trkpt lat="44.224552956905754" lon="10.773791311821522"><ele>1018.0</ele><time>2026-05-02T09:53:47.999Z</time></trkpt><trkpt lat="44.22453267731219" lon="10.77388915319328"><ele>1018.0</ele><time>2026-05-02T09:53:48.999Z</time></trkpt><trkpt lat="44.22454641702821" lon="10.774030541973753"><ele>1018.0</ele><time>2026-05-02T09:53:50.999Z</time></trkpt><trkpt lat="44.224430447587196" lon="10.774096008533666"><ele>1018.0</ele><time>2026-05-02T09:53:51.999Z</time></trkpt><trkpt lat="44.2243603089424" lon="10.774192589080588"><ele>1018.0</ele><time>2026-05-02T09:53:52.999Z</time></trkpt><trkpt lat="44.22427724286334" lon="10.774296682940859"><ele>1018.0</ele><time>2026-05-02T09:53:53.999Z</time></trkpt><trkpt lat="44.22419801836723" lon="10.774406815902736"><ele>1018.0</ele><time>2026-05-02T09:53:54.999Z</time></trkpt><trkpt lat="44.22411943786052" lon="10.774493955667886"><ele>1018.0</ele><time>2026-05-02T09:53:55.999Z</time></trkpt><trkpt lat="44.22402889501265" lon="10.77455428998076"><ele>1018.0</ele><time>2026-05-02T09:53:56.999Z</time></trkpt><trkpt lat="44.2239238112548" lon="10.774591780197499"><ele>1014.0</ele><time>2026-05-02T09:53:57.999Z</time></trkpt><trkpt lat="44.223805021833925" lon="10.774643372248148"><ele>1010.0</ele><time>2026-05-02T09:53:58.999Z</time></trkpt><trkpt lat="44.22367757656489" lon="10.774706095801017"><ele>1006.0</ele><time>2026-05-02T09:53:59.999Z</time></trkpt><trkpt lat="44.22354941374843" lon="10.774763724642936"><ele>1002.0</ele><time>2026-05-02T09:54:01Z</time></trkpt><trkpt lat="44.22341741406663" lon="10.774809264866828"><ele>1002.0</ele><time>2026-05-02T09:54:02Z</time></trkpt><trkpt lat="44.223288646600025" lon="10.774847972085217"><ele>1002.0</ele><time>2026-05-02T09:54:03Z</time></trkpt><trkpt lat="44.22316557859224" lon="10.774876569569335"><ele>1002.0</ele><time>2026-05-02T09:54:04Z</time></trkpt><trkpt lat="44.223051135845424" lon="10.774888400696968"><ele>1002.0</ele><time>2026-05-02T09:54:05Z</time></trkpt><trkpt lat="44.22295079383358" lon="10.774877653495286"><ele>1001.0</ele><time>2026-05-02T09:54:06Z</time></trkpt><trkpt lat="44.22285457334959" lon="10.774844234253164"><ele>1000.0</ele><time>2026-05-02T09:54:07Z</time></trkpt><trkpt lat="44.222754134337876" lon="10.77478814496139"><ele>999.0</ele><time>2026-05-02T09:54:08Z</time></trkpt><trkpt lat="44.22265287711085" lon="10.774718717962958"><ele>998.0</ele><time>2026-05-02T09:54:09Z</time></trkpt><trkpt lat="44.222560825578235" lon="10.774654158726955"><ele>997.0</ele><time>2026-05-02T09:54:10Z</time></trkpt><trkpt lat="44.22246342819006" lon="10.774634420622261"><ele>997.0</ele><time>2026-05-02T09:54:11Z</time></trkpt><trkpt lat="44.22237300761042" lon="10.774680776181508"><ele>997.0</ele><time>2026-05-02T09:54:12Z</time></trkpt><trkpt lat="44.222296902043254" lon="10.774790745886824"><ele>997.0</ele><time>2026-05-02T09:54:13Z</time></trkpt><trkpt lat="44.222239438065515" lon="10.774939821013142"><ele>997.0</ele><time>2026-05-02T09:54:14Z</time></trkpt><trkpt lat="44.22218556941071" lon="10.775105278178108"><ele>999.75</ele><time>2026-05-02T09:54:15Z</time></trkpt><trkpt lat="44.22213352890502" lon="10.77529207426624"><ele>1002.5</ele><time>2026-05-02T09:54:16Z</time></trkpt><trkpt lat="44.22208891561779" lon="10.775474372151146"><ele>1005.25</ele><time>2026-05-02T09:54:17Z</time></trkpt><trkpt lat="44.222053182014825" lon="10.77565361080794"><ele>1008.0</ele><time>2026-05-02T09:54:18Z</time></trkpt><trkpt lat="44.222033228954515" lon="10.775832285621394"><ele>1008.0</ele><time>2026-05-02T09:54:19Z</time></trkpt><trkpt lat="44.22199796155746" lon="10.775991641692398"><ele>1008.0</ele><time>2026-05-02T09:54:20Z</time></trkpt><trkpt lat="44.22201863839132" lon="10.77615466282289"><ele>1008.0</ele><time>2026-05-02T09:54:21Z</time></trkpt><trkpt lat="44.22201617787398" lon="10.776301361396705"><ele>1008.0</ele><time>2026-05-02T09:54:22Z</time></trkpt><trkpt lat="44.222006075269256" lon="10.776455443949581"><ele>1006.2</ele><time>2026-05-02T09:54:23Z</time></trkpt><trkpt lat="44.221980630910274" lon="10.776616776030068"><ele>1004.4</ele><time>2026-05-02T09:54:24Z</time></trkpt><trkpt lat="44.22194734829054" lon="10.7767701973671"><ele>1002.6000000000001</ele><time>2026-05-02T09:54:25Z</time></trkpt><trkpt lat="44.22190598440038" lon="10.776910481850644"><ele>1000.8000000000001</ele><time>2026-05-02T09:54:26Z</time></trkpt><trkpt lat="44.22185634146773" lon="10.77703833866749"><ele>999.0</ele><time>2026-05-02T09:54:27Z</time></trkpt><trkpt lat="44.2217960382817" lon="10.777156151120577"><ele>999.8000000000001</ele><time>2026-05-02T09:54:28Z</time></trkpt><trkpt lat="44.22173055619147" lon="10.777261802691832"><ele>1000.6000000000001</ele><time>2026-05-02T09:54:29Z</time></trkpt><trkpt lat="44.22166175206053" lon="10.777361686737287"><ele>1001.4</ele><time>2026-05-02T09:54:30Z</time></trkpt><trkpt lat="44.2215730272501" lon="10.777421930969252"><ele>1002.2</ele><time>2026-05-02T09:54:31Z</time></trkpt><trkpt lat="44.22146702905048" lon="10.777484805029365"><ele>1003.0</ele><time>2026-05-02T09:54:32Z</time></trkpt><trkpt lat="44.22134526179544" lon="10.777552811123499"><ele>1003.0</ele><time>2026-05-02T09:54:33Z</time></trkpt><trkpt lat="44.221198439335815" lon="10.777628343355216"><ele>1003.0</ele><time>2026-05-02T09:54:34Z</time></trkpt><trkpt lat="44.22104519470664" lon="10.77772334619628"><ele>1003.0</ele><time>2026-05-02T09:54:35Z</time></trkpt><trkpt lat="44.22091940994813" lon="10.777797570551984"><ele>1005.25</ele><time>2026-05-02T09:54:36Z</time></trkpt><trkpt lat="44.22078540658207" lon="10.777803328372046"><ele>1007.5</ele><time>2026-05-02T09:54:37Z</time></trkpt><trkpt lat="44.22067142262371" lon="10.777732425774653"><ele>1009.75</ele><time>2026-05-02T09:54:38Z</time></trkpt><trkpt lat="44.22055113738744" lon="10.777681125257784"><ele>1012.0</ele><time>2026-05-02T09:54:39Z</time></trkpt><trkpt lat="44.22043584802996" lon="10.777600876772752"><ele>1012.0</ele><time>2026-05-02T09:54:40Z</time></trkpt><trkpt lat="44.220331608306175" lon="10.777496637101729"><ele>1012.0</ele><time>2026-05-02T09:54:41Z</time></trkpt><trkpt lat="44.22022437926514" lon="10.777410559027214"><ele>1012.0</ele><time>2026-05-02T09:54:42Z</time></trkpt><trkpt lat="44.220135473977166" lon="10.777323087487618"><ele>1012.0</ele><time>2026-05-02T09:54:43Z</time></trkpt><trkpt lat="44.220052534960615" lon="10.777260022587678"><ele>1012.0</ele><time>2026-05-02T09:54:44Z</time></trkpt><trkpt lat="44.21995117939325" lon="10.777254831193314"><ele>1012.0</ele><time>2026-05-02T09:54:45Z</time></trkpt><trkpt lat="44.219851943256" lon="10.77736511887312"><ele>1012.0</ele><time>2026-05-02T09:54:46Z</time></trkpt><trkpt lat="44.219783084969045" lon="10.777517857772642"><ele>1012.0</ele><time>2026-05-02T09:54:47Z</time></trkpt><trkpt lat="44.21971106762588" lon="10.77768864973903"><ele>1016.0</ele><time>2026-05-02T09:54:48Z</time></trkpt><trkpt lat="44.21966191404952" lon="10.777887870978173"><ele>1020.0</ele><time>2026-05-02T09:54:49Z</time></trkpt><trkpt lat="44.21962080840098" lon="10.778077049310735"><ele>1024.0</ele><time>2026-05-02T09:54:50Z</time></trkpt><trkpt lat="44.2195932794298" lon="10.778241672493648"><ele>1028.0</ele><time>2026-05-02T09:54:51Z</time></trkpt><trkpt lat="44.21957249046282" lon="10.778393978398107"><ele>1028.0</ele><time>2026-05-02T09:54:51.999Z</time></trkpt><trkpt lat="44.21952621713478" lon="10.77853856028429"><ele>1028.0</ele><time>2026-05-02T09:54:52.999Z</time></trkpt><trkpt lat="44.21947706749388" lon="10.778701141372037"><ele>1028.0</ele><time>2026-05-02T09:54:53.999Z</time></trkpt><trkpt lat="44.21941147436223" lon="10.778880168134915"><ele>1028.0</ele><time>2026-05-02T09:54:54.999Z</time></trkpt><trkpt lat="44.21931942936215" lon="10.779067997976268"><ele>1028.0</ele><time>2026-05-02T09:54:55.999Z</time></trkpt><trkpt lat="44.21919688190827" lon="10.779263520481674"><ele>1028.0</ele><time>2026-05-02T09:54:56.999Z</time></trkpt><trkpt lat="44.21907412715922" lon="10.779466401371517"><ele>1028.0</ele><time>2026-05-02T09:54:57.999Z</time></trkpt><trkpt lat="44.21896969831788" lon="10.7796245040869"><ele>1029.0</ele><time>2026-05-02T09:54:58.999Z</time></trkpt><trkpt lat="44.21889210394234" lon="10.779815006181208"><ele>1030.0</ele><time>2026-05-02T09:54:59.999Z</time></trkpt><trkpt lat="44.218843434630045" lon="10.780027628471855"><ele>1031.0</ele><time>2026-05-02T09:55:00.999Z</time></trkpt><trkpt lat="44.2188190093873" lon="10.780252076571585"><ele>1027.75</ele><time>2026-05-02T09:55:01.999Z</time></trkpt><trkpt lat="44.21880845209432" lon="10.780455920634918"><ele>1024.5</ele><time>2026-05-02T09:55:02.999Z</time></trkpt><trkpt lat="44.21878647784105" lon="10.78062534514788"><ele>1021.25</ele><time>2026-05-02T09:55:03.999Z</time></trkpt><trkpt lat="44.21873714565145" lon="10.780756451837446"><ele>1018.0</ele><time>2026-05-02T09:55:04.999Z</time></trkpt><trkpt lat="44.21865650329447" lon="10.780822724457767"><ele>1018.0</ele><time>2026-05-02T09:55:05.999Z</time></trkpt><trkpt lat="44.218567319633024" lon="10.78083017834495"><ele>1018.0</ele><time>2026-05-02T09:55:06.999Z</time></trkpt><trkpt lat="44.218485494395836" lon="10.780773039984872"><ele>1018.0</ele><time>2026-05-02T09:55:07.999Z</time></trkpt><trkpt lat="44.218410675594555" lon="10.780660981884342"><ele>1018.0</ele><time>2026-05-02T09:55:08.999Z</time></trkpt><trkpt lat="44.21837171618723" lon="10.780480955596138"><ele>1018.0</ele><time>2026-05-02T09:55:09.999Z</time></trkpt><trkpt lat="44.21833468938284" lon="10.780280332399396"><ele>1022.3333333333333</ele><time>2026-05-02T09:55:10.999Z</time></trkpt><trkpt lat="44.2182970456442" lon="10.780059437176472"><ele>1026.6666666666667</ele><time>2026-05-02T09:55:11.999Z</time></trkpt><trkpt lat="44.21826395377531" lon="10.779818563029533"><ele>1031.0</ele><time>2026-05-02T09:55:12.999Z</time></trkpt><trkpt lat="44.218221069810745" lon="10.779570662001746"><ele>1033.6666666666667</ele><time>2026-05-02T09:55:13.999Z</time></trkpt><trkpt lat="44.21823938835291" lon="10.779310778940483"><ele>1036.3333333333333</ele><time>2026-05-02T09:55:14.999Z</time></trkpt><trkpt lat="44.21826178214716" lon="10.779035882439612"><ele>1039.0</ele><time>2026-05-02T09:55:15.999Z</time></trkpt><trkpt lat="44.21827986812185" lon="10.77876104867998"><ele>1039.0</ele><time>2026-05-02T09:55:16.999Z</time></trkpt><trkpt lat="44.218311310725625" lon="10.778519091943977"><ele>1039.0</ele><time>2026-05-02T09:55:17.999Z</time></trkpt><trkpt lat="44.21833739880527" lon="10.778294352536346"><ele>1039.0</ele><time>2026-05-02T09:55:18.999Z</time></trkpt><trkpt lat="44.21835770723259" lon="10.778085226160288"><ele>1039.5</ele><time>2026-05-02T09:55:19.999Z</time></trkpt><trkpt lat="44.21837776124063" lon="10.777894070922517"><ele>1040.0</ele><time>2026-05-02T09:55:20.999Z</time></trkpt><trkpt lat="44.21839592543883" lon="10.777718599470768"><ele>1040.5</ele><time>2026-05-02T09:55:21.999Z</time></trkpt><trkpt lat="44.21841424853621" lon="10.777541840844878"><ele>1041.0</ele><time>2026-05-02T09:55:22.999Z</time></trkpt><trkpt lat="44.21846063876882" lon="10.777360230332123"><ele>1041.0</ele><time>2026-05-02T09:55:23.999Z</time></trkpt><trkpt lat="44.21848816400573" lon="10.77717496731006"><ele>1041.0</ele><time>2026-05-02T09:55:24.999Z</time></trkpt><trkpt lat="44.21850542842516" lon="10.777006592654367"><ele>1041.0</ele><time>2026-05-02T09:55:25.999Z</time></trkpt><trkpt lat="44.218517486072024" lon="10.776849663464334"><ele>1041.0</ele><time>2026-05-02T09:55:26.999Z</time></trkpt><trkpt lat="44.21853265399581" lon="10.776692109894498"><ele>1042.0</ele><time>2026-05-02T09:55:27.999Z</time></trkpt><trkpt lat="44.21854759298608" lon="10.776529467816736"><ele>1043.0</ele><time>2026-05-02T09:55:28.999Z</time></trkpt><trkpt lat="44.218605343547175" lon="10.77638630130166"><ele>1044.0</ele><time>2026-05-02T09:55:29.999Z</time></trkpt><trkpt lat="44.21868737242257" lon="10.776262836602902"><ele>1045.0</ele><time>2026-05-02T09:55:30.999Z</time></trkpt><trkpt lat="44.218798079995295" lon="10.776176715380151"><ele>1045.0</ele><time>2026-05-02T09:55:31.999Z</time></trkpt><trkpt lat="44.21892307510613" lon="10.776130020399247"><ele>1045.0</ele><time>2026-05-02T09:55:32.999Z</time></trkpt><trkpt lat="44.219016946775994" lon="10.776067901377894"><ele>1045.0</ele><time>2026-05-02T09:55:33.999Z</time></trkpt><trkpt lat="44.21907125946217" lon="10.775984382035377"><ele>1045.0</ele><time>2026-05-02T09:55:34.999Z</time></trkpt><trkpt lat="44.21910361344628" lon="10.77589946134027"><ele>1045.0</ele><time>2026-05-02T09:55:35.999Z</time></trkpt><trkpt lat="44.219078878842204" lon="10.775752476126732"><ele>1049.5</ele><time>2026-05-02T09:55:36.999Z</time></trkpt><trkpt lat="44.219027524126645" lon="10.775612513567811"><ele>1054.0</ele><time>2026-05-02T09:55:37.999Z</time></trkpt><trkpt lat="44.218951415724504" lon="10.775475026257398"><ele>1058.5</ele><time>2026-05-02T09:55:38.999Z</time></trkpt><trkpt lat="44.21885688558925" lon="10.775377448308904"><ele>1063.0</ele><time>2026-05-02T09:55:39.999Z</time></trkpt><trkpt lat="44.2187596139599" lon="10.775293493502781"><ele>1063.0</ele><time>2026-05-02T09:55:40.999Z</time></trkpt><trkpt lat="44.218652686246585" lon="10.775246483885685"><ele>1063.0</ele><time>2026-05-02T09:55:41.999Z</time></trkpt><trkpt lat="44.21853207973037" lon="10.77525958224665"><ele>1063.0</ele><time>2026-05-02T09:55:42.999Z</time></trkpt><trkpt lat="44.21840104489839" lon="10.775318521667463"><ele>1063.0</ele><time>2026-05-02T09:55:43.999Z</time></trkpt><trkpt lat="44.21827214603881" lon="10.775358287224076"><ele>1061.0</ele><time>2026-05-02T09:55:44.999Z</time></trkpt><trkpt lat="44.2181315638553" lon="10.7752891352366"><ele>1059.0</ele><time>2026-05-02T09:55:45.999Z</time></trkpt><trkpt lat="44.21796636200267" lon="10.775225221882357"><ele>1057.0</ele><time>2026-05-02T09:55:46.999Z</time></trkpt><trkpt lat="44.217790527147784" lon="10.775162000310516"><ele>1065.0</ele><time>2026-05-02T09:55:47.999Z</time></trkpt><trkpt lat="44.21761182147997" lon="10.775094780615925"><ele>1073.0</ele><time>2026-05-02T09:55:48.999Z</time></trkpt><trkpt lat="44.21742908770446" lon="10.775017748288194"><ele>1081.0</ele><time>2026-05-02T09:55:49.999Z</time></trkpt><trkpt lat="44.21724759648446" lon="10.774932243966415"><ele>1081.0</ele><time>2026-05-02T09:55:50.999Z</time></trkpt><trkpt lat="44.2170637152868" lon="10.774855920353168"><ele>1081.0</ele><time>2026-05-02T09:55:51.999Z</time></trkpt><trkpt lat="44.21688979609865" lon="10.774746390887975"><ele>1081.0</ele><time>2026-05-02T09:55:52.999Z</time></trkpt><trkpt lat="44.216721701796764" lon="10.774645546074339"><ele>1081.0</ele><time>2026-05-02T09:55:53.999Z</time></trkpt><trkpt lat="44.21655717370257" lon="10.77454240913911"><ele>1081.0</ele><time>2026-05-02T09:55:54.999Z</time></trkpt><trkpt lat="44.21640942961226" lon="10.774411579427754"><ele>1081.0</ele><time>2026-05-02T09:55:55.999Z</time></trkpt><trkpt lat="44.2162782501505" lon="10.774251821964755"><ele>1087.6666666666665</ele><time>2026-05-02T09:55:56.999Z</time></trkpt><trkpt lat="44.216187197391825" lon="10.774067197757711"><ele>1094.3333333333333</ele><time>2026-05-02T09:55:57.999Z</time></trkpt><trkpt lat="44.216086249897685" lon="10.773911338844659"><ele>1101.0</ele><time>2026-05-02T09:55:58.999Z</time></trkpt><trkpt lat="44.21592852268189" lon="10.773857260356554"><ele>1101.0</ele><time>2026-05-02T09:55:59.999Z</time></trkpt><trkpt lat="44.21577490250655" lon="10.773875438461216"><ele>1101.0</ele><time>2026-05-02T09:56:00.999Z</time></trkpt><trkpt lat="44.21561910971498" lon="10.773827632676287"><ele>1101.0</ele><time>2026-05-02T09:56:01.999Z</time></trkpt><trkpt lat="44.21546580099203" lon="10.773748868181208"><ele>1097.5</ele><time>2026-05-02T09:56:02.999Z</time></trkpt><trkpt lat="44.21533692582228" lon="10.7736566443245"><ele>1094.0</ele><time>2026-05-02T09:56:03.999Z</time></trkpt><trkpt lat="44.21523665347544" lon="10.773529428979744"><ele>1090.5</ele><time>2026-05-02T09:56:04.999Z</time></trkpt><trkpt lat="44.21513140908638" lon="10.773378898647929"><ele>1087.0</ele><time>2026-05-02T09:56:05.999Z</time></trkpt><trkpt lat="44.21502879324528" lon="10.773214294648207"><ele>1094.5</ele><time>2026-05-02T09:56:07Z</time></trkpt><trkpt lat="44.21493394742419" lon="10.773048380432611"><ele>1102.0</ele><time>2026-05-02T09:56:08Z</time></trkpt><trkpt lat="44.21489159484206" lon="10.772877175072074"><ele>1109.5</ele><time>2026-05-02T09:56:09Z</time></trkpt><trkpt lat="44.214862142470814" lon="10.772724984369447"><ele>1117.0</ele><time>2026-05-02T09:56:10Z</time></trkpt><trkpt lat="44.2148670587755" lon="10.772571984124996"><ele>1115.0</ele><time>2026-05-02T09:56:11Z</time></trkpt><trkpt lat="44.21491939111797" lon="10.772425473397512"><ele>1113.0</ele><time>2026-05-02T09:56:12Z</time></trkpt><trkpt lat="44.214934348627594" lon="10.772282173291522"><ele>1111.0</ele><time>2026-05-02T09:56:13Z</time></trkpt><trkpt lat="44.214934477302315" lon="10.772144656410985"><ele>1109.0</ele><time>2026-05-02T09:56:14Z</time></trkpt><trkpt lat="44.214865137416" lon="10.772000683937263"><ele>1107.0</ele><time>2026-05-02T09:56:15Z</time></trkpt><trkpt lat="44.2147319452948" lon="10.77195261593023"><ele>1107.0</ele><time>2026-05-02T09:56:16Z</time></trkpt><trkpt lat="44.214610654346636" lon="10.77188301132716"><ele>1107.0</ele><time>2026-05-02T09:56:17Z</time></trkpt><trkpt lat="44.21449475717816" lon="10.771768913830543"><ele>1107.0</ele><time>2026-05-02T09:56:18Z</time></trkpt><trkpt lat="44.21436932864606" lon="10.771655650018417"><ele>1107.0</ele><time>2026-05-02T09:56:19Z</time></trkpt><trkpt lat="44.21423027960277" lon="10.771561527143383"><ele>1108.75</ele><time>2026-05-02T09:56:20Z</time></trkpt><trkpt lat="44.21409200758514" lon="10.77151293452524"><ele>1110.5</ele><time>2026-05-02T09:56:21Z</time></trkpt><trkpt lat="44.21395604969792" lon="10.771484199647556"><ele>1112.25</ele><time>2026-05-02T09:56:22Z</time></trkpt><trkpt lat="44.213842670640766" lon="10.77145200555038"><ele>1114.0</ele><time>2026-05-02T09:56:23Z</time></trkpt><trkpt lat="44.21377248253715" lon="10.77136934979416"><ele>1114.0</ele><time>2026-05-02T09:56:24Z</time></trkpt><trkpt lat="44.21371671116171" lon="10.771239652374124"><ele>1114.0</ele><time>2026-05-02T09:56:25Z</time></trkpt><trkpt lat="44.21368049252669" lon="10.771063481445035"><ele>1114.0</ele><time>2026-05-02T09:56:26Z</time></trkpt><trkpt lat="44.21365124730596" lon="10.770860932464423"><ele>1114.0</ele><time>2026-05-02T09:56:27Z</time></trkpt><trkpt lat="44.21359440354056" lon="10.770649308231484"><ele>1119.3333333333333</ele><time>2026-05-02T09:56:28Z</time></trkpt><trkpt lat="44.21350953258653" lon="10.770431953408558"><ele>1124.6666666666667</ele><time>2026-05-02T09:56:29Z</time></trkpt><trkpt lat="44.21344838484834" lon="10.770215613107187"><ele>1130.0</ele><time>2026-05-02T09:56:30Z</time></trkpt><trkpt lat="44.213411379568775" lon="10.769994242397361"><ele>1135.0</ele><time>2026-05-02T09:56:31Z</time></trkpt><trkpt lat="44.213388471688624" lon="10.769796359975135"><ele>1140.0</ele><time>2026-05-02T09:56:32Z</time></trkpt><trkpt lat="44.21337474837102" lon="10.769597917247967"><ele>1145.0</ele><time>2026-05-02T09:56:33Z</time></trkpt><trkpt lat="44.213408739455566" lon="10.769384693782554"><ele>1150.0</ele><time>2026-05-02T09:56:34Z</time></trkpt><trkpt lat="44.213443751800234" lon="10.769158423323393"><ele>1151.3333333333333</ele><time>2026-05-02T09:56:35Z</time></trkpt><trkpt lat="44.21346692936661" lon="10.768913280288949"><ele>1152.6666666666667</ele><time>2026-05-02T09:56:36Z</time></trkpt><trkpt lat="44.21350787373935" lon="10.76865045962341"><ele>1154.0</ele><time>2026-05-02T09:56:37Z</time></trkpt><trkpt lat="44.21350924615062" lon="10.768409641127025"><ele>1154.5</ele><time>2026-05-02T09:56:38Z</time></trkpt><trkpt lat="44.21351115278183" lon="10.768199590106262"><ele>1155.0</ele><time>2026-05-02T09:56:39Z</time></trkpt><trkpt lat="44.21351046627861" lon="10.768026455412354"><ele>1155.5</ele><time>2026-05-02T09:56:40Z</time></trkpt><trkpt lat="44.21351502663616" lon="10.767890710695742"><ele>1156.0</ele><time>2026-05-02T09:56:41Z</time></trkpt><trkpt lat="44.21354571182977" lon="10.76778800691709"><ele>1156.0</ele><time>2026-05-02T09:56:42Z</time></trkpt><trkpt lat="44.21361037109254" lon="10.767754791877124"><ele>1156.0</ele><time>2026-05-02T09:56:43Z</time></trkpt><trkpt lat="44.21370769910677" lon="10.76787114939366"><ele>1156.0</ele><time>2026-05-02T09:56:45Z</time></trkpt><trkpt lat="44.21370595690814" lon="10.768008456022867"><ele>1156.0</ele><time>2026-05-02T09:56:46Z</time></trkpt><trkpt lat="44.213696452586625" lon="10.76817312104968"><ele>1156.0</ele><time>2026-05-02T09:56:47Z</time></trkpt><trkpt lat="44.213719006350026" lon="10.76833462379366"><ele>1156.0</ele><time>2026-05-02T09:56:48Z</time></trkpt><trkpt lat="44.21376806703298" lon="10.76850087980605"><ele>1156.0</ele><time>2026-05-02T09:56:49Z</time></trkpt><trkpt lat="44.21383613736147" lon="10.768673334870648"><ele>1156.0</ele><time>2026-05-02T09:56:50Z</time></trkpt><trkpt lat="44.213911134956824" lon="10.76885579935138"><ele>1156.0</ele><time>2026-05-02T09:56:51Z</time></trkpt><trkpt lat="44.21397745140756" lon="10.769054492897746"><ele>1167.6666666666665</ele><time>2026-05-02T09:56:52Z</time></trkpt><trkpt lat="44.21401635698832" lon="10.769280589475777"><ele>1179.3333333333333</ele><time>2026-05-02T09:56:53Z</time></trkpt><trkpt lat="44.21402425865802" lon="10.7695168869379"><ele>1191.0</ele><time>2026-05-02T09:56:54Z</time></trkpt><trkpt lat="44.21401994532727" lon="10.769716024982563"><ele>1191.0</ele><time>2026-05-02T09:56:55Z</time></trkpt><trkpt lat="44.214027127227496" lon="10.76989252848434"><ele>1191.0</ele><time>2026-05-02T09:56:56Z</time></trkpt><trkpt lat="44.214046000910486" lon="10.770045563771879"><ele>1191.0</ele><time>2026-05-02T09:56:57Z</time></trkpt><trkpt lat="44.21407960053483" lon="10.770182648933499"><ele>1191.0</ele><time>2026-05-02T09:56:58Z</time></trkpt><trkpt lat="44.21413353860301" lon="10.770303910939433"><ele>1191.0</ele><time>2026-05-02T09:56:59Z</time></trkpt><trkpt lat="44.214215733110244" lon="10.770405140534136"><ele>1186.5</ele><time>2026-05-02T09:57:00Z</time></trkpt><trkpt lat="44.21431923851506" lon="10.77048800555152"><ele>1182.0</ele><time>2026-05-02T09:57:01Z</time></trkpt><trkpt lat="44.2144394313354" lon="10.770568586259484"><ele>1177.5</ele><time>2026-05-02T09:57:02Z</time></trkpt><trkpt lat="44.21457648334541" lon="10.770638650862038"><ele>1173.0</ele><time>2026-05-02T09:57:03Z</time></trkpt><trkpt lat="44.21473456501174" lon="10.770677405013139"><ele>1181.3333333333333</ele><time>2026-05-02T09:57:04Z</time></trkpt><trkpt lat="44.21491617191944" lon="10.770688185321443"><ele>1189.6666666666665</ele><time>2026-05-02T09:57:05Z</time></trkpt><trkpt lat="44.21508900263893" lon="10.770698655498398"><ele>1198.0</ele><time>2026-05-02T09:57:05.999Z</time></trkpt><trkpt lat="44.215228702218965" lon="10.77072785581205"><ele>1198.0</ele><time>2026-05-02T09:57:06.999Z</time></trkpt><trkpt lat="44.215352106752846" lon="10.770739259938484"><ele>1198.0</ele><time>2026-05-02T09:57:07.999Z</time></trkpt><trkpt lat="44.21547674172899" lon="10.770703635396584"><ele>1198.0</ele><time>2026-05-02T09:57:08.999Z</time></trkpt><trkpt lat="44.21561244802218" lon="10.77065606729864"><ele>1198.0</ele><time>2026-05-02T09:57:09.999Z</time></trkpt><trkpt lat="44.2157005162969" lon="10.77054680360933"><ele>1200.6</ele><time>2026-05-02T09:57:10.999Z</time></trkpt><trkpt lat="44.21580234979304" lon="10.770522961208025"><ele>1203.1999999999998</ele><time>2026-05-02T09:57:11.999Z</time></trkpt><trkpt lat="44.21590640404773" lon="10.770569825182017"><ele>1205.8</ele><time>2026-05-02T09:57:12.999Z</time></trkpt><trkpt lat="44.21600278553348" lon="10.77067151180131"><ele>1208.3999999999999</ele><time>2026-05-02T09:57:13.999Z</time></trkpt><trkpt lat="44.21608333792276" lon="10.77077400716709"><ele>1211.0</ele><time>2026-05-02T09:57:14.999Z</time></trkpt><trkpt lat="44.21617717876586" lon="10.770852215546737"><ele>1211.0</ele><time>2026-05-02T09:57:15.999Z</time></trkpt><trkpt lat="44.216284648312474" lon="10.770929860801242"><ele>1211.0</ele><time>2026-05-02T09:57:16.999Z</time></trkpt><trkpt lat="44.21642160002746" lon="10.771000628800781"><ele>1211.0</ele><time>2026-05-02T09:57:17.999Z</time></trkpt><trkpt lat="44.216582697761176" lon="10.771055087157158"><ele>1211.0</ele><time>2026-05-02T09:57:18.999Z</time></trkpt><trkpt lat="44.21674767783878" lon="10.771078678374947"><ele>1206.6666666666667</ele><time>2026-05-02T09:57:19.999Z</time></trkpt><trkpt lat="44.2169075165678" lon="10.771130643004982"><ele>1202.3333333333333</ele><time>2026-05-02T09:57:20.999Z</time></trkpt><trkpt lat="44.21706434831673" lon="10.771184081944417"><ele>1198.0</ele><time>2026-05-02T09:57:21.999Z</time></trkpt><trkpt lat="44.217203437357014" lon="10.771223916676368"><ele>1202.5</ele><time>2026-05-02T09:57:22.999Z</time></trkpt><trkpt lat="44.21732212999602" lon="10.771261397659101"><ele>1207.0</ele><time>2026-05-02T09:57:23.999Z</time></trkpt><trkpt lat="44.217444540525946" lon="10.771285308151496"><ele>1211.5</ele><time>2026-05-02T09:57:24.999Z</time></trkpt><trkpt lat="44.217573582108926" lon="10.771306866417783"><ele>1216.0</ele><time>2026-05-02T09:57:25.999Z</time></trkpt><trkpt lat="44.217693363765896" lon="10.771320289029601"><ele>1216.0</ele><time>2026-05-02T09:57:26.999Z</time></trkpt><trkpt lat="44.21780054090882" lon="10.77130641871107"><ele>1216.0</ele><time>2026-05-02T09:57:27.999Z</time></trkpt><trkpt lat="44.217905856075014" lon="10.771280643118047"><ele>1216.0</ele><time>2026-05-02T09:57:28.999Z</time></trkpt><trkpt lat="44.218005395613446" lon="10.77126906077684"><ele>1216.0</ele><time>2026-05-02T09:57:29.999Z</time></trkpt><trkpt lat="44.218093820747804" lon="10.771221716993434"><ele>1216.0</ele><time>2026-05-02T09:57:30.999Z</time></trkpt><trkpt lat="44.218175786569695" lon="10.771162087812494"><ele>1218.0</ele><time>2026-05-02T09:57:31.999Z</time></trkpt><trkpt lat="44.21823404969357" lon="10.771063185487327"><ele>1220.0</ele><time>2026-05-02T09:57:32.999Z</time></trkpt><trkpt lat="44.21827714632263" lon="10.770959211649325"><ele>1222.0</ele><time>2026-05-02T09:57:33.999Z</time></trkpt><trkpt lat="44.21828923577278" lon="10.7708377918824"><ele>1224.0</ele><time>2026-05-02T09:57:34.999Z</time></trkpt><trkpt lat="44.2182854676652" lon="10.770699176386087"><ele>1226.0</ele><time>2026-05-02T09:57:35.999Z</time></trkpt><trkpt lat="44.218196138246974" lon="10.770550324579535"><ele>1232.3333333333335</ele><time>2026-05-02T09:57:36.999Z</time></trkpt><trkpt lat="44.21811037914865" lon="10.770378581506103"><ele>1238.6666666666667</ele><time>2026-05-02T09:57:37.999Z</time></trkpt><trkpt lat="44.21800844554023" lon="10.770174832760844"><ele>1245.0</ele><time>2026-05-02T09:57:38.999Z</time></trkpt><trkpt lat="44.21789998470893" lon="10.769950427344856"><ele>1250.6666666666667</ele><time>2026-05-02T09:57:39.999Z</time></trkpt><trkpt lat="44.21779245809124" lon="10.76971090664542"><ele>1256.3333333333335</ele><time>2026-05-02T09:57:40.999Z</time></trkpt><trkpt lat="44.21770184775861" lon="10.769479000958441"><ele>1262.0</ele><time>2026-05-02T09:57:41.999Z</time></trkpt><trkpt lat="44.21762654807438" lon="10.76927119370675"><ele>1262.25</ele><time>2026-05-02T09:57:42.999Z</time></trkpt><trkpt lat="44.217573302932955" lon="10.769086712453422"><ele>1262.5</ele><time>2026-05-02T09:57:43.999Z</time></trkpt><trkpt lat="44.21751397020551" lon="10.76892847479527"><ele>1262.75</ele><time>2026-05-02T09:57:44.999Z</time></trkpt><trkpt lat="44.217455466719244" lon="10.768777554373207"><ele>1263.0</ele><time>2026-05-02T09:57:45.999Z</time></trkpt><trkpt lat="44.217395959102255" lon="10.768628081325401"><ele>1261.25</ele><time>2026-05-02T09:57:46.999Z</time></trkpt><trkpt lat="44.21733263213774" lon="10.76846967452291"><ele>1259.5</ele><time>2026-05-02T09:57:47.999Z</time></trkpt><trkpt lat="44.21726516883971" lon="10.768299930366803"><ele>1257.75</ele><time>2026-05-02T09:57:48.999Z</time></trkpt><trkpt lat="44.21719594499888" lon="10.768122401624467"><ele>1256.0</ele><time>2026-05-02T09:57:49.999Z</time></trkpt><trkpt lat="44.21712454907076" lon="10.767928332128978"><ele>1267.6666666666667</ele><time>2026-05-02T09:57:50.999Z</time></trkpt><trkpt lat="44.21706611118803" lon="10.767702331830819"><ele>1279.3333333333333</ele><time>2026-05-02T09:57:51.999Z</time></trkpt><trkpt lat="44.217021099420435" lon="10.76748400941834"><ele>1291.0</ele><time>2026-05-02T09:57:52.999Z</time></trkpt><trkpt lat="44.216975352809676" lon="10.767312210631507"><ele>1291.0</ele><time>2026-05-02T09:57:53.999Z</time></trkpt><trkpt lat="44.21693267512792" lon="10.76718242645669"><ele>1291.0</ele><time>2026-05-02T09:57:54.999Z</time></trkpt><trkpt lat="44.21687669644736" lon="10.767098032508857"><ele>1291.0</ele><time>2026-05-02T09:57:55.999Z</time></trkpt><trkpt lat="44.216756764963186" lon="10.767039375017955"><ele>1291.0</ele><time>2026-05-02T09:57:57.999Z</time></trkpt><trkpt lat="44.216683022812134" lon="10.7671255593663"><ele>1291.0</ele><time>2026-05-02T09:57:58.999Z</time></trkpt><trkpt lat="44.216695274876145" lon="10.767290814450426"><ele>1291.0</ele><time>2026-05-02T09:57:59.999Z</time></trkpt><trkpt lat="44.21670748093015" lon="10.767423586977442"><ele>1291.0</ele><time>2026-05-02T09:58:00.999Z</time></trkpt><trkpt lat="44.21671347998937" lon="10.76759162876037"><ele>1291.0</ele><time>2026-05-02T09:58:01.999Z</time></trkpt><trkpt lat="44.2167529551499" lon="10.76777070135859"><ele>1291.0</ele><time>2026-05-02T09:58:02.999Z</time></trkpt><trkpt lat="44.216797223214805" lon="10.767950784836726"><ele>1291.5</ele><time>2026-05-02T09:58:03.999Z</time></trkpt><trkpt lat="44.216814124161004" lon="10.76815777572599"><ele>1292.0</ele><time>2026-05-02T09:58:04.999Z</time></trkpt><trkpt lat="44.21683275014362" lon="10.768380009216141"><ele>1292.5</ele><time>2026-05-02T09:58:05.999Z</time></trkpt><trkpt lat="44.21683187636545" lon="10.76857272815634"><ele>1293.0</ele><time>2026-05-02T09:58:06.999Z</time></trkpt><trkpt lat="44.21682314166389" lon="10.768723582412758"><ele>1291.0</ele><time>2026-05-02T09:58:07.999Z</time></trkpt><trkpt lat="44.21680090550419" lon="10.768843530460142"><ele>1289.0</ele><time>2026-05-02T09:58:08.999Z</time></trkpt><trkpt lat="44.21676544724244" lon="10.76893400715674"><ele>1287.0</ele><time>2026-05-02T09:58:09.999Z</time></trkpt><trkpt lat="44.21669163493448" lon="10.768962500820287"><ele>1285.0</ele><time>2026-05-02T09:58:10.999Z</time></trkpt><trkpt lat="44.216607469103" lon="10.768902553540606"><ele>1283.0</ele><time>2026-05-02T09:58:12Z</time></trkpt><trkpt lat="44.21651547006724" lon="10.768831416803723"><ele>1281.0</ele><time>2026-05-02T09:58:13Z</time></trkpt><trkpt lat="44.216403625525786" lon="10.768748266129611"><ele>1279.3333333333333</ele><time>2026-05-02T09:58:14Z</time></trkpt><trkpt lat="44.216272324945656" lon="10.768682827978049"><ele>1277.6666666666665</ele><time>2026-05-02T09:58:15Z</time></trkpt><trkpt lat="44.21613208185866" lon="10.768593095837028"><ele>1276.0</ele><time>2026-05-02T09:58:16Z</time></trkpt><trkpt lat="44.21598333468079" lon="10.768500861031281"><ele>1272.0</ele><time>2026-05-02T09:58:17Z</time></trkpt><trkpt lat="44.215851038578556" lon="10.768362032658416"><ele>1268.0</ele><time>2026-05-02T09:58:18Z</time></trkpt><trkpt lat="44.21573190894752" lon="10.768214680902707"><ele>1264.0</ele><time>2026-05-02T09:58:19Z</time></trkpt><trkpt lat="44.21563754100347" lon="10.768053559568418"><ele>1264.0</ele><time>2026-05-02T09:58:20Z</time></trkpt><trkpt lat="44.215586961388816" lon="10.767899333511139"><ele>1264.0</ele><time>2026-05-02T09:58:21Z</time></trkpt><trkpt lat="44.2155740549528" lon="10.767732747813744"><ele>1264.0</ele><time>2026-05-02T09:58:22Z</time></trkpt><trkpt lat="44.21558115181741" lon="10.767537388275578"><ele>1264.0</ele><time>2026-05-02T09:58:23Z</time></trkpt><trkpt lat="44.215584537309766" lon="10.767317404713925"><ele>1269.3333333333333</ele><time>2026-05-02T09:58:24Z</time></trkpt><trkpt lat="44.215604092605" lon="10.767084458669334"><ele>1274.6666666666667</ele><time>2026-05-02T09:58:25Z</time></trkpt><trkpt lat="44.21562416339657" lon="10.76685155750036"><ele>1280.0</ele><time>2026-05-02T09:58:26Z</time></trkpt><trkpt lat="44.21566553408436" lon="10.766621213646118"><ele>1294.0</ele><time>2026-05-02T09:58:27Z</time></trkpt><trkpt lat="44.21568597517133" lon="10.76638281611515"><ele>1308.0</ele><time>2026-05-02T09:58:28Z</time></trkpt><trkpt lat="44.215705692956845" lon="10.766145871992487"><ele>1322.0</ele><time>2026-05-02T09:58:29Z</time></trkpt><trkpt lat="44.21571395364067" lon="10.765931955680935"><ele>1323.5</ele><time>2026-05-02T09:58:30Z</time></trkpt><trkpt lat="44.21575371330729" lon="10.765749038583854"><ele>1325.0</ele><time>2026-05-02T09:58:31Z</time></trkpt><trkpt lat="44.21581911386809" lon="10.765570343836156"><ele>1326.5</ele><time>2026-05-02T09:58:32Z</time></trkpt><trkpt lat="44.21592290296463" lon="10.765433209782927"><ele>1328.0</ele><time>2026-05-02T09:58:33Z</time></trkpt><trkpt lat="44.21599967210665" lon="10.765293101379015"><ele>1332.5</ele><time>2026-05-02T09:58:34Z</time></trkpt><trkpt lat="44.216068370013524" lon="10.765165816820657"><ele>1337.0</ele><time>2026-05-02T09:58:35Z</time></trkpt><trkpt lat="44.21617819517182" lon="10.76510087925255"><ele>1341.5</ele><time>2026-05-02T09:58:36Z</time></trkpt><trkpt lat="44.21630686667181" lon="10.765097531304603"><ele>1346.0</ele><time>2026-05-02T09:58:37Z</time></trkpt><trkpt lat="44.21642105188775" lon="10.76510973765546"><ele>1346.0</ele><time>2026-05-02T09:58:38Z</time></trkpt><trkpt lat="44.21654172438631" lon="10.765095729040823"><ele>1346.0</ele><time>2026-05-02T09:58:39Z</time></trkpt><trkpt lat="44.21665789158776" lon="10.765055311327176"><ele>1346.0</ele><time>2026-05-02T09:58:40Z</time></trkpt><trkpt lat="44.21676480481231" lon="10.764970167568777"><ele>1346.0</ele><time>2026-05-02T09:58:41Z</time></trkpt><trkpt lat="44.2168570880878" lon="10.764845855842566"><ele>1346.0</ele><time>2026-05-02T09:58:42Z</time></trkpt><trkpt lat="44.21694107723555" lon="10.764697886786045"><ele>1346.0</ele><time>2026-05-02T09:58:43Z</time></trkpt><trkpt lat="44.217028638314844" lon="10.764521359156275"><ele>1346.0</ele><time>2026-05-02T09:58:44Z</time></trkpt><trkpt lat="44.21710291103687" lon="10.764398803560224"><ele>1346.0</ele><time>2026-05-02T09:58:45Z</time></trkpt><trkpt lat="44.217148253417314" lon="10.76433558595854"><ele>1349.5</ele><time>2026-05-02T09:58:46Z</time></trkpt><trkpt lat="44.217243467381046" lon="10.764199172815989"><ele>1353.0</ele><time>2026-05-02T09:58:48Z</time></trkpt><trkpt lat="44.217316481678864" lon="10.764091150632048"><ele>1356.5</ele><time>2026-05-02T09:58:49Z</time></trkpt><trkpt lat="44.217413745051964" lon="10.764006871333345"><ele>1360.0</ele><time>2026-05-02T09:58:50Z</time></trkpt><trkpt lat="44.217495026613875" lon="10.763931199911132"><ele>1360.0</ele><time>2026-05-02T09:58:51Z</time></trkpt><trkpt lat="44.217572661068786" lon="10.763873987818029"><ele>1360.0</ele><time>2026-05-02T09:58:52Z</time></trkpt><trkpt lat="44.21765428327947" lon="10.76380976293341"><ele>1360.0</ele><time>2026-05-02T09:58:53Z</time></trkpt><trkpt lat="44.217796860486146" lon="10.763804508973589"><ele>1360.0</ele><time>2026-05-02T09:58:54Z</time></trkpt><trkpt lat="44.21794114525125" lon="10.763775990485291"><ele>1360.0</ele><time>2026-05-02T09:58:55Z</time></trkpt><trkpt lat="44.21806732140775" lon="10.763745421269585"><ele>1360.0</ele><time>2026-05-02T09:58:56Z</time></trkpt><trkpt lat="44.21817082203395" lon="10.763766509161673"><ele>1360.0</ele><time>2026-05-02T09:58:57Z</time></trkpt><trkpt lat="44.21825865527122" lon="10.76385985549895"><ele>1360.0</ele><time>2026-05-02T09:58:58Z</time></trkpt><trkpt lat="44.21834848607056" lon="10.763995412025928"><ele>1357.75</ele><time>2026-05-02T09:58:59Z</time></trkpt><trkpt lat="44.21844383961151" lon="10.764156563096"><ele>1355.5</ele><time>2026-05-02T09:59:00Z</time></trkpt><trkpt lat="44.218543926101084" lon="10.764307640396575"><ele>1353.25</ele><time>2026-05-02T09:59:01Z</time></trkpt><trkpt lat="44.2186584873078" lon="10.764445416428536"><ele>1351.0</ele><time>2026-05-02T09:59:02Z</time></trkpt><trkpt lat="44.21879399196609" lon="10.764596483342903"><ele>1350.75</ele><time>2026-05-02T09:59:03Z</time></trkpt><trkpt lat="44.21890462983593" lon="10.764728793257131"><ele>1350.5</ele><time>2026-05-02T09:59:04Z</time></trkpt><trkpt lat="44.21901426191151" lon="10.764826988048235"><ele>1350.25</ele><time>2026-05-02T09:59:05Z</time></trkpt><trkpt lat="44.219127230987816" lon="10.764895603603204"><ele>1350.0</ele><time>2026-05-02T09:59:06Z</time></trkpt><trkpt lat="44.21923425167667" lon="10.764937349226855"><ele>1350.0</ele><time>2026-05-02T09:59:07Z</time></trkpt><trkpt lat="44.21934056776487" lon="10.764950966394634"><ele>1350.0</ele><time>2026-05-02T09:59:08Z</time></trkpt><trkpt lat="44.219457282960114" lon="10.764946847333013"><ele>1350.0</ele><time>2026-05-02T09:59:09Z</time></trkpt><trkpt lat="44.219561266240724" lon="10.76485574838023"><ele>1350.0</ele><time>2026-05-02T09:59:10Z</time></trkpt><trkpt lat="44.219665906172715" lon="10.764769139975176"><ele>1350.0</ele><time>2026-05-02T09:59:11Z</time></trkpt><trkpt lat="44.219778356665664" lon="10.764652552223195"><ele>1350.0</ele><time>2026-05-02T09:59:12Z</time></trkpt><trkpt lat="44.219886868233026" lon="10.764521893724625"><ele>1350.0</ele><time>2026-05-02T09:59:13Z</time></trkpt><trkpt lat="44.220000238036185" lon="10.764372175837789"><ele>1350.0</ele><time>2026-05-02T09:59:14Z</time></trkpt><trkpt lat="44.220114395909505" lon="10.764229968930925"><ele>1356.3333333333333</ele><time>2026-05-02T09:59:15Z</time></trkpt><trkpt lat="44.220248450224965" lon="10.76410883967876"><ele>1362.6666666666665</ele><time>2026-05-02T09:59:16Z</time></trkpt><trkpt lat="44.220384410174425" lon="10.76402994646464"><ele>1369.0</ele><time>2026-05-02T09:59:17Z</time></trkpt><trkpt lat="44.22052553405413" lon="10.763978434212172"><ele>1364.0</ele><time>2026-05-02T09:59:18Z</time></trkpt><trkpt lat="44.22066725721047" lon="10.763957483506271"><ele>1359.0</ele><time>2026-05-02T09:59:19Z</time></trkpt><trkpt lat="44.2208035598263" lon="10.76393437026948"><ele>1354.0</ele><time>2026-05-02T09:59:20Z</time></trkpt><trkpt lat="44.22092885788056" lon="10.763897335992203"><ele>1349.0</ele><time>2026-05-02T09:59:21Z</time></trkpt><trkpt lat="44.22103423841527" lon="10.763855811779962"><ele>1349.0</ele><time>2026-05-02T09:59:22Z</time></trkpt><trkpt lat="44.22112069743251" lon="10.76381509094594"><ele>1349.0</ele><time>2026-05-02T09:59:23Z</time></trkpt><trkpt lat="44.221192861116194" lon="10.76376372366492"><ele>1349.0</ele><time>2026-05-02T09:59:24Z</time></trkpt><trkpt lat="44.22125131040676" lon="10.763718690297543"><ele>1349.0</ele><time>2026-05-02T09:59:25Z</time></trkpt><trkpt lat="44.22133374838911" lon="10.763643097363492"><ele>1349.0</ele><time>2026-05-02T09:59:27Z</time></trkpt><trkpt lat="44.22135221365826" lon="10.763549197873063"><ele>1349.0</ele><time>2026-05-02T09:59:29Z</time></trkpt><trkpt lat="44.22138470295097" lon="10.763430403279436"><ele>1351.8333333333335</ele><time>2026-05-02T09:59:31Z</time></trkpt><trkpt lat="44.22133145212831" lon="10.763350399182151"><ele>1354.6666666666667</ele><time>2026-05-02T09:59:31.999Z</time></trkpt><trkpt lat="44.22131341267164" lon="10.763248060506466"><ele>1357.5</ele><time>2026-05-02T09:59:33.999Z</time></trkpt><trkpt lat="44.22129469487837" lon="10.76316275430591"><ele>1360.3333333333333</ele><time>2026-05-02T09:59:35.999Z</time></trkpt><trkpt lat="44.22126780626904" lon="10.7630416052704"><ele>1363.1666666666665</ele><time>2026-05-02T09:59:37.999Z</time></trkpt><trkpt lat="44.2212421104147" lon="10.762945494863715"><ele>1366.0</ele><time>2026-05-02T09:59:38.999Z</time></trkpt><trkpt lat="44.22123157138506" lon="10.762817436132377"><ele>1367.1999999999998</ele><time>2026-05-02T09:59:39.999Z</time></trkpt><trkpt lat="44.22120443543872" lon="10.762692311076236"><ele>1368.3999999999999</ele><time>2026-05-02T09:59:40.999Z</time></trkpt><trkpt lat="44.22116105993647" lon="10.762552875528904"><ele>1369.6</ele><time>2026-05-02T09:59:41.999Z</time></trkpt><trkpt lat="44.2211316926875" lon="10.762410735487599"><ele>1370.8</ele><time>2026-05-02T09:59:42.999Z</time></trkpt><trkpt lat="44.22109111386869" lon="10.76226968931244"><ele>1372.0</ele><time>2026-05-02T09:59:43.999Z</time></trkpt><trkpt lat="44.22103932107678" lon="10.762137999005525"><ele>1372.0</ele><time>2026-05-02T09:59:44.999Z</time></trkpt><trkpt lat="44.2209806000801" lon="10.762009840315336"><ele>1372.0</ele><time>2026-05-02T09:59:45.999Z</time></trkpt><trkpt lat="44.22091339805758" lon="10.761883216338035"><ele>1372.0</ele><time>2026-05-02T09:59:46.999Z</time></trkpt><trkpt lat="44.220845216616254" lon="10.761758595954369"><ele>1372.0</ele><time>2026-05-02T09:59:47.999Z</time></trkpt><trkpt lat="44.220774769996886" lon="10.76163023364943"><ele>1371.5</ele><time>2026-05-02T09:59:48.999Z</time></trkpt><trkpt lat="44.220702214057475" lon="10.761500812269649"><ele>1371.0</ele><time>2026-05-02T09:59:49.999Z</time></trkpt><trkpt lat="44.22063124999369" lon="10.761374200113607"><ele>1370.5</ele><time>2026-05-02T09:59:50.999Z</time></trkpt><trkpt lat="44.22055647314667" lon="10.761233954929919"><ele>1370.0</ele><time>2026-05-02T09:59:51.999Z</time></trkpt><trkpt lat="44.22048545845445" lon="10.7610811503193"><ele>1375.0</ele><time>2026-05-02T09:59:52.999Z</time></trkpt><trkpt lat="44.22041897792888" lon="10.760918058336024"><ele>1380.0</ele><time>2026-05-02T09:59:53.999Z</time></trkpt><trkpt lat="44.22035275177534" lon="10.760744021673762"><ele>1385.0</ele><time>2026-05-02T09:59:54.999Z</time></trkpt><trkpt lat="44.220284438263455" lon="10.760559855858117"><ele>1390.0</ele><time>2026-05-02T09:59:55.999Z</time></trkpt><trkpt lat="44.22021377006855" lon="10.760374905606627"><ele>1389.3333333333333</ele><time>2026-05-02T09:59:56.999Z</time></trkpt><trkpt lat="44.22014239180877" lon="10.760184813494469"><ele>1388.6666666666667</ele><time>2026-05-02T09:59:57.999Z</time></trkpt><trkpt lat="44.22007569619645" lon="10.759987091470517"><ele>1388.0</ele><time>2026-05-02T09:59:58.999Z</time></trkpt><trkpt lat="44.22002475199442" lon="10.75977757543439"><ele>1388.0</ele><time>2026-05-02T09:59:59.999Z</time></trkpt><trkpt lat="44.21997381763227" lon="10.75956760890132"><ele>1388.0</ele><time>2026-05-02T10:00:00.999Z</time></trkpt><trkpt lat="44.2199198341891" lon="10.759356814933849"><ele>1388.0</ele><time>2026-05-02T10:00:01.999Z</time></trkpt><trkpt lat="44.21984446046064" lon="10.759157739049854"><ele>1398.3333333333335</ele><time>2026-05-02T10:00:02.999Z</time></trkpt><trkpt lat="44.21974797943213" lon="10.758977133334248"><ele>1408.6666666666667</ele><time>2026-05-02T10:00:03.999Z</time></trkpt><trkpt lat="44.21963349030269" lon="10.758820575940721"><ele>1419.0</ele><time>2026-05-02T10:00:04.999Z</time></trkpt><trkpt lat="44.21950913605124" lon="10.758674859758452"><ele>1413.0</ele><time>2026-05-02T10:00:05.999Z</time></trkpt><trkpt lat="44.21938577739326" lon="10.75852857901076"><ele>1407.0</ele><time>2026-05-02T10:00:06.999Z</time></trkpt><trkpt lat="44.21926934478753" lon="10.758371650988105"><ele>1401.0</ele><time>2026-05-02T10:00:07.999Z</time></trkpt><trkpt lat="44.21917019056788" lon="10.758200821775409"><ele>1401.0</ele><time>2026-05-02T10:00:08.999Z</time></trkpt><trkpt lat="44.21908758649839" lon="10.758018798397048"><ele>1401.0</ele><time>2026-05-02T10:00:09.999Z</time></trkpt><trkpt lat="44.219019818674155" lon="10.757830934834455"><ele>1401.0</ele><time>2026-05-02T10:00:10.999Z</time></trkpt><trkpt lat="44.21893753451856" lon="10.757646146581198"><ele>1410.6666666666667</ele><time>2026-05-02T10:00:11.999Z</time></trkpt><trkpt lat="44.21883692649694" lon="10.757467262690573"><ele>1420.3333333333335</ele><time>2026-05-02T10:00:12.999Z</time></trkpt><trkpt lat="44.2187239554915" lon="10.757305067159566"><ele>1430.0</ele><time>2026-05-02T10:00:13.999Z</time></trkpt><trkpt lat="44.21860995803571" lon="10.75716421666843"><ele>1430.0</ele><time>2026-05-02T10:00:14.999Z</time></trkpt><trkpt lat="44.218512554460645" lon="10.757033559160964"><ele>1430.0</ele><time>2026-05-02T10:00:15.999Z</time></trkpt><trkpt lat="44.21844269583758" lon="10.756909869409476"><ele>1430.0</ele><time>2026-05-02T10:00:16.999Z</time></trkpt><trkpt lat="44.218411096600924" lon="10.756774120069824"><ele>1430.0</ele><time>2026-05-02T10:00:18Z</time></trkpt><trkpt lat="44.21839399105514" lon="10.756637557710105"><ele>1428.0</ele><time>2026-05-02T10:00:19Z</time></trkpt><trkpt lat="44.21845596808929" lon="10.756492092591596"><ele>1426.0</ele><time>2026-05-02T10:00:20Z</time></trkpt><trkpt lat="44.218509496916965" lon="10.756334100757405"><ele>1424.0</ele><time>2026-05-02T10:00:21Z</time></trkpt><trkpt lat="44.21857290187389" lon="10.756188834744734"><ele>1422.0</ele><time>2026-05-02T10:00:22Z</time></trkpt><trkpt lat="44.21864920462958" lon="10.756081834924426"><ele>1420.5</ele><time>2026-05-02T10:00:23Z</time></trkpt><trkpt lat="44.21874730599896" lon="10.756030500188249"><ele>1419.0</ele><time>2026-05-02T10:00:24Z</time></trkpt><trkpt lat="44.21886751911827" lon="10.756025350966901"><ele>1417.5</ele><time>2026-05-02T10:00:25Z</time></trkpt><trkpt lat="44.218999521455686" lon="10.756023111688517"><ele>1416.0</ele><time>2026-05-02T10:00:26Z</time></trkpt><trkpt lat="44.21912047399607" lon="10.755996006263079"><ele>1416.0</ele><time>2026-05-02T10:00:27Z</time></trkpt><trkpt lat="44.21922652031226" lon="10.75594532158856"><ele>1416.0</ele><time>2026-05-02T10:00:28Z</time></trkpt><trkpt lat="44.21931383365539" lon="10.755852885799166"><ele>1416.0</ele><time>2026-05-02T10:00:29Z</time></trkpt><trkpt lat="44.219383996166336" lon="10.75572444182406"><ele>1416.0</ele><time>2026-05-02T10:00:30Z</time></trkpt><trkpt lat="44.2194356375283" lon="10.75556287904175"><ele>1416.0</ele><time>2026-05-02T10:00:31Z</time></trkpt><trkpt lat="44.21949927737379" lon="10.755414071307221"><ele>1416.0</ele><time>2026-05-02T10:00:32Z</time></trkpt><trkpt lat="44.2195926701821" lon="10.755297172513956"><ele>1416.0</ele><time>2026-05-02T10:00:33Z</time></trkpt><trkpt lat="44.21969563410932" lon="10.755244663624559"><ele>1416.0</ele><time>2026-05-02T10:00:34Z</time></trkpt><trkpt lat="44.21981103793934" lon="10.755251998214073"><ele>1412.0</ele><time>2026-05-02T10:00:35Z</time></trkpt><trkpt lat="44.21994149245091" lon="10.755274195525544"><ele>1408.0</ele><time>2026-05-02T10:00:36Z</time></trkpt><trkpt lat="44.2200857646486" lon="10.75530421850214"><ele>1404.0</ele><time>2026-05-02T10:00:37Z</time></trkpt><trkpt lat="44.22022202937883" lon="10.75532937129497"><ele>1400.0</ele><time>2026-05-02T10:00:38Z</time></trkpt><trkpt lat="44.22034525229289" lon="10.755348775391623"><ele>1400.0</ele><time>2026-05-02T10:00:39Z</time></trkpt><trkpt lat="44.22044352171543" lon="10.755351642058269"><ele>1400.0</ele><time>2026-05-02T10:00:40Z</time></trkpt><trkpt lat="44.220519186977604" lon="10.755319010563861"><ele>1400.0</ele><time>2026-05-02T10:00:41Z</time></trkpt><trkpt lat="44.22058341419636" lon="10.755234879856786"><ele>1400.0</ele><time>2026-05-02T10:00:42Z</time></trkpt><trkpt lat="44.22063384517918" lon="10.755114152376848"><ele>1400.0</ele><time>2026-05-02T10:00:43Z</time></trkpt><trkpt lat="44.22066526267705" lon="10.754958631474883"><ele>1403.0</ele><time>2026-05-02T10:00:44Z</time></trkpt><trkpt lat="44.22070319273258" lon="10.754792565169485"><ele>1406.0</ele><time>2026-05-02T10:00:45Z</time></trkpt><trkpt lat="44.220757768790165" lon="10.754606337787331"><ele>1409.0</ele><time>2026-05-02T10:00:46Z</time></trkpt><trkpt lat="44.22082590476028" lon="10.75441052307756"><ele>1412.0</ele><time>2026-05-02T10:00:47Z</time></trkpt><trkpt lat="44.22091428541763" lon="10.754223106977332"><ele>1418.0</ele><time>2026-05-02T10:00:48Z</time></trkpt><trkpt lat="44.22101014114909" lon="10.754049090898269"><ele>1424.0</ele><time>2026-05-02T10:00:49Z</time></trkpt><trkpt lat="44.221109187697394" lon="10.753910304961606"><ele>1430.0</ele><time>2026-05-02T10:00:50Z</time></trkpt><trkpt lat="44.221223031556704" lon="10.753808827888454"><ele>1436.0</ele><time>2026-05-02T10:00:51Z</time></trkpt><trkpt lat="44.22135533890504" lon="10.753742714580879"><ele>1429.25</ele><time>2026-05-02T10:00:52Z</time></trkpt><trkpt lat="44.221501834865116" lon="10.753703499305466"><ele>1422.5</ele><time>2026-05-02T10:00:53Z</time></trkpt><trkpt lat="44.221648175262" lon="10.753697755584378"><ele>1415.75</ele><time>2026-05-02T10:00:54Z</time></trkpt><trkpt lat="44.22177280518697" lon="10.753698756401434"><ele>1409.0</ele><time>2026-05-02T10:00:55Z</time></trkpt><trkpt lat="44.2218786810939" lon="10.75370031242451"><ele>1409.0</ele><time>2026-05-02T10:00:56Z</time></trkpt><trkpt lat="44.22197465315284" lon="10.753709229500048"><ele>1409.0</ele><time>2026-05-02T10:00:57Z</time></trkpt><trkpt lat="44.22205261401026" lon="10.753626386812702"><ele>1409.0</ele><time>2026-05-02T10:00:58Z</time></trkpt><trkpt lat="44.2220839343625" lon="10.753504902366942"><ele>1409.0</ele><time>2026-05-02T10:00:59Z</time></trkpt><trkpt lat="44.22208189997973" lon="10.753380070744756"><ele>1409.0</ele><time>2026-05-02T10:01:00Z</time></trkpt><trkpt lat="44.222043548195145" lon="10.753240311062857"><ele>1416.25</ele><time>2026-05-02T10:01:01Z</time></trkpt><trkpt lat="44.22199235468691" lon="10.753081791500296"><ele>1423.5</ele><time>2026-05-02T10:01:02Z</time></trkpt><trkpt lat="44.22193557614867" lon="10.75289294242019"><ele>1430.75</ele><time>2026-05-02T10:01:03Z</time></trkpt><trkpt lat="44.22187492200226" lon="10.752685537752262"><ele>1438.0</ele><time>2026-05-02T10:01:04Z</time></trkpt><trkpt lat="44.221811772396045" lon="10.752476458010916"><ele>1438.6666666666665</ele><time>2026-05-02T10:01:05Z</time></trkpt><trkpt lat="44.221733015363704" lon="10.752287062260912"><ele>1439.3333333333333</ele><time>2026-05-02T10:01:06Z</time></trkpt><trkpt lat="44.22163379002252" lon="10.752116446571895"><ele>1440.0</ele><time>2026-05-02T10:01:07Z</time></trkpt><trkpt lat="44.221518325205345" lon="10.751972852619815"><ele>1444.0</ele><time>2026-05-02T10:01:08Z</time></trkpt><trkpt lat="44.221387310450794" lon="10.75183087678062"><ele>1448.0</ele><time>2026-05-02T10:01:09Z</time></trkpt><trkpt lat="44.22124770383682" lon="10.751690200635952"><ele>1452.0</ele><time>2026-05-02T10:01:10Z</time></trkpt><trkpt lat="44.22110694174808" lon="10.751542462899259"><ele>1452.0</ele><time>2026-05-02T10:01:11Z</time></trkpt><trkpt lat="44.220963341914995" lon="10.751386829539317"><ele>1452.0</ele><time>2026-05-02T10:01:12Z</time></trkpt><trkpt lat="44.220813933397274" lon="10.751228784957947"><ele>1452.0</ele><time>2026-05-02T10:01:13Z</time></trkpt><trkpt lat="44.22065788775931" lon="10.75107473169942"><ele>1454.3333333333333</ele><time>2026-05-02T10:01:14Z</time></trkpt><trkpt lat="44.220518584083656" lon="10.750893577730439"><ele>1456.6666666666665</ele><time>2026-05-02T10:01:15Z</time></trkpt><trkpt lat="44.220385973044394" lon="10.75071425297798"><ele>1459.0</ele><time>2026-05-02T10:01:16Z</time></trkpt><trkpt lat="44.22025775489005" lon="10.750539714420023"><ele>1459.0</ele><time>2026-05-02T10:01:17Z</time></trkpt><trkpt lat="44.220131128895794" lon="10.750365948810378"><ele>1459.0</ele><time>2026-05-02T10:01:18Z</time></trkpt><trkpt lat="44.21997979046732" lon="10.750236416554975"><ele>1459.0</ele><time>2026-05-02T10:01:19Z</time></trkpt><trkpt lat="44.21981633752422" lon="10.750134082291586"><ele>1458.6666666666665</ele><time>2026-05-02T10:01:20Z</time></trkpt><trkpt lat="44.21965663599205" lon="10.750018091677946"><ele>1458.3333333333333</ele><time>2026-05-02T10:01:21Z</time></trkpt><trkpt lat="44.219512575278856" lon="10.74986977861085"><ele>1458.0</ele><time>2026-05-02T10:01:22Z</time></trkpt><trkpt lat="44.21937285259307" lon="10.74970361385338"><ele>1458.0</ele><time>2026-05-02T10:01:23Z</time></trkpt><trkpt lat="44.21925036167015" lon="10.749504603410001"><ele>1458.0</ele><time>2026-05-02T10:01:24Z</time></trkpt><trkpt lat="44.2191169997007" lon="10.749306971138232"><ele>1458.0</ele><time>2026-05-02T10:01:25Z</time></trkpt><trkpt lat="44.21900285128196" lon="10.74911420988107"><ele>1464.5</ele><time>2026-05-02T10:01:26Z</time></trkpt><trkpt lat="44.21891890030903" lon="10.748925143786542"><ele>1471.0</ele><time>2026-05-02T10:01:27Z</time></trkpt><trkpt lat="44.21886242934695" lon="10.748749058361946"><ele>1477.5</ele><time>2026-05-02T10:01:28Z</time></trkpt><trkpt lat="44.21882556083192" lon="10.748589819623854"><ele>1484.0</ele><time>2026-05-02T10:01:29Z</time></trkpt><trkpt lat="44.21880190869269" lon="10.748435331464432"><ele>1484.0</ele><time>2026-05-02T10:01:30Z</time></trkpt><trkpt lat="44.218802687684814" lon="10.748260785338918"><ele>1484.0</ele><time>2026-05-02T10:01:31Z</time></trkpt><trkpt lat="44.21883707867329" lon="10.748066283162931"><ele>1484.0</ele><time>2026-05-02T10:01:32Z</time></trkpt><trkpt lat="44.21883858388644" lon="10.747855250586555"><ele>1484.0</ele><time>2026-05-02T10:01:33Z</time></trkpt><trkpt lat="44.218805743928975" lon="10.747647224586792"><ele>1483.5</ele><time>2026-05-02T10:01:34Z</time></trkpt><trkpt lat="44.21876254110125" lon="10.747448813898012"><ele>1483.0</ele><time>2026-05-02T10:01:35Z</time></trkpt><trkpt lat="44.2187686031069" lon="10.747264281207938"><ele>1482.5</ele><time>2026-05-02T10:01:36Z</time></trkpt><trkpt lat="44.218761712793196" lon="10.747085563120612"><ele>1482.0</ele><time>2026-05-02T10:01:37Z</time></trkpt><trkpt lat="44.218823086076966" lon="10.746898966477625"><ele>1483.3333333333333</ele><time>2026-05-02T10:01:38Z</time></trkpt><trkpt lat="44.21890810270213" lon="10.74668171629792"><ele>1484.6666666666665</ele><time>2026-05-02T10:01:39Z</time></trkpt><trkpt lat="44.218974515745906" lon="10.746442681540405"><ele>1486.0</ele><time>2026-05-02T10:01:40Z</time></trkpt><trkpt lat="44.21901782787936" lon="10.746200074985422"><ele>1476.0</ele><time>2026-05-02T10:01:41Z</time></trkpt><trkpt lat="44.219051848074265" lon="10.745991753619851"><ele>1466.0</ele><time>2026-05-02T10:01:42Z</time></trkpt><trkpt lat="44.21913125820672" lon="10.74581369429365"><ele>1456.0</ele><time>2026-05-02T10:01:43Z</time></trkpt><trkpt lat="44.21922961074104" lon="10.745652160201152"><ele>1456.0</ele><time>2026-05-02T10:01:43.999Z</time></trkpt><trkpt lat="44.21930542408495" lon="10.74550504393445"><ele>1456.0</ele><time>2026-05-02T10:01:44.999Z</time></trkpt><trkpt lat="44.21934656446774" lon="10.745345877586372"><ele>1456.0</ele><time>2026-05-02T10:01:45.999Z</time></trkpt><trkpt lat="44.219299723289936" lon="10.745188699453527"><ele>1456.0</ele><time>2026-05-02T10:01:46.999Z</time></trkpt><trkpt lat="44.21924813475467" lon="10.745033224948168"><ele>1456.6666666666665</ele><time>2026-05-02T10:01:47.999Z</time></trkpt><trkpt lat="44.21916244832966" lon="10.744863116198768"><ele>1457.3333333333333</ele><time>2026-05-02T10:01:48.999Z</time></trkpt><trkpt lat="44.21909823627492" lon="10.744648637950215"><ele>1458.0</ele><time>2026-05-02T10:01:49.999Z</time></trkpt><trkpt lat="44.21901532625471" lon="10.744434229308144"><ele>1468.6666666666667</ele><time>2026-05-02T10:01:50.999Z</time></trkpt><trkpt lat="44.21893617683354" lon="10.744229942390096"><ele>1479.3333333333335</ele><time>2026-05-02T10:01:51.999Z</time></trkpt><trkpt lat="44.21890234658265" lon="10.7440202600297"><ele>1490.0</ele><time>2026-05-02T10:01:52.999Z</time></trkpt><trkpt lat="44.218911827379785" lon="10.74381295738835"><ele>1490.0</ele><time>2026-05-02T10:01:53.999Z</time></trkpt><trkpt lat="44.218941921418725" lon="10.743618380824586"><ele>1490.0</ele><time>2026-05-02T10:01:54.999Z</time></trkpt><trkpt lat="44.218969326486025" lon="10.743420147454467"><ele>1490.0</ele><time>2026-05-02T10:01:55.999Z</time></trkpt><trkpt lat="44.21897624537159" lon="10.743227732183476"><ele>1490.0</ele><time>2026-05-02T10:01:56.999Z</time></trkpt><trkpt lat="44.2189578890444" lon="10.743042056755383"><ele>1489.75</ele><time>2026-05-02T10:01:57.999Z</time></trkpt><trkpt lat="44.21892852061168" lon="10.742870765149759"><ele>1489.5</ele><time>2026-05-02T10:01:58.999Z</time></trkpt><trkpt lat="44.21889470654777" lon="10.742712075376838"><ele>1489.25</ele><time>2026-05-02T10:01:59.999Z</time></trkpt><trkpt lat="44.218869485874706" lon="10.74255907616927"><ele>1489.0</ele><time>2026-05-02T10:02:00.999Z</time></trkpt><trkpt lat="44.21886522347962" lon="10.742410768374043"><ele>1488.6</ele><time>2026-05-02T10:02:01.999Z</time></trkpt><trkpt lat="44.218903187723775" lon="10.742264865235137"><ele>1488.2</ele><time>2026-05-02T10:02:02.999Z</time></trkpt><trkpt lat="44.2189516850845" lon="10.74212381394873"><ele>1487.8</ele><time>2026-05-02T10:02:03.999Z</time></trkpt><trkpt lat="44.218977809829966" lon="10.741993467073465"><ele>1487.3999999999999</ele><time>2026-05-02T10:02:04.999Z</time></trkpt><trkpt lat="44.21900275638423" lon="10.741859407389555"><ele>1487.0</ele><time>2026-05-02T10:02:05.999Z</time></trkpt><trkpt lat="44.21901976234018" lon="10.741727700559524"><ele>1489.0</ele><time>2026-05-02T10:02:06.999Z</time></trkpt><trkpt lat="44.21902156844398" lon="10.741576759052533"><ele>1491.0</ele><time>2026-05-02T10:02:07.999Z</time></trkpt><trkpt lat="44.218997734112534" lon="10.74140979046167"><ele>1493.0</ele><time>2026-05-02T10:02:08.999Z</time></trkpt><trkpt lat="44.21895634454245" lon="10.741250630389894"><ele>1495.0</ele><time>2026-05-02T10:02:09.999Z</time></trkpt><trkpt lat="44.218913700121824" lon="10.741098835602655"><ele>1496.75</ele><time>2026-05-02T10:02:10.999Z</time></trkpt><trkpt lat="44.21887500856233" lon="10.74093857376673"><ele>1498.5</ele><time>2026-05-02T10:02:11.999Z</time></trkpt><trkpt lat="44.218854102082446" lon="10.74077225583275"><ele>1500.25</ele><time>2026-05-02T10:02:12.999Z</time></trkpt><trkpt lat="44.21886276958932" lon="10.740597456250322"><ele>1502.0</ele><time>2026-05-02T10:02:13.999Z</time></trkpt><trkpt lat="44.21888126371962" lon="10.740393794707883"><ele>1501.3333333333335</ele><time>2026-05-02T10:02:14.999Z</time></trkpt><trkpt lat="44.21889587109079" lon="10.74017848936006"><ele>1500.6666666666667</ele><time>2026-05-02T10:02:15.999Z</time></trkpt><trkpt lat="44.21890665793604" lon="10.73995945098858"><ele>1500.0</ele><time>2026-05-02T10:02:16.999Z</time></trkpt><trkpt lat="44.218896814435475" lon="10.73972420209854"><ele>1500.0</ele><time>2026-05-02T10:02:17.999Z</time></trkpt><trkpt lat="44.2188750880013" lon="10.7395004986166"><ele>1500.0</ele><time>2026-05-02T10:02:18.999Z</time></trkpt><trkpt lat="44.21886374533" lon="10.739274934107867"><ele>1500.0</ele><time>2026-05-02T10:02:19.999Z</time></trkpt><trkpt lat="44.218879410606355" lon="10.739047017401784"><ele>1498.6666666666667</ele><time>2026-05-02T10:02:20.999Z</time></trkpt><trkpt lat="44.21891539257556" lon="10.73880495997545"><ele>1497.3333333333335</ele><time>2026-05-02T10:02:21.999Z</time></trkpt><trkpt lat="44.218951326946986" lon="10.738556130729922"><ele>1496.0</ele><time>2026-05-02T10:02:22.999Z</time></trkpt><trkpt lat="44.219039258340146" lon="10.738330638295057"><ele>1486.6666666666667</ele><time>2026-05-02T10:02:24Z</time></trkpt><trkpt lat="44.219127838509245" lon="10.738122032012182"><ele>1477.3333333333333</ele><time>2026-05-02T10:02:25Z</time></trkpt><trkpt lat="44.21919388578378" lon="10.737934676842908"><ele>1468.0</ele><time>2026-05-02T10:02:26Z</time></trkpt><trkpt lat="44.21923019309619" lon="10.737751491716823"><ele>1468.0</ele><time>2026-05-02T10:02:27Z</time></trkpt><trkpt lat="44.21923351165757" lon="10.737573776923632"><ele>1468.0</ele><time>2026-05-02T10:02:28Z</time></trkpt><trkpt lat="44.219198490299036" lon="10.73739316588881"><ele>1468.0</ele><time>2026-05-02T10:02:29Z</time></trkpt><trkpt lat="44.21914045968204" lon="10.737217451511036"><ele>1468.0</ele><time>2026-05-02T10:02:30Z</time></trkpt><trkpt lat="44.21907976571496" lon="10.737045786987284"><ele>1467.2</ele><time>2026-05-02T10:02:31Z</time></trkpt><trkpt lat="44.21902888148158" lon="10.736883049994432"><ele>1466.4</ele><time>2026-05-02T10:02:32Z</time></trkpt><trkpt lat="44.21898238006833" lon="10.73673727355305"><ele>1465.6000000000001</ele><time>2026-05-02T10:02:33Z</time></trkpt><trkpt lat="44.218941890808786" lon="10.736606968636153"><ele>1464.8000000000002</ele><time>2026-05-02T10:02:34Z</time></trkpt><trkpt lat="44.21891434187429" lon="10.736500129784927"><ele>1464.0</ele><time>2026-05-02T10:02:35Z</time></trkpt><trkpt lat="44.21891600694064" lon="10.736405210414878"><ele>1463.8333333333333</ele><time>2026-05-02T10:02:36Z</time></trkpt><trkpt lat="44.21889923027177" lon="10.736243917517807"><ele>1463.6666666666667</ele><time>2026-05-02T10:02:38Z</time></trkpt><trkpt lat="44.21887794706672" lon="10.736158323352374"><ele>1463.5</ele><time>2026-05-02T10:02:39Z</time></trkpt><trkpt lat="44.2188873752032" lon="10.736060917566478"><ele>1463.3333333333335</ele><time>2026-05-02T10:02:40Z</time></trkpt><trkpt lat="44.21890233109684" lon="10.73595540824013"><ele>1463.1666666666667</ele><time>2026-05-02T10:02:41Z</time></trkpt><trkpt lat="44.21891383910178" lon="10.735845919834853"><ele>1463.0</ele><time>2026-05-02T10:02:42Z</time></trkpt><trkpt lat="44.218924716591886" lon="10.73572858848792"><ele>1462.4</ele><time>2026-05-02T10:02:43Z</time></trkpt><trkpt lat="44.218958288241105" lon="10.735630446800881"><ele>1461.8000000000002</ele><time>2026-05-02T10:02:44Z</time></trkpt><trkpt lat="44.21897623333217" lon="10.73551159752724"><ele>1461.2</ele><time>2026-05-02T10:02:45Z</time></trkpt><trkpt lat="44.21899603032445" lon="10.735382947764409"><ele>1460.6</ele><time>2026-05-02T10:02:46Z</time></trkpt><trkpt lat="44.21901728545616" lon="10.735244822542818"><ele>1460.0</ele><time>2026-05-02T10:02:47Z</time></trkpt><trkpt lat="44.2190389985497" lon="10.735092708805475"><ele>1464.75</ele><time>2026-05-02T10:02:48Z</time></trkpt><trkpt lat="44.21905923447233" lon="10.734926679745424"><ele>1469.5</ele><time>2026-05-02T10:02:49Z</time></trkpt><trkpt lat="44.21906266707103" lon="10.734755480828472"><ele>1474.25</ele><time>2026-05-02T10:02:50Z</time></trkpt><trkpt lat="44.21907723194515" lon="10.73458102955641"><ele>1479.0</ele><time>2026-05-02T10:02:51Z</time></trkpt><trkpt lat="44.2190828350911" lon="10.73439873537854"><ele>1483.0</ele><time>2026-05-02T10:02:52Z</time></trkpt><trkpt lat="44.21910767918156" lon="10.734212352140702"><ele>1487.0</ele><time>2026-05-02T10:02:53Z</time></trkpt><trkpt lat="44.21912095536537" lon="10.734020111752026"><ele>1491.0</ele><time>2026-05-02T10:02:54Z</time></trkpt><trkpt lat="44.21912758967394" lon="10.733823867674364"><ele>1495.0</ele><time>2026-05-02T10:02:55Z</time></trkpt><trkpt lat="44.219174160055736" lon="10.733633560597722"><ele>1495.3333333333333</ele><time>2026-05-02T10:02:56Z</time></trkpt><trkpt lat="44.21925264912297" lon="10.733454295438419"><ele>1495.6666666666667</ele><time>2026-05-02T10:02:57Z</time></trkpt><trkpt lat="44.21932809079217" lon="10.733267422791334"><ele>1496.0</ele><time>2026-05-02T10:02:58Z</time></trkpt><trkpt lat="44.21941027484469" lon="10.733076224777292"><ele>1496.0</ele><time>2026-05-02T10:02:59Z</time></trkpt><trkpt lat="44.21947701376189" lon="10.732864761573245"><ele>1496.0</ele><time>2026-05-02T10:03:00Z</time></trkpt><trkpt lat="44.21950997231552" lon="10.732634935043276"><ele>1496.0</ele><time>2026-05-02T10:03:01Z</time></trkpt><trkpt lat="44.21954989378267" lon="10.732408625536516"><ele>1494.6666666666667</ele><time>2026-05-02T10:03:02Z</time></trkpt><trkpt lat="44.219602150126754" lon="10.73217981286275"><ele>1493.3333333333333</ele><time>2026-05-02T10:03:03Z</time></trkpt><trkpt lat="44.21963805293582" lon="10.731938946199032"><ele>1492.0</ele><time>2026-05-02T10:03:04Z</time></trkpt><trkpt lat="44.219669704999504" lon="10.731692418229668"><ele>1491.3333333333333</ele><time>2026-05-02T10:03:05Z</time></trkpt><trkpt lat="44.21969116195605" lon="10.73144134232237"><ele>1490.6666666666667</ele><time>2026-05-02T10:03:06Z</time></trkpt><trkpt lat="44.219683132518604" lon="10.731184759496738"><ele>1490.0</ele><time>2026-05-02T10:03:07Z</time></trkpt><trkpt lat="44.21965669768828" lon="10.730937883342495"><ele>1489.0</ele><time>2026-05-02T10:03:08Z</time></trkpt><trkpt lat="44.21966351145275" lon="10.730690617970684"><ele>1488.0</ele><time>2026-05-02T10:03:09Z</time></trkpt><trkpt lat="44.21966372504263" lon="10.730445023514589"><ele>1487.0</ele><time>2026-05-02T10:03:10Z</time></trkpt><trkpt lat="44.21967587893285" lon="10.730197917792834"><ele>1487.0</ele><time>2026-05-02T10:03:11Z</time></trkpt><trkpt lat="44.219665652359886" lon="10.72995091463083"><ele>1487.0</ele><time>2026-05-02T10:03:12Z</time></trkpt><trkpt lat="44.219655558410054" lon="10.729703799131762"><ele>1487.0</ele><time>2026-05-02T10:03:13Z</time></trkpt><trkpt lat="44.21962471394209" lon="10.729455929962768"><ele>1489.0</ele><time>2026-05-02T10:03:14Z</time></trkpt><trkpt lat="44.21958034085392" lon="10.729206808776977"><ele>1491.0</ele><time>2026-05-02T10:03:15Z</time></trkpt><trkpt lat="44.219528626153355" lon="10.728954053121825"><ele>1493.0</ele><time>2026-05-02T10:03:16Z</time></trkpt><trkpt lat="44.219478227241915" lon="10.728696389154779"><ele>1495.0</ele><time>2026-05-02T10:03:17Z</time></trkpt><trkpt lat="44.219439713838014" lon="10.728431549479968"><ele>1497.0</ele><time>2026-05-02T10:03:18Z</time></trkpt><trkpt lat="44.21940908161627" lon="10.728166777709795"><ele>1499.0</ele><time>2026-05-02T10:03:19Z</time></trkpt><trkpt lat="44.21938420863628" lon="10.727903841218273"><ele>1502.0</ele><time>2026-05-02T10:03:20Z</time></trkpt><trkpt lat="44.219356373098464" lon="10.727643694068675"><ele>1505.0</ele><time>2026-05-02T10:03:21Z</time></trkpt><trkpt lat="44.21933632319544" lon="10.727382880328756"><ele>1508.0</ele><time>2026-05-02T10:03:22Z</time></trkpt><trkpt lat="44.21931975760739" lon="10.727122980240924"><ele>1510.6666666666667</ele><time>2026-05-02T10:03:23Z</time></trkpt><trkpt lat="44.21930449281536" lon="10.726884486153374"><ele>1513.3333333333333</ele><time>2026-05-02T10:03:24Z</time></trkpt><trkpt lat="44.21928975969443" lon="10.726668097799196"><ele>1516.0</ele><time>2026-05-02T10:03:25Z</time></trkpt><trkpt lat="44.21928168655393" lon="10.726483717520834"><ele>1516.0</ele><time>2026-05-02T10:03:26Z</time></trkpt><trkpt lat="44.21927957711246" lon="10.726314522179008"><ele>1516.0</ele><time>2026-05-02T10:03:27Z</time></trkpt><trkpt lat="44.219297898359514" lon="10.726147697423405"><ele>1516.0</ele><time>2026-05-02T10:03:28Z</time></trkpt><trkpt lat="44.219325836784606" lon="10.725978020919914"><ele>1516.0</ele><time>2026-05-02T10:03:29Z</time></trkpt><trkpt lat="44.219351834397436" lon="10.725808128473117"><ele>1516.75</ele><time>2026-05-02T10:03:30Z</time></trkpt><trkpt lat="44.219365621954914" lon="10.725639494491327"><ele>1517.5</ele><time>2026-05-02T10:03:31Z</time></trkpt><trkpt lat="44.219368026525416" lon="10.725475344488238"><ele>1518.25</ele><time>2026-05-02T10:03:32Z</time></trkpt><trkpt lat="44.21934839974414" lon="10.725320505021692"><ele>1519.0</ele><time>2026-05-02T10:03:33Z</time></trkpt><trkpt lat="44.21930880069812" lon="10.725182471774836"><ele>1520.4</ele><time>2026-05-02T10:03:34Z</time></trkpt><trkpt lat="44.219286330000706" lon="10.725038618552373"><ele>1521.8000000000002</ele><time>2026-05-02T10:03:35Z</time></trkpt><trkpt lat="44.21924440120478" lon="10.72490495979094"><ele>1523.1999999999998</ele><time>2026-05-02T10:03:36Z</time></trkpt><trkpt lat="44.21918078366898" lon="10.724782095118275"><ele>1524.6</ele><time>2026-05-02T10:03:37Z</time></trkpt><trkpt lat="44.21912629225674" lon="10.72465321113423"><ele>1526.0</ele><time>2026-05-02T10:03:38Z</time></trkpt><trkpt lat="44.219061520127376" lon="10.72452744174215"><ele>1526.0</ele><time>2026-05-02T10:03:39Z</time></trkpt><trkpt lat="44.21898689467086" lon="10.72439907316146"><ele>1526.0</ele><time>2026-05-02T10:03:40Z</time></trkpt><trkpt lat="44.21890918313904" lon="10.724269438141729"><ele>1526.0</ele><time>2026-05-02T10:03:41Z</time></trkpt><trkpt lat="44.21882652102457" lon="10.724139735644986"><ele>1526.0</ele><time>2026-05-02T10:03:42Z</time></trkpt><trkpt lat="44.218733842900605" lon="10.724008471569594"><ele>1524.75</ele><time>2026-05-02T10:03:43Z</time></trkpt><trkpt lat="44.21863610880133" lon="10.723879302612543"><ele>1523.5</ele><time>2026-05-02T10:03:44Z</time></trkpt><trkpt lat="44.21853364905778" lon="10.723751816665157"><ele>1522.25</ele><time>2026-05-02T10:03:45Z</time></trkpt><trkpt lat="44.218424354549434" lon="10.723625142844247"><ele>1521.0</ele><time>2026-05-02T10:03:45.999Z</time></trkpt><trkpt lat="44.218310777888135" lon="10.723502733424082"><ele>1521.0</ele><time>2026-05-02T10:03:46.999Z</time></trkpt><trkpt lat="44.218190760431646" lon="10.723385672287428"><ele>1521.0</ele><time>2026-05-02T10:03:47.999Z</time></trkpt><trkpt lat="44.21806477348327" lon="10.723280036042226"><ele>1521.0</ele><time>2026-05-02T10:03:48.999Z</time></trkpt><trkpt lat="44.21793319023755" lon="10.723192012578155"><ele>1521.0</ele><time>2026-05-02T10:03:49.999Z</time></trkpt><trkpt lat="44.21780098819037" lon="10.723114025949489"><ele>1522.75</ele><time>2026-05-02T10:03:50.999Z</time></trkpt><trkpt lat="44.21766444136848" lon="10.723059482596787"><ele>1524.5</ele><time>2026-05-02T10:03:51.999Z</time></trkpt><trkpt lat="44.21753533921798" lon="10.723049375996485"><ele>1526.25</ele><time>2026-05-02T10:03:52.999Z</time></trkpt><trkpt lat="44.21741382697927" lon="10.723064269537321"><ele>1528.0</ele><time>2026-05-02T10:03:53.999Z</time></trkpt><trkpt lat="44.21730747664642" lon="10.723075825575858"><ele>1529.8333333333333</ele><time>2026-05-02T10:03:54.999Z</time></trkpt><trkpt lat="44.21721564803084" lon="10.723083272661103"><ele>1531.6666666666665</ele><time>2026-05-02T10:03:55.999Z</time></trkpt><trkpt lat="44.21713054536782" lon="10.723084380906467"><ele>1533.5</ele><time>2026-05-02T10:03:56.999Z</time></trkpt><trkpt lat="44.2170524035634" lon="10.723108300500009"><ele>1535.3333333333333</ele><time>2026-05-02T10:03:57.999Z</time></trkpt><trkpt lat="44.21696473909162" lon="10.72307585768586"><ele>1537.1666666666667</ele><time>2026-05-02T10:03:58.999Z</time></trkpt><trkpt lat="44.21687774798907" lon="10.723057861864048"><ele>1539.0</ele><time>2026-05-02T10:03:59.999Z</time></trkpt><trkpt lat="44.21678666558433" lon="10.723041360128908"><ele>1539.0</ele><time>2026-05-02T10:04:00.999Z</time></trkpt><trkpt lat="44.216690575409494" lon="10.723019520490865"><ele>1539.0</ele><time>2026-05-02T10:04:01.999Z</time></trkpt><trkpt lat="44.216592831822005" lon="10.722994408293118"><ele>1539.0</ele><time>2026-05-02T10:04:02.999Z</time></trkpt><trkpt lat="44.21649050083943" lon="10.72296323163141"><ele>1539.0</ele><time>2026-05-02T10:04:03.999Z</time></trkpt><trkpt lat="44.216392282564854" lon="10.722929167640752"><ele>1539.0</ele><time>2026-05-02T10:04:04.999Z</time></trkpt><trkpt lat="44.216298997321246" lon="10.722881754929437"><ele>1541.6</ele><time>2026-05-02T10:04:05.999Z</time></trkpt><trkpt lat="44.21621243162816" lon="10.722808296569875"><ele>1544.2</ele><time>2026-05-02T10:04:06.999Z</time></trkpt><trkpt lat="44.21613346487544" lon="10.722719359702662"><ele>1546.8</ele><time>2026-05-02T10:04:07.999Z</time></trkpt><trkpt lat="44.21606590494796" lon="10.72260714538568"><ele>1549.3999999999999</ele><time>2026-05-02T10:04:08.999Z</time></trkpt><trkpt lat="44.216018460554785" lon="10.722474920398467"><ele>1552.0</ele><time>2026-05-02T10:04:09.999Z</time></trkpt><trkpt lat="44.21598603821974" lon="10.722334636017633"><ele>1552.0</ele><time>2026-05-02T10:04:10.999Z</time></trkpt><trkpt lat="44.215956729241405" lon="10.722192908083496"><ele>1552.0</ele><time>2026-05-02T10:04:11.999Z</time></trkpt><trkpt lat="44.2159217845435" lon="10.722056904988081"><ele>1552.0</ele><time>2026-05-02T10:04:12.999Z</time></trkpt><trkpt lat="44.21588056313675" lon="10.721925372650894"><ele>1552.0</ele><time>2026-05-02T10:04:13.999Z</time></trkpt><trkpt lat="44.2158370540845" lon="10.721796420319448"><ele>1552.0</ele><time>2026-05-02T10:04:14.999Z</time></trkpt><trkpt lat="44.2157956105279" lon="10.721673502019371"><ele>1551.0</ele><time>2026-05-02T10:04:15.999Z</time></trkpt><trkpt lat="44.215753500529246" lon="10.72155266641771"><ele>1550.0</ele><time>2026-05-02T10:04:16.999Z</time></trkpt><trkpt lat="44.21571105781108" lon="10.72143248041026"><ele>1549.0</ele><time>2026-05-02T10:04:17.999Z</time></trkpt><trkpt lat="44.21566759939177" lon="10.72131255510798"><ele>1548.0</ele><time>2026-05-02T10:04:18.999Z</time></trkpt><trkpt lat="44.21562210480475" lon="10.72119316316147"><ele>1547.0</ele><time>2026-05-02T10:04:19.999Z</time></trkpt><trkpt lat="44.21557049190406" lon="10.721074509588634"><ele>1551.1999999999998</ele><time>2026-05-02T10:04:20.999Z</time></trkpt><trkpt lat="44.215517256955756" lon="10.720957111510582"><ele>1555.4</ele><time>2026-05-02T10:04:21.999Z</time></trkpt><trkpt lat="44.21546287020188" lon="10.720834812485759"><ele>1559.6</ele><time>2026-05-02T10:04:22.999Z</time></trkpt><trkpt lat="44.2154115143308" lon="10.720710763819993"><ele>1563.8000000000002</ele><time>2026-05-02T10:04:23.999Z</time></trkpt><trkpt lat="44.21536464185056" lon="10.720585641197383"><ele>1568.0</ele><time>2026-05-02T10:04:24.999Z</time></trkpt><trkpt lat="44.21532052799192" lon="10.720461106717973"><ele>1568.0</ele><time>2026-05-02T10:04:25.999Z</time></trkpt><trkpt lat="44.21527498778196" lon="10.720337036088711"><ele>1568.0</ele><time>2026-05-02T10:04:26.999Z</time></trkpt><trkpt lat="44.21520914299273" lon="10.72024482812273"><ele>1568.0</ele><time>2026-05-02T10:04:27.999Z</time></trkpt><trkpt lat="44.21515239952336" lon="10.720154189858746"><ele>1568.0</ele><time>2026-05-02T10:04:29Z</time></trkpt><trkpt lat="44.21510496061502" lon="10.720076109136675"><ele>1568.0</ele><time>2026-05-02T10:04:30Z</time></trkpt><trkpt lat="44.21503764766416" lon="10.719951115891545"><ele>1565.3333333333333</ele><time>2026-05-02T10:04:32Z</time></trkpt><trkpt lat="44.21501676634276" lon="10.719840845878009"><ele>1562.6666666666665</ele><time>2026-05-02T10:04:34Z</time></trkpt><trkpt lat="44.21500317511033" lon="10.719737604334158"><ele>1560.0</ele><time>2026-05-02T10:04:37Z</time></trkpt><trkpt lat="44.21498854895744" lon="10.71963296509716"><ele>1557.3333333333335</ele><time>2026-05-02T10:04:39Z</time></trkpt><trkpt lat="44.21497783961886" lon="10.719502754954298"><ele>1554.6666666666667</ele><time>2026-05-02T10:04:41Z</time></trkpt><trkpt lat="44.214957806104" lon="10.719375626464954"><ele>1552.0</ele><time>2026-05-02T10:04:43Z</time></trkpt><trkpt lat="44.21493091072454" lon="10.719259226602725"><ele>1551.8333333333335</ele><time>2026-05-02T10:04:46Z</time></trkpt><trkpt lat="44.21489933305962" lon="10.719161291297475"><ele>1551.6666666666667</ele><time>2026-05-02T10:04:49Z</time></trkpt><trkpt lat="44.21490136312163" lon="10.719046814648868"><ele>1551.5</ele><time>2026-05-02T10:04:52Z</time></trkpt><trkpt lat="44.21484492144291" lon="10.718962627971079"><ele>1551.3333333333335</ele><time>2026-05-02T10:04:55Z</time></trkpt><trkpt lat="44.21476587899042" lon="10.719021249962116"><ele>1551.1666666666667</ele><time>2026-05-02T10:04:59Z</time></trkpt><trkpt lat="44.21480656315091" lon="10.719150775019333"><ele>1551.0</ele><time>2026-05-02T10:05:02Z</time></trkpt><trkpt lat="44.21481871574926" lon="10.719237658216146"><ele>1551.1666666666667</ele><time>2026-05-02T10:05:03Z</time></trkpt><trkpt lat="44.214890508236415" lon="10.719301136920906"><ele>1551.3333333333335</ele><time>2026-05-02T10:05:05Z</time></trkpt><trkpt lat="44.21493783157333" lon="10.71942885766707"><ele>1551.5</ele><time>2026-05-02T10:05:07Z</time></trkpt><trkpt lat="44.21495190164496" lon="10.719598557570302"><ele>1551.6666666666667</ele><time>2026-05-02T10:05:09Z</time></trkpt><trkpt lat="44.21496320386499" lon="10.719693423960399"><ele>1551.8333333333335</ele><time>2026-05-02T10:05:10Z</time></trkpt><trkpt lat="44.21498255792239" lon="10.719780316269544"><ele>1552.0</ele><time>2026-05-02T10:05:11Z</time></trkpt><trkpt lat="44.21497394312529" lon="10.719887930441036"><ele>1552.0</ele><time>2026-05-02T10:05:12Z</time></trkpt><trkpt lat="44.215006622463214" lon="10.719992697870312"><ele>1552.0</ele><time>2026-05-02T10:05:13Z</time></trkpt><trkpt lat="44.21506128468992" lon="10.720093313901245"><ele>1552.0</ele><time>2026-05-02T10:05:14Z</time></trkpt><trkpt lat="44.21511837266822" lon="10.720187963097322"><ele>1552.0</ele><time>2026-05-02T10:05:15Z</time></trkpt><trkpt lat="44.21519334774316" lon="10.72027991720042"><ele>1552.0</ele><time>2026-05-02T10:05:16Z</time></trkpt><trkpt lat="44.21524751711813" lon="10.72041715460096"><ele>1556.0</ele><time>2026-05-02T10:05:17Z</time></trkpt><trkpt lat="44.21530660029455" lon="10.720563543463578"><ele>1560.0</ele><time>2026-05-02T10:05:18Z</time></trkpt><trkpt lat="44.215371503881734" lon="10.720717408765074"><ele>1564.0</ele><time>2026-05-02T10:05:19Z</time></trkpt><trkpt lat="44.215446209250715" lon="10.720886514459469"><ele>1568.0</ele><time>2026-05-02T10:05:20Z</time></trkpt><trkpt lat="44.21552130129448" lon="10.721053375157116"><ele>1570.75</ele><time>2026-05-02T10:05:21Z</time></trkpt><trkpt lat="44.21558943322685" lon="10.721209101373145"><ele>1573.5</ele><time>2026-05-02T10:05:22Z</time></trkpt><trkpt lat="44.21564902113899" lon="10.721361074369705"><ele>1576.25</ele><time>2026-05-02T10:05:23Z</time></trkpt><trkpt lat="44.21570751392899" lon="10.721524777358477"><ele>1579.0</ele><time>2026-05-02T10:05:24Z</time></trkpt><trkpt lat="44.215764069746754" lon="10.72170234579075"><ele>1570.0</ele><time>2026-05-02T10:05:25Z</time></trkpt><trkpt lat="44.21582059489041" lon="10.721893180940583"><ele>1561.0</ele><time>2026-05-02T10:05:26Z</time></trkpt><trkpt lat="44.215882714542865" lon="10.722107194046561"><ele>1552.0</ele><time>2026-05-02T10:05:27Z</time></trkpt><trkpt lat="44.21594025403618" lon="10.722309368781946"><ele>1552.0</ele><time>2026-05-02T10:05:28Z</time></trkpt><trkpt lat="44.21600100059253" lon="10.722499050849837"><ele>1552.0</ele><time>2026-05-02T10:05:29Z</time></trkpt><trkpt lat="44.21606733019283" lon="10.722673473095787"><ele>1552.0</ele><time>2026-05-02T10:05:30Z</time></trkpt><trkpt lat="44.216147577598484" lon="10.722835622446398"><ele>1552.0</ele><time>2026-05-02T10:05:31Z</time></trkpt><trkpt lat="44.21626879547961" lon="10.722931945481326"><ele>1553.0</ele><time>2026-05-02T10:05:32Z</time></trkpt><trkpt lat="44.21640262049622" lon="10.722964386540164"><ele>1554.0</ele><time>2026-05-02T10:05:33Z</time></trkpt><trkpt lat="44.21652323074249" lon="10.723003801741426"><ele>1555.0</ele><time>2026-05-02T10:05:34Z</time></trkpt><trkpt lat="44.21663597256497" lon="10.723042638015741"><ele>1556.0</ele><time>2026-05-02T10:05:35Z</time></trkpt><trkpt lat="44.21673665709204" lon="10.723095197662857"><ele>1552.6</ele><time>2026-05-02T10:05:36Z</time></trkpt><trkpt lat="44.21683262645543" lon="10.723103612982959"><ele>1549.1999999999998</ele><time>2026-05-02T10:05:37Z</time></trkpt><trkpt lat="44.216894635437185" lon="10.72312733496081"><ele>1545.8000000000002</ele><time>2026-05-02T10:05:38Z</time></trkpt><trkpt lat="44.21687960378068" lon="10.723414067164033"><ele>1542.4</ele><time>2026-05-02T10:05:40Z</time></trkpt><trkpt lat="44.21681414064574" lon="10.723458163695456"><ele>1539.0</ele><time>2026-05-02T10:05:41Z</time></trkpt><trkpt lat="44.21674512018895" lon="10.723521370397"><ele>1537.4</ele><time>2026-05-02T10:05:42Z</time></trkpt><trkpt lat="44.2166698429301" lon="10.72359444053609"><ele>1535.8000000000002</ele><time>2026-05-02T10:05:43Z</time></trkpt><trkpt lat="44.21658150703857" lon="10.723661741479287"><ele>1534.1999999999998</ele><time>2026-05-02T10:05:44Z</time></trkpt><trkpt lat="44.216494257734695" lon="10.723744388076806"><ele>1532.6</ele><time>2026-05-02T10:05:45Z</time></trkpt><trkpt lat="44.21640374167936" lon="10.723834020261378"><ele>1531.0</ele><time>2026-05-02T10:05:46Z</time></trkpt><trkpt lat="44.216311934182855" lon="10.723938410993687"><ele>1535.25</ele><time>2026-05-02T10:05:47Z</time></trkpt><trkpt lat="44.21622242167339" lon="10.724059235505198"><ele>1539.5</ele><time>2026-05-02T10:05:48Z</time></trkpt><trkpt lat="44.216129861686795" lon="10.724183628794082"><ele>1543.75</ele><time>2026-05-02T10:05:49Z</time></trkpt><trkpt lat="44.21602577019052" lon="10.724293432508187"><ele>1548.0</ele><time>2026-05-02T10:05:50Z</time></trkpt><trkpt lat="44.21591613801347" lon="10.724380230033132"><ele>1544.5</ele><time>2026-05-02T10:05:51Z</time></trkpt><trkpt lat="44.21580774610998" lon="10.724438063359523"><ele>1541.0</ele><time>2026-05-02T10:05:52Z</time></trkpt><trkpt lat="44.215703932972716" lon="10.724500445163036"><ele>1537.5</ele><time>2026-05-02T10:05:53Z</time></trkpt><trkpt lat="44.21558344009629" lon="10.72449519913686"><ele>1534.0</ele><time>2026-05-02T10:05:54Z</time></trkpt><trkpt lat="44.2154624527059" lon="10.724452294072679"><ele>1533.3333333333333</ele><time>2026-05-02T10:05:55Z</time></trkpt><trkpt lat="44.215331793090364" lon="10.724399490698389"><ele>1532.6666666666667</ele><time>2026-05-02T10:05:56Z</time></trkpt><trkpt lat="44.21518280555961" lon="10.724329317872847"><ele>1532.0</ele><time>2026-05-02T10:05:57Z</time></trkpt><trkpt lat="44.21502337015023" lon="10.724294556702416"><ele>1534.25</ele><time>2026-05-02T10:05:57.999Z</time></trkpt><trkpt lat="44.21487627154969" lon="10.724304055551979"><ele>1536.5</ele><time>2026-05-02T10:05:58.999Z</time></trkpt><trkpt lat="44.214744250499564" lon="10.724238871314645"><ele>1538.75</ele><time>2026-05-02T10:05:59.999Z</time></trkpt><trkpt lat="44.21462662238846" lon="10.724187168647926"><ele>1541.0</ele><time>2026-05-02T10:06:00.999Z</time></trkpt><trkpt lat="44.21454170517469" lon="10.724128054047396"><ele>1540.9999999999998</ele><time>2026-05-02T10:06:01.999Z</time></trkpt><trkpt lat="44.214474440599005" lon="10.72408227430253"><ele>1541.0</ele><time>2026-05-02T10:06:02.999Z</time></trkpt><trkpt lat="44.214399509527055" lon="10.724038746467544"><ele>1541.0</ele><time>2026-05-02T10:06:04.999Z</time></trkpt><trkpt lat="44.214317082617036" lon="10.724057211034014"><ele>1541.0</ele><time>2026-05-02T10:06:07.999Z</time></trkpt><trkpt lat="44.21422632250918" lon="10.724085827072663"><ele>1540.9999999999998</ele><time>2026-05-02T10:06:10.999Z</time></trkpt><trkpt lat="44.21414703461762" lon="10.724097528587897"><ele>1541.0</ele><time>2026-05-02T10:06:13.999Z</time></trkpt><trkpt lat="44.213943097911375" lon="10.723600423247609"><ele>1543.1999999999998</ele><time>2026-05-02T10:06:17.999Z</time></trkpt><trkpt lat="44.21385548010557" lon="10.723526761841077"><ele>1545.3999999999999</ele><time>2026-05-02T10:06:19.999Z</time></trkpt><trkpt lat="44.21377130999873" lon="10.723473023269191"><ele>1547.6</ele><time>2026-05-02T10:06:21.999Z</time></trkpt><trkpt lat="44.21365508903429" lon="10.723437006456225"><ele>1549.8</ele><time>2026-05-02T10:06:23.999Z</time></trkpt><trkpt lat="44.21353732185672" lon="10.723390624031902"><ele>1552.0</ele><time>2026-05-02T10:06:25.999Z</time></trkpt><trkpt lat="44.21346891902316" lon="10.723364063977785"><ele>1552.0000000000002</ele><time>2026-05-02T10:06:26.999Z</time></trkpt><trkpt lat="44.213403301099454" lon="10.723334169877552"><ele>1552.0</ele><time>2026-05-02T10:06:27.999Z</time></trkpt><trkpt lat="44.213337162158915" lon="10.723306960578636"><ele>1552.0</ele><time>2026-05-02T10:06:28.999Z</time></trkpt><trkpt lat="44.213274641636964" lon="10.723284515390938"><ele>1552.0</ele><time>2026-05-02T10:06:29.999Z</time></trkpt><trkpt lat="44.21317572428402" lon="10.723246152650503"><ele>1552.0000000000002</ele><time>2026-05-02T10:06:31.999Z</time></trkpt><trkpt lat="44.21309632319348" lon="10.723194972529361"><ele>1552.0</ele><time>2026-05-02T10:06:34Z</time></trkpt><trkpt lat="44.21300923881787" lon="10.723161667109661"><ele>1551.8333333333335</ele><time>2026-05-02T10:06:36Z</time></trkpt><trkpt lat="44.21292052411778" lon="10.723132099397725"><ele>1551.6666666666667</ele><time>2026-05-02T10:06:38Z</time></trkpt><trkpt lat="44.21283057915512" lon="10.723137608909873"><ele>1551.5</ele><time>2026-05-02T10:06:40Z</time></trkpt><trkpt lat="44.21275301254585" lon="10.72316225255264"><ele>1551.3333333333335</ele><time>2026-05-02T10:06:42Z</time></trkpt><trkpt lat="44.212681568443216" lon="10.72320982814843"><ele>1551.1666666666667</ele><time>2026-05-02T10:06:44Z</time></trkpt><trkpt lat="44.21261569401023" lon="10.723245410989291"><ele>1551.0</ele><time>2026-05-02T10:06:47Z</time></trkpt><trkpt lat="44.21255197443574" lon="10.723296692331152"><ele>1551.0</ele><time>2026-05-02T10:07:01Z</time></trkpt><trkpt lat="44.21261546569772" lon="10.72326620106443"><ele>1551.0</ele><time>2026-05-02T10:07:19Z</time></trkpt><trkpt lat="44.2126984017571" lon="10.723207229464364"><ele>1551.0</ele><time>2026-05-02T10:07:21Z</time></trkpt><trkpt lat="44.212794486314635" lon="10.723176158569936"><ele>1551.0</ele><time>2026-05-02T10:07:23Z</time></trkpt><trkpt lat="44.21286961017498" lon="10.7231588741561"><ele>1551.0</ele><time>2026-05-02T10:07:25Z</time></trkpt><trkpt lat="44.21294072814988" lon="10.723158322422833"><ele>1551.0</ele><time>2026-05-02T10:07:31Z</time></trkpt><trkpt lat="44.21302666438847" lon="10.72317297547923"><ele>1551.0</ele><time>2026-05-02T10:07:33Z</time></trkpt><trkpt lat="44.21313031329599" lon="10.723227882078014"><ele>1551.0</ele><time>2026-05-02T10:07:35Z</time></trkpt><trkpt lat="44.21324642336552" lon="10.723292921692272"><ele>1551.0</ele><time>2026-05-02T10:07:37Z</time></trkpt><trkpt lat="44.213361958803986" lon="10.723337325471187"><ele>1551.0</ele><time>2026-05-02T10:07:39Z</time></trkpt><trkpt lat="44.21347028723691" lon="10.723384879020932"><ele>1551.1666666666667</ele><time>2026-05-02T10:07:41Z</time></trkpt><trkpt lat="44.21354360073145" lon="10.72340663420597"><ele>1551.3333333333335</ele><time>2026-05-02T10:07:42Z</time></trkpt><trkpt lat="44.21360513593168" lon="10.7234334133567"><ele>1551.5</ele><time>2026-05-02T10:07:43Z</time></trkpt><trkpt lat="44.2136670016194" lon="10.723464725098593"><ele>1551.6666666666667</ele><time>2026-05-02T10:07:44Z</time></trkpt><trkpt lat="44.21372917763707" lon="10.723501514475776"><ele>1551.8333333333335</ele><time>2026-05-02T10:07:45Z</time></trkpt><trkpt lat="44.21387665836812" lon="10.723623183150982"><ele>1552.0</ele><time>2026-05-02T10:07:47Z</time></trkpt><trkpt lat="44.213939707591464" lon="10.72368166237258"><ele>1550.1666666666667</ele><time>2026-05-02T10:07:48Z</time></trkpt><trkpt lat="44.21399647241092" lon="10.723739414007962"><ele>1548.3333333333335</ele><time>2026-05-02T10:07:49Z</time></trkpt><trkpt lat="44.2140446736867" lon="10.72380662269146"><ele>1546.5</ele><time>2026-05-02T10:07:50Z</time></trkpt><trkpt lat="44.21414245910947" lon="10.72390143024338"><ele>1544.6666666666665</ele><time>2026-05-02T10:07:52Z</time></trkpt><trkpt lat="44.214204911886036" lon="10.723918358389438"><ele>1542.8333333333333</ele><time>2026-05-02T10:07:53Z</time></trkpt><trkpt lat="44.21427958192243" lon="10.723965723117036"><ele>1541.0</ele><time>2026-05-02T10:07:55Z</time></trkpt><trkpt lat="44.21428367539396" lon="10.724092459387883"><ele>1541.0</ele><time>2026-05-02T10:07:58Z</time></trkpt><trkpt lat="44.21422329580255" lon="10.724155579705371"><ele>1541.0</ele><time>2026-05-02T10:07:59Z</time></trkpt><trkpt lat="44.21413739580304" lon="10.724186847014826"><ele>1541.0</ele><time>2026-05-02T10:08:00Z</time></trkpt><trkpt lat="44.21405971971455" lon="10.724250527646387"><ele>1541.0</ele><time>2026-05-02T10:08:01Z</time></trkpt><trkpt lat="44.21397820518802" lon="10.724332236992979"><ele>1541.0</ele><time>2026-05-02T10:08:02Z</time></trkpt><trkpt lat="44.213888371805666" lon="10.724426556959642"><ele>1539.0</ele><time>2026-05-02T10:08:03Z</time></trkpt><trkpt lat="44.21378919560328" lon="10.724512398848338"><ele>1537.0</ele><time>2026-05-02T10:08:04Z</time></trkpt><trkpt lat="44.21367252511758" lon="10.724580005216014"><ele>1535.0</ele><time>2026-05-02T10:08:05Z</time></trkpt><trkpt lat="44.21354683203665" lon="10.724609296109975"><ele>1533.0</ele><time>2026-05-02T10:08:06Z</time></trkpt><trkpt lat="44.21341714289985" lon="10.724653258750871"><ele>1533.0</ele><time>2026-05-02T10:08:07Z</time></trkpt><trkpt lat="44.21329358024881" lon="10.724722352110051"><ele>1533.0</ele><time>2026-05-02T10:08:08Z</time></trkpt><trkpt lat="44.21317829055257" lon="10.724819294503076"><ele>1533.0</ele><time>2026-05-02T10:08:09Z</time></trkpt><trkpt lat="44.213049092882684" lon="10.724880321417476"><ele>1533.0</ele><time>2026-05-02T10:08:10Z</time></trkpt><trkpt lat="44.212934673187284" lon="10.724954239630083"><ele>1531.0</ele><time>2026-05-02T10:08:11Z</time></trkpt><trkpt lat="44.2128328194428" lon="10.72504954617464"><ele>1529.0</ele><time>2026-05-02T10:08:12Z</time></trkpt><trkpt lat="44.21273375479572" lon="10.725138065273308"><ele>1527.0</ele><time>2026-05-02T10:08:12.999Z</time></trkpt><trkpt lat="44.212641221956666" lon="10.725232653320631"><ele>1525.0</ele><time>2026-05-02T10:08:13.999Z</time></trkpt><trkpt lat="44.21255628586318" lon="10.725330486582074"><ele>1525.0</ele><time>2026-05-02T10:08:14.999Z</time></trkpt><trkpt lat="44.21248533420851" lon="10.725434515731665"><ele>1525.0</ele><time>2026-05-02T10:08:15.999Z</time></trkpt><trkpt lat="44.212454008686116" lon="10.725574222001697"><ele>1525.0</ele><time>2026-05-02T10:08:16.999Z</time></trkpt><trkpt lat="44.212414559107785" lon="10.725717075795565"><ele>1525.0</ele><time>2026-05-02T10:08:17.999Z</time></trkpt><trkpt lat="44.212351390126734" lon="10.72582347681865"><ele>1525.0</ele><time>2026-05-02T10:08:18.999Z</time></trkpt><trkpt lat="44.21224919678053" lon="10.725869389652534"><ele>1523.0</ele><time>2026-05-02T10:08:19.999Z</time></trkpt><trkpt lat="44.21213865126031" lon="10.725875169062846"><ele>1521.0</ele><time>2026-05-02T10:08:20.999Z</time></trkpt><trkpt lat="44.21202424290397" lon="10.725871922921138"><ele>1519.0</ele><time>2026-05-02T10:08:21.999Z</time></trkpt><trkpt lat="44.211916645589156" lon="10.725869566942293"><ele>1517.0</ele><time>2026-05-02T10:08:22.999Z</time></trkpt><trkpt lat="44.21181425725784" lon="10.725878419049575"><ele>1515.0</ele><time>2026-05-02T10:08:23.999Z</time></trkpt><trkpt lat="44.21171586759875" lon="10.725898973524473"><ele>1515.0</ele><time>2026-05-02T10:08:24.999Z</time></trkpt><trkpt lat="44.21161811110247" lon="10.72586553873927"><ele>1515.0</ele><time>2026-05-02T10:08:25.999Z</time></trkpt><trkpt lat="44.21151928326468" lon="10.725857407440918"><ele>1515.0</ele><time>2026-05-02T10:08:26.999Z</time></trkpt><trkpt lat="44.211408834644544" lon="10.72588305132279"><ele>1515.0</ele><time>2026-05-02T10:08:27.999Z</time></trkpt><trkpt lat="44.21130485005538" lon="10.725875418232334"><ele>1515.0</ele><time>2026-05-02T10:08:28.999Z</time></trkpt><trkpt lat="44.21119226737236" lon="10.725892484829044"><ele>1514.4</ele><time>2026-05-02T10:08:29.999Z</time></trkpt><trkpt lat="44.21109043820983" lon="10.725921976844704"><ele>1513.8</ele><time>2026-05-02T10:08:30.999Z</time></trkpt><trkpt lat="44.21098410308964" lon="10.725953026053618"><ele>1513.1999999999998</ele><time>2026-05-02T10:08:31.999Z</time></trkpt><trkpt lat="44.21088164485219" lon="10.725985107523375"><ele>1512.6</ele><time>2026-05-02T10:08:32.999Z</time></trkpt><trkpt lat="44.210787295484316" lon="10.7260161450491"><ele>1512.0</ele><time>2026-05-02T10:08:33.999Z</time></trkpt><trkpt lat="44.21069634526819" lon="10.726042953911286"><ele>1511.8333333333333</ele><time>2026-05-02T10:08:34.999Z</time></trkpt><trkpt lat="44.210610076309585" lon="10.726061489452372"><ele>1511.6666666666667</ele><time>2026-05-02T10:08:35.999Z</time></trkpt><trkpt lat="44.210532523439056" lon="10.726080333921919"><ele>1511.5</ele><time>2026-05-02T10:08:36.999Z</time></trkpt><trkpt lat="44.21045844301742" lon="10.726102801264588"><ele>1511.3333333333335</ele><time>2026-05-02T10:08:37.999Z</time></trkpt><trkpt lat="44.21037950030275" lon="10.726125850478065"><ele>1511.1666666666667</ele><time>2026-05-02T10:08:39.001Z</time></trkpt><trkpt lat="44.2102946638305" lon="10.726129607880347"><ele>1511.0</ele><time>2026-05-02T10:08:40.001Z</time></trkpt><trkpt lat="44.21020321716223" lon="10.72613145443289"><ele>1511.0</ele><time>2026-05-02T10:08:41.001Z</time></trkpt><trkpt lat="44.21011182983277" lon="10.726115544403424"><ele>1511.0</ele><time>2026-05-02T10:08:42.001Z</time></trkpt><trkpt lat="44.21002102397348" lon="10.726095507767301"><ele>1511.0</ele><time>2026-05-02T10:08:43.001Z</time></trkpt><trkpt lat="44.20993719071079" lon="10.726071753481298"><ele>1511.0</ele><time>2026-05-02T10:08:44.001Z</time></trkpt><trkpt lat="44.209864859355534" lon="10.726019422872726"><ele>1511.0</ele><time>2026-05-02T10:08:45.001Z</time></trkpt><trkpt lat="44.209796394193475" lon="10.725971437045803"><ele>1511.0</ele><time>2026-05-02T10:08:46.001Z</time></trkpt><trkpt lat="44.209731135242244" lon="10.72592399744626"><ele>1511.0</ele><time>2026-05-02T10:08:47.001Z</time></trkpt><trkpt lat="44.20967065522414" lon="10.72586969672492"><ele>1511.0</ele><time>2026-05-02T10:08:48.001Z</time></trkpt><trkpt lat="44.2096140296961" lon="10.725817790909707"><ele>1511.0</ele><time>2026-05-02T10:08:49.001Z</time></trkpt><trkpt lat="44.209538644635586" lon="10.725723777126179"><ele>1511.0</ele><time>2026-05-02T10:08:51.001Z</time></trkpt><trkpt lat="44.20949876739123" lon="10.725638011390947"><ele>1511.0</ele><time>2026-05-02T10:08:54Z</time></trkpt><trkpt lat="44.209456079271966" lon="10.725541601187237"><ele>1511.0</ele><time>2026-05-02T10:08:58Z</time></trkpt><trkpt lat="44.20941416708967" lon="10.725446942572898"><ele>1511.0</ele><time>2026-05-02T10:09:07Z</time></trkpt><trkpt lat="44.20943049457151" lon="10.725560659224906"><ele>1511.0</ele><time>2026-05-02T10:09:14Z</time></trkpt><trkpt lat="44.20944015494128" lon="10.725669591505836"><ele>1511.0</ele><time>2026-05-02T10:09:18Z</time></trkpt><trkpt lat="44.209400652523954" lon="10.725771410303977"><ele>1511.0</ele><time>2026-05-02T10:09:25Z</time></trkpt><trkpt lat="44.20942925243177" lon="10.725681566436712"><ele>1511.0</ele><time>2026-05-02T10:11:42Z</time></trkpt><trkpt lat="44.209430057304665" lon="10.725591022793612"><ele>1511.0</ele><time>2026-05-02T10:12:06Z</time></trkpt><trkpt lat="44.20948526412285" lon="10.72554100826738"><ele>1511.0</ele><time>2026-05-02T10:12:19.999Z</time></trkpt><trkpt lat="44.209479996683825" lon="10.725406050939648"><ele>1511.0</ele><time>2026-05-02T10:12:35.999Z</time></trkpt><trkpt lat="44.2095473047265" lon="10.72542580269967"><ele>1511.0</ele><time>2026-05-02T10:12:43.999Z</time></trkpt><trkpt lat="44.209612963981805" lon="10.72540919800937"><ele>1511.0</ele><time>2026-05-02T10:12:52Z</time></trkpt><trkpt lat="44.20966789008527" lon="10.725359569815515"><ele>1511.0</ele><time>2026-05-02T10:12:59Z</time></trkpt><trkpt lat="44.209728133100256" lon="10.725313127186672"><ele>1511.0</ele><time>2026-05-02T10:13:07Z</time></trkpt><trkpt lat="44.209792729794735" lon="10.725292691152871"><ele>1511.0</ele><time>2026-05-02T10:13:14Z</time></trkpt><trkpt lat="44.20985515104192" lon="10.72525937331696"><ele>1511.0</ele><time>2026-05-02T10:13:24Z</time></trkpt><trkpt lat="44.20990792751882" lon="10.725210605864685"><ele>1511.0</ele><time>2026-05-02T10:13:32Z</time></trkpt><trkpt lat="44.209967361568175" lon="10.725158326748383"><ele>1511.0</ele><time>2026-05-02T10:13:45Z</time></trkpt><trkpt lat="44.2100099934363" lon="10.725079241412462"><ele>1511.0</ele><time>2026-05-02T10:14:02Z</time></trkpt><trkpt lat="44.210160641714104" lon="10.725137962256333"><ele>1511.0</ele><time>2026-05-02T10:15:11.438Z</time></trkpt><trkpt lat="44.209904696078695" lon="10.72553852144798"><ele>1511.0</ele><time>2026-05-02T10:15:12.999Z</time></trkpt><trkpt lat="44.209882815515726" lon="10.725454301187163"><ele>1511.0</ele><time>2026-05-02T10:15:17.999Z</time></trkpt><trkpt lat="44.20989564384109" lon="10.725341135585355"><ele>1511.0</ele><time>2026-05-02T10:15:20Z</time></trkpt><trkpt lat="44.209944694736414" lon="10.725264102736864"><ele>1511.0</ele><time>2026-05-02T10:15:28Z</time></trkpt><trkpt lat="44.20993396872344" lon="10.725154736886115"><ele>1511.0</ele><time>2026-05-02T10:21:17.999Z</time></trkpt><trkpt lat="44.210018003426654" lon="10.725138572744603"><ele>1511.0</ele><time>2026-05-02T11:38:22.999Z</time></trkpt><trkpt lat="44.209975460238425" lon="10.725068243728701"><ele>1510.1999999999998</ele><time>2026-05-02T11:38:39.074Z</time></trkpt><trkpt lat="44.20988945583984" lon="10.72503975921923"><ele>1509.3999999999999</ele><time>2026-05-02T11:43:31.013Z</time></trkpt><trkpt lat="44.20994930083964" lon="10.724976886451707"><ele>1508.6</ele><time>2026-05-02T11:43:59.013Z</time></trkpt><trkpt lat="44.209952671876394" lon="10.724771550213969"><ele>1507.8</ele><time>2026-05-02T11:44:05.011Z</time></trkpt><trkpt lat="44.20999402594851" lon="10.72487804324579"><ele>1507.0</ele><time>2026-05-02T11:44:24.675Z</time></trkpt><trkpt lat="44.20989472335147" lon="10.725065919682468"><ele>1507.142857142857</ele><time>2026-05-02T11:44:26.013Z</time></trkpt><trkpt lat="44.20982331637313" lon="10.725157362694608"><ele>1507.2857142857142</ele><time>2026-05-02T11:44:28.014Z</time></trkpt><trkpt lat="44.209809816669456" lon="10.725261890078423"><ele>1507.4285714285713</ele><time>2026-05-02T11:44:31.014Z</time></trkpt><trkpt lat="44.20985295239627" lon="10.725339609848389"><ele>1507.5714285714284</ele><time>2026-05-02T11:44:34.994Z</time></trkpt><trkpt lat="44.2099102587077" lon="10.725292795444764"><ele>1507.7142857142858</ele><time>2026-05-02T11:44:42Z</time></trkpt><trkpt lat="44.20985730382935" lon="10.72523823671864"><ele>1507.8571428571427</ele><time>2026-05-02T11:44:53Z</time></trkpt><trkpt lat="44.20980054016105" lon="10.725297555839294"><ele>1508.0</ele><time>2026-05-02T11:45:22.999Z</time></trkpt><trkpt lat="44.20973834454827" lon="10.725328206377185"><ele>1508.4285714285713</ele><time>2026-05-02T11:45:33.999Z</time></trkpt><trkpt lat="44.20967813423312" lon="10.725361195592821"><ele>1508.857142857143</ele><time>2026-05-02T11:45:40.999Z</time></trkpt><trkpt lat="44.209611034697886" lon="10.725397577950591"><ele>1509.2857142857142</ele><time>2026-05-02T11:45:50.999Z</time></trkpt><trkpt lat="44.20954491008657" lon="10.725424065891273"><ele>1509.7142857142858</ele><time>2026-05-02T11:45:57.999Z</time></trkpt><trkpt lat="44.209483502657875" lon="10.725450416010421"><ele>1510.142857142857</ele><time>2026-05-02T11:46:04.999Z</time></trkpt><trkpt lat="44.209426212269214" lon="10.725498475480327"><ele>1510.5714285714284</ele><time>2026-05-02T11:46:17.998Z</time></trkpt><trkpt lat="44.209427935382905" lon="10.725587730142887"><ele>1511.0</ele><time>2026-05-02T11:46:32.998Z</time></trkpt><trkpt lat="44.209437383361205" lon="10.725682765180713"><ele>1511.0</ele><time>2026-05-02T11:46:43.998Z</time></trkpt><trkpt lat="44.20949002021838" lon="10.725734983231504"><ele>1511.0</ele><time>2026-05-02T11:47:41.999Z</time></trkpt><trkpt lat="44.20951504010349" lon="10.725830719812139"><ele>1511.0</ele><time>2026-05-02T11:49:16.999Z</time></trkpt><trkpt lat="44.20940111485645" lon="10.72578465456275"><ele>1511.0</ele><time>2026-05-02T11:53:04Z</time></trkpt><trkpt lat="44.20947790837598" lon="10.725788655770993"><ele>1511.0</ele><time>2026-05-02T11:54:32.998Z</time></trkpt><trkpt lat="44.20942738770832" lon="10.725845052129872"><ele>1511.0</ele><time>2026-05-02T11:57:24.999Z</time></trkpt><trkpt lat="44.209397778099756" lon="10.725750844031106"><ele>1511.0</ele><time>2026-05-02T11:59:00.998Z</time></trkpt><trkpt lat="44.20946371560792" lon="10.725707547619177"><ele>1511.0</ele><time>2026-05-02T11:59:53.999Z</time></trkpt><trkpt lat="44.20952994254442" lon="10.725761128039162"><ele>1511.0</ele><time>2026-05-02T11:59:55.999Z</time></trkpt><trkpt lat="44.20958890693082" lon="10.725818823250675"><ele>1511.0</ele><time>2026-05-02T11:59:57.999Z</time></trkpt><trkpt lat="44.209672288068305" lon="10.725897589432867"><ele>1511.0</ele><time>2026-05-02T12:00:00.999Z</time></trkpt><trkpt lat="44.209743174594095" lon="10.725958793093765"><ele>1511.0</ele><time>2026-05-02T12:00:02.999Z</time></trkpt><trkpt lat="44.20982694450195" lon="10.726014116596316"><ele>1509.8</ele><time>2026-05-02T12:00:04.999Z</time></trkpt><trkpt lat="44.20992272399666" lon="10.72607108415425"><ele>1508.6</ele><time>2026-05-02T12:00:06.999Z</time></trkpt><trkpt lat="44.21002355591773" lon="10.726100577503773"><ele>1507.4</ele><time>2026-05-02T12:00:08.999Z</time></trkpt><trkpt lat="44.21011758733089" lon="10.72617302267489"><ele>1506.2</ele><time>2026-05-02T12:00:10.999Z</time></trkpt><trkpt lat="44.21021793264645" lon="10.726183630442831"><ele>1505.0</ele><time>2026-05-02T12:00:12.999Z</time></trkpt><trkpt lat="44.21034178752435" lon="10.726164651997765"><ele>1505.0</ele><time>2026-05-02T12:00:14.999Z</time></trkpt><trkpt lat="44.21041353381541" lon="10.726158401134134"><ele>1505.0</ele><time>2026-05-02T12:00:15.999Z</time></trkpt><trkpt lat="44.2104864470399" lon="10.72614203765064"><ele>1505.0</ele><time>2026-05-02T12:00:16.999Z</time></trkpt><trkpt lat="44.21055603341027" lon="10.726123766415068"><ele>1505.0</ele><time>2026-05-02T12:00:17.999Z</time></trkpt><trkpt lat="44.21063101474654" lon="10.726116832412488"><ele>1505.0</ele><time>2026-05-02T12:00:18.999Z</time></trkpt><trkpt lat="44.210716168745755" lon="10.72609486903757"><ele>1505.0</ele><time>2026-05-02T12:00:19.999Z</time></trkpt><trkpt lat="44.210799802582656" lon="10.726070062075792"><ele>1506.75</ele><time>2026-05-02T12:00:20.999Z</time></trkpt><trkpt lat="44.21092451247419" lon="10.726062441061847"><ele>1508.5</ele><time>2026-05-02T12:00:21.999Z</time></trkpt><trkpt lat="44.21101971882808" lon="10.726039717232867"><ele>1510.25</ele><time>2026-05-02T12:00:22.999Z</time></trkpt><trkpt lat="44.21112115879644" lon="10.726013988325978"><ele>1512.0</ele><time>2026-05-02T12:00:23.999Z</time></trkpt><trkpt lat="44.21125622664518" lon="10.725980249897606"><ele>1512.0</ele><time>2026-05-02T12:00:24.999Z</time></trkpt><trkpt lat="44.21138882369111" lon="10.725951475503583"><ele>1512.0</ele><time>2026-05-02T12:00:25.999Z</time></trkpt><trkpt lat="44.21151082911146" lon="10.725918580725894"><ele>1512.0</ele><time>2026-05-02T12:00:26.999Z</time></trkpt><trkpt lat="44.21162194270854" lon="10.725906383501123"><ele>1512.0</ele><time>2026-05-02T12:00:27.999Z</time></trkpt><trkpt lat="44.21173010774883" lon="10.725904376733055"><ele>1512.6</ele><time>2026-05-02T12:00:28.999Z</time></trkpt><trkpt lat="44.21183014047024" lon="10.725906752739428"><ele>1513.1999999999998</ele><time>2026-05-02T12:00:29.999Z</time></trkpt><trkpt lat="44.21193345711089" lon="10.725914134563043"><ele>1513.8</ele><time>2026-05-02T12:00:30.999Z</time></trkpt><trkpt lat="44.212041796874516" lon="10.725914026532728"><ele>1514.4</ele><time>2026-05-02T12:00:31.999Z</time></trkpt><trkpt lat="44.2121505794262" lon="10.725908667716181"><ele>1515.0</ele><time>2026-05-02T12:00:32.999Z</time></trkpt><trkpt lat="44.21223623494238" lon="10.725897672184084"><ele>1517.0</ele><time>2026-05-02T12:00:33.999Z</time></trkpt><trkpt lat="44.212327659738406" lon="10.725894697124676"><ele>1519.0</ele><time>2026-05-02T12:00:34.999Z</time></trkpt><trkpt lat="44.21241218001757" lon="10.725822063304799"><ele>1521.0</ele><time>2026-05-02T12:00:35.999Z</time></trkpt><trkpt lat="44.21248282193721" lon="10.725701198879557"><ele>1523.0</ele><time>2026-05-02T12:00:36.999Z</time></trkpt><trkpt lat="44.21251941542415" lon="10.725548013413936"><ele>1525.0</ele><time>2026-05-02T12:00:37.999Z</time></trkpt><trkpt lat="44.21256034345622" lon="10.72541306523716"><ele>1525.0</ele><time>2026-05-02T12:00:38.999Z</time></trkpt><trkpt lat="44.21262859822747" lon="10.725330155526684"><ele>1525.0</ele><time>2026-05-02T12:00:39.999Z</time></trkpt><trkpt lat="44.212713398596605" lon="10.72524323262522"><ele>1525.0</ele><time>2026-05-02T12:00:40.999Z</time></trkpt><trkpt lat="44.21280353527829" lon="10.725156364900808"><ele>1525.0</ele><time>2026-05-02T12:00:41.999Z</time></trkpt><trkpt lat="44.21289844219333" lon="10.725079349178786"><ele>1525.0</ele><time>2026-05-02T12:00:42.999Z</time></trkpt><trkpt lat="44.2130040133524" lon="10.725003887028558"><ele>1524.75</ele><time>2026-05-02T12:00:43.999Z</time></trkpt><trkpt lat="44.213113740568986" lon="10.724934755592885"><ele>1524.5</ele><time>2026-05-02T12:00:44.999Z</time></trkpt><trkpt lat="44.21322587649568" lon="10.724866000242924"><ele>1524.25</ele><time>2026-05-02T12:00:45.999Z</time></trkpt><trkpt lat="44.213338733110184" lon="10.724801010695595"><ele>1524.0</ele><time>2026-05-02T12:00:46.998Z</time></trkpt><trkpt lat="44.21345931632265" lon="10.72475553162952"><ele>1526.25</ele><time>2026-05-02T12:00:47.998Z</time></trkpt><trkpt lat="44.21358053515649" lon="10.724717133438775"><ele>1528.5</ele><time>2026-05-02T12:00:48.998Z</time></trkpt><trkpt lat="44.21370421721714" lon="10.724670258788423"><ele>1530.75</ele><time>2026-05-02T12:00:49.998Z</time></trkpt><trkpt lat="44.21382404700723" lon="10.724606497427642"><ele>1533.0</ele><time>2026-05-02T12:00:50.998Z</time></trkpt><trkpt lat="44.213915506479545" lon="10.724477378940215"><ele>1534.6000000000001</ele><time>2026-05-02T12:00:51.998Z</time></trkpt><trkpt lat="44.21400327664784" lon="10.724367848835712"><ele>1536.2</ele><time>2026-05-02T12:00:52.998Z</time></trkpt><trkpt lat="44.21410692809867" lon="10.724284222254822"><ele>1537.8</ele><time>2026-05-02T12:00:53.998Z</time></trkpt><trkpt lat="44.21419101179819" lon="10.724211743264872"><ele>1539.4</ele><time>2026-05-02T12:00:54.998Z</time></trkpt><trkpt lat="44.21426649303729" lon="10.724150800851385"><ele>1541.0</ele><time>2026-05-02T12:00:55.998Z</time></trkpt><trkpt lat="44.214347935421735" lon="10.724125545746094"><ele>1541.0</ele><time>2026-05-02T12:00:56.998Z</time></trkpt><trkpt lat="44.21444005191107" lon="10.724135102701084"><ele>1541.0</ele><time>2026-05-02T12:00:57.998Z</time></trkpt><trkpt lat="44.21452530869319" lon="10.724194966141752"><ele>1541.0</ele><time>2026-05-02T12:00:58.998Z</time></trkpt><trkpt lat="44.214633927394274" lon="10.724262001025965"><ele>1541.0</ele><time>2026-05-02T12:00:59.998Z</time></trkpt><trkpt lat="44.214750148722906" lon="10.724324966041946"><ele>1541.0</ele><time>2026-05-02T12:01:00.998Z</time></trkpt><trkpt lat="44.21488397197925" lon="10.724376342172125"><ele>1542.25</ele><time>2026-05-02T12:01:01.998Z</time></trkpt><trkpt lat="44.21502650311759" lon="10.724383273041752"><ele>1543.5</ele><time>2026-05-02T12:01:02.998Z</time></trkpt><trkpt lat="44.215166849672954" lon="10.724413183504506"><ele>1544.75</ele><time>2026-05-02T12:01:03.998Z</time></trkpt><trkpt lat="44.21532420312866" lon="10.724468448260698"><ele>1546.0</ele><time>2026-05-02T12:01:04.998Z</time></trkpt><trkpt lat="44.21545300063327" lon="10.72452077269644"><ele>1543.0</ele><time>2026-05-02T12:01:05.998Z</time></trkpt><trkpt lat="44.215570943417625" lon="10.724562572139734"><ele>1540.0</ele><time>2026-05-02T12:01:06.998Z</time></trkpt><trkpt lat="44.215686424399294" lon="10.72457574692033"><ele>1537.0</ele><time>2026-05-02T12:01:07.998Z</time></trkpt><trkpt lat="44.215805582993724" lon="10.724533883701332"><ele>1534.0</ele><time>2026-05-02T12:01:08.998Z</time></trkpt><trkpt lat="44.21591180045509" lon="10.724457813804573"><ele>1537.5</ele><time>2026-05-02T12:01:09.998Z</time></trkpt><trkpt lat="44.216012832880565" lon="10.724368827930025"><ele>1541.0</ele><time>2026-05-02T12:01:10.998Z</time></trkpt><trkpt lat="44.21611369969488" lon="10.724262473358504"><ele>1544.5</ele><time>2026-05-02T12:01:11.998Z</time></trkpt><trkpt lat="44.21621410882557" lon="10.724134720868086"><ele>1548.0</ele><time>2026-05-02T12:01:12.998Z</time></trkpt><trkpt lat="44.21629948331492" lon="10.723985734029311"><ele>1548.0</ele><time>2026-05-02T12:01:13.998Z</time></trkpt><trkpt lat="44.21639902443853" lon="10.723860408767372"><ele>1548.0</ele><time>2026-05-02T12:01:14.998Z</time></trkpt><trkpt lat="44.21651349597292" lon="10.723753286071364"><ele>1548.0</ele><time>2026-05-02T12:01:15.998Z</time></trkpt><trkpt lat="44.216635229255814" lon="10.723654262381325"><ele>1548.0</ele><time>2026-05-02T12:01:16.998Z</time></trkpt><trkpt lat="44.21674651349085" lon="10.723559510130897"><ele>1546.2</ele><time>2026-05-02T12:01:17.998Z</time></trkpt><trkpt lat="44.21684569296278" lon="10.723473082011209"><ele>1544.4</ele><time>2026-05-02T12:01:18.998Z</time></trkpt><trkpt lat="44.21692850966495" lon="10.72338885765147"><ele>1542.6000000000001</ele><time>2026-05-02T12:01:19.998Z</time></trkpt><trkpt lat="44.21698747132476" lon="10.723243754957348"><ele>1540.8000000000002</ele><time>2026-05-02T12:01:20.998Z</time></trkpt><trkpt lat="44.21707119282927" lon="10.72318809225055"><ele>1539.0</ele><time>2026-05-02T12:01:21.998Z</time></trkpt><trkpt lat="44.217177869914124" lon="10.723195652009586"><ele>1539.0</ele><time>2026-05-02T12:01:22.998Z</time></trkpt><trkpt lat="44.21726059274935" lon="10.723147659520798"><ele>1539.0</ele><time>2026-05-02T12:01:23.998Z</time></trkpt><trkpt lat="44.21734275031231" lon="10.723116090495115"><ele>1539.0</ele><time>2026-05-02T12:01:24.998Z</time></trkpt><trkpt lat="44.21742504337645" lon="10.723101264708276"><ele>1539.0</ele><time>2026-05-02T12:01:25.998Z</time></trkpt><trkpt lat="44.21750605117259" lon="10.723099982511572"><ele>1539.0</ele><time>2026-05-02T12:01:26.998Z</time></trkpt><trkpt lat="44.217589882476396" lon="10.723105281990678"><ele>1539.0</ele><time>2026-05-02T12:01:27.999Z</time></trkpt><trkpt lat="44.21768066274506" lon="10.723118635820587"><ele>1536.8000000000002</ele><time>2026-05-02T12:01:28.999Z</time></trkpt><trkpt lat="44.21777696670049" lon="10.7231443228399"><ele>1534.6000000000001</ele><time>2026-05-02T12:01:29.999Z</time></trkpt><trkpt lat="44.21787872751853" lon="10.723192015999503"><ele>1532.4</ele><time>2026-05-02T12:01:30.999Z</time></trkpt><trkpt lat="44.2179818369742" lon="10.723264892428567"><ele>1530.2</ele><time>2026-05-02T12:01:31.999Z</time></trkpt><trkpt lat="44.21808765599682" lon="10.723356451142708"><ele>1528.0</ele><time>2026-05-02T12:01:32.999Z</time></trkpt><trkpt lat="44.21819569605944" lon="10.723458561750858"><ele>1525.5</ele><time>2026-05-02T12:01:33.999Z</time></trkpt><trkpt lat="44.21830498145211" lon="10.723572165006432"><ele>1523.0</ele><time>2026-05-02T12:01:34.999Z</time></trkpt><trkpt lat="44.2184192393175" lon="10.72368658278644"><ele>1520.5</ele><time>2026-05-02T12:01:35.999Z</time></trkpt><trkpt lat="44.21852900976666" lon="10.723812128680486"><ele>1518.0</ele><time>2026-05-02T12:01:36.999Z</time></trkpt><trkpt lat="44.21863592050713" lon="10.723944376013602"><ele>1518.0</ele><time>2026-05-02T12:01:37.999Z</time></trkpt><trkpt lat="44.21874173099425" lon="10.724081836421592"><ele>1518.0</ele><time>2026-05-02T12:01:38.999Z</time></trkpt><trkpt lat="44.218840279100355" lon="10.724224147892395"><ele>1518.0</ele><time>2026-05-02T12:01:39.999Z</time></trkpt><trkpt lat="44.218934590859874" lon="10.724368854879781"><ele>1518.0</ele><time>2026-05-02T12:01:40.999Z</time></trkpt><trkpt lat="44.219027017497794" lon="10.724519553871934"><ele>1520.0</ele><time>2026-05-02T12:01:41.999Z</time></trkpt><trkpt lat="44.219108801395514" lon="10.724666604303739"><ele>1522.0</ele><time>2026-05-02T12:01:42.999Z</time></trkpt><trkpt lat="44.21917766065171" lon="10.724811943976793"><ele>1524.0</ele><time>2026-05-02T12:01:43.999Z</time></trkpt><trkpt lat="44.21923349160396" lon="10.724952287901923"><ele>1526.0</ele><time>2026-05-02T12:01:44.999Z</time></trkpt><trkpt lat="44.21927878688133" lon="10.72509257912386"><ele>1524.25</ele><time>2026-05-02T12:01:45.999Z</time></trkpt><trkpt lat="44.21931533894647" lon="10.72523690156381"><ele>1522.5</ele><time>2026-05-02T12:01:46.999Z</time></trkpt><trkpt lat="44.219329037802694" lon="10.725395257503292"><ele>1520.75</ele><time>2026-05-02T12:01:47.999Z</time></trkpt><trkpt lat="44.219344674082755" lon="10.72555526274331"><ele>1519.0</ele><time>2026-05-02T12:01:48.999Z</time></trkpt><trkpt lat="44.21933896257316" lon="10.725719800060162"><ele>1519.0</ele><time>2026-05-02T12:01:49.999Z</time></trkpt><trkpt lat="44.21931829717664" lon="10.725890648328196"><ele>1519.0</ele><time>2026-05-02T12:01:50.999Z</time></trkpt><trkpt lat="44.21930634942923" lon="10.726063654809524"><ele>1519.0</ele><time>2026-05-02T12:01:51.999Z</time></trkpt><trkpt lat="44.219278261326174" lon="10.726238013885302"><ele>1519.0</ele><time>2026-05-02T12:01:52.999Z</time></trkpt><trkpt lat="44.2192648782401" lon="10.726414229067714"><ele>1518.25</ele><time>2026-05-02T12:01:53.999Z</time></trkpt><trkpt lat="44.21926905113527" lon="10.726599430206708"><ele>1517.5</ele><time>2026-05-02T12:01:54.999Z</time></trkpt><trkpt lat="44.219285200042414" lon="10.726791340243407"><ele>1516.75</ele><time>2026-05-02T12:01:55.999Z</time></trkpt><trkpt lat="44.219300263604" lon="10.727007763543508"><ele>1516.0</ele><time>2026-05-02T12:01:56.999Z</time></trkpt><trkpt lat="44.21931507548144" lon="10.727231084921538"><ele>1513.3333333333333</ele><time>2026-05-02T12:01:57.999Z</time></trkpt><trkpt lat="44.219329695548595" lon="10.727464896074228"><ele>1510.6666666666667</ele><time>2026-05-02T12:01:58.999Z</time></trkpt><trkpt lat="44.21933981389153" lon="10.727705212784166"><ele>1508.0</ele><time>2026-05-02T12:01:59.999Z</time></trkpt><trkpt lat="44.2193679556234" lon="10.727954894414097"><ele>1505.0</ele><time>2026-05-02T12:02:00.999Z</time></trkpt><trkpt lat="44.219392914780826" lon="10.72819436662954"><ele>1502.0</ele><time>2026-05-02T12:02:01.999Z</time></trkpt><trkpt lat="44.21942573119046" lon="10.728427274189404"><ele>1499.0</ele><time>2026-05-02T12:02:02.999Z</time></trkpt><trkpt lat="44.219461918580635" lon="10.728660013944324"><ele>1497.0</ele><time>2026-05-02T12:02:03.999Z</time></trkpt><trkpt lat="44.21950219005275" lon="10.728887300924956"><ele>1495.0</ele><time>2026-05-02T12:02:04.999Z</time></trkpt><trkpt lat="44.21954367086081" lon="10.729110366160324"><ele>1493.0</ele><time>2026-05-02T12:02:05.999Z</time></trkpt><trkpt lat="44.21958218856307" lon="10.729331547492935"><ele>1491.0</ele><time>2026-05-02T12:02:06.999Z</time></trkpt><trkpt lat="44.21961533376931" lon="10.729552533346055"><ele>1489.0</ele><time>2026-05-02T12:02:07.999Z</time></trkpt><trkpt lat="44.21963817815467" lon="10.729777650621347"><ele>1487.0</ele><time>2026-05-02T12:02:08.999Z</time></trkpt><trkpt lat="44.21964733153312" lon="10.730003750653795"><ele>1487.0</ele><time>2026-05-02T12:02:09.999Z</time></trkpt><trkpt lat="44.219647723969636" lon="10.730229332135481"><ele>1487.0</ele><time>2026-05-02T12:02:10.999Z</time></trkpt><trkpt lat="44.219635861580414" lon="10.730453836595554"><ele>1487.0</ele><time>2026-05-02T12:02:11.999Z</time></trkpt><trkpt lat="44.21962657440641" lon="10.730674238509742"><ele>1487.0</ele><time>2026-05-02T12:02:12.999Z</time></trkpt><trkpt lat="44.21963133550889" lon="10.73088964577326"><ele>1487.0</ele><time>2026-05-02T12:02:13.999Z</time></trkpt><trkpt lat="44.219647075174095" lon="10.731096004502742"><ele>1487.0</ele><time>2026-05-02T12:02:14.999Z</time></trkpt><trkpt lat="44.219653644952196" lon="10.731303224258841"><ele>1487.75</ele><time>2026-05-02T12:02:15.999Z</time></trkpt><trkpt lat="44.21965071363254" lon="10.73151110232037"><ele>1488.5</ele><time>2026-05-02T12:02:16.999Z</time></trkpt><trkpt lat="44.219634084490494" lon="10.731718313564752"><ele>1489.25</ele><time>2026-05-02T12:02:17.999Z</time></trkpt><trkpt lat="44.2196074212318" lon="10.731924549881192"><ele>1490.0</ele><time>2026-05-02T12:02:18.999Z</time></trkpt><trkpt lat="44.219575093156514" lon="10.732135959295146"><ele>1490.6666666666667</ele><time>2026-05-02T12:02:19.999Z</time></trkpt><trkpt lat="44.21954048739652" lon="10.732354869333763"><ele>1491.3333333333333</ele><time>2026-05-02T12:02:20.999Z</time></trkpt><trkpt lat="44.219500639532065" lon="10.732578205066924"><ele>1492.0</ele><time>2026-05-02T12:02:21.999Z</time></trkpt><trkpt lat="44.21945205297188" lon="10.732798241146222"><ele>1493.3333333333333</ele><time>2026-05-02T12:02:22.999Z</time></trkpt><trkpt lat="44.219389367142796" lon="10.733007678660165"><ele>1494.6666666666667</ele><time>2026-05-02T12:02:23.999Z</time></trkpt><trkpt lat="44.21931257209536" lon="10.733204836736713"><ele>1496.0</ele><time>2026-05-02T12:02:24.999Z</time></trkpt><trkpt lat="44.219233961783935" lon="10.733393203320102"><ele>1495.6666666666667</ele><time>2026-05-02T12:02:25.999Z</time></trkpt><trkpt lat="44.21916610916395" lon="10.733587140850423"><ele>1495.3333333333333</ele><time>2026-05-02T12:02:26.999Z</time></trkpt><trkpt lat="44.21911613566182" lon="10.733788612020085"><ele>1495.0</ele><time>2026-05-02T12:02:27.999Z</time></trkpt><trkpt lat="44.21908136491484" lon="10.733993894214118"><ele>1495.0</ele><time>2026-05-02T12:02:28.999Z</time></trkpt><trkpt lat="44.21906521250005" lon="10.734199343604423"><ele>1495.0</ele><time>2026-05-02T12:02:29.999Z</time></trkpt><trkpt lat="44.219057097303356" lon="10.734404777855685"><ele>1495.0</ele><time>2026-05-02T12:02:30.999Z</time></trkpt><trkpt lat="44.219048469271414" lon="10.734608146564147"><ele>1495.0</ele><time>2026-05-02T12:02:31.999Z</time></trkpt><trkpt lat="44.21903353079156" lon="10.734798099779397"><ele>1491.0</ele><time>2026-05-02T12:02:32.999Z</time></trkpt><trkpt lat="44.219016116468474" lon="10.73497181481298"><ele>1487.0</ele><time>2026-05-02T12:02:33.999Z</time></trkpt><trkpt lat="44.21899145555641" lon="10.735142703703309"><ele>1483.0</ele><time>2026-05-02T12:02:34.999Z</time></trkpt><trkpt lat="44.21896750306647" lon="10.735308424153061"><ele>1479.0</ele><time>2026-05-02T12:02:35.999Z</time></trkpt><trkpt lat="44.21894333603667" lon="10.735470232958138"><ele>1475.0</ele><time>2026-05-02T12:02:37Z</time></trkpt><trkpt lat="44.218919234614546" lon="10.735632324817514"><ele>1471.0</ele><time>2026-05-02T12:02:38Z</time></trkpt><trkpt lat="44.218899277436336" lon="10.735799837037787"><ele>1467.0</ele><time>2026-05-02T12:02:39Z</time></trkpt><trkpt lat="44.21888121816931" lon="10.735974095292484"><ele>1463.0</ele><time>2026-05-02T12:02:40Z</time></trkpt><trkpt lat="44.21886719910749" lon="10.73614805146921"><ele>1463.0</ele><time>2026-05-02T12:02:41Z</time></trkpt><trkpt lat="44.21886537139054" lon="10.736323755879559"><ele>1463.0</ele><time>2026-05-02T12:02:42Z</time></trkpt><trkpt lat="44.218888029367434" lon="10.736502508222332"><ele>1463.0</ele><time>2026-05-02T12:02:43Z</time></trkpt><trkpt lat="44.21893497200848" lon="10.736675589719665"><ele>1463.0</ele><time>2026-05-02T12:02:44Z</time></trkpt><trkpt lat="44.21898928651054" lon="10.736847966574112"><ele>1464.25</ele><time>2026-05-02T12:02:45Z</time></trkpt><trkpt lat="44.2190411590399" lon="10.737025228757757"><ele>1465.5</ele><time>2026-05-02T12:02:46Z</time></trkpt><trkpt lat="44.219094581932985" lon="10.737202123793793"><ele>1466.75</ele><time>2026-05-02T12:02:47Z</time></trkpt><trkpt lat="44.21914784864452" lon="10.73735932858889"><ele>1468.0</ele><time>2026-05-02T12:02:48Z</time></trkpt><trkpt lat="44.21918994559148" lon="10.73750631992978"><ele>1468.0</ele><time>2026-05-02T12:02:49Z</time></trkpt><trkpt lat="44.21921634755485" lon="10.737644386073889"><ele>1468.0</ele><time>2026-05-02T12:02:50Z</time></trkpt><trkpt lat="44.21920732267752" lon="10.737775911123839"><ele>1468.0</ele><time>2026-05-02T12:02:51Z</time></trkpt><trkpt lat="44.2191767380208" lon="10.737910311924793"><ele>1468.0</ele><time>2026-05-02T12:02:52Z</time></trkpt><trkpt lat="44.219133953094406" lon="10.738046334634053"><ele>1468.0</ele><time>2026-05-02T12:02:53Z</time></trkpt><trkpt lat="44.219078172263906" lon="10.73819233439146"><ele>1468.0</ele><time>2026-05-02T12:02:53.999Z</time></trkpt><trkpt lat="44.21901578727042" lon="10.738344677552004"><ele>1468.0</ele><time>2026-05-02T12:02:54.999Z</time></trkpt><trkpt lat="44.21895233316372" lon="10.738509412159077"><ele>1468.0</ele><time>2026-05-02T12:02:55.999Z</time></trkpt><trkpt lat="44.21890192922803" lon="10.738680626856285"><ele>1468.0</ele><time>2026-05-02T12:02:56.999Z</time></trkpt><trkpt lat="44.21887045773721" lon="10.738847970953742"><ele>1475.0</ele><time>2026-05-02T12:02:57.999Z</time></trkpt><trkpt lat="44.21884775045066" lon="10.739017946949756"><ele>1482.0</ele><time>2026-05-02T12:02:58.999Z</time></trkpt><trkpt lat="44.21883861397941" lon="10.739197775514382"><ele>1489.0</ele><time>2026-05-02T12:02:59.999Z</time></trkpt><trkpt lat="44.218837791155906" lon="10.739386472719602"><ele>1496.0</ele><time>2026-05-02T12:03:00.999Z</time></trkpt><trkpt lat="44.21884192388456" lon="10.739576085798468"><ele>1497.0</ele><time>2026-05-02T12:03:01.999Z</time></trkpt><trkpt lat="44.21885975035058" lon="10.739761113997826"><ele>1498.0</ele><time>2026-05-02T12:03:02.999Z</time></trkpt><trkpt lat="44.218871897266354" lon="10.739937560227432"><ele>1499.0</ele><time>2026-05-02T12:03:03.999Z</time></trkpt><trkpt lat="44.218871395103235" lon="10.74011616869529"><ele>1500.0</ele><time>2026-05-02T12:03:04.999Z</time></trkpt><trkpt lat="44.2188560784539" lon="10.740291171257866"><ele>1500.5</ele><time>2026-05-02T12:03:05.999Z</time></trkpt><trkpt lat="44.218830134828764" lon="10.740460710719066"><ele>1501.0</ele><time>2026-05-02T12:03:06.999Z</time></trkpt><trkpt lat="44.21881662680374" lon="10.740617784061257"><ele>1501.5</ele><time>2026-05-02T12:03:07.999Z</time></trkpt><trkpt lat="44.2188238486148" lon="10.740784766690014"><ele>1502.0</ele><time>2026-05-02T12:03:08.999Z</time></trkpt><trkpt lat="44.21885844482762" lon="10.740944061840104"><ele>1500.25</ele><time>2026-05-02T12:03:09.999Z</time></trkpt><trkpt lat="44.21889859920431" lon="10.7411348296286"><ele>1498.5</ele><time>2026-05-02T12:03:10.999Z</time></trkpt><trkpt lat="44.21894398182493" lon="10.741311303402616"><ele>1496.75</ele><time>2026-05-02T12:03:11.999Z</time></trkpt><trkpt lat="44.21897851279606" lon="10.741460967628738"><ele>1495.0</ele><time>2026-05-02T12:03:12.999Z</time></trkpt><trkpt lat="44.21899431359065" lon="10.741605984274143"><ele>1493.0</ele><time>2026-05-02T12:03:13.999Z</time></trkpt><trkpt lat="44.21898433110523" lon="10.741765046398008"><ele>1491.0</ele><time>2026-05-02T12:03:14.999Z</time></trkpt><trkpt lat="44.21894848283632" lon="10.741930242742578"><ele>1489.0</ele><time>2026-05-02T12:03:15.999Z</time></trkpt><trkpt lat="44.21889720870977" lon="10.74209285718396"><ele>1487.0</ele><time>2026-05-02T12:03:16.999Z</time></trkpt><trkpt lat="44.21886019406568" lon="10.742258192409441"><ele>1487.0</ele><time>2026-05-02T12:03:17.999Z</time></trkpt><trkpt lat="44.21883951666515" lon="10.742415982587692"><ele>1487.0</ele><time>2026-05-02T12:03:18.999Z</time></trkpt><trkpt lat="44.21884470339026" lon="10.742580568934718"><ele>1487.0</ele><time>2026-05-02T12:03:19.999Z</time></trkpt><trkpt lat="44.21886745081457" lon="10.742731184339682"><ele>1487.0</ele><time>2026-05-02T12:03:20.999Z</time></trkpt><trkpt lat="44.2189024437322" lon="10.742872684137254"><ele>1487.3999999999999</ele><time>2026-05-02T12:03:21.999Z</time></trkpt><trkpt lat="44.2189310768083" lon="10.743011585382874"><ele>1487.8</ele><time>2026-05-02T12:03:22.999Z</time></trkpt><trkpt lat="44.218950325568784" lon="10.743156034559068"><ele>1488.2</ele><time>2026-05-02T12:03:23.999Z</time></trkpt><trkpt lat="44.21894561265268" lon="10.743308432130318"><ele>1488.6</ele><time>2026-05-02T12:03:24.999Z</time></trkpt><trkpt lat="44.21892768706354" lon="10.743473691147726"><ele>1489.0</ele><time>2026-05-02T12:03:25.999Z</time></trkpt><trkpt lat="44.21889762021434" lon="10.74365381303926"><ele>1489.25</ele><time>2026-05-02T12:03:26.999Z</time></trkpt><trkpt lat="44.21888548164114" lon="10.743824359502856"><ele>1489.5</ele><time>2026-05-02T12:03:27.999Z</time></trkpt><trkpt lat="44.218890681106465" lon="10.7439939250549"><ele>1489.75</ele><time>2026-05-02T12:03:28.999Z</time></trkpt><trkpt lat="44.21891346701437" lon="10.744172723725933"><ele>1490.0</ele><time>2026-05-02T12:03:29.999Z</time></trkpt><trkpt lat="44.218953166864424" lon="10.744359422239713"><ele>1479.3333333333335</ele><time>2026-05-02T12:03:30.999Z</time></trkpt><trkpt lat="44.21901552879504" lon="10.744559088701708"><ele>1468.6666666666667</ele><time>2026-05-02T12:03:31.999Z</time></trkpt><trkpt lat="44.219094161078495" lon="10.744747249468388"><ele>1458.0</ele><time>2026-05-02T12:03:32.999Z</time></trkpt><trkpt lat="44.219173147323204" lon="10.744912887100568"><ele>1458.0</ele><time>2026-05-02T12:03:34Z</time></trkpt><trkpt lat="44.21924102063676" lon="10.745073162169646"><ele>1458.0</ele><time>2026-05-02T12:03:35.001Z</time></trkpt><trkpt lat="44.219282672759775" lon="10.745220281205551"><ele>1458.0</ele><time>2026-05-02T12:03:36Z</time></trkpt><trkpt lat="44.21930013296627" lon="10.745358530581552"><ele>1458.0</ele><time>2026-05-02T12:03:37Z</time></trkpt><trkpt lat="44.21927693226494" lon="10.745478133267794"><ele>1458.0</ele><time>2026-05-02T12:03:38Z</time></trkpt><trkpt lat="44.21923385800903" lon="10.745599811691672"><ele>1457.5</ele><time>2026-05-02T12:03:39Z</time></trkpt><trkpt lat="44.21915548663407" lon="10.745732176226449"><ele>1457.0</ele><time>2026-05-02T12:03:40Z</time></trkpt><trkpt lat="44.219060442220986" lon="10.74588590656652"><ele>1456.5</ele><time>2026-05-02T12:03:41Z</time></trkpt><trkpt lat="44.2189955449476" lon="10.746077361881552"><ele>1456.0</ele><time>2026-05-02T12:03:42Z</time></trkpt><trkpt lat="44.21896016486145" lon="10.746291164733998"><ele>1462.5</ele><time>2026-05-02T12:03:43Z</time></trkpt><trkpt lat="44.21892721233334" lon="10.746476200433078"><ele>1469.0</ele><time>2026-05-02T12:03:44Z</time></trkpt><trkpt lat="44.218878154982036" lon="10.746646645319554"><ele>1475.5</ele><time>2026-05-02T12:03:45Z</time></trkpt><trkpt lat="44.2188150502395" lon="10.746781326731938"><ele>1482.0</ele><time>2026-05-02T12:03:46Z</time></trkpt><trkpt lat="44.21876581639153" lon="10.746935751242946"><ele>1482.0</ele><time>2026-05-02T12:03:47Z</time></trkpt><trkpt lat="44.21874829139591" lon="10.747094715335223"><ele>1482.0</ele><time>2026-05-02T12:03:48Z</time></trkpt><trkpt lat="44.218726254072855" lon="10.747270539841912"><ele>1482.0</ele><time>2026-05-02T12:03:49Z</time></trkpt><trkpt lat="44.218740492159434" lon="10.747447964083044"><ele>1482.0</ele><time>2026-05-02T12:03:50Z</time></trkpt><trkpt lat="44.2187780035198" lon="10.747624555288938"><ele>1482.5</ele><time>2026-05-02T12:03:51Z</time></trkpt><trkpt lat="44.218807961546446" lon="10.747797375292524"><ele>1483.0</ele><time>2026-05-02T12:03:52Z</time></trkpt><trkpt lat="44.218825517089044" lon="10.747981508445832"><ele>1483.5</ele><time>2026-05-02T12:03:53Z</time></trkpt><trkpt lat="44.21878221271582" lon="10.748143616252202"><ele>1484.0</ele><time>2026-05-02T12:03:54Z</time></trkpt><trkpt lat="44.218769349973485" lon="10.748314544976331"><ele>1484.0</ele><time>2026-05-02T12:03:55Z</time></trkpt><trkpt lat="44.21875284200744" lon="10.74847675494708"><ele>1484.0</ele><time>2026-05-02T12:03:56Z</time></trkpt><trkpt lat="44.21876333615738" lon="10.748615004648252"><ele>1484.0</ele><time>2026-05-02T12:03:57Z</time></trkpt><trkpt lat="44.21880538187591" lon="10.748732263445826"><ele>1484.0</ele><time>2026-05-02T12:03:58Z</time></trkpt><trkpt lat="44.218841637536514" lon="10.748855532925512"><ele>1484.0</ele><time>2026-05-02T12:03:59Z</time></trkpt><trkpt lat="44.21888311375431" lon="10.748985419080837"><ele>1485.5</ele><time>2026-05-02T12:04:00Z</time></trkpt><trkpt lat="44.21895874764929" lon="10.749113225752081"><ele>1487.0</ele><time>2026-05-02T12:04:01Z</time></trkpt><trkpt lat="44.21904882555801" lon="10.749252233932344"><ele>1488.5</ele><time>2026-05-02T12:04:02Z</time></trkpt><trkpt lat="44.21916020961736" lon="10.749420480394367"><ele>1490.0</ele><time>2026-05-02T12:04:03Z</time></trkpt><trkpt lat="44.21928754440116" lon="10.749612982889383"><ele>1479.3333333333335</ele><time>2026-05-02T12:04:04Z</time></trkpt><trkpt lat="44.21940539577847" lon="10.749804603476733"><ele>1468.6666666666667</ele><time>2026-05-02T12:04:05Z</time></trkpt><trkpt lat="44.21955131362288" lon="10.749951993110521"><ele>1458.0</ele><time>2026-05-02T12:04:06Z</time></trkpt><trkpt lat="44.21968904256378" lon="10.750086731168329"><ele>1458.3333333333333</ele><time>2026-05-02T12:04:07Z</time></trkpt><trkpt lat="44.219829668099315" lon="10.750193173156813"><ele>1458.6666666666665</ele><time>2026-05-02T12:04:08Z</time></trkpt><trkpt lat="44.21996886470854" lon="10.750288912958686"><ele>1459.0</ele><time>2026-05-02T12:04:09Z</time></trkpt><trkpt lat="44.22008450162358" lon="10.750395932224547"><ele>1459.0</ele><time>2026-05-02T12:04:10Z</time></trkpt><trkpt lat="44.220195046882964" lon="10.750534297309205"><ele>1459.0</ele><time>2026-05-02T12:04:11Z</time></trkpt><trkpt lat="44.220297307527446" lon="10.750693815390902"><ele>1459.0</ele><time>2026-05-02T12:04:12Z</time></trkpt><trkpt lat="44.220409574757" lon="10.75085955309272"><ele>1459.0</ele><time>2026-05-02T12:04:13Z</time></trkpt><trkpt lat="44.22053678258508" lon="10.751009326585638"><ele>1459.0</ele><time>2026-05-02T12:04:14Z</time></trkpt><trkpt lat="44.22067860194433" lon="10.751151662677074"><ele>1459.0</ele><time>2026-05-02T12:04:15Z</time></trkpt><trkpt lat="44.220828889883414" lon="10.75129206415836"><ele>1456.6666666666665</ele><time>2026-05-02T12:04:16Z</time></trkpt><trkpt lat="44.22097301376693" lon="10.75143550035679"><ele>1454.3333333333333</ele><time>2026-05-02T12:04:17Z</time></trkpt><trkpt lat="44.22110295750043" lon="10.751573163995646"><ele>1452.0</ele><time>2026-05-02T12:04:18Z</time></trkpt><trkpt lat="44.22122697196077" lon="10.75170286315697"><ele>1452.0</ele><time>2026-05-02T12:04:19Z</time></trkpt><trkpt lat="44.221352169429835" lon="10.75182488866615"><ele>1452.0</ele><time>2026-05-02T12:04:20Z</time></trkpt><trkpt lat="44.2214631059667" lon="10.75194031274433"><ele>1452.0</ele><time>2026-05-02T12:04:21Z</time></trkpt><trkpt lat="44.22156438668372" lon="10.75206702747781"><ele>1452.0</ele><time>2026-05-02T12:04:22Z</time></trkpt><trkpt lat="44.22165435527222" lon="10.75220136162141"><ele>1448.0</ele><time>2026-05-02T12:04:23Z</time></trkpt><trkpt lat="44.221736100062394" lon="10.752361496561889"><ele>1444.0</ele><time>2026-05-02T12:04:24Z</time></trkpt><trkpt lat="44.221807851057186" lon="10.752550590973058"><ele>1440.0</ele><time>2026-05-02T12:04:25Z</time></trkpt><trkpt lat="44.221870142924786" lon="10.752751627738446"><ele>1439.5</ele><time>2026-05-02T12:04:26Z</time></trkpt><trkpt lat="44.221934109572324" lon="10.752954488897547"><ele>1439.0</ele><time>2026-05-02T12:04:27Z</time></trkpt><trkpt lat="44.22198325408331" lon="10.75311733069798"><ele>1438.5</ele><time>2026-05-02T12:04:28Z</time></trkpt><trkpt lat="44.22202481838433" lon="10.753252048812088"><ele>1438.0</ele><time>2026-05-02T12:04:29Z</time></trkpt><trkpt lat="44.22205159929665" lon="10.75336397728722"><ele>1438.0</ele><time>2026-05-02T12:04:30Z</time></trkpt><trkpt lat="44.22205098899887" lon="10.753469839773715"><ele>1438.0</ele><time>2026-05-02T12:04:31Z</time></trkpt><trkpt lat="44.2220184643639" lon="10.753566118861622"><ele>1438.0</ele><time>2026-05-02T12:04:32Z</time></trkpt><trkpt lat="44.22196464930297" lon="10.753634775369665"><ele>1438.0</ele><time>2026-05-02T12:04:33Z</time></trkpt><trkpt lat="44.22188940244475" lon="10.753658322057511"><ele>1438.0</ele><time>2026-05-02T12:04:34Z</time></trkpt><trkpt lat="44.22179713020649" lon="10.753662161417699"><ele>1438.0</ele><time>2026-05-02T12:04:35Z</time></trkpt><trkpt lat="44.22169225372397" lon="10.753659350137914"><ele>1437.5</ele><time>2026-05-02T12:04:36Z</time></trkpt><trkpt lat="44.221567572583204" lon="10.753664579634412"><ele>1437.0</ele><time>2026-05-02T12:04:37Z</time></trkpt><trkpt lat="44.221432949253774" lon="10.753683034122396"><ele>1436.5</ele><time>2026-05-02T12:04:38Z</time></trkpt><trkpt lat="44.22130467956352" lon="10.75372063134964"><ele>1436.0</ele><time>2026-05-02T12:04:39Z</time></trkpt><trkpt lat="44.221189221971855" lon="10.753785650423943"><ele>1436.0</ele><time>2026-05-02T12:04:40Z</time></trkpt><trkpt lat="44.22108496522325" lon="10.75387149713839"><ele>1436.0</ele><time>2026-05-02T12:04:41Z</time></trkpt><trkpt lat="44.220994153665316" lon="10.75397735667224"><ele>1436.0</ele><time>2026-05-02T12:04:41.999Z</time></trkpt><trkpt lat="44.22091029589193" lon="10.754108498619837"><ele>1436.0</ele><time>2026-05-02T12:04:42.999Z</time></trkpt><trkpt lat="44.220830758794484" lon="10.75426236089812"><ele>1434.75</ele><time>2026-05-02T12:04:43.999Z</time></trkpt><trkpt lat="44.22075862338195" lon="10.754441266591316"><ele>1433.5</ele><time>2026-05-02T12:04:44.999Z</time></trkpt><trkpt lat="44.22069770046127" lon="10.754628338671889"><ele>1432.25</ele><time>2026-05-02T12:04:45.999Z</time></trkpt><trkpt lat="44.220651368565846" lon="10.75480338344023"><ele>1431.0</ele><time>2026-05-02T12:04:46.999Z</time></trkpt><trkpt lat="44.220619188283074" lon="10.75494460686609"><ele>1431.0</ele><time>2026-05-02T12:04:47.999Z</time></trkpt><trkpt lat="44.22059077801257" lon="10.755072811990185"><ele>1431.0</ele><time>2026-05-02T12:04:48.999Z</time></trkpt><trkpt lat="44.22055585526309" lon="10.755177320501868"><ele>1431.0</ele><time>2026-05-02T12:04:49.999Z</time></trkpt><trkpt lat="44.22050231533014" lon="10.755254859430709"><ele>1431.0</ele><time>2026-05-02T12:04:50.999Z</time></trkpt><trkpt lat="44.22042802641866" lon="10.755298109647846"><ele>1431.0</ele><time>2026-05-02T12:04:51.999Z</time></trkpt><trkpt lat="44.220338685206514" lon="10.755277395886838"><ele>1431.0</ele><time>2026-05-02T12:04:52.999Z</time></trkpt><trkpt lat="44.220226988791154" lon="10.75528059760579"><ele>1435.0</ele><time>2026-05-02T12:04:53.999Z</time></trkpt><trkpt lat="44.220085944764854" lon="10.755241879884187"><ele>1439.0</ele><time>2026-05-02T12:04:54.999Z</time></trkpt><trkpt lat="44.21992683010463" lon="10.755216915372877"><ele>1443.0</ele><time>2026-05-02T12:04:55.999Z</time></trkpt><trkpt lat="44.21979448079488" lon="10.75519921530249"><ele>1447.0</ele><time>2026-05-02T12:04:56.999Z</time></trkpt><trkpt lat="44.21969201770343" lon="10.755194450176251"><ele>1440.8</ele><time>2026-05-02T12:04:57.999Z</time></trkpt><trkpt lat="44.21960132185453" lon="10.755220993513788"><ele>1434.6</ele><time>2026-05-02T12:04:58.999Z</time></trkpt><trkpt lat="44.21952231316706" lon="10.755278074343053"><ele>1428.3999999999999</ele><time>2026-05-02T12:04:59.999Z</time></trkpt><trkpt lat="44.21946458248213" lon="10.755385433736611"><ele>1422.1999999999998</ele><time>2026-05-02T12:05:00.999Z</time></trkpt><trkpt lat="44.219417841100466" lon="10.755526954425541"><ele>1416.0</ele><time>2026-05-02T12:05:01.998Z</time></trkpt><trkpt lat="44.21936321211637" lon="10.755676166138938"><ele>1416.0</ele><time>2026-05-02T12:05:02.998Z</time></trkpt><trkpt lat="44.21930181328962" lon="10.755801176269365"><ele>1416.0</ele><time>2026-05-02T12:05:03.998Z</time></trkpt><trkpt lat="44.21923015467395" lon="10.755891243750838"><ele>1416.0</ele><time>2026-05-02T12:05:04.998Z</time></trkpt><trkpt lat="44.21914243938469" lon="10.75595383698334"><ele>1416.0</ele><time>2026-05-02T12:05:05.998Z</time></trkpt><trkpt lat="44.21903956206406" lon="10.755986399794322"><ele>1416.0</ele><time>2026-05-02T12:05:06.998Z</time></trkpt><trkpt lat="44.218915103147516" lon="10.755960189903892"><ele>1417.1999999999998</ele><time>2026-05-02T12:05:07.998Z</time></trkpt><trkpt lat="44.218798125939514" lon="10.755967625125463"><ele>1418.3999999999999</ele><time>2026-05-02T12:05:08.998Z</time></trkpt><trkpt lat="44.21870382684816" lon="10.75598698194388"><ele>1419.6</ele><time>2026-05-02T12:05:09.998Z</time></trkpt><trkpt lat="44.21861574647433" lon="10.756029319829736"><ele>1420.8</ele><time>2026-05-02T12:05:10.998Z</time></trkpt><trkpt lat="44.218558484645136" lon="10.756170846807349"><ele>1422.0</ele><time>2026-05-02T12:05:11.998Z</time></trkpt><trkpt lat="44.21850388859254" lon="10.756304867419994"><ele>1422.0</ele><time>2026-05-02T12:05:12.998Z</time></trkpt><trkpt lat="44.21844698981467" lon="10.756437165161865"><ele>1422.0</ele><time>2026-05-02T12:05:13.998Z</time></trkpt><trkpt lat="44.2183993035711" lon="10.756565195114502"><ele>1422.0</ele><time>2026-05-02T12:05:14.998Z</time></trkpt><trkpt lat="44.21834503798371" lon="10.756691614332603"><ele>1422.0</ele><time>2026-05-02T12:05:15.998Z</time></trkpt><trkpt lat="44.21835788805582" lon="10.756843861962935"><ele>1422.0</ele><time>2026-05-02T12:05:16.998Z</time></trkpt><trkpt lat="44.21842190403761" lon="10.756964728309972"><ele>1424.0</ele><time>2026-05-02T12:05:17.998Z</time></trkpt><trkpt lat="44.21848944262693" lon="10.757074122613448"><ele>1426.0</ele><time>2026-05-02T12:05:18.998Z</time></trkpt><trkpt lat="44.21857390605243" lon="10.75718547427766"><ele>1428.0</ele><time>2026-05-02T12:05:19.998Z</time></trkpt><trkpt lat="44.21866828793763" lon="10.757310333964156"><ele>1430.0</ele><time>2026-05-02T12:05:20.998Z</time></trkpt><trkpt lat="44.21877513854379" lon="10.757449340443541"><ele>1430.0</ele><time>2026-05-02T12:05:21.998Z</time></trkpt><trkpt lat="44.218880462680694" lon="10.757607837512797"><ele>1430.0</ele><time>2026-05-02T12:05:22.998Z</time></trkpt><trkpt lat="44.21895831802897" lon="10.757796004780083"><ele>1430.0</ele><time>2026-05-02T12:05:23.998Z</time></trkpt><trkpt lat="44.21903706306502" lon="10.757970540370037"><ele>1420.3333333333335</ele><time>2026-05-02T12:05:24.998Z</time></trkpt><trkpt lat="44.21910192377287" lon="10.758152126800239"><ele>1410.6666666666667</ele><time>2026-05-02T12:05:25.998Z</time></trkpt><trkpt lat="44.219192074074364" lon="10.75831990293651"><ele>1401.0</ele><time>2026-05-02T12:05:26.998Z</time></trkpt><trkpt lat="44.21931055891225" lon="10.758477930756722"><ele>1407.0</ele><time>2026-05-02T12:05:27.998Z</time></trkpt><trkpt lat="44.21944325893619" lon="10.758633808128666"><ele>1413.0</ele><time>2026-05-02T12:05:28.998Z</time></trkpt><trkpt lat="44.21957650703868" lon="10.758787108937637"><ele>1419.0</ele><time>2026-05-02T12:05:29.998Z</time></trkpt><trkpt lat="44.21967481205333" lon="10.75896186192804"><ele>1419.0</ele><time>2026-05-02T12:05:30.998Z</time></trkpt><trkpt lat="44.21976495038788" lon="10.759124872635727"><ele>1419.0</ele><time>2026-05-02T12:05:31.998Z</time></trkpt><trkpt lat="44.2198382454846" lon="10.759294125139016"><ele>1419.0</ele><time>2026-05-02T12:05:32.998Z</time></trkpt><trkpt lat="44.21991272639658" lon="10.75946605151604"><ele>1419.0</ele><time>2026-05-02T12:05:33.998Z</time></trkpt><trkpt lat="44.219963531642" lon="10.759668494975582"><ele>1409.3333333333333</ele><time>2026-05-02T12:05:34.998Z</time></trkpt><trkpt lat="44.22001409109791" lon="10.759869574089624"><ele>1399.6666666666665</ele><time>2026-05-02T12:05:35.998Z</time></trkpt><trkpt lat="44.22007209453144" lon="10.760072119125104"><ele>1390.0</ele><time>2026-05-02T12:05:36.998Z</time></trkpt><trkpt lat="44.22014943864571" lon="10.760261139737532"><ele>1390.0</ele><time>2026-05-02T12:05:37.998Z</time></trkpt><trkpt lat="44.220202690873975" lon="10.760453946800437"><ele>1390.0</ele><time>2026-05-02T12:05:38.998Z</time></trkpt><trkpt lat="44.220268892792554" lon="10.76062739441908"><ele>1390.0</ele><time>2026-05-02T12:05:39.999Z</time></trkpt><trkpt lat="44.220347434241454" lon="10.760782932879371"><ele>1390.0</ele><time>2026-05-02T12:05:40.999Z</time></trkpt><trkpt lat="44.22040349875217" lon="10.760954421320497"><ele>1391.5</ele><time>2026-05-02T12:05:41.999Z</time></trkpt><trkpt lat="44.22047192800297" lon="10.761121648262167"><ele>1393.0</ele><time>2026-05-02T12:05:42.999Z</time></trkpt><trkpt lat="44.220550632728894" lon="10.761286244503001"><ele>1394.5</ele><time>2026-05-02T12:05:43.999Z</time></trkpt><trkpt lat="44.220631874762375" lon="10.761450246724163"><ele>1396.0</ele><time>2026-05-02T12:05:44.999Z</time></trkpt><trkpt lat="44.220717535431774" lon="10.76160140497434"><ele>1390.0</ele><time>2026-05-02T12:05:45.999Z</time></trkpt><trkpt lat="44.22080070767607" lon="10.761743727965293"><ele>1384.0</ele><time>2026-05-02T12:05:46.999Z</time></trkpt><trkpt lat="44.220878398924924" lon="10.761881504296323"><ele>1378.0</ele><time>2026-05-02T12:05:47.999Z</time></trkpt><trkpt lat="44.22095453984695" lon="10.76201767529215"><ele>1372.0</ele><time>2026-05-02T12:05:48.999Z</time></trkpt><trkpt lat="44.221017593940886" lon="10.76214670304917"><ele>1372.0</ele><time>2026-05-02T12:05:49.999Z</time></trkpt><trkpt lat="44.22107017502578" lon="10.7622689220004"><ele>1372.0</ele><time>2026-05-02T12:05:50.999Z</time></trkpt><trkpt lat="44.22109814321008" lon="10.76241295569061"><ele>1372.0</ele><time>2026-05-02T12:05:51.999Z</time></trkpt><trkpt lat="44.22115354073238" lon="10.762547174030903"><ele>1372.0</ele><time>2026-05-02T12:05:52.999Z</time></trkpt><trkpt lat="44.221183544577165" lon="10.762699128810702"><ele>1372.0</ele><time>2026-05-02T12:05:53.999Z</time></trkpt><trkpt lat="44.221214827475784" lon="10.762853113008713"><ele>1370.8</ele><time>2026-05-02T12:05:54.999Z</time></trkpt><trkpt lat="44.22124815632079" lon="10.763007535006919"><ele>1369.6</ele><time>2026-05-02T12:05:55.999Z</time></trkpt><trkpt lat="44.221278016887204" lon="10.763151863137267"><ele>1368.3999999999999</ele><time>2026-05-02T12:05:56.999Z</time></trkpt><trkpt lat="44.22128842240609" lon="10.763286869012392"><ele>1367.1999999999998</ele><time>2026-05-02T12:05:57.999Z</time></trkpt><trkpt lat="44.221304495626086" lon="10.76340351089693"><ele>1366.0</ele><time>2026-05-02T12:05:58.999Z</time></trkpt><trkpt lat="44.221312857632796" lon="10.7635014086748"><ele>1362.6</ele><time>2026-05-02T12:05:59.999Z</time></trkpt><trkpt lat="44.221293724667554" lon="10.763664131999343"><ele>1359.1999999999998</ele><time>2026-05-02T12:06:01.999Z</time></trkpt><trkpt lat="44.22122093855295" lon="10.763706477001831"><ele>1355.8000000000002</ele><time>2026-05-02T12:06:02.999Z</time></trkpt><trkpt lat="44.22114279478008" lon="10.763763153314823"><ele>1352.4</ele><time>2026-05-02T12:06:03.999Z</time></trkpt><trkpt lat="44.22105676661942" lon="10.763811757057322"><ele>1349.0</ele><time>2026-05-02T12:06:04.999Z</time></trkpt><trkpt lat="44.22094936071903" lon="10.763848486328223"><ele>1349.0</ele><time>2026-05-02T12:06:05.999Z</time></trkpt><trkpt lat="44.22083244121547" lon="10.763880138772603"><ele>1349.0</ele><time>2026-05-02T12:06:06.999Z</time></trkpt><trkpt lat="44.220710314709926" lon="10.763912631715495"><ele>1349.0</ele><time>2026-05-02T12:06:07.999Z</time></trkpt><trkpt lat="44.22059184824111" lon="10.76393754269728"><ele>1349.0</ele><time>2026-05-02T12:06:08.999Z</time></trkpt><trkpt lat="44.22047758532048" lon="10.763962428664437"><ele>1354.0</ele><time>2026-05-02T12:06:09.999Z</time></trkpt><trkpt lat="44.22036910242487" lon="10.764013368540944"><ele>1359.0</ele><time>2026-05-02T12:06:10.999Z</time></trkpt><trkpt lat="44.220265046255" lon="10.764075524959923"><ele>1364.0</ele><time>2026-05-02T12:06:11.999Z</time></trkpt><trkpt lat="44.220161490894846" lon="10.764152800687855"><ele>1369.0</ele><time>2026-05-02T12:06:12.999Z</time></trkpt><trkpt lat="44.2200585168133" lon="10.764238050560914"><ele>1369.0</ele><time>2026-05-02T12:06:13.999Z</time></trkpt><trkpt lat="44.21995290815317" lon="10.76434795706815"><ele>1369.0</ele><time>2026-05-02T12:06:14.999Z</time></trkpt><trkpt lat="44.219855617256165" lon="10.764491436495325"><ele>1369.0</ele><time>2026-05-02T12:06:15.999Z</time></trkpt><trkpt lat="44.21976447847048" lon="10.764607995456082"><ele>1369.0</ele><time>2026-05-02T12:06:16.999Z</time></trkpt><trkpt lat="44.219674205083585" lon="10.764714639269615"><ele>1365.2</ele><time>2026-05-02T12:06:17.999Z</time></trkpt><trkpt lat="44.21958218210795" lon="10.764804033002749"><ele>1361.4</ele><time>2026-05-02T12:06:18.999Z</time></trkpt><trkpt lat="44.219491337514725" lon="10.764878624628366"><ele>1357.6</ele><time>2026-05-02T12:06:19.999Z</time></trkpt><trkpt lat="44.219398962703984" lon="10.764928927579172"><ele>1353.8</ele><time>2026-05-02T12:06:20.999Z</time></trkpt><trkpt lat="44.219298475944306" lon="10.764904655662608"><ele>1350.0</ele><time>2026-05-02T12:06:21.999Z</time></trkpt><trkpt lat="44.21919810272248" lon="10.764873264661079"><ele>1350.0</ele><time>2026-05-02T12:06:22.999Z</time></trkpt><trkpt lat="44.21909552085754" lon="10.764825649515899"><ele>1350.0</ele><time>2026-05-02T12:06:23.999Z</time></trkpt><trkpt lat="44.218992151927225" lon="10.764757834865769"><ele>1350.0</ele><time>2026-05-02T12:06:24.999Z</time></trkpt><trkpt lat="44.21888754802403" lon="10.764661833102801"><ele>1350.0</ele><time>2026-05-02T12:06:25.999Z</time></trkpt><trkpt lat="44.218776609855745" lon="10.764530545377747"><ele>1350.3333333333333</ele><time>2026-05-02T12:06:26.999Z</time></trkpt><trkpt lat="44.218662804323465" lon="10.764379923678067"><ele>1350.6666666666665</ele><time>2026-05-02T12:06:27.999Z</time></trkpt><trkpt lat="44.21854370957138" lon="10.764222008117224"><ele>1351.0</ele><time>2026-05-02T12:06:28.999Z</time></trkpt><trkpt lat="44.218439634696004" lon="10.7640676267722"><ele>1351.0</ele><time>2026-05-02T12:06:29.999Z</time></trkpt><trkpt lat="44.218339808557126" lon="10.763942328479397"><ele>1351.0</ele><time>2026-05-02T12:06:30.999Z</time></trkpt><trkpt lat="44.21826266099311" lon="10.76383157681622"><ele>1351.0</ele><time>2026-05-02T12:06:31.999Z</time></trkpt><trkpt lat="44.21817681167924" lon="10.76376726426131"><ele>1351.0</ele><time>2026-05-02T12:06:32.999Z</time></trkpt><trkpt lat="44.218097567217654" lon="10.763718596980683"><ele>1351.0</ele><time>2026-05-02T12:06:33.999Z</time></trkpt><trkpt lat="44.217978084564976" lon="10.76371345290453"><ele>1353.25</ele><time>2026-05-02T12:06:34.999Z</time></trkpt><trkpt lat="44.21786222961986" lon="10.763720713535829"><ele>1355.5</ele><time>2026-05-02T12:06:35.999Z</time></trkpt><trkpt lat="44.21772473562047" lon="10.763752341830699"><ele>1357.75</ele><time>2026-05-02T12:06:36.999Z</time></trkpt><trkpt lat="44.21762031436038" lon="10.763816501806"><ele>1360.0</ele><time>2026-05-02T12:06:37.999Z</time></trkpt><trkpt lat="44.217534696980735" lon="10.763845699936429"><ele>1360.0</ele><time>2026-05-02T12:06:38.999Z</time></trkpt><trkpt lat="44.21744966036631" lon="10.763899658819586"><ele>1360.0</ele><time>2026-05-02T12:06:39.999Z</time></trkpt><trkpt lat="44.217366725098906" lon="10.763979278258354"><ele>1360.0</ele><time>2026-05-02T12:06:40.999Z</time></trkpt><trkpt lat="44.21728541301403" lon="10.764072416323357"><ele>1360.0</ele><time>2026-05-02T12:06:41.999Z</time></trkpt><trkpt lat="44.217197183117044" lon="10.76417248280964"><ele>1360.0</ele><time>2026-05-02T12:06:42.999Z</time></trkpt><trkpt lat="44.21711016470488" lon="10.764330515671213"><ele>1356.5</ele><time>2026-05-02T12:06:43.999Z</time></trkpt><trkpt lat="44.217019186377655" lon="10.764470222740403"><ele>1353.0</ele><time>2026-05-02T12:06:44.999Z</time></trkpt><trkpt lat="44.216938823305426" lon="10.764633606919046"><ele>1349.5</ele><time>2026-05-02T12:06:45.999Z</time></trkpt><trkpt lat="44.21686286926562" lon="10.764778990124606"><ele>1346.0</ele><time>2026-05-02T12:06:46.999Z</time></trkpt><trkpt lat="44.21678839370479" lon="10.764886888005439"><ele>1346.0</ele><time>2026-05-02T12:06:47.999Z</time></trkpt><trkpt lat="44.216689953760984" lon="10.764960816611076"><ele>1346.0</ele><time>2026-05-02T12:06:48.999Z</time></trkpt><trkpt lat="44.21657776889848" lon="10.765009648821925"><ele>1346.0</ele><time>2026-05-02T12:06:49.999Z</time></trkpt><trkpt lat="44.21643835241023" lon="10.765043197549872"><ele>1346.0</ele><time>2026-05-02T12:06:50.999Z</time></trkpt><trkpt lat="44.21629802766635" lon="10.76504292195604"><ele>1346.0</ele><time>2026-05-02T12:06:51.999Z</time></trkpt><trkpt lat="44.21618103467927" lon="10.765045036577376"><ele>1346.0</ele><time>2026-05-02T12:06:52.999Z</time></trkpt><trkpt lat="44.21607779838369" lon="10.765077178444251"><ele>1346.0</ele><time>2026-05-02T12:06:53.999Z</time></trkpt><trkpt lat="44.215996370333286" lon="10.765151454192658"><ele>1346.0</ele><time>2026-05-02T12:06:54.999Z</time></trkpt><trkpt lat="44.215943246134465" lon="10.765282185102215"><ele>1346.0</ele><time>2026-05-02T12:06:55.999Z</time></trkpt><trkpt lat="44.215874689419046" lon="10.765380604923333"><ele>1342.4</ele><time>2026-05-02T12:06:56.999Z</time></trkpt><trkpt lat="44.21582973509841" lon="10.76548653065111"><ele>1338.8</ele><time>2026-05-02T12:06:57.999Z</time></trkpt><trkpt lat="44.2157788614221" lon="10.765601066225567"><ele>1335.2</ele><time>2026-05-02T12:06:58.999Z</time></trkpt><trkpt lat="44.215738636265634" lon="10.765725395163322"><ele>1331.6000000000001</ele><time>2026-05-02T12:06:59.999Z</time></trkpt><trkpt lat="44.215710641151574" lon="10.76586007829139"><ele>1328.0</ele><time>2026-05-02T12:07:00.999Z</time></trkpt><trkpt lat="44.21568727161958" lon="10.766003895847975"><ele>1326.5</ele><time>2026-05-02T12:07:01.999Z</time></trkpt><trkpt lat="44.21566730469866" lon="10.766170195804111"><ele>1325.0</ele><time>2026-05-02T12:07:02.999Z</time></trkpt><trkpt lat="44.21565251585532" lon="10.76635345185923"><ele>1323.5</ele><time>2026-05-02T12:07:03.998Z</time></trkpt><trkpt lat="44.21563610008756" lon="10.766550813486388"><ele>1322.0</ele><time>2026-05-02T12:07:04.998Z</time></trkpt><trkpt lat="44.21561672579079" lon="10.766741385391406"><ele>1311.5</ele><time>2026-05-02T12:07:05.998Z</time></trkpt><trkpt lat="44.21559686145746" lon="10.766926755070049"><ele>1301.0</ele><time>2026-05-02T12:07:06.998Z</time></trkpt><trkpt lat="44.21558035183279" lon="10.767113427209654"><ele>1290.5</ele><time>2026-05-02T12:07:07.998Z</time></trkpt><trkpt lat="44.21556413818146" lon="10.767297621853185"><ele>1280.0</ele><time>2026-05-02T12:07:08.998Z</time></trkpt><trkpt lat="44.2155453204329" lon="10.767478258486095"><ele>1280.0</ele><time>2026-05-02T12:07:09.998Z</time></trkpt><trkpt lat="44.21553101568417" lon="10.767643091476153"><ele>1280.0</ele><time>2026-05-02T12:07:10.998Z</time></trkpt><trkpt lat="44.21553139093499" lon="10.767792302325223"><ele>1280.0</ele><time>2026-05-02T12:07:11.998Z</time></trkpt><trkpt lat="44.21555435100626" lon="10.767933704451782"><ele>1280.0</ele><time>2026-05-02T12:07:12.998Z</time></trkpt><trkpt lat="44.21560057461755" lon="10.7680717032451"><ele>1280.0</ele><time>2026-05-02T12:07:13.998Z</time></trkpt><trkpt lat="44.21566975931453" lon="10.768202676070347"><ele>1279.0</ele><time>2026-05-02T12:07:14.998Z</time></trkpt><trkpt lat="44.21575895253939" lon="10.76832335844536"><ele>1278.0</ele><time>2026-05-02T12:07:15.998Z</time></trkpt><trkpt lat="44.21586769373425" lon="10.768428382683398"><ele>1277.0</ele><time>2026-05-02T12:07:16.998Z</time></trkpt><trkpt lat="44.21599461133984" lon="10.768520689663493"><ele>1276.0</ele><time>2026-05-02T12:07:17.998Z</time></trkpt><trkpt lat="44.21612946374147" lon="10.768612514629467"><ele>1276.0</ele><time>2026-05-02T12:07:18.998Z</time></trkpt><trkpt lat="44.21626779225021" lon="10.768703247651313"><ele>1276.0</ele><time>2026-05-02T12:07:19.998Z</time></trkpt><trkpt lat="44.21638959461931" lon="10.768791832135774"><ele>1276.0</ele><time>2026-05-02T12:07:20.998Z</time></trkpt><trkpt lat="44.21649268126959" lon="10.768869833466434"><ele>1276.0</ele><time>2026-05-02T12:07:21.998Z</time></trkpt><trkpt lat="44.216584167968236" lon="10.768938621606358"><ele>1276.8333333333333</ele><time>2026-05-02T12:07:22.998Z</time></trkpt><trkpt lat="44.21667050287706" lon="10.768976846065392"><ele>1277.6666666666665</ele><time>2026-05-02T12:07:23.998Z</time></trkpt><trkpt lat="44.21674593166891" lon="10.768970578156996"><ele>1278.5</ele><time>2026-05-02T12:07:24.998Z</time></trkpt><trkpt lat="44.216808415010014" lon="10.768910202997079"><ele>1279.3333333333333</ele><time>2026-05-02T12:07:25.998Z</time></trkpt><trkpt lat="44.21684590362206" lon="10.768810491241469"><ele>1280.1666666666667</ele><time>2026-05-02T12:07:26.998Z</time></trkpt><trkpt lat="44.21686073191308" lon="10.768676288204597"><ele>1281.0</ele><time>2026-05-02T12:07:27.998Z</time></trkpt><trkpt lat="44.21685978346" lon="10.768509169117285"><ele>1285.0</ele><time>2026-05-02T12:07:28.998Z</time></trkpt><trkpt lat="44.216851269986805" lon="10.768292477359235"><ele>1289.0</ele><time>2026-05-02T12:07:29.998Z</time></trkpt><trkpt lat="44.21684408717322" lon="10.768039725743169"><ele>1293.0</ele><time>2026-05-02T12:07:30.998Z</time></trkpt><trkpt lat="44.21679416797846" lon="10.767819066616642"><ele>1292.6000000000001</ele><time>2026-05-02T12:07:31.998Z</time></trkpt><trkpt lat="44.21676873162677" lon="10.76762401484085"><ele>1292.2</ele><time>2026-05-02T12:07:32.998Z</time></trkpt><trkpt lat="44.21674802754267" lon="10.76746483954655"><ele>1291.8</ele><time>2026-05-02T12:07:33.998Z</time></trkpt><trkpt lat="44.21673072169489" lon="10.767337618766037"><ele>1291.4</ele><time>2026-05-02T12:07:34.998Z</time></trkpt><trkpt lat="44.21673156866598" lon="10.767239416063527"><ele>1291.0</ele><time>2026-05-02T12:07:35.998Z</time></trkpt><trkpt lat="44.216785893171654" lon="10.76713300830378"><ele>1291.0</ele><time>2026-05-02T12:07:37.998Z</time></trkpt><trkpt lat="44.21686805394593" lon="10.767194778127735"><ele>1291.0</ele><time>2026-05-02T12:07:39.998Z</time></trkpt><trkpt lat="44.21690732619128" lon="10.767290000974322"><ele>1291.0</ele><time>2026-05-02T12:07:40.998Z</time></trkpt><trkpt lat="44.216948789104165" lon="10.767413513384627"><ele>1291.0</ele><time>2026-05-02T12:07:41.998Z</time></trkpt><trkpt lat="44.21700514341264" lon="10.767569203221717"><ele>1291.0</ele><time>2026-05-02T12:07:42.998Z</time></trkpt><trkpt lat="44.21704435063027" lon="10.767752051349614"><ele>1291.5</ele><time>2026-05-02T12:07:43.998Z</time></trkpt><trkpt lat="44.21708371366312" lon="10.767932755893558"><ele>1292.0</ele><time>2026-05-02T12:07:44.998Z</time></trkpt><trkpt lat="44.21712926455089" lon="10.7681159119561"><ele>1292.5</ele><time>2026-05-02T12:07:45.999Z</time></trkpt><trkpt lat="44.217203086935584" lon="10.768286760603825"><ele>1293.0</ele><time>2026-05-02T12:07:46.999Z</time></trkpt><trkpt lat="44.217267832206254" lon="10.768450499974424"><ele>1285.5</ele><time>2026-05-02T12:07:47.999Z</time></trkpt><trkpt lat="44.21733772149279" lon="10.768625321456435"><ele>1278.0</ele><time>2026-05-02T12:07:48.999Z</time></trkpt><trkpt lat="44.21741030568127" lon="10.76880748926065"><ele>1270.5</ele><time>2026-05-02T12:07:49.999Z</time></trkpt><trkpt lat="44.217479572451445" lon="10.76900241283791"><ele>1263.0</ele><time>2026-05-02T12:07:50.999Z</time></trkpt><trkpt lat="44.21756499041277" lon="10.769183136919619"><ele>1262.6666666666667</ele><time>2026-05-02T12:07:51.999Z</time></trkpt><trkpt lat="44.21763759109692" lon="10.769372025145495"><ele>1262.3333333333335</ele><time>2026-05-02T12:07:52.999Z</time></trkpt><trkpt lat="44.217707924512474" lon="10.769558008243456"><ele>1262.0</ele><time>2026-05-02T12:07:53.999Z</time></trkpt><trkpt lat="44.21778156725937" lon="10.769737524075358"><ele>1262.0</ele><time>2026-05-02T12:07:54.999Z</time></trkpt><trkpt lat="44.21786414964584" lon="10.7699061937732"><ele>1262.0</ele><time>2026-05-02T12:07:55.999Z</time></trkpt><trkpt lat="44.217938036318806" lon="10.770079216316173"><ele>1262.0</ele><time>2026-05-02T12:07:56.999Z</time></trkpt><trkpt lat="44.21801461325846" lon="10.770228963295864"><ele>1262.0</ele><time>2026-05-02T12:07:57.999Z</time></trkpt><trkpt lat="44.21808615735683" lon="10.77037269985198"><ele>1257.4</ele><time>2026-05-02T12:07:58.999Z</time></trkpt><trkpt lat="44.21815184071011" lon="10.77051001772347"><ele>1252.8000000000002</ele><time>2026-05-02T12:07:59.999Z</time></trkpt><trkpt lat="44.21822127009519" lon="10.770623527771356"><ele>1248.2</ele><time>2026-05-02T12:08:00.999Z</time></trkpt><trkpt lat="44.21825490152041" lon="10.770753449100152"><ele>1243.6000000000001</ele><time>2026-05-02T12:08:01.999Z</time></trkpt><trkpt lat="44.21826099671968" lon="10.770885100500307"><ele>1239.0</ele><time>2026-05-02T12:08:02.999Z</time></trkpt><trkpt lat="44.2182297553397" lon="10.771003671252721"><ele>1235.75</ele><time>2026-05-02T12:08:03.999Z</time></trkpt><trkpt lat="44.218161655457436" lon="10.77110101047806"><ele>1232.5</ele><time>2026-05-02T12:08:04.999Z</time></trkpt><trkpt lat="44.218059589394755" lon="10.771175761803189"><ele>1229.25</ele><time>2026-05-02T12:08:05.999Z</time></trkpt><trkpt lat="44.21794009178893" lon="10.771238776730895"><ele>1226.0</ele><time>2026-05-02T12:08:06.999Z</time></trkpt><trkpt lat="44.21780173694463" lon="10.771283443156243"><ele>1222.6666666666667</ele><time>2026-05-02T12:08:07.999Z</time></trkpt><trkpt lat="44.21765267271722" lon="10.771264730556144"><ele>1219.3333333333333</ele><time>2026-05-02T12:08:08.999Z</time></trkpt><trkpt lat="44.21750046526668" lon="10.771235861056992"><ele>1216.0</ele><time>2026-05-02T12:08:09.999Z</time></trkpt><trkpt lat="44.217341344458504" lon="10.771195450347458"><ele>1210.0</ele><time>2026-05-02T12:08:10.999Z</time></trkpt><trkpt lat="44.21717802356005" lon="10.77115625445138"><ele>1204.0</ele><time>2026-05-02T12:08:11.999Z</time></trkpt><trkpt lat="44.217006844818314" lon="10.771129513096572"><ele>1198.0</ele><time>2026-05-02T12:08:12.999Z</time></trkpt><trkpt lat="44.21684059043316" lon="10.771081137405883"><ele>1198.0</ele><time>2026-05-02T12:08:13.999Z</time></trkpt><trkpt lat="44.21667099113975" lon="10.771040955161588"><ele>1198.0</ele><time>2026-05-02T12:08:14.999Z</time></trkpt><trkpt lat="44.21650844194869" lon="10.77100036480884"><ele>1198.0</ele><time>2026-05-02T12:08:15.999Z</time></trkpt><trkpt lat="44.216357449262006" lon="10.770937121441083"><ele>1201.25</ele><time>2026-05-02T12:08:16.999Z</time></trkpt><trkpt lat="44.21621347656184" lon="10.770847240193227"><ele>1204.5</ele><time>2026-05-02T12:08:17.999Z</time></trkpt><trkpt lat="44.216085031803146" lon="10.770729512397391"><ele>1207.75</ele><time>2026-05-02T12:08:18.999Z</time></trkpt><trkpt lat="44.21599498853374" lon="10.770598234960127"><ele>1211.0</ele><time>2026-05-02T12:08:19.999Z</time></trkpt><trkpt lat="44.21590420785663" lon="10.77053464945243"><ele>1211.0</ele><time>2026-05-02T12:08:20.999Z</time></trkpt><trkpt lat="44.21581763629766" lon="10.770467621164078"><ele>1211.0</ele><time>2026-05-02T12:08:21.999Z</time></trkpt><trkpt lat="44.21571110303625" lon="10.770469454344429"><ele>1211.0</ele><time>2026-05-02T12:08:22.999Z</time></trkpt><trkpt lat="44.2156219677638" lon="10.770563402634771"><ele>1211.0</ele><time>2026-05-02T12:08:23.999Z</time></trkpt><trkpt lat="44.215535603012256" lon="10.770638655506199"><ele>1211.0</ele><time>2026-05-02T12:08:24.999Z</time></trkpt><trkpt lat="44.21542633605617" lon="10.770690714441896"><ele>1206.6666666666667</ele><time>2026-05-02T12:08:25.999Z</time></trkpt><trkpt lat="44.2152920263724" lon="10.770679370980044"><ele>1202.3333333333333</ele><time>2026-05-02T12:08:26.999Z</time></trkpt><trkpt lat="44.21513476623431" lon="10.770676130049582"><ele>1198.0</ele><time>2026-05-02T12:08:27.999Z</time></trkpt><trkpt lat="44.2149716810802" lon="10.770656538392918"><ele>1189.6666666666665</ele><time>2026-05-02T12:08:28.999Z</time></trkpt><trkpt lat="44.21481452640741" lon="10.770623080044105"><ele>1181.3333333333333</ele><time>2026-05-02T12:08:29.999Z</time></trkpt><trkpt lat="44.21466273968454" lon="10.77059595091084"><ele>1173.0</ele><time>2026-05-02T12:08:30.999Z</time></trkpt><trkpt lat="44.2145146644383" lon="10.77058132527074"><ele>1173.0</ele><time>2026-05-02T12:08:31.999Z</time></trkpt><trkpt lat="44.21438128830515" lon="10.77050748616746"><ele>1173.0</ele><time>2026-05-02T12:08:32.999Z</time></trkpt><trkpt lat="44.214264346188465" lon="10.770415967825993"><ele>1173.0</ele><time>2026-05-02T12:08:33.999Z</time></trkpt><trkpt lat="44.21416804811311" lon="10.770320545392961"><ele>1173.0</ele><time>2026-05-02T12:08:34.999Z</time></trkpt><trkpt lat="44.21412135877458" lon="10.770184130625525"><ele>1177.5</ele><time>2026-05-02T12:08:35.999Z</time></trkpt><trkpt lat="44.214095575805715" lon="10.770049688688381"><ele>1182.0</ele><time>2026-05-02T12:08:36.999Z</time></trkpt><trkpt lat="44.214078241643435" lon="10.769895556079156"><ele>1186.5</ele><time>2026-05-02T12:08:37.999Z</time></trkpt><trkpt lat="44.21405162332204" lon="10.7697194811922"><ele>1191.0</ele><time>2026-05-02T12:08:38.999Z</time></trkpt><trkpt lat="44.21406495267046" lon="10.769521997110093"><ele>1192.75</ele><time>2026-05-02T12:08:39.999Z</time></trkpt><trkpt lat="44.21405636335383" lon="10.769307876466483"><ele>1194.5</ele><time>2026-05-02T12:08:40.999Z</time></trkpt><trkpt lat="44.21402708442438" lon="10.769097450455297"><ele>1196.25</ele><time>2026-05-02T12:08:41.999Z</time></trkpt><trkpt lat="44.21398087876718" lon="10.768910909769884"><ele>1198.0</ele><time>2026-05-02T12:08:42.999Z</time></trkpt><trkpt lat="44.213920582854165" lon="10.768737417912098"><ele>1187.5</ele><time>2026-05-02T12:08:43.999Z</time></trkpt><trkpt lat="44.21384933547248" lon="10.768581872018705"><ele>1177.0</ele><time>2026-05-02T12:08:44.999Z</time></trkpt><trkpt lat="44.21379122002694" lon="10.768412704162555"><ele>1166.5</ele><time>2026-05-02T12:08:45.999Z</time></trkpt><trkpt lat="44.2137560400304" lon="10.76824121039148"><ele>1156.0</ele><time>2026-05-02T12:08:46.999Z</time></trkpt><trkpt lat="44.21371950089204" lon="10.768082484360328"><ele>1156.0</ele><time>2026-05-02T12:08:47.999Z</time></trkpt><trkpt lat="44.21372547707659" lon="10.767949005932143"><ele>1156.0</ele><time>2026-05-02T12:08:48.999Z</time></trkpt><trkpt lat="44.21371453814046" lon="10.767841953160302"><ele>1156.0</ele><time>2026-05-02T12:08:49.999Z</time></trkpt><trkpt lat="44.21370659446551" lon="10.76773819388205"><ele>1156.0</ele><time>2026-05-02T12:08:50.999Z</time></trkpt><trkpt lat="44.213648913694804" lon="10.76765649796773"><ele>1156.0</ele><time>2026-05-02T12:08:51.999Z</time></trkpt><trkpt lat="44.213543876205385" lon="10.767662154219733"><ele>1156.0</ele><time>2026-05-02T12:08:52.999Z</time></trkpt><trkpt lat="44.2134834603641" lon="10.767814726860555"><ele>1156.0</ele><time>2026-05-02T12:08:53.999Z</time></trkpt><trkpt lat="44.213451787335636" lon="10.767950797955413"><ele>1156.0</ele><time>2026-05-02T12:08:54.999Z</time></trkpt><trkpt lat="44.213455515742304" lon="10.768134200788623"><ele>1156.0</ele><time>2026-05-02T12:08:55.999Z</time></trkpt><trkpt lat="44.213471605895016" lon="10.768353573733036"><ele>1156.0</ele><time>2026-05-02T12:08:56.999Z</time></trkpt><trkpt lat="44.21347671120755" lon="10.768587278277236"><ele>1155.3333333333333</ele><time>2026-05-02T12:08:57.999Z</time></trkpt><trkpt lat="44.213455422034066" lon="10.768846050224553"><ele>1154.6666666666667</ele><time>2026-05-02T12:08:58.999Z</time></trkpt><trkpt lat="44.21342852453298" lon="10.769113600524514"><ele>1154.0</ele><time>2026-05-02T12:08:59.999Z</time></trkpt><trkpt lat="44.21339133330152" lon="10.76935782016749"><ele>1152.6666666666667</ele><time>2026-05-02T12:09:00.999Z</time></trkpt><trkpt lat="44.21335466217242" lon="10.769574661663807"><ele>1151.3333333333333</ele><time>2026-05-02T12:09:01.999Z</time></trkpt><trkpt lat="44.213336945447146" lon="10.76979065281872"><ele>1150.0</ele><time>2026-05-02T12:09:02.999Z</time></trkpt><trkpt lat="44.21334912311134" lon="10.769988931428164"><ele>1150.0</ele><time>2026-05-02T12:09:03.999Z</time></trkpt><trkpt lat="44.213383723984435" lon="10.770185411375895"><ele>1150.0</ele><time>2026-05-02T12:09:04.999Z</time></trkpt><trkpt lat="44.21343557587631" lon="10.77038092591432"><ele>1150.0</ele><time>2026-05-02T12:09:05.999Z</time></trkpt><trkpt lat="44.21350237194399" lon="10.770572381443573"><ele>1150.0</ele><time>2026-05-02T12:09:06.999Z</time></trkpt><trkpt lat="44.21357536387759" lon="10.770763947365978"><ele>1145.0</ele><time>2026-05-02T12:09:07.998Z</time></trkpt><trkpt lat="44.21362946799462" lon="10.77095722679945"><ele>1140.0</ele><time>2026-05-02T12:09:08.998Z</time></trkpt><trkpt lat="44.21366313944045" lon="10.771135149479653"><ele>1135.0</ele><time>2026-05-02T12:09:09.998Z</time></trkpt><trkpt lat="44.21369541725792" lon="10.771280315640254"><ele>1130.0</ele><time>2026-05-02T12:09:10.998Z</time></trkpt><trkpt lat="44.213739347292005" lon="10.771400540484493"><ele>1132.75</ele><time>2026-05-02T12:09:11.998Z</time></trkpt><trkpt lat="44.213808114894206" lon="10.771489084831662"><ele>1135.5</ele><time>2026-05-02T12:09:12.998Z</time></trkpt><trkpt lat="44.21391764177185" lon="10.771529808738338"><ele>1138.25</ele><time>2026-05-02T12:09:13.998Z</time></trkpt><trkpt lat="44.214053036835644" lon="10.77154501066756"><ele>1141.0</ele><time>2026-05-02T12:09:14.998Z</time></trkpt><trkpt lat="44.214186661107746" lon="10.771577709099466"><ele>1141.0</ele><time>2026-05-02T12:09:15.998Z</time></trkpt><trkpt lat="44.21431011116298" lon="10.77166187910622"><ele>1141.0</ele><time>2026-05-02T12:09:16.998Z</time></trkpt><trkpt lat="44.21442438597607" lon="10.771773874298331"><ele>1141.0</ele><time>2026-05-02T12:09:17.998Z</time></trkpt><trkpt lat="44.214541944699356" lon="10.771878571316794"><ele>1141.0</ele><time>2026-05-02T12:09:18.998Z</time></trkpt><trkpt lat="44.21466065934608" lon="10.771956854693459"><ele>1138.8</ele><time>2026-05-02T12:09:19.998Z</time></trkpt><trkpt lat="44.21476497861236" lon="10.772014684717309"><ele>1136.6</ele><time>2026-05-02T12:09:20.998Z</time></trkpt><trkpt lat="44.21484049622479" lon="10.772085499905124"><ele>1134.4</ele><time>2026-05-02T12:09:21.998Z</time></trkpt><trkpt lat="44.214892863061095" lon="10.772184619773174"><ele>1132.2</ele><time>2026-05-02T12:09:22.998Z</time></trkpt><trkpt lat="44.21490587093875" lon="10.772304057180673"><ele>1130.0</ele><time>2026-05-02T12:09:23.998Z</time></trkpt><trkpt lat="44.21487987822558" lon="10.772439019737632"><ele>1130.0</ele><time>2026-05-02T12:09:24.998Z</time></trkpt><trkpt lat="44.21484155546944" lon="10.772590773112158"><ele>1130.0</ele><time>2026-05-02T12:09:25.998Z</time></trkpt><trkpt lat="44.214830665539566" lon="10.77275317151265"><ele>1130.0</ele><time>2026-05-02T12:09:26.998Z</time></trkpt><trkpt lat="44.214857739808494" lon="10.772909580689182"><ele>1130.0</ele><time>2026-05-02T12:09:27.998Z</time></trkpt><trkpt lat="44.214907480349574" lon="10.773054547918601"><ele>1126.75</ele><time>2026-05-02T12:09:28.998Z</time></trkpt><trkpt lat="44.21497394496728" lon="10.773195615086026"><ele>1123.5</ele><time>2026-05-02T12:09:29.998Z</time></trkpt><trkpt lat="44.21505062257349" lon="10.773341657869194"><ele>1120.25</ele><time>2026-05-02T12:09:30.998Z</time></trkpt><trkpt lat="44.21513718209839" lon="10.773484494835724"><ele>1117.0</ele><time>2026-05-02T12:09:31.998Z</time></trkpt><trkpt lat="44.21524053539417" lon="10.7736170633964"><ele>1113.0</ele><time>2026-05-02T12:09:32.998Z</time></trkpt><trkpt lat="44.21535848202137" lon="10.773731241937087"><ele>1109.0</ele><time>2026-05-02T12:09:33.998Z</time></trkpt><trkpt lat="44.21548344090938" lon="10.77381289084706"><ele>1105.0</ele><time>2026-05-02T12:09:34.998Z</time></trkpt><trkpt lat="44.21560896679751" lon="10.77387675093001"><ele>1101.0</ele><time>2026-05-02T12:09:35.998Z</time></trkpt><trkpt lat="44.215736435208065" lon="10.773926299262671"><ele>1101.0</ele><time>2026-05-02T12:09:36.998Z</time></trkpt><trkpt lat="44.21586316015593" lon="10.773961230872702"><ele>1101.0</ele><time>2026-05-02T12:09:37.998Z</time></trkpt><trkpt lat="44.21597670589651" lon="10.77393732125575"><ele>1101.0</ele><time>2026-05-02T12:09:38.998Z</time></trkpt><trkpt lat="44.21608140055941" lon="10.773968672053169"><ele>1101.0</ele><time>2026-05-02T12:09:39.998Z</time></trkpt><trkpt lat="44.21616160118746" lon="10.774092422924658"><ele>1101.0</ele><time>2026-05-02T12:09:40.998Z</time></trkpt><trkpt lat="44.21623643313438" lon="10.774219856111058"><ele>1101.0</ele><time>2026-05-02T12:09:41.998Z</time></trkpt><trkpt lat="44.216322044364" lon="10.774349147817315"><ele>1101.0</ele><time>2026-05-02T12:09:42.998Z</time></trkpt><trkpt lat="44.21642926151135" lon="10.774463267470631"><ele>1101.0</ele><time>2026-05-02T12:09:43.998Z</time></trkpt><trkpt lat="44.216555930477504" lon="10.774569184332792"><ele>1094.3333333333333</ele><time>2026-05-02T12:09:44.998Z</time></trkpt><trkpt lat="44.216696492740475" lon="10.77466355387631"><ele>1087.6666666666665</ele><time>2026-05-02T12:09:45.998Z</time></trkpt><trkpt lat="44.21685009434232" lon="10.774754112409955"><ele>1081.0</ele><time>2026-05-02T12:09:46.998Z</time></trkpt><trkpt lat="44.217008966451935" lon="10.774852528087692"><ele>1081.0</ele><time>2026-05-02T12:09:47.998Z</time></trkpt><trkpt lat="44.217169189330626" lon="10.774960293111093"><ele>1081.0</ele><time>2026-05-02T12:09:48.998Z</time></trkpt><trkpt lat="44.21733437071718" lon="10.775056770012803"><ele>1081.0</ele><time>2026-05-02T12:09:49.998Z</time></trkpt><trkpt lat="44.217502030481604" lon="10.775138036252851"><ele>1073.0</ele><time>2026-05-02T12:09:50.998Z</time></trkpt><trkpt lat="44.217673958951465" lon="10.775199406147504"><ele>1065.0</ele><time>2026-05-02T12:09:51.999Z</time></trkpt><trkpt lat="44.21783957880662" lon="10.775256344632869"><ele>1057.0</ele><time>2026-05-02T12:09:52.999Z</time></trkpt><trkpt lat="44.217992848486595" lon="10.775310372768326"><ele>1057.0</ele><time>2026-05-02T12:09:53.999Z</time></trkpt><trkpt lat="44.21813087913582" lon="10.775364422585616"><ele>1057.0</ele><time>2026-05-02T12:09:54.999Z</time></trkpt><trkpt lat="44.21825588786621" lon="10.77539919562204"><ele>1057.0</ele><time>2026-05-02T12:09:55.999Z</time></trkpt><trkpt lat="44.21837229209709" lon="10.775385836841824"><ele>1057.0</ele><time>2026-05-02T12:09:56.999Z</time></trkpt><trkpt lat="44.218479518540136" lon="10.775366275274362"><ele>1058.2</ele><time>2026-05-02T12:09:57.999Z</time></trkpt><trkpt lat="44.21857919252042" lon="10.775335296931901"><ele>1059.4</ele><time>2026-05-02T12:09:58.999Z</time></trkpt><trkpt lat="44.21866772254458" lon="10.77529949199767"><ele>1060.6</ele><time>2026-05-02T12:09:59.999Z</time></trkpt><trkpt lat="44.218755672487056" lon="10.775327486433449"><ele>1061.8</ele><time>2026-05-02T12:10:00.999Z</time></trkpt><trkpt lat="44.21883487318285" lon="10.775394058135925"><ele>1063.0</ele><time>2026-05-02T12:10:01.999Z</time></trkpt><trkpt lat="44.21891026541671" lon="10.775482391045715"><ele>1063.0</ele><time>2026-05-02T12:10:02.999Z</time></trkpt><trkpt lat="44.21897640193899" lon="10.775590428626893"><ele>1063.0</ele><time>2026-05-02T12:10:03.999Z</time></trkpt><trkpt lat="44.21903463312004" lon="10.775711080003386"><ele>1063.0</ele><time>2026-05-02T12:10:04.999Z</time></trkpt><trkpt lat="44.21906801475144" lon="10.775828090876766"><ele>1063.0</ele><time>2026-05-02T12:10:05.999Z</time></trkpt><trkpt lat="44.2190729399228" lon="10.775927049129209"><ele>1063.0</ele><time>2026-05-02T12:10:06.999Z</time></trkpt><trkpt lat="44.21905337692254" lon="10.776016368569568"><ele>1063.0</ele><time>2026-05-02T12:10:07.999Z</time></trkpt><trkpt lat="44.21897768998613" lon="10.776051263016543"><ele>1059.4</ele><time>2026-05-02T12:10:08.999Z</time></trkpt><trkpt lat="44.21890884081777" lon="10.776094744573355"><ele>1055.8</ele><time>2026-05-02T12:10:09.999Z</time></trkpt><trkpt lat="44.21881934364276" lon="10.776139131005362"><ele>1052.2</ele><time>2026-05-02T12:10:10.999Z</time></trkpt><trkpt lat="44.2187263272247" lon="10.776188118584976"><ele>1048.6</ele><time>2026-05-02T12:10:11.999Z</time></trkpt><trkpt lat="44.2186509514645" lon="10.776283052021386"><ele>1045.0</ele><time>2026-05-02T12:10:12.999Z</time></trkpt><trkpt lat="44.21858301608447" lon="10.77637264163644"><ele>1045.0</ele><time>2026-05-02T12:10:13.999Z</time></trkpt><trkpt lat="44.218538802864856" lon="10.776490583480046"><ele>1045.0</ele><time>2026-05-02T12:10:14.999Z</time></trkpt><trkpt lat="44.2185121708447" lon="10.776621453980546"><ele>1045.0</ele><time>2026-05-02T12:10:15.999Z</time></trkpt><trkpt lat="44.218489469118275" lon="10.776767800887386"><ele>1045.0</ele><time>2026-05-02T12:10:16.999Z</time></trkpt><trkpt lat="44.21846714067678" lon="10.77693165213109"><ele>1045.0</ele><time>2026-05-02T12:10:17.999Z</time></trkpt><trkpt lat="44.21844118787115" lon="10.77711665776462"><ele>1043.6666666666665</ele><time>2026-05-02T12:10:18.999Z</time></trkpt><trkpt lat="44.21841977128921" lon="10.777315314439484"><ele>1042.3333333333333</ele><time>2026-05-02T12:10:19.999Z</time></trkpt><trkpt lat="44.218397831155045" lon="10.77753161222221"><ele>1041.0</ele><time>2026-05-02T12:10:20.999Z</time></trkpt><trkpt lat="44.218374629133294" lon="10.777758609998713"><ele>1041.0</ele><time>2026-05-02T12:10:21.999Z</time></trkpt><trkpt lat="44.21835027877243" lon="10.777993965561585"><ele>1041.0</ele><time>2026-05-02T12:10:22.999Z</time></trkpt><trkpt lat="44.21832292437322" lon="10.77822929996453"><ele>1041.0</ele><time>2026-05-02T12:10:23.999Z</time></trkpt><trkpt lat="44.21829779608777" lon="10.778452791322486"><ele>1040.5</ele><time>2026-05-02T12:10:24.999Z</time></trkpt><trkpt lat="44.21827360290062" lon="10.778659658527125"><ele>1040.0</ele><time>2026-05-02T12:10:25.999Z</time></trkpt><trkpt lat="44.21825129950987" lon="10.77885744751083"><ele>1039.5</ele><time>2026-05-02T12:10:26.999Z</time></trkpt><trkpt lat="44.21823011462399" lon="10.779044930214008"><ele>1039.0</ele><time>2026-05-02T12:10:27.999Z</time></trkpt><trkpt lat="44.218212297848716" lon="10.77923029635533"><ele>1037.0</ele><time>2026-05-02T12:10:28.999Z</time></trkpt><trkpt lat="44.218203646653755" lon="10.7794195283647"><ele>1035.0</ele><time>2026-05-02T12:10:29.999Z</time></trkpt><trkpt lat="44.218211141429144" lon="10.779616611317877"><ele>1033.0</ele><time>2026-05-02T12:10:30.999Z</time></trkpt><trkpt lat="44.21823530402098" lon="10.779825130387083"><ele>1031.0</ele><time>2026-05-02T12:10:31.999Z</time></trkpt><trkpt lat="44.21826567687211" lon="10.78004247400143"><ele>1027.75</ele><time>2026-05-02T12:10:32.999Z</time></trkpt><trkpt lat="44.21829743333996" lon="10.780257788888271"><ele>1024.5</ele><time>2026-05-02T12:10:33.999Z</time></trkpt><trkpt lat="44.21833254760839" lon="10.780453101953135"><ele>1021.25</ele><time>2026-05-02T12:10:34.999Z</time></trkpt><trkpt lat="44.2183739986481" lon="10.780605952883159"><ele>1018.0</ele><time>2026-05-02T12:10:35.999Z</time></trkpt><trkpt lat="44.21843061759465" lon="10.780726479070589"><ele>1017.9999999999999</ele><time>2026-05-02T12:10:36.999Z</time></trkpt><trkpt lat="44.2185017266866" lon="10.780810999712301"><ele>1018.0</ele><time>2026-05-02T12:10:37.999Z</time></trkpt><trkpt lat="44.21857646090682" lon="10.780860515952805"><ele>1018.0</ele><time>2026-05-02T12:10:38.999Z</time></trkpt><trkpt lat="44.21864989439365" lon="10.780895310389669"><ele>1018.0</ele><time>2026-05-02T12:10:39.999Z</time></trkpt><trkpt lat="44.21873551340585" lon="10.780835730637117"><ele>1017.9999999999999</ele><time>2026-05-02T12:10:40.999Z</time></trkpt><trkpt lat="44.218786517657385" lon="10.780723690776597"><ele>1018.0</ele><time>2026-05-02T12:10:41.999Z</time></trkpt><trkpt lat="44.21882821426014" lon="10.780595151558543"><ele>1018.0</ele><time>2026-05-02T12:10:42.999Z</time></trkpt><trkpt lat="44.21884591638376" lon="10.78043473578887"><ele>1018.0</ele><time>2026-05-02T12:10:43.999Z</time></trkpt><trkpt lat="44.2188480251059" lon="10.780252387769277"><ele>1018.0</ele><time>2026-05-02T12:10:44.999Z</time></trkpt><trkpt lat="44.21886402886444" lon="10.780080711936186"><ele>1018.0</ele><time>2026-05-02T12:10:45.999Z</time></trkpt><trkpt lat="44.218895307345335" lon="10.779922498064852"><ele>1018.75</ele><time>2026-05-02T12:10:46.999Z</time></trkpt><trkpt lat="44.218938044147585" lon="10.779772461351312"><ele>1019.5</ele><time>2026-05-02T12:10:47.999Z</time></trkpt><trkpt lat="44.21899589297932" lon="10.77962956427902"><ele>1020.25</ele><time>2026-05-02T12:10:48.999Z</time></trkpt><trkpt lat="44.2190808611526" lon="10.779500741998913"><ele>1021.0</ele><time>2026-05-02T12:10:49.999Z</time></trkpt><trkpt lat="44.21917281237035" lon="10.779372798882113"><ele>1022.75</ele><time>2026-05-02T12:10:50.999Z</time></trkpt><trkpt lat="44.21926238286208" lon="10.77922604716331"><ele>1024.5</ele><time>2026-05-02T12:10:51.999Z</time></trkpt><trkpt lat="44.21934625340761" lon="10.779066992162909"><ele>1026.25</ele><time>2026-05-02T12:10:52.999Z</time></trkpt><trkpt lat="44.219426528539586" lon="10.77891001339974"><ele>1028.0</ele><time>2026-05-02T12:10:53.999Z</time></trkpt><trkpt lat="44.21949915492119" lon="10.778749728810931"><ele>1028.0</ele><time>2026-05-02T12:10:54.999Z</time></trkpt><trkpt lat="44.21955390944585" lon="10.77857959998319"><ele>1028.0</ele><time>2026-05-02T12:10:55.999Z</time></trkpt><trkpt lat="44.21959001856865" lon="10.778409732870658"><ele>1028.0</ele><time>2026-05-02T12:10:56.999Z</time></trkpt><trkpt lat="44.2196209977417" lon="10.7782399481565"><ele>1028.0</ele><time>2026-05-02T12:10:57.999Z</time></trkpt><trkpt lat="44.2196477281904" lon="10.778071818354464"><ele>1028.0</ele><time>2026-05-02T12:10:58.999Z</time></trkpt><trkpt lat="44.21968013709477" lon="10.777917995641962"><ele>1028.0</ele><time>2026-05-02T12:10:59.999Z</time></trkpt><trkpt lat="44.21971991218579" lon="10.777765020873364"><ele>1028.0</ele><time>2026-05-02T12:11:00.999Z</time></trkpt><trkpt lat="44.2197659441476" lon="10.777628113228145"><ele>1028.0</ele><time>2026-05-02T12:11:01.999Z</time></trkpt><trkpt lat="44.21982094308098" lon="10.777512978518764"><ele>1028.0</ele><time>2026-05-02T12:11:02.999Z</time></trkpt><trkpt lat="44.21988435635918" lon="10.777435681154104"><ele>1024.8</ele><time>2026-05-02T12:11:03.999Z</time></trkpt><trkpt lat="44.21994723168499" lon="10.777352098224684"><ele>1021.5999999999999</ele><time>2026-05-02T12:11:04.999Z</time></trkpt><trkpt lat="44.22003563238744" lon="10.777309213351776"><ele>1018.4000000000001</ele><time>2026-05-02T12:11:05.999Z</time></trkpt><trkpt lat="44.220140978966214" lon="10.777396205290422"><ele>1015.2</ele><time>2026-05-02T12:11:06.999Z</time></trkpt><trkpt lat="44.22024504827984" lon="10.777472065973168"><ele>1012.0</ele><time>2026-05-02T12:11:07.999Z</time></trkpt><trkpt lat="44.22035512641975" lon="10.77757459770992"><ele>1012.0</ele><time>2026-05-02T12:11:08.999Z</time></trkpt><trkpt lat="44.220497994611975" lon="10.777667304169707"><ele>1012.0</ele><time>2026-05-02T12:11:09.999Z</time></trkpt><trkpt lat="44.22062914386114" lon="10.777739349369325"><ele>1012.0</ele><time>2026-05-02T12:11:10.999Z</time></trkpt><trkpt lat="44.2207425612058" lon="10.777819572657517"><ele>1012.0</ele><time>2026-05-02T12:11:11.999Z</time></trkpt><trkpt lat="44.22085518569016" lon="10.777830935556606"><ele>1009.75</ele><time>2026-05-02T12:11:12.999Z</time></trkpt><trkpt lat="44.22096856159267" lon="10.777814170221394"><ele>1007.5</ele><time>2026-05-02T12:11:13.999Z</time></trkpt><trkpt lat="44.22109419685979" lon="10.777747615258852"><ele>1005.25</ele><time>2026-05-02T12:11:14.999Z</time></trkpt><trkpt lat="44.22123253200222" lon="10.777672837560935"><ele>1003.0</ele><time>2026-05-02T12:11:15.999Z</time></trkpt><trkpt lat="44.22137298990258" lon="10.777610995080181"><ele>1000.0</ele><time>2026-05-02T12:11:16.998Z</time></trkpt><trkpt lat="44.22149378803394" lon="10.77754664784398"><ele>997.0</ele><time>2026-05-02T12:11:17.998Z</time></trkpt><trkpt lat="44.221599882998284" lon="10.777465404488565"><ele>994.0</ele><time>2026-05-02T12:11:18.998Z</time></trkpt><trkpt lat="44.22168960146638" lon="10.777366114207188"><ele>991.0</ele><time>2026-05-02T12:11:19.998Z</time></trkpt><trkpt lat="44.22178561185379" lon="10.7772849094472"><ele>991.0</ele><time>2026-05-02T12:11:20.998Z</time></trkpt><trkpt lat="44.221859006701514" lon="10.777164379678771"><ele>991.0</ele><time>2026-05-02T12:11:21.998Z</time></trkpt><trkpt lat="44.221921915389174" lon="10.777038663172831"><ele>991.0</ele><time>2026-05-02T12:11:22.998Z</time></trkpt><trkpt lat="44.22197280201816" lon="10.776889678233173"><ele>991.0</ele><time>2026-05-02T12:11:23.998Z</time></trkpt><trkpt lat="44.222020344331085" lon="10.776731967948129"><ele>993.0</ele><time>2026-05-02T12:11:24.998Z</time></trkpt><trkpt lat="44.2220501318368" lon="10.776554126893556"><ele>995.0</ele><time>2026-05-02T12:11:25.998Z</time></trkpt><trkpt lat="44.22204734298344" lon="10.776375381721685"><ele>997.0</ele><time>2026-05-02T12:11:26.998Z</time></trkpt><trkpt lat="44.2220521858446" lon="10.776204319763576"><ele>999.0</ele><time>2026-05-02T12:11:27.998Z</time></trkpt><trkpt lat="44.2220560548709" lon="10.776023383084238"><ele>1001.25</ele><time>2026-05-02T12:11:28.998Z</time></trkpt><trkpt lat="44.22206653557016" lon="10.775835814150051"><ele>1003.5</ele><time>2026-05-02T12:11:29.998Z</time></trkpt><trkpt lat="44.222088877666074" lon="10.775644132202569"><ele>1005.75</ele><time>2026-05-02T12:11:30.998Z</time></trkpt><trkpt lat="44.2221238433656" lon="10.775450135795221"><ele>1008.0</ele><time>2026-05-02T12:11:31.998Z</time></trkpt><trkpt lat="44.222168731092225" lon="10.775256002336205"><ele>1005.8</ele><time>2026-05-02T12:11:32.998Z</time></trkpt><trkpt lat="44.2222194225942" lon="10.77507252076397"><ele>1003.5999999999999</ele><time>2026-05-02T12:11:33.998Z</time></trkpt><trkpt lat="44.22226869901007" lon="10.774924950796189"><ele>1001.4000000000001</ele><time>2026-05-02T12:11:34.998Z</time></trkpt><trkpt lat="44.22231919908299" lon="10.774807100070449"><ele>999.2</ele><time>2026-05-02T12:11:35.998Z</time></trkpt><trkpt lat="44.22237766995099" lon="10.774717970296464"><ele>997.0</ele><time>2026-05-02T12:11:36.998Z</time></trkpt><trkpt lat="44.222447471633444" lon="10.774660477168043"><ele>997.0</ele><time>2026-05-02T12:11:37.998Z</time></trkpt><trkpt lat="44.22251989933996" lon="10.774684348307224"><ele>997.0</ele><time>2026-05-02T12:11:38.998Z</time></trkpt><trkpt lat="44.22259462932925" lon="10.774717029040946"><ele>997.0</ele><time>2026-05-02T12:11:39.998Z</time></trkpt><trkpt lat="44.222681145727464" lon="10.774781992932494"><ele>997.0</ele><time>2026-05-02T12:11:40.998Z</time></trkpt><trkpt lat="44.222782741709274" lon="10.774842995340252"><ele>997.0</ele><time>2026-05-02T12:11:41.998Z</time></trkpt><trkpt lat="44.22287735343546" lon="10.774893222864067"><ele>997.0</ele><time>2026-05-02T12:11:42.998Z</time></trkpt><trkpt lat="44.222968249427296" lon="10.77491873931433"><ele>997.0</ele><time>2026-05-02T12:11:43.998Z</time></trkpt><trkpt lat="44.22307591850169" lon="10.774924168642743"><ele>997.0</ele><time>2026-05-02T12:11:44.998Z</time></trkpt><trkpt lat="44.223188163282394" lon="10.774877210480184"><ele>997.0</ele><time>2026-05-02T12:11:45.998Z</time></trkpt><trkpt lat="44.22330747959977" lon="10.774850141012319"><ele>997.0</ele><time>2026-05-02T12:11:46.998Z</time></trkpt><trkpt lat="44.22343171038492" lon="10.77481839446141"><ele>998.25</ele><time>2026-05-02T12:11:47.998Z</time></trkpt><trkpt lat="44.223560062608634" lon="10.77478046189318"><ele>999.5</ele><time>2026-05-02T12:11:48.998Z</time></trkpt><trkpt lat="44.223684063694186" lon="10.774726668368205"><ele>1000.75</ele><time>2026-05-02T12:11:49.998Z</time></trkpt><trkpt lat="44.22380628228587" lon="10.774660224614191"><ele>1002.0</ele><time>2026-05-02T12:11:50.998Z</time></trkpt><trkpt lat="44.22391407253567" lon="10.774610431429327"><ele>1001.6666666666666</ele><time>2026-05-02T12:11:51.998Z</time></trkpt><trkpt lat="44.22400689855659" lon="10.774571200344202"><ele>1001.3333333333333</ele><time>2026-05-02T12:11:52.998Z</time></trkpt><trkpt lat="44.22408660452365" lon="10.774543643506037"><ele>1001.0</ele><time>2026-05-02T12:11:53.998Z</time></trkpt><trkpt lat="44.22416002772522" lon="10.774497138137724"><ele>1000.6666666666666</ele><time>2026-05-02T12:11:54.998Z</time></trkpt><trkpt lat="44.22422982543447" lon="10.774415316915276"><ele>1000.3333333333333</ele><time>2026-05-02T12:11:55.998Z</time></trkpt><trkpt lat="44.22429862063313" lon="10.774317927513774"><ele>1000.0</ele><time>2026-05-02T12:11:56.998Z</time></trkpt><trkpt lat="44.22437208336827" lon="10.774217448801425"><ele>999.6666666666666</ele><time>2026-05-02T12:11:57.999Z</time></trkpt><trkpt lat="44.224444541950376" lon="10.77413141504981"><ele>999.3333333333333</ele><time>2026-05-02T12:11:58.999Z</time></trkpt><trkpt lat="44.224517361364114" lon="10.774072188069765"><ele>999.0</ele><time>2026-05-02T12:11:59.999Z</time></trkpt><trkpt lat="44.224593002200386" lon="10.774035837300671"><ele>998.6666666666667</ele><time>2026-05-02T12:12:00.999Z</time></trkpt><trkpt lat="44.22467276098303" lon="10.77399690465774"><ele>998.3333333333334</ele><time>2026-05-02T12:12:01.999Z</time></trkpt><trkpt lat="44.22475210597807" lon="10.773929516341283"><ele>998.0</ele><time>2026-05-02T12:12:02.999Z</time></trkpt><trkpt lat="44.22483144114499" lon="10.773840330864296"><ele>998.0</ele><time>2026-05-02T12:12:03.999Z</time></trkpt><trkpt lat="44.224915329059264" lon="10.773743121029279"><ele>998.0</ele><time>2026-05-02T12:12:04.999Z</time></trkpt><trkpt lat="44.22500494332816" lon="10.773645737545328"><ele>998.0</ele><time>2026-05-02T12:12:05.999Z</time></trkpt><trkpt lat="44.225088634920596" lon="10.773541050885033"><ele>998.0</ele><time>2026-05-02T12:12:06.999Z</time></trkpt><trkpt lat="44.22515765160874" lon="10.77342424790338"><ele>998.0</ele><time>2026-05-02T12:12:07.999Z</time></trkpt><trkpt lat="44.22520458906007" lon="10.773305195221"><ele>1001.5999999999999</ele><time>2026-05-02T12:12:08.999Z</time></trkpt><trkpt lat="44.225236166451346" lon="10.773190970595968"><ele>1005.1999999999999</ele><time>2026-05-02T12:12:09.999Z</time></trkpt><trkpt lat="44.22527843475749" lon="10.773084417557415"><ele>1008.8</ele><time>2026-05-02T12:12:10.999Z</time></trkpt><trkpt lat="44.225348371789956" lon="10.772990474396154"><ele>1012.4</ele><time>2026-05-02T12:12:11.999Z</time></trkpt><trkpt lat="44.225440236742166" lon="10.772916390527792"><ele>1016.0</ele><time>2026-05-02T12:12:12.999Z</time></trkpt><trkpt lat="44.22553682647439" lon="10.772860929181817"><ele>1016.0</ele><time>2026-05-02T12:12:13.999Z</time></trkpt><trkpt lat="44.22563889044588" lon="10.772829796800943"><ele>1015.9999999999999</ele><time>2026-05-02T12:12:14.999Z</time></trkpt><trkpt lat="44.22573680220891" lon="10.77282614593448"><ele>1015.9999999999999</ele><time>2026-05-02T12:12:15.999Z</time></trkpt><trkpt lat="44.22583499961462" lon="10.772857158886227"><ele>1016.0</ele><time>2026-05-02T12:12:16.999Z</time></trkpt><trkpt lat="44.22593560421668" lon="10.772919351228348"><ele>1016.0</ele><time>2026-05-02T12:12:17.999Z</time></trkpt><trkpt lat="44.22603724511229" lon="10.772996707275002"><ele>1010.75</ele><time>2026-05-02T12:12:18.999Z</time></trkpt><trkpt lat="44.22615099437993" lon="10.773080554574346"><ele>1005.5</ele><time>2026-05-02T12:12:19.999Z</time></trkpt><trkpt lat="44.22627248629835" lon="10.773165285857518"><ele>1000.25</ele><time>2026-05-02T12:12:20.999Z</time></trkpt><trkpt lat="44.22640218179043" lon="10.77324050493902"><ele>995.0</ele><time>2026-05-02T12:12:21.999Z</time></trkpt><trkpt lat="44.22653822399445" lon="10.773290113858195"><ele>995.0</ele><time>2026-05-02T12:12:22.999Z</time></trkpt><trkpt lat="44.22667884952821" lon="10.77331038896772"><ele>995.0</ele><time>2026-05-02T12:12:23.999Z</time></trkpt><trkpt lat="44.22682093501837" lon="10.773318185586069"><ele>995.0</ele><time>2026-05-02T12:12:24.999Z</time></trkpt><trkpt lat="44.22695321583104" lon="10.773339572785302"><ele>995.0</ele><time>2026-05-02T12:12:25.999Z</time></trkpt><trkpt lat="44.2270736720198" lon="10.773387701434219"><ele>995.0</ele><time>2026-05-02T12:12:26.999Z</time></trkpt><trkpt lat="44.2271877423048" lon="10.773454413757065"><ele>995.0</ele><time>2026-05-02T12:12:27.999Z</time></trkpt><trkpt lat="44.22728977041802" lon="10.773537659917869"><ele>995.0</ele><time>2026-05-02T12:12:28.999Z</time></trkpt><trkpt lat="44.227377272258934" lon="10.773621989403567"><ele>995.0</ele><time>2026-05-02T12:12:29.999Z</time></trkpt><trkpt lat="44.2274453953663" lon="10.773729607090859"><ele>990.25</ele><time>2026-05-02T12:12:30.999Z</time></trkpt><trkpt lat="44.22753591072274" lon="10.773803698668264"><ele>985.5</ele><time>2026-05-02T12:12:31.999Z</time></trkpt><trkpt lat="44.22765521253232" lon="10.773819282034417"><ele>980.75</ele><time>2026-05-02T12:12:32.999Z</time></trkpt><trkpt lat="44.22777273877399" lon="10.773879464053795"><ele>976.0</ele><time>2026-05-02T12:12:33.999Z</time></trkpt><trkpt lat="44.22790029698797" lon="10.773940105312985"><ele>976.0</ele><time>2026-05-02T12:12:34.999Z</time></trkpt><trkpt lat="44.228031134160055" lon="10.774026143654186"><ele>976.0</ele><time>2026-05-02T12:12:35.999Z</time></trkpt><trkpt lat="44.22816936918318" lon="10.774095138846038"><ele>976.0</ele><time>2026-05-02T12:12:36.999Z</time></trkpt><trkpt lat="44.228297607821" lon="10.77417580248239"><ele>976.0</ele><time>2026-05-02T12:12:37.999Z</time></trkpt><trkpt lat="44.22843964557665" lon="10.774239558504272"><ele>977.25</ele><time>2026-05-02T12:12:38.999Z</time></trkpt><trkpt lat="44.22858667135321" lon="10.774282731516214"><ele>978.5</ele><time>2026-05-02T12:12:39.999Z</time></trkpt><trkpt lat="44.228735935472855" lon="10.774319043908747"><ele>979.75</ele><time>2026-05-02T12:12:40.999Z</time></trkpt><trkpt lat="44.22887714047657" lon="10.774359714318523"><ele>981.0</ele><time>2026-05-02T12:12:41.999Z</time></trkpt><trkpt lat="44.22900935624116" lon="10.774411544226941"><ele>978.0</ele><time>2026-05-02T12:12:42.999Z</time></trkpt><trkpt lat="44.22913548777448" lon="10.774467576430732"><ele>975.0</ele><time>2026-05-02T12:12:43.999Z</time></trkpt><trkpt lat="44.22925924205016" lon="10.77453297066428"><ele>972.0</ele><time>2026-05-02T12:12:44.999Z</time></trkpt><trkpt lat="44.229383290316484" lon="10.774600802095055"><ele>969.0</ele><time>2026-05-02T12:12:45.999Z</time></trkpt><trkpt lat="44.22951246998429" lon="10.774666672485838"><ele>969.0</ele><time>2026-05-02T12:12:46.999Z</time></trkpt><trkpt lat="44.229647884571676" lon="10.774736419491814"><ele>969.0</ele><time>2026-05-02T12:12:47.999Z</time></trkpt><trkpt lat="44.229791370690826" lon="10.774811197932484"><ele>969.0</ele><time>2026-05-02T12:12:48.999Z</time></trkpt><trkpt lat="44.22991991341431" lon="10.774903172975336"><ele>969.0</ele><time>2026-05-02T12:12:49.999Z</time></trkpt><trkpt lat="44.23003942834739" lon="10.775013895911968"><ele>968.75</ele><time>2026-05-02T12:12:50.999Z</time></trkpt><trkpt lat="44.230151941150105" lon="10.775136500102539"><ele>968.5</ele><time>2026-05-02T12:12:51.999Z</time></trkpt><trkpt lat="44.23025919757014" lon="10.77526569686445"><ele>968.25</ele><time>2026-05-02T12:12:52.999Z</time></trkpt><trkpt lat="44.23035281041774" lon="10.775415558194005"><ele>968.0</ele><time>2026-05-02T12:12:53.999Z</time></trkpt><trkpt lat="44.2304613844662" lon="10.775550560931844"><ele>965.5</ele><time>2026-05-02T12:12:54.999Z</time></trkpt><trkpt lat="44.23057885471225" lon="10.77567081089987"><ele>963.0</ele><time>2026-05-02T12:12:55.999Z</time></trkpt><trkpt lat="44.230687012715585" lon="10.775803591918706"><ele>960.5</ele><time>2026-05-02T12:12:56.999Z</time></trkpt><trkpt lat="44.23079281741248" lon="10.775931797089665"><ele>958.0</ele><time>2026-05-02T12:12:57.999Z</time></trkpt><trkpt lat="44.23089144305829" lon="10.776058903868305"><ele>956.75</ele><time>2026-05-02T12:12:58.999Z</time></trkpt><trkpt lat="44.23097682722305" lon="10.776194209039843"><ele>955.5</ele><time>2026-05-02T12:12:59.999Z</time></trkpt><trkpt lat="44.23103036152363" lon="10.776367558049907"><ele>954.25</ele><time>2026-05-02T12:13:00.999Z</time></trkpt><trkpt lat="44.231100536060346" lon="10.776543357397925"><ele>953.0</ele><time>2026-05-02T12:13:01.999Z</time></trkpt><trkpt lat="44.23117539814418" lon="10.77672386865965"><ele>956.0</ele><time>2026-05-02T12:13:02.999Z</time></trkpt><trkpt lat="44.23126534422229" lon="10.77689280590922"><ele>959.0</ele><time>2026-05-02T12:13:03.999Z</time></trkpt><trkpt lat="44.2313657343666" lon="10.77703079758646"><ele>962.0</ele><time>2026-05-02T12:13:04.999Z</time></trkpt><trkpt lat="44.23144899895704" lon="10.77717371631247"><ele>965.0</ele><time>2026-05-02T12:13:05.999Z</time></trkpt><trkpt lat="44.231512276549786" lon="10.777335717234482"><ele>965.0</ele><time>2026-05-02T12:13:06.999Z</time></trkpt><trkpt lat="44.231564923443216" lon="10.777506583335418"><ele>965.0</ele><time>2026-05-02T12:13:07.999Z</time></trkpt><trkpt lat="44.23161368175672" lon="10.777687734043266"><ele>965.0</ele><time>2026-05-02T12:13:08.999Z</time></trkpt><trkpt lat="44.23166305497044" lon="10.777871742998101"><ele>965.0</ele><time>2026-05-02T12:13:09.999Z</time></trkpt><trkpt lat="44.23172635345692" lon="10.7780466175252"><ele>961.25</ele><time>2026-05-02T12:13:10.999Z</time></trkpt><trkpt lat="44.23177269190394" lon="10.778221212603901"><ele>957.5</ele><time>2026-05-02T12:13:11.999Z</time></trkpt><trkpt lat="44.23180347241102" lon="10.778390169551136"><ele>953.75</ele><time>2026-05-02T12:13:12.999Z</time></trkpt><trkpt lat="44.231864966876905" lon="10.778535773736667"><ele>950.0</ele><time>2026-05-02T12:13:13.999Z</time></trkpt><trkpt lat="44.231915943753485" lon="10.778672489521743"><ele>950.25</ele><time>2026-05-02T12:13:14.999Z</time></trkpt><trkpt lat="44.23198581827602" lon="10.778795195526232"><ele>950.5</ele><time>2026-05-02T12:13:15.999Z</time></trkpt><trkpt lat="44.2320804767429" lon="10.778912072020553"><ele>950.75</ele><time>2026-05-02T12:13:16.999Z</time></trkpt><trkpt lat="44.23219290312723" lon="10.77903324894179"><ele>951.0</ele><time>2026-05-02T12:13:17.999Z</time></trkpt><trkpt lat="44.232315724799086" lon="10.779158000026586"><ele>951.0</ele><time>2026-05-02T12:13:18.999Z</time></trkpt><trkpt lat="44.232431918725496" lon="10.779267014433964"><ele>950.9999999999999</ele><time>2026-05-02T12:13:19.999Z</time></trkpt><trkpt lat="44.23252655644681" lon="10.779350077789774"><ele>950.9999999999999</ele><time>2026-05-02T12:13:20.999Z</time></trkpt><trkpt lat="44.23260406909913" lon="10.779421547493282"><ele>951.0</ele><time>2026-05-02T12:13:21.999Z</time></trkpt><trkpt lat="44.232700421691554" lon="10.779389091125376"><ele>951.0</ele><time>2026-05-02T12:13:22.999Z</time></trkpt><trkpt lat="44.232779502605595" lon="10.779319094560755"><ele>951.0</ele><time>2026-05-02T12:13:23.999Z</time></trkpt><trkpt lat="44.2328566321524" lon="10.779213422841753"><ele>951.0</ele><time>2026-05-02T12:13:24.999Z</time></trkpt><trkpt lat="44.232948373983696" lon="10.779115489218638"><ele>951.0</ele><time>2026-05-02T12:13:25.999Z</time></trkpt><trkpt lat="44.23307509948953" lon="10.779087233588955"><ele>951.0</ele><time>2026-05-02T12:13:26.998Z</time></trkpt><trkpt lat="44.2332028860946" lon="10.779037384393188"><ele>950.0</ele><time>2026-05-02T12:13:27.998Z</time></trkpt><trkpt lat="44.23333514886516" lon="10.778959272099078"><ele>949.0</ele><time>2026-05-02T12:13:28.998Z</time></trkpt><trkpt lat="44.233462950897284" lon="10.778905574085302"><ele>948.0</ele><time>2026-05-02T12:13:29.998Z</time></trkpt><trkpt lat="44.233570832197174" lon="10.778869032786673"><ele>947.0</ele><time>2026-05-02T12:13:30.998Z</time></trkpt><trkpt lat="44.233670398640086" lon="10.778865098249536"><ele>947.0</ele><time>2026-05-02T12:13:31.998Z</time></trkpt><trkpt lat="44.23375900340252" lon="10.778930216805287"><ele>947.0</ele><time>2026-05-02T12:13:32.998Z</time></trkpt><trkpt lat="44.23386299057904" lon="10.778976181088849"><ele>947.0</ele><time>2026-05-02T12:13:33.998Z</time></trkpt><trkpt lat="44.23396242481597" lon="10.779046640178532"><ele>947.0</ele><time>2026-05-02T12:13:34.998Z</time></trkpt><trkpt lat="44.23406158760448" lon="10.779054252292651"><ele>947.0</ele><time>2026-05-02T12:13:35.998Z</time></trkpt><trkpt lat="44.23416228446313" lon="10.779008303414166"><ele>945.0</ele><time>2026-05-02T12:13:36.998Z</time></trkpt><trkpt lat="44.23425688134567" lon="10.778923182577637"><ele>943.0</ele><time>2026-05-02T12:13:37.998Z</time></trkpt><trkpt lat="44.23435539002" lon="10.778856396544665"><ele>941.0</ele><time>2026-05-02T12:13:38.998Z</time></trkpt><trkpt lat="44.23443622189995" lon="10.77877896987962"><ele>939.0</ele><time>2026-05-02T12:13:39.998Z</time></trkpt><trkpt lat="44.23449901966486" lon="10.778663897405545"><ele>937.0</ele><time>2026-05-02T12:13:40.998Z</time></trkpt><trkpt lat="44.234566450228236" lon="10.778531979680858"><ele>941.2</ele><time>2026-05-02T12:13:41.998Z</time></trkpt><trkpt lat="44.23459776773225" lon="10.778366027044369"><ele>945.4000000000001</ele><time>2026-05-02T12:13:42.998Z</time></trkpt><trkpt lat="44.23465161366372" lon="10.778223909407718"><ele>949.5999999999999</ele><time>2026-05-02T12:13:43.998Z</time></trkpt><trkpt lat="44.234670848314494" lon="10.778080079704159"><ele>953.8</ele><time>2026-05-02T12:13:44.998Z</time></trkpt><trkpt lat="44.23466733654371" lon="10.777935012492808"><ele>958.0</ele><time>2026-05-02T12:13:45.998Z</time></trkpt><trkpt lat="44.2346587335746" lon="10.777803411997029"><ele>957.9999999999999</ele><time>2026-05-02T12:13:46.998Z</time></trkpt><trkpt lat="44.234652188952005" lon="10.777687270247863"><ele>958.0</ele><time>2026-05-02T12:13:47.998Z</time></trkpt><trkpt lat="44.23465216747868" lon="10.777597949373856"><ele>958.0</ele><time>2026-05-02T12:13:48.998Z</time></trkpt><trkpt lat="44.23469941709589" lon="10.777525864255336"><ele>958.0</ele><time>2026-05-02T12:13:49.998Z</time></trkpt><trkpt lat="44.23481357107879" lon="10.777520384425296"><ele>957.9999999999999</ele><time>2026-05-02T12:13:51.998Z</time></trkpt><trkpt lat="44.2348682214856" lon="10.777611455003825"><ele>958.0</ele><time>2026-05-02T12:13:52.998Z</time></trkpt><trkpt lat="44.234905733763604" lon="10.777748481173582"><ele>958.0</ele><time>2026-05-02T12:13:53.998Z</time></trkpt><trkpt lat="44.23491559028285" lon="10.777901051601967"><ele>958.0</ele><time>2026-05-02T12:13:54.998Z</time></trkpt><trkpt lat="44.2348854634047" lon="10.778064201505563"><ele>958.0</ele><time>2026-05-02T12:13:55.998Z</time></trkpt><trkpt lat="44.23481551358244" lon="10.778222824434584"><ele>958.0</ele><time>2026-05-02T12:13:56.998Z</time></trkpt><trkpt lat="44.234753523574035" lon="10.778395972367422"><ele>951.0</ele><time>2026-05-02T12:13:57.998Z</time></trkpt><trkpt lat="44.23472233582041" lon="10.778616956755219"><ele>944.0</ele><time>2026-05-02T12:13:58.998Z</time></trkpt><trkpt lat="44.23470570102831" lon="10.778841981973581"><ele>937.0</ele><time>2026-05-02T12:13:59.998Z</time></trkpt><trkpt lat="44.23468736946772" lon="10.779052710271422"><ele>937.0</ele><time>2026-05-02T12:14:00.998Z</time></trkpt><trkpt lat="44.23469121526796" lon="10.779264645910452"><ele>937.0</ele><time>2026-05-02T12:14:01.998Z</time></trkpt><trkpt lat="44.2347255430091" lon="10.779453030203463"><ele>937.0</ele><time>2026-05-02T12:14:02.998Z</time></trkpt><trkpt lat="44.234770499472866" lon="10.779634481764408"><ele>937.0</ele><time>2026-05-02T12:14:03.999Z</time></trkpt><trkpt lat="44.23481991014749" lon="10.779799451912032"><ele>933.9999999999999</ele><time>2026-05-02T12:14:04.999Z</time></trkpt><trkpt lat="44.234850694269305" lon="10.779942362823293"><ele>931.0</ele><time>2026-05-02T12:14:05.999Z</time></trkpt><trkpt lat="44.23485578135827" lon="10.780055173842543"><ele>928.0</ele><time>2026-05-02T12:14:06.999Z</time></trkpt><trkpt lat="44.234851613295184" lon="10.780152544681272"><ele>925.0</ele><time>2026-05-02T12:14:07.999Z</time></trkpt><trkpt lat="44.23483112771181" lon="10.780237827149099"><ele>921.9999999999999</ele><time>2026-05-02T12:14:08.999Z</time></trkpt><trkpt lat="44.23474141611538" lon="10.780346093976483"><ele>919.0</ele><time>2026-05-02T12:14:10.999Z</time></trkpt><trkpt lat="44.23466632549181" lon="10.780369493210344"><ele>917.25</ele><time>2026-05-02T12:14:11.999Z</time></trkpt><trkpt lat="44.23457068078885" lon="10.780376550901472"><ele>915.5</ele><time>2026-05-02T12:14:12.999Z</time></trkpt><trkpt lat="44.234460912729354" lon="10.78034587700244"><ele>913.75</ele><time>2026-05-02T12:14:13.999Z</time></trkpt><trkpt lat="44.23433337341267" lon="10.780331241323289"><ele>912.0</ele><time>2026-05-02T12:14:14.999Z</time></trkpt><trkpt lat="44.234192976244444" lon="10.780315130169766"><ele>912.0</ele><time>2026-05-02T12:14:15.999Z</time></trkpt><trkpt lat="44.23402452721906" lon="10.780316229274575"><ele>912.0</ele><time>2026-05-02T12:14:16.999Z</time></trkpt><trkpt lat="44.233849440479574" lon="10.780286180709755"><ele>912.0</ele><time>2026-05-02T12:14:17.999Z</time></trkpt><trkpt lat="44.2336697404991" lon="10.780260660780316"><ele>911.0</ele><time>2026-05-02T12:14:18.999Z</time></trkpt><trkpt lat="44.23347896423924" lon="10.780270915123785"><ele>910.0</ele><time>2026-05-02T12:14:19.999Z</time></trkpt><trkpt lat="44.23328744151955" lon="10.780310208312386"><ele>909.0</ele><time>2026-05-02T12:14:20.999Z</time></trkpt><trkpt lat="44.233093579927136" lon="10.780372784371224"><ele>909.0</ele><time>2026-05-02T12:14:21.999Z</time></trkpt><trkpt lat="44.23289917128276" lon="10.780436380837445"><ele>909.0</ele><time>2026-05-02T12:14:22.999Z</time></trkpt><trkpt lat="44.23271516057438" lon="10.780494879565062"><ele>909.0</ele><time>2026-05-02T12:14:23.999Z</time></trkpt><trkpt lat="44.232538224014085" lon="10.780549151864035"><ele>909.0</ele><time>2026-05-02T12:14:24.999Z</time></trkpt><trkpt lat="44.23237069154852" lon="10.780601580037953"><ele>909.0</ele><time>2026-05-02T12:14:25.999Z</time></trkpt><trkpt lat="44.23221017141339" lon="10.780656249326213"><ele>909.0</ele><time>2026-05-02T12:14:26.999Z</time></trkpt><trkpt lat="44.232057398755444" lon="10.780708300361924"><ele>910.0</ele><time>2026-05-02T12:14:27.999Z</time></trkpt><trkpt lat="44.231910054892005" lon="10.780750594208765"><ele>911.0</ele><time>2026-05-02T12:14:28.999Z</time></trkpt><trkpt lat="44.23176196115066" lon="10.780779562867"><ele>912.0</ele><time>2026-05-02T12:14:29.999Z</time></trkpt><trkpt lat="44.231609049392766" lon="10.78078600065927"><ele>909.0</ele><time>2026-05-02T12:14:30.999Z</time></trkpt><trkpt lat="44.23144977873525" lon="10.780756937873376"><ele>906.0</ele><time>2026-05-02T12:14:31.999Z</time></trkpt><trkpt lat="44.231288539261634" lon="10.780692483507543"><ele>903.0</ele><time>2026-05-02T12:14:32.999Z</time></trkpt><trkpt lat="44.231130159303916" lon="10.780598201284556"><ele>903.0</ele><time>2026-05-02T12:14:33.999Z</time></trkpt><trkpt lat="44.23098239106521" lon="10.780482844640835"><ele>903.0</ele><time>2026-05-02T12:14:34.999Z</time></trkpt><trkpt lat="44.230852628167916" lon="10.780346536526174"><ele>903.0</ele><time>2026-05-02T12:14:35.999Z</time></trkpt><trkpt lat="44.23074725220018" lon="10.780186246185623"><ele>904.5</ele><time>2026-05-02T12:14:36.999Z</time></trkpt><trkpt lat="44.230657229192886" lon="10.780051373617225"><ele>906.0</ele><time>2026-05-02T12:14:37.999Z</time></trkpt><trkpt lat="44.230550492260654" lon="10.779947570363255"><ele>907.5</ele><time>2026-05-02T12:14:38.999Z</time></trkpt><trkpt lat="44.23043447185476" lon="10.779873592509325"><ele>909.0</ele><time>2026-05-02T12:14:39.999Z</time></trkpt><trkpt lat="44.230316125398545" lon="10.779835077505439"><ele>906.5</ele><time>2026-05-02T12:14:40.999Z</time></trkpt><trkpt lat="44.2301823379375" lon="10.779865572892"><ele>904.0</ele><time>2026-05-02T12:14:41.999Z</time></trkpt><trkpt lat="44.23004480184854" lon="10.779937191217307"><ele>901.5</ele><time>2026-05-02T12:14:42.999Z</time></trkpt><trkpt lat="44.229905641970795" lon="10.780041483256186"><ele>899.0</ele><time>2026-05-02T12:14:43.999Z</time></trkpt><trkpt lat="44.22975867469812" lon="10.780170317851605"><ele>895.0</ele><time>2026-05-02T12:14:44.999Z</time></trkpt><trkpt lat="44.229604750297995" lon="10.780312132164726"><ele>891.0</ele><time>2026-05-02T12:14:45.999Z</time></trkpt><trkpt lat="44.2294470207547" lon="10.780463694158733"><ele>887.0</ele><time>2026-05-02T12:14:46.999Z</time></trkpt><trkpt lat="44.229291111668054" lon="10.780610530456823"><ele>887.0</ele><time>2026-05-02T12:14:47.999Z</time></trkpt><trkpt lat="44.22913980306278" lon="10.780736918076709"><ele>887.0</ele><time>2026-05-02T12:14:48.999Z</time></trkpt><trkpt lat="44.22898386840783" lon="10.780830497917213"><ele>887.0</ele><time>2026-05-02T12:14:49.999Z</time></trkpt><trkpt lat="44.22882284542239" lon="10.780899783204614"><ele>887.0</ele><time>2026-05-02T12:14:50.999Z</time></trkpt><trkpt lat="44.228659190350854" lon="10.780968851884351"><ele>887.0</ele><time>2026-05-02T12:14:51.999Z</time></trkpt><trkpt lat="44.22849047919339" lon="10.781040226241297"><ele>887.0</ele><time>2026-05-02T12:14:52.999Z</time></trkpt><trkpt lat="44.2283202604824" lon="10.781118805932985"><ele>884.6666666666667</ele><time>2026-05-02T12:14:53.999Z</time></trkpt><trkpt lat="44.2281458852388" lon="10.781200897811944"><ele>882.3333333333333</ele><time>2026-05-02T12:14:54.999Z</time></trkpt><trkpt lat="44.227969123269226" lon="10.78128183564789"><ele>880.0</ele><time>2026-05-02T12:14:55.999Z</time></trkpt><trkpt lat="44.22779398328775" lon="10.781364622977485"><ele>879.6666666666666</ele><time>2026-05-02T12:14:56.999Z</time></trkpt><trkpt lat="44.2276263952922" lon="10.781442953815631"><ele>879.3333333333333</ele><time>2026-05-02T12:14:57.999Z</time></trkpt><trkpt lat="44.22746462764482" lon="10.781518028933512"><ele>879.0</ele><time>2026-05-02T12:14:58.999Z</time></trkpt><trkpt lat="44.22731058703502" lon="10.781588348965212"><ele>878.3333333333333</ele><time>2026-05-02T12:14:59.999Z</time></trkpt><trkpt lat="44.22716196045038" lon="10.781649989832385"><ele>877.6666666666666</ele><time>2026-05-02T12:15:00.999Z</time></trkpt><trkpt lat="44.227015681432" lon="10.781698334496772"><ele>877.0</ele><time>2026-05-02T12:15:01.999Z</time></trkpt><trkpt lat="44.22686521636896" lon="10.78172949209007"><ele>877.0</ele><time>2026-05-02T12:15:02.999Z</time></trkpt><trkpt lat="44.22670415626616" lon="10.781717791706495"><ele>877.0</ele><time>2026-05-02T12:15:03.999Z</time></trkpt><trkpt lat="44.22653879473946" lon="10.78171521011165"><ele>877.0</ele><time>2026-05-02T12:15:04.999Z</time></trkpt><trkpt lat="44.226384617115876" lon="10.781733176546844"><ele>876.0</ele><time>2026-05-02T12:15:05.999Z</time></trkpt><trkpt lat="44.226246868532435" lon="10.781726703871001"><ele>875.0</ele><time>2026-05-02T12:15:06.999Z</time></trkpt><trkpt lat="44.226121650812935" lon="10.781724552077282"><ele>874.0</ele><time>2026-05-02T12:15:07.999Z</time></trkpt><trkpt lat="44.22600285524598" lon="10.781718032344243"><ele>873.0</ele><time>2026-05-02T12:15:08.999Z</time></trkpt><trkpt lat="44.22589062946199" lon="10.781701736556872"><ele>873.0</ele><time>2026-05-02T12:15:09.999Z</time></trkpt><trkpt lat="44.22578485959425" lon="10.781672280183102"><ele>873.0</ele><time>2026-05-02T12:15:10.999Z</time></trkpt><trkpt lat="44.225685854390306" lon="10.781628382168487"><ele>873.0</ele><time>2026-05-02T12:15:11.999Z</time></trkpt><trkpt lat="44.22559650367339" lon="10.78157052495444"><ele>873.0</ele><time>2026-05-02T12:15:12.999Z</time></trkpt><trkpt lat="44.225522654050884" lon="10.781507826051195"><ele>873.0</ele><time>2026-05-02T12:15:13.999Z</time></trkpt><trkpt lat="44.225451053405585" lon="10.781444105668072"><ele>871.5</ele><time>2026-05-02T12:15:14.999Z</time></trkpt><trkpt lat="44.225380996208" lon="10.781400139501546"><ele>870.0</ele><time>2026-05-02T12:15:15.999Z</time></trkpt><trkpt lat="44.22530440743771" lon="10.781390412660487"><ele>868.5</ele><time>2026-05-02T12:15:16.999Z</time></trkpt><trkpt lat="44.22523329703665" lon="10.781417559820314"><ele>867.0</ele><time>2026-05-02T12:15:17.999Z</time></trkpt><trkpt lat="44.22517079163515" lon="10.781478948797453"><ele>865.5</ele><time>2026-05-02T12:15:18.999Z</time></trkpt><trkpt lat="44.22512361766832" lon="10.781577174298574"><ele>864.0</ele><time>2026-05-02T12:15:19.999Z</time></trkpt><trkpt lat="44.2250996674985" lon="10.781708235701954"><ele>864.5</ele><time>2026-05-02T12:15:20.999Z</time></trkpt><trkpt lat="44.225095973812486" lon="10.781871389047243"><ele>865.0</ele><time>2026-05-02T12:15:21.999Z</time></trkpt><trkpt lat="44.22510357979397" lon="10.78208214021931"><ele>865.5</ele><time>2026-05-02T12:15:22.999Z</time></trkpt><trkpt lat="44.22513826988237" lon="10.782293526061364"><ele>866.0</ele><time>2026-05-02T12:15:23.999Z</time></trkpt><trkpt lat="44.225169437210816" lon="10.782487676343925"><ele>866.0</ele><time>2026-05-02T12:15:24.999Z</time></trkpt><trkpt lat="44.22519670983995" lon="10.78265675759667"><ele>865.9999999999999</ele><time>2026-05-02T12:15:25.999Z</time></trkpt><trkpt lat="44.2252364919598" lon="10.782798739740597"><ele>865.9999999999999</ele><time>2026-05-02T12:15:26.999Z</time></trkpt><trkpt lat="44.22525820939751" lon="10.782940195009342"><ele>866.0</ele><time>2026-05-02T12:15:27.999Z</time></trkpt><trkpt lat="44.2252789020414" lon="10.783077423980162"><ele>866.0</ele><time>2026-05-02T12:15:28.999Z</time></trkpt><trkpt lat="44.22529728075397" lon="10.78320962398338"><ele>864.5999999999999</ele><time>2026-05-02T12:15:29.999Z</time></trkpt><trkpt lat="44.225319417102746" lon="10.783343411078926"><ele>863.1999999999999</ele><time>2026-05-02T12:15:30.999Z</time></trkpt><trkpt lat="44.22534883051563" lon="10.783477409477234"><ele>861.8000000000001</ele><time>2026-05-02T12:15:31.999Z</time></trkpt><trkpt lat="44.225390938155776" lon="10.783611224778841"><ele>860.4000000000001</ele><time>2026-05-02T12:15:32.998Z</time></trkpt><trkpt lat="44.225450289600545" lon="10.783734356500274"><ele>859.0</ele><time>2026-05-02T12:15:33.998Z</time></trkpt><trkpt lat="44.22551494512928" lon="10.783847317650041"><ele>857.9999999999999</ele><time>2026-05-02T12:15:34.998Z</time></trkpt><trkpt lat="44.22557814423562" lon="10.783948754677716"><ele>857.0</ele><time>2026-05-02T12:15:35.998Z</time></trkpt><trkpt lat="44.22564240759784" lon="10.784041593686789"><ele>856.0</ele><time>2026-05-02T12:15:36.998Z</time></trkpt><trkpt lat="44.225709964048754" lon="10.784119478975407"><ele>855.0</ele><time>2026-05-02T12:15:37.998Z</time></trkpt><trkpt lat="44.225783483895356" lon="10.784172905263857"><ele>853.9999999999999</ele><time>2026-05-02T12:15:38.998Z</time></trkpt><trkpt lat="44.22586165170139" lon="10.784185656255932"><ele>853.0</ele><time>2026-05-02T12:15:39.998Z</time></trkpt><trkpt lat="44.22593890249789" lon="10.784168857148307"><ele>852.9999999999999</ele><time>2026-05-02T12:15:40.998Z</time></trkpt><trkpt lat="44.22601436225906" lon="10.784120543218306"><ele>853.0</ele><time>2026-05-02T12:15:41.998Z</time></trkpt><trkpt lat="44.22608927111941" lon="10.784055850878241"><ele>853.0</ele><time>2026-05-02T12:15:42.998Z</time></trkpt><trkpt lat="44.226159148252385" lon="10.783984364953707"><ele>853.0</ele><time>2026-05-02T12:15:43.998Z</time></trkpt><trkpt lat="44.22622890018481" lon="10.783912449657427"><ele>852.9999999999999</ele><time>2026-05-02T12:15:44.998Z</time></trkpt><trkpt lat="44.22629689801007" lon="10.783844045505575"><ele>853.0</ele><time>2026-05-02T12:15:45.998Z</time></trkpt><trkpt lat="44.22636533260735" lon="10.783778890467309"><ele>852.9999999999999</ele><time>2026-05-02T12:15:46.998Z</time></trkpt><trkpt lat="44.22643401990701" lon="10.783718980378682"><ele>853.0</ele><time>2026-05-02T12:15:47.998Z</time></trkpt><trkpt lat="44.22650651008583" lon="10.783674096826543"><ele>853.0</ele><time>2026-05-02T12:15:48.998Z</time></trkpt><trkpt lat="44.22658817389434" lon="10.78366261392747"><ele>853.0</ele><time>2026-05-02T12:15:49.998Z</time></trkpt><trkpt lat="44.22667206735955" lon="10.783673406911864"><ele>852.9999999999999</ele><time>2026-05-02T12:15:50.998Z</time></trkpt><trkpt lat="44.22676326303108" lon="10.783702511641366"><ele>853.0</ele><time>2026-05-02T12:15:51.998Z</time></trkpt><trkpt lat="44.22685470818671" lon="10.783743758288596"><ele>851.4</ele><time>2026-05-02T12:15:52.998Z</time></trkpt><trkpt lat="44.22693851490298" lon="10.783783479068466"><ele>849.8</ele><time>2026-05-02T12:15:53.998Z</time></trkpt><trkpt lat="44.22702967197939" lon="10.783827569981227"><ele>848.2</ele><time>2026-05-02T12:15:54.998Z</time></trkpt><trkpt lat="44.227122977925134" lon="10.783873058524126"><ele>846.6</ele><time>2026-05-02T12:15:55.998Z</time></trkpt><trkpt lat="44.22721899503412" lon="10.783921236340372"><ele>845.0</ele><time>2026-05-02T12:15:56.998Z</time></trkpt><trkpt lat="44.2273135144192" lon="10.783983525750427"><ele>844.6</ele><time>2026-05-02T12:15:57.998Z</time></trkpt><trkpt lat="44.22740299603716" lon="10.78406320774609"><ele>844.2</ele><time>2026-05-02T12:15:58.998Z</time></trkpt><trkpt lat="44.22748905271601" lon="10.784148461753094"><ele>843.8</ele><time>2026-05-02T12:15:59.998Z</time></trkpt><trkpt lat="44.227570472530374" lon="10.784222229412848"><ele>843.4</ele><time>2026-05-02T12:16:00.998Z</time></trkpt><trkpt lat="44.227647627284675" lon="10.78429708896406"><ele>843.0</ele><time>2026-05-02T12:16:01.998Z</time></trkpt><trkpt lat="44.227723776745435" lon="10.78437971857165"><ele>841.2</ele><time>2026-05-02T12:16:02.998Z</time></trkpt><trkpt lat="44.227797055058154" lon="10.784474807160182"><ele>839.4</ele><time>2026-05-02T12:16:03.998Z</time></trkpt><trkpt lat="44.22786679957363" lon="10.784576370082535"><ele>837.6</ele><time>2026-05-02T12:16:04.998Z</time></trkpt><trkpt lat="44.227923996674804" lon="10.784684547130169"><ele>835.8000000000001</ele><time>2026-05-02T12:16:05.998Z</time></trkpt><trkpt lat="44.22796874657673" lon="10.784797875140923"><ele>834.0</ele><time>2026-05-02T12:16:06.998Z</time></trkpt><trkpt lat="44.22800423305516" lon="10.784913161179729"><ele>834.0</ele><time>2026-05-02T12:16:07.998Z</time></trkpt><trkpt lat="44.228024608456266" lon="10.78502885500767"><ele>834.0</ele><time>2026-05-02T12:16:08.999Z</time></trkpt><trkpt lat="44.22802348948732" lon="10.785143232971208"><ele>834.0</ele><time>2026-05-02T12:16:09.999Z</time></trkpt><trkpt lat="44.228009686092165" lon="10.785268017999858"><ele>834.0</ele><time>2026-05-02T12:16:10.999Z</time></trkpt><trkpt lat="44.227966574472205" lon="10.785386172422035"><ele>834.0</ele><time>2026-05-02T12:16:11.999Z</time></trkpt><trkpt lat="44.227929931651204" lon="10.785511498421636"><ele>833.1666666666666</ele><time>2026-05-02T12:16:12.999Z</time></trkpt><trkpt lat="44.2278958408755" lon="10.78562844427057"><ele>832.3333333333333</ele><time>2026-05-02T12:16:13.999Z</time></trkpt><trkpt lat="44.22786948674178" lon="10.785716039556831"><ele>831.5</ele><time>2026-05-02T12:16:14.999Z</time></trkpt><trkpt lat="44.22783866915873" lon="10.78580192257863"><ele>830.6666666666666</ele><time>2026-05-02T12:16:15.999Z</time></trkpt><trkpt lat="44.227773068311095" lon="10.785910437264711"><ele>829.8333333333333</ele><time>2026-05-02T12:16:17.999Z</time></trkpt><trkpt lat="44.227693646026836" lon="10.785957770672095"><ele>829.0</ele><time>2026-05-02T12:16:19.999Z</time></trkpt><trkpt lat="44.22761100546373" lon="10.78588622856451"><ele>829.0</ele><time>2026-05-02T12:16:21.999Z</time></trkpt><trkpt lat="44.227586170692796" lon="10.785726110190716"><ele>829.0</ele><time>2026-05-02T12:16:23.999Z</time></trkpt><trkpt lat="44.22762882520315" lon="10.785564839854413"><ele>829.0</ele><time>2026-05-02T12:16:25.999Z</time></trkpt><trkpt lat="44.22765952066488" lon="10.78547695638371"><ele>829.0</ele><time>2026-05-02T12:16:26.999Z</time></trkpt><trkpt lat="44.227682809097146" lon="10.785395174488956"><ele>829.0</ele><time>2026-05-02T12:16:27.999Z</time></trkpt><trkpt lat="44.22768457577218" lon="10.785234115942508"><ele>830.0</ele><time>2026-05-02T12:16:29.999Z</time></trkpt><trkpt lat="44.22766736990715" lon="10.785146406477885"><ele>831.0</ele><time>2026-05-02T12:16:30.999Z</time></trkpt><trkpt lat="44.22759120080352" lon="10.785097476039269"><ele>832.0</ele><time>2026-05-02T12:16:31.999Z</time></trkpt><trkpt lat="44.227513054368" lon="10.785093602711488"><ele>833.0</ele><time>2026-05-02T12:16:32.999Z</time></trkpt><trkpt lat="44.227423250929306" lon="10.785150258596643"><ele>834.0</ele><time>2026-05-02T12:16:33.999Z</time></trkpt><trkpt lat="44.22730797006751" lon="10.785214702477173"><ele>830.0</ele><time>2026-05-02T12:16:34.999Z</time></trkpt><trkpt lat="44.22717424518532" lon="10.785311207850334"><ele>826.0</ele><time>2026-05-02T12:16:35.999Z</time></trkpt><trkpt lat="44.22702837021691" lon="10.785416481582631"><ele>822.0</ele><time>2026-05-02T12:16:36.999Z</time></trkpt><trkpt lat="44.22685611710587" lon="10.785558165398657"><ele>822.0</ele><time>2026-05-02T12:16:37.999Z</time></trkpt><trkpt lat="44.22667499268163" lon="10.785692431886181"><ele>822.0</ele><time>2026-05-02T12:16:38.999Z</time></trkpt><trkpt lat="44.22651006792715" lon="10.785784786197741"><ele>822.0</ele><time>2026-05-02T12:16:39.999Z</time></trkpt><trkpt lat="44.22638352099939" lon="10.785894436302339"><ele>822.0</ele><time>2026-05-02T12:16:40.999Z</time></trkpt><trkpt lat="44.22624764982986" lon="10.785944123215106"><ele>822.0</ele><time>2026-05-02T12:16:41.999Z</time></trkpt><trkpt lat="44.22610459195741" lon="10.785947099536187"><ele>822.0</ele><time>2026-05-02T12:16:42.999Z</time></trkpt><trkpt lat="44.2259347653436" lon="10.785898788947952"><ele>822.0</ele><time>2026-05-02T12:16:43.999Z</time></trkpt><trkpt lat="44.22575473183505" lon="10.785835477839383"><ele>822.0</ele><time>2026-05-02T12:16:44.999Z</time></trkpt><trkpt lat="44.22559780279459" lon="10.785779031769795"><ele>822.0</ele><time>2026-05-02T12:16:45.999Z</time></trkpt><trkpt lat="44.225463411617326" lon="10.785695755801576"><ele>819.0</ele><time>2026-05-02T12:16:46.999Z</time></trkpt><trkpt lat="44.225364534175164" lon="10.785552144102786"><ele>816.0</ele><time>2026-05-02T12:16:47.999Z</time></trkpt><trkpt lat="44.225274573115954" lon="10.785421628040396"><ele>813.0</ele><time>2026-05-02T12:16:48.999Z</time></trkpt><trkpt lat="44.22521717975675" lon="10.785288632159716"><ele>810.0</ele><time>2026-05-02T12:16:49.999Z</time></trkpt><trkpt lat="44.22515751806321" lon="10.785199807602329"><ele>810.0</ele><time>2026-05-02T12:16:50.999Z</time></trkpt><trkpt lat="44.22507755133399" lon="10.785171678820312"><ele>810.0</ele><time>2026-05-02T12:16:51.999Z</time></trkpt><trkpt lat="44.22499632448224" lon="10.7852031799035"><ele>810.0</ele><time>2026-05-02T12:16:52.999Z</time></trkpt><trkpt lat="44.22493930942588" lon="10.785286541884306"><ele>810.0</ele><time>2026-05-02T12:16:53.999Z</time></trkpt><trkpt lat="44.224919900949004" lon="10.785405851756428"><ele>810.0</ele><time>2026-05-02T12:16:54.999Z</time></trkpt><trkpt lat="44.22494594808253" lon="10.78552696271583"><ele>810.0</ele><time>2026-05-02T12:16:55.999Z</time></trkpt><trkpt lat="44.225021767200495" lon="10.785622821864782"><ele>810.0</ele><time>2026-05-02T12:16:56.999Z</time></trkpt><trkpt lat="44.225129566715516" lon="10.785682894665293"><ele>810.0</ele><time>2026-05-02T12:16:57.999Z</time></trkpt><trkpt lat="44.2252297897853" lon="10.785753794999543"><ele>810.0</ele><time>2026-05-02T12:16:58.999Z</time></trkpt><trkpt lat="44.22528548483659" lon="10.785900122035704"><ele>810.0</ele><time>2026-05-02T12:16:59.999Z</time></trkpt><trkpt lat="44.2252677424813" lon="10.786089933460868"><ele>808.0</ele><time>2026-05-02T12:17:00.999Z</time></trkpt><trkpt lat="44.225270467032075" lon="10.786292380407705"><ele>806.0</ele><time>2026-05-02T12:17:01.999Z</time></trkpt><trkpt lat="44.22525483180698" lon="10.786481940844103"><ele>804.0</ele><time>2026-05-02T12:17:02.999Z</time></trkpt><trkpt lat="44.2252516714327" lon="10.78666447713476"><ele>802.0</ele><time>2026-05-02T12:17:03.999Z</time></trkpt><trkpt lat="44.22525126558789" lon="10.786831184096688"><ele>801.4000000000001</ele><time>2026-05-02T12:17:04.999Z</time></trkpt><trkpt lat="44.22527137353777" lon="10.786973528902722"><ele>800.8000000000001</ele><time>2026-05-02T12:17:05.999Z</time></trkpt><trkpt lat="44.225328077114256" lon="10.787081051285957"><ele>800.2</ele><time>2026-05-02T12:17:06.999Z</time></trkpt><trkpt lat="44.22541357317294" lon="10.787142923205394"><ele>799.6</ele><time>2026-05-02T12:17:07.999Z</time></trkpt><trkpt lat="44.22552736764746" lon="10.787141238312536"><ele>799.0</ele><time>2026-05-02T12:17:08.999Z</time></trkpt><trkpt lat="44.22565935042274" lon="10.787092618885856"><ele>799.0</ele><time>2026-05-02T12:17:09.999Z</time></trkpt><trkpt lat="44.22580561440783" lon="10.787071350679975"><ele>799.0</ele><time>2026-05-02T12:17:10.999Z</time></trkpt><trkpt lat="44.225931982776466" lon="10.787103302746445"><ele>799.0</ele><time>2026-05-02T12:17:11.999Z</time></trkpt><trkpt lat="44.22604491362629" lon="10.787168332637489"><ele>799.0</ele><time>2026-05-02T12:17:12.999Z</time></trkpt><trkpt lat="44.22614785667565" lon="10.787249800784181"><ele>799.0</ele><time>2026-05-02T12:17:13.999Z</time></trkpt><trkpt lat="44.2262399954796" lon="10.78732951585971"><ele>799.0</ele><time>2026-05-02T12:17:14.999Z</time></trkpt><trkpt lat="44.22632706626893" lon="10.787408397660112"><ele>799.0</ele><time>2026-05-02T12:17:15.999Z</time></trkpt><trkpt lat="44.226406892967944" lon="10.787490683287784"><ele>799.0</ele><time>2026-05-02T12:17:16.999Z</time></trkpt><trkpt lat="44.22644098374486" lon="10.787622925789604"><ele>799.0</ele><time>2026-05-02T12:17:17.999Z</time></trkpt><trkpt lat="44.22642414698177" lon="10.787768042606876"><ele>797.0</ele><time>2026-05-02T12:17:18.999Z</time></trkpt><trkpt lat="44.226364273719085" lon="10.787907570952589"><ele>795.0</ele><time>2026-05-02T12:17:19.999Z</time></trkpt><trkpt lat="44.226265460759485" lon="10.788042648051015"><ele>793.0</ele><time>2026-05-02T12:17:20.999Z</time></trkpt><trkpt lat="44.22616900732545" lon="10.788178915009244"><ele>791.0</ele><time>2026-05-02T12:17:21.999Z</time></trkpt><trkpt lat="44.22610023606194" lon="10.788317132860172"><ele>791.0</ele><time>2026-05-02T12:17:22.999Z</time></trkpt><trkpt lat="44.22606938869436" lon="10.788453448482564"><ele>791.0</ele><time>2026-05-02T12:17:23.999Z</time></trkpt><trkpt lat="44.22608866857928" lon="10.788599267565703"><ele>791.0</ele><time>2026-05-02T12:17:24.999Z</time></trkpt><trkpt lat="44.226148126214" lon="10.788755175270017"><ele>791.0</ele><time>2026-05-02T12:17:25.999Z</time></trkpt><trkpt lat="44.22622330336671" lon="10.78891640893369"><ele>790.6666666666667</ele><time>2026-05-02T12:17:26.999Z</time></trkpt><trkpt lat="44.22632310104402" lon="10.789056131611408"><ele>790.3333333333333</ele><time>2026-05-02T12:17:27.999Z</time></trkpt><trkpt lat="44.226452562381894" lon="10.78915456699108"><ele>790.0</ele><time>2026-05-02T12:17:28.999Z</time></trkpt><trkpt lat="44.22660701843822" lon="10.789220609960738"><ele>790.0</ele><time>2026-05-02T12:17:29.999Z</time></trkpt><trkpt lat="44.22674979781141" lon="10.789283203935941"><ele>790.0</ele><time>2026-05-02T12:17:30.999Z</time></trkpt><trkpt lat="44.226872754400084" lon="10.789375456892794"><ele>790.0</ele><time>2026-05-02T12:17:31.999Z</time></trkpt><trkpt lat="44.226971133164774" lon="10.78949676455643"><ele>790.0</ele><time>2026-05-02T12:17:32.999Z</time></trkpt><trkpt lat="44.22704944952946" lon="10.789642215412126"><ele>786.6666666666666</ele><time>2026-05-02T12:17:33.999Z</time></trkpt><trkpt lat="44.22713185571536" lon="10.789828838919114"><ele>783.3333333333333</ele><time>2026-05-02T12:17:34.999Z</time></trkpt><trkpt lat="44.22722162367578" lon="10.790026524385038"><ele>780.0</ele><time>2026-05-02T12:17:35.999Z</time></trkpt><trkpt lat="44.22729758455895" lon="10.790200064000473"><ele>778.25</ele><time>2026-05-02T12:17:36.999Z</time></trkpt><trkpt lat="44.22738116163672" lon="10.790342281031197"><ele>776.5</ele><time>2026-05-02T12:17:37.999Z</time></trkpt><trkpt lat="44.227492254568844" lon="10.790437373375791"><ele>774.75</ele><time>2026-05-02T12:17:38.999Z</time></trkpt><trkpt lat="44.22763759044294" lon="10.79049079090631"><ele>773.0</ele><time>2026-05-02T12:17:39.999Z</time></trkpt><trkpt lat="44.22779766765192" lon="10.790516762542023"><ele>773.0</ele><time>2026-05-02T12:17:40.999Z</time></trkpt><trkpt lat="44.22793601178496" lon="10.790518881052352"><ele>773.0</ele><time>2026-05-02T12:17:41.998Z</time></trkpt><trkpt lat="44.22805797272527" lon="10.790468128047134"><ele>773.0</ele><time>2026-05-02T12:17:42.998Z</time></trkpt><trkpt lat="44.2281546088454" lon="10.7903777341258"><ele>773.0</ele><time>2026-05-02T12:17:43.998Z</time></trkpt><trkpt lat="44.22823414119812" lon="10.790363320388783"><ele>773.0</ele><time>2026-05-02T12:17:44.998Z</time></trkpt><trkpt lat="44.22830258047808" lon="10.79041973555505"><ele>773.0</ele><time>2026-05-02T12:17:45.998Z</time></trkpt><trkpt lat="44.22833677884922" lon="10.79052430474581"><ele>773.0</ele><time>2026-05-02T12:17:46.998Z</time></trkpt><trkpt lat="44.228320029400095" lon="10.790641767867779"><ele>773.0</ele><time>2026-05-02T12:17:47.998Z</time></trkpt><trkpt lat="44.22825055067441" lon="10.790744814156785"><ele>773.0</ele><time>2026-05-02T12:17:48.998Z</time></trkpt><trkpt lat="44.22813176823986" lon="10.79082737061236"><ele>773.0</ele><time>2026-05-02T12:17:49.998Z</time></trkpt><trkpt lat="44.22798175956319" lon="10.790833996495742"><ele>773.0</ele><time>2026-05-02T12:17:50.998Z</time></trkpt><trkpt lat="44.227822788584895" lon="10.79081149274341"><ele>773.0</ele><time>2026-05-02T12:17:51.998Z</time></trkpt><trkpt lat="44.2276618719068" lon="10.790798619436586"><ele>773.0</ele><time>2026-05-02T12:17:52.998Z</time></trkpt><trkpt lat="44.22749624438176" lon="10.790760003546566"><ele>773.0</ele><time>2026-05-02T12:17:53.998Z</time></trkpt><trkpt lat="44.227329340435745" lon="10.790711545986857"><ele>773.0</ele><time>2026-05-02T12:17:54.998Z</time></trkpt><trkpt lat="44.22716518689622" lon="10.790695360907847"><ele>771.3333333333334</ele><time>2026-05-02T12:17:55.998Z</time></trkpt><trkpt lat="44.22700882688196" lon="10.79071110036996"><ele>769.6666666666667</ele><time>2026-05-02T12:17:56.998Z</time></trkpt><trkpt lat="44.226859482919906" lon="10.790697498203398"><ele>768.0</ele><time>2026-05-02T12:17:57.998Z</time></trkpt><trkpt lat="44.22671043294457" lon="10.790630848475956"><ele>768.0</ele><time>2026-05-02T12:17:58.998Z</time></trkpt><trkpt lat="44.22657940217341" lon="10.790533220082677"><ele>768.0</ele><time>2026-05-02T12:17:59.998Z</time></trkpt><trkpt lat="44.22644894520154" lon="10.79049904587766"><ele>768.0</ele><time>2026-05-02T12:18:00.998Z</time></trkpt><trkpt lat="44.22630510155066" lon="10.790533939601666"><ele>768.0</ele><time>2026-05-02T12:18:01.998Z</time></trkpt><trkpt lat="44.226151658114105" lon="10.790599898205409"><ele>765.25</ele><time>2026-05-02T12:18:02.998Z</time></trkpt><trkpt lat="44.22599239371592" lon="10.79063848021219"><ele>762.5</ele><time>2026-05-02T12:18:03.998Z</time></trkpt><trkpt lat="44.225848857103095" lon="10.790637044728246"><ele>759.75</ele><time>2026-05-02T12:18:04.998Z</time></trkpt><trkpt lat="44.22571844810433" lon="10.790598604112"><ele>757.0</ele><time>2026-05-02T12:18:05.998Z</time></trkpt><trkpt lat="44.22560838226825" lon="10.790507682021897"><ele>758.3333333333334</ele><time>2026-05-02T12:18:06.998Z</time></trkpt><trkpt lat="44.22552909532614" lon="10.79033695708743"><ele>759.6666666666666</ele><time>2026-05-02T12:18:07.998Z</time></trkpt><trkpt lat="44.225395708708355" lon="10.790201817262133"><ele>761.0</ele><time>2026-05-02T12:18:08.998Z</time></trkpt><trkpt lat="44.22523411248613" lon="10.790064994204581"><ele>761.0</ele><time>2026-05-02T12:18:09.998Z</time></trkpt><trkpt lat="44.22502375460379" lon="10.789948901961212"><ele>761.0</ele><time>2026-05-02T12:18:10.998Z</time></trkpt><trkpt lat="44.22482385815275" lon="10.789856565648234"><ele>761.0</ele><time>2026-05-02T12:18:11.998Z</time></trkpt><trkpt lat="44.22464344050118" lon="10.78977789412375"><ele>759.0</ele><time>2026-05-02T12:18:12.998Z</time></trkpt><trkpt lat="44.224488338785264" lon="10.789716218035757"><ele>757.0</ele><time>2026-05-02T12:18:13.998Z</time></trkpt><trkpt lat="44.22435552371745" lon="10.789674840234527"><ele>755.0</ele><time>2026-05-02T12:18:14.999Z</time></trkpt><trkpt lat="44.22423764123814" lon="10.789659381455992"><ele>753.0</ele><time>2026-05-02T12:18:15.999Z</time></trkpt><trkpt lat="44.2241408374072" lon="10.789679447583595"><ele>753.0</ele><time>2026-05-02T12:18:16.999Z</time></trkpt><trkpt lat="44.224061949993335" lon="10.789735898909406"><ele>753.0</ele><time>2026-05-02T12:18:17.999Z</time></trkpt><trkpt lat="44.2240110865079" lon="10.789828390254783"><ele>753.0</ele><time>2026-05-02T12:18:18.999Z</time></trkpt><trkpt lat="44.22400250566953" lon="10.789950475107988"><ele>753.0</ele><time>2026-05-02T12:18:19.999Z</time></trkpt><trkpt lat="44.224045267822994" lon="10.790063213998065"><ele>753.0</ele><time>2026-05-02T12:18:20.999Z</time></trkpt><trkpt lat="44.22413262919694" lon="10.790149660063479"><ele>748.3333333333334</ele><time>2026-05-02T12:18:21.999Z</time></trkpt><trkpt lat="44.22426928592147" lon="10.790195463304743"><ele>743.6666666666667</ele><time>2026-05-02T12:18:22.999Z</time></trkpt><trkpt lat="44.22442895188034" lon="10.79024397696768"><ele>739.0</ele><time>2026-05-02T12:18:23.999Z</time></trkpt><trkpt lat="44.22459504870159" lon="10.790353902946867"><ele>739.0</ele><time>2026-05-02T12:18:24.999Z</time></trkpt><trkpt lat="44.22475236985179" lon="10.790504745598657"><ele>739.0</ele><time>2026-05-02T12:18:25.999Z</time></trkpt><trkpt lat="44.22486883342413" lon="10.790672299280404"><ele>739.0</ele><time>2026-05-02T12:18:26.999Z</time></trkpt><trkpt lat="44.224943962126936" lon="10.790860425829178"><ele>737.5</ele><time>2026-05-02T12:18:27.999Z</time></trkpt><trkpt lat="44.224975506664094" lon="10.791061172463845"><ele>736.0</ele><time>2026-05-02T12:18:28.999Z</time></trkpt><trkpt lat="44.22501569686795" lon="10.791243965498854"><ele>734.5</ele><time>2026-05-02T12:18:29.999Z</time></trkpt><trkpt lat="44.225091108678114" lon="10.791385028268454"><ele>733.0</ele><time>2026-05-02T12:18:30.999Z</time></trkpt><trkpt lat="44.22518976243185" lon="10.791488517390915"><ele>733.0</ele><time>2026-05-02T12:18:31.999Z</time></trkpt><trkpt lat="44.22530812716716" lon="10.791531289446056"><ele>733.0</ele><time>2026-05-02T12:18:32.999Z</time></trkpt><trkpt lat="44.22541518073982" lon="10.791575787235123"><ele>733.0</ele><time>2026-05-02T12:18:33.999Z</time></trkpt><trkpt lat="44.225476184044965" lon="10.791676200206224"><ele>733.0</ele><time>2026-05-02T12:18:34.999Z</time></trkpt><trkpt lat="44.225479358674384" lon="10.79179614327647"><ele>733.0</ele><time>2026-05-02T12:18:35.999Z</time></trkpt><trkpt lat="44.22542997331803" lon="10.79189163783496"><ele>733.0</ele><time>2026-05-02T12:18:36.999Z</time></trkpt><trkpt lat="44.2253403501667" lon="10.791935376855262"><ele>733.0</ele><time>2026-05-02T12:18:37.999Z</time></trkpt><trkpt lat="44.22522066746689" lon="10.791896257558827"><ele>733.0</ele><time>2026-05-02T12:18:38.999Z</time></trkpt><trkpt lat="44.22508909749924" lon="10.791807771083562"><ele>733.0</ele><time>2026-05-02T12:18:39.999Z</time></trkpt><trkpt lat="44.224952628935654" lon="10.791696521286074"><ele>733.0</ele><time>2026-05-02T12:18:40.999Z</time></trkpt><trkpt lat="44.22483808162841" lon="10.791530771079632"><ele>733.0</ele><time>2026-05-02T12:18:41.999Z</time></trkpt><trkpt lat="44.224740612815786" lon="10.791376116976405"><ele>733.0</ele><time>2026-05-02T12:18:42.999Z</time></trkpt><trkpt lat="44.224620114302844" lon="10.791279104486026"><ele>731.75</ele><time>2026-05-02T12:18:43.999Z</time></trkpt><trkpt lat="44.22449223421426" lon="10.791234308731811"><ele>730.5</ele><time>2026-05-02T12:18:44.999Z</time></trkpt><trkpt lat="44.22436468033542" lon="10.791248144191599"><ele>729.25</ele><time>2026-05-02T12:18:45.999Z</time></trkpt><trkpt lat="44.22424559225587" lon="10.791311790295982"><ele>728.0</ele><time>2026-05-02T12:18:46.999Z</time></trkpt><trkpt lat="44.2241468080642" lon="10.791439887500756"><ele>728.0</ele><time>2026-05-02T12:18:47.999Z</time></trkpt><trkpt lat="44.22406088759499" lon="10.791600755173738"><ele>728.0</ele><time>2026-05-02T12:18:48.999Z</time></trkpt><trkpt lat="44.22394991334601" lon="10.791722635436658"><ele>728.0</ele><time>2026-05-02T12:18:49.999Z</time></trkpt><trkpt lat="44.22380826309748" lon="10.791782398729177"><ele>728.0</ele><time>2026-05-02T12:18:50.999Z</time></trkpt><trkpt lat="44.22364935828311" lon="10.791809358746017"><ele>727.3333333333333</ele><time>2026-05-02T12:18:51.999Z</time></trkpt><trkpt lat="44.22350067873707" lon="10.791781449451364"><ele>726.6666666666666</ele><time>2026-05-02T12:18:52.999Z</time></trkpt><trkpt lat="44.22335628763079" lon="10.79169333447951"><ele>726.0</ele><time>2026-05-02T12:18:53.999Z</time></trkpt><trkpt lat="44.22322592438786" lon="10.791593495356024"><ele>726.0</ele><time>2026-05-02T12:18:54.999Z</time></trkpt><trkpt lat="44.22311633538499" lon="10.791547710899987"><ele>726.0</ele><time>2026-05-02T12:18:55.999Z</time></trkpt><trkpt lat="44.223002062615066" lon="10.791547482787374"><ele>726.0</ele><time>2026-05-02T12:18:56.999Z</time></trkpt><trkpt lat="44.222872180486966" lon="10.791617625964639"><ele>726.0</ele><time>2026-05-02T12:18:57.999Z</time></trkpt><trkpt lat="44.222724598730906" lon="10.791700342708996"><ele>726.0</ele><time>2026-05-02T12:18:58.999Z</time></trkpt><trkpt lat="44.22256248739553" lon="10.791805370539649"><ele>726.0</ele><time>2026-05-02T12:18:59.999Z</time></trkpt><trkpt lat="44.222425816491395" lon="10.791923682426708"><ele>726.0</ele><time>2026-05-02T12:19:00.999Z</time></trkpt><trkpt lat="44.222307335490704" lon="10.792023318331143"><ele>726.25</ele><time>2026-05-02T12:19:01.999Z</time></trkpt><trkpt lat="44.22222563240979" lon="10.792159590480018"><ele>726.5</ele><time>2026-05-02T12:19:02.999Z</time></trkpt><trkpt lat="44.22218112690874" lon="10.79233514071722"><ele>726.75</ele><time>2026-05-02T12:19:03.999Z</time></trkpt><trkpt lat="44.22213921868094" lon="10.792483012431022"><ele>727.0</ele><time>2026-05-02T12:19:04.999Z</time></trkpt><trkpt lat="44.222056302640205" lon="10.792579095825536"><ele>727.0</ele><time>2026-05-02T12:19:05.999Z</time></trkpt><trkpt lat="44.22193644003752" lon="10.792629222638542"><ele>727.0</ele><time>2026-05-02T12:19:06.999Z</time></trkpt><trkpt lat="44.22180461050696" lon="10.792677861764199"><ele>727.0</ele><time>2026-05-02T12:19:07.999Z</time></trkpt><trkpt lat="44.22169294844335" lon="10.792744398610784"><ele>727.0</ele><time>2026-05-02T12:19:08.999Z</time></trkpt><trkpt lat="44.22162526452811" lon="10.792910451481488"><ele>725.0</ele><time>2026-05-02T12:19:09.999Z</time></trkpt><trkpt lat="44.221572715282974" lon="10.793097653762183"><ele>723.0</ele><time>2026-05-02T12:19:10.999Z</time></trkpt><trkpt lat="44.221499827232655" lon="10.793269602716913"><ele>721.0</ele><time>2026-05-02T12:19:11.999Z</time></trkpt><trkpt lat="44.22139401569529" lon="10.793426931530513"><ele>719.0</ele><time>2026-05-02T12:19:12.999Z</time></trkpt><trkpt lat="44.221315722662496" lon="10.793589638153852"><ele>719.0</ele><time>2026-05-02T12:19:13.999Z</time></trkpt><trkpt lat="44.22128420420484" lon="10.793773025752913"><ele>719.0</ele><time>2026-05-02T12:19:14.999Z</time></trkpt><trkpt lat="44.22124694177149" lon="10.793966650382762"><ele>719.0</ele><time>2026-05-02T12:19:15.999Z</time></trkpt><trkpt lat="44.22116684296749" lon="10.794161077762563"><ele>719.0</ele><time>2026-05-02T12:19:16.999Z</time></trkpt><trkpt lat="44.22106617414053" lon="10.79434655381753"><ele>713.3333333333333</ele><time>2026-05-02T12:19:17.999Z</time></trkpt><trkpt lat="44.220941359246424" lon="10.79452856810658"><ele>707.6666666666666</ele><time>2026-05-02T12:19:18.999Z</time></trkpt><trkpt lat="44.22080442611076" lon="10.794695653783409"><ele>702.0</ele><time>2026-05-02T12:19:19.999Z</time></trkpt><trkpt lat="44.22068909806545" lon="10.794851436962034"><ele>703.0</ele><time>2026-05-02T12:19:20.999Z</time></trkpt><trkpt lat="44.22061698196021" lon="10.795023167883189"><ele>704.0</ele><time>2026-05-02T12:19:21.999Z</time></trkpt><trkpt lat="44.22057606651689" lon="10.795213871719467"><ele>705.0</ele><time>2026-05-02T12:19:22.999Z</time></trkpt><trkpt lat="44.22053999722978" lon="10.795362946377088"><ele>706.0</ele><time>2026-05-02T12:19:23.999Z</time></trkpt><trkpt lat="44.22048111790467" lon="10.795450611132981"><ele>706.0</ele><time>2026-05-02T12:19:24.999Z</time></trkpt><trkpt lat="44.220395204281786" lon="10.795477494040796"><ele>706.0</ele><time>2026-05-02T12:19:25.999Z</time></trkpt><trkpt lat="44.22030810613775" lon="10.795451106321124"><ele>706.0</ele><time>2026-05-02T12:19:26.999Z</time></trkpt><trkpt lat="44.220225178117225" lon="10.795341986396982"><ele>706.0</ele><time>2026-05-02T12:19:27.999Z</time></trkpt><trkpt lat="44.22012936420537" lon="10.795179397420036"><ele>706.0</ele><time>2026-05-02T12:19:28.999Z</time></trkpt><trkpt lat="44.220017088717235" lon="10.795015937643331"><ele>706.0</ele><time>2026-05-02T12:19:29.999Z</time></trkpt><trkpt lat="44.21990034167158" lon="10.794896816072582"><ele>706.0</ele><time>2026-05-02T12:19:30.999Z</time></trkpt><trkpt lat="44.21977825602722" lon="10.794820798016778"><ele>706.0</ele><time>2026-05-02T12:19:31.999Z</time></trkpt><trkpt lat="44.21964143290407" lon="10.794790583700529"><ele>706.0</ele><time>2026-05-02T12:19:32.999Z</time></trkpt><trkpt lat="44.219491589960555" lon="10.794817678893745"><ele>705.0</ele><time>2026-05-02T12:19:33.999Z</time></trkpt><trkpt lat="44.21933102507138" lon="10.794893422920703"><ele>704.0</ele><time>2026-05-02T12:19:34.999Z</time></trkpt><trkpt lat="44.21915912318959" lon="10.794982482374518"><ele>703.0</ele><time>2026-05-02T12:19:35.999Z</time></trkpt><trkpt lat="44.21898577062407" lon="10.795096423431648"><ele>698.6666666666667</ele><time>2026-05-02T12:19:36.999Z</time></trkpt><trkpt lat="44.21881814053925" lon="10.795237867680193"><ele>694.3333333333334</ele><time>2026-05-02T12:19:37.999Z</time></trkpt><trkpt lat="44.21866939656282" lon="10.795389387048903"><ele>690.0</ele><time>2026-05-02T12:19:38.999Z</time></trkpt><trkpt lat="44.21852915626763" lon="10.795530286285295"><ele>690.0</ele><time>2026-05-02T12:19:39.999Z</time></trkpt><trkpt lat="44.21838711854551" lon="10.795629566542473"><ele>690.0</ele><time>2026-05-02T12:19:40.999Z</time></trkpt><trkpt lat="44.21823553739866" lon="10.795688791033447"><ele>690.0</ele><time>2026-05-02T12:19:41.999Z</time></trkpt><trkpt lat="44.21807186350879" lon="10.795716241814036"><ele>691.6666666666666</ele><time>2026-05-02T12:19:42.999Z</time></trkpt><trkpt lat="44.21789654703714" lon="10.795748183606431"><ele>693.3333333333333</ele><time>2026-05-02T12:19:43.999Z</time></trkpt><trkpt lat="44.21772075773466" lon="10.795810084951453"><ele>695.0</ele><time>2026-05-02T12:19:44.999Z</time></trkpt><trkpt lat="44.21755316019794" lon="10.795923389327513"><ele>688.6666666666666</ele><time>2026-05-02T12:19:45.999Z</time></trkpt><trkpt lat="44.21740076113936" lon="10.796033626492765"><ele>682.3333333333334</ele><time>2026-05-02T12:19:46.999Z</time></trkpt><trkpt lat="44.21727077272796" lon="10.796150322951146"><ele>676.0</ele><time>2026-05-02T12:19:47.998Z</time></trkpt><trkpt lat="44.2171788101964" lon="10.796273991644807"><ele>676.0</ele><time>2026-05-02T12:19:48.998Z</time></trkpt><trkpt lat="44.21709350063751" lon="10.796363682357173"><ele>676.0</ele><time>2026-05-02T12:19:49.998Z</time></trkpt><trkpt lat="44.21699410469681" lon="10.796392820102708"><ele>676.0</ele><time>2026-05-02T12:19:50.998Z</time></trkpt><trkpt lat="44.21688479038226" lon="10.796351921631805"><ele>676.0</ele><time>2026-05-02T12:19:51.998Z</time></trkpt><trkpt lat="44.21674954026783" lon="10.796295586099575"><ele>676.0</ele><time>2026-05-02T12:19:52.998Z</time></trkpt><trkpt lat="44.216584281131844" lon="10.79625961156911"><ele>676.0</ele><time>2026-05-02T12:19:53.998Z</time></trkpt><trkpt lat="44.21639596366643" lon="10.796247572176414"><ele>676.0</ele><time>2026-05-02T12:19:54.998Z</time></trkpt><trkpt lat="44.21619815474772" lon="10.79624587454649"><ele>674.3333333333334</ele><time>2026-05-02T12:19:55.998Z</time></trkpt><trkpt lat="44.216004076321255" lon="10.796220886466147"><ele>672.6666666666666</ele><time>2026-05-02T12:19:56.998Z</time></trkpt><trkpt lat="44.21582403261764" lon="10.79619314628855"><ele>671.0</ele><time>2026-05-02T12:19:57.998Z</time></trkpt><trkpt lat="44.21565165124969" lon="10.79617658955825"><ele>669.6666666666666</ele><time>2026-05-02T12:19:58.998Z</time></trkpt><trkpt lat="44.215488275710705" lon="10.796206725381994"><ele>668.3333333333334</ele><time>2026-05-02T12:19:59.998Z</time></trkpt><trkpt lat="44.21532124304945" lon="10.796287541995019"><ele>667.0</ele><time>2026-05-02T12:20:00.998Z</time></trkpt><trkpt lat="44.215140825062505" lon="10.796350801278425"><ele>667.0</ele><time>2026-05-02T12:20:01.998Z</time></trkpt><trkpt lat="44.21494383723296" lon="10.796398624120185"><ele>667.0</ele><time>2026-05-02T12:20:02.998Z</time></trkpt><trkpt lat="44.21474228892521" lon="10.796424487196909"><ele>667.0</ele><time>2026-05-02T12:20:03.998Z</time></trkpt><trkpt lat="44.21455824326965" lon="10.796448092723224"><ele>669.0</ele><time>2026-05-02T12:20:04.998Z</time></trkpt><trkpt lat="44.21439270515208" lon="10.796483745340241"><ele>671.0</ele><time>2026-05-02T12:20:05.998Z</time></trkpt><trkpt lat="44.214238504757084" lon="10.796556629315832"><ele>673.0</ele><time>2026-05-02T12:20:06.998Z</time></trkpt><trkpt lat="44.214102444505734" lon="10.79666942683335"><ele>669.0</ele><time>2026-05-02T12:20:07.998Z</time></trkpt><trkpt lat="44.21398288364617" lon="10.796800782793069"><ele>665.0</ele><time>2026-05-02T12:20:08.998Z</time></trkpt><trkpt lat="44.213876977492106" lon="10.796953659004458"><ele>661.0</ele><time>2026-05-02T12:20:09.998Z</time></trkpt><trkpt lat="44.213792098822815" lon="10.797126727562205"><ele>658.0</ele><time>2026-05-02T12:20:10.998Z</time></trkpt><trkpt lat="44.213729393290265" lon="10.797305299137765"><ele>655.0</ele><time>2026-05-02T12:20:11.998Z</time></trkpt><trkpt lat="44.21367252161695" lon="10.797451344872806"><ele>652.0</ele><time>2026-05-02T12:20:12.998Z</time></trkpt><trkpt lat="44.213604482012336" lon="10.797526232923133"><ele>649.0</ele><time>2026-05-02T12:20:13.998Z</time></trkpt><trkpt lat="44.21352417082551" lon="10.797548310877245"><ele>646.0</ele><time>2026-05-02T12:20:14.998Z</time></trkpt><trkpt lat="44.213451637390236" lon="10.797499717186668"><ele>646.0</ele><time>2026-05-02T12:20:15.998Z</time></trkpt><trkpt lat="44.213408289367" lon="10.797372903089109"><ele>646.0</ele><time>2026-05-02T12:20:16.998Z</time></trkpt><trkpt lat="44.21336397392535" lon="10.797203103584085"><ele>646.0</ele><time>2026-05-02T12:20:17.998Z</time></trkpt><trkpt lat="44.213318153583074" lon="10.797019728983805"><ele>646.0</ele><time>2026-05-02T12:20:18.998Z</time></trkpt><trkpt lat="44.21327821714654" lon="10.796849150242"><ele>649.0</ele><time>2026-05-02T12:20:19.998Z</time></trkpt><trkpt lat="44.213234915867986" lon="10.796697606343564"><ele>652.0</ele><time>2026-05-02T12:20:20.999Z</time></trkpt><trkpt lat="44.21320502029269" lon="10.796550582431506"><ele>655.0</ele><time>2026-05-02T12:20:21.999Z</time></trkpt><trkpt lat="44.21316926333181" lon="10.796412971040823"><ele>658.0</ele><time>2026-05-02T12:20:22.999Z</time></trkpt><trkpt lat="44.21313105384397" lon="10.79628481440337"><ele>661.0</ele><time>2026-05-02T12:20:23.999Z</time></trkpt><trkpt lat="44.21307170455126" lon="10.796164644904328"><ele>659.5</ele><time>2026-05-02T12:20:24.999Z</time></trkpt><trkpt lat="44.21297240292707" lon="10.796062639252012"><ele>658.0</ele><time>2026-05-02T12:20:25.999Z</time></trkpt><trkpt lat="44.212868015205984" lon="10.79599383591359"><ele>656.5</ele><time>2026-05-02T12:20:26.999Z</time></trkpt><trkpt lat="44.21276945702941" lon="10.795930270228792"><ele>655.0</ele><time>2026-05-02T12:20:27.999Z</time></trkpt><trkpt lat="44.212675534507596" lon="10.795870408285536"><ele>655.0</ele><time>2026-05-02T12:20:28.999Z</time></trkpt><trkpt lat="44.21257197507655" lon="10.795846451831256"><ele>655.0</ele><time>2026-05-02T12:20:29.999Z</time></trkpt><trkpt lat="44.212445620559585" lon="10.79584491105145"><ele>655.0</ele><time>2026-05-02T12:20:30.999Z</time></trkpt><trkpt lat="44.21229898201001" lon="10.795927874723295"><ele>655.0</ele><time>2026-05-02T12:20:31.999Z</time></trkpt><trkpt lat="44.212121964497896" lon="10.795942269392432"><ele>654.3333333333334</ele><time>2026-05-02T12:20:32.999Z</time></trkpt><trkpt lat="44.211933344445846" lon="10.795979629750542"><ele>653.6666666666666</ele><time>2026-05-02T12:20:33.999Z</time></trkpt><trkpt lat="44.211732721700386" lon="10.79602262231902"><ele>653.0</ele><time>2026-05-02T12:20:34.999Z</time></trkpt><trkpt lat="44.21153610313188" lon="10.796082402759817"><ele>646.3333333333333</ele><time>2026-05-02T12:20:35.999Z</time></trkpt><trkpt lat="44.21135030846" lon="10.796102285731392"><ele>639.6666666666666</ele><time>2026-05-02T12:20:36.999Z</time></trkpt><trkpt lat="44.21116730680822" lon="10.796106416041503"><ele>633.0</ele><time>2026-05-02T12:20:37.999Z</time></trkpt><trkpt lat="44.21099086874404" lon="10.796084812191575"><ele>633.0</ele><time>2026-05-02T12:20:38.999Z</time></trkpt><trkpt lat="44.21081554430145" lon="10.796047673646724"><ele>633.0</ele><time>2026-05-02T12:20:39.999Z</time></trkpt><trkpt lat="44.210639466041584" lon="10.7959946381271"><ele>633.0</ele><time>2026-05-02T12:20:40.999Z</time></trkpt><trkpt lat="44.21046912712186" lon="10.795942576343602"><ele>635.6666666666666</ele><time>2026-05-02T12:20:41.999Z</time></trkpt><trkpt lat="44.21030444890519" lon="10.795890554067872"><ele>638.3333333333333</ele><time>2026-05-02T12:20:42.999Z</time></trkpt><trkpt lat="44.210147869036724" lon="10.79583900696485"><ele>641.0</ele><time>2026-05-02T12:20:43.999Z</time></trkpt><trkpt lat="44.21001261192764" lon="10.795793454637776"><ele>641.0</ele><time>2026-05-02T12:20:44.999Z</time></trkpt><trkpt lat="44.209912344650405" lon="10.79575172472835"><ele>641.0</ele><time>2026-05-02T12:20:45.999Z</time></trkpt><trkpt lat="44.20983175461645" lon="10.795711264180353"><ele>641.0</ele><time>2026-05-02T12:20:46.999Z</time></trkpt><trkpt lat="44.209761527510594" lon="10.795681065896842"><ele>641.0</ele><time>2026-05-02T12:20:48.999Z</time></trkpt><trkpt lat="44.209676258105134" lon="10.79565774191486"><ele>641.0</ele><time>2026-05-02T12:20:50.999Z</time></trkpt><trkpt lat="44.20960917066821" lon="10.795622556396985"><ele>641.0</ele><time>2026-05-02T12:20:51.999Z</time></trkpt><trkpt lat="44.20952075530857" lon="10.795574201906035"><ele>638.75</ele><time>2026-05-02T12:20:52.999Z</time></trkpt><trkpt lat="44.209413206786046" lon="10.795529571953946"><ele>636.5</ele><time>2026-05-02T12:20:53.999Z</time></trkpt><trkpt lat="44.209292088757294" lon="10.795478213186072"><ele>634.25</ele><time>2026-05-02T12:20:54.999Z</time></trkpt><trkpt lat="44.20916378052411" lon="10.795424584896823"><ele>632.0</ele><time>2026-05-02T12:20:55.999Z</time></trkpt><trkpt lat="44.20904619062853" lon="10.795369747478533"><ele>632.2</ele><time>2026-05-02T12:20:56.999Z</time></trkpt><trkpt lat="44.20893790331778" lon="10.795319707314157"><ele>632.4000000000001</ele><time>2026-05-02T12:20:57.999Z</time></trkpt><trkpt lat="44.20884787710304" lon="10.7952729710105"><ele>632.5999999999999</ele><time>2026-05-02T12:20:58.999Z</time></trkpt><trkpt lat="44.20877512436823" lon="10.795232879664182"><ele>632.8</ele><time>2026-05-02T12:20:59.999Z</time></trkpt><trkpt lat="44.208699524115694" lon="10.79518388235485"><ele>633.0</ele><time>2026-05-02T12:21:01.999Z</time></trkpt><trkpt lat="44.20861884557584" lon="10.795157550030723"><ele>632.0</ele><time>2026-05-02T12:21:03.999Z</time></trkpt><trkpt lat="44.208542662162806" lon="10.795274480445277"><ele>631.0</ele><time>2026-05-02T12:21:05.999Z</time></trkpt><trkpt lat="44.20849515275879" lon="10.795357346941598"><ele>630.0</ele><time>2026-05-02T12:21:06.999Z</time></trkpt><trkpt lat="44.20841585628805" lon="10.795424058527342"><ele>629.0</ele><time>2026-05-02T12:21:07.999Z</time></trkpt><trkpt lat="44.208313032902005" lon="10.795452852949568"><ele>628.0</ele><time>2026-05-02T12:21:08.999Z</time></trkpt><trkpt lat="44.208207122988924" lon="10.795452613475048"><ele>628.1999999999999</ele><time>2026-05-02T12:21:09.999Z</time></trkpt><trkpt lat="44.208116548237726" lon="10.795408442993555"><ele>628.4</ele><time>2026-05-02T12:21:10.999Z</time></trkpt><trkpt lat="44.20803658020393" lon="10.795328778618225"><ele>628.5999999999999</ele><time>2026-05-02T12:21:11.999Z</time></trkpt><trkpt lat="44.20795568709257" lon="10.795212758150054"><ele>628.8</ele><time>2026-05-02T12:21:12.999Z</time></trkpt><trkpt lat="44.20786868396178" lon="10.795082353475294"><ele>629.0</ele><time>2026-05-02T12:21:13.999Z</time></trkpt><trkpt lat="44.20777022177465" lon="10.79494974381429"><ele>629.75</ele><time>2026-05-02T12:21:14.999Z</time></trkpt><trkpt lat="44.20767080290083" lon="10.794810103698715"><ele>630.5</ele><time>2026-05-02T12:21:15.999Z</time></trkpt><trkpt lat="44.207583409620874" lon="10.794677096743992"><ele>631.25</ele><time>2026-05-02T12:21:16.999Z</time></trkpt><trkpt lat="44.20748827390123" lon="10.794560930655912"><ele>632.0</ele><time>2026-05-02T12:21:17.999Z</time></trkpt><trkpt lat="44.20740137399459" lon="10.794449663855934"><ele>630.5</ele><time>2026-05-02T12:21:18.999Z</time></trkpt><trkpt lat="44.20727100508016" lon="10.794407898442156"><ele>629.0</ele><time>2026-05-02T12:21:19.999Z</time></trkpt><trkpt lat="44.20713171493309" lon="10.794345134730289"><ele>627.5</ele><time>2026-05-02T12:21:20.999Z</time></trkpt><trkpt lat="44.2069938274365" lon="10.794282016196295"><ele>626.0</ele><time>2026-05-02T12:21:21.999Z</time></trkpt><trkpt lat="44.206854322186686" lon="10.794223653628832"><ele>625.4</ele><time>2026-05-02T12:21:22.999Z</time></trkpt><trkpt lat="44.20674009519377" lon="10.79417581248536"><ele>624.8</ele><time>2026-05-02T12:21:23.999Z</time></trkpt><trkpt lat="44.20663574978641" lon="10.794124409845699"><ele>624.1999999999999</ele><time>2026-05-02T12:21:24.999Z</time></trkpt><trkpt lat="44.20654096634477" lon="10.794100174788278"><ele>623.6</ele><time>2026-05-02T12:21:25.999Z</time></trkpt><trkpt lat="44.20646532780461" lon="10.794086300796524"><ele>623.0</ele><time>2026-05-02T12:21:26.999Z</time></trkpt><trkpt lat="44.2063930059487" lon="10.794099231095691"><ele>619.8333333333333</ele><time>2026-05-02T12:21:27.999Z</time></trkpt><trkpt lat="44.20633193638588" lon="10.794148717327918"><ele>616.6666666666666</ele><time>2026-05-02T12:21:28.999Z</time></trkpt><trkpt lat="44.20628667013587" lon="10.794210668499744"><ele>613.5</ele><time>2026-05-02T12:21:29.999Z</time></trkpt><trkpt lat="44.20625543773401" lon="10.79429629054728"><ele>610.3333333333334</ele><time>2026-05-02T12:21:30.999Z</time></trkpt><trkpt lat="44.206245232504806" lon="10.794415625329524"><ele>607.1666666666667</ele><time>2026-05-02T12:21:31.999Z</time></trkpt><trkpt lat="44.206250552778904" lon="10.794583641531629"><ele>604.0</ele><time>2026-05-02T12:21:32.999Z</time></trkpt><trkpt lat="44.20623789707604" lon="10.794778163825107"><ele>602.3333333333334</ele><time>2026-05-02T12:21:33.999Z</time></trkpt><trkpt lat="44.20621927578601" lon="10.795001132243108"><ele>600.6666666666666</ele><time>2026-05-02T12:21:34.999Z</time></trkpt><trkpt lat="44.20620228249506" lon="10.795244169308141"><ele>599.0</ele><time>2026-05-02T12:21:35.999Z</time></trkpt><trkpt lat="44.20619481487059" lon="10.795501113690785"><ele>598.6666666666666</ele><time>2026-05-02T12:21:36.999Z</time></trkpt><trkpt lat="44.206199519007136" lon="10.795777323311848"><ele>598.3333333333334</ele><time>2026-05-02T12:21:37.999Z</time></trkpt><trkpt lat="44.206205526795294" lon="10.796023883465121"><ele>598.0</ele><time>2026-05-02T12:21:38.999Z</time></trkpt><trkpt lat="44.206210732614636" lon="10.796223907383188"><ele>595.75</ele><time>2026-05-02T12:21:39.999Z</time></trkpt><trkpt lat="44.2062253028813" lon="10.796386619671601"><ele>593.5</ele><time>2026-05-02T12:21:40.999Z</time></trkpt><trkpt lat="44.20626337570114" lon="10.796532548381322"><ele>591.25</ele><time>2026-05-02T12:21:41.999Z</time></trkpt><trkpt lat="44.20634264984132" lon="10.796637614183641"><ele>589.0</ele><time>2026-05-02T12:21:42.999Z</time></trkpt><trkpt lat="44.20645320249642" lon="10.796702618855464"><ele>591.0</ele><time>2026-05-02T12:21:43.999Z</time></trkpt><trkpt lat="44.20659104930835" lon="10.79676377921297"><ele>593.0</ele><time>2026-05-02T12:21:44.998Z</time></trkpt><trkpt lat="44.20673779684792" lon="10.796833248776283"><ele>595.0</ele><time>2026-05-02T12:21:45.998Z</time></trkpt><trkpt lat="44.20690599863653" lon="10.796906645951854"><ele>595.0</ele><time>2026-05-02T12:21:46.998Z</time></trkpt><trkpt lat="44.20709458115794" lon="10.796897640838196"><ele>595.0</ele><time>2026-05-02T12:21:47.998Z</time></trkpt><trkpt lat="44.20728971948103" lon="10.796914643928035"><ele>595.0</ele><time>2026-05-02T12:21:48.998Z</time></trkpt><trkpt lat="44.207495330919016" lon="10.796962473557315"><ele>595.3333333333334</ele><time>2026-05-02T12:21:49.998Z</time></trkpt><trkpt lat="44.20769194442608" lon="10.797026968410725"><ele>595.6666666666666</ele><time>2026-05-02T12:21:50.998Z</time></trkpt><trkpt lat="44.20788009684382" lon="10.797084054812357"><ele>596.0</ele><time>2026-05-02T12:21:51.998Z</time></trkpt><trkpt lat="44.20806569884234" lon="10.797080636734645"><ele>592.3333333333333</ele><time>2026-05-02T12:21:52.998Z</time></trkpt><trkpt lat="44.20822733269608" lon="10.79702471396247"><ele>588.6666666666666</ele><time>2026-05-02T12:21:53.998Z</time></trkpt><trkpt lat="44.20838688922338" lon="10.797085781722027"><ele>585.0</ele><time>2026-05-02T12:21:54.998Z</time></trkpt><trkpt lat="44.20856768951858" lon="10.797189439091932"><ele>585.0</ele><time>2026-05-02T12:21:55.998Z</time></trkpt><trkpt lat="44.208768479707686" lon="10.797257343024436"><ele>585.0</ele><time>2026-05-02T12:21:56.998Z</time></trkpt><trkpt lat="44.20896907711842" lon="10.797380778329757"><ele>585.0</ele><time>2026-05-02T12:21:57.998Z</time></trkpt><trkpt lat="44.20915658491042" lon="10.797544009366774"><ele>578.6666666666666</ele><time>2026-05-02T12:21:58.998Z</time></trkpt><trkpt lat="44.20931831327052" lon="10.797731626141998"><ele>572.3333333333333</ele><time>2026-05-02T12:21:59.998Z</time></trkpt><trkpt lat="44.209499066626826" lon="10.797851808100853"><ele>566.0</ele><time>2026-05-02T12:22:00.998Z</time></trkpt><trkpt lat="44.20969079116904" lon="10.797926481658525"><ele>568.6666666666666</ele><time>2026-05-02T12:22:01.998Z</time></trkpt><trkpt lat="44.209898545420344" lon="10.797949634600291"><ele>571.3333333333334</ele><time>2026-05-02T12:22:02.998Z</time></trkpt><trkpt lat="44.21011232507442" lon="10.797987482031296"><ele>574.0</ele><time>2026-05-02T12:22:03.998Z</time></trkpt><trkpt lat="44.21033457349207" lon="10.798023069682694"><ele>574.0</ele><time>2026-05-02T12:22:04.998Z</time></trkpt><trkpt lat="44.21054955796245" lon="10.798064765766691"><ele>574.0</ele><time>2026-05-02T12:22:05.998Z</time></trkpt><trkpt lat="44.210745332198236" lon="10.798095118162875"><ele>574.0</ele><time>2026-05-02T12:22:06.998Z</time></trkpt><trkpt lat="44.21092213271823" lon="10.798124476855529"><ele>575.0</ele><time>2026-05-02T12:22:07.998Z</time></trkpt><trkpt lat="44.21109880595077" lon="10.798092073622618"><ele>576.0</ele><time>2026-05-02T12:22:08.998Z</time></trkpt><trkpt lat="44.21124793177775" lon="10.798034648599499"><ele>577.0</ele><time>2026-05-02T12:22:09.998Z</time></trkpt><trkpt lat="44.211387120842765" lon="10.798042424374072"><ele>577.25</ele><time>2026-05-02T12:22:10.998Z</time></trkpt><trkpt lat="44.21150921034958" lon="10.7981207345537"><ele>577.5</ele><time>2026-05-02T12:22:11.998Z</time></trkpt><trkpt lat="44.21162846437733" lon="10.798226150159916"><ele>577.75</ele><time>2026-05-02T12:22:12.998Z</time></trkpt><trkpt lat="44.211762814069374" lon="10.798352840002408"><ele>578.0</ele><time>2026-05-02T12:22:13.998Z</time></trkpt><trkpt lat="44.21191051225542" lon="10.79850080296226"><ele>573.6666666666666</ele><time>2026-05-02T12:22:14.998Z</time></trkpt><trkpt lat="44.212052162461035" lon="10.79862674363601"><ele>569.3333333333334</ele><time>2026-05-02T12:22:15.998Z</time></trkpt><trkpt lat="44.21217285538093" lon="10.798776610287458"><ele>565.0</ele><time>2026-05-02T12:22:16.998Z</time></trkpt><trkpt lat="44.212320862222626" lon="10.798873653035066"><ele>567.0</ele><time>2026-05-02T12:22:17.998Z</time></trkpt><trkpt lat="44.21246437630094" lon="10.798923981517817"><ele>569.0</ele><time>2026-05-02T12:22:18.998Z</time></trkpt><trkpt lat="44.212565716826305" lon="10.798965108144063"><ele>571.0</ele><time>2026-05-02T12:22:19.998Z</time></trkpt><trkpt lat="44.21264473426491" lon="10.799013201233011"><ele>573.0</ele><time>2026-05-02T12:22:20.998Z</time></trkpt><trkpt lat="44.21266966080914" lon="10.799120175168229"><ele>575.0</ele><time>2026-05-02T12:22:21.998Z</time></trkpt><trkpt lat="44.212645996557335" lon="10.79922063390573"><ele>575.0</ele><time>2026-05-02T12:22:22.998Z</time></trkpt><trkpt lat="44.21257893290332" lon="10.799283000074295"><ele>575.0</ele><time>2026-05-02T12:22:23.998Z</time></trkpt><trkpt lat="44.21248638761519" lon="10.799283402065663"><ele>575.0</ele><time>2026-05-02T12:22:24.998Z</time></trkpt><trkpt lat="44.21237774689643" lon="10.799207320256846"><ele>575.0</ele><time>2026-05-02T12:22:25.998Z</time></trkpt><trkpt lat="44.212248287286094" lon="10.79909623180868"><ele>575.0</ele><time>2026-05-02T12:22:26.999Z</time></trkpt><trkpt lat="44.21207787493663" lon="10.799001908384954"><ele>571.6666666666666</ele><time>2026-05-02T12:22:27.999Z</time></trkpt><trkpt lat="44.21191166473035" lon="10.798883419277713"><ele>568.3333333333334</ele><time>2026-05-02T12:22:28.999Z</time></trkpt><trkpt lat="44.21177473375758" lon="10.798782540864476"><ele>565.0</ele><time>2026-05-02T12:22:29.999Z</time></trkpt><trkpt lat="44.2116575265837" lon="10.79874295079223"><ele>565.0</ele><time>2026-05-02T12:22:30.999Z</time></trkpt><trkpt lat="44.211554299751306" lon="10.798748450797467"><ele>565.0</ele><time>2026-05-02T12:22:31.999Z</time></trkpt><trkpt lat="44.21146148233122" lon="10.798801733968748"><ele>565.0</ele><time>2026-05-02T12:22:32.999Z</time></trkpt><trkpt lat="44.211399639850434" lon="10.798906066628895"><ele>565.0</ele><time>2026-05-02T12:22:33.999Z</time></trkpt><trkpt lat="44.21138223547006" lon="10.799045610336794"><ele>565.0</ele><time>2026-05-02T12:22:34.999Z</time></trkpt><trkpt lat="44.21138914881346" lon="10.799199008357922"><ele>563.0</ele><time>2026-05-02T12:22:35.999Z</time></trkpt><trkpt lat="44.211419660404644" lon="10.79933176318215"><ele>561.0</ele><time>2026-05-02T12:22:36.999Z</time></trkpt><trkpt lat="44.211479548849155" lon="10.799432127696903"><ele>559.0</ele><time>2026-05-02T12:22:37.999Z</time></trkpt><trkpt lat="44.211571160375854" lon="10.799488979542222"><ele>557.0</ele><time>2026-05-02T12:22:38.999Z</time></trkpt><trkpt lat="44.21168661494972" lon="10.799495267515402"><ele>555.0</ele><time>2026-05-02T12:22:39.999Z</time></trkpt><trkpt lat="44.21181081947943" lon="10.799524347286015"><ele>555.0</ele><time>2026-05-02T12:22:40.999Z</time></trkpt><trkpt lat="44.21194093577404" lon="10.799570052298362"><ele>555.0</ele><time>2026-05-02T12:22:41.999Z</time></trkpt><trkpt lat="44.2120723051162" lon="10.799663854997695"><ele>555.0</ele><time>2026-05-02T12:22:42.999Z</time></trkpt><trkpt lat="44.21222748410473" lon="10.799777743684475"><ele>557.0</ele><time>2026-05-02T12:22:43.999Z</time></trkpt><trkpt lat="44.21240388406246" lon="10.79990550447702"><ele>559.0</ele><time>2026-05-02T12:22:44.999Z</time></trkpt><trkpt lat="44.212585182717156" lon="10.800030875487082"><ele>561.0</ele><time>2026-05-02T12:22:45.999Z</time></trkpt><trkpt lat="44.21275526064638" lon="10.800168982138421"><ele>557.6666666666666</ele><time>2026-05-02T12:22:46.999Z</time></trkpt><trkpt lat="44.2128998152673" lon="10.800369740239276"><ele>554.3333333333333</ele><time>2026-05-02T12:22:47.999Z</time></trkpt><trkpt lat="44.21306715320051" lon="10.800567172159415"><ele>551.0</ele><time>2026-05-02T12:22:48.999Z</time></trkpt><trkpt lat="44.21324526116447" lon="10.800742459116007"><ele>551.0</ele><time>2026-05-02T12:22:49.999Z</time></trkpt><trkpt lat="44.2134124406211" lon="10.800900239532915"><ele>551.0</ele><time>2026-05-02T12:22:50.999Z</time></trkpt><trkpt lat="44.21358029382261" lon="10.801030686860996"><ele>551.0</ele><time>2026-05-02T12:22:51.999Z</time></trkpt><trkpt lat="44.21374928075428" lon="10.801147783106305"><ele>547.0</ele><time>2026-05-02T12:22:52.999Z</time></trkpt><trkpt lat="44.21393618987912" lon="10.801210704625445"><ele>543.0</ele><time>2026-05-02T12:22:53.999Z</time></trkpt><trkpt lat="44.21411950558453" lon="10.80127999162634"><ele>539.0</ele><time>2026-05-02T12:22:54.999Z</time></trkpt><trkpt lat="44.21429630750379" lon="10.80138844743507"><ele>539.0</ele><time>2026-05-02T12:22:55.999Z</time></trkpt><trkpt lat="44.214470543585485" lon="10.801528526082016"><ele>539.0</ele><time>2026-05-02T12:22:56.999Z</time></trkpt><trkpt lat="44.21465009841598" lon="10.801670873919281"><ele>539.0</ele><time>2026-05-02T12:22:57.999Z</time></trkpt><trkpt lat="44.21481350198687" lon="10.801836471034237"><ele>534.6666666666666</ele><time>2026-05-02T12:22:58.999Z</time></trkpt><trkpt lat="44.21496563373478" lon="10.801992818162582"><ele>530.3333333333334</ele><time>2026-05-02T12:22:59.999Z</time></trkpt><trkpt lat="44.215112705303305" lon="10.802137653282347"><ele>526.0</ele><time>2026-05-02T12:23:00.999Z</time></trkpt><trkpt lat="44.215263369716986" lon="10.802240406453288"><ele>526.0</ele><time>2026-05-02T12:23:01.999Z</time></trkpt><trkpt lat="44.21543147817772" lon="10.802297931381203"><ele>526.0</ele><time>2026-05-02T12:23:02.999Z</time></trkpt><trkpt lat="44.215611486296346" lon="10.802294413557535"><ele>526.0</ele><time>2026-05-02T12:23:03.999Z</time></trkpt><trkpt lat="44.21580008497551" lon="10.802238189002232"><ele>526.6666666666667</ele><time>2026-05-02T12:23:04.999Z</time></trkpt><trkpt lat="44.216000134089235" lon="10.802147139287154"><ele>527.3333333333334</ele><time>2026-05-02T12:23:05.999Z</time></trkpt><trkpt lat="44.21621515382465" lon="10.802067109241595"><ele>528.0</ele><time>2026-05-02T12:23:06.999Z</time></trkpt><trkpt lat="44.216424470522576" lon="10.80205280440103"><ele>528.0</ele><time>2026-05-02T12:23:07.999Z</time></trkpt><trkpt lat="44.21660873110119" lon="10.802018773676231"><ele>528.0</ele><time>2026-05-02T12:23:08.999Z</time></trkpt><trkpt lat="44.216770469730456" lon="10.802052429234296"><ele>528.0</ele><time>2026-05-02T12:23:09.999Z</time></trkpt><trkpt lat="44.21691871884565" lon="10.802132483254358"><ele>528.0</ele><time>2026-05-02T12:23:10.999Z</time></trkpt><trkpt lat="44.21703918719856" lon="10.802269659036316"><ele>528.0</ele><time>2026-05-02T12:23:11.999Z</time></trkpt><trkpt lat="44.21712433557267" lon="10.802480262585357"><ele>528.0</ele><time>2026-05-02T12:23:12.999Z</time></trkpt><trkpt lat="44.21723977223118" lon="10.80269062559543"><ele>529.0</ele><time>2026-05-02T12:23:13.999Z</time></trkpt><trkpt lat="44.21736206300473" lon="10.802925553306885"><ele>530.0</ele><time>2026-05-02T12:23:14.999Z</time></trkpt><trkpt lat="44.21747697049449" lon="10.803155131822884"><ele>531.0</ele><time>2026-05-02T12:23:15.999Z</time></trkpt><trkpt lat="44.217562453513615" lon="10.803341055466198"><ele>529.25</ele><time>2026-05-02T12:23:16.999Z</time></trkpt><trkpt lat="44.21762031884325" lon="10.803499556652142"><ele>527.5</ele><time>2026-05-02T12:23:17.999Z</time></trkpt><trkpt lat="44.21761543110413" lon="10.803698366258812"><ele>525.75</ele><time>2026-05-02T12:23:18.999Z</time></trkpt><trkpt lat="44.217564698128385" lon="10.803924471144073"><ele>524.0</ele><time>2026-05-02T12:23:19.999Z</time></trkpt><trkpt lat="44.217494955735" lon="10.804173259278278"><ele>522.0</ele><time>2026-05-02T12:23:20.999Z</time></trkpt><trkpt lat="44.21745789212464" lon="10.804445534858115"><ele>520.0</ele><time>2026-05-02T12:23:21.999Z</time></trkpt><trkpt lat="44.21746666525837" lon="10.804726611708949"><ele>518.0</ele><time>2026-05-02T12:23:22.999Z</time></trkpt><trkpt lat="44.21750004172581" lon="10.80500197101565"><ele>516.6666666666666</ele><time>2026-05-02T12:23:23.999Z</time></trkpt><trkpt lat="44.21756666452111" lon="10.805253961203723"><ele>515.3333333333334</ele><time>2026-05-02T12:23:24.999Z</time></trkpt><trkpt lat="44.217645931347796" lon="10.805474696665062"><ele>514.0</ele><time>2026-05-02T12:23:25.999Z</time></trkpt><trkpt lat="44.217732945867475" lon="10.805679856470215"><ele>514.0</ele><time>2026-05-02T12:23:26.999Z</time></trkpt><trkpt lat="44.21781613373758" lon="10.805878445152198"><ele>514.0</ele><time>2026-05-02T12:23:27.999Z</time></trkpt><trkpt lat="44.21789227138225" lon="10.806070319417957"><ele>514.0</ele><time>2026-05-02T12:23:28.999Z</time></trkpt><trkpt lat="44.21796825319186" lon="10.806261597826358"><ele>513.0</ele><time>2026-05-02T12:23:29.999Z</time></trkpt><trkpt lat="44.21805590085359" lon="10.80644238878014"><ele>512.0</ele><time>2026-05-02T12:23:30.999Z</time></trkpt><trkpt lat="44.2181596312785" lon="10.806605077980626"><ele>511.0</ele><time>2026-05-02T12:23:31.999Z</time></trkpt><trkpt lat="44.21827998228998" lon="10.806749183881045"><ele>509.0</ele><time>2026-05-02T12:23:32.999Z</time></trkpt><trkpt lat="44.218412783964865" lon="10.80687249959674"><ele>507.0</ele><time>2026-05-02T12:23:33.999Z</time></trkpt><trkpt lat="44.21852940220099" lon="10.807014341900981"><ele>505.0</ele><time>2026-05-02T12:23:34.999Z</time></trkpt><trkpt lat="44.21864568451177" lon="10.807118430862728"><ele>505.0</ele><time>2026-05-02T12:23:35.999Z</time></trkpt><trkpt lat="44.21871717947267" lon="10.807255896526074"><ele>505.0</ele><time>2026-05-02T12:23:36.999Z</time></trkpt><trkpt lat="44.218768212496684" lon="10.80739402272231"><ele>505.0</ele><time>2026-05-02T12:23:37.999Z</time></trkpt><trkpt lat="44.218797752734716" lon="10.807539137352274"><ele>505.0</ele><time>2026-05-02T12:23:38.999Z</time></trkpt><trkpt lat="44.218793247690634" lon="10.807689505436059"><ele>505.0</ele><time>2026-05-02T12:23:39.999Z</time></trkpt><trkpt lat="44.218756347989206" lon="10.807850616399039"><ele>505.33333333333337</ele><time>2026-05-02T12:23:40.999Z</time></trkpt><trkpt lat="44.21869858378104" lon="10.808025507934092"><ele>505.66666666666663</ele><time>2026-05-02T12:23:41.999Z</time></trkpt><trkpt lat="44.218656630190644" lon="10.80823068443481"><ele>506.0</ele><time>2026-05-02T12:23:42.999Z</time></trkpt><trkpt lat="44.21864073951381" lon="10.80846459340221"><ele>505.3333333333333</ele><time>2026-05-02T12:23:43.999Z</time></trkpt><trkpt lat="44.21865109086319" lon="10.808717291121168"><ele>504.66666666666663</ele><time>2026-05-02T12:23:44.999Z</time></trkpt><trkpt lat="44.218672220686244" lon="10.808987212985231"><ele>504.0</ele><time>2026-05-02T12:23:45.999Z</time></trkpt><trkpt lat="44.2186958086318" lon="10.809240667924186"><ele>503.25</ele><time>2026-05-02T12:23:46.999Z</time></trkpt><trkpt lat="44.21871825448514" lon="10.809479829601454"><ele>502.5</ele><time>2026-05-02T12:23:47.999Z</time></trkpt><trkpt lat="44.218756088418104" lon="10.80967587864431"><ele>501.75</ele><time>2026-05-02T12:23:48.999Z</time></trkpt><trkpt lat="44.21877963994693" lon="10.809822520623618"><ele>501.0</ele><time>2026-05-02T12:23:49.999Z</time></trkpt><trkpt lat="44.21878440373252" lon="10.809940125820901"><ele>501.0</ele><time>2026-05-02T12:23:50.999Z</time></trkpt><trkpt lat="44.21873828576799" lon="10.810035755228554"><ele>501.0</ele><time>2026-05-02T12:23:51.999Z</time></trkpt><trkpt lat="44.21866756555237" lon="10.81007530135081"><ele>501.0</ele><time>2026-05-02T12:23:52.999Z</time></trkpt><trkpt lat="44.21859466580148" lon="10.810037627833236"><ele>501.0</ele><time>2026-05-02T12:23:53.999Z</time></trkpt><trkpt lat="44.2185514224187" lon="10.809931717205439"><ele>501.0</ele><time>2026-05-02T12:23:54.999Z</time></trkpt><trkpt lat="44.218550912064885" lon="10.80978869155121"><ele>501.0</ele><time>2026-05-02T12:23:55.999Z</time></trkpt><trkpt lat="44.21856802103622" lon="10.809623019036412"><ele>501.0</ele><time>2026-05-02T12:23:56.999Z</time></trkpt><trkpt lat="44.21854759096245" lon="10.809452209271171"><ele>501.0</ele><time>2026-05-02T12:23:57.999Z</time></trkpt><trkpt lat="44.21847324552713" lon="10.809274345035083"><ele>501.0</ele><time>2026-05-02T12:23:58.999Z</time></trkpt><trkpt lat="44.21837469082874" lon="10.809115680620033"><ele>501.0</ele><time>2026-05-02T12:23:59.999Z</time></trkpt><trkpt lat="44.21828783029013" lon="10.80899867224756"><ele>501.6</ele><time>2026-05-02T12:24:00.999Z</time></trkpt><trkpt lat="44.218204586139414" lon="10.808944487739492"><ele>502.20000000000005</ele><time>2026-05-02T12:24:01.999Z</time></trkpt><trkpt lat="44.218119903958666" lon="10.808941844061078"><ele>502.79999999999995</ele><time>2026-05-02T12:24:02.999Z</time></trkpt><trkpt lat="44.218053691687125" lon="10.809013188869997"><ele>503.4</ele><time>2026-05-02T12:24:03.999Z</time></trkpt><trkpt lat="44.21802418013036" lon="10.80913379043271"><ele>504.0</ele><time>2026-05-02T12:24:04.999Z</time></trkpt><trkpt lat="44.218035964486546" lon="10.809289384346746"><ele>496.0</ele><time>2026-05-02T12:24:05.999Z</time></trkpt><trkpt lat="44.21808018299908" lon="10.809480781557765"><ele>488.0</ele><time>2026-05-02T12:24:06.999Z</time></trkpt><trkpt lat="44.21809749729525" lon="10.80971328991266"><ele>480.0</ele><time>2026-05-02T12:24:07.999Z</time></trkpt><trkpt lat="44.2180760890324" lon="10.809978929556843"><ele>479.0</ele><time>2026-05-02T12:24:08.999Z</time></trkpt><trkpt lat="44.21802696859116" lon="10.810220581590684"><ele>478.0</ele><time>2026-05-02T12:24:09.999Z</time></trkpt><trkpt lat="44.217984383249295" lon="10.810433923195848"><ele>477.0</ele><time>2026-05-02T12:24:10.998Z</time></trkpt><trkpt lat="44.2179649217911" lon="10.810609143261598"><ele>477.0</ele><time>2026-05-02T12:24:11.998Z</time></trkpt><trkpt lat="44.21797851174014" lon="10.810758825395432"><ele>477.0</ele><time>2026-05-02T12:24:12.998Z</time></trkpt><trkpt lat="44.21804163134762" lon="10.810897968443976"><ele>477.0</ele><time>2026-05-02T12:24:13.998Z</time></trkpt><trkpt lat="44.21815951101984" lon="10.811016877933678"><ele>477.0</ele><time>2026-05-02T12:24:14.998Z</time></trkpt><trkpt lat="44.21829861974868" lon="10.811156989780617"><ele>479.33333333333337</ele><time>2026-05-02T12:24:15.998Z</time></trkpt><trkpt lat="44.2184519786586" lon="10.811307979082011"><ele>481.6666666666667</ele><time>2026-05-02T12:24:16.998Z</time></trkpt><trkpt lat="44.21862260736845" lon="10.811473625213077"><ele>484.0</ele><time>2026-05-02T12:24:17.998Z</time></trkpt><trkpt lat="44.21880075329355" lon="10.811631738291615"><ele>482.6666666666667</ele><time>2026-05-02T12:24:18.998Z</time></trkpt><trkpt lat="44.21895257667591" lon="10.811825054654854"><ele>481.33333333333337</ele><time>2026-05-02T12:24:19.998Z</time></trkpt><trkpt lat="44.21907219207923" lon="10.812035316772949"><ele>480.0</ele><time>2026-05-02T12:24:20.998Z</time></trkpt><trkpt lat="44.21916362029285" lon="10.812251524479844"><ele>480.0</ele><time>2026-05-02T12:24:21.998Z</time></trkpt><trkpt lat="44.21924323014195" lon="10.812463389301454"><ele>480.0</ele><time>2026-05-02T12:24:22.998Z</time></trkpt><trkpt lat="44.21931208800524" lon="10.812669744132045"><ele>480.0</ele><time>2026-05-02T12:24:23.998Z</time></trkpt><trkpt lat="44.21938362892187" lon="10.812865436191757"><ele>475.66666666666663</ele><time>2026-05-02T12:24:24.998Z</time></trkpt><trkpt lat="44.2194590415657" lon="10.813060256332678"><ele>471.3333333333333</ele><time>2026-05-02T12:24:25.998Z</time></trkpt><trkpt lat="44.21960019961335" lon="10.813198395838024"><ele>467.0</ele><time>2026-05-02T12:24:26.998Z</time></trkpt><trkpt lat="44.21974749708697" lon="10.813348867651879"><ele>468.0</ele><time>2026-05-02T12:24:27.998Z</time></trkpt><trkpt lat="44.21990830075857" lon="10.813501338898668"><ele>469.0</ele><time>2026-05-02T12:24:28.998Z</time></trkpt><trkpt lat="44.22008189975012" lon="10.813656528008432"><ele>470.0</ele><time>2026-05-02T12:24:29.998Z</time></trkpt><trkpt lat="44.220254019910755" lon="10.813806155860595"><ele>470.0</ele><time>2026-05-02T12:24:30.998Z</time></trkpt><trkpt lat="44.22039833440291" lon="10.813945047038864"><ele>470.0</ele><time>2026-05-02T12:24:31.998Z</time></trkpt><trkpt lat="44.22049619986361" lon="10.814078444416696"><ele>470.0</ele><time>2026-05-02T12:24:32.999Z</time></trkpt><trkpt lat="44.22055473585687" lon="10.814211958052386"><ele>470.0</ele><time>2026-05-02T12:24:33.999Z</time></trkpt><trkpt lat="44.22057791861264" lon="10.814355366171437"><ele>468.0</ele><time>2026-05-02T12:24:34.999Z</time></trkpt><trkpt lat="44.22057071901866" lon="10.814512916794836"><ele>466.0</ele><time>2026-05-02T12:24:35.999Z</time></trkpt><trkpt lat="44.22053734795606" lon="10.814702776875887"><ele>464.0</ele><time>2026-05-02T12:24:36.999Z</time></trkpt><trkpt lat="44.22047611015164" lon="10.814924503203393"><ele>462.0</ele><time>2026-05-02T12:24:37.999Z</time></trkpt><trkpt lat="44.22040455354763" lon="10.815182478684273"><ele>461.0</ele><time>2026-05-02T12:24:38.999Z</time></trkpt><trkpt lat="44.22033223527714" lon="10.815470194938264"><ele>460.0</ele><time>2026-05-02T12:24:39.999Z</time></trkpt><trkpt lat="44.220258594638516" lon="10.81578236776946"><ele>462.33333333333337</ele><time>2026-05-02T12:24:40.999Z</time></trkpt><trkpt lat="44.220170667623435" lon="10.816065433853765"><ele>464.66666666666663</ele><time>2026-05-02T12:24:41.999Z</time></trkpt><trkpt lat="44.220121991166955" lon="10.816323848418456"><ele>467.0</ele><time>2026-05-02T12:24:42.999Z</time></trkpt><trkpt lat="44.22005533470634" lon="10.816503095493857"><ele>467.0</ele><time>2026-05-02T12:24:43.999Z</time></trkpt><trkpt lat="44.21997341472652" lon="10.816626167929568"><ele>467.0</ele><time>2026-05-02T12:24:44.999Z</time></trkpt><trkpt lat="44.21986356815253" lon="10.816706478736501"><ele>467.0</ele><time>2026-05-02T12:24:45.999Z</time></trkpt><trkpt lat="44.21973074305946" lon="10.816721048141238"><ele>467.0</ele><time>2026-05-02T12:24:46.999Z</time></trkpt><trkpt lat="44.21958533809849" lon="10.816683246795685"><ele>471.0</ele><time>2026-05-02T12:24:47.999Z</time></trkpt><trkpt lat="44.21942670250908" lon="10.81663225999393"><ele>475.0</ele><time>2026-05-02T12:24:48.999Z</time></trkpt><trkpt lat="44.21927438960028" lon="10.816582613543332"><ele>479.0</ele><time>2026-05-02T12:24:49.999Z</time></trkpt><trkpt lat="44.219155974184666" lon="10.816498909312715"><ele>479.0</ele><time>2026-05-02T12:24:50.999Z</time></trkpt><trkpt lat="44.21906212764126" lon="10.816339765405049"><ele>479.0</ele><time>2026-05-02T12:24:51.999Z</time></trkpt><trkpt lat="44.21895173517776" lon="10.816162995946856"><ele>479.0</ele><time>2026-05-02T12:24:52.999Z</time></trkpt><trkpt lat="44.21884993888874" lon="10.815951162956368"><ele>481.3333333333333</ele><time>2026-05-02T12:24:53.999Z</time></trkpt><trkpt lat="44.21876521968546" lon="10.815730155453089"><ele>483.66666666666663</ele><time>2026-05-02T12:24:54.999Z</time></trkpt><trkpt lat="44.21871319430618" lon="10.815518306324277"><ele>486.0</ele><time>2026-05-02T12:24:55.999Z</time></trkpt><trkpt lat="44.21865389686872" lon="10.815333754514254"><ele>486.0</ele><time>2026-05-02T12:24:56.999Z</time></trkpt><trkpt lat="44.21855362676773" lon="10.815166486300763"><ele>486.0</ele><time>2026-05-02T12:24:57.999Z</time></trkpt><trkpt lat="44.21840239033993" lon="10.815040917271022"><ele>486.0</ele><time>2026-05-02T12:24:58.999Z</time></trkpt><trkpt lat="44.21824044930244" lon="10.814937797505928"><ele>487.33333333333337</ele><time>2026-05-02T12:24:59.999Z</time></trkpt><trkpt lat="44.21809830435492" lon="10.814804735732382"><ele>488.6666666666667</ele><time>2026-05-02T12:25:00.999Z</time></trkpt><trkpt lat="44.21798936645171" lon="10.814643838611962"><ele>490.0</ele><time>2026-05-02T12:25:01.999Z</time></trkpt><trkpt lat="44.21790401026114" lon="10.814483739217025"><ele>490.0</ele><time>2026-05-02T12:25:02.999Z</time></trkpt><trkpt lat="44.21782681623454" lon="10.814366054974293"><ele>490.0</ele><time>2026-05-02T12:25:03.999Z</time></trkpt><trkpt lat="44.21773928129134" lon="10.814294330433295"><ele>490.0</ele><time>2026-05-02T12:25:04.999Z</time></trkpt><trkpt lat="44.21765545897474" lon="10.814289620355538"><ele>490.0</ele><time>2026-05-02T12:25:05.999Z</time></trkpt><trkpt lat="44.217589443272516" lon="10.814350160808136"><ele>490.0</ele><time>2026-05-02T12:25:06.999Z</time></trkpt><trkpt lat="44.217558862160274" lon="10.814451572839479"><ele>490.0</ele><time>2026-05-02T12:25:07.999Z</time></trkpt><trkpt lat="44.217571572596306" lon="10.814571460020336"><ele>490.0</ele><time>2026-05-02T12:25:08.999Z</time></trkpt><trkpt lat="44.21763237658956" lon="10.81467718636671"><ele>490.0</ele><time>2026-05-02T12:25:09.999Z</time></trkpt><trkpt lat="44.21771805914319" lon="10.814792260367648"><ele>490.0</ele><time>2026-05-02T12:25:10.999Z</time></trkpt><trkpt lat="44.21780795058553" lon="10.814939371597873"><ele>490.0</ele><time>2026-05-02T12:25:11.999Z</time></trkpt><trkpt lat="44.21788825769233" lon="10.815132348447785"><ele>488.6666666666667</ele><time>2026-05-02T12:25:12.999Z</time></trkpt><trkpt lat="44.21796760314162" lon="10.815348388371135"><ele>487.33333333333337</ele><time>2026-05-02T12:25:13.999Z</time></trkpt><trkpt lat="44.21807811097201" lon="10.815574309437503"><ele>486.0</ele><time>2026-05-02T12:25:14.999Z</time></trkpt><trkpt lat="44.2182481851808" lon="10.815764970118822"><ele>486.0</ele><time>2026-05-02T12:25:15.999Z</time></trkpt><trkpt lat="44.21841634090368" lon="10.815982586474203"><ele>486.0</ele><time>2026-05-02T12:25:16.999Z</time></trkpt><trkpt lat="44.21855572006487" lon="10.816217695650941"><ele>486.0</ele><time>2026-05-02T12:25:17.999Z</time></trkpt><trkpt lat="44.21870033746692" lon="10.81639284442834"><ele>487.66666666666663</ele><time>2026-05-02T12:25:18.999Z</time></trkpt><trkpt lat="44.21881972498598" lon="10.816570775546971"><ele>489.3333333333333</ele><time>2026-05-02T12:25:19.999Z</time></trkpt><trkpt lat="44.21892561370633" lon="10.816779055314463"><ele>491.0</ele><time>2026-05-02T12:25:20.999Z</time></trkpt><trkpt lat="44.21900416763307" lon="10.817015439302482"><ele>491.0</ele><time>2026-05-02T12:25:21.999Z</time></trkpt><trkpt lat="44.21906947135623" lon="10.817264447990318"><ele>491.0</ele><time>2026-05-02T12:25:22.999Z</time></trkpt><trkpt lat="44.21913689537844" lon="10.817499974663589"><ele>491.0</ele><time>2026-05-02T12:25:23.999Z</time></trkpt><trkpt lat="44.21922479511363" lon="10.817701017101799"><ele>494.66666666666663</ele><time>2026-05-02T12:25:24.999Z</time></trkpt><trkpt lat="44.21933238703034" lon="10.817874157798165"><ele>498.33333333333337</ele><time>2026-05-02T12:25:25.999Z</time></trkpt><trkpt lat="44.219456851383704" lon="10.818013401559085"><ele>502.0</ele><time>2026-05-02T12:25:26.999Z</time></trkpt><trkpt lat="44.21958829546034" lon="10.818156039938994"><ele>502.0</ele><time>2026-05-02T12:25:27.999Z</time></trkpt><trkpt lat="44.21969949414965" lon="10.818333629068052"><ele>502.0</ele><time>2026-05-02T12:25:28.999Z</time></trkpt><trkpt lat="44.219790424633565" lon="10.818550144692102"><ele>502.0</ele><time>2026-05-02T12:25:29.999Z</time></trkpt><trkpt lat="44.21988295739535" lon="10.818778928017416"><ele>502.33333333333337</ele><time>2026-05-02T12:25:30.999Z</time></trkpt><trkpt lat="44.219975448214576" lon="10.818979053708661"><ele>502.66666666666663</ele><time>2026-05-02T12:25:31.999Z</time></trkpt><trkpt lat="44.22006170344221" lon="10.819161628423455"><ele>503.0</ele><time>2026-05-02T12:25:32.999Z</time></trkpt><trkpt lat="44.22015340237431" lon="10.819321757376105"><ele>504.66666666666663</ele><time>2026-05-02T12:25:33.999Z</time></trkpt><trkpt lat="44.22027956438205" lon="10.81944872150916"><ele>506.33333333333337</ele><time>2026-05-02T12:25:34.999Z</time></trkpt><trkpt lat="44.22042532384252" lon="10.819534329092113"><ele>508.0</ele><time>2026-05-02T12:25:35.999Z</time></trkpt><trkpt lat="44.22056678047879" lon="10.819596577504077"><ele>507.25</ele><time>2026-05-02T12:25:36.999Z</time></trkpt><trkpt lat="44.22067650891992" lon="10.81969397661133"><ele>506.5</ele><time>2026-05-02T12:25:37.999Z</time></trkpt><trkpt lat="44.22072017074338" lon="10.819855921737142"><ele>505.75</ele><time>2026-05-02T12:25:38.999Z</time></trkpt><trkpt lat="44.22077022071737" lon="10.820054585963035"><ele>505.0</ele><time>2026-05-02T12:25:39.999Z</time></trkpt><trkpt lat="44.220833844216536" lon="10.82028314389721"><ele>505.0</ele><time>2026-05-02T12:25:40.999Z</time></trkpt><trkpt lat="44.220888434072336" lon="10.820558704986666"><ele>505.0</ele><time>2026-05-02T12:25:41.999Z</time></trkpt><trkpt lat="44.220959324904406" lon="10.820828736781724"><ele>505.0</ele><time>2026-05-02T12:25:42.999Z</time></trkpt><trkpt lat="44.22100880259363" lon="10.82106442459912"><ele>505.25</ele><time>2026-05-02T12:25:43.999Z</time></trkpt><trkpt lat="44.221057578686825" lon="10.821267968519063"><ele>505.5</ele><time>2026-05-02T12:25:44.999Z</time></trkpt><trkpt lat="44.22109597587304" lon="10.821446781989268"><ele>505.75</ele><time>2026-05-02T12:25:45.999Z</time></trkpt><trkpt lat="44.22108712991232" lon="10.821630077575598"><ele>506.0</ele><time>2026-05-02T12:25:46.999Z</time></trkpt><trkpt lat="44.221020160534835" lon="10.821816411829777"><ele>503.3333333333333</ele><time>2026-05-02T12:25:47.999Z</time></trkpt><trkpt lat="44.22095330853125" lon="10.822026418368718"><ele>500.66666666666663</ele><time>2026-05-02T12:25:48.999Z</time></trkpt><trkpt lat="44.22088559078068" lon="10.822244408701593"><ele>498.0</ele><time>2026-05-02T12:25:49.999Z</time></trkpt><trkpt lat="44.22078230150662" lon="10.82242297194818"><ele>498.0</ele><time>2026-05-02T12:25:50.999Z</time></trkpt><trkpt lat="44.22068169510819" lon="10.822567844298948"><ele>498.0</ele><time>2026-05-02T12:25:51.999Z</time></trkpt><trkpt lat="44.220613539375435" lon="10.822706986078465"><ele>498.0</ele><time>2026-05-02T12:25:52.999Z</time></trkpt><trkpt lat="44.22059830298194" lon="10.82286099622747"><ele>498.0</ele><time>2026-05-02T12:25:53.999Z</time></trkpt><trkpt lat="44.22061730413843" lon="10.823015298135248"><ele>498.0</ele><time>2026-05-02T12:25:54.999Z</time></trkpt><trkpt lat="44.22071182165058" lon="10.823146330484942"><ele>498.0</ele><time>2026-05-02T12:25:55.999Z</time></trkpt><trkpt lat="44.22082448932666" lon="10.823278459134913"><ele>498.0</ele><time>2026-05-02T12:25:56.999Z</time></trkpt><trkpt lat="44.22096617468705" lon="10.823398209517844"><ele>498.0</ele><time>2026-05-02T12:25:57.999Z</time></trkpt><trkpt lat="44.22113524428135" lon="10.823485705199603"><ele>500.33333333333337</ele><time>2026-05-02T12:25:58.999Z</time></trkpt><trkpt lat="44.22130743198818" lon="10.823580339941287"><ele>502.6666666666667</ele><time>2026-05-02T12:25:59.999Z</time></trkpt><trkpt lat="44.221465573582435" lon="10.823729960081554"><ele>505.0</ele><time>2026-05-02T12:26:00.999Z</time></trkpt><trkpt lat="44.22161972679765" lon="10.823923154989464"><ele>505.0</ele><time>2026-05-02T12:26:01.999Z</time></trkpt><trkpt lat="44.221765311658814" lon="10.824098680369616"><ele>505.0</ele><time>2026-05-02T12:26:02.999Z</time></trkpt><trkpt lat="44.221881515197275" lon="10.824271969304132"><ele>505.0</ele><time>2026-05-02T12:26:03.999Z</time></trkpt><trkpt lat="44.22197587104355" lon="10.824419383371339"><ele>506.25</ele><time>2026-05-02T12:26:04.999Z</time></trkpt><trkpt lat="44.22203720594908" lon="10.824581549846483"><ele>507.5</ele><time>2026-05-02T12:26:05.999Z</time></trkpt><trkpt lat="44.2220666515649" lon="10.824763908085975"><ele>508.75</ele><time>2026-05-02T12:26:06.999Z</time></trkpt><trkpt lat="44.2220847331695" lon="10.824939479579296"><ele>510.0</ele><time>2026-05-02T12:26:07.999Z</time></trkpt><trkpt lat="44.222021074453636" lon="10.825079755361124"><ele>511.25</ele><time>2026-05-02T12:26:08.999Z</time></trkpt><trkpt lat="44.22193182966806" lon="10.825188925280468"><ele>512.5</ele><time>2026-05-02T12:26:09.999Z</time></trkpt><trkpt lat="44.22184906635234" lon="10.825331968962956"><ele>513.75</ele><time>2026-05-02T12:26:10.999Z</time></trkpt><trkpt lat="44.22179281822728" lon="10.825473343913995"><ele>515.0</ele><time>2026-05-02T12:26:11.999Z</time></trkpt><trkpt lat="44.22179966264835" lon="10.82564695049675"><ele>515.0</ele><time>2026-05-02T12:26:12.999Z</time></trkpt><trkpt lat="44.22184862546406" lon="10.825851456592945"><ele>515.0</ele><time>2026-05-02T12:26:13.999Z</time></trkpt><trkpt lat="44.221902863403756" lon="10.826069906172274"><ele>515.0</ele><time>2026-05-02T12:26:14.999Z</time></trkpt><trkpt lat="44.22194623497276" lon="10.826310348831203"><ele>515.6666666666666</ele><time>2026-05-02T12:26:15.999Z</time></trkpt><trkpt lat="44.22196971827349" lon="10.826545167260672"><ele>516.3333333333334</ele><time>2026-05-02T12:26:16.999Z</time></trkpt><trkpt lat="44.22194789759278" lon="10.826756873370652"><ele>517.0</ele><time>2026-05-02T12:26:17.999Z</time></trkpt><trkpt lat="44.22194369180532" lon="10.82694393517308"><ele>517.75</ele><time>2026-05-02T12:26:18.999Z</time></trkpt><trkpt lat="44.22195119531565" lon="10.827115831124884"><ele>518.5</ele><time>2026-05-02T12:26:19.999Z</time></trkpt><trkpt lat="44.22204353678033" lon="10.827241713028057"><ele>519.25</ele><time>2026-05-02T12:26:20.998Z</time></trkpt><trkpt lat="44.22216048030282" lon="10.827350013594526"><ele>520.0</ele><time>2026-05-02T12:26:21.998Z</time></trkpt><trkpt lat="44.22231017838831" lon="10.827450943255588"><ele>517.6666666666667</ele><time>2026-05-02T12:26:22.998Z</time></trkpt><trkpt lat="44.222484140668925" lon="10.827567328737695"><ele>515.3333333333334</ele><time>2026-05-02T12:26:23.998Z</time></trkpt><trkpt lat="44.222656441880446" lon="10.827675440223885"><ele>513.0</ele><time>2026-05-02T12:26:24.998Z</time></trkpt><trkpt lat="44.222837398726035" lon="10.827743473138547"><ele>513.0</ele><time>2026-05-02T12:26:25.998Z</time></trkpt><trkpt lat="44.22301730343681" lon="10.827801353751315"><ele>513.0</ele><time>2026-05-02T12:26:26.998Z</time></trkpt><trkpt lat="44.22318225936919" lon="10.82791113341174"><ele>513.0</ele><time>2026-05-02T12:26:27.998Z</time></trkpt><trkpt lat="44.22333680321253" lon="10.828013152939556"><ele>512.25</ele><time>2026-05-02T12:26:28.998Z</time></trkpt><trkpt lat="44.22348284932005" lon="10.828091317877167"><ele>511.5</ele><time>2026-05-02T12:26:29.998Z</time></trkpt><trkpt lat="44.22360850562539" lon="10.828206457112524"><ele>510.75</ele><time>2026-05-02T12:26:30.998Z</time></trkpt><trkpt lat="44.22369121056213" lon="10.828367317687961"><ele>510.0</ele><time>2026-05-02T12:26:31.998Z</time></trkpt><trkpt lat="44.22375506292267" lon="10.828527459862393"><ele>510.0</ele><time>2026-05-02T12:26:32.998Z</time></trkpt><trkpt lat="44.22378660656887" lon="10.828707589388896"><ele>510.0</ele><time>2026-05-02T12:26:33.998Z</time></trkpt><trkpt lat="44.223791384649076" lon="10.828930855282856"><ele>510.0</ele><time>2026-05-02T12:26:34.998Z</time></trkpt><trkpt lat="44.223821912024086" lon="10.829186824947286"><ele>508.33333333333337</ele><time>2026-05-02T12:26:35.998Z</time></trkpt><trkpt lat="44.22386440162796" lon="10.829487464022225"><ele>506.6666666666667</ele><time>2026-05-02T12:26:36.998Z</time></trkpt><trkpt lat="44.22389818429822" lon="10.829777202965275"><ele>505.0</ele><time>2026-05-02T12:26:37.998Z</time></trkpt><trkpt lat="44.223911726621594" lon="10.830045730119048"><ele>504.0</ele><time>2026-05-02T12:26:38.999Z</time></trkpt><trkpt lat="44.223879623125" lon="10.830294426009884"><ele>503.0</ele><time>2026-05-02T12:26:39.999Z</time></trkpt><trkpt lat="44.223836900346235" lon="10.830525356334567"><ele>502.0</ele><time>2026-05-02T12:26:40.999Z</time></trkpt><trkpt lat="44.22375652698734" lon="10.830751836334043"><ele>501.6666666666667</ele><time>2026-05-02T12:26:41.999Z</time></trkpt><trkpt lat="44.22369037566414" lon="10.831011936100547"><ele>501.33333333333337</ele><time>2026-05-02T12:26:42.999Z</time></trkpt><trkpt lat="44.223628239929035" lon="10.831249039536818"><ele>501.0</ele><time>2026-05-02T12:26:43.999Z</time></trkpt><trkpt lat="44.22358350146475" lon="10.831467907356885"><ele>501.0</ele><time>2026-05-02T12:26:44.999Z</time></trkpt><trkpt lat="44.22361522857996" lon="10.831682657591667"><ele>501.0</ele><time>2026-05-02T12:26:45.999Z</time></trkpt><trkpt lat="44.22366486258713" lon="10.831877087850655"><ele>501.0</ele><time>2026-05-02T12:26:46.999Z</time></trkpt><trkpt lat="44.2237368379628" lon="10.832041613086831"><ele>501.0</ele><time>2026-05-02T12:26:47.999Z</time></trkpt><trkpt lat="44.22383690418776" lon="10.832159333646405"><ele>502.25</ele><time>2026-05-02T12:26:48.999Z</time></trkpt><trkpt lat="44.22396066791635" lon="10.83221439368568"><ele>503.5</ele><time>2026-05-02T12:26:49.999Z</time></trkpt><trkpt lat="44.22410059204774" lon="10.832213923112459"><ele>504.75</ele><time>2026-05-02T12:26:50.999Z</time></trkpt><trkpt lat="44.22425872922034" lon="10.832147267079346"><ele>506.0</ele><time>2026-05-02T12:26:51.999Z</time></trkpt><trkpt lat="44.224431457498554" lon="10.832060902988298"><ele>502.0</ele><time>2026-05-02T12:26:52.999Z</time></trkpt><trkpt lat="44.2246113983086" lon="10.831964290855193"><ele>498.0</ele><time>2026-05-02T12:26:53.999Z</time></trkpt><trkpt lat="44.22476843942995" lon="10.831876507425891"><ele>494.0</ele><time>2026-05-02T12:26:54.999Z</time></trkpt><trkpt lat="44.22491563097001" lon="10.83184039454971"><ele>491.75</ele><time>2026-05-02T12:26:55.999Z</time></trkpt><trkpt lat="44.22506510108115" lon="10.831848923513224"><ele>489.5</ele><time>2026-05-02T12:26:56.999Z</time></trkpt><trkpt lat="44.22520459299296" lon="10.831917999354888"><ele>487.25</ele><time>2026-05-02T12:26:57.999Z</time></trkpt><trkpt lat="44.225336788441155" lon="10.83201569279643"><ele>485.0</ele><time>2026-05-02T12:26:58.999Z</time></trkpt><trkpt lat="44.22544266072196" lon="10.832126503499653"><ele>485.0</ele><time>2026-05-02T12:26:59.999Z</time></trkpt><trkpt lat="44.225512311819614" lon="10.832253360781536"><ele>485.0</ele><time>2026-05-02T12:27:00.999Z</time></trkpt><trkpt lat="44.225515628464805" lon="10.832397457029908"><ele>485.0</ele><time>2026-05-02T12:27:01.999Z</time></trkpt><trkpt lat="44.225481145506905" lon="10.832551640336918"><ele>485.0</ele><time>2026-05-02T12:27:02.999Z</time></trkpt><trkpt lat="44.22543755244142" lon="10.832749163923927"><ele>485.5</ele><time>2026-05-02T12:27:03.999Z</time></trkpt><trkpt lat="44.22537791435276" lon="10.832942393644982"><ele>486.0</ele><time>2026-05-02T12:27:04.999Z</time></trkpt><trkpt lat="44.225348907330066" lon="10.833112844287633"><ele>486.5</ele><time>2026-05-02T12:27:05.999Z</time></trkpt><trkpt lat="44.22535616855921" lon="10.833265401337256"><ele>487.0</ele><time>2026-05-02T12:27:06.999Z</time></trkpt><trkpt lat="44.22541619793009" lon="10.833399557545084"><ele>488.5</ele><time>2026-05-02T12:27:07.999Z</time></trkpt><trkpt lat="44.22552140213088" lon="10.833485521252209"><ele>490.0</ele><time>2026-05-02T12:27:08.999Z</time></trkpt><trkpt lat="44.2256638238067" lon="10.833524615744054"><ele>491.5</ele><time>2026-05-02T12:27:09.999Z</time></trkpt><trkpt lat="44.22581933287164" lon="10.833519486952262"><ele>493.0</ele><time>2026-05-02T12:27:10.999Z</time></trkpt><trkpt lat="44.22595275373405" lon="10.833541532007729"><ele>489.75</ele><time>2026-05-02T12:27:11.999Z</time></trkpt><trkpt lat="44.226064543185" lon="10.833621117380687"><ele>486.5</ele><time>2026-05-02T12:27:12.999Z</time></trkpt><trkpt lat="44.226143193071145" lon="10.833774942932244"><ele>483.25</ele><time>2026-05-02T12:27:13.999Z</time></trkpt><trkpt lat="44.22622873048175" lon="10.833967863374866"><ele>480.0</ele><time>2026-05-02T12:27:14.999Z</time></trkpt><trkpt lat="44.226323831385855" lon="10.834186693564773"><ele>481.33333333333337</ele><time>2026-05-02T12:27:15.999Z</time></trkpt><trkpt lat="44.226407461326204" lon="10.834390245465835"><ele>482.6666666666667</ele><time>2026-05-02T12:27:16.999Z</time></trkpt><trkpt lat="44.22645645486486" lon="10.834590019086603"><ele>484.0</ele><time>2026-05-02T12:27:17.999Z</time></trkpt><trkpt lat="44.22645797861525" lon="10.834797893045126"><ele>484.0</ele><time>2026-05-02T12:27:18.999Z</time></trkpt><trkpt lat="44.226457756245786" lon="10.834993179885396"><ele>484.0</ele><time>2026-05-02T12:27:19.999Z</time></trkpt><trkpt lat="44.22647841422466" lon="10.835172494173223"><ele>484.0</ele><time>2026-05-02T12:27:20.999Z</time></trkpt><trkpt lat="44.226530633885254" lon="10.83535155367368"><ele>484.0</ele><time>2026-05-02T12:27:21.999Z</time></trkpt><trkpt lat="44.2266546334091" lon="10.83551512574648"><ele>482.33333333333337</ele><time>2026-05-02T12:27:22.999Z</time></trkpt><trkpt lat="44.22675724072614" lon="10.835704094205022"><ele>480.66666666666663</ele><time>2026-05-02T12:27:23.999Z</time></trkpt><trkpt lat="44.22683577256481" lon="10.835923202230017"><ele>479.0</ele><time>2026-05-02T12:27:24.999Z</time></trkpt><trkpt lat="44.22687887240557" lon="10.836180549483863"><ele>482.3333333333333</ele><time>2026-05-02T12:27:25.999Z</time></trkpt><trkpt lat="44.22692297135964" lon="10.83642275853672"><ele>485.66666666666663</ele><time>2026-05-02T12:27:26.999Z</time></trkpt><trkpt lat="44.22697033835388" lon="10.836640215299683"><ele>489.0</ele><time>2026-05-02T12:27:27.999Z</time></trkpt><trkpt lat="44.22706273355079" lon="10.836835185964063"><ele>491.5</ele><time>2026-05-02T12:27:28.999Z</time></trkpt><trkpt lat="44.22719613546084" lon="10.836984210321798"><ele>494.0</ele><time>2026-05-02T12:27:29.999Z</time></trkpt><trkpt lat="44.22729990023358" lon="10.837139178066282"><ele>496.5</ele><time>2026-05-02T12:27:30.999Z</time></trkpt><trkpt lat="44.227390735859665" lon="10.837261464397848"><ele>499.0</ele><time>2026-05-02T12:27:31.999Z</time></trkpt><trkpt lat="44.22744450393586" lon="10.837403840494176"><ele>492.5</ele><time>2026-05-02T12:27:32.999Z</time></trkpt><trkpt lat="44.227442988421686" lon="10.83759347828743"><ele>486.0</ele><time>2026-05-02T12:27:33.999Z</time></trkpt><trkpt lat="44.22746870959761" lon="10.837812451695335"><ele>479.5</ele><time>2026-05-02T12:27:34.999Z</time></trkpt><trkpt lat="44.227491967422324" lon="10.83800240445206"><ele>473.0</ele><time>2026-05-02T12:27:35.999Z</time></trkpt><trkpt lat="44.22748613543396" lon="10.838182216451724"><ele>473.0</ele><time>2026-05-02T12:27:36.999Z</time></trkpt><trkpt lat="44.22742592709394" lon="10.83837831510904"><ele>473.0</ele><time>2026-05-02T12:27:37.999Z</time></trkpt><trkpt lat="44.22734492529605" lon="10.838584738234163"><ele>473.0</ele><time>2026-05-02T12:27:38.999Z</time></trkpt><trkpt lat="44.22724602365225" lon="10.838806822698462"><ele>476.3333333333333</ele><time>2026-05-02T12:27:39.999Z</time></trkpt><trkpt lat="44.22714441956668" lon="10.839031778812414"><ele>479.66666666666663</ele><time>2026-05-02T12:27:40.999Z</time></trkpt><trkpt lat="44.227059970310115" lon="10.839238794400144"><ele>483.0</ele><time>2026-05-02T12:27:41.999Z</time></trkpt><trkpt lat="44.226989688469736" lon="10.839431582582638"><ele>483.0</ele><time>2026-05-02T12:27:42.999Z</time></trkpt><trkpt lat="44.22694635533802" lon="10.8396165636565"><ele>483.0</ele><time>2026-05-02T12:27:43.999Z</time></trkpt><trkpt lat="44.22694208195931" lon="10.839801751500254"><ele>483.0</ele><time>2026-05-02T12:27:44.999Z</time></trkpt><trkpt lat="44.2269659612336" lon="10.839974820316787"><ele>483.0</ele><time>2026-05-02T12:27:45.999Z</time></trkpt><trkpt lat="44.226971287082456" lon="10.84013977265181"><ele>483.4</ele><time>2026-05-02T12:27:46.999Z</time></trkpt><trkpt lat="44.22698331198735" lon="10.840285223013867"><ele>483.79999999999995</ele><time>2026-05-02T12:27:47.999Z</time></trkpt><trkpt lat="44.227002257739656" lon="10.840431444474252"><ele>484.2</ele><time>2026-05-02T12:27:48.999Z</time></trkpt><trkpt lat="44.22697417595266" lon="10.840579637113859"><ele>484.6</ele><time>2026-05-02T12:27:49.999Z</time></trkpt><trkpt lat="44.22694395365763" lon="10.840736661452922"><ele>485.0</ele><time>2026-05-02T12:27:50.999Z</time></trkpt><trkpt lat="44.22688343712602" lon="10.840916567845657"><ele>484.66666666666663</ele><time>2026-05-02T12:27:51.999Z</time></trkpt><trkpt lat="44.22681807792195" lon="10.841135884231921"><ele>484.33333333333337</ele><time>2026-05-02T12:27:52.999Z</time></trkpt><trkpt lat="44.226784136939656" lon="10.841391660828318"><ele>484.0</ele><time>2026-05-02T12:27:53.999Z</time></trkpt><trkpt lat="44.226736329330016" lon="10.841661711312263"><ele>481.6666666666667</ele><time>2026-05-02T12:27:54.999Z</time></trkpt><trkpt lat="44.22669084034992" lon="10.841916022226801"><ele>479.33333333333337</ele><time>2026-05-02T12:27:55.999Z</time></trkpt><trkpt lat="44.22664089193114" lon="10.842140492680018"><ele>477.0</ele><time>2026-05-02T12:27:56.999Z</time></trkpt><trkpt lat="44.226591917528374" lon="10.842351150531588"><ele>477.0</ele><time>2026-05-02T12:27:57.999Z</time></trkpt><trkpt lat="44.22656436342031" lon="10.84255838020134"><ele>477.0</ele><time>2026-05-02T12:27:58.999Z</time></trkpt><trkpt lat="44.22658140142988" lon="10.842751113086294"><ele>477.0</ele><time>2026-05-02T12:27:59.999Z</time></trkpt><trkpt lat="44.22664548458085" lon="10.842922837427594"><ele>477.0</ele><time>2026-05-02T12:28:00.999Z</time></trkpt><trkpt lat="44.22674484180605" lon="10.843093499588454"><ele>476.66666666666663</ele><time>2026-05-02T12:28:01.999Z</time></trkpt><trkpt lat="44.22681167227197" lon="10.84328176884912"><ele>476.3333333333333</ele><time>2026-05-02T12:28:02.999Z</time></trkpt><trkpt lat="44.22687738643666" lon="10.843488790057345"><ele>476.0</ele><time>2026-05-02T12:28:03.999Z</time></trkpt><trkpt lat="44.2269073315637" lon="10.843739054746695"><ele>475.66666666666663</ele><time>2026-05-02T12:28:04.999Z</time></trkpt><trkpt lat="44.22690571729728" lon="10.8440068881725"><ele>475.33333333333337</ele><time>2026-05-02T12:28:05.999Z</time></trkpt><trkpt lat="44.22690711918178" lon="10.844262447660652"><ele>475.0</ele><time>2026-05-02T12:28:06.999Z</time></trkpt><trkpt lat="44.2269311827694" lon="10.844499882571073"><ele>475.0</ele><time>2026-05-02T12:28:07.999Z</time></trkpt><trkpt lat="44.22697598285879" lon="10.844698897442475"><ele>475.0</ele><time>2026-05-02T12:28:08.999Z</time></trkpt><trkpt lat="44.2270521797358" lon="10.844874823579135"><ele>475.0</ele><time>2026-05-02T12:28:09.999Z</time></trkpt><trkpt lat="44.227178315960856" lon="10.845015571773331"><ele>472.0</ele><time>2026-05-02T12:28:10.999Z</time></trkpt><trkpt lat="44.2273355927634" lon="10.845142321207438"><ele>469.0</ele><time>2026-05-02T12:28:11.999Z</time></trkpt><trkpt lat="44.22747264401649" lon="10.84530323347133"><ele>466.0</ele><time>2026-05-02T12:28:12.999Z</time></trkpt><trkpt lat="44.227600536119866" lon="10.845511627606083"><ele>466.0</ele><time>2026-05-02T12:28:13.999Z</time></trkpt><trkpt lat="44.22771086388276" lon="10.845713987105398"><ele>466.0</ele><time>2026-05-02T12:28:14.999Z</time></trkpt><trkpt lat="44.22779262118214" lon="10.845888817937634"><ele>466.0</ele><time>2026-05-02T12:28:15.999Z</time></trkpt><trkpt lat="44.22783689064948" lon="10.846048597889645"><ele>463.75</ele><time>2026-05-02T12:28:16.999Z</time></trkpt><trkpt lat="44.22783802886464" lon="10.846205781664844"><ele>461.5</ele><time>2026-05-02T12:28:17.999Z</time></trkpt><trkpt lat="44.227776594525515" lon="10.846347406700966"><ele>459.25</ele><time>2026-05-02T12:28:18.999Z</time></trkpt><trkpt lat="44.22768852477121" lon="10.846491453110499"><ele>457.0</ele><time>2026-05-02T12:28:19.999Z</time></trkpt><trkpt lat="44.22756898874825" lon="10.846649741649085"><ele>453.6666666666667</ele><time>2026-05-02T12:28:20.999Z</time></trkpt><trkpt lat="44.22743812305117" lon="10.846816873454191"><ele>450.33333333333337</ele><time>2026-05-02T12:28:21.999Z</time></trkpt><trkpt lat="44.227317770925644" lon="10.84699664886581"><ele>447.0</ele><time>2026-05-02T12:28:22.999Z</time></trkpt><trkpt lat="44.22717088471843" lon="10.847107671726315"><ele>447.0</ele><time>2026-05-02T12:28:23.999Z</time></trkpt><trkpt lat="44.22701308621573" lon="10.847177092100111"><ele>447.0</ele><time>2026-05-02T12:28:24.999Z</time></trkpt><trkpt lat="44.22685624210509" lon="10.847192702954844"><ele>447.0</ele><time>2026-05-02T12:28:25.999Z</time></trkpt><trkpt lat="44.22670720361084" lon="10.847177775596215"><ele>447.0</ele><time>2026-05-02T12:28:26.999Z</time></trkpt><trkpt lat="44.22656225821045" lon="10.847163394881132"><ele>447.0</ele><time>2026-05-02T12:28:27.999Z</time></trkpt><trkpt lat="44.22642676169233" lon="10.847208886907632"><ele>447.0</ele><time>2026-05-02T12:28:28.999Z</time></trkpt><trkpt lat="44.226302055768976" lon="10.847298583602933"><ele>447.0</ele><time>2026-05-02T12:28:29.999Z</time></trkpt><trkpt lat="44.226192844958994" lon="10.847439703413082"><ele>445.66666666666663</ele><time>2026-05-02T12:28:30.999Z</time></trkpt><trkpt lat="44.226103038417804" lon="10.847634917700384"><ele>444.3333333333333</ele><time>2026-05-02T12:28:31.999Z</time></trkpt><trkpt lat="44.22602211569878" lon="10.84784964858046"><ele>443.0</ele><time>2026-05-02T12:28:32.999Z</time></trkpt><trkpt lat="44.22590687867412" lon="10.848035828198599"><ele>443.0</ele><time>2026-05-02T12:28:33.999Z</time></trkpt><trkpt lat="44.22581731693139" lon="10.848225596985982"><ele>443.0</ele><time>2026-05-02T12:28:34.998Z</time></trkpt><trkpt lat="44.22569173701931" lon="10.848380533456638"><ele>443.0</ele><time>2026-05-02T12:28:35.998Z</time></trkpt><trkpt lat="44.22554382794331" lon="10.848524021415285"><ele>441.3333333333333</ele><time>2026-05-02T12:28:36.998Z</time></trkpt><trkpt lat="44.22538325774919" lon="10.848661378241573"><ele>439.66666666666663</ele><time>2026-05-02T12:28:37.998Z</time></trkpt><trkpt lat="44.22523070967846" lon="10.848787489086586"><ele>438.0</ele><time>2026-05-02T12:28:38.998Z</time></trkpt><trkpt lat="44.22508727596116" lon="10.84887994124481"><ele>438.0</ele><time>2026-05-02T12:28:39.998Z</time></trkpt><trkpt lat="44.22493889979338" lon="10.848929376926131"><ele>438.0</ele><time>2026-05-02T12:28:40.998Z</time></trkpt><trkpt lat="44.224791441790614" lon="10.84891703978299"><ele>438.0</ele><time>2026-05-02T12:28:41.998Z</time></trkpt><trkpt lat="44.22466541113152" lon="10.84890051034015"><ele>438.0</ele><time>2026-05-02T12:28:42.998Z</time></trkpt><trkpt lat="44.22453420882362" lon="10.848946925784638"><ele>438.33333333333337</ele><time>2026-05-02T12:28:43.999Z</time></trkpt><trkpt lat="44.224407111575616" lon="10.849102175413547"><ele>438.6666666666667</ele><time>2026-05-02T12:28:44.999Z</time></trkpt><trkpt lat="44.22425465648681" lon="10.849227477492215"><ele>439.0</ele><time>2026-05-02T12:28:45.999Z</time></trkpt><trkpt lat="44.22407252305486" lon="10.84934446219053"><ele>438.33333333333337</ele><time>2026-05-02T12:28:46.999Z</time></trkpt><trkpt lat="44.2238935468414" lon="10.849424061283173"><ele>437.66666666666663</ele><time>2026-05-02T12:28:47.999Z</time></trkpt><trkpt lat="44.2237424212438" lon="10.849509463245374"><ele>437.0</ele><time>2026-05-02T12:28:48.999Z</time></trkpt><trkpt lat="44.22359665278631" lon="10.8496233874164"><ele>437.0</ele><time>2026-05-02T12:28:49.999Z</time></trkpt><trkpt lat="44.223455091640304" lon="10.849771237129595"><ele>437.0</ele><time>2026-05-02T12:28:50.999Z</time></trkpt><trkpt lat="44.22330639915365" lon="10.849944704716583"><ele>437.0</ele><time>2026-05-02T12:28:51.999Z</time></trkpt><trkpt lat="44.22317473371893" lon="10.850169619871235"><ele>435.3333333333333</ele><time>2026-05-02T12:28:52.999Z</time></trkpt><trkpt lat="44.223058777698114" lon="10.850429629905694"><ele>433.66666666666663</ele><time>2026-05-02T12:28:53.999Z</time></trkpt><trkpt lat="44.22291955937985" lon="10.850661509442222"><ele>432.0</ele><time>2026-05-02T12:28:54.999Z</time></trkpt><trkpt lat="44.22280429905103" lon="10.85088932427186"><ele>429.0</ele><time>2026-05-02T12:28:55.999Z</time></trkpt><trkpt lat="44.22266248654297" lon="10.851064155164018"><ele>426.0</ele><time>2026-05-02T12:28:56.999Z</time></trkpt><trkpt lat="44.22252193828537" lon="10.851208682944995"><ele>423.0</ele><time>2026-05-02T12:28:57.999Z</time></trkpt><trkpt lat="44.22240657683253" lon="10.851354645894604"><ele>423.0</ele><time>2026-05-02T12:28:58.999Z</time></trkpt><trkpt lat="44.222316277620244" lon="10.851506068683955"><ele>423.0</ele><time>2026-05-02T12:28:59.999Z</time></trkpt><trkpt lat="44.22227139209323" lon="10.851688899285662"><ele>423.0</ele><time>2026-05-02T12:29:00.999Z</time></trkpt><trkpt lat="44.22226983137283" lon="10.85191935419562"><ele>423.0</ele><time>2026-05-02T12:29:01.999Z</time></trkpt><trkpt lat="44.22230930258625" lon="10.852173067998432"><ele>424.66666666666663</ele><time>2026-05-02T12:29:02.999Z</time></trkpt><trkpt lat="44.2223579969961" lon="10.85244104867701"><ele>426.3333333333333</ele><time>2026-05-02T12:29:03.999Z</time></trkpt><trkpt lat="44.22240425854353" lon="10.852714486498053"><ele>428.0</ele><time>2026-05-02T12:29:04.999Z</time></trkpt><trkpt lat="44.222449539311" lon="10.852963033906233"><ele>428.0</ele><time>2026-05-02T12:29:05.999Z</time></trkpt><trkpt lat="44.222506884414926" lon="10.85318857226017"><ele>428.0</ele><time>2026-05-02T12:29:06.999Z</time></trkpt><trkpt lat="44.22259484780172" lon="10.85338552520878"><ele>428.0</ele><time>2026-05-02T12:29:07.999Z</time></trkpt><trkpt lat="44.222700967122655" lon="10.853566264048697"><ele>431.25</ele><time>2026-05-02T12:29:08.999Z</time></trkpt><trkpt lat="44.222785564322756" lon="10.853741084522298"><ele>434.5</ele><time>2026-05-02T12:29:09.999Z</time></trkpt><trkpt lat="44.22282498569225" lon="10.853931209378963"><ele>437.75</ele><time>2026-05-02T12:29:10.999Z</time></trkpt><trkpt lat="44.22284124040787" lon="10.854135213797544"><ele>441.0</ele><time>2026-05-02T12:29:11.999Z</time></trkpt><trkpt lat="44.222835842822164" lon="10.854301720502301"><ele>441.0</ele><time>2026-05-02T12:29:12.999Z</time></trkpt><trkpt lat="44.22280083851019" lon="10.854402874046492"><ele>441.0</ele><time>2026-05-02T12:29:13.999Z</time></trkpt><trkpt lat="44.22274172238209" lon="10.854455106014232"><ele>441.0</ele><time>2026-05-02T12:29:14.999Z</time></trkpt><trkpt lat="44.22267322923874" lon="10.854451225049042"><ele>441.0</ele><time>2026-05-02T12:29:15.999Z</time></trkpt><trkpt lat="44.22262184683121" lon="10.854370070821327"><ele>441.0</ele><time>2026-05-02T12:29:16.999Z</time></trkpt><trkpt lat="44.22261038072011" lon="10.854262988723093"><ele>441.0</ele><time>2026-05-02T12:29:17.999Z</time></trkpt><trkpt lat="44.22262818414145" lon="10.854138435077626"><ele>441.0</ele><time>2026-05-02T12:29:18.999Z</time></trkpt><trkpt lat="44.22265427486436" lon="10.853987400506131"><ele>441.0</ele><time>2026-05-02T12:29:19.999Z</time></trkpt><trkpt lat="44.22263712566101" lon="10.853828767493539"><ele>441.0</ele><time>2026-05-02T12:29:20.999Z</time></trkpt><trkpt lat="44.22258388996678" lon="10.85368821004581"><ele>441.0</ele><time>2026-05-02T12:29:21.999Z</time></trkpt><trkpt lat="44.222506022127355" lon="10.853599395545167"><ele>441.0</ele><time>2026-05-02T12:29:22.999Z</time></trkpt><trkpt lat="44.222383857611824" lon="10.853559956542421"><ele>441.75</ele><time>2026-05-02T12:29:23.999Z</time></trkpt><trkpt lat="44.22224774615112" lon="10.853567444219404"><ele>442.5</ele><time>2026-05-02T12:29:24.999Z</time></trkpt><trkpt lat="44.22212721721174" lon="10.853613970360218"><ele>443.25</ele><time>2026-05-02T12:29:25.999Z</time></trkpt><trkpt lat="44.22201588916234" lon="10.853720745573618"><ele>444.0</ele><time>2026-05-02T12:29:26.999Z</time></trkpt><trkpt lat="44.22191914132685" lon="10.853879710690853"><ele>444.0</ele><time>2026-05-02T12:29:27.999Z</time></trkpt><trkpt lat="44.22179257969211" lon="10.854002380832874"><ele>444.0</ele><time>2026-05-02T12:29:28.999Z</time></trkpt><trkpt lat="44.22165065050918" lon="10.854098908950661"><ele>444.0</ele><time>2026-05-02T12:29:29.999Z</time></trkpt><trkpt lat="44.22152840073756" lon="10.854237656759995"><ele>446.25</ele><time>2026-05-02T12:29:30.999Z</time></trkpt><trkpt lat="44.22142030134571" lon="10.8543710050436"><ele>448.5</ele><time>2026-05-02T12:29:31.999Z</time></trkpt><trkpt lat="44.221289132717885" lon="10.854412698613848"><ele>450.75</ele><time>2026-05-02T12:29:32.999Z</time></trkpt><trkpt lat="44.22115188125688" lon="10.854415704060182"><ele>453.0</ele><time>2026-05-02T12:29:33.999Z</time></trkpt><trkpt lat="44.22100209417497" lon="10.854385410806431"><ele>453.0</ele><time>2026-05-02T12:29:34.999Z</time></trkpt><trkpt lat="44.22082817877373" lon="10.854334619926071"><ele>453.0</ele><time>2026-05-02T12:29:35.999Z</time></trkpt><trkpt lat="44.22066086137636" lon="10.854235281157896"><ele>453.0</ele><time>2026-05-02T12:29:36.999Z</time></trkpt><trkpt lat="44.22050494243739" lon="10.854097555541472"><ele>453.0</ele><time>2026-05-02T12:29:37.999Z</time></trkpt><trkpt lat="44.22036440392768" lon="10.853993961174774"><ele>453.0</ele><time>2026-05-02T12:29:38.999Z</time></trkpt><trkpt lat="44.22022357052612" lon="10.853935454447159"><ele>453.0</ele><time>2026-05-02T12:29:39.999Z</time></trkpt><trkpt lat="44.22009346465896" lon="10.853901584483758"><ele>453.0</ele><time>2026-05-02T12:29:40.999Z</time></trkpt><trkpt lat="44.21999100844957" lon="10.853905570945242"><ele>453.0</ele><time>2026-05-02T12:29:41.999Z</time></trkpt><trkpt lat="44.219902365926366" lon="10.853947172611196"><ele>452.99999999999994</ele><time>2026-05-02T12:29:42.999Z</time></trkpt><trkpt lat="44.21985436470517" lon="10.854035740739649"><ele>452.99999999999994</ele><time>2026-05-02T12:29:43.999Z</time></trkpt><trkpt lat="44.219819437126255" lon="10.8541489697155"><ele>453.0</ele><time>2026-05-02T12:29:44.999Z</time></trkpt><trkpt lat="44.21987213019873" lon="10.854269818530765"><ele>453.0</ele><time>2026-05-02T12:29:45.999Z</time></trkpt><trkpt lat="44.219950242202934" lon="10.854343675075405"><ele>454.5</ele><time>2026-05-02T12:29:46.999Z</time></trkpt><trkpt lat="44.22005347725459" lon="10.854415245749673"><ele>456.0</ele><time>2026-05-02T12:29:47.999Z</time></trkpt><trkpt lat="44.22015505835295" lon="10.854519994097531"><ele>457.5</ele><time>2026-05-02T12:29:48.999Z</time></trkpt><trkpt lat="44.22021980330859" lon="10.854676283630827"><ele>459.0</ele><time>2026-05-02T12:29:49.999Z</time></trkpt><trkpt lat="44.22024878805314" lon="10.854860242914134"><ele>459.0</ele><time>2026-05-02T12:29:50.999Z</time></trkpt><trkpt lat="44.22029486516235" lon="10.855045431484507"><ele>459.0</ele><time>2026-05-02T12:29:51.999Z</time></trkpt><trkpt lat="44.22036519736613" lon="10.855228950636539"><ele>459.0</ele><time>2026-05-02T12:29:52.999Z</time></trkpt><trkpt lat="44.22050007234088" lon="10.855320775139196"><ele>459.0</ele><time>2026-05-02T12:29:53.999Z</time></trkpt><trkpt lat="44.22061752539177" lon="10.855412145628485"><ele>459.0</ele><time>2026-05-02T12:29:54.999Z</time></trkpt><trkpt lat="44.2207259516184" lon="10.85547043881116"><ele>459.0</ele><time>2026-05-02T12:29:55.999Z</time></trkpt><trkpt lat="44.22080472322505" lon="10.855532962609415"><ele>459.0</ele><time>2026-05-02T12:29:56.999Z</time></trkpt><trkpt lat="44.22081859316502" lon="10.855659471263099"><ele>459.0</ele><time>2026-05-02T12:29:57.999Z</time></trkpt><trkpt lat="44.220785272828316" lon="10.85577392908862"><ele>459.0</ele><time>2026-05-02T12:29:58.999Z</time></trkpt><trkpt lat="44.220708954947526" lon="10.855850053337273"><ele>460.5</ele><time>2026-05-02T12:29:59.999Z</time></trkpt><trkpt lat="44.22059212655228" lon="10.855847421580965"><ele>462.0</ele><time>2026-05-02T12:30:00.999Z</time></trkpt><trkpt lat="44.220454414423024" lon="10.855849327418493"><ele>463.5</ele><time>2026-05-02T12:30:01.999Z</time></trkpt><trkpt lat="44.22029367264647" lon="10.855785424300665"><ele>465.0</ele><time>2026-05-02T12:30:02.999Z</time></trkpt><trkpt lat="44.220114425096156" lon="10.85567342667028"><ele>465.0</ele><time>2026-05-02T12:30:03.999Z</time></trkpt><trkpt lat="44.21992156273832" lon="10.855539057926451"><ele>465.0</ele><time>2026-05-02T12:30:04.999Z</time></trkpt><trkpt lat="44.219720727074126" lon="10.855436959321132"><ele>465.0</ele><time>2026-05-02T12:30:05.999Z</time></trkpt><trkpt lat="44.219549726331884" lon="10.855387430553856"><ele>467.33333333333337</ele><time>2026-05-02T12:30:06.999Z</time></trkpt><trkpt lat="44.21941056074343" lon="10.85526309143487"><ele>469.6666666666667</ele><time>2026-05-02T12:30:07.999Z</time></trkpt><trkpt lat="44.21929500253696" lon="10.855113514209362"><ele>472.0</ele><time>2026-05-02T12:30:08.999Z</time></trkpt><trkpt lat="44.21917010663044" lon="10.854959425741308"><ele>472.0</ele><time>2026-05-02T12:30:09.999Z</time></trkpt><trkpt lat="44.21901755346133" lon="10.854839725854918"><ele>472.0</ele><time>2026-05-02T12:30:10.999Z</time></trkpt><trkpt lat="44.21885729664477" lon="10.854728295703174"><ele>472.0</ele><time>2026-05-02T12:30:11.999Z</time></trkpt><trkpt lat="44.218687445807205" lon="10.854642235982752"><ele>473.6666666666667</ele><time>2026-05-02T12:30:12.999Z</time></trkpt><trkpt lat="44.21849374773341" lon="10.854602231572105"><ele>475.33333333333337</ele><time>2026-05-02T12:30:13.999Z</time></trkpt><trkpt lat="44.218276588398815" lon="10.854583533369606"><ele>477.0</ele><time>2026-05-02T12:30:14.999Z</time></trkpt><trkpt lat="44.218060712713026" lon="10.854554373886124"><ele>477.75</ele><time>2026-05-02T12:30:15.999Z</time></trkpt><trkpt lat="44.2178821985482" lon="10.85452831728266"><ele>478.5</ele><time>2026-05-02T12:30:16.999Z</time></trkpt><trkpt lat="44.21775560513556" lon="10.854513428239791"><ele>479.25</ele><time>2026-05-02T12:30:17.999Z</time></trkpt><trkpt lat="44.21766490204759" lon="10.85452867724252"><ele>480.0</ele><time>2026-05-02T12:30:18.999Z</time></trkpt><trkpt lat="44.21759016960651" lon="10.85456224565301"><ele>480.0</ele><time>2026-05-02T12:30:19.999Z</time></trkpt><trkpt lat="44.21756522357739" lon="10.8546818319847"><ele>480.0</ele><time>2026-05-02T12:30:20.999Z</time></trkpt><trkpt lat="44.2175791873894" lon="10.854772683049966"><ele>480.0</ele><time>2026-05-02T12:30:21.999Z</time></trkpt><trkpt lat="44.21762648599736" lon="10.854849071156819"><ele>480.0</ele><time>2026-05-02T12:30:22.999Z</time></trkpt><trkpt lat="44.21771133031299" lon="10.854878103895"><ele>480.0</ele><time>2026-05-02T12:30:23.999Z</time></trkpt><trkpt lat="44.21781492592794" lon="10.854842795757685"><ele>480.0</ele><time>2026-05-02T12:30:24.999Z</time></trkpt><trkpt lat="44.21792430298749" lon="10.854778901035711"><ele>480.0</ele><time>2026-05-02T12:30:25.999Z</time></trkpt><trkpt lat="44.218038130013845" lon="10.854774791494554"><ele>480.0</ele><time>2026-05-02T12:30:26.999Z</time></trkpt><trkpt lat="44.218149482652294" lon="10.854830358901706"><ele>480.0</ele><time>2026-05-02T12:30:27.999Z</time></trkpt><trkpt lat="44.21823848548905" lon="10.854938851129582"><ele>480.0</ele><time>2026-05-02T12:30:28.999Z</time></trkpt><trkpt lat="44.21829109362381" lon="10.855109683640675"><ele>481.66666666666663</ele><time>2026-05-02T12:30:29.999Z</time></trkpt><trkpt lat="44.218358188629935" lon="10.85531782301666"><ele>483.3333333333333</ele><time>2026-05-02T12:30:30.999Z</time></trkpt><trkpt lat="44.21843387335591" lon="10.855547334772611"><ele>485.0</ele><time>2026-05-02T12:30:31.999Z</time></trkpt><trkpt lat="44.218518686556756" lon="10.855796258717813"><ele>487.66666666666663</ele><time>2026-05-02T12:30:32.999Z</time></trkpt><trkpt lat="44.21863459168621" lon="10.856044806152083"><ele>490.33333333333337</ele><time>2026-05-02T12:30:33.999Z</time></trkpt><trkpt lat="44.21876726143669" lon="10.856282099743861"><ele>493.0</ele><time>2026-05-02T12:30:34.999Z</time></trkpt><trkpt lat="44.21888118969808" lon="10.856536129890944"><ele>492.6666666666667</ele><time>2026-05-02T12:30:35.999Z</time></trkpt><trkpt lat="44.21900656947424" lon="10.856743244124768"><ele>492.33333333333337</ele><time>2026-05-02T12:30:36.999Z</time></trkpt><trkpt lat="44.219130526624234" lon="10.856904862810579"><ele>492.0</ele><time>2026-05-02T12:30:37.999Z</time></trkpt><trkpt lat="44.219220702858216" lon="10.85708015080432"><ele>492.0</ele><time>2026-05-02T12:30:38.999Z</time></trkpt><trkpt lat="44.21927876299888" lon="10.857241083487374"><ele>492.00000000000006</ele><time>2026-05-02T12:30:39.999Z</time></trkpt><trkpt lat="44.219298648923846" lon="10.857375887064082"><ele>492.00000000000006</ele><time>2026-05-02T12:30:40.999Z</time></trkpt><trkpt lat="44.219274498666216" lon="10.857483243635933"><ele>492.0</ele><time>2026-05-02T12:30:41.998Z</time></trkpt><trkpt lat="44.21921368827823" lon="10.8575659405536"><ele>492.0</ele><time>2026-05-02T12:30:42.998Z</time></trkpt><trkpt lat="44.21912555217847" lon="10.857600498985104"><ele>492.0</ele><time>2026-05-02T12:30:43.998Z</time></trkpt><trkpt lat="44.21902654480781" lon="10.857563933958826"><ele>492.0</ele><time>2026-05-02T12:30:44.998Z</time></trkpt><trkpt lat="44.21891862015155" lon="10.857454462204215"><ele>492.0</ele><time>2026-05-02T12:30:45.998Z</time></trkpt><trkpt lat="44.21879345161066" lon="10.85731663534845"><ele>492.0</ele><time>2026-05-02T12:30:46.998Z</time></trkpt><trkpt lat="44.21862979848395" lon="10.857202876765113"><ele>494.66666666666663</ele><time>2026-05-02T12:30:47.998Z</time></trkpt><trkpt lat="44.2184367945224" lon="10.85710215304094"><ele>497.3333333333333</ele><time>2026-05-02T12:30:48.998Z</time></trkpt><trkpt lat="44.2182343849307" lon="10.856985032952483"><ele>500.0</ele><time>2026-05-02T12:30:49.999Z</time></trkpt><trkpt lat="44.21805818684712" lon="10.856854027285408"><ele>500.0</ele><time>2026-05-02T12:30:50.999Z</time></trkpt><trkpt lat="44.21790491722614" lon="10.856760262122389"><ele>500.0</ele><time>2026-05-02T12:30:51.999Z</time></trkpt><trkpt lat="44.217751084529155" lon="10.856702789265904"><ele>500.0</ele><time>2026-05-02T12:30:52.999Z</time></trkpt><trkpt lat="44.21760580650477" lon="10.856681747819778"><ele>500.0</ele><time>2026-05-02T12:30:53.999Z</time></trkpt><trkpt lat="44.217462116049326" lon="10.85669883996731"><ele>500.0</ele><time>2026-05-02T12:30:54.999Z</time></trkpt><trkpt lat="44.2173192193952" lon="10.856771096795393"><ele>500.0</ele><time>2026-05-02T12:30:55.999Z</time></trkpt><trkpt lat="44.21719485806393" lon="10.856893023435424"><ele>500.0</ele><time>2026-05-02T12:30:56.999Z</time></trkpt><trkpt lat="44.217093086125686" lon="10.85705684216566"><ele>502.66666666666663</ele><time>2026-05-02T12:30:57.999Z</time></trkpt><trkpt lat="44.21700538508983" lon="10.85724100788545"><ele>505.33333333333337</ele><time>2026-05-02T12:30:58.999Z</time></trkpt><trkpt lat="44.21689046410178" lon="10.857389003144965"><ele>508.0</ele><time>2026-05-02T12:30:59.999Z</time></trkpt><trkpt lat="44.2167466352316" lon="10.857475798699934"><ele>508.0</ele><time>2026-05-02T12:31:00.999Z</time></trkpt><trkpt lat="44.21658167838317" lon="10.857518825942769"><ele>508.0</ele><time>2026-05-02T12:31:01.999Z</time></trkpt><trkpt lat="44.21640403008222" lon="10.857546509748202"><ele>508.0</ele><time>2026-05-02T12:31:02.999Z</time></trkpt><trkpt lat="44.216239506750206" lon="10.85753749405606"><ele>507.6666666666667</ele><time>2026-05-02T12:31:03.999Z</time></trkpt><trkpt lat="44.21608710543473" lon="10.85755451459348"><ele>507.33333333333337</ele><time>2026-05-02T12:31:04.999Z</time></trkpt><trkpt lat="44.21592614072185" lon="10.85762862560744"><ele>507.0</ele><time>2026-05-02T12:31:05.999Z</time></trkpt><trkpt lat="44.21577237631272" lon="10.857738385814978"><ele>508.0</ele><time>2026-05-02T12:31:06.999Z</time></trkpt><trkpt lat="44.21565345066449" lon="10.857854298028753"><ele>509.0</ele><time>2026-05-02T12:31:07.999Z</time></trkpt><trkpt lat="44.215561133127586" lon="10.858010871848151"><ele>510.0</ele><time>2026-05-02T12:31:08.999Z</time></trkpt><trkpt lat="44.21549632791885" lon="10.858212521839922"><ele>511.0</ele><time>2026-05-02T12:31:09.999Z</time></trkpt><trkpt lat="44.21543018954138" lon="10.85839487185589"><ele>514.0</ele><time>2026-05-02T12:31:10.999Z</time></trkpt><trkpt lat="44.21530400362815" lon="10.858544593197683"><ele>517.0</ele><time>2026-05-02T12:31:11.999Z</time></trkpt><trkpt lat="44.21514048707538" lon="10.858682080448546"><ele>520.0</ele><time>2026-05-02T12:31:12.999Z</time></trkpt><trkpt lat="44.21499727043527" lon="10.858839732098144"><ele>520.0</ele><time>2026-05-02T12:31:13.999Z</time></trkpt><trkpt lat="44.214886752335296" lon="10.859005589211538"><ele>520.0</ele><time>2026-05-02T12:31:14.999Z</time></trkpt><trkpt lat="44.214804758749096" lon="10.859182549822066"><ele>520.0</ele><time>2026-05-02T12:31:15.999Z</time></trkpt><trkpt lat="44.214751184856496" lon="10.85935478853076"><ele>520.0</ele><time>2026-05-02T12:31:16.999Z</time></trkpt><trkpt lat="44.21473467768537" lon="10.859522496909603"><ele>519.75</ele><time>2026-05-02T12:31:17.999Z</time></trkpt><trkpt lat="44.21475964528001" lon="10.859683741821662"><ele>519.5</ele><time>2026-05-02T12:31:18.999Z</time></trkpt><trkpt lat="44.21483814771681" lon="10.859841750269815"><ele>519.25</ele><time>2026-05-02T12:31:19.999Z</time></trkpt><trkpt lat="44.21490989423037" lon="10.860008354688789"><ele>519.0</ele><time>2026-05-02T12:31:20.999Z</time></trkpt><trkpt lat="44.214943679047266" lon="10.860201935242136"><ele>522.0</ele><time>2026-05-02T12:31:21.999Z</time></trkpt><trkpt lat="44.214927342856576" lon="10.860429023181025"><ele>525.0</ele><time>2026-05-02T12:31:22.999Z</time></trkpt><trkpt lat="44.214897520819775" lon="10.860684078200107"><ele>528.0</ele><time>2026-05-02T12:31:23.999Z</time></trkpt><trkpt lat="44.21487262260462" lon="10.860945840538633"><ele>529.75</ele><time>2026-05-02T12:31:24.999Z</time></trkpt><trkpt lat="44.214845809221465" lon="10.861160896701522"><ele>531.5</ele><time>2026-05-02T12:31:25.999Z</time></trkpt><trkpt lat="44.21478939524811" lon="10.861346792223571"><ele>533.25</ele><time>2026-05-02T12:31:26.999Z</time></trkpt><trkpt lat="44.21473071045656" lon="10.86149168996111"><ele>535.0</ele><time>2026-05-02T12:31:27.999Z</time></trkpt><trkpt lat="44.214658836420035" lon="10.861580538568942"><ele>536.0</ele><time>2026-05-02T12:31:28.999Z</time></trkpt><trkpt lat="44.214559068740584" lon="10.8616134976741"><ele>537.0</ele><time>2026-05-02T12:31:29.999Z</time></trkpt><trkpt lat="44.21443046651693" lon="10.861613227699767"><ele>538.0</ele><time>2026-05-02T12:31:30.999Z</time></trkpt><trkpt lat="44.2142944461128" lon="10.861585129849257"><ele>539.0</ele><time>2026-05-02T12:31:31.999Z</time></trkpt><trkpt lat="44.21418282474616" lon="10.861525652601328"><ele>539.0</ele><time>2026-05-02T12:31:32.999Z</time></trkpt><trkpt lat="44.21409560655031" lon="10.861418465248745"><ele>539.0</ele><time>2026-05-02T12:31:33.999Z</time></trkpt><trkpt lat="44.21406595949989" lon="10.861223076928432"><ele>539.0</ele><time>2026-05-02T12:31:34.999Z</time></trkpt><trkpt lat="44.21401200814954" lon="10.861004359902841"><ele>539.0</ele><time>2026-05-02T12:31:35.999Z</time></trkpt><trkpt lat="44.21393158637327" lon="10.860762709671745"><ele>543.0</ele><time>2026-05-02T12:31:36.999Z</time></trkpt><trkpt lat="44.213862432380594" lon="10.860492765790376"><ele>547.0</ele><time>2026-05-02T12:31:37.999Z</time></trkpt><trkpt lat="44.213780379303536" lon="10.860227496492053"><ele>551.0</ele><time>2026-05-02T12:31:38.999Z</time></trkpt><trkpt lat="44.21370537444904" lon="10.85995748782177"><ele>551.0</ele><time>2026-05-02T12:31:39.999Z</time></trkpt><trkpt lat="44.2136636849909" lon="10.85970624856209"><ele>551.0</ele><time>2026-05-02T12:31:40.999Z</time></trkpt><trkpt lat="44.21363275894999" lon="10.859494394665345"><ele>551.0</ele><time>2026-05-02T12:31:41.999Z</time></trkpt><trkpt lat="44.21358029042715" lon="10.8593364091115"><ele>547.25</ele><time>2026-05-02T12:31:42.999Z</time></trkpt><trkpt lat="44.21349314174549" lon="10.859211610935116"><ele>543.5</ele><time>2026-05-02T12:31:43.999Z</time></trkpt><trkpt lat="44.213360300847775" lon="10.859110619013556"><ele>539.75</ele><time>2026-05-02T12:31:44.999Z</time></trkpt><trkpt lat="44.21322703828192" lon="10.859005940193963"><ele>536.0</ele><time>2026-05-02T12:31:45.999Z</time></trkpt><trkpt lat="44.21310505245048" lon="10.858930165919771"><ele>536.0</ele><time>2026-05-02T12:31:46.999Z</time></trkpt><trkpt lat="44.212992460499784" lon="10.858903062969075"><ele>536.0</ele><time>2026-05-02T12:31:47.999Z</time></trkpt><trkpt lat="44.21288509407822" lon="10.858933518905006"><ele>536.0</ele><time>2026-05-02T12:31:48.999Z</time></trkpt><trkpt lat="44.21278500159265" lon="10.85903641078222"><ele>536.0</ele><time>2026-05-02T12:31:49.999Z</time></trkpt><trkpt lat="44.212709037234525" lon="10.859193734369471"><ele>541.6666666666666</ele><time>2026-05-02T12:31:50.999Z</time></trkpt><trkpt lat="44.21264020778332" lon="10.859393644112158"><ele>547.3333333333334</ele><time>2026-05-02T12:31:51.999Z</time></trkpt><trkpt lat="44.212538507583474" lon="10.85959620165641"><ele>553.0</ele><time>2026-05-02T12:31:52.999Z</time></trkpt><trkpt lat="44.21239921208877" lon="10.859783859427353"><ele>556.0</ele><time>2026-05-02T12:31:53.999Z</time></trkpt><trkpt lat="44.21222648885633" lon="10.859941472654203"><ele>559.0</ele><time>2026-05-02T12:31:54.999Z</time></trkpt><trkpt lat="44.2120567870843" lon="10.86013251533594"><ele>562.0</ele><time>2026-05-02T12:31:55.999Z</time></trkpt><trkpt lat="44.2118583742831" lon="10.860285987840122"><ele>562.0</ele><time>2026-05-02T12:31:56.999Z</time></trkpt><trkpt lat="44.2116376481383" lon="10.860414037999613"><ele>562.0</ele><time>2026-05-02T12:31:57.999Z</time></trkpt><trkpt lat="44.211409039163264" lon="10.860525380838723"><ele>558.5</ele><time>2026-05-02T12:31:58.999Z</time></trkpt><trkpt lat="44.21118675997585" lon="10.860627031877158"><ele>555.0</ele><time>2026-05-02T12:31:59.999Z</time></trkpt><trkpt lat="44.21098069014407" lon="10.860719754040014"><ele>555.0</ele><time>2026-05-02T12:32:00.999Z</time></trkpt><trkpt lat="44.21079534717071" lon="10.860808113223055"><ele>555.0</ele><time>2026-05-02T12:32:01.999Z</time></trkpt><trkpt lat="44.21063048445813" lon="10.860895089067144"><ele>555.0</ele><time>2026-05-02T12:32:02.999Z</time></trkpt><trkpt lat="44.21050181352712" lon="10.86097533820712"><ele>558.5</ele><time>2026-05-02T12:32:03.999Z</time></trkpt><trkpt lat="44.21039338449744" lon="10.861075287411406"><ele>562.0</ele><time>2026-05-02T12:32:04.999Z</time></trkpt><trkpt lat="44.21031287577607" lon="10.86120160975438"><ele>565.5</ele><time>2026-05-02T12:32:05.999Z</time></trkpt><trkpt lat="44.21025906426206" lon="10.861336498983702"><ele>569.0</ele><time>2026-05-02T12:32:06.999Z</time></trkpt><trkpt lat="44.21018520831368" lon="10.861428458952327"><ele>569.0</ele><time>2026-05-02T12:32:07.999Z</time></trkpt><trkpt lat="44.210106348282395" lon="10.861472197198445"><ele>569.0</ele><time>2026-05-02T12:32:08.999Z</time></trkpt><trkpt lat="44.21003068506988" lon="10.861456081366192"><ele>569.0</ele><time>2026-05-02T12:32:09.999Z</time></trkpt><trkpt lat="44.209962210284765" lon="10.861353373389868"><ele>569.0</ele><time>2026-05-02T12:32:10.999Z</time></trkpt><trkpt lat="44.2098671420158" lon="10.861233966543445"><ele>569.0</ele><time>2026-05-02T12:32:11.999Z</time></trkpt><trkpt lat="44.209743281484165" lon="10.861092370103309"><ele>568.3333333333333</ele><time>2026-05-02T12:32:12.999Z</time></trkpt><trkpt lat="44.20958473355148" lon="10.860954332010586"><ele>567.6666666666666</ele><time>2026-05-02T12:32:13.999Z</time></trkpt><trkpt lat="44.20939687941861" lon="10.860847443063411"><ele>567.0</ele><time>2026-05-02T12:32:14.999Z</time></trkpt><trkpt lat="44.2092161627662" lon="10.860705750629696"><ele>567.0</ele><time>2026-05-02T12:32:15.999Z</time></trkpt><trkpt lat="44.20902874104262" lon="10.860543000027839"><ele>567.0</ele><time>2026-05-02T12:32:16.999Z</time></trkpt><trkpt lat="44.20885857960689" lon="10.860378099471552"><ele>567.0</ele><time>2026-05-02T12:32:17.999Z</time></trkpt><trkpt lat="44.208711186411506" lon="10.860230438545981"><ele>568.25</ele><time>2026-05-02T12:32:18.999Z</time></trkpt><trkpt lat="44.20857260770308" lon="10.86011758512234"><ele>569.5</ele><time>2026-05-02T12:32:19.999Z</time></trkpt><trkpt lat="44.20845226016841" lon="10.860031616827174"><ele>570.75</ele><time>2026-05-02T12:32:20.999Z</time></trkpt><trkpt lat="44.20835995984235" lon="10.859987512263293"><ele>572.0</ele><time>2026-05-02T12:32:21.999Z</time></trkpt><trkpt lat="44.20827155216489" lon="10.859990660018084"><ele>572.0</ele><time>2026-05-02T12:32:22.999Z</time></trkpt><trkpt lat="44.20820793603846" lon="10.86006458934443"><ele>572.0</ele><time>2026-05-02T12:32:23.999Z</time></trkpt><trkpt lat="44.20817513479485" lon="10.860191353692654"><ele>572.0</ele><time>2026-05-02T12:32:24.999Z</time></trkpt><trkpt lat="44.20818211517359" lon="10.860382955486742"><ele>572.0</ele><time>2026-05-02T12:32:25.999Z</time></trkpt><trkpt lat="44.20818380266197" lon="10.86059054021994"><ele>571.6666666666666</ele><time>2026-05-02T12:32:26.999Z</time></trkpt><trkpt lat="44.208141105775596" lon="10.860791217863971"><ele>571.3333333333334</ele><time>2026-05-02T12:32:27.999Z</time></trkpt><trkpt lat="44.2080478184197" lon="10.860983920275418"><ele>571.0</ele><time>2026-05-02T12:32:28.999Z</time></trkpt><trkpt lat="44.20790992613795" lon="10.861165525047953"><ele>571.0</ele><time>2026-05-02T12:32:29.999Z</time></trkpt><trkpt lat="44.20777275775521" lon="10.861358887704299"><ele>571.0</ele><time>2026-05-02T12:32:30.999Z</time></trkpt><trkpt lat="44.20767242531121" lon="10.861593449831922"><ele>571.0</ele><time>2026-05-02T12:32:31.999Z</time></trkpt><trkpt lat="44.20757749309301" lon="10.86180180552557"><ele>571.0</ele><time>2026-05-02T12:32:32.999Z</time></trkpt><trkpt lat="44.20746642031427" lon="10.861965394411188"><ele>571.0</ele><time>2026-05-02T12:32:33.999Z</time></trkpt><trkpt lat="44.20734113235517" lon="10.862063393866878"><ele>571.0</ele><time>2026-05-02T12:32:34.999Z</time></trkpt><trkpt lat="44.20721281633361" lon="10.86211821901496"><ele>571.0</ele><time>2026-05-02T12:32:35.999Z</time></trkpt><trkpt lat="44.20712507832478" lon="10.862218459965412"><ele>571.0</ele><time>2026-05-02T12:32:36.999Z</time></trkpt><trkpt lat="44.20706176286363" lon="10.862394086574417"><ele>571.0</ele><time>2026-05-02T12:32:37.999Z</time></trkpt><trkpt lat="44.207021134078104" lon="10.862614768411492"><ele>571.0</ele><time>2026-05-02T12:32:38.999Z</time></trkpt><trkpt lat="44.20697248349764" lon="10.862862177763516"><ele>574.3333333333334</ele><time>2026-05-02T12:32:39.999Z</time></trkpt><trkpt lat="44.20689168722638" lon="10.863111695199912"><ele>577.6666666666666</ele><time>2026-05-02T12:32:40.999Z</time></trkpt><trkpt lat="44.20680480837354" lon="10.86333958086383"><ele>581.0</ele><time>2026-05-02T12:32:41.999Z</time></trkpt><trkpt lat="44.20669950672569" lon="10.86353978191423"><ele>584.3333333333333</ele><time>2026-05-02T12:32:42.999Z</time></trkpt><trkpt lat="44.20657320253018" lon="10.863717496792022"><ele>587.6666666666666</ele><time>2026-05-02T12:32:43.999Z</time></trkpt><trkpt lat="44.20643733833128" lon="10.863848116319824"><ele>591.0</ele><time>2026-05-02T12:32:44.999Z</time></trkpt><trkpt lat="44.20631316424592" lon="10.863940401221305"><ele>591.0</ele><time>2026-05-02T12:32:45.999Z</time></trkpt><trkpt lat="44.20619607001003" lon="10.863978293648747"><ele>591.0</ele><time>2026-05-02T12:32:46.998Z</time></trkpt><trkpt lat="44.206085054292814" lon="10.863964866393989"><ele>591.0</ele><time>2026-05-02T12:32:47.998Z</time></trkpt><trkpt lat="44.205986223238156" lon="10.8638910905138"><ele>591.0</ele><time>2026-05-02T12:32:48.998Z</time></trkpt><trkpt lat="44.20591982591177" lon="10.863728750936563"><ele>591.0</ele><time>2026-05-02T12:32:49.998Z</time></trkpt><trkpt lat="44.20580932116792" lon="10.863600078969966"><ele>591.0</ele><time>2026-05-02T12:32:50.998Z</time></trkpt><trkpt lat="44.205674510711994" lon="10.863500640701284"><ele>591.0</ele><time>2026-05-02T12:32:51.998Z</time></trkpt><trkpt lat="44.20554725771979" lon="10.863423178512996"><ele>591.0</ele><time>2026-05-02T12:32:52.998Z</time></trkpt><trkpt lat="44.20541964756048" lon="10.86342087747172"><ele>590.75</ele><time>2026-05-02T12:32:53.998Z</time></trkpt><trkpt lat="44.205308304646394" lon="10.863454709815418"><ele>590.5</ele><time>2026-05-02T12:32:54.998Z</time></trkpt><trkpt lat="44.20520508218691" lon="10.863558693233998"><ele>590.25</ele><time>2026-05-02T12:32:55.999Z</time></trkpt><trkpt lat="44.2051005563044" lon="10.8637025225777"><ele>590.0</ele><time>2026-05-02T12:32:56.999Z</time></trkpt><trkpt lat="44.20499861395112" lon="10.863891306747663"><ele>590.0</ele><time>2026-05-02T12:32:57.999Z</time></trkpt><trkpt lat="44.20490436953003" lon="10.864115196667383"><ele>590.0</ele><time>2026-05-02T12:32:58.999Z</time></trkpt><trkpt lat="44.20483687098413" lon="10.86433035517055"><ele>590.0</ele><time>2026-05-02T12:32:59.999Z</time></trkpt><trkpt lat="44.20479306728279" lon="10.864545521987413"><ele>590.3333333333333</ele><time>2026-05-02T12:33:00.999Z</time></trkpt><trkpt lat="44.20477543316566" lon="10.86479169244166"><ele>590.6666666666666</ele><time>2026-05-02T12:33:01.999Z</time></trkpt><trkpt lat="44.20476882426792" lon="10.865045743754672"><ele>591.0</ele><time>2026-05-02T12:33:02.999Z</time></trkpt><trkpt lat="44.20475351753067" lon="10.86526329377863"><ele>593.25</ele><time>2026-05-02T12:33:03.999Z</time></trkpt><trkpt lat="44.20472722974391" lon="10.865455191674771"><ele>595.5</ele><time>2026-05-02T12:33:04.999Z</time></trkpt><trkpt lat="44.20468580699224" lon="10.865609641497825"><ele>597.75</ele><time>2026-05-02T12:33:05.999Z</time></trkpt><trkpt lat="44.204617537847064" lon="10.865717677034526"><ele>600.0</ele><time>2026-05-02T12:33:06.999Z</time></trkpt><trkpt lat="44.204525688558014" lon="10.865761854395657"><ele>600.0</ele><time>2026-05-02T12:33:07.999Z</time></trkpt><trkpt lat="44.20442171335642" lon="10.865719321044422"><ele>600.0</ele><time>2026-05-02T12:33:08.999Z</time></trkpt><trkpt lat="44.20429029679024" lon="10.865678977443698"><ele>600.0</ele><time>2026-05-02T12:33:09.999Z</time></trkpt><trkpt lat="44.204143737065664" lon="10.865598774737478"><ele>600.0</ele><time>2026-05-02T12:33:10.999Z</time></trkpt><trkpt lat="44.20397129881282" lon="10.86551792881055"><ele>602.3333333333334</ele><time>2026-05-02T12:33:11.999Z</time></trkpt><trkpt lat="44.20379658139933" lon="10.86543073036838"><ele>604.6666666666667</ele><time>2026-05-02T12:33:12.999Z</time></trkpt><trkpt lat="44.203647704269926" lon="10.865340483625682"><ele>607.0</ele><time>2026-05-02T12:33:13.999Z</time></trkpt><trkpt lat="44.20353751739297" lon="10.865217314528483"><ele>606.8000000000001</ele><time>2026-05-02T12:33:14.999Z</time></trkpt><trkpt lat="44.20346077607212" lon="10.865096624199182"><ele>606.6</ele><time>2026-05-02T12:33:15.999Z</time></trkpt><trkpt lat="44.20338775258963" lon="10.86502754144789"><ele>606.4000000000001</ele><time>2026-05-02T12:33:16.999Z</time></trkpt><trkpt lat="44.203305139990746" lon="10.865020487502727"><ele>606.2</ele><time>2026-05-02T12:33:17.999Z</time></trkpt><trkpt lat="44.20321762015331" lon="10.865087107426847"><ele>606.0</ele><time>2026-05-02T12:33:18.999Z</time></trkpt><trkpt lat="44.20314264664563" lon="10.865219479521585"><ele>606.0</ele><time>2026-05-02T12:33:19.999Z</time></trkpt><trkpt lat="44.203067899924484" lon="10.865390978443326"><ele>606.0</ele><time>2026-05-02T12:33:20.999Z</time></trkpt><trkpt lat="44.20298741783553" lon="10.86559585363542"><ele>606.0</ele><time>2026-05-02T12:33:21.999Z</time></trkpt><trkpt lat="44.20289067941613" lon="10.865829326332383"><ele>608.6666666666666</ele><time>2026-05-02T12:33:22.999Z</time></trkpt><trkpt lat="44.202767998049566" lon="10.86606869148544"><ele>611.3333333333333</ele><time>2026-05-02T12:33:23.999Z</time></trkpt><trkpt lat="44.20262029340156" lon="10.866276359176187"><ele>614.0</ele><time>2026-05-02T12:33:24.999Z</time></trkpt><trkpt lat="44.20247206441595" lon="10.866434643173777"><ele>614.3333333333333</ele><time>2026-05-02T12:33:25.999Z</time></trkpt><trkpt lat="44.20232634998921" lon="10.866559239298892"><ele>614.6666666666666</ele><time>2026-05-02T12:33:26.999Z</time></trkpt><trkpt lat="44.2021811234066" lon="10.866644157029816"><ele>615.0</ele><time>2026-05-02T12:33:27.999Z</time></trkpt><trkpt lat="44.20203695428579" lon="10.866684459280163"><ele>615.0</ele><time>2026-05-02T12:33:28.999Z</time></trkpt><trkpt lat="44.20188625108864" lon="10.866655951241194"><ele>615.0</ele><time>2026-05-02T12:33:29.999Z</time></trkpt><trkpt lat="44.20173847315343" lon="10.866576837486452"><ele>615.0</ele><time>2026-05-02T12:33:30.999Z</time></trkpt><trkpt lat="44.20158591482454" lon="10.866529925970662"><ele>615.3333333333334</ele><time>2026-05-02T12:33:31.999Z</time></trkpt><trkpt lat="44.20142283536269" lon="10.86654747289782"><ele>615.6666666666667</ele><time>2026-05-02T12:33:32.999Z</time></trkpt><trkpt lat="44.20124897825814" lon="10.866598070411003"><ele>616.0</ele><time>2026-05-02T12:33:33.999Z</time></trkpt><trkpt lat="44.201069305310206" lon="10.866670693924698"><ele>616.0</ele><time>2026-05-02T12:33:34.999Z</time></trkpt><trkpt lat="44.20090623107829" lon="10.866744231720533"><ele>616.0</ele><time>2026-05-02T12:33:35.999Z</time></trkpt><trkpt lat="44.200765175231744" lon="10.866841455936756"><ele>616.0</ele><time>2026-05-02T12:33:36.999Z</time></trkpt><trkpt lat="44.20065346384805" lon="10.866981120307182"><ele>617.3333333333334</ele><time>2026-05-02T12:33:37.999Z</time></trkpt><trkpt lat="44.20057023488168" lon="10.867160921501561"><ele>618.6666666666666</ele><time>2026-05-02T12:33:38.999Z</time></trkpt><trkpt lat="44.20048504915371" lon="10.867349576189556"><ele>620.0</ele><time>2026-05-02T12:33:39.999Z</time></trkpt><trkpt lat="44.200349973549905" lon="10.867486313071938"><ele>620.0</ele><time>2026-05-02T12:33:40.999Z</time></trkpt><trkpt lat="44.20019460221257" lon="10.867563873916744"><ele>620.0</ele><time>2026-05-02T12:33:41.999Z</time></trkpt><trkpt lat="44.20004595727776" lon="10.86759741059449"><ele>620.0</ele><time>2026-05-02T12:33:42.999Z</time></trkpt><trkpt lat="44.19990861970363" lon="10.867570660513197"><ele>624.6666666666666</ele><time>2026-05-02T12:33:43.999Z</time></trkpt><trkpt lat="44.199777911888425" lon="10.867487407415851"><ele>629.3333333333334</ele><time>2026-05-02T12:33:44.999Z</time></trkpt><trkpt lat="44.19965559001792" lon="10.867340027437342"><ele>634.0</ele><time>2026-05-02T12:33:45.999Z</time></trkpt><trkpt lat="44.19953605946152" lon="10.867166927592347"><ele>634.0</ele><time>2026-05-02T12:33:46.999Z</time></trkpt><trkpt lat="44.19940815628377" lon="10.867017759489075"><ele>634.0</ele><time>2026-05-02T12:33:47.999Z</time></trkpt><trkpt lat="44.19928351060884" lon="10.866884882256521"><ele>634.0</ele><time>2026-05-02T12:33:48.999Z</time></trkpt><trkpt lat="44.19914729720666" lon="10.866819889785328"><ele>634.0</ele><time>2026-05-02T12:33:49.999Z</time></trkpt><trkpt lat="44.19900640338078" lon="10.866804049837757"><ele>634.0</ele><time>2026-05-02T12:33:50.999Z</time></trkpt><trkpt lat="44.19887055556238" lon="10.866814876463941"><ele>634.0</ele><time>2026-05-02T12:33:51.999Z</time></trkpt><trkpt lat="44.19872098730557" lon="10.866837860780528"><ele>634.0</ele><time>2026-05-02T12:33:52.999Z</time></trkpt><trkpt lat="44.19857711463534" lon="10.866895799256987"><ele>634.3333333333334</ele><time>2026-05-02T12:33:53.999Z</time></trkpt><trkpt lat="44.198442694373014" lon="10.86698911756147"><ele>634.6666666666666</ele><time>2026-05-02T12:33:54.999Z</time></trkpt><trkpt lat="44.19831653561169" lon="10.867118718295664"><ele>635.0</ele><time>2026-05-02T12:33:55.999Z</time></trkpt><trkpt lat="44.19820242754154" lon="10.867280866110525"><ele>634.3333333333333</ele><time>2026-05-02T12:33:56.999Z</time></trkpt><trkpt lat="44.198111048700774" lon="10.867481047703095"><ele>633.6666666666666</ele><time>2026-05-02T12:33:57.999Z</time></trkpt><trkpt lat="44.1980424311352" lon="10.867717466576893"><ele>633.0</ele><time>2026-05-02T12:33:58.999Z</time></trkpt><trkpt lat="44.197994806460635" lon="10.867985547867237"><ele>633.0</ele><time>2026-05-02T12:33:59.999Z</time></trkpt><trkpt lat="44.19794482302654" lon="10.868274594663884"><ele>633.0</ele><time>2026-05-02T12:34:00.999Z</time></trkpt><trkpt lat="44.19787743336653" lon="10.868558563977196"><ele>633.0</ele><time>2026-05-02T12:34:01.999Z</time></trkpt><trkpt lat="44.19779859250691" lon="10.868818953583808"><ele>637.6666666666666</ele><time>2026-05-02T12:34:02.999Z</time></trkpt><trkpt lat="44.197716565378705" lon="10.869037596567102"><ele>642.3333333333333</ele><time>2026-05-02T12:34:03.999Z</time></trkpt><trkpt lat="44.197666008070755" lon="10.869244326879137"><ele>647.0</ele><time>2026-05-02T12:34:04.999Z</time></trkpt><trkpt lat="44.19765520366842" lon="10.869444244035995"><ele>649.5</ele><time>2026-05-02T12:34:05.999Z</time></trkpt><trkpt lat="44.197660996097575" lon="10.869595903682354"><ele>652.0</ele><time>2026-05-02T12:34:06.999Z</time></trkpt><trkpt lat="44.19763317142568" lon="10.869712129604366"><ele>654.5</ele><time>2026-05-02T12:34:07.999Z</time></trkpt><trkpt lat="44.19757016499442" lon="10.86977771148744"><ele>657.0</ele><time>2026-05-02T12:34:08.999Z</time></trkpt><trkpt lat="44.19749290818866" lon="10.869769489953633"><ele>659.5</ele><time>2026-05-02T12:34:09.999Z</time></trkpt><trkpt lat="44.19742334000075" lon="10.86968581568023"><ele>662.0</ele><time>2026-05-02T12:34:10.999Z</time></trkpt><trkpt lat="44.19739464562505" lon="10.86952814752852"><ele>664.3333333333333</ele><time>2026-05-02T12:34:11.999Z</time></trkpt><trkpt lat="44.197331379972226" lon="10.869351006008134"><ele>666.6666666666666</ele><time>2026-05-02T12:34:12.999Z</time></trkpt><trkpt lat="44.197235050917556" lon="10.869164799130754"><ele>669.0</ele><time>2026-05-02T12:34:13.999Z</time></trkpt><trkpt lat="44.19710478042622" lon="10.868983231947487"><ele>669.0</ele><time>2026-05-02T12:34:14.999Z</time></trkpt><trkpt lat="44.19696780439554" lon="10.868829356586442"><ele>669.0</ele><time>2026-05-02T12:34:15.999Z</time></trkpt><trkpt lat="44.19684469965201" lon="10.868703473397366"><ele>669.0</ele><time>2026-05-02T12:34:16.999Z</time></trkpt><trkpt lat="44.19669652223264" lon="10.868611889455067"><ele>669.0</ele><time>2026-05-02T12:34:17.999Z</time></trkpt><trkpt lat="44.19652272419075" lon="10.868540812020045"><ele>669.0</ele><time>2026-05-02T12:34:18.999Z</time></trkpt><trkpt lat="44.196335979461274" lon="10.868478388460147"><ele>669.0</ele><time>2026-05-02T12:34:19.999Z</time></trkpt><trkpt lat="44.196146866054335" lon="10.868402377044196"><ele>664.0</ele><time>2026-05-02T12:34:20.999Z</time></trkpt><trkpt lat="44.19596447999936" lon="10.868373959406355"><ele>659.0</ele><time>2026-05-02T12:34:21.999Z</time></trkpt><trkpt lat="44.1958035536915" lon="10.868395730609961"><ele>654.0</ele><time>2026-05-02T12:34:22.999Z</time></trkpt><trkpt lat="44.195661447711345" lon="10.868385979043362"><ele>652.0</ele><time>2026-05-02T12:34:23.999Z</time></trkpt><trkpt lat="44.19554215149862" lon="10.868321363739994"><ele>650.0</ele><time>2026-05-02T12:34:24.999Z</time></trkpt><trkpt lat="44.19545418292079" lon="10.8682186358482"><ele>648.0</ele><time>2026-05-02T12:34:25.999Z</time></trkpt><trkpt lat="44.19536897405638" lon="10.86814993303077"><ele>646.0</ele><time>2026-05-02T12:34:26.999Z</time></trkpt><trkpt lat="44.195284309182355" lon="10.868147451313094"><ele>644.0</ele><time>2026-05-02T12:34:27.999Z</time></trkpt><trkpt lat="44.195210586109994" lon="10.86817652198792"><ele>644.0</ele><time>2026-05-02T12:34:28.999Z</time></trkpt><trkpt lat="44.195181061107824" lon="10.86829237549908"><ele>644.0</ele><time>2026-05-02T12:34:29.999Z</time></trkpt><trkpt lat="44.1951909446524" lon="10.868423512269878"><ele>644.0</ele><time>2026-05-02T12:34:30.999Z</time></trkpt><trkpt lat="44.19524300331372" lon="10.868575686337604"><ele>644.0</ele><time>2026-05-02T12:34:31.998Z</time></trkpt><trkpt lat="44.19533536137986" lon="10.868746192986986"><ele>644.0</ele><time>2026-05-02T12:34:32.998Z</time></trkpt><trkpt lat="44.19543389425442" lon="10.868957616371189"><ele>644.0</ele><time>2026-05-02T12:34:33.998Z</time></trkpt><trkpt lat="44.195510592784075" lon="10.86919987649294"><ele>644.0</ele><time>2026-05-02T12:34:34.998Z</time></trkpt><trkpt lat="44.19554771960312" lon="10.869455540077901"><ele>644.6666666666666</ele><time>2026-05-02T12:34:35.998Z</time></trkpt><trkpt lat="44.19556174034342" lon="10.86971703438412"><ele>645.3333333333334</ele><time>2026-05-02T12:34:36.998Z</time></trkpt><trkpt lat="44.19561448142327" lon="10.869953331528114"><ele>646.0</ele><time>2026-05-02T12:34:37.998Z</time></trkpt><trkpt lat="44.195711213534494" lon="10.87017862267672"><ele>655.3333333333334</ele><time>2026-05-02T12:34:38.998Z</time></trkpt><trkpt lat="44.19580870433508" lon="10.870395703614552"><ele>664.6666666666666</ele><time>2026-05-02T12:34:39.998Z</time></trkpt><trkpt lat="44.19586269504053" lon="10.870599623632407"><ele>674.0</ele><time>2026-05-02T12:34:40.998Z</time></trkpt><trkpt lat="44.19587648421175" lon="10.87078890857463"><ele>674.5</ele><time>2026-05-02T12:34:41.998Z</time></trkpt><trkpt lat="44.195842790830206" lon="10.870960328550002"><ele>675.0</ele><time>2026-05-02T12:34:42.998Z</time></trkpt><trkpt lat="44.19576831706106" lon="10.871099542748377"><ele>675.5</ele><time>2026-05-02T12:34:43.998Z</time></trkpt><trkpt lat="44.195655212095666" lon="10.871218778750006"><ele>676.0</ele><time>2026-05-02T12:34:44.998Z</time></trkpt><trkpt lat="44.195534203831066" lon="10.87134682842182"><ele>673.6666666666667</ele><time>2026-05-02T12:34:45.998Z</time></trkpt><trkpt lat="44.195444045410284" lon="10.871508684114582"><ele>671.3333333333334</ele><time>2026-05-02T12:34:46.998Z</time></trkpt><trkpt lat="44.195382302665486" lon="10.871707847553985"><ele>669.0</ele><time>2026-05-02T12:34:47.998Z</time></trkpt><trkpt lat="44.195341644993654" lon="10.871940305047083"><ele>669.0</ele><time>2026-05-02T12:34:48.998Z</time></trkpt><trkpt lat="44.19532940327106" lon="10.87220162991205"><ele>669.0</ele><time>2026-05-02T12:34:49.998Z</time></trkpt><trkpt lat="44.1953272009636" lon="10.87244331953392"><ele>669.0</ele><time>2026-05-02T12:34:50.998Z</time></trkpt><trkpt lat="44.19529346271854" lon="10.872653703216704"><ele>671.0</ele><time>2026-05-02T12:34:51.998Z</time></trkpt><trkpt lat="44.19521945335818" lon="10.872824791970649"><ele>673.0</ele><time>2026-05-02T12:34:52.998Z</time></trkpt><trkpt lat="44.19511430579455" lon="10.872957313834346"><ele>675.0</ele><time>2026-05-02T12:34:53.998Z</time></trkpt><trkpt lat="44.194996461353696" lon="10.873065981472935"><ele>677.0</ele><time>2026-05-02T12:34:54.998Z</time></trkpt><trkpt lat="44.1949136070504" lon="10.873218413659693"><ele>677.0</ele><time>2026-05-02T12:34:55.998Z</time></trkpt><trkpt lat="44.19487250574284" lon="10.87340305022246"><ele>677.0</ele><time>2026-05-02T12:34:56.998Z</time></trkpt><trkpt lat="44.194869322828616" lon="10.873598332875126"><ele>677.0</ele><time>2026-05-02T12:34:57.998Z</time></trkpt><trkpt lat="44.194912307513285" lon="10.873785247459349"><ele>677.0</ele><time>2026-05-02T12:34:58.998Z</time></trkpt><trkpt lat="44.19499327997893" lon="10.873938395844881"><ele>677.8</ele><time>2026-05-02T12:34:59.998Z</time></trkpt><trkpt lat="44.19506730171444" lon="10.874071753867662"><ele>678.6</ele><time>2026-05-02T12:35:00.998Z</time></trkpt><trkpt lat="44.19509624816234" lon="10.874217485030513"><ele>679.4</ele><time>2026-05-02T12:35:01.999Z</time></trkpt><trkpt lat="44.19507686017951" lon="10.874357214951834"><ele>680.1999999999999</ele><time>2026-05-02T12:35:02.999Z</time></trkpt><trkpt lat="44.195017319556705" lon="10.874468619707814"><ele>681.0</ele><time>2026-05-02T12:35:03.999Z</time></trkpt><trkpt lat="44.19492091657699" lon="10.874539821864845"><ele>683.75</ele><time>2026-05-02T12:35:04.999Z</time></trkpt><trkpt lat="44.19479528714204" lon="10.874533059508847"><ele>686.5</ele><time>2026-05-02T12:35:05.999Z</time></trkpt><trkpt lat="44.19465279382193" lon="10.874516164776251"><ele>689.25</ele><time>2026-05-02T12:35:06.999Z</time></trkpt><trkpt lat="44.194493601446986" lon="10.874500653368411"><ele>692.0</ele><time>2026-05-02T12:35:07.999Z</time></trkpt><trkpt lat="44.194355793095355" lon="10.874477171161248"><ele>692.0</ele><time>2026-05-02T12:35:08.999Z</time></trkpt><trkpt lat="44.194230520428185" lon="10.874499040075323"><ele>692.0</ele><time>2026-05-02T12:35:09.999Z</time></trkpt><trkpt lat="44.19411818871782" lon="10.874583327205928"><ele>692.0</ele><time>2026-05-02T12:35:10.999Z</time></trkpt><trkpt lat="44.194021936559366" lon="10.87471646516945"><ele>692.0</ele><time>2026-05-02T12:35:11.999Z</time></trkpt><trkpt lat="44.19392953124295" lon="10.874890134770679"><ele>691.3333333333333</ele><time>2026-05-02T12:35:12.999Z</time></trkpt><trkpt lat="44.19383341533629" lon="10.875101333184242"><ele>690.6666666666666</ele><time>2026-05-02T12:35:13.999Z</time></trkpt><trkpt lat="44.19374070388073" lon="10.875313826460598"><ele>690.0</ele><time>2026-05-02T12:35:14.999Z</time></trkpt><trkpt lat="44.19364814758764" lon="10.875537325515326"><ele>690.0</ele><time>2026-05-02T12:35:15.999Z</time></trkpt><trkpt lat="44.1935679300485" lon="10.875735551473653"><ele>690.0</ele><time>2026-05-02T12:35:16.999Z</time></trkpt><trkpt lat="44.193489629772515" lon="10.875908105228214"><ele>690.0</ele><time>2026-05-02T12:35:17.999Z</time></trkpt><trkpt lat="44.19341630533975" lon="10.876062955069779"><ele>690.0</ele><time>2026-05-02T12:35:18.999Z</time></trkpt><trkpt lat="44.19334775666437" lon="10.876199242982624"><ele>690.0</ele><time>2026-05-02T12:35:19.999Z</time></trkpt><trkpt lat="44.19327619644612" lon="10.876329293023204"><ele>690.0</ele><time>2026-05-02T12:35:20.999Z</time></trkpt><trkpt lat="44.19320158350191" lon="10.876476555937487"><ele>690.0</ele><time>2026-05-02T12:35:21.999Z</time></trkpt><trkpt lat="44.19313432874973" lon="10.8766391213441"><ele>690.0</ele><time>2026-05-02T12:35:22.999Z</time></trkpt><trkpt lat="44.19307947483952" lon="10.876820158446877"><ele>692.25</ele><time>2026-05-02T12:35:23.999Z</time></trkpt><trkpt lat="44.19303589757993" lon="10.87702344854725"><ele>694.5</ele><time>2026-05-02T12:35:24.999Z</time></trkpt><trkpt lat="44.19300121452339" lon="10.877230971369338"><ele>696.75</ele><time>2026-05-02T12:35:25.999Z</time></trkpt><trkpt lat="44.19295852179853" lon="10.877408662819862"><ele>699.0</ele><time>2026-05-02T12:35:26.999Z</time></trkpt><trkpt lat="44.19288652891476" lon="10.877548376914167"><ele>703.25</ele><time>2026-05-02T12:35:27.999Z</time></trkpt><trkpt lat="44.192789761277965" lon="10.877666339004975"><ele>707.5</ele><time>2026-05-02T12:35:28.999Z</time></trkpt><trkpt lat="44.192666065279454" lon="10.877754496519112"><ele>711.75</ele><time>2026-05-02T12:35:29.999Z</time></trkpt><trkpt lat="44.192527500427275" lon="10.877820779241606"><ele>716.0</ele><time>2026-05-02T12:35:30.999Z</time></trkpt><trkpt lat="44.192398078039844" lon="10.877854206080654"><ele>715.75</ele><time>2026-05-02T12:35:31.999Z</time></trkpt><trkpt lat="44.192297078161076" lon="10.877795313025665"><ele>715.5</ele><time>2026-05-02T12:35:32.999Z</time></trkpt><trkpt lat="44.19220845487278" lon="10.877711018708606"><ele>715.25</ele><time>2026-05-02T12:35:33.999Z</time></trkpt><trkpt lat="44.192102320953545" lon="10.8775919783773"><ele>715.0</ele><time>2026-05-02T12:35:34.999Z</time></trkpt><trkpt lat="44.191972901406885" lon="10.877497404374141"><ele>715.5</ele><time>2026-05-02T12:35:35.999Z</time></trkpt><trkpt lat="44.19184042355622" lon="10.877426078035576"><ele>716.0</ele><time>2026-05-02T12:35:36.999Z</time></trkpt><trkpt lat="44.19170410084875" lon="10.877416726935643"><ele>716.5</ele><time>2026-05-02T12:35:37.999Z</time></trkpt><trkpt lat="44.191564076598816" lon="10.877474543128075"><ele>717.0</ele><time>2026-05-02T12:35:38.999Z</time></trkpt><trkpt lat="44.191438495285354" lon="10.877577149994849"><ele>717.0</ele><time>2026-05-02T12:35:39.999Z</time></trkpt><trkpt lat="44.191310423586394" lon="10.877619951317662"><ele>717.0</ele><time>2026-05-02T12:35:40.999Z</time></trkpt><trkpt lat="44.19117355035622" lon="10.877582702950026"><ele>717.0</ele><time>2026-05-02T12:35:41.999Z</time></trkpt><trkpt lat="44.19104462506609" lon="10.877449613334818"><ele>717.0</ele><time>2026-05-02T12:35:42.999Z</time></trkpt><trkpt lat="44.19089945493596" lon="10.877329324927153"><ele>717.0</ele><time>2026-05-02T12:35:43.999Z</time></trkpt><trkpt lat="44.1907424669453" lon="10.877247328303962"><ele>717.0</ele><time>2026-05-02T12:35:44.999Z</time></trkpt><trkpt lat="44.190557688735346" lon="10.877217742593315"><ele>717.0</ele><time>2026-05-02T12:35:45.999Z</time></trkpt><trkpt lat="44.19036958796985" lon="10.877200495998775"><ele>719.3333333333334</ele><time>2026-05-02T12:35:46.999Z</time></trkpt><trkpt lat="44.19020612936542" lon="10.877118134744265"><ele>721.6666666666667</ele><time>2026-05-02T12:35:47.999Z</time></trkpt><trkpt lat="44.19007527896977" lon="10.877015556800501"><ele>724.0</ele><time>2026-05-02T12:35:48.999Z</time></trkpt><trkpt lat="44.19002158590252" lon="10.876844522920509"><ele>723.0</ele><time>2026-05-02T12:35:49.999Z</time></trkpt><trkpt lat="44.18997944125133" lon="10.876678847609556"><ele>722.0</ele><time>2026-05-02T12:35:50.999Z</time></trkpt><trkpt lat="44.18992808400345" lon="10.87652044339969"><ele>721.0</ele><time>2026-05-02T12:35:51.999Z</time></trkpt><trkpt lat="44.189824162893075" lon="10.876425953438007"><ele>720.0</ele><time>2026-05-02T12:35:52.999Z</time></trkpt><trkpt lat="44.1897033732061" lon="10.876366802747057"><ele>720.0</ele><time>2026-05-02T12:35:53.999Z</time></trkpt><trkpt lat="44.18956868010544" lon="10.87637213813161"><ele>720.0</ele><time>2026-05-02T12:35:54.999Z</time></trkpt><trkpt lat="44.18942421687542" lon="10.87645685070771"><ele>720.0</ele><time>2026-05-02T12:35:55.999Z</time></trkpt><trkpt lat="44.18928160780365" lon="10.876588447443055"><ele>720.0</ele><time>2026-05-02T12:35:56.999Z</time></trkpt><trkpt lat="44.18912712242854" lon="10.876695874324463"><ele>720.0</ele><time>2026-05-02T12:35:57.999Z</time></trkpt><trkpt lat="44.18895461892335" lon="10.876770011985574"><ele>720.0</ele><time>2026-05-02T12:35:58.999Z</time></trkpt><trkpt lat="44.18877197295917" lon="10.876820186507377"><ele>720.0</ele><time>2026-05-02T12:35:59.999Z</time></trkpt><trkpt lat="44.18858349215549" lon="10.876845952182764"><ele>720.0</ele><time>2026-05-02T12:36:00.999Z</time></trkpt><trkpt lat="44.188391623047146" lon="10.876826656540816"><ele>720.0</ele><time>2026-05-02T12:36:01.999Z</time></trkpt><trkpt lat="44.1882203108886" lon="10.876760986120296"><ele>720.0</ele><time>2026-05-02T12:36:02.999Z</time></trkpt><trkpt lat="44.18806946297815" lon="10.876743057104502"><ele>720.0</ele><time>2026-05-02T12:36:03.999Z</time></trkpt><trkpt lat="44.18792443266244" lon="10.876791653061929"><ele>720.0</ele><time>2026-05-02T12:36:04.999Z</time></trkpt><trkpt lat="44.18778158380556" lon="10.87689041654282"><ele>725.3333333333334</ele><time>2026-05-02T12:36:05.999Z</time></trkpt><trkpt lat="44.18763628592548" lon="10.877020142030169"><ele>730.6666666666667</ele><time>2026-05-02T12:36:06.999Z</time></trkpt><trkpt lat="44.187524003397584" lon="10.877156558604925"><ele>736.0</ele><time>2026-05-02T12:36:07.999Z</time></trkpt><trkpt lat="44.187418117567304" lon="10.877291474318515"><ele>736.0</ele><time>2026-05-02T12:36:08.999Z</time></trkpt><trkpt lat="44.18732494536129" lon="10.877426843945777"><ele>736.0</ele><time>2026-05-02T12:36:09.999Z</time></trkpt><trkpt lat="44.18721228874959" lon="10.87753485042555"><ele>736.0</ele><time>2026-05-02T12:36:10.999Z</time></trkpt><trkpt lat="44.187078092850214" lon="10.877594610575082"><ele>736.0</ele><time>2026-05-02T12:36:11.999Z</time></trkpt><trkpt lat="44.18692632151111" lon="10.877609593951888"><ele>736.0</ele><time>2026-05-02T12:36:12.999Z</time></trkpt><trkpt lat="44.186769428495765" lon="10.87756283652005"><ele>736.0</ele><time>2026-05-02T12:36:13.999Z</time></trkpt><trkpt lat="44.1866398078497" lon="10.87740781770966"><ele>736.0</ele><time>2026-05-02T12:36:14.999Z</time></trkpt><trkpt lat="44.18651997312454" lon="10.877218616072767"><ele>739.0</ele><time>2026-05-02T12:36:15.999Z</time></trkpt><trkpt lat="44.18638948765609" lon="10.877013801751241"><ele>742.0</ele><time>2026-05-02T12:36:16.999Z</time></trkpt><trkpt lat="44.1862535682268" lon="10.876807591468724"><ele>745.0</ele><time>2026-05-02T12:36:17.999Z</time></trkpt><trkpt lat="44.18612958674934" lon="10.876583446994287"><ele>745.0</ele><time>2026-05-02T12:36:18.999Z</time></trkpt><trkpt lat="44.1860450127415" lon="10.876360634091496"><ele>745.0</ele><time>2026-05-02T12:36:19.999Z</time></trkpt><trkpt lat="44.18597962468153" lon="10.876132520282477"><ele>745.0</ele><time>2026-05-02T12:36:20.999Z</time></trkpt><trkpt lat="44.18595922301159" lon="10.875901551213804"><ele>745.3333333333334</ele><time>2026-05-02T12:36:21.999Z</time></trkpt><trkpt lat="44.185967035537615" lon="10.87566179586037"><ele>745.6666666666666</ele><time>2026-05-02T12:36:22.999Z</time></trkpt><trkpt lat="44.18597085980791" lon="10.8754213931495"><ele>746.0</ele><time>2026-05-02T12:36:23.999Z</time></trkpt><trkpt lat="44.1859627261497" lon="10.875210432088217"><ele>745.25</ele><time>2026-05-02T12:36:24.999Z</time></trkpt><trkpt lat="44.18590994482963" lon="10.87501317300169"><ele>744.5</ele><time>2026-05-02T12:36:25.999Z</time></trkpt><trkpt lat="44.18581287355176" lon="10.874845701631825"><ele>743.75</ele><time>2026-05-02T12:36:26.999Z</time></trkpt><trkpt lat="44.18573076644118" lon="10.87469433102304"><ele>743.0</ele><time>2026-05-02T12:36:27.999Z</time></trkpt><trkpt lat="44.18569866290907" lon="10.874531377596039"><ele>743.0</ele><time>2026-05-02T12:36:28.999Z</time></trkpt><trkpt lat="44.18573557167765" lon="10.874361865473249"><ele>743.0</ele><time>2026-05-02T12:36:29.999Z</time></trkpt><trkpt lat="44.18579434316393" lon="10.874186703424328"><ele>743.0</ele><time>2026-05-02T12:36:30.999Z</time></trkpt><trkpt lat="44.185892522776435" lon="10.87401824033129"><ele>743.0</ele><time>2026-05-02T12:36:31.999Z</time></trkpt><trkpt lat="44.18598670209189" lon="10.873862890684602"><ele>743.6666666666666</ele><time>2026-05-02T12:36:32.999Z</time></trkpt><trkpt lat="44.18606977752844" lon="10.873743204115272"><ele>744.3333333333333</ele><time>2026-05-02T12:36:33.999Z</time></trkpt><trkpt lat="44.18609879902854" lon="10.873628343941068"><ele>745.0</ele><time>2026-05-02T12:36:34.999Z</time></trkpt><trkpt lat="44.18608003587933" lon="10.873523113427126"><ele>745.6666666666666</ele><time>2026-05-02T12:36:35.999Z</time></trkpt><trkpt lat="44.18602873700074" lon="10.873448801324075"><ele>746.3333333333334</ele><time>2026-05-02T12:36:36.999Z</time></trkpt><trkpt lat="44.18594742428984" lon="10.873426306628915"><ele>747.0</ele><time>2026-05-02T12:36:37.999Z</time></trkpt><trkpt lat="44.18586003619891" lon="10.87347378104142"><ele>747.0</ele><time>2026-05-02T12:36:38.999Z</time></trkpt><trkpt lat="44.18579925400545" lon="10.873574016902108"><ele>747.0</ele><time>2026-05-02T12:36:39.999Z</time></trkpt><trkpt lat="44.18575803891549" lon="10.8737268293536"><ele>747.0</ele><time>2026-05-02T12:36:40.999Z</time></trkpt><trkpt lat="44.18572569570781" lon="10.873920775636488"><ele>747.0</ele><time>2026-05-02T12:36:41.999Z</time></trkpt><trkpt lat="44.1856483149842" lon="10.874101630707807"><ele>751.0</ele><time>2026-05-02T12:36:42.999Z</time></trkpt><trkpt lat="44.18552584905064" lon="10.87424903362862"><ele>755.0</ele><time>2026-05-02T12:36:43.999Z</time></trkpt><trkpt lat="44.18538142577565" lon="10.874342141801206"><ele>759.0</ele><time>2026-05-02T12:36:44.999Z</time></trkpt><trkpt lat="44.18525921125348" lon="10.874438415121965"><ele>759.0</ele><time>2026-05-02T12:36:45.999Z</time></trkpt><trkpt lat="44.185181491027784" lon="10.87457254669276"><ele>759.0</ele><time>2026-05-02T12:36:46.999Z</time></trkpt><trkpt lat="44.1851492400994" lon="10.874722741484211"><ele>759.0</ele><time>2026-05-02T12:36:47.999Z</time></trkpt><trkpt lat="44.18516352112758" lon="10.874904895009537"><ele>759.0</ele><time>2026-05-02T12:36:48.999Z</time></trkpt><trkpt lat="44.18520524992665" lon="10.875113493345168"><ele>761.3333333333334</ele><time>2026-05-02T12:36:49.999Z</time></trkpt><trkpt lat="44.185242386984996" lon="10.875336118561155"><ele>763.6666666666667</ele><time>2026-05-02T12:36:50.999Z</time></trkpt><trkpt lat="44.185275895464855" lon="10.875557097931084"><ele>766.0</ele><time>2026-05-02T12:36:51.999Z</time></trkpt><trkpt lat="44.18530440046661" lon="10.87576802732567"><ele>765.75</ele><time>2026-05-02T12:36:52.999Z</time></trkpt><trkpt lat="44.185327529016455" lon="10.875955932790175"><ele>765.5</ele><time>2026-05-02T12:36:53.999Z</time></trkpt><trkpt lat="44.185340769154934" lon="10.87612681252841"><ele>765.25</ele><time>2026-05-02T12:36:54.999Z</time></trkpt><trkpt lat="44.18533007449298" lon="10.876290207613254"><ele>765.0</ele><time>2026-05-02T12:36:55.999Z</time></trkpt><trkpt lat="44.18528302389895" lon="10.876445198001568"><ele>765.0</ele><time>2026-05-02T12:36:56.999Z</time></trkpt><trkpt lat="44.185209657992395" lon="10.87658799936927"><ele>765.0</ele><time>2026-05-02T12:36:57.999Z</time></trkpt><trkpt lat="44.185135274444185" lon="10.876709193693182"><ele>765.0</ele><time>2026-05-02T12:36:58.999Z</time></trkpt><trkpt lat="44.185067605438086" lon="10.876807918053375"><ele>765.0</ele><time>2026-05-02T12:36:59.999Z</time></trkpt><trkpt lat="44.18500438111696" lon="10.876890241437476"><ele>765.0</ele><time>2026-05-02T12:37:00.999Z</time></trkpt><trkpt lat="44.184948496210694" lon="10.876961734992204"><ele>764.8</ele><time>2026-05-02T12:37:01.999Z</time></trkpt><trkpt lat="44.18489540698572" lon="10.877022934426158"><ele>764.6</ele><time>2026-05-02T12:37:02.999Z</time></trkpt><trkpt lat="44.18484370053057" lon="10.877078567298751"><ele>764.4000000000001</ele><time>2026-05-02T12:37:03.999Z</time></trkpt><trkpt lat="44.184742253378445" lon="10.877158890204328"><ele>764.2</ele><time>2026-05-02T12:37:05.999Z</time></trkpt><trkpt lat="44.18476605642427" lon="10.87738688841596"><ele>764.0</ele><time>2026-05-02T12:37:07.999Z</time></trkpt><trkpt lat="44.18480443150719" lon="10.877502067595005"><ele>763.6</ele><time>2026-05-02T12:37:08.999Z</time></trkpt><trkpt lat="44.184842816040955" lon="10.877633568254772"><ele>763.2</ele><time>2026-05-02T12:37:09.999Z</time></trkpt><trkpt lat="44.18486104073441" lon="10.877786056070827"><ele>762.8000000000001</ele><time>2026-05-02T12:37:10.999Z</time></trkpt><trkpt lat="44.18486600740454" lon="10.877925361394931"><ele>762.4000000000001</ele><time>2026-05-02T12:37:11.999Z</time></trkpt><trkpt lat="44.1848813305263" lon="10.878052426052255"><ele>762.0</ele><time>2026-05-02T12:37:12.999Z</time></trkpt><trkpt lat="44.184894603147605" lon="10.878184788195671"><ele>762.0</ele><time>2026-05-02T12:37:13.999Z</time></trkpt><trkpt lat="44.18496719911813" lon="10.878294666108259"><ele>762.0</ele><time>2026-05-02T12:37:14.999Z</time></trkpt><trkpt lat="44.185040261703655" lon="10.878400035988935"><ele>762.0</ele><time>2026-05-02T12:37:15.999Z</time></trkpt><trkpt lat="44.185136086148546" lon="10.87847932951714"><ele>762.0</ele><time>2026-05-02T12:37:16.999Z</time></trkpt><trkpt lat="44.18525274772686" lon="10.87853514233613"><ele>762.0</ele><time>2026-05-02T12:37:17.999Z</time></trkpt><trkpt lat="44.18537428800351" lon="10.878614694126428"><ele>763.0</ele><time>2026-05-02T12:37:18.999Z</time></trkpt><trkpt lat="44.18548792937036" lon="10.878736979874079"><ele>764.0</ele><time>2026-05-02T12:37:19.999Z</time></trkpt><trkpt lat="44.18558660939618" lon="10.878892753010398"><ele>765.0</ele><time>2026-05-02T12:37:20.999Z</time></trkpt><trkpt lat="44.18565140270353" lon="10.879046003008417"><ele>766.0</ele><time>2026-05-02T12:37:21.999Z</time></trkpt><trkpt lat="44.18568237394221" lon="10.879202652943706"><ele>764.75</ele><time>2026-05-02T12:37:22.999Z</time></trkpt><trkpt lat="44.185673701403935" lon="10.879373869010376"><ele>763.5</ele><time>2026-05-02T12:37:23.999Z</time></trkpt><trkpt lat="44.18560693044263" lon="10.879544886485588"><ele>762.25</ele><time>2026-05-02T12:37:24.999Z</time></trkpt><trkpt lat="44.185555982360924" lon="10.879753211627996"><ele>761.0</ele><time>2026-05-02T12:37:25.999Z</time></trkpt><trkpt lat="44.185597968745206" lon="10.879996859307813"><ele>762.0</ele><time>2026-05-02T12:37:26.999Z</time></trkpt><trkpt lat="44.185604992721984" lon="10.880240075786126"><ele>763.0</ele><time>2026-05-02T12:37:27.999Z</time></trkpt><trkpt lat="44.1855727007954" lon="10.880495656740893"><ele>764.0</ele><time>2026-05-02T12:37:28.999Z</time></trkpt><trkpt lat="44.18549149284605" lon="10.880763240159313"><ele>764.3333333333333</ele><time>2026-05-02T12:37:29.999Z</time></trkpt><trkpt lat="44.18547086646027" lon="10.881040101142299"><ele>764.6666666666666</ele><time>2026-05-02T12:37:30.999Z</time></trkpt><trkpt lat="44.185459730449004" lon="10.881264204675416"><ele>765.0</ele><time>2026-05-02T12:37:31.999Z</time></trkpt><trkpt lat="44.18541340005566" lon="10.881448949892569"><ele>765.0</ele><time>2026-05-02T12:37:32.999Z</time></trkpt><trkpt lat="44.18534793499969" lon="10.881586695595464"><ele>765.0</ele><time>2026-05-02T12:37:33.999Z</time></trkpt><trkpt lat="44.18530543678713" lon="10.881721832435103"><ele>765.0</ele><time>2026-05-02T12:37:34.999Z</time></trkpt><trkpt lat="44.18530770400106" lon="10.881859975943362"><ele>765.0</ele><time>2026-05-02T12:37:35.999Z</time></trkpt><trkpt lat="44.18534683579815" lon="10.881999335494738"><ele>765.0</ele><time>2026-05-02T12:37:36.999Z</time></trkpt><trkpt lat="44.18542395106567" lon="10.882131952184714"><ele>761.6666666666666</ele><time>2026-05-02T12:37:37.999Z</time></trkpt><trkpt lat="44.18554929761489" lon="10.882248471834128"><ele>758.3333333333333</ele><time>2026-05-02T12:37:38.999Z</time></trkpt><trkpt lat="44.1857121516369" lon="10.882343619633431"><ele>755.0</ele><time>2026-05-02T12:37:39.999Z</time></trkpt><trkpt lat="44.185903961756495" lon="10.88242015198581"><ele>761.6666666666666</ele><time>2026-05-02T12:37:40.999Z</time></trkpt><trkpt lat="44.18612208487771" lon="10.882486773194021"><ele>768.3333333333333</ele><time>2026-05-02T12:37:41.999Z</time></trkpt><trkpt lat="44.18633543466635" lon="10.882571222763996"><ele>775.0</ele><time>2026-05-02T12:37:42.999Z</time></trkpt><trkpt lat="44.18653757275744" lon="10.882696005147498"><ele>775.0</ele><time>2026-05-02T12:37:43.999Z</time></trkpt><trkpt lat="44.18673003151535" lon="10.882860240097656"><ele>775.0</ele><time>2026-05-02T12:37:44.999Z</time></trkpt><trkpt lat="44.18691847407141" lon="10.883038947412363"><ele>775.0</ele><time>2026-05-02T12:37:45.999Z</time></trkpt><trkpt lat="44.187116142915805" lon="10.883203595937312"><ele>775.0</ele><time>2026-05-02T12:37:46.999Z</time></trkpt><trkpt lat="44.18732230577865" lon="10.883355163368417"><ele>773.0</ele><time>2026-05-02T12:37:47.999Z</time></trkpt><trkpt lat="44.18753928203599" lon="10.883488241512472"><ele>771.0</ele><time>2026-05-02T12:37:48.999Z</time></trkpt><trkpt lat="44.187773416465596" lon="10.883594094279044"><ele>771.0</ele><time>2026-05-02T12:37:49.999Z</time></trkpt><trkpt lat="44.18802014117913" lon="10.883682584090334"><ele>771.0</ele><time>2026-05-02T12:37:50.999Z</time></trkpt><trkpt lat="44.18823898824601" lon="10.883773346654092"><ele>774.6666666666667</ele><time>2026-05-02T12:37:51.999Z</time></trkpt><trkpt lat="44.18841750110291" lon="10.883872582979414"><ele>778.3333333333334</ele><time>2026-05-02T12:37:52.999Z</time></trkpt><trkpt lat="44.188556483450235" lon="10.883949536154356"><ele>782.0</ele><time>2026-05-02T12:37:53.999Z</time></trkpt><trkpt lat="44.18870605544689" lon="10.883983028361111"><ele>782.0</ele><time>2026-05-02T12:37:54.999Z</time></trkpt><trkpt lat="44.18887113285881" lon="10.883958524064091"><ele>782.0</ele><time>2026-05-02T12:37:55.999Z</time></trkpt><trkpt lat="44.18905375840179" lon="10.88389768386779"><ele>782.0</ele><time>2026-05-02T12:37:56.999Z</time></trkpt><trkpt lat="44.18923344127187" lon="10.88386694326833"><ele>784.6666666666667</ele><time>2026-05-02T12:37:57.999Z</time></trkpt><trkpt lat="44.189407052264464" lon="10.88390137740586"><ele>787.3333333333333</ele><time>2026-05-02T12:37:58.999Z</time></trkpt><trkpt lat="44.18955531944154" lon="10.883965745164069"><ele>790.0</ele><time>2026-05-02T12:37:59.999Z</time></trkpt><trkpt lat="44.18967456632246" lon="10.884071905101234"><ele>790.0</ele><time>2026-05-02T12:38:00.999Z</time></trkpt><trkpt lat="44.18978012004554" lon="10.8842253895328"><ele>790.0</ele><time>2026-05-02T12:38:01.999Z</time></trkpt><trkpt lat="44.18987548436547" lon="10.884426658793492"><ele>790.0</ele><time>2026-05-02T12:38:02.999Z</time></trkpt><trkpt lat="44.18997680320902" lon="10.88464927528977"><ele>790.0</ele><time>2026-05-02T12:38:03.999Z</time></trkpt><trkpt lat="44.19008868482348" lon="10.88487802887827"><ele>790.0</ele><time>2026-05-02T12:38:04.999Z</time></trkpt><trkpt lat="44.1902106906643" lon="10.885091444436311"><ele>790.0</ele><time>2026-05-02T12:38:05.999Z</time></trkpt><trkpt lat="44.19034570717645" lon="10.885289801791895"><ele>787.0</ele><time>2026-05-02T12:38:06.999Z</time></trkpt><trkpt lat="44.19047679873303" lon="10.885457125645672"><ele>784.0</ele><time>2026-05-02T12:38:07.999Z</time></trkpt><trkpt lat="44.19060319136612" lon="10.885591259015827"><ele>781.0</ele><time>2026-05-02T12:38:08.999Z</time></trkpt><trkpt lat="44.190722097951415" lon="10.885686171898282"><ele>786.25</ele><time>2026-05-02T12:38:09.999Z</time></trkpt><trkpt lat="44.19083579269085" lon="10.885731386556609"><ele>791.5</ele><time>2026-05-02T12:38:10.999Z</time></trkpt><trkpt lat="44.190951224202266" lon="10.885717781510738"><ele>796.75</ele><time>2026-05-02T12:38:11.999Z</time></trkpt><trkpt lat="44.19106103015253" lon="10.88560601667521"><ele>802.0</ele><time>2026-05-02T12:38:12.999Z</time></trkpt><trkpt lat="44.191181392311734" lon="10.885498971191037"><ele>802.0</ele><time>2026-05-02T12:38:13.999Z</time></trkpt><trkpt lat="44.191309478479276" lon="10.885425420529744"><ele>802.0</ele><time>2026-05-02T12:38:14.999Z</time></trkpt><trkpt lat="44.19142801497206" lon="10.885410733177103"><ele>802.0</ele><time>2026-05-02T12:38:15.999Z</time></trkpt><trkpt lat="44.191526632727616" lon="10.885444973014978"><ele>802.0</ele><time>2026-05-02T12:38:16.999Z</time></trkpt><trkpt lat="44.19161222114449" lon="10.885519203878586"><ele>802.75</ele><time>2026-05-02T12:38:17.999Z</time></trkpt><trkpt lat="44.19169195697541" lon="10.885646663501348"><ele>803.5</ele><time>2026-05-02T12:38:18.999Z</time></trkpt><trkpt lat="44.19178204849175" lon="10.8857921045411"><ele>804.25</ele><time>2026-05-02T12:38:19.999Z</time></trkpt><trkpt lat="44.19189036687211" lon="10.885963405193841"><ele>805.0</ele><time>2026-05-02T12:38:20.999Z</time></trkpt><trkpt lat="44.19200297689024" lon="10.886156102814795"><ele>805.0</ele><time>2026-05-02T12:38:21.999Z</time></trkpt><trkpt lat="44.19210492673393" lon="10.88636388248454"><ele>805.0</ele><time>2026-05-02T12:38:22.999Z</time></trkpt><trkpt lat="44.192172531573014" lon="10.886609930957134"><ele>805.0</ele><time>2026-05-02T12:38:23.999Z</time></trkpt><trkpt lat="44.192261941185116" lon="10.886850949894011"><ele>807.0</ele><time>2026-05-02T12:38:24.999Z</time></trkpt><trkpt lat="44.192369381693204" lon="10.887082259197227"><ele>809.0</ele><time>2026-05-02T12:38:25.999Z</time></trkpt><trkpt lat="44.19245863520395" lon="10.887338365255236"><ele>811.0</ele><time>2026-05-02T12:38:26.999Z</time></trkpt><trkpt lat="44.192560104544135" lon="10.887588066772649"><ele>808.3333333333333</ele><time>2026-05-02T12:38:27.999Z</time></trkpt><trkpt lat="44.192663546438595" lon="10.887835649882595"><ele>805.6666666666667</ele><time>2026-05-02T12:38:28.999Z</time></trkpt><trkpt lat="44.19277070128399" lon="10.888084308463172"><ele>803.0</ele><time>2026-05-02T12:38:29.999Z</time></trkpt><trkpt lat="44.19287913249306" lon="10.888337128152735"><ele>800.3333333333334</ele><time>2026-05-02T12:38:30.999Z</time></trkpt><trkpt lat="44.19295971424213" lon="10.888617277513793"><ele>797.6666666666667</ele><time>2026-05-02T12:38:31.999Z</time></trkpt><trkpt lat="44.19304648494365" lon="10.888873812234447"><ele>795.0</ele><time>2026-05-02T12:38:32.999Z</time></trkpt><trkpt lat="44.19313055919611" lon="10.88910269973119"><ele>795.75</ele><time>2026-05-02T12:38:33.999Z</time></trkpt><trkpt lat="44.19316547050085" lon="10.889327766502827"><ele>796.5</ele><time>2026-05-02T12:38:34.999Z</time></trkpt><trkpt lat="44.19315250703552" lon="10.889525931608713"><ele>797.25</ele><time>2026-05-02T12:38:35.999Z</time></trkpt><trkpt lat="44.19307677803278" lon="10.889682923411296"><ele>798.0</ele><time>2026-05-02T12:38:36.999Z</time></trkpt><trkpt lat="44.19300530997879" lon="10.889829085802676"><ele>798.0</ele><time>2026-05-02T12:38:37.999Z</time></trkpt><trkpt lat="44.19290942438957" lon="10.889963550559726"><ele>798.0</ele><time>2026-05-02T12:38:38.999Z</time></trkpt><trkpt lat="44.192818459713074" lon="10.890144261057408"><ele>798.0</ele><time>2026-05-02T12:38:39.999Z</time></trkpt><trkpt lat="44.19274821333318" lon="10.890383492774948"><ele>799.3333333333333</ele><time>2026-05-02T12:38:40.999Z</time></trkpt><trkpt lat="44.19268228718115" lon="10.89064208713988"><ele>800.6666666666666</ele><time>2026-05-02T12:38:41.999Z</time></trkpt><trkpt lat="44.19261144967897" lon="10.890905078636946"><ele>802.0</ele><time>2026-05-02T12:38:42.999Z</time></trkpt><trkpt lat="44.19253304098143" lon="10.891156981474767"><ele>802.0</ele><time>2026-05-02T12:38:43.999Z</time></trkpt><trkpt lat="44.19241994466874" lon="10.891362461327807"><ele>802.0</ele><time>2026-05-02T12:38:44.999Z</time></trkpt><trkpt lat="44.192298512645195" lon="10.891538735954898"><ele>802.0</ele><time>2026-05-02T12:38:45.999Z</time></trkpt><trkpt lat="44.19219762911852" lon="10.891722343367888"><ele>797.3333333333333</ele><time>2026-05-02T12:38:46.999Z</time></trkpt><trkpt lat="44.19212930320039" lon="10.891932621282374"><ele>792.6666666666667</ele><time>2026-05-02T12:38:47.999Z</time></trkpt><trkpt lat="44.19207873111084" lon="10.89215725593792"><ele>788.0</ele><time>2026-05-02T12:38:48.999Z</time></trkpt><trkpt lat="44.192043548479255" lon="10.892389307712273"><ele>787.3333333333334</ele><time>2026-05-02T12:38:49.999Z</time></trkpt><trkpt lat="44.192017430458975" lon="10.892626625354614"><ele>786.6666666666667</ele><time>2026-05-02T12:38:50.999Z</time></trkpt><trkpt lat="44.19200176545074" lon="10.89287688367414"><ele>786.0</ele><time>2026-05-02T12:38:51.999Z</time></trkpt><trkpt lat="44.192029926585896" lon="10.893155475003518"><ele>786.0</ele><time>2026-05-02T12:38:52.999Z</time></trkpt><trkpt lat="44.192065247774444" lon="10.893433359739182"><ele>786.0</ele><time>2026-05-02T12:38:53.999Z</time></trkpt><trkpt lat="44.19210164407531" lon="10.893677371004514"><ele>786.0</ele><time>2026-05-02T12:38:54.999Z</time></trkpt><trkpt lat="44.192083557894" lon="10.893901946885114"><ele>786.0</ele><time>2026-05-02T12:38:55.999Z</time></trkpt><trkpt lat="44.192033274184176" lon="10.894113277252488"><ele>786.0</ele><time>2026-05-02T12:38:56.999Z</time></trkpt><trkpt lat="44.191935513279915" lon="10.894323939867938"><ele>786.0</ele><time>2026-05-02T12:38:57.999Z</time></trkpt><trkpt lat="44.1918209994967" lon="10.894542090248276"><ele>786.0</ele><time>2026-05-02T12:38:58.999Z</time></trkpt><trkpt lat="44.19172524127128" lon="10.894743544998583"><ele>786.0</ele><time>2026-05-02T12:38:59.999Z</time></trkpt><trkpt lat="44.19165867739635" lon="10.894940093846179"><ele>786.0</ele><time>2026-05-02T12:39:00.999Z</time></trkpt><trkpt lat="44.19163271207711" lon="10.895144568271956"><ele>786.0</ele><time>2026-05-02T12:39:01.999Z</time></trkpt><trkpt lat="44.191656264208916" lon="10.895358034006646"><ele>786.0</ele><time>2026-05-02T12:39:02.999Z</time></trkpt><trkpt lat="44.19172839528084" lon="10.89558797361054"><ele>786.0</ele><time>2026-05-02T12:39:03.999Z</time></trkpt><trkpt lat="44.19183015582938" lon="10.895834190971035"><ele>783.0</ele><time>2026-05-02T12:39:04.999Z</time></trkpt><trkpt lat="44.19195086514122" lon="10.896109290329298"><ele>780.0</ele><time>2026-05-02T12:39:05.999Z</time></trkpt><trkpt lat="44.1920741291822" lon="10.896368890066357"><ele>780.0</ele><time>2026-05-02T12:39:06.999Z</time></trkpt><trkpt lat="44.192180795902075" lon="10.89658302023487"><ele>780.0</ele><time>2026-05-02T12:39:07.999Z</time></trkpt><trkpt lat="44.19224560061101" lon="10.896774886106462"><ele>780.0</ele><time>2026-05-02T12:39:08.999Z</time></trkpt><trkpt lat="44.1922770852598" lon="10.896960708431195"><ele>780.25</ele><time>2026-05-02T12:39:09.999Z</time></trkpt><trkpt lat="44.192273537722535" lon="10.897173565386707"><ele>780.5</ele><time>2026-05-02T12:39:10.999Z</time></trkpt><trkpt lat="44.19223010567254" lon="10.89734764575692"><ele>780.75</ele><time>2026-05-02T12:39:11.999Z</time></trkpt><trkpt lat="44.19214122364944" lon="10.897491872828079"><ele>781.0</ele><time>2026-05-02T12:39:12.999Z</time></trkpt><trkpt lat="44.19201635489334" lon="10.897614167823969"><ele>781.0</ele><time>2026-05-02T12:39:14Z</time></trkpt><trkpt lat="44.19188092600182" lon="10.897713043510336"><ele>781.0</ele><time>2026-05-02T12:39:15Z</time></trkpt><trkpt lat="44.19176420659922" lon="10.897819346838983"><ele>781.0</ele><time>2026-05-02T12:39:16Z</time></trkpt><trkpt lat="44.1916651722141" lon="10.897974139339023"><ele>781.0</ele><time>2026-05-02T12:39:17Z</time></trkpt><trkpt lat="44.19158806872086" lon="10.898181410556507"><ele>782.0</ele><time>2026-05-02T12:39:18Z</time></trkpt><trkpt lat="44.19153738768271" lon="10.898436359455644"><ele>783.0</ele><time>2026-05-02T12:39:19Z</time></trkpt><trkpt lat="44.19148830511419" lon="10.898715176286805"><ele>784.0</ele><time>2026-05-02T12:39:20Z</time></trkpt><trkpt lat="44.191397989490845" lon="10.89900057354034"><ele>777.5</ele><time>2026-05-02T12:39:21Z</time></trkpt><trkpt lat="44.19128032885378" lon="10.899271835331797"><ele>771.0</ele><time>2026-05-02T12:39:22Z</time></trkpt><trkpt lat="44.191133649433645" lon="10.899524780514238"><ele>771.0</ele><time>2026-05-02T12:39:23Z</time></trkpt><trkpt lat="44.19097753398262" lon="10.899775769494394"><ele>771.0</ele><time>2026-05-02T12:39:24Z</time></trkpt><trkpt lat="44.19082100647986" lon="10.900035916952975"><ele>765.5</ele><time>2026-05-02T12:39:25Z</time></trkpt><trkpt lat="44.19066440087596" lon="10.900298005577866"><ele>760.0</ele><time>2026-05-02T12:39:26Z</time></trkpt><trkpt lat="44.19048936132234" lon="10.900551843508234"><ele>760.0</ele><time>2026-05-02T12:39:27Z</time></trkpt><trkpt lat="44.190346126538664" lon="10.9008387885257"><ele>760.0</ele><time>2026-05-02T12:39:28Z</time></trkpt><trkpt lat="44.1901921071" lon="10.901089414367991"><ele>760.6666666666667</ele><time>2026-05-02T12:39:29Z</time></trkpt><trkpt lat="44.1900330834181" lon="10.901307075889262"><ele>761.3333333333334</ele><time>2026-05-02T12:39:30Z</time></trkpt><trkpt lat="44.18987685554332" lon="10.901488660652097"><ele>762.0</ele><time>2026-05-02T12:39:31Z</time></trkpt><trkpt lat="44.18974125269291" lon="10.901667053347033"><ele>755.3333333333334</ele><time>2026-05-02T12:39:32Z</time></trkpt><trkpt lat="44.18962797685654" lon="10.901863069048405"><ele>748.6666666666667</ele><time>2026-05-02T12:39:33Z</time></trkpt><trkpt lat="44.18954094791839" lon="10.902084764150366"><ele>742.0</ele><time>2026-05-02T12:39:34Z</time></trkpt><trkpt lat="44.18947733478638" lon="10.902344003739534"><ele>743.6666666666667</ele><time>2026-05-02T12:39:35Z</time></trkpt><trkpt lat="44.18943941517004" lon="10.902628525990572"><ele>745.3333333333334</ele><time>2026-05-02T12:39:36Z</time></trkpt><trkpt lat="44.18943825354961" lon="10.902911779368441"><ele>747.0</ele><time>2026-05-02T12:39:36.999Z</time></trkpt><trkpt lat="44.1894259359164" lon="10.903181197988289"><ele>749.3333333333334</ele><time>2026-05-02T12:39:37.999Z</time></trkpt><trkpt lat="44.18937305446668" lon="10.903430567190606"><ele>751.6666666666667</ele><time>2026-05-02T12:39:38.999Z</time></trkpt><trkpt lat="44.18928532653473" lon="10.903650787375918"><ele>754.0</ele><time>2026-05-02T12:39:39.999Z</time></trkpt><trkpt lat="44.189172616895874" lon="10.903849816435853"><ele>754.0</ele><time>2026-05-02T12:39:40.999Z</time></trkpt><trkpt lat="44.18903922674431" lon="10.904024636121285"><ele>754.0</ele><time>2026-05-02T12:39:41.999Z</time></trkpt><trkpt lat="44.18889587518853" lon="10.90415624230114"><ele>754.0</ele><time>2026-05-02T12:39:42.999Z</time></trkpt><trkpt lat="44.18875496016358" lon="10.904236438307418"><ele>754.6666666666667</ele><time>2026-05-02T12:39:43.999Z</time></trkpt><trkpt lat="44.188604783728636" lon="10.904273932070474"><ele>755.3333333333334</ele><time>2026-05-02T12:39:44.999Z</time></trkpt><trkpt lat="44.188441688642584" lon="10.90427402160493"><ele>756.0</ele><time>2026-05-02T12:39:45.999Z</time></trkpt><trkpt lat="44.1882989706492" lon="10.904231777137857"><ele>753.75</ele><time>2026-05-02T12:39:46.999Z</time></trkpt><trkpt lat="44.18819152836105" lon="10.904220991556352"><ele>751.5</ele><time>2026-05-02T12:39:47.999Z</time></trkpt><trkpt lat="44.18808262249313" lon="10.9042511746962"><ele>749.25</ele><time>2026-05-02T12:39:48.999Z</time></trkpt><trkpt lat="44.188010830510926" lon="10.90441290957433"><ele>747.0</ele><time>2026-05-02T12:39:49.999Z</time></trkpt><trkpt lat="44.1878908321252" lon="10.904561195169519"><ele>747.0</ele><time>2026-05-02T12:39:50.999Z</time></trkpt><trkpt lat="44.187751065936496" lon="10.904695883386294"><ele>747.0</ele><time>2026-05-02T12:39:51.999Z</time></trkpt><trkpt lat="44.18757166201225" lon="10.904813516504849"><ele>747.0</ele><time>2026-05-02T12:39:52.999Z</time></trkpt><trkpt lat="44.18739364472784" lon="10.904913288430029"><ele>744.3333333333334</ele><time>2026-05-02T12:39:53.999Z</time></trkpt><trkpt lat="44.18722184032775" lon="10.904944338021139"><ele>741.6666666666667</ele><time>2026-05-02T12:39:54.999Z</time></trkpt><trkpt lat="44.18702832108244" lon="10.90489204257521"><ele>739.0</ele><time>2026-05-02T12:39:55.999Z</time></trkpt><trkpt lat="44.18680258933716" lon="10.904859163713883"><ele>739.0</ele><time>2026-05-02T12:39:56.999Z</time></trkpt><trkpt lat="44.18659080950533" lon="10.904895734811904"><ele>739.0</ele><time>2026-05-02T12:39:57.999Z</time></trkpt><trkpt lat="44.18642158167032" lon="10.904884620204642"><ele>739.0</ele><time>2026-05-02T12:39:58.999Z</time></trkpt><trkpt lat="44.18629662919855" lon="10.904863037450989"><ele>737.0</ele><time>2026-05-02T12:39:59.999Z</time></trkpt><trkpt lat="44.18617595570623" lon="10.904880946375236"><ele>735.0</ele><time>2026-05-02T12:40:00.999Z</time></trkpt><trkpt lat="44.1860609153666" lon="10.904965341103766"><ele>733.0</ele><time>2026-05-02T12:40:01.999Z</time></trkpt><trkpt lat="44.18594868244576" lon="10.905113447572457"><ele>731.0</ele><time>2026-05-02T12:40:02.999Z</time></trkpt><trkpt lat="44.18583547777608" lon="10.905287497846226"><ele>731.0</ele><time>2026-05-02T12:40:03.999Z</time></trkpt><trkpt lat="44.18574719509023" lon="10.905454338856527"><ele>731.0</ele><time>2026-05-02T12:40:04.999Z</time></trkpt><trkpt lat="44.185690247201286" lon="10.905633494400684"><ele>731.0</ele><time>2026-05-02T12:40:05.999Z</time></trkpt><trkpt lat="44.18567029242377" lon="10.905863181689664"><ele>730.3333333333333</ele><time>2026-05-02T12:40:06.999Z</time></trkpt><trkpt lat="44.185678732690974" lon="10.906130244453221"><ele>729.6666666666666</ele><time>2026-05-02T12:40:07.999Z</time></trkpt><trkpt lat="44.1856858690183" lon="10.906423193468953"><ele>729.0</ele><time>2026-05-02T12:40:08.999Z</time></trkpt><trkpt lat="44.185665596268045" lon="10.906730462936693"><ele>724.6666666666666</ele><time>2026-05-02T12:40:09.999Z</time></trkpt><trkpt lat="44.18561728826066" lon="10.907034794375013"><ele>720.3333333333333</ele><time>2026-05-02T12:40:10.999Z</time></trkpt><trkpt lat="44.1855430005344" lon="10.907330124534152"><ele>716.0</ele><time>2026-05-02T12:40:11.999Z</time></trkpt><trkpt lat="44.185447098495466" lon="10.907634854512388"><ele>716.0</ele><time>2026-05-02T12:40:12.999Z</time></trkpt><trkpt lat="44.185338647472605" lon="10.90795241343975"><ele>716.0</ele><time>2026-05-02T12:40:13.999Z</time></trkpt><trkpt lat="44.18524141229987" lon="10.908245585386677"><ele>716.3333333333333</ele><time>2026-05-02T12:40:14.999Z</time></trkpt><trkpt lat="44.18516264076328" lon="10.908504015316652"><ele>716.6666666666666</ele><time>2026-05-02T12:40:15.999Z</time></trkpt><trkpt lat="44.185096671228145" lon="10.908732015917641"><ele>717.0</ele><time>2026-05-02T12:40:16.999Z</time></trkpt><trkpt lat="44.18506334934683" lon="10.908967280129936"><ele>717.0</ele><time>2026-05-02T12:40:17.999Z</time></trkpt><trkpt lat="44.18507413034698" lon="10.909230564175393"><ele>717.0</ele><time>2026-05-02T12:40:18.999Z</time></trkpt><trkpt lat="44.18513777914706" lon="10.909514765446316"><ele>717.0</ele><time>2026-05-02T12:40:19.999Z</time></trkpt><trkpt lat="44.18523758005497" lon="10.909818991968699"><ele>710.0</ele><time>2026-05-02T12:40:20.999Z</time></trkpt><trkpt lat="44.185316037773035" lon="10.91017241485769"><ele>703.0</ele><time>2026-05-02T12:40:21.999Z</time></trkpt><trkpt lat="44.185405345575035" lon="10.91047572832775"><ele>703.0</ele><time>2026-05-02T12:40:22.999Z</time></trkpt><trkpt lat="44.18545958439449" lon="10.910748730862673"><ele>703.0</ele><time>2026-05-02T12:40:23.999Z</time></trkpt><trkpt lat="44.18549372706957" lon="10.911009680799646"><ele>703.0</ele><time>2026-05-02T12:40:24.999Z</time></trkpt><trkpt lat="44.185481552581315" lon="10.911296945770001"><ele>701.0</ele><time>2026-05-02T12:40:25.999Z</time></trkpt><trkpt lat="44.18548603997189" lon="10.911599551237154"><ele>699.0</ele><time>2026-05-02T12:40:26.999Z</time></trkpt><trkpt lat="44.185503151863934" lon="10.911921859814575"><ele>697.0</ele><time>2026-05-02T12:40:27.999Z</time></trkpt><trkpt lat="44.18551318343834" lon="10.912255378191658"><ele>697.5</ele><time>2026-05-02T12:40:28.999Z</time></trkpt><trkpt lat="44.185443552566376" lon="10.912586412866682"><ele>698.0</ele><time>2026-05-02T12:40:29.999Z</time></trkpt><trkpt lat="44.18536103676501" lon="10.91293035813254"><ele>698.0</ele><time>2026-05-02T12:40:30.999Z</time></trkpt><trkpt lat="44.185292095365064" lon="10.913243785097759"><ele>698.0</ele><time>2026-05-02T12:40:31.999Z</time></trkpt><trkpt lat="44.18524364157933" lon="10.91353615215363"><ele>700.6666666666666</ele><time>2026-05-02T12:40:32.999Z</time></trkpt><trkpt lat="44.18520588651384" lon="10.913809930005312"><ele>703.3333333333334</ele><time>2026-05-02T12:40:33.999Z</time></trkpt><trkpt lat="44.185163008195765" lon="10.91405716396266"><ele>706.0</ele><time>2026-05-02T12:40:34.999Z</time></trkpt><trkpt lat="44.18512089346024" lon="10.914290042447496"><ele>706.25</ele><time>2026-05-02T12:40:35.999Z</time></trkpt><trkpt lat="44.185056634526674" lon="10.914485402000913"><ele>706.5</ele><time>2026-05-02T12:40:36.999Z</time></trkpt><trkpt lat="44.18498134468847" lon="10.914655733306772"><ele>706.75</ele><time>2026-05-02T12:40:37.999Z</time></trkpt><trkpt lat="44.18487108305389" lon="10.914763769461603"><ele>707.0</ele><time>2026-05-02T12:40:38.999Z</time></trkpt><trkpt lat="44.18478512878239" lon="10.914883779112976"><ele>707.0</ele><time>2026-05-02T12:40:39.999Z</time></trkpt><trkpt lat="44.18470814752008" lon="10.914992981636887"><ele>707.0</ele><time>2026-05-02T12:40:40.999Z</time></trkpt><trkpt lat="44.18467403504661" lon="10.91512270931652"><ele>707.0</ele><time>2026-05-02T12:40:41.999Z</time></trkpt><trkpt lat="44.18467303616714" lon="10.91525826538372"><ele>707.0</ele><time>2026-05-02T12:40:42.999Z</time></trkpt><trkpt lat="44.18472196884206" lon="10.915366806703808"><ele>707.0</ele><time>2026-05-02T12:40:43.999Z</time></trkpt><trkpt lat="44.184811851342495" lon="10.91542881224926"><ele>706.0</ele><time>2026-05-02T12:40:44.999Z</time></trkpt><trkpt lat="44.184940633977284" lon="10.915438990252397"><ele>705.0</ele><time>2026-05-02T12:40:45.999Z</time></trkpt><trkpt lat="44.185100021996014" lon="10.915411013352442"><ele>704.0</ele><time>2026-05-02T12:40:46.999Z</time></trkpt><trkpt lat="44.1852734204007" lon="10.915392969881227"><ele>704.0</ele><time>2026-05-02T12:40:47.999Z</time></trkpt><trkpt lat="44.18544795199097" lon="10.915402728556273"><ele>704.0</ele><time>2026-05-02T12:40:48.999Z</time></trkpt><trkpt lat="44.185607008449715" lon="10.915442659290417"><ele>704.0</ele><time>2026-05-02T12:40:49.999Z</time></trkpt><trkpt lat="44.18574846484669" lon="10.915517467282669"><ele>703.6666666666666</ele><time>2026-05-02T12:40:50.999Z</time></trkpt><trkpt lat="44.18587480114517" lon="10.915636691364615"><ele>703.3333333333334</ele><time>2026-05-02T12:40:51.999Z</time></trkpt><trkpt lat="44.1859943166785" lon="10.915819926130178"><ele>703.0</ele><time>2026-05-02T12:40:52.999Z</time></trkpt><trkpt lat="44.18610147309344" lon="10.91605702559122"><ele>699.6666666666667</ele><time>2026-05-02T12:40:53.999Z</time></trkpt><trkpt lat="44.186202656102054" lon="10.916313159125869"><ele>696.3333333333334</ele><time>2026-05-02T12:40:54.999Z</time></trkpt><trkpt lat="44.186326144569364" lon="10.916580309724743"><ele>693.0</ele><time>2026-05-02T12:40:55.999Z</time></trkpt><trkpt lat="44.18645151624031" lon="10.9168180799888"><ele>692.0</ele><time>2026-05-02T12:40:56.999Z</time></trkpt><trkpt lat="44.18658637399031" lon="10.917023446753907"><ele>691.0</ele><time>2026-05-02T12:40:57.999Z</time></trkpt><trkpt lat="44.18672789242987" lon="10.917200477882215"><ele>690.0</ele><time>2026-05-02T12:40:58.999Z</time></trkpt><trkpt lat="44.186868725875414" lon="10.917327780773304"><ele>690.0</ele><time>2026-05-02T12:40:59.999Z</time></trkpt><trkpt lat="44.18701776666738" lon="10.917403061202178"><ele>690.0</ele><time>2026-05-02T12:41:00.999Z</time></trkpt><trkpt lat="44.187173401107856" lon="10.917420098657752"><ele>690.0</ele><time>2026-05-02T12:41:01.999Z</time></trkpt><trkpt lat="44.187322401677136" lon="10.917401887943813"><ele>689.75</ele><time>2026-05-02T12:41:02.999Z</time></trkpt><trkpt lat="44.187457646951216" lon="10.917412092107005"><ele>689.5</ele><time>2026-05-02T12:41:03.999Z</time></trkpt><trkpt lat="44.1875704652874" lon="10.91750736801291"><ele>689.25</ele><time>2026-05-02T12:41:04.999Z</time></trkpt><trkpt lat="44.18765657375058" lon="10.917665777410427"><ele>689.0</ele><time>2026-05-02T12:41:05.999Z</time></trkpt><trkpt lat="44.187701718452786" lon="10.917886533573169"><ele>689.0</ele><time>2026-05-02T12:41:06.999Z</time></trkpt><trkpt lat="44.18773184808954" lon="10.918135679999876"><ele>689.0</ele><time>2026-05-02T12:41:07.999Z</time></trkpt><trkpt lat="44.187765939742775" lon="10.918424868256835"><ele>689.0</ele><time>2026-05-02T12:41:08.999Z</time></trkpt><trkpt lat="44.187803182034116" lon="10.918699748752232"><ele>686.3333333333333</ele><time>2026-05-02T12:41:09.999Z</time></trkpt><trkpt lat="44.187847398343976" lon="10.91894297445416"><ele>683.6666666666666</ele><time>2026-05-02T12:41:10.999Z</time></trkpt><trkpt lat="44.18786843352549" lon="10.91916749298559"><ele>681.0</ele><time>2026-05-02T12:41:11.999Z</time></trkpt><trkpt lat="44.187879931413576" lon="10.919378520677876"><ele>680.5</ele><time>2026-05-02T12:41:12.999Z</time></trkpt><trkpt lat="44.187873968897705" lon="10.919588686118606"><ele>680.0</ele><time>2026-05-02T12:41:13.999Z</time></trkpt><trkpt lat="44.187859512119275" lon="10.919784971016165"><ele>679.5</ele><time>2026-05-02T12:41:14.999Z</time></trkpt><trkpt lat="44.18784653692716" lon="10.919968250434472"><ele>679.0</ele><time>2026-05-02T12:41:15.999Z</time></trkpt><trkpt lat="44.18783848705392" lon="10.920139506937595"><ele>678.5</ele><time>2026-05-02T12:41:16.999Z</time></trkpt><trkpt lat="44.187831553577865" lon="10.92030743285195"><ele>678.0</ele><time>2026-05-02T12:41:17.999Z</time></trkpt><trkpt lat="44.18783613272943" lon="10.920474746698163"><ele>677.5</ele><time>2026-05-02T12:41:18.999Z</time></trkpt><trkpt lat="44.187869913151864" lon="10.920635669146169"><ele>677.0</ele><time>2026-05-02T12:41:20Z</time></trkpt><trkpt lat="44.1879276359691" lon="10.920784002041911"><ele>677.0</ele><time>2026-05-02T12:41:21Z</time></trkpt><trkpt lat="44.18801717169426" lon="10.920904126291607"><ele>677.0</ele><time>2026-05-02T12:41:22Z</time></trkpt><trkpt lat="44.188139520753985" lon="10.920997954628644"><ele>677.0</ele><time>2026-05-02T12:41:23Z</time></trkpt><trkpt lat="44.188295844968614" lon="10.921072372189512"><ele>677.0</ele><time>2026-05-02T12:41:24Z</time></trkpt><trkpt lat="44.18847630710643" lon="10.92115291154839"><ele>677.0</ele><time>2026-05-02T12:41:25Z</time></trkpt><trkpt lat="44.1886604136523" lon="10.921265729043288"><ele>677.0</ele><time>2026-05-02T12:41:26Z</time></trkpt><trkpt lat="44.18882478430566" lon="10.921412681248846"><ele>677.0</ele><time>2026-05-02T12:41:27Z</time></trkpt><trkpt lat="44.188988271508975" lon="10.921580606315455"><ele>679.3333333333333</ele><time>2026-05-02T12:41:28Z</time></trkpt><trkpt lat="44.18919760561206" lon="10.921703161794259"><ele>681.6666666666666</ele><time>2026-05-02T12:41:29Z</time></trkpt><trkpt lat="44.18939903629169" lon="10.921772051399426"><ele>684.0</ele><time>2026-05-02T12:41:30Z</time></trkpt><trkpt lat="44.18957599802487" lon="10.9218790276126"><ele>680.6666666666666</ele><time>2026-05-02T12:41:31Z</time></trkpt><trkpt lat="44.18972974126839" lon="10.92202164575855"><ele>677.3333333333333</ele><time>2026-05-02T12:41:32Z</time></trkpt><trkpt lat="44.18984651518512" lon="10.922178185082418"><ele>674.0</ele><time>2026-05-02T12:41:33Z</time></trkpt><trkpt lat="44.189967976901436" lon="10.92230864538733"><ele>674.0</ele><time>2026-05-02T12:41:34Z</time></trkpt><trkpt lat="44.19010337866549" lon="10.922372756704661"><ele>674.0</ele><time>2026-05-02T12:41:35Z</time></trkpt><trkpt lat="44.190238186905326" lon="10.922395670607466"><ele>674.0</ele><time>2026-05-02T12:41:36Z</time></trkpt><trkpt lat="44.190365389199364" lon="10.922357192762737"><ele>674.0</ele><time>2026-05-02T12:41:37Z</time></trkpt><trkpt lat="44.190513072436566" lon="10.922256044176917"><ele>673.3333333333333</ele><time>2026-05-02T12:41:38Z</time></trkpt><trkpt lat="44.19067914923794" lon="10.92219015310548"><ele>672.6666666666666</ele><time>2026-05-02T12:41:39Z</time></trkpt><trkpt lat="44.19084085866862" lon="10.922089872419352"><ele>672.0</ele><time>2026-05-02T12:41:40Z</time></trkpt><trkpt lat="44.19102566790114" lon="10.922060042863146"><ele>672.0</ele><time>2026-05-02T12:41:41Z</time></trkpt><trkpt lat="44.19120674651983" lon="10.921997840242113"><ele>672.0</ele><time>2026-05-02T12:41:42Z</time></trkpt><trkpt lat="44.19137302019461" lon="10.921968283611006"><ele>672.0</ele><time>2026-05-02T12:41:43Z</time></trkpt><trkpt lat="44.19153127021709" lon="10.921955412452759"><ele>671.5</ele><time>2026-05-02T12:41:44Z</time></trkpt><trkpt lat="44.191672444096795" lon="10.921985822858405"><ele>671.0</ele><time>2026-05-02T12:41:45Z</time></trkpt><trkpt lat="44.19179753404572" lon="10.922059919776524"><ele>670.5</ele><time>2026-05-02T12:41:46Z</time></trkpt><trkpt lat="44.19189439181876" lon="10.922212467751333"><ele>670.0</ele><time>2026-05-02T12:41:47Z</time></trkpt><trkpt lat="44.19199601388127" lon="10.92240496490409"><ele>667.3333333333334</ele><time>2026-05-02T12:41:47.999Z</time></trkpt><trkpt lat="44.192115750205076" lon="10.92261737359237"><ele>664.6666666666666</ele><time>2026-05-02T12:41:48.999Z</time></trkpt><trkpt lat="44.19219271274431" lon="10.922849555688774"><ele>662.0</ele><time>2026-05-02T12:41:49.999Z</time></trkpt><trkpt lat="44.19223247352273" lon="10.923075487824967"><ele>662.0</ele><time>2026-05-02T12:41:50.999Z</time></trkpt><trkpt lat="44.19222784075623" lon="10.923283432022027"><ele>662.0</ele><time>2026-05-02T12:41:51.999Z</time></trkpt><trkpt lat="44.192161923033" lon="10.92349566088789"><ele>662.0</ele><time>2026-05-02T12:41:52.999Z</time></trkpt><trkpt lat="44.19213664984855" lon="10.923761687854554"><ele>660.3333333333333</ele><time>2026-05-02T12:41:53.999Z</time></trkpt><trkpt lat="44.19212791125939" lon="10.924066352652398"><ele>658.6666666666666</ele><time>2026-05-02T12:41:54.999Z</time></trkpt><trkpt lat="44.19214155323223" lon="10.92437700470362"><ele>657.0</ele><time>2026-05-02T12:41:55.999Z</time></trkpt><trkpt lat="44.192143489441065" lon="10.92465699104348"><ele>656.3333333333334</ele><time>2026-05-02T12:41:56.999Z</time></trkpt><trkpt lat="44.1921622265079" lon="10.92491593960217"><ele>655.6666666666667</ele><time>2026-05-02T12:41:57.999Z</time></trkpt><trkpt lat="44.19218311331535" lon="10.925159128399356"><ele>655.0</ele><time>2026-05-02T12:41:58.999Z</time></trkpt><trkpt lat="44.19213243530985" lon="10.925376542399409"><ele>656.3333333333334</ele><time>2026-05-02T12:41:59.999Z</time></trkpt><trkpt lat="44.192081380637475" lon="10.925578101481833"><ele>657.6666666666666</ele><time>2026-05-02T12:42:00.999Z</time></trkpt><trkpt lat="44.19203121857927" lon="10.925774266688455"><ele>659.0</ele><time>2026-05-02T12:42:01.999Z</time></trkpt><trkpt lat="44.191947861020495" lon="10.925960149500217"><ele>660.3333333333333</ele><time>2026-05-02T12:42:02.999Z</time></trkpt><trkpt lat="44.19186770588697" lon="10.926159870147032"><ele>661.6666666666666</ele><time>2026-05-02T12:42:03.999Z</time></trkpt><trkpt lat="44.191809476198664" lon="10.926354545139048"><ele>663.0</ele><time>2026-05-02T12:42:04.999Z</time></trkpt><trkpt lat="44.191766919051396" lon="10.926536622673543"><ele>663.0</ele><time>2026-05-02T12:42:05.999Z</time></trkpt><trkpt lat="44.19174483886378" lon="10.92672290587984"><ele>663.0</ele><time>2026-05-02T12:42:06.999Z</time></trkpt><trkpt lat="44.19173101440256" lon="10.926904116686677"><ele>663.0</ele><time>2026-05-02T12:42:07.999Z</time></trkpt><trkpt lat="44.19178057493273" lon="10.927087526816349"><ele>663.0</ele><time>2026-05-02T12:42:08.999Z</time></trkpt><trkpt lat="44.19184275437819" lon="10.927279762942431"><ele>662.3333333333334</ele><time>2026-05-02T12:42:09.999Z</time></trkpt><trkpt lat="44.19192897151918" lon="10.927475431469043"><ele>661.6666666666667</ele><time>2026-05-02T12:42:10.999Z</time></trkpt><trkpt lat="44.192025829787376" lon="10.927681344226842"><ele>661.0</ele><time>2026-05-02T12:42:11.999Z</time></trkpt><trkpt lat="44.192135375455024" lon="10.927890019946886"><ele>661.3333333333334</ele><time>2026-05-02T12:42:12.999Z</time></trkpt><trkpt lat="44.19227828225894" lon="10.928074803747206"><ele>661.6666666666666</ele><time>2026-05-02T12:42:13.999Z</time></trkpt><trkpt lat="44.19244244248277" lon="10.928259345507657"><ele>662.0</ele><time>2026-05-02T12:42:14.999Z</time></trkpt><trkpt lat="44.19261084634939" lon="10.928412850665138"><ele>659.0</ele><time>2026-05-02T12:42:15.999Z</time></trkpt><trkpt lat="44.19276331906327" lon="10.928545163590337"><ele>656.0</ele><time>2026-05-02T12:42:16.999Z</time></trkpt><trkpt lat="44.192863207356424" lon="10.928727816512358"><ele>653.0</ele><time>2026-05-02T12:42:17.999Z</time></trkpt><trkpt lat="44.192908079205424" lon="10.928938538663328"><ele>653.0</ele><time>2026-05-02T12:42:18.999Z</time></trkpt><trkpt lat="44.19295463935753" lon="10.929152266176684"><ele>653.0</ele><time>2026-05-02T12:42:19.999Z</time></trkpt><trkpt lat="44.193063154408165" lon="10.929346715785952"><ele>653.0</ele><time>2026-05-02T12:42:20.999Z</time></trkpt><trkpt lat="44.193188009553886" lon="10.9295460309689"><ele>653.3333333333333</ele><time>2026-05-02T12:42:21.999Z</time></trkpt><trkpt lat="44.19331935648754" lon="10.929727191880392"><ele>653.6666666666666</ele><time>2026-05-02T12:42:22.999Z</time></trkpt><trkpt lat="44.19344763148306" lon="10.92988708924806"><ele>654.0</ele><time>2026-05-02T12:42:23.999Z</time></trkpt><trkpt lat="44.19358220658356" lon="10.930019050201459"><ele>651.6666666666666</ele><time>2026-05-02T12:42:24.999Z</time></trkpt><trkpt lat="44.193728579733495" lon="10.930116867549124"><ele>649.3333333333333</ele><time>2026-05-02T12:42:25.999Z</time></trkpt><trkpt lat="44.19388630889584" lon="10.930188969481641"><ele>647.0</ele><time>2026-05-02T12:42:26.999Z</time></trkpt><trkpt lat="44.19405643147285" lon="10.930231643159482"><ele>647.0</ele><time>2026-05-02T12:42:27.999Z</time></trkpt><trkpt lat="44.19423763409467" lon="10.930239566432384"><ele>647.0</ele><time>2026-05-02T12:42:28.999Z</time></trkpt><trkpt lat="44.19442788947427" lon="10.930228268216512"><ele>647.0</ele><time>2026-05-02T12:42:29.999Z</time></trkpt><trkpt lat="44.19461813627472" lon="10.930243169972059"><ele>647.0</ele><time>2026-05-02T12:42:30.999Z</time></trkpt><trkpt lat="44.19479747382592" lon="10.930266270577022"><ele>647.0</ele><time>2026-05-02T12:42:31.999Z</time></trkpt><trkpt lat="44.19496201271201" lon="10.930318008737885"><ele>647.0</ele><time>2026-05-02T12:42:32.999Z</time></trkpt><trkpt lat="44.195102533058375" lon="10.930432506800319"><ele>647.3333333333333</ele><time>2026-05-02T12:42:33.999Z</time></trkpt><trkpt lat="44.195214900393424" lon="10.930603328455236"><ele>647.6666666666666</ele><time>2026-05-02T12:42:34.999Z</time></trkpt><trkpt lat="44.1953256975405" lon="10.930778401555628"><ele>648.0</ele><time>2026-05-02T12:42:35.999Z</time></trkpt><trkpt lat="44.19544513269462" lon="10.930909323357108"><ele>646.5</ele><time>2026-05-02T12:42:36.999Z</time></trkpt><trkpt lat="44.195567920405814" lon="10.930991994597859"><ele>645.0</ele><time>2026-05-02T12:42:37.999Z</time></trkpt><trkpt lat="44.1957081134303" lon="10.931013373780866"><ele>643.5</ele><time>2026-05-02T12:42:38.999Z</time></trkpt><trkpt lat="44.195859278045795" lon="10.930985361579133"><ele>642.0</ele><time>2026-05-02T12:42:39.999Z</time></trkpt><trkpt lat="44.19602311695624" lon="10.93096346899799"><ele>642.0</ele><time>2026-05-02T12:42:40.999Z</time></trkpt><trkpt lat="44.19619121917598" lon="10.930952347907722"><ele>642.0</ele><time>2026-05-02T12:42:41.999Z</time></trkpt><trkpt lat="44.19636322843908" lon="10.930946933553598"><ele>642.0</ele><time>2026-05-02T12:42:42.999Z</time></trkpt><trkpt lat="44.196534272510725" lon="10.930938982300486"><ele>642.6666666666666</ele><time>2026-05-02T12:42:43.999Z</time></trkpt><trkpt lat="44.19670132043421" lon="10.930932767478616"><ele>643.3333333333333</ele><time>2026-05-02T12:42:44.999Z</time></trkpt><trkpt lat="44.19685793014415" lon="10.930937486749128"><ele>644.0</ele><time>2026-05-02T12:42:45.999Z</time></trkpt><trkpt lat="44.19699812802448" lon="10.93095435020861"><ele>644.0</ele><time>2026-05-02T12:42:46.999Z</time></trkpt><trkpt lat="44.19711589155465" lon="10.931013747044771"><ele>644.0</ele><time>2026-05-02T12:42:47.999Z</time></trkpt><trkpt lat="44.19722782798877" lon="10.931055673737612"><ele>644.0</ele><time>2026-05-02T12:42:48.999Z</time></trkpt><trkpt lat="44.1973132497962" lon="10.931151130778446"><ele>644.0</ele><time>2026-05-02T12:42:49.999Z</time></trkpt><trkpt lat="44.19734824460557" lon="10.931282584963748"><ele>644.0</ele><time>2026-05-02T12:42:50.999Z</time></trkpt><trkpt lat="44.19735811936888" lon="10.931411007881358"><ele>644.0</ele><time>2026-05-02T12:42:51.999Z</time></trkpt><trkpt lat="44.197317439351195" lon="10.931532537033553"><ele>644.0</ele><time>2026-05-02T12:42:52.999Z</time></trkpt><trkpt lat="44.197236634799225" lon="10.931661106655955"><ele>644.0</ele><time>2026-05-02T12:42:53.999Z</time></trkpt><trkpt lat="44.19711851117689" lon="10.931792797121574"><ele>642.0</ele><time>2026-05-02T12:42:54.999Z</time></trkpt><trkpt lat="44.19699691591881" lon="10.931929649753092"><ele>640.0</ele><time>2026-05-02T12:42:55.999Z</time></trkpt><trkpt lat="44.19688701375452" lon="10.932064358292184"><ele>638.0</ele><time>2026-05-02T12:42:56.999Z</time></trkpt><trkpt lat="44.19676245268223" lon="10.932157998500067"><ele>636.0</ele><time>2026-05-02T12:42:57.999Z</time></trkpt><trkpt lat="44.19663580738244" lon="10.932239600333597"><ele>636.0</ele><time>2026-05-02T12:42:58.999Z</time></trkpt><trkpt lat="44.196505681906956" lon="10.932306126814613"><ele>636.0</ele><time>2026-05-02T12:42:59.999Z</time></trkpt><trkpt lat="44.19637194265945" lon="10.932355951472685"><ele>636.0</ele><time>2026-05-02T12:43:00.999Z</time></trkpt><trkpt lat="44.19624195955711" lon="10.93238038655778"><ele>636.0</ele><time>2026-05-02T12:43:01.999Z</time></trkpt><trkpt lat="44.1961266027471" lon="10.93240308863182"><ele>635.2</ele><time>2026-05-02T12:43:02.999Z</time></trkpt><trkpt lat="44.196031953248735" lon="10.932449309823753"><ele>634.4000000000001</ele><time>2026-05-02T12:43:03.999Z</time></trkpt><trkpt lat="44.19596180599537" lon="10.932536437037411"><ele>633.6</ele><time>2026-05-02T12:43:04.999Z</time></trkpt><trkpt lat="44.19592248243981" lon="10.93266545407558"><ele>632.8000000000001</ele><time>2026-05-02T12:43:05.999Z</time></trkpt><trkpt lat="44.195917921145096" lon="10.932802375900422"><ele>632.0</ele><time>2026-05-02T12:43:06.999Z</time></trkpt><trkpt lat="44.19592936132501" lon="10.93294538354137"><ele>629.0</ele><time>2026-05-02T12:43:07.999Z</time></trkpt><trkpt lat="44.196008438355875" lon="10.933069282088553"><ele>626.0</ele><time>2026-05-02T12:43:08.999Z</time></trkpt><trkpt lat="44.196136680976664" lon="10.93312618452949"><ele>623.0</ele><time>2026-05-02T12:43:09.999Z</time></trkpt><trkpt lat="44.19628134756248" lon="10.933184183396062"><ele>620.0</ele><time>2026-05-02T12:43:10.999Z</time></trkpt><trkpt lat="44.19642220756113" lon="10.933257097824828"><ele>619.3333333333333</ele><time>2026-05-02T12:43:11.999Z</time></trkpt><trkpt lat="44.19657222460391" lon="10.933344332756157"><ele>618.6666666666666</ele><time>2026-05-02T12:43:12.999Z</time></trkpt><trkpt lat="44.19672492070786" lon="10.933435418305182"><ele>618.0</ele><time>2026-05-02T12:43:13.999Z</time></trkpt><trkpt lat="44.196879872417774" lon="10.933537296209733"><ele>618.0</ele><time>2026-05-02T12:43:14.999Z</time></trkpt><trkpt lat="44.19702857196917" lon="10.933635461024666"><ele>618.0</ele><time>2026-05-02T12:43:15.999Z</time></trkpt><trkpt lat="44.197172100423515" lon="10.933725077133456"><ele>618.0</ele><time>2026-05-02T12:43:16.999Z</time></trkpt><trkpt lat="44.197303635447234" lon="10.933806703462647"><ele>617.25</ele><time>2026-05-02T12:43:17.999Z</time></trkpt><trkpt lat="44.19742489655803" lon="10.933858834992998"><ele>616.5</ele><time>2026-05-02T12:43:18.999Z</time></trkpt><trkpt lat="44.19754374852865" lon="10.933868521523934"><ele>615.75</ele><time>2026-05-02T12:43:19.999Z</time></trkpt><trkpt lat="44.19766042894347" lon="10.933818851080737"><ele>615.0</ele><time>2026-05-02T12:43:20.999Z</time></trkpt><trkpt lat="44.1977619741953" lon="10.933750773300288"><ele>615.0</ele><time>2026-05-02T12:43:21.999Z</time></trkpt><trkpt lat="44.19787168345026" lon="10.93368919176738"><ele>615.0</ele><time>2026-05-02T12:43:22.999Z</time></trkpt><trkpt lat="44.19799398517087" lon="10.933662283244828"><ele>615.0</ele><time>2026-05-02T12:43:23.999Z</time></trkpt><trkpt lat="44.198116089134345" lon="10.933669195915922"><ele>615.0</ele><time>2026-05-02T12:43:24.999Z</time></trkpt><trkpt lat="44.198231002561926" lon="10.933700501304212"><ele>614.25</ele><time>2026-05-02T12:43:26Z</time></trkpt><trkpt lat="44.19833180679337" lon="10.933779572288373"><ele>613.5</ele><time>2026-05-02T12:43:27Z</time></trkpt><trkpt lat="44.19843606462771" lon="10.933913023300745"><ele>612.75</ele><time>2026-05-02T12:43:28Z</time></trkpt><trkpt lat="44.1985595852819" lon="10.934072886110593"><ele>612.0</ele><time>2026-05-02T12:43:29Z</time></trkpt><trkpt lat="44.19868690986995" lon="10.934224310991564"><ele>609.6666666666666</ele><time>2026-05-02T12:43:30Z</time></trkpt><trkpt lat="44.19882135195298" lon="10.934345378971836"><ele>607.3333333333333</ele><time>2026-05-02T12:43:31Z</time></trkpt><trkpt lat="44.19895894124091" lon="10.93444158941295"><ele>605.0</ele><time>2026-05-02T12:43:32Z</time></trkpt><trkpt lat="44.19909436343872" lon="10.934524468961458"><ele>605.0</ele><time>2026-05-02T12:43:33Z</time></trkpt><trkpt lat="44.199180530895" lon="10.934634054911555"><ele>605.0</ele><time>2026-05-02T12:43:34Z</time></trkpt><trkpt lat="44.19923848497846" lon="10.934735914637987"><ele>605.0</ele><time>2026-05-02T12:43:35Z</time></trkpt><trkpt lat="44.199271822532445" lon="10.934831236824195"><ele>605.0</ele><time>2026-05-02T12:43:36Z</time></trkpt><trkpt lat="44.1992441389508" lon="10.934934506847975"><ele>605.0</ele><time>2026-05-02T12:43:37Z</time></trkpt><trkpt lat="44.19917376400018" lon="10.93499400725779"><ele>605.0</ele><time>2026-05-02T12:43:38Z</time></trkpt><trkpt lat="44.199080842280395" lon="10.934956163113819"><ele>604.2</ele><time>2026-05-02T12:43:39Z</time></trkpt><trkpt lat="44.19897612112262" lon="10.934943687081516"><ele>603.4</ele><time>2026-05-02T12:43:40Z</time></trkpt><trkpt lat="44.19888265718042" lon="10.934922661600652"><ele>602.6</ele><time>2026-05-02T12:43:41Z</time></trkpt><trkpt lat="44.19879642993238" lon="10.93491568117163"><ele>601.8</ele><time>2026-05-02T12:43:42Z</time></trkpt><trkpt lat="44.198702933432095" lon="10.934895769531915"><ele>601.0</ele><time>2026-05-02T12:43:43Z</time></trkpt><trkpt lat="44.19859754140215" lon="10.934863726048679"><ele>601.0</ele><time>2026-05-02T12:43:44Z</time></trkpt><trkpt lat="44.19849645019753" lon="10.934853180727607"><ele>601.0</ele><time>2026-05-02T12:43:45Z</time></trkpt><trkpt lat="44.19841588131928" lon="10.934869955177733"><ele>601.0</ele><time>2026-05-02T12:43:46Z</time></trkpt><trkpt lat="44.19834322123886" lon="10.934907925862131"><ele>601.0</ele><time>2026-05-02T12:43:47Z</time></trkpt><trkpt lat="44.19830890718731" lon="10.935034993910598"><ele>601.0</ele><time>2026-05-02T12:43:48Z</time></trkpt><trkpt lat="44.19828151660477" lon="10.935165490673201"><ele>600.8333333333334</ele><time>2026-05-02T12:43:49Z</time></trkpt><trkpt lat="44.19825536381826" lon="10.935291576347261"><ele>600.6666666666667</ele><time>2026-05-02T12:43:50Z</time></trkpt><trkpt lat="44.19822999400338" lon="10.935413887317749"><ele>600.5</ele><time>2026-05-02T12:43:51Z</time></trkpt><trkpt lat="44.19820393689805" lon="10.935534938588855"><ele>600.3333333333334</ele><time>2026-05-02T12:43:52Z</time></trkpt><trkpt lat="44.198177958202336" lon="10.935655373382556"><ele>600.1666666666666</ele><time>2026-05-02T12:43:53Z</time></trkpt><trkpt lat="44.1981526602134" lon="10.935764687473094"><ele>600.0</ele><time>2026-05-02T12:43:54Z</time></trkpt><trkpt lat="44.19814028905671" lon="10.935873535837636"><ele>598.3333333333334</ele><time>2026-05-02T12:43:55Z</time></trkpt><trkpt lat="44.19809975846307" lon="10.93595964789581"><ele>596.6666666666666</ele><time>2026-05-02T12:43:56Z</time></trkpt><trkpt lat="44.19805275003148" lon="10.936031653724568"><ele>595.0</ele><time>2026-05-02T12:43:56.999Z</time></trkpt><trkpt lat="44.19799692495073" lon="10.936097728746883"><ele>593.3333333333333</ele><time>2026-05-02T12:43:57.999Z</time></trkpt><trkpt lat="44.19792934344737" lon="10.936184414795152"><ele>591.6666666666666</ele><time>2026-05-02T12:43:58.999Z</time></trkpt><trkpt lat="44.19784550200816" lon="10.936291946839884"><ele>590.0</ele><time>2026-05-02T12:43:59.999Z</time></trkpt><trkpt lat="44.19775653354032" lon="10.936403902085015"><ele>590.0</ele><time>2026-05-02T12:44:00.999Z</time></trkpt><trkpt lat="44.19765343572911" lon="10.93652932656214"><ele>590.0</ele><time>2026-05-02T12:44:01.999Z</time></trkpt><trkpt lat="44.19754940797663" lon="10.936662563111542"><ele>590.0</ele><time>2026-05-02T12:44:02.999Z</time></trkpt><trkpt lat="44.19744984729087" lon="10.936791849026834"><ele>590.0</ele><time>2026-05-02T12:44:03.999Z</time></trkpt><trkpt lat="44.19735171728581" lon="10.936900230885517"><ele>587.75</ele><time>2026-05-02T12:44:04.999Z</time></trkpt><trkpt lat="44.19725456386919" lon="10.936997143278049"><ele>585.5</ele><time>2026-05-02T12:44:05.999Z</time></trkpt><trkpt lat="44.197151950875" lon="10.937080594576955"><ele>583.25</ele><time>2026-05-02T12:44:06.999Z</time></trkpt><trkpt lat="44.19703801412951" lon="10.937152103612581"><ele>581.0</ele><time>2026-05-02T12:44:07.999Z</time></trkpt><trkpt lat="44.196913678224114" lon="10.937206204944825"><ele>581.0</ele><time>2026-05-02T12:44:08.999Z</time></trkpt><trkpt lat="44.19677988332488" lon="10.937237367766691"><ele>581.0</ele><time>2026-05-02T12:44:09.999Z</time></trkpt><trkpt lat="44.19663931047767" lon="10.937245858287087"><ele>581.0</ele><time>2026-05-02T12:44:10.999Z</time></trkpt><trkpt lat="44.19649022602971" lon="10.937239444459937"><ele>581.0</ele><time>2026-05-02T12:44:11.999Z</time></trkpt><trkpt lat="44.196336013875715" lon="10.937220895009636"><ele>579.0</ele><time>2026-05-02T12:44:12.999Z</time></trkpt><trkpt lat="44.19617803818311" lon="10.937206626349294"><ele>577.0</ele><time>2026-05-02T12:44:13.999Z</time></trkpt><trkpt lat="44.196023545742364" lon="10.937197562380298"><ele>575.0</ele><time>2026-05-02T12:44:14.999Z</time></trkpt><trkpt lat="44.19587652535669" lon="10.937187129496897"><ele>575.0</ele><time>2026-05-02T12:44:15.999Z</time></trkpt><trkpt lat="44.19573473262127" lon="10.937175103536951"><ele>575.0</ele><time>2026-05-02T12:44:16.999Z</time></trkpt><trkpt lat="44.19558698432798" lon="10.937166096769943"><ele>575.0</ele><time>2026-05-02T12:44:17.999Z</time></trkpt><trkpt lat="44.19543333160509" lon="10.937156133985955"><ele>575.0</ele><time>2026-05-02T12:44:18.999Z</time></trkpt><trkpt lat="44.195271995359654" lon="10.937145237628966"><ele>573.3333333333333</ele><time>2026-05-02T12:44:19.999Z</time></trkpt><trkpt lat="44.19510402019936" lon="10.937134129163528"><ele>571.6666666666666</ele><time>2026-05-02T12:44:20.999Z</time></trkpt><trkpt lat="44.19492986058871" lon="10.9371199685489"><ele>570.0</ele><time>2026-05-02T12:44:21.999Z</time></trkpt><trkpt lat="44.19475373295668" lon="10.937104035565975"><ele>569.6666666666666</ele><time>2026-05-02T12:44:22.999Z</time></trkpt><trkpt lat="44.194586000701506" lon="10.937087916000115"><ele>569.3333333333333</ele><time>2026-05-02T12:44:23.999Z</time></trkpt><trkpt lat="44.19442903869707" lon="10.937074011688777"><ele>569.0</ele><time>2026-05-02T12:44:24.999Z</time></trkpt><trkpt lat="44.194277594927215" lon="10.937072223606126"><ele>569.0</ele><time>2026-05-02T12:44:25.999Z</time></trkpt><trkpt lat="44.194132901546595" lon="10.937088653849324"><ele>569.0</ele><time>2026-05-02T12:44:26.999Z</time></trkpt><trkpt lat="44.19399517414115" lon="10.937133292399425"><ele>569.0</ele><time>2026-05-02T12:44:27.999Z</time></trkpt><trkpt lat="44.1938662876669" lon="10.93721121446615"><ele>569.0</ele><time>2026-05-02T12:44:28.999Z</time></trkpt><trkpt lat="44.19374685955507" lon="10.93731730107813"><ele>569.5</ele><time>2026-05-02T12:44:29.999Z</time></trkpt><trkpt lat="44.1936415634555" lon="10.937442909570999"><ele>570.0</ele><time>2026-05-02T12:44:30.999Z</time></trkpt><trkpt lat="44.19354068621318" lon="10.937572637512845"><ele>570.5</ele><time>2026-05-02T12:44:31.999Z</time></trkpt><trkpt lat="44.19343505731079" lon="10.937686797266416"><ele>571.0</ele><time>2026-05-02T12:44:32.999Z</time></trkpt><trkpt lat="44.19332334968606" lon="10.937769557932201"><ele>568.5</ele><time>2026-05-02T12:44:33.999Z</time></trkpt><trkpt lat="44.19320490495394" lon="10.93780796437423"><ele>566.0</ele><time>2026-05-02T12:44:34.999Z</time></trkpt><trkpt lat="44.19308598471169" lon="10.937791172091414"><ele>563.5</ele><time>2026-05-02T12:44:35.999Z</time></trkpt><trkpt lat="44.192961657746054" lon="10.937730856665107"><ele>561.0</ele><time>2026-05-02T12:44:36.999Z</time></trkpt><trkpt lat="44.19282479817526" lon="10.937651067298932"><ele>559.0</ele><time>2026-05-02T12:44:37.999Z</time></trkpt><trkpt lat="44.192682339667854" lon="10.937597795576044"><ele>557.0</ele><time>2026-05-02T12:44:38.999Z</time></trkpt><trkpt lat="44.19252365683398" lon="10.93758791639252"><ele>555.0</ele><time>2026-05-02T12:44:39.999Z</time></trkpt><trkpt lat="44.1923624167056" lon="10.93760351759178"><ele>554.6666666666666</ele><time>2026-05-02T12:44:40.999Z</time></trkpt><trkpt lat="44.192206685135666" lon="10.937613745944853"><ele>554.3333333333333</ele><time>2026-05-02T12:44:41.999Z</time></trkpt><trkpt lat="44.19206794953478" lon="10.937708575528866"><ele>554.0</ele><time>2026-05-02T12:44:42.999Z</time></trkpt><trkpt lat="44.19193748990796" lon="10.937812999251873"><ele>554.0</ele><time>2026-05-02T12:44:43.999Z</time></trkpt><trkpt lat="44.19180680008101" lon="10.937931927140601"><ele>554.0</ele><time>2026-05-02T12:44:44.999Z</time></trkpt><trkpt lat="44.191673499028276" lon="10.938021008213777"><ele>554.0</ele><time>2026-05-02T12:44:45.999Z</time></trkpt><trkpt lat="44.191544522518456" lon="10.938079218469557"><ele>554.0</ele><time>2026-05-02T12:44:46.999Z</time></trkpt><trkpt lat="44.191429876458606" lon="10.938090342603198"><ele>550.75</ele><time>2026-05-02T12:44:47.999Z</time></trkpt><trkpt lat="44.191323643891536" lon="10.93804072629904"><ele>547.5</ele><time>2026-05-02T12:44:48.999Z</time></trkpt><trkpt lat="44.191230793044646" lon="10.937929394800781"><ele>544.25</ele><time>2026-05-02T12:44:49.999Z</time></trkpt><trkpt lat="44.1911429278042" lon="10.937768223975352"><ele>541.0</ele><time>2026-05-02T12:44:50.999Z</time></trkpt><trkpt lat="44.19102771879205" lon="10.93761226245037"><ele>540.75</ele><time>2026-05-02T12:44:51.999Z</time></trkpt><trkpt lat="44.190887637957616" lon="10.937499468974288"><ele>540.5</ele><time>2026-05-02T12:44:52.999Z</time></trkpt><trkpt lat="44.19076332992504" lon="10.937386362950038"><ele>540.25</ele><time>2026-05-02T12:44:53.999Z</time></trkpt><trkpt lat="44.19067132527641" lon="10.937283444129672"><ele>540.0</ele><time>2026-05-02T12:44:54.999Z</time></trkpt><trkpt lat="44.190588450963425" lon="10.937209191442731"><ele>540.0</ele><time>2026-05-02T12:44:55.999Z</time></trkpt><trkpt lat="44.19051220405158" lon="10.937176889905333"><ele>540.0</ele><time>2026-05-02T12:44:56.999Z</time></trkpt><trkpt lat="44.19043706757644" lon="10.93718157132773"><ele>540.0</ele><time>2026-05-02T12:44:57.999Z</time></trkpt><trkpt lat="44.190370442838855" lon="10.93719724278243"><ele>540.0</ele><time>2026-05-02T12:44:58.999Z</time></trkpt><trkpt lat="44.19035062163292" lon="10.937346290887973"><ele>540.0</ele><time>2026-05-02T12:44:59.999Z</time></trkpt><trkpt lat="44.190348606346916" lon="10.93747823931196"><ele>540.0</ele><time>2026-05-02T12:45:00.999Z</time></trkpt><trkpt lat="44.190423253319224" lon="10.9376138316789"><ele>540.3333333333334</ele><time>2026-05-02T12:45:01.999Z</time></trkpt><trkpt lat="44.19055432433154" lon="10.937717935013717"><ele>540.6666666666667</ele><time>2026-05-02T12:45:02.999Z</time></trkpt><trkpt lat="44.19069361539516" lon="10.937843548315126"><ele>541.0</ele><time>2026-05-02T12:45:03.999Z</time></trkpt><trkpt lat="44.19083747563752" lon="10.937990354218035"><ele>541.0</ele><time>2026-05-02T12:45:04.999Z</time></trkpt><trkpt lat="44.1909609264258" lon="10.938180812279262"><ele>541.0</ele><time>2026-05-02T12:45:05.999Z</time></trkpt><trkpt lat="44.19106555458282" lon="10.938387347454693"><ele>541.0</ele><time>2026-05-02T12:45:06.999Z</time></trkpt><trkpt lat="44.19114985103741" lon="10.93859145361211"><ele>538.75</ele><time>2026-05-02T12:45:07.999Z</time></trkpt><trkpt lat="44.19118251341815" lon="10.938805092780306"><ele>536.5</ele><time>2026-05-02T12:45:08.999Z</time></trkpt><trkpt lat="44.19121241714894" lon="10.938993172037756"><ele>534.25</ele><time>2026-05-02T12:45:09.999Z</time></trkpt><trkpt lat="44.19121006448284" lon="10.939161120537992"><ele>532.0</ele><time>2026-05-02T12:45:10.999Z</time></trkpt><trkpt lat="44.19124689485234" lon="10.939315461299591"><ele>531.5</ele><time>2026-05-02T12:45:11.999Z</time></trkpt><trkpt lat="44.19132299961252" lon="10.939460306444403"><ele>531.0</ele><time>2026-05-02T12:45:12.999Z</time></trkpt><trkpt lat="44.19142660011047" lon="10.939596440475219"><ele>530.5</ele><time>2026-05-02T12:45:13.999Z</time></trkpt><trkpt lat="44.19153581212046" lon="10.939697414010737"><ele>530.0</ele><time>2026-05-02T12:45:14.999Z</time></trkpt><trkpt lat="44.1916439531556" lon="10.939750453457448"><ele>530.0</ele><time>2026-05-02T12:45:15.999Z</time></trkpt><trkpt lat="44.19176963985001" lon="10.939744855330224"><ele>530.0</ele><time>2026-05-02T12:45:16.999Z</time></trkpt><trkpt lat="44.19191030943166" lon="10.939686012205618"><ele>530.0</ele><time>2026-05-02T12:45:17.999Z</time></trkpt><trkpt lat="44.19204530074074" lon="10.939641237498556"><ele>530.0</ele><time>2026-05-02T12:45:18.999Z</time></trkpt><trkpt lat="44.192180917211175" lon="10.939646222311088"><ele>530.0</ele><time>2026-05-02T12:45:19.999Z</time></trkpt><trkpt lat="44.19231485184739" lon="10.93970906419488"><ele>530.0</ele><time>2026-05-02T12:45:20.999Z</time></trkpt><trkpt lat="44.19243039628031" lon="10.939851869109702"><ele>530.0</ele><time>2026-05-02T12:45:21.999Z</time></trkpt><trkpt lat="44.192559997196405" lon="10.939973465982522"><ele>529.0</ele><time>2026-05-02T12:45:22.999Z</time></trkpt><trkpt lat="44.19273002527336" lon="10.93999855856886"><ele>528.0</ele><time>2026-05-02T12:45:23.999Z</time></trkpt><trkpt lat="44.192906404846354" lon="10.940064341503454"><ele>527.0</ele><time>2026-05-02T12:45:24.999Z</time></trkpt><trkpt lat="44.19306572658495" lon="10.94019754959692"><ele>524.6666666666666</ele><time>2026-05-02T12:45:25.999Z</time></trkpt><trkpt lat="44.19320062934906" lon="10.94034371039049"><ele>522.3333333333334</ele><time>2026-05-02T12:45:26.999Z</time></trkpt><trkpt lat="44.19336037862178" lon="10.940437754891041"><ele>520.0</ele><time>2026-05-02T12:45:27.999Z</time></trkpt><trkpt lat="44.193530464208486" lon="10.940459622167364"><ele>520.0</ele><time>2026-05-02T12:45:28.999Z</time></trkpt><trkpt lat="44.193678825568206" lon="10.9405085378204"><ele>520.0</ele><time>2026-05-02T12:45:29.999Z</time></trkpt><trkpt lat="44.19380426083638" lon="10.940598254339697"><ele>520.0</ele><time>2026-05-02T12:45:30.999Z</time></trkpt><trkpt lat="44.19390277263721" lon="10.940710707448398"><ele>520.0</ele><time>2026-05-02T12:45:32Z</time></trkpt><trkpt lat="44.19397478886934" lon="10.940844610401737"><ele>521.0</ele><time>2026-05-02T12:45:33Z</time></trkpt><trkpt lat="44.19402149470826" lon="10.94099942984638"><ele>522.0</ele><time>2026-05-02T12:45:34Z</time></trkpt><trkpt lat="44.194026525353244" lon="10.941194706226026"><ele>523.0</ele><time>2026-05-02T12:45:35Z</time></trkpt><trkpt lat="44.19402739452523" lon="10.94142461880059"><ele>524.0</ele><time>2026-05-02T12:45:36Z</time></trkpt><trkpt lat="44.19402982427411" lon="10.941679784638604"><ele>523.0</ele><time>2026-05-02T12:45:37Z</time></trkpt><trkpt lat="44.19405439343067" lon="10.941924105351234"><ele>522.0</ele><time>2026-05-02T12:45:38Z</time></trkpt><trkpt lat="44.19408739071032" lon="10.942146163057417"><ele>521.0</ele><time>2026-05-02T12:45:39Z</time></trkpt><trkpt lat="44.19410561645953" lon="10.94236130064043"><ele>519.75</ele><time>2026-05-02T12:45:40Z</time></trkpt><trkpt lat="44.19409633734761" lon="10.94257576437962"><ele>518.5</ele><time>2026-05-02T12:45:41Z</time></trkpt><trkpt lat="44.194062912264286" lon="10.942780950183716"><ele>517.25</ele><time>2026-05-02T12:45:42Z</time></trkpt><trkpt lat="44.19403034619071" lon="10.942971782454487"><ele>516.0</ele><time>2026-05-02T12:45:43Z</time></trkpt><trkpt lat="44.19402631998346" lon="10.94316144911748"><ele>516.0</ele><time>2026-05-02T12:45:44Z</time></trkpt><trkpt lat="44.19404328750139" lon="10.943351388530159"><ele>516.0</ele><time>2026-05-02T12:45:45Z</time></trkpt><trkpt lat="44.1940630422201" lon="10.943542157049857"><ele>516.0</ele><time>2026-05-02T12:45:46Z</time></trkpt><trkpt lat="44.1940888738399" lon="10.943727876116348"><ele>516.0</ele><time>2026-05-02T12:45:47Z</time></trkpt><trkpt lat="44.19413108125969" lon="10.943908913597282"><ele>514.25</ele><time>2026-05-02T12:45:48Z</time></trkpt><trkpt lat="44.194186501246136" lon="10.94409114484192"><ele>512.5</ele><time>2026-05-02T12:45:49Z</time></trkpt><trkpt lat="44.19425212416442" lon="10.94427377082464"><ele>510.75</ele><time>2026-05-02T12:45:50Z</time></trkpt><trkpt lat="44.194321204709404" lon="10.94445072410482"><ele>509.0</ele><time>2026-05-02T12:45:51Z</time></trkpt><trkpt lat="44.19438957463898" lon="10.944614738209419"><ele>507.6</ele><time>2026-05-02T12:45:52Z</time></trkpt><trkpt lat="44.19447230204149" lon="10.944754047333264"><ele>506.2</ele><time>2026-05-02T12:45:53Z</time></trkpt><trkpt lat="44.19455744114809" lon="10.944858638799674"><ele>504.80000000000007</ele><time>2026-05-02T12:45:54Z</time></trkpt><trkpt lat="44.19462435690131" lon="10.94494928592375"><ele>503.40000000000003</ele><time>2026-05-02T12:45:55Z</time></trkpt><trkpt lat="44.19466146379013" lon="10.945046556857577"><ele>502.0</ele><time>2026-05-02T12:45:56Z</time></trkpt><trkpt lat="44.194665291661984" lon="10.94514117124286"><ele>501.00000000000006</ele><time>2026-05-02T12:45:57Z</time></trkpt><trkpt lat="44.1946390475192" lon="10.945226394160652"><ele>500.0</ele><time>2026-05-02T12:45:58Z</time></trkpt><trkpt lat="44.19458288628646" lon="10.945279262192683"><ele>499.0</ele><time>2026-05-02T12:45:59Z</time></trkpt><trkpt lat="44.19451054224719" lon="10.94527446116737"><ele>498.0</ele><time>2026-05-02T12:45:59.999Z</time></trkpt><trkpt lat="44.19441983114881" lon="10.945221534557948"><ele>497.00000000000006</ele><time>2026-05-02T12:46:00.999Z</time></trkpt><trkpt lat="44.19431667198355" lon="10.94515702387411"><ele>496.0</ele><time>2026-05-02T12:46:01.999Z</time></trkpt><trkpt lat="44.19419556171996" lon="10.94507684734827"><ele>495.6666666666667</ele><time>2026-05-02T12:46:02.999Z</time></trkpt><trkpt lat="44.19407454815211" lon="10.944957318827194"><ele>495.33333333333337</ele><time>2026-05-02T12:46:03.999Z</time></trkpt><trkpt lat="44.19394319757286" lon="10.94484503648957"><ele>495.0</ele><time>2026-05-02T12:46:04.999Z</time></trkpt><trkpt lat="44.1938326556931" lon="10.944693541295743"><ele>495.0</ele><time>2026-05-02T12:46:05.999Z</time></trkpt><trkpt lat="44.19373953388534" lon="10.944542491177886"><ele>495.0</ele><time>2026-05-02T12:46:06.999Z</time></trkpt><trkpt lat="44.193662664014774" lon="10.944385670239424"><ele>495.0</ele><time>2026-05-02T12:46:07.999Z</time></trkpt><trkpt lat="44.193607827666185" lon="10.944218185350637"><ele>495.0</ele><time>2026-05-02T12:46:08.999Z</time></trkpt><trkpt lat="44.193575881340685" lon="10.944054923902534"><ele>495.2</ele><time>2026-05-02T12:46:09.999Z</time></trkpt><trkpt lat="44.19352647775769" lon="10.943913187838778"><ele>495.4</ele><time>2026-05-02T12:46:10.999Z</time></trkpt><trkpt lat="44.19344648582335" lon="10.943809198329959"><ele>495.6</ele><time>2026-05-02T12:46:11.999Z</time></trkpt><trkpt lat="44.1933427397197" lon="10.9437741594613"><ele>495.8</ele><time>2026-05-02T12:46:12.999Z</time></trkpt><trkpt lat="44.193237263129994" lon="10.943785987545313"><ele>496.0</ele><time>2026-05-02T12:46:13.999Z</time></trkpt><trkpt lat="44.193141217293025" lon="10.943839444312118"><ele>494.4</ele><time>2026-05-02T12:46:14.999Z</time></trkpt><trkpt lat="44.193079418096765" lon="10.943954763611716"><ele>492.8</ele><time>2026-05-02T12:46:15.999Z</time></trkpt><trkpt lat="44.193040740119244" lon="10.944106184163328"><ele>491.19999999999993</ele><time>2026-05-02T12:46:16.999Z</time></trkpt><trkpt lat="44.19300432727202" lon="10.944247290817321"><ele>489.59999999999997</ele><time>2026-05-02T12:46:17.999Z</time></trkpt><trkpt lat="44.19294568968036" lon="10.944339862676333"><ele>488.0</ele><time>2026-05-02T12:46:18.999Z</time></trkpt><trkpt lat="44.19286331753364" lon="10.94437858307373"><ele>488.0</ele><time>2026-05-02T12:46:19.999Z</time></trkpt><trkpt lat="44.19277677052186" lon="10.944365924195912"><ele>487.99999999999994</ele><time>2026-05-02T12:46:20.999Z</time></trkpt><trkpt lat="44.192704891809036" lon="10.944293725575541"><ele>487.99999999999994</ele><time>2026-05-02T12:46:21.999Z</time></trkpt><trkpt lat="44.1926773450437" lon="10.944168051100245"><ele>488.0</ele><time>2026-05-02T12:46:22.999Z</time></trkpt><trkpt lat="44.192696723931405" lon="10.94400528532444"><ele>488.0</ele><time>2026-05-02T12:46:23.999Z</time></trkpt><trkpt lat="44.1927489815552" lon="10.943819117410108"><ele>487.79999999999995</ele><time>2026-05-02T12:46:24.999Z</time></trkpt><trkpt lat="44.192796229576636" lon="10.943657704566752"><ele>487.59999999999997</ele><time>2026-05-02T12:46:25.999Z</time></trkpt><trkpt lat="44.192840634035825" lon="10.94351446061032"><ele>487.40000000000003</ele><time>2026-05-02T12:46:26.999Z</time></trkpt><trkpt lat="44.19287454465882" lon="10.94339805842619"><ele>487.20000000000005</ele><time>2026-05-02T12:46:27.999Z</time></trkpt><trkpt lat="44.1928746897685" lon="10.9432898536518"><ele>487.0</ele><time>2026-05-02T12:46:28.999Z</time></trkpt><trkpt lat="44.19283308643858" lon="10.943202436712806"><ele>487.0</ele><time>2026-05-02T12:46:29.999Z</time></trkpt><trkpt lat="44.19277561499013" lon="10.943134087311456"><ele>487.00000000000006</ele><time>2026-05-02T12:46:30.999Z</time></trkpt><trkpt lat="44.19268405484378" lon="10.943163413105262"><ele>487.00000000000006</ele><time>2026-05-02T12:46:31.999Z</time></trkpt><trkpt lat="44.19263759502094" lon="10.943292230852306"><ele>487.0</ele><time>2026-05-02T12:46:32.999Z</time></trkpt><trkpt lat="44.19260766229137" lon="10.943445190625841"><ele>487.0</ele><time>2026-05-02T12:46:33.999Z</time></trkpt><trkpt lat="44.192577047301356" lon="10.943637495883404"><ele>487.0</ele><time>2026-05-02T12:46:34.999Z</time></trkpt><trkpt lat="44.19252609484304" lon="10.943857618747709"><ele>487.0</ele><time>2026-05-02T12:46:35.999Z</time></trkpt><trkpt lat="44.19246159299054" lon="10.944086470140508"><ele>487.0</ele><time>2026-05-02T12:46:36.999Z</time></trkpt><trkpt lat="44.192405072939366" lon="10.944297733189297"><ele>487.33333333333337</ele><time>2026-05-02T12:46:37.999Z</time></trkpt><trkpt lat="44.192373514685904" lon="10.944511939432408"><ele>487.66666666666663</ele><time>2026-05-02T12:46:38.999Z</time></trkpt><trkpt lat="44.19236262028047" lon="10.944745069729763"><ele>488.0</ele><time>2026-05-02T12:46:39.999Z</time></trkpt><trkpt lat="44.19236545081066" lon="10.944992474734626"><ele>486.66666666666663</ele><time>2026-05-02T12:46:40.999Z</time></trkpt><trkpt lat="44.192358414011046" lon="10.945248753637063"><ele>485.33333333333337</ele><time>2026-05-02T12:46:41.999Z</time></trkpt><trkpt lat="44.192350874117416" lon="10.945489843736912"><ele>484.0</ele><time>2026-05-02T12:46:42.999Z</time></trkpt><trkpt lat="44.19234985394325" lon="10.945729980972365"><ele>482.33333333333337</ele><time>2026-05-02T12:46:43.999Z</time></trkpt><trkpt lat="44.19241161996619" lon="10.945975039020395"><ele>480.66666666666663</ele><time>2026-05-02T12:46:44.999Z</time></trkpt><trkpt lat="44.192453671400365" lon="10.946217691163081"><ele>479.0</ele><time>2026-05-02T12:46:45.999Z</time></trkpt><trkpt lat="44.192478022095095" lon="10.946433895862802"><ele>479.0</ele><time>2026-05-02T12:46:46.999Z</time></trkpt><trkpt lat="44.19249909818178" lon="10.946621712077341"><ele>479.0</ele><time>2026-05-02T12:46:47.999Z</time></trkpt><trkpt lat="44.19255005134015" lon="10.946795627949195"><ele>479.0</ele><time>2026-05-02T12:46:48.999Z</time></trkpt><trkpt lat="44.19263952435706" lon="10.946941013740089"><ele>479.0</ele><time>2026-05-02T12:46:49.999Z</time></trkpt><trkpt lat="44.192751362058814" lon="10.947059521052804"><ele>478.2</ele><time>2026-05-02T12:46:50.999Z</time></trkpt><trkpt lat="44.19285388395616" lon="10.9471425242074"><ele>477.4</ele><time>2026-05-02T12:46:51.999Z</time></trkpt><trkpt lat="44.19294988634081" lon="10.947179778663171"><ele>476.6</ele><time>2026-05-02T12:46:52.999Z</time></trkpt><trkpt lat="44.19305560898719" lon="10.947159635253351"><ele>475.8</ele><time>2026-05-02T12:46:53.999Z</time></trkpt><trkpt lat="44.19316042367146" lon="10.947108680117035"><ele>475.0</ele><time>2026-05-02T12:46:54.999Z</time></trkpt><trkpt lat="44.19324498816529" lon="10.94711626914916"><ele>475.00000000000006</ele><time>2026-05-02T12:46:55.999Z</time></trkpt><trkpt lat="44.19330606242059" lon="10.947176452625882"><ele>475.0</ele><time>2026-05-02T12:46:56.999Z</time></trkpt><trkpt lat="44.19333109953401" lon="10.947266324768272"><ele>475.0</ele><time>2026-05-02T12:46:57.999Z</time></trkpt><trkpt lat="44.19331096746121" lon="10.947367393025136"><ele>475.0</ele><time>2026-05-02T12:46:58.999Z</time></trkpt><trkpt lat="44.193219386154865" lon="10.947445554688327"><ele>475.00000000000006</ele><time>2026-05-02T12:46:59.999Z</time></trkpt><trkpt lat="44.19311964229999" lon="10.947534607118511"><ele>475.0</ele><time>2026-05-02T12:47:00.999Z</time></trkpt><trkpt lat="44.193022094325634" lon="10.947653533002148"><ele>473.0</ele><time>2026-05-02T12:47:01.999Z</time></trkpt><trkpt lat="44.1929097167996" lon="10.94779471537518"><ele>471.0</ele><time>2026-05-02T12:47:02.999Z</time></trkpt><trkpt lat="44.19279830445015" lon="10.94791050546282"><ele>469.0</ele><time>2026-05-02T12:47:03.999Z</time></trkpt><trkpt lat="44.19266761093289" lon="10.947970708107743"><ele>467.0</ele><time>2026-05-02T12:47:04.999Z</time></trkpt><trkpt lat="44.19252164527782" lon="10.948020914107163"><ele>467.0</ele><time>2026-05-02T12:47:05.999Z</time></trkpt><trkpt lat="44.19238550206033" lon="10.948066635560021"><ele>467.0</ele><time>2026-05-02T12:47:06.999Z</time></trkpt><trkpt lat="44.19226589438476" lon="10.948119555182725"><ele>467.0</ele><time>2026-05-02T12:47:07.999Z</time></trkpt><trkpt lat="44.192155655720875" lon="10.948189499768676"><ele>467.0</ele><time>2026-05-02T12:47:08.999Z</time></trkpt><trkpt lat="44.192078115637344" lon="10.948292543320376"><ele>463.0</ele><time>2026-05-02T12:47:09.999Z</time></trkpt><trkpt lat="44.1920577462249" lon="10.948442803038224"><ele>459.0</ele><time>2026-05-02T12:47:10.999Z</time></trkpt><trkpt lat="44.19206360920124" lon="10.948609325911836"><ele>455.0</ele><time>2026-05-02T12:47:11.999Z</time></trkpt><trkpt lat="44.19208846183073" lon="10.948803846306358"><ele>451.0</ele><time>2026-05-02T12:47:12.999Z</time></trkpt><trkpt lat="44.19210090745108" lon="10.949029266981073"><ele>450.33333333333337</ele><time>2026-05-02T12:47:13.999Z</time></trkpt><trkpt lat="44.1921029171542" lon="10.949270822436565"><ele>449.66666666666663</ele><time>2026-05-02T12:47:14.999Z</time></trkpt><trkpt lat="44.1921022336127" lon="10.949521890799511"><ele>449.0</ele><time>2026-05-02T12:47:15.999Z</time></trkpt><trkpt lat="44.19210298159207" lon="10.949761206484323"><ele>449.0</ele><time>2026-05-02T12:47:16.999Z</time></trkpt><trkpt lat="44.1921017884473" lon="10.949978466860012"><ele>449.0</ele><time>2026-05-02T12:47:17.999Z</time></trkpt><trkpt lat="44.19208543496234" lon="10.950188477961406"><ele>449.0</ele><time>2026-05-02T12:47:18.999Z</time></trkpt><trkpt lat="44.19205027864887" lon="10.950389492885295"><ele>449.5</ele><time>2026-05-02T12:47:19.999Z</time></trkpt><trkpt lat="44.19200660944222" lon="10.950592359684306"><ele>450.0</ele><time>2026-05-02T12:47:20.999Z</time></trkpt><trkpt lat="44.19193709250739" lon="10.950772715965392"><ele>450.5</ele><time>2026-05-02T12:47:21.999Z</time></trkpt><trkpt lat="44.19190745304028" lon="10.95094149843088"><ele>451.0</ele><time>2026-05-02T12:47:22.999Z</time></trkpt><trkpt lat="44.19185986809811" lon="10.951072775786582"><ele>449.83333333333337</ele><time>2026-05-02T12:47:23.999Z</time></trkpt><trkpt lat="44.191813860679275" lon="10.951157552780437"><ele>448.6666666666667</ele><time>2026-05-02T12:47:24.999Z</time></trkpt><trkpt lat="44.19175157173758" lon="10.951192808894563"><ele>447.5</ele><time>2026-05-02T12:47:25.999Z</time></trkpt><trkpt lat="44.191680935123316" lon="10.95118721063258"><ele>446.33333333333337</ele><time>2026-05-02T12:47:26.999Z</time></trkpt><trkpt lat="44.19162669879217" lon="10.951125743632"><ele>445.1666666666667</ele><time>2026-05-02T12:47:27.999Z</time></trkpt><trkpt lat="44.191600353925715" lon="10.951020478995554"><ele>444.0</ele><time>2026-05-02T12:47:28.999Z</time></trkpt><trkpt lat="44.19160659297238" lon="10.95089530589086"><ele>445.75</ele><time>2026-05-02T12:47:29.999Z</time></trkpt><trkpt lat="44.19162182774293" lon="10.95075644491561"><ele>447.5</ele><time>2026-05-02T12:47:30.999Z</time></trkpt><trkpt lat="44.19161819455094" lon="10.950600375025667"><ele>449.25</ele><time>2026-05-02T12:47:31.999Z</time></trkpt><trkpt lat="44.19160167269766" lon="10.950432776007817"><ele>451.0</ele><time>2026-05-02T12:47:32.999Z</time></trkpt><trkpt lat="44.19160309966308" lon="10.950260956716855"><ele>451.0</ele><time>2026-05-02T12:47:33.999Z</time></trkpt><trkpt lat="44.19163941772547" lon="10.950094473200695"><ele>451.0</ele><time>2026-05-02T12:47:34.999Z</time></trkpt><trkpt lat="44.19170271108034" lon="10.949952738553637"><ele>451.0</ele><time>2026-05-02T12:47:35.999Z</time></trkpt><trkpt lat="44.19177245876886" lon="10.949829814789014"><ele>451.0</ele><time>2026-05-02T12:47:36.999Z</time></trkpt><trkpt lat="44.191800343088445" lon="10.949709099277587"><ele>451.0</ele><time>2026-05-02T12:47:38Z</time></trkpt><trkpt lat="44.1917831637056" lon="10.94959022895707"><ele>450.6</ele><time>2026-05-02T12:47:39Z</time></trkpt><trkpt lat="44.191750360774236" lon="10.949480202268656"><ele>450.20000000000005</ele><time>2026-05-02T12:47:40Z</time></trkpt><trkpt lat="44.19165826700142" lon="10.949417145697026"><ele>449.79999999999995</ele><time>2026-05-02T12:47:41Z</time></trkpt><trkpt lat="44.191553319589225" lon="10.94942676916344"><ele>449.4</ele><time>2026-05-02T12:47:42Z</time></trkpt><trkpt lat="44.191470705759755" lon="10.949513683862747"><ele>449.0</ele><time>2026-05-02T12:47:43Z</time></trkpt><trkpt lat="44.19146097780064" lon="10.949678615675932"><ele>443.0</ele><time>2026-05-02T12:47:44Z</time></trkpt><trkpt lat="44.19147049365284" lon="10.949849506068215"><ele>437.0</ele><time>2026-05-02T12:47:45Z</time></trkpt><trkpt lat="44.19146598287193" lon="10.950056170361702"><ele>431.0</ele><time>2026-05-02T12:47:46Z</time></trkpt><trkpt lat="44.1914277025534" lon="10.950278609030267"><ele>425.0</ele><time>2026-05-02T12:47:46.999Z</time></trkpt><trkpt lat="44.19139200481025" lon="10.950519040793694"><ele>424.66666666666663</ele><time>2026-05-02T12:47:47.999Z</time></trkpt><trkpt lat="44.19136271970353" lon="10.95074313570726"><ele>424.33333333333337</ele><time>2026-05-02T12:47:48.999Z</time></trkpt><trkpt lat="44.191317526041" lon="10.950947552423484"><ele>424.0</ele><time>2026-05-02T12:47:49.999Z</time></trkpt><trkpt lat="44.19125179749458" lon="10.951127608575947"><ele>424.0</ele><time>2026-05-02T12:47:50.999Z</time></trkpt><trkpt lat="44.19119014655767" lon="10.951303278854242"><ele>424.0</ele><time>2026-05-02T12:47:51.999Z</time></trkpt><trkpt lat="44.19115435813939" lon="10.951505227811156"><ele>424.0</ele><time>2026-05-02T12:47:52.999Z</time></trkpt><trkpt lat="44.19114210813498" lon="10.951742169817384"><ele>423.6666666666667</ele><time>2026-05-02T12:47:53.999Z</time></trkpt><trkpt lat="44.19114808149422" lon="10.95197017525347"><ele>423.33333333333337</ele><time>2026-05-02T12:47:54.999Z</time></trkpt><trkpt lat="44.19116047907992" lon="10.95217989590698"><ele>423.0</ele><time>2026-05-02T12:47:55.999Z</time></trkpt><trkpt lat="44.19117506104315" lon="10.952367726501464"><ele>423.0</ele><time>2026-05-02T12:47:56.999Z</time></trkpt><trkpt lat="44.191195923710076" lon="10.952536549067231"><ele>423.0</ele><time>2026-05-02T12:47:57.999Z</time></trkpt><trkpt lat="44.19124234173224" lon="10.952681856097048"><ele>423.0</ele><time>2026-05-02T12:47:58.999Z</time></trkpt><trkpt lat="44.19132050453911" lon="10.952788250319484"><ele>423.0</ele><time>2026-05-02T12:47:59.999Z</time></trkpt><trkpt lat="44.19142527416614" lon="10.952825112906357"><ele>421.25</ele><time>2026-05-02T12:48:00.999Z</time></trkpt><trkpt lat="44.191554295603765" lon="10.952806374412072"><ele>419.5</ele><time>2026-05-02T12:48:01.999Z</time></trkpt><trkpt lat="44.191705679129726" lon="10.95272847907361"><ele>417.75</ele><time>2026-05-02T12:48:02.999Z</time></trkpt><trkpt lat="44.191846080580255" lon="10.952650311834477"><ele>416.0</ele><time>2026-05-02T12:48:03.999Z</time></trkpt><trkpt lat="44.19197476736019" lon="10.952572764472043"><ele>418.0</ele><time>2026-05-02T12:48:04.999Z</time></trkpt><trkpt lat="44.19209257891896" lon="10.952499421101608"><ele>420.0</ele><time>2026-05-02T12:48:05.999Z</time></trkpt><trkpt lat="44.19219425969276" lon="10.952424640483974"><ele>422.0</ele><time>2026-05-02T12:48:06.999Z</time></trkpt><trkpt lat="44.192280869613974" lon="10.952361686003718"><ele>424.0</ele><time>2026-05-02T12:48:07.999Z</time></trkpt><trkpt lat="44.19234774422736" lon="10.95232846348563"><ele>426.0</ele><time>2026-05-02T12:48:08.999Z</time></trkpt><trkpt lat="44.192450230365715" lon="10.952373621706462"><ele>426.0</ele><time>2026-05-02T12:48:10.999Z</time></trkpt><trkpt lat="44.19244191424997" lon="10.952527807778973"><ele>426.0</ele><time>2026-05-02T12:48:12.999Z</time></trkpt><trkpt lat="44.19236032111092" lon="10.952593460944598"><ele>426.0</ele><time>2026-05-02T12:48:13.999Z</time></trkpt><trkpt lat="44.19224133510138" lon="10.952594768476338"><ele>426.0</ele><time>2026-05-02T12:48:14.999Z</time></trkpt><trkpt lat="44.19209917757264" lon="10.952624837594211"><ele>422.66666666666663</ele><time>2026-05-02T12:48:15.999Z</time></trkpt><trkpt lat="44.19196407081256" lon="10.952732826469456"><ele>419.3333333333333</ele><time>2026-05-02T12:48:16.999Z</time></trkpt><trkpt lat="44.19182071991932" lon="10.952854561976675"><ele>416.0</ele><time>2026-05-02T12:48:17.999Z</time></trkpt><trkpt lat="44.1916760478527" lon="10.952932004447215"><ele>416.0</ele><time>2026-05-02T12:48:18.999Z</time></trkpt><trkpt lat="44.19154392946836" lon="10.953001146136755"><ele>416.0</ele><time>2026-05-02T12:48:19.999Z</time></trkpt><trkpt lat="44.191423683714845" lon="10.953081545622185"><ele>416.0</ele><time>2026-05-02T12:48:20.999Z</time></trkpt><trkpt lat="44.191305892718326" lon="10.95315101434047"><ele>416.0</ele><time>2026-05-02T12:48:21.999Z</time></trkpt><trkpt lat="44.191194281353134" lon="10.953214953637596"><ele>416.0</ele><time>2026-05-02T12:48:22.999Z</time></trkpt><trkpt lat="44.19108608206752" lon="10.953279674948591"><ele>416.0</ele><time>2026-05-02T12:48:23.999Z</time></trkpt><trkpt lat="44.19097370703464" lon="10.953335839775287"><ele>416.0</ele><time>2026-05-02T12:48:24.999Z</time></trkpt><trkpt lat="44.19084615533799" lon="10.953361312020936"><ele>416.0</ele><time>2026-05-02T12:48:25.999Z</time></trkpt><trkpt lat="44.19072551258853" lon="10.953340841690581"><ele>414.49999999999994</ele><time>2026-05-02T12:48:26.999Z</time></trkpt><trkpt lat="44.190621032604646" lon="10.953323362065735"><ele>413.0</ele><time>2026-05-02T12:48:27.999Z</time></trkpt><trkpt lat="44.19052276253728" lon="10.95330246240399"><ele>411.5</ele><time>2026-05-02T12:48:28.999Z</time></trkpt><trkpt lat="44.19044574560802" lon="10.953267884251549"><ele>410.0</ele><time>2026-05-02T12:48:29.999Z</time></trkpt><trkpt lat="44.19037747137362" lon="10.953251565610117"><ele>408.49999999999994</ele><time>2026-05-02T12:48:30.999Z</time></trkpt><trkpt lat="44.19030931253568" lon="10.95320863118209"><ele>407.0</ele><time>2026-05-02T12:48:32.999Z</time></trkpt><trkpt lat="44.190241513071506" lon="10.953205098171805"><ele>407.0</ele><time>2026-05-02T12:48:34.999Z</time></trkpt><trkpt lat="44.19016328988738" lon="10.953219247869596"><ele>407.0</ele><time>2026-05-02T12:48:36.999Z</time></trkpt><trkpt lat="44.190161421375436" lon="10.953375604717946"><ele>407.0</ele><time>2026-05-02T12:48:38.999Z</time></trkpt><trkpt lat="44.1902310782812" lon="10.953464247375486"><ele>407.0</ele><time>2026-05-02T12:48:39.999Z</time></trkpt><trkpt lat="44.19032601956011" lon="10.953536668988367"><ele>407.0</ele><time>2026-05-02T12:48:40.999Z</time></trkpt><trkpt lat="44.19044180271187" lon="10.953592541553117"><ele>406.3333333333333</ele><time>2026-05-02T12:48:41.999Z</time></trkpt><trkpt lat="44.19057787450726" lon="10.95365552410439"><ele>405.66666666666663</ele><time>2026-05-02T12:48:42.999Z</time></trkpt><trkpt lat="44.19072923243315" lon="10.95372176614953"><ele>405.0</ele><time>2026-05-02T12:48:43.999Z</time></trkpt><trkpt lat="44.19087589889345" lon="10.953761125137685"><ele>405.0</ele><time>2026-05-02T12:48:44.999Z</time></trkpt><trkpt lat="44.19101532110075" lon="10.95374973067286"><ele>405.0</ele><time>2026-05-02T12:48:45.999Z</time></trkpt><trkpt lat="44.191135720208706" lon="10.953709414644369"><ele>405.0</ele><time>2026-05-02T12:48:46.999Z</time></trkpt><trkpt lat="44.19123741187714" lon="10.953706874860186"><ele>405.0</ele><time>2026-05-02T12:48:47.999Z</time></trkpt><trkpt lat="44.191319818289564" lon="10.953746674758577"><ele>405.0</ele><time>2026-05-02T12:48:48.999Z</time></trkpt><trkpt lat="44.191365357487655" lon="10.953830605723835"><ele>405.0</ele><time>2026-05-02T12:48:49.999Z</time></trkpt><trkpt lat="44.19136352696164" lon="10.953935093570927"><ele>405.0</ele><time>2026-05-02T12:48:50.999Z</time></trkpt><trkpt lat="44.19130954242376" lon="10.954022194063862"><ele>405.0</ele><time>2026-05-02T12:48:51.999Z</time></trkpt><trkpt lat="44.191191982056225" lon="10.954058336552363"><ele>405.0</ele><time>2026-05-02T12:48:52.999Z</time></trkpt><trkpt lat="44.1910425803378" lon="10.954118165251243"><ele>402.33333333333337</ele><time>2026-05-02T12:48:53.999Z</time></trkpt><trkpt lat="44.190859431380346" lon="10.954211107866843"><ele>399.6666666666667</ele><time>2026-05-02T12:48:54.999Z</time></trkpt><trkpt lat="44.19068854009452" lon="10.954255000769074"><ele>397.0</ele><time>2026-05-02T12:48:55.999Z</time></trkpt><trkpt lat="44.19053957887262" lon="10.954266596994483"><ele>395.75</ele><time>2026-05-02T12:48:56.999Z</time></trkpt><trkpt lat="44.190411312589944" lon="10.95427720345643"><ele>394.5</ele><time>2026-05-02T12:48:57.999Z</time></trkpt><trkpt lat="44.19029599663161" lon="10.954339588967288"><ele>393.25</ele><time>2026-05-02T12:48:58.999Z</time></trkpt><trkpt lat="44.19021269065269" lon="10.954451774172778"><ele>392.0</ele><time>2026-05-02T12:48:59.999Z</time></trkpt><trkpt lat="44.19013810943487" lon="10.95460642180055"><ele>392.0</ele><time>2026-05-02T12:49:00.999Z</time></trkpt><trkpt lat="44.19013616101477" lon="10.95483356951512"><ele>392.0</ele><time>2026-05-02T12:49:01.999Z</time></trkpt><trkpt lat="44.190144924231376" lon="10.955090197883756"><ele>392.0</ele><time>2026-05-02T12:49:02.999Z</time></trkpt><trkpt lat="44.1901688333991" lon="10.955383176781213"><ele>392.3333333333333</ele><time>2026-05-02T12:49:03.999Z</time></trkpt><trkpt lat="44.19021296886491" lon="10.955685413377761"><ele>392.66666666666663</ele><time>2026-05-02T12:49:04.999Z</time></trkpt><trkpt lat="44.1902670010846" lon="10.955933367403256"><ele>393.0</ele><time>2026-05-02T12:49:05.999Z</time></trkpt><trkpt lat="44.19030449706787" lon="10.956130102139237"><ele>393.0</ele><time>2026-05-02T12:49:06.999Z</time></trkpt><trkpt lat="44.19029995266657" lon="10.956302173305712"><ele>393.0</ele><time>2026-05-02T12:49:07.999Z</time></trkpt><trkpt lat="44.19024840391999" lon="10.956456519866776"><ele>393.0</ele><time>2026-05-02T12:49:08.999Z</time></trkpt><trkpt lat="44.190131316915355" lon="10.956596118195781"><ele>393.0</ele><time>2026-05-02T12:49:09.999Z</time></trkpt><trkpt lat="44.189984095795445" lon="10.956763854937773"><ele>391.5</ele><time>2026-05-02T12:49:10.999Z</time></trkpt><trkpt lat="44.189812935449744" lon="10.956962631210978"><ele>390.0</ele><time>2026-05-02T12:49:11.999Z</time></trkpt><trkpt lat="44.18964596188906" lon="10.957176826825133"><ele>390.0</ele><time>2026-05-02T12:49:12.999Z</time></trkpt><trkpt lat="44.18948151239422" lon="10.95732225896823"><ele>390.0</ele><time>2026-05-02T12:49:13.999Z</time></trkpt><trkpt lat="44.18929969337032" lon="10.957432591055284"><ele>390.0</ele><time>2026-05-02T12:49:14.999Z</time></trkpt><trkpt lat="44.18909550658999" lon="10.957510212288602"><ele>387.3333333333333</ele><time>2026-05-02T12:49:15.999Z</time></trkpt><trkpt lat="44.18891383092365" lon="10.957622079710077"><ele>384.66666666666663</ele><time>2026-05-02T12:49:16.999Z</time></trkpt><trkpt lat="44.188774367736194" lon="10.957750834501214"><ele>382.0</ele><time>2026-05-02T12:49:17.999Z</time></trkpt><trkpt lat="44.188667023370456" lon="10.957869595483919"><ele>382.0</ele><time>2026-05-02T12:49:18.999Z</time></trkpt><trkpt lat="44.18859751789898" lon="10.958002936396365"><ele>382.0</ele><time>2026-05-02T12:49:19.999Z</time></trkpt><trkpt lat="44.188564955590834" lon="10.958166817091412"><ele>382.0</ele><time>2026-05-02T12:49:20.999Z</time></trkpt><trkpt lat="44.18857884291677" lon="10.958343233259557"><ele>382.0</ele><time>2026-05-02T12:49:21.999Z</time></trkpt><trkpt lat="44.188639324508195" lon="10.958506601640888"><ele>384.0</ele><time>2026-05-02T12:49:22.999Z</time></trkpt><trkpt lat="44.1887522777477" lon="10.958647261234214"><ele>386.0</ele><time>2026-05-02T12:49:23.999Z</time></trkpt><trkpt lat="44.18890190831327" lon="10.95878621645155"><ele>388.0</ele><time>2026-05-02T12:49:24.999Z</time></trkpt><trkpt lat="44.18907073101967" lon="10.958956113410627"><ele>388.0</ele><time>2026-05-02T12:49:25.999Z</time></trkpt><trkpt lat="44.189250061492004" lon="10.959156577760007"><ele>388.0</ele><time>2026-05-02T12:49:26.999Z</time></trkpt><trkpt lat="44.18941508983504" lon="10.959347141126582"><ele>388.0</ele><time>2026-05-02T12:49:27.999Z</time></trkpt><trkpt lat="44.189565325475236" lon="10.959535470508332"><ele>387.33333333333337</ele><time>2026-05-02T12:49:28.999Z</time></trkpt><trkpt lat="44.189694560298804" lon="10.95973535578579"><ele>386.66666666666663</ele><time>2026-05-02T12:49:29.999Z</time></trkpt><trkpt lat="44.189799763197385" lon="10.959942575087924"><ele>386.0</ele><time>2026-05-02T12:49:30.999Z</time></trkpt><trkpt lat="44.18988314191061" lon="10.960158117304028"><ele>386.0</ele><time>2026-05-02T12:49:31.999Z</time></trkpt><trkpt lat="44.1899456975248" lon="10.960384716664993"><ele>386.0</ele><time>2026-05-02T12:49:32.999Z</time></trkpt><trkpt lat="44.1899941658494" lon="10.960623576134761"><ele>386.0</ele><time>2026-05-02T12:49:33.999Z</time></trkpt><trkpt lat="44.19002936135057" lon="10.960857641275457"><ele>386.75</ele><time>2026-05-02T12:49:34.999Z</time></trkpt><trkpt lat="44.19003362054599" lon="10.961056835689348"><ele>387.5</ele><time>2026-05-02T12:49:35.999Z</time></trkpt><trkpt lat="44.190009866890385" lon="10.961235594022702"><ele>388.25</ele><time>2026-05-02T12:49:36.999Z</time></trkpt><trkpt lat="44.18995157711376" lon="10.961387842467422"><ele>389.0</ele><time>2026-05-02T12:49:37.999Z</time></trkpt><trkpt lat="44.18986645624893" lon="10.961497164932789"><ele>388.5</ele><time>2026-05-02T12:49:38.999Z</time></trkpt><trkpt lat="44.1897564429176" lon="10.961555401366383"><ele>388.0</ele><time>2026-05-02T12:49:39.999Z</time></trkpt><trkpt lat="44.18962524310229" lon="10.9615033395316"><ele>387.5</ele><time>2026-05-02T12:49:40.999Z</time></trkpt><trkpt lat="44.18947677292216" lon="10.961450562268583"><ele>387.0</ele><time>2026-05-02T12:49:41.999Z</time></trkpt><trkpt lat="44.189312127870075" lon="10.961385391675739"><ele>387.0</ele><time>2026-05-02T12:49:42.999Z</time></trkpt><trkpt lat="44.18915247469154" lon="10.961288851802879"><ele>387.0</ele><time>2026-05-02T12:49:44Z</time></trkpt><trkpt lat="44.189043391829536" lon="10.96113017735153"><ele>387.0</ele><time>2026-05-02T12:49:45Z</time></trkpt><trkpt lat="44.18893353119079" lon="10.960997952284934"><ele>386.5</ele><time>2026-05-02T12:49:46Z</time></trkpt><trkpt lat="44.18880628723022" lon="10.960917242342633"><ele>386.0</ele><time>2026-05-02T12:49:47Z</time></trkpt><trkpt lat="44.18866576525391" lon="10.960918983918233"><ele>385.5</ele><time>2026-05-02T12:49:48Z</time></trkpt><trkpt lat="44.188521395574554" lon="10.960964454535947"><ele>385.0</ele><time>2026-05-02T12:49:49Z</time></trkpt><trkpt lat="44.18837285432606" lon="10.961052505594356"><ele>385.0</ele><time>2026-05-02T12:49:50Z</time></trkpt><trkpt lat="44.188218038621216" lon="10.961162518576948"><ele>385.0</ele><time>2026-05-02T12:49:51Z</time></trkpt><trkpt lat="44.18806016275137" lon="10.961291987918283"><ele>385.0</ele><time>2026-05-02T12:49:52Z</time></trkpt><trkpt lat="44.18791093704694" lon="10.96144432093937"><ele>382.0</ele><time>2026-05-02T12:49:53Z</time></trkpt><trkpt lat="44.18778684095775" lon="10.961609210082509"><ele>379.0</ele><time>2026-05-02T12:49:54Z</time></trkpt><trkpt lat="44.18767578224328" lon="10.961793297448152"><ele>376.0</ele><time>2026-05-02T12:49:55Z</time></trkpt><trkpt lat="44.18757095021031" lon="10.96200292555096"><ele>376.0</ele><time>2026-05-02T12:49:56Z</time></trkpt><trkpt lat="44.18747616747963" lon="10.96224021965475"><ele>376.0</ele><time>2026-05-02T12:49:57Z</time></trkpt><trkpt lat="44.1873915744819" lon="10.962515251737939"><ele>376.0</ele><time>2026-05-02T12:49:58Z</time></trkpt><trkpt lat="44.18731605346546" lon="10.962821714493902"><ele>371.0</ele><time>2026-05-02T12:49:59Z</time></trkpt><trkpt lat="44.187246640138305" lon="10.963142784398327"><ele>366.0</ele><time>2026-05-02T12:50:00Z</time></trkpt><trkpt lat="44.18717460546001" lon="10.963460441980617"><ele>366.0</ele><time>2026-05-02T12:50:01Z</time></trkpt><trkpt lat="44.18709630927666" lon="10.963768916588002"><ele>366.0</ele><time>2026-05-02T12:50:02Z</time></trkpt><trkpt lat="44.18702357872096" lon="10.964068304852063"><ele>366.6666666666667</ele><time>2026-05-02T12:50:03Z</time></trkpt><trkpt lat="44.186960495952995" lon="10.964356207253552"><ele>367.33333333333337</ele><time>2026-05-02T12:50:04Z</time></trkpt><trkpt lat="44.1869012612931" lon="10.964627968648653"><ele>368.0</ele><time>2026-05-02T12:50:05Z</time></trkpt><trkpt lat="44.186842725814934" lon="10.964883624894126"><ele>368.6666666666667</ele><time>2026-05-02T12:50:06Z</time></trkpt><trkpt lat="44.18678312056426" lon="10.96512888437713"><ele>369.3333333333333</ele><time>2026-05-02T12:50:07Z</time></trkpt><trkpt lat="44.186724698122845" lon="10.965376026711755"><ele>370.0</ele><time>2026-05-02T12:50:08Z</time></trkpt><trkpt lat="44.18667433587624" lon="10.965629305710976"><ele>371.3333333333333</ele><time>2026-05-02T12:50:09Z</time></trkpt><trkpt lat="44.18662132963913" lon="10.965883875626302"><ele>372.6666666666667</ele><time>2026-05-02T12:50:10Z</time></trkpt><trkpt lat="44.18655220089367" lon="10.966123003350454"><ele>374.0</ele><time>2026-05-02T12:50:11Z</time></trkpt><trkpt lat="44.186468275515345" lon="10.966338023515036"><ele>372.6666666666667</ele><time>2026-05-02T12:50:12Z</time></trkpt><trkpt lat="44.18636194452695" lon="10.966502685284961"><ele>371.3333333333333</ele><time>2026-05-02T12:50:13Z</time></trkpt><trkpt lat="44.18622376712531" lon="10.966618978109901"><ele>370.0</ele><time>2026-05-02T12:50:14Z</time></trkpt><trkpt lat="44.186048728808686" lon="10.966702759078622"><ele>370.0</ele><time>2026-05-02T12:50:15Z</time></trkpt><trkpt lat="44.1858633946729" lon="10.966773940799724"><ele>370.0</ele><time>2026-05-02T12:50:16Z</time></trkpt><trkpt lat="44.185704579954844" lon="10.966884159461838"><ele>370.0</ele><time>2026-05-02T12:50:17Z</time></trkpt><trkpt lat="44.18556355817857" lon="10.967010954842282"><ele>366.0</ele><time>2026-05-02T12:50:18Z</time></trkpt><trkpt lat="44.1854339845236" lon="10.9671482665466"><ele>362.0</ele><time>2026-05-02T12:50:19Z</time></trkpt><trkpt lat="44.18528915182583" lon="10.967261052277934"><ele>358.0</ele><time>2026-05-02T12:50:20Z</time></trkpt><trkpt lat="44.18513513563948" lon="10.967366157629774"><ele>358.0</ele><time>2026-05-02T12:50:21Z</time></trkpt><trkpt lat="44.184968630778926" lon="10.967461758882559"><ele>358.0</ele><time>2026-05-02T12:50:22Z</time></trkpt><trkpt lat="44.1847937227061" lon="10.96755372242984"><ele>358.0</ele><time>2026-05-02T12:50:23Z</time></trkpt><trkpt lat="44.18462963647351" lon="10.967656068700485"><ele>356.66666666666663</ele><time>2026-05-02T12:50:24Z</time></trkpt><trkpt lat="44.18448441079927" lon="10.967786065162091"><ele>355.3333333333333</ele><time>2026-05-02T12:50:25Z</time></trkpt><trkpt lat="44.184351218761954" lon="10.96795457737077"><ele>354.0</ele><time>2026-05-02T12:50:25.999Z</time></trkpt><trkpt lat="44.184223166348694" lon="10.968153245267022"><ele>356.3333333333333</ele><time>2026-05-02T12:50:26.999Z</time></trkpt><trkpt lat="44.18411091489025" lon="10.968397457105596"><ele>358.66666666666663</ele><time>2026-05-02T12:50:27.999Z</time></trkpt><trkpt lat="44.18400472605731" lon="10.968677320942174"><ele>361.0</ele><time>2026-05-02T12:50:28.999Z</time></trkpt><trkpt lat="44.18387682911569" lon="10.968935998658468"><ele>354.66666666666663</ele><time>2026-05-02T12:50:29.999Z</time></trkpt><trkpt lat="44.183763039832364" lon="10.96919700425255"><ele>348.3333333333333</ele><time>2026-05-02T12:50:30.999Z</time></trkpt><trkpt lat="44.183671982843045" lon="10.969457141286846"><ele>342.0</ele><time>2026-05-02T12:50:31.999Z</time></trkpt><trkpt lat="44.18358419969321" lon="10.96970159120541"><ele>342.0</ele><time>2026-05-02T12:50:32.999Z</time></trkpt><trkpt lat="44.183519009875965" lon="10.96994641873878"><ele>342.0</ele><time>2026-05-02T12:50:33.999Z</time></trkpt><trkpt lat="44.18346933610811" lon="10.970186761976317"><ele>342.0</ele><time>2026-05-02T12:50:34.999Z</time></trkpt><trkpt lat="44.18343294273023" lon="10.970429986754878"><ele>342.3333333333333</ele><time>2026-05-02T12:50:35.999Z</time></trkpt><trkpt lat="44.18338954225613" lon="10.970692825599603"><ele>342.66666666666663</ele><time>2026-05-02T12:50:36.999Z</time></trkpt><trkpt lat="44.18335915041096" lon="10.970985562526918"><ele>343.0</ele><time>2026-05-02T12:50:37.999Z</time></trkpt><trkpt lat="44.18332987601575" lon="10.971303783743952"><ele>343.0</ele><time>2026-05-02T12:50:38.999Z</time></trkpt><trkpt lat="44.183318803307465" lon="10.971622121292823"><ele>343.0</ele><time>2026-05-02T12:50:39.999Z</time></trkpt><trkpt lat="44.18331890583105" lon="10.971922852980873"><ele>343.0</ele><time>2026-05-02T12:50:40.999Z</time></trkpt><trkpt lat="44.183272942013495" lon="10.972202985032341"><ele>342.3333333333333</ele><time>2026-05-02T12:50:41.999Z</time></trkpt><trkpt lat="44.18318313294852" lon="10.972451126363458"><ele>341.6666666666667</ele><time>2026-05-02T12:50:42.999Z</time></trkpt><trkpt lat="44.1831007729121" lon="10.972691219354989"><ele>341.0</ele><time>2026-05-02T12:50:43.999Z</time></trkpt><trkpt lat="44.18302227697971" lon="10.972920047943607"><ele>338.6666666666667</ele><time>2026-05-02T12:50:44.999Z</time></trkpt><trkpt lat="44.182945957420145" lon="10.97314253209163"><ele>336.3333333333333</ele><time>2026-05-02T12:50:45.999Z</time></trkpt><trkpt lat="44.18287042969683" lon="10.973363182116787"><ele>334.0</ele><time>2026-05-02T12:50:46.999Z</time></trkpt><trkpt lat="44.182795104857625" lon="10.973583257940483"><ele>334.0</ele><time>2026-05-02T12:50:47.999Z</time></trkpt><trkpt lat="44.18272072683961" lon="10.973800567485524"><ele>334.0</ele><time>2026-05-02T12:50:48.999Z</time></trkpt><trkpt lat="44.18265113003462" lon="10.974003468560719"><ele>334.0</ele><time>2026-05-02T12:50:49.999Z</time></trkpt><trkpt lat="44.18259907132168" lon="10.974208852661262"><ele>334.3333333333333</ele><time>2026-05-02T12:50:50.999Z</time></trkpt><trkpt lat="44.18253174099173" lon="10.97439668494817"><ele>334.6666666666667</ele><time>2026-05-02T12:50:51.999Z</time></trkpt><trkpt lat="44.1824670809656" lon="10.974585368230846"><ele>335.0</ele><time>2026-05-02T12:50:52.999Z</time></trkpt><trkpt lat="44.18240237339257" lon="10.97477616118053"><ele>333.5</ele><time>2026-05-02T12:50:53.999Z</time></trkpt><trkpt lat="44.18232399160373" lon="10.974955236089867"><ele>332.0</ele><time>2026-05-02T12:50:54.999Z</time></trkpt><trkpt lat="44.182260960955375" lon="10.975140251837287"><ele>330.5</ele><time>2026-05-02T12:50:55.999Z</time></trkpt><trkpt lat="44.18220195115642" lon="10.975313416875201"><ele>329.0</ele><time>2026-05-02T12:50:56.999Z</time></trkpt><trkpt lat="44.18214659927108" lon="10.975474977212485"><ele>329.0</ele><time>2026-05-02T12:50:57.999Z</time></trkpt><trkpt lat="44.182092286494175" lon="10.97563268019746"><ele>329.0</ele><time>2026-05-02T12:50:58.999Z</time></trkpt><trkpt lat="44.18203638593287" lon="10.975794993647925"><ele>329.0</ele><time>2026-05-02T12:50:59.999Z</time></trkpt><trkpt lat="44.18199455714238" lon="10.975969628577893"><ele>329.0</ele><time>2026-05-02T12:51:00.999Z</time></trkpt><trkpt lat="44.18194322301589" lon="10.976124075686664"><ele>329.5</ele><time>2026-05-02T12:51:01.999Z</time></trkpt><trkpt lat="44.18189378259075" lon="10.976277239372044"><ele>330.0</ele><time>2026-05-02T12:51:02.999Z</time></trkpt><trkpt lat="44.18184070600551" lon="10.976433823405445"><ele>330.5</ele><time>2026-05-02T12:51:03.999Z</time></trkpt><trkpt lat="44.18178363251145" lon="10.976597019079657"><ele>331.0</ele><time>2026-05-02T12:51:04.999Z</time></trkpt><trkpt lat="44.18171170959385" lon="10.976743191832233"><ele>331.25</ele><time>2026-05-02T12:51:05.999Z</time></trkpt><trkpt lat="44.18166099384048" lon="10.976888971743923"><ele>331.5</ele><time>2026-05-02T12:51:06.999Z</time></trkpt><trkpt lat="44.181610296552094" lon="10.977036645348647"><ele>331.75</ele><time>2026-05-02T12:51:07.999Z</time></trkpt><trkpt lat="44.18155691964374" lon="10.977192470816348"><ele>332.0</ele><time>2026-05-02T12:51:08.999Z</time></trkpt><trkpt lat="44.181493490965494" lon="10.977377640522102"><ele>331.0</ele><time>2026-05-02T12:51:09.999Z</time></trkpt><trkpt lat="44.181419752899046" lon="10.9775929107505"><ele>330.0</ele><time>2026-05-02T12:51:10.999Z</time></trkpt><trkpt lat="44.18137519970626" lon="10.977846306047093"><ele>329.0</ele><time>2026-05-02T12:51:11.999Z</time></trkpt><trkpt lat="44.18129725907095" lon="10.978079415418565"><ele>329.0</ele><time>2026-05-02T12:51:12.999Z</time></trkpt><trkpt lat="44.18121852685147" lon="10.978305902890007"><ele>329.0</ele><time>2026-05-02T12:51:13.999Z</time></trkpt><trkpt lat="44.181138821095225" lon="10.978519733932536"><ele>329.0</ele><time>2026-05-02T12:51:14.999Z</time></trkpt><trkpt lat="44.181036684308225" lon="10.978712659126769"><ele>330.0</ele><time>2026-05-02T12:51:15.999Z</time></trkpt><trkpt lat="44.180976338915485" lon="10.978921161452325"><ele>331.0</ele><time>2026-05-02T12:51:16.999Z</time></trkpt><trkpt lat="44.18088833436486" lon="10.979097826130218"><ele>332.0</ele><time>2026-05-02T12:51:17.999Z</time></trkpt><trkpt lat="44.1807950376457" lon="10.979262795715288"><ele>332.0</ele><time>2026-05-02T12:51:18.999Z</time></trkpt><trkpt lat="44.18071079381914" lon="10.979416618420462"><ele>332.0</ele><time>2026-05-02T12:51:19.999Z</time></trkpt><trkpt lat="44.180629767162024" lon="10.979555790828115"><ele>332.0</ele><time>2026-05-02T12:51:20.999Z</time></trkpt><trkpt lat="44.180549891290696" lon="10.979681457407994"><ele>332.0</ele><time>2026-05-02T12:51:21.999Z</time></trkpt><trkpt lat="44.18047546940953" lon="10.979797535226218"><ele>331.5</ele><time>2026-05-02T12:51:22.999Z</time></trkpt><trkpt lat="44.1804051943056" lon="10.979902879353915"><ele>331.0</ele><time>2026-05-02T12:51:23.999Z</time></trkpt><trkpt lat="44.1803397070853" lon="10.980000596137637"><ele>330.5</ele><time>2026-05-02T12:51:24.999Z</time></trkpt><trkpt lat="44.18027903727689" lon="10.980087886930571"><ele>330.0</ele><time>2026-05-02T12:51:25.999Z</time></trkpt><trkpt lat="44.1802284860225" lon="10.98016544851412"><ele>329.5</ele><time>2026-05-02T12:51:27.999Z</time></trkpt><trkpt lat="44.180182066039826" lon="10.980248541008942"><ele>329.0</ele><time>2026-05-02T12:52:21Z</time></trkpt><trkpt lat="44.18010544877707" lon="10.980295537435909"><ele>328.25</ele><time>2026-05-02T12:52:23Z</time></trkpt><trkpt lat="44.18001774739269" lon="10.980173849178378"><ele>327.5</ele><time>2026-05-02T12:52:24Z</time></trkpt><trkpt lat="44.17994077243298" lon="10.980067810539042"><ele>326.75</ele><time>2026-05-02T12:52:25Z</time></trkpt><trkpt lat="44.17984033663547" lon="10.979949924016829"><ele>326.0</ele><time>2026-05-02T12:52:26Z</time></trkpt><trkpt lat="44.179726338866786" lon="10.979813527381118"><ele>325.0</ele><time>2026-05-02T12:52:27Z</time></trkpt><trkpt lat="44.17960214094495" lon="10.979668410680553"><ele>324.0</ele><time>2026-05-02T12:52:28Z</time></trkpt><trkpt lat="44.17947283027492" lon="10.979516180196848"><ele>323.0</ele><time>2026-05-02T12:52:29Z</time></trkpt><trkpt lat="44.17933925486832" lon="10.979343552570741"><ele>323.0</ele><time>2026-05-02T12:52:30Z</time></trkpt><trkpt lat="44.17920845738175" lon="10.979178116329175"><ele>323.0</ele><time>2026-05-02T12:52:31Z</time></trkpt><trkpt lat="44.17908531238556" lon="10.979025809666298"><ele>323.0</ele><time>2026-05-02T12:52:32Z</time></trkpt><trkpt lat="44.178965468787595" lon="10.97888435751153"><ele>324.0</ele><time>2026-05-02T12:52:33Z</time></trkpt><trkpt lat="44.178850660508964" lon="10.97875508439576"><ele>325.0</ele><time>2026-05-02T12:52:34Z</time></trkpt><trkpt lat="44.17873475851716" lon="10.978651298788806"><ele>326.0</ele><time>2026-05-02T12:52:35Z</time></trkpt><trkpt lat="44.17861041239016" lon="10.978596168091936"><ele>327.0</ele><time>2026-05-02T12:52:36Z</time></trkpt><trkpt lat="44.17847399333135" lon="10.97858222604234"><ele>327.0</ele><time>2026-05-02T12:52:37Z</time></trkpt><trkpt lat="44.178343008582786" lon="10.978605905452332"><ele>327.0</ele><time>2026-05-02T12:52:38Z</time></trkpt><trkpt lat="44.178202403791346" lon="10.978633691796974"><ele>327.0</ele><time>2026-05-02T12:52:39Z</time></trkpt><trkpt lat="44.1780517262833" lon="10.978658553772181"><ele>327.0</ele><time>2026-05-02T12:52:40Z</time></trkpt><trkpt lat="44.17790834818354" lon="10.978677616083761"><ele>326.75</ele><time>2026-05-02T12:52:41Z</time></trkpt><trkpt lat="44.17777347754342" lon="10.978698706222888"><ele>326.5</ele><time>2026-05-02T12:52:42Z</time></trkpt><trkpt lat="44.177640490843395" lon="10.978718623356535"><ele>326.25</ele><time>2026-05-02T12:52:43Z</time></trkpt><trkpt lat="44.17750466122871" lon="10.978737624094602"><ele>326.0</ele><time>2026-05-02T12:52:43.999Z</time></trkpt><trkpt lat="44.17736575966178" lon="10.978751657060961"><ele>326.0</ele><time>2026-05-02T12:52:44.999Z</time></trkpt><trkpt lat="44.17722484565898" lon="10.978742874684302"><ele>326.0</ele><time>2026-05-02T12:52:45.999Z</time></trkpt><trkpt lat="44.177072045805126" lon="10.978692075698797"><ele>326.0</ele><time>2026-05-02T12:52:46.999Z</time></trkpt><trkpt lat="44.17690578465889" lon="10.978610139755533"><ele>326.0</ele><time>2026-05-02T12:52:47.999Z</time></trkpt><trkpt lat="44.17672712434008" lon="10.978504276704951"><ele>326.0</ele><time>2026-05-02T12:52:48.999Z</time></trkpt><trkpt lat="44.17654827892993" lon="10.978389404395324"><ele>326.0</ele><time>2026-05-02T12:52:49.999Z</time></trkpt><trkpt lat="44.17637946129354" lon="10.978281886613575"><ele>328.0</ele><time>2026-05-02T12:52:50.999Z</time></trkpt><trkpt lat="44.176221514787116" lon="10.978202243365564"><ele>330.0</ele><time>2026-05-02T12:52:51.999Z</time></trkpt><trkpt lat="44.17606373810968" lon="10.978165156930446"><ele>332.0</ele><time>2026-05-02T12:52:52.999Z</time></trkpt><trkpt lat="44.175899176760424" lon="10.978166006155325"><ele>332.0</ele><time>2026-05-02T12:52:53.999Z</time></trkpt><trkpt lat="44.17573807202267" lon="10.978212141293655"><ele>332.0</ele><time>2026-05-02T12:52:54.999Z</time></trkpt><trkpt lat="44.175599002477114" lon="10.97826799889496"><ele>332.0</ele><time>2026-05-02T12:52:55.999Z</time></trkpt><trkpt lat="44.17546778616441" lon="10.978259420586754"><ele>332.0</ele><time>2026-05-02T12:52:56.999Z</time></trkpt><trkpt lat="44.17533991361112" lon="10.978216174615397"><ele>332.0</ele><time>2026-05-02T12:52:57.999Z</time></trkpt><trkpt lat="44.175193745886894" lon="10.97814699725756"><ele>332.0</ele><time>2026-05-02T12:52:58.999Z</time></trkpt><trkpt lat="44.17503314142147" lon="10.978059435762402"><ele>332.0</ele><time>2026-05-02T12:52:59.999Z</time></trkpt><trkpt lat="44.17486794547685" lon="10.97794124388234"><ele>332.0</ele><time>2026-05-02T12:53:00.999Z</time></trkpt><trkpt lat="44.17471565428829" lon="10.97779617543071"><ele>332.0</ele><time>2026-05-02T12:53:01.999Z</time></trkpt><trkpt lat="44.174574310911005" lon="10.977660298388791"><ele>332.0</ele><time>2026-05-02T12:53:02.999Z</time></trkpt><trkpt lat="44.17442582935545" lon="10.977566152065089"><ele>331.6666666666667</ele><time>2026-05-02T12:53:03.999Z</time></trkpt><trkpt lat="44.17426023498716" lon="10.97751848456369"><ele>331.3333333333333</ele><time>2026-05-02T12:53:04.999Z</time></trkpt><trkpt lat="44.17408367056514" lon="10.977512452323026"><ele>331.0</ele><time>2026-05-02T12:53:05.999Z</time></trkpt><trkpt lat="44.173914627103585" lon="10.977519613840297"><ele>333.3333333333333</ele><time>2026-05-02T12:53:06.999Z</time></trkpt><trkpt lat="44.17376568858684" lon="10.977471312745758"><ele>335.6666666666667</ele><time>2026-05-02T12:53:07.999Z</time></trkpt><trkpt lat="44.17361500980841" lon="10.977438804308806"><ele>338.0</ele><time>2026-05-02T12:53:08.999Z</time></trkpt><trkpt lat="44.173467485375554" lon="10.977350803162432"><ele>338.0</ele><time>2026-05-02T12:53:09.999Z</time></trkpt><trkpt lat="44.17333242885975" lon="10.977235426439451"><ele>338.0</ele><time>2026-05-02T12:53:10.999Z</time></trkpt><trkpt lat="44.173233168057024" lon="10.977082522228002"><ele>338.0</ele><time>2026-05-02T12:53:11.999Z</time></trkpt><trkpt lat="44.17317707759967" lon="10.976878509453469"><ele>339.25</ele><time>2026-05-02T12:53:12.999Z</time></trkpt><trkpt lat="44.17311249696814" lon="10.976667085409328"><ele>340.5</ele><time>2026-05-02T12:53:13.999Z</time></trkpt><trkpt lat="44.173078926619816" lon="10.976473062344871"><ele>341.75</ele><time>2026-05-02T12:53:14.999Z</time></trkpt><trkpt lat="44.173016653299385" lon="10.976317445814784"><ele>343.0</ele><time>2026-05-02T12:53:15.999Z</time></trkpt><trkpt lat="44.17292880235148" lon="10.976187371631793"><ele>343.0</ele><time>2026-05-02T12:53:16.999Z</time></trkpt><trkpt lat="44.17281757677397" lon="10.976102480752749"><ele>343.0</ele><time>2026-05-02T12:53:17.999Z</time></trkpt><trkpt lat="44.1726934041274" lon="10.976056217852982"><ele>343.0</ele><time>2026-05-02T12:53:18.999Z</time></trkpt><trkpt lat="44.1725762738443" lon="10.976016792546279"><ele>343.0</ele><time>2026-05-02T12:53:19.999Z</time></trkpt><trkpt lat="44.172470330044945" lon="10.975976522945759"><ele>343.0</ele><time>2026-05-02T12:53:20.999Z</time></trkpt><trkpt lat="44.17236838928226" lon="10.9759380874418"><ele>343.0</ele><time>2026-05-02T12:53:21.999Z</time></trkpt><trkpt lat="44.17227679923935" lon="10.975906654569744"><ele>343.0</ele><time>2026-05-02T12:53:22.999Z</time></trkpt><trkpt lat="44.17219362796305" lon="10.975885146688361"><ele>343.0</ele><time>2026-05-02T12:53:23.999Z</time></trkpt><trkpt lat="44.17210614277232" lon="10.975881738844574"><ele>343.0</ele><time>2026-05-02T12:53:24.999Z</time></trkpt><trkpt lat="44.17201324505289" lon="10.975922574668045"><ele>344.0</ele><time>2026-05-02T12:53:25.999Z</time></trkpt><trkpt lat="44.171922570418005" lon="10.975989899043876"><ele>345.0</ele><time>2026-05-02T12:53:26.999Z</time></trkpt><trkpt lat="44.17185794138672" lon="10.976064536549341"><ele>346.0</ele><time>2026-05-02T12:53:27.999Z</time></trkpt><trkpt lat="44.17180078988479" lon="10.97614578273086"><ele>347.0</ele><time>2026-05-02T12:53:28.999Z</time></trkpt><trkpt lat="44.17172915156345" lon="10.976230912278089"><ele>348.0</ele><time>2026-05-02T12:53:29.999Z</time></trkpt><trkpt lat="44.17165007561003" lon="10.97631761184681"><ele>348.0</ele><time>2026-05-02T12:53:30.999Z</time></trkpt><trkpt lat="44.171572093712385" lon="10.976399743164958"><ele>348.0</ele><time>2026-05-02T12:53:31.999Z</time></trkpt><trkpt lat="44.17149813655905" lon="10.976475984172076"><ele>348.0</ele><time>2026-05-02T12:53:32.999Z</time></trkpt><trkpt lat="44.17141153879125" lon="10.976554723730963"><ele>348.0</ele><time>2026-05-02T12:53:33.999Z</time></trkpt><trkpt lat="44.17131546361055" lon="10.97662299615266"><ele>348.0</ele><time>2026-05-02T12:53:34.999Z</time></trkpt><trkpt lat="44.171218085096775" lon="10.97666139740179"><ele>348.25</ele><time>2026-05-02T12:53:35.999Z</time></trkpt><trkpt lat="44.1711196937448" lon="10.976668107552237"><ele>348.5</ele><time>2026-05-02T12:53:36.999Z</time></trkpt><trkpt lat="44.17101577138387" lon="10.976645981143998"><ele>348.75</ele><time>2026-05-02T12:53:37.999Z</time></trkpt><trkpt lat="44.17091737107056" lon="10.976562777263018"><ele>349.0</ele><time>2026-05-02T12:53:38.999Z</time></trkpt><trkpt lat="44.170794493623596" lon="10.976478924197894"><ele>348.0</ele><time>2026-05-02T12:53:39.999Z</time></trkpt><trkpt lat="44.17065454083058" lon="10.976374535123597"><ele>347.0</ele><time>2026-05-02T12:53:40.999Z</time></trkpt><trkpt lat="44.1704990086935" lon="10.97625615717432"><ele>346.0</ele><time>2026-05-02T12:53:41.999Z</time></trkpt><trkpt lat="44.170329495845266" lon="10.976155172762866"><ele>346.0</ele><time>2026-05-02T12:53:42.999Z</time></trkpt><trkpt lat="44.17017308669863" lon="10.976018770027261"><ele>346.0</ele><time>2026-05-02T12:53:43.999Z</time></trkpt><trkpt lat="44.17002915778538" lon="10.975893843540417"><ele>346.0</ele><time>2026-05-02T12:53:44.999Z</time></trkpt><trkpt lat="44.169882067742364" lon="10.975772389105462"><ele>346.3333333333333</ele><time>2026-05-02T12:53:45.999Z</time></trkpt><trkpt lat="44.169727276803464" lon="10.975642267153962"><ele>346.6666666666667</ele><time>2026-05-02T12:53:46.999Z</time></trkpt><trkpt lat="44.16956408041832" lon="10.975507570095504"><ele>347.0</ele><time>2026-05-02T12:53:47.999Z</time></trkpt><trkpt lat="44.169394777858074" lon="10.975369232872623"><ele>347.0</ele><time>2026-05-02T12:53:48.999Z</time></trkpt><trkpt lat="44.169220866049244" lon="10.975223879961643"><ele>347.0</ele><time>2026-05-02T12:53:49.999Z</time></trkpt><trkpt lat="44.1690411515199" lon="10.975072027064387"><ele>347.0</ele><time>2026-05-02T12:53:50.999Z</time></trkpt><trkpt lat="44.16886315238609" lon="10.974922720811348"><ele>348.33333333333337</ele><time>2026-05-02T12:53:51.999Z</time></trkpt><trkpt lat="44.16869313416822" lon="10.974777405091462"><ele>349.6666666666667</ele><time>2026-05-02T12:53:52.999Z</time></trkpt><trkpt lat="44.16852981728596" lon="10.97463280414996"><ele>351.0</ele><time>2026-05-02T12:53:53.999Z</time></trkpt><trkpt lat="44.16837290119952" lon="10.974476724968358"><ele>351.0</ele><time>2026-05-02T12:53:55Z</time></trkpt><trkpt lat="44.16821714033426" lon="10.974308440303966"><ele>351.0</ele><time>2026-05-02T12:53:56Z</time></trkpt><trkpt lat="44.16805515017925" lon="10.974139229543287"><ele>351.0</ele><time>2026-05-02T12:53:57Z</time></trkpt><trkpt lat="44.167893464206955" lon="10.973982250950673"><ele>352.0</ele><time>2026-05-02T12:53:58Z</time></trkpt><trkpt lat="44.16773623365628" lon="10.973855620309397"><ele>353.0</ele><time>2026-05-02T12:53:59Z</time></trkpt><trkpt lat="44.167566157679964" lon="10.97376499483909"><ele>354.0</ele><time>2026-05-02T12:54:00Z</time></trkpt><trkpt lat="44.167390932000664" lon="10.97369667266315"><ele>350.3333333333333</ele><time>2026-05-02T12:54:01Z</time></trkpt><trkpt lat="44.16722428899974" lon="10.973634127534844"><ele>346.66666666666663</ele><time>2026-05-02T12:54:02Z</time></trkpt><trkpt lat="44.16706653125112" lon="10.973560546023684"><ele>343.0</ele><time>2026-05-02T12:54:03Z</time></trkpt><trkpt lat="44.166920082082974" lon="10.973464329814991"><ele>344.0</ele><time>2026-05-02T12:54:04Z</time></trkpt><trkpt lat="44.16678536414517" lon="10.97335101063297"><ele>345.0</ele><time>2026-05-02T12:54:05Z</time></trkpt><trkpt lat="44.16666705217305" lon="10.973222354983895"><ele>346.0</ele><time>2026-05-02T12:54:06Z</time></trkpt><trkpt lat="44.16658027518097" lon="10.973081105569715"><ele>347.0</ele><time>2026-05-02T12:54:07Z</time></trkpt><trkpt lat="44.166512743786164" lon="10.972927782279683"><ele>347.0</ele><time>2026-05-02T12:54:08Z</time></trkpt><trkpt lat="44.16646573337482" lon="10.972759542252938"><ele>347.0</ele><time>2026-05-02T12:54:09Z</time></trkpt><trkpt lat="44.16646992224045" lon="10.972556439624343"><ele>347.0</ele><time>2026-05-02T12:54:10Z</time></trkpt><trkpt lat="44.16644439858874" lon="10.972341688925807"><ele>347.0</ele><time>2026-05-02T12:54:11Z</time></trkpt><trkpt lat="44.166413454086346" lon="10.972145365198374"><ele>348.5</ele><time>2026-05-02T12:54:12Z</time></trkpt><trkpt lat="44.16636063414151" lon="10.97196425371205"><ele>350.0</ele><time>2026-05-02T12:54:13Z</time></trkpt><trkpt lat="44.16628871992991" lon="10.97180352293409"><ele>351.5</ele><time>2026-05-02T12:54:14Z</time></trkpt><trkpt lat="44.16620631155396" lon="10.97166576981097"><ele>353.0</ele><time>2026-05-02T12:54:15Z</time></trkpt><trkpt lat="44.1661187785584" lon="10.97154141233981"><ele>354.25</ele><time>2026-05-02T12:54:16Z</time></trkpt><trkpt lat="44.16602415159937" lon="10.971429621965981"><ele>355.5</ele><time>2026-05-02T12:54:17Z</time></trkpt><trkpt lat="44.16590981858054" lon="10.971349503610046"><ele>356.75</ele><time>2026-05-02T12:54:18Z</time></trkpt><trkpt lat="44.16578138524481" lon="10.97131679060905"><ele>358.0</ele><time>2026-05-02T12:54:19Z</time></trkpt><trkpt lat="44.16565877860783" lon="10.971316639044991"><ele>358.0</ele><time>2026-05-02T12:54:20Z</time></trkpt><trkpt lat="44.16553854290416" lon="10.971319171636523"><ele>358.0</ele><time>2026-05-02T12:54:21Z</time></trkpt><trkpt lat="44.16541869931932" lon="10.971315852462999"><ele>358.0</ele><time>2026-05-02T12:54:22Z</time></trkpt><trkpt lat="44.165294906595626" lon="10.971314000049393"><ele>358.0</ele><time>2026-05-02T12:54:23Z</time></trkpt><trkpt lat="44.16516660504943" lon="10.971309571364102"><ele>358.0</ele><time>2026-05-02T12:54:24Z</time></trkpt><trkpt lat="44.16503282804271" lon="10.971320553834275"><ele>358.0</ele><time>2026-05-02T12:54:25Z</time></trkpt><trkpt lat="44.164894269664394" lon="10.971359792593484"><ele>358.0</ele><time>2026-05-02T12:54:26Z</time></trkpt><trkpt lat="44.16474907681054" lon="10.971416459362297"><ele>358.0</ele><time>2026-05-02T12:54:27Z</time></trkpt><trkpt lat="44.164599495749705" lon="10.971481838979102"><ele>360.3333333333333</ele><time>2026-05-02T12:54:28Z</time></trkpt><trkpt lat="44.164449232677164" lon="10.971564106306163"><ele>362.6666666666667</ele><time>2026-05-02T12:54:29Z</time></trkpt><trkpt lat="44.16430462121227" lon="10.971677321851727"><ele>365.0</ele><time>2026-05-02T12:54:30Z</time></trkpt><trkpt lat="44.16418186152368" lon="10.971812818184079"><ele>361.5</ele><time>2026-05-02T12:54:31Z</time></trkpt><trkpt lat="44.164065907467204" lon="10.971937789489914"><ele>358.0</ele><time>2026-05-02T12:54:32Z</time></trkpt><trkpt lat="44.16394913630482" lon="10.972028518885203"><ele>354.5</ele><time>2026-05-02T12:54:33Z</time></trkpt><trkpt lat="44.16383285886973" lon="10.972065865061778"><ele>351.0</ele><time>2026-05-02T12:54:34Z</time></trkpt><trkpt lat="44.163718137066525" lon="10.972039312465387"><ele>351.0</ele><time>2026-05-02T12:54:35Z</time></trkpt><trkpt lat="44.163603490646466" lon="10.97194691830556"><ele>351.0</ele><time>2026-05-02T12:54:36Z</time></trkpt><trkpt lat="44.16347801744899" lon="10.971841909696796"><ele>351.0</ele><time>2026-05-02T12:54:37Z</time></trkpt><trkpt lat="44.163336145609215" lon="10.97175766401201"><ele>351.0</ele><time>2026-05-02T12:54:38Z</time></trkpt><trkpt lat="44.1631986335511" lon="10.9717611336727"><ele>351.5</ele><time>2026-05-02T12:54:39Z</time></trkpt><trkpt lat="44.16307132594634" lon="10.971753750316177"><ele>352.0</ele><time>2026-05-02T12:54:40Z</time></trkpt><trkpt lat="44.16294146745818" lon="10.971751814512496"><ele>352.5</ele><time>2026-05-02T12:54:41Z</time></trkpt><trkpt lat="44.162808635354295" lon="10.971749362190168"><ele>353.0</ele><time>2026-05-02T12:54:42Z</time></trkpt><trkpt lat="44.162674653706816" lon="10.971748508401292"><ele>353.0</ele><time>2026-05-02T12:54:43Z</time></trkpt><trkpt lat="44.162547395612364" lon="10.971748257267596"><ele>353.0</ele><time>2026-05-02T12:54:44Z</time></trkpt><trkpt lat="44.16243041992892" lon="10.971751151129968"><ele>353.0</ele><time>2026-05-02T12:54:45Z</time></trkpt><trkpt lat="44.162320390780664" lon="10.971753941646043"><ele>353.0</ele><time>2026-05-02T12:54:46Z</time></trkpt><trkpt lat="44.16221342256909" lon="10.97175353968573"><ele>354.0</ele><time>2026-05-02T12:54:47Z</time></trkpt><trkpt lat="44.162106470425265" lon="10.971755933708444"><ele>355.0</ele><time>2026-05-02T12:54:48Z</time></trkpt><trkpt lat="44.16199702240515" lon="10.971777626316365"><ele>356.0</ele><time>2026-05-02T12:54:49Z</time></trkpt><trkpt lat="44.16189131527533" lon="10.971821170423913"><ele>357.0</ele><time>2026-05-02T12:54:50Z</time></trkpt><trkpt lat="44.16179350443904" lon="10.97186787866612"><ele>358.0</ele><time>2026-05-02T12:54:51Z</time></trkpt><trkpt lat="44.16169985583088" lon="10.971917996133094"><ele>358.0</ele><time>2026-05-02T12:54:52Z</time></trkpt><trkpt lat="44.161611201776694" lon="10.971972894402215"><ele>358.0</ele><time>2026-05-02T12:54:53Z</time></trkpt><trkpt lat="44.16152275797569" lon="10.972033530202864"><ele>358.0</ele><time>2026-05-02T12:54:54Z</time></trkpt><trkpt lat="44.16143182750958" lon="10.972096216964545"><ele>358.0</ele><time>2026-05-02T12:54:55Z</time></trkpt><trkpt lat="44.16133849180465" lon="10.972156992611275"><ele>358.0</ele><time>2026-05-02T12:54:56Z</time></trkpt><trkpt lat="44.1612444025565" lon="10.97221726828984"><ele>359.59999999999997</ele><time>2026-05-02T12:54:57Z</time></trkpt><trkpt lat="44.161147394361954" lon="10.972276469136279"><ele>361.2</ele><time>2026-05-02T12:54:57.999Z</time></trkpt><trkpt lat="44.1610490266998" lon="10.972333022125172"><ele>362.8</ele><time>2026-05-02T12:54:58.999Z</time></trkpt><trkpt lat="44.16094893092864" lon="10.972390455118083"><ele>364.4</ele><time>2026-05-02T12:54:59.999Z</time></trkpt><trkpt lat="44.16084581306584" lon="10.972450196962274"><ele>366.0</ele><time>2026-05-02T12:55:00.999Z</time></trkpt><trkpt lat="44.160754683393776" lon="10.972515459750905"><ele>366.6</ele><time>2026-05-02T12:55:01.999Z</time></trkpt><trkpt lat="44.16067305868485" lon="10.972586342429455"><ele>367.20000000000005</ele><time>2026-05-02T12:55:02.999Z</time></trkpt><trkpt lat="44.160600849781574" lon="10.972667813264884"><ele>367.79999999999995</ele><time>2026-05-02T12:55:03.999Z</time></trkpt><trkpt lat="44.16053459075638" lon="10.972758080239185"><ele>368.4</ele><time>2026-05-02T12:55:04.999Z</time></trkpt><trkpt lat="44.16047464562229" lon="10.972864283632896"><ele>369.0</ele><time>2026-05-02T12:55:05.999Z</time></trkpt><trkpt lat="44.1604129235987" lon="10.972975693897153"><ele>369.0</ele><time>2026-05-02T12:55:06.999Z</time></trkpt><trkpt lat="44.16035071339856" lon="10.973089075745673"><ele>369.0</ele><time>2026-05-02T12:55:07.999Z</time></trkpt><trkpt lat="44.160283929008024" lon="10.973206890084155"><ele>369.0</ele><time>2026-05-02T12:55:08.999Z</time></trkpt><trkpt lat="44.16021202115099" lon="10.973328527318412"><ele>369.0</ele><time>2026-05-02T12:55:09.999Z</time></trkpt><trkpt lat="44.16014376534694" lon="10.97344334215877"><ele>369.0</ele><time>2026-05-02T12:55:10.999Z</time></trkpt><trkpt lat="44.16008195796422" lon="10.973549132556325"><ele>369.0</ele><time>2026-05-02T12:55:11.999Z</time></trkpt><trkpt lat="44.16002467475217" lon="10.973648884352691"><ele>369.0</ele><time>2026-05-02T12:55:12.999Z</time></trkpt><trkpt lat="44.15996804230001" lon="10.973755490831874"><ele>369.0</ele><time>2026-05-02T12:55:13.999Z</time></trkpt><trkpt lat="44.1599094168373" lon="10.97386579553702"><ele>369.0</ele><time>2026-05-02T12:55:14.999Z</time></trkpt><trkpt lat="44.159847959068344" lon="10.973977167782413"><ele>369.0</ele><time>2026-05-02T12:55:15.999Z</time></trkpt><trkpt lat="44.15978671714789" lon="10.974083527291144"><ele>369.0</ele><time>2026-05-02T12:55:16.999Z</time></trkpt><trkpt lat="44.159728520223105" lon="10.974185256694776"><ele>369.0</ele><time>2026-05-02T12:55:17.999Z</time></trkpt><trkpt lat="44.15967016629472" lon="10.974286681370403"><ele>369.0</ele><time>2026-05-02T12:55:18.999Z</time></trkpt><trkpt lat="44.159590336423705" lon="10.974375489965583"><ele>369.0</ele><time>2026-05-02T12:55:19.999Z</time></trkpt><trkpt lat="44.15951521887238" lon="10.974474456280305"><ele>369.0</ele><time>2026-05-02T12:55:20.999Z</time></trkpt><trkpt lat="44.15943691099923" lon="10.974566045577026"><ele>368.2</ele><time>2026-05-02T12:55:21.999Z</time></trkpt><trkpt lat="44.15936286439" lon="10.974640213838244"><ele>367.4</ele><time>2026-05-02T12:55:22.999Z</time></trkpt><trkpt lat="44.15930657789179" lon="10.974727125572993"><ele>366.6</ele><time>2026-05-02T12:55:23.999Z</time></trkpt><trkpt lat="44.15923911297581" lon="10.974770878128515"><ele>365.8</ele><time>2026-05-02T12:55:24.999Z</time></trkpt><trkpt lat="44.159175142518535" lon="10.974838835363132"><ele>365.0</ele><time>2026-05-02T12:55:26.999Z</time></trkpt><trkpt lat="44.159315528271335" lon="10.974917577163236"><ele>365.0</ele><time>2026-05-02T12:55:31.999Z</time></trkpt><trkpt lat="44.15931261501343" lon="10.974824837334317"><ele>365.0</ele><time>2026-05-02T12:57:10.999Z</time></trkpt><trkpt lat="44.159350661967544" lon="10.974740205417799"><ele>365.0</ele><time>2026-05-02T12:59:22Z</time></trkpt><trkpt lat="44.1592748868154" lon="10.974721809639455"><ele>365.0</ele><time>2026-05-02T12:59:27.999Z</time></trkpt><trkpt lat="44.159164021781265" lon="10.97481164213206"><ele>365.0</ele><time>2026-05-02T12:59:28.999Z</time></trkpt><trkpt lat="44.15911018773401" lon="10.974871343093707"><ele>365.0</ele><time>2026-05-02T12:59:29.999Z</time></trkpt><trkpt lat="44.15906048530087" lon="10.974931531281676"><ele>364.2</ele><time>2026-05-02T12:59:30.999Z</time></trkpt><trkpt lat="44.159000005491265" lon="10.975002528576946"><ele>363.4</ele><time>2026-05-02T12:59:31.999Z</time></trkpt><trkpt lat="44.15893976405287" lon="10.975087793413687"><ele>362.6</ele><time>2026-05-02T12:59:32.999Z</time></trkpt><trkpt lat="44.15887447801156" lon="10.97518290062725"><ele>361.8</ele><time>2026-05-02T12:59:33.999Z</time></trkpt><trkpt lat="44.15880732674207" lon="10.975284581645582"><ele>361.0</ele><time>2026-05-02T12:59:34.999Z</time></trkpt><trkpt lat="44.15873978775164" lon="10.975391044963068"><ele>361.0</ele><time>2026-05-02T12:59:35.999Z</time></trkpt><trkpt lat="44.15867516577712" lon="10.975501178159861"><ele>361.0</ele><time>2026-05-02T12:59:36.999Z</time></trkpt><trkpt lat="44.15860685850602" lon="10.975603397525648"><ele>361.0</ele><time>2026-05-02T12:59:37.999Z</time></trkpt><trkpt lat="44.15852765028091" lon="10.975691409333779"><ele>361.0</ele><time>2026-05-02T12:59:38.999Z</time></trkpt><trkpt lat="44.15844230981528" lon="10.975760981150843"><ele>361.0</ele><time>2026-05-02T12:59:39.999Z</time></trkpt><trkpt lat="44.15835050804857" lon="10.975818127735035"><ele>361.0</ele><time>2026-05-02T12:59:40.999Z</time></trkpt><trkpt lat="44.15825013899007" lon="10.97584684124475"><ele>361.0</ele><time>2026-05-02T12:59:41.999Z</time></trkpt><trkpt lat="44.158156353996375" lon="10.975858013243469"><ele>361.0</ele><time>2026-05-02T12:59:42.999Z</time></trkpt><trkpt lat="44.158071889154705" lon="10.97586355730099"><ele>361.0</ele><time>2026-05-02T12:59:43.999Z</time></trkpt><trkpt lat="44.15800398688542" lon="10.975870540604266"><ele>361.0</ele><time>2026-05-02T12:59:44.999Z</time></trkpt><trkpt lat="44.157923388681304" lon="10.97586807186813"><ele>361.0</ele><time>2026-05-02T12:59:46.999Z</time></trkpt><trkpt lat="44.1578204279876" lon="10.975883242088727"><ele>359.5</ele><time>2026-05-02T12:59:50.999Z</time></trkpt><trkpt lat="44.157708680343475" lon="10.975906828157111"><ele>358.0</ele><time>2026-05-02T12:59:52.999Z</time></trkpt><trkpt lat="44.157643805231274" lon="10.975916538294637"><ele>356.5</ele><time>2026-05-02T12:59:53.999Z</time></trkpt><trkpt lat="44.157575400535336" lon="10.975928177711781"><ele>355.0</ele><time>2026-05-02T12:59:54.999Z</time></trkpt><trkpt lat="44.15750113914197" lon="10.975935891894705"><ele>353.5</ele><time>2026-05-02T12:59:55.999Z</time></trkpt><trkpt lat="44.15742764658592" lon="10.975936469641594"><ele>352.0</ele><time>2026-05-02T12:59:56.999Z</time></trkpt><trkpt lat="44.15735375465989" lon="10.975942097781612"><ele>352.0</ele><time>2026-05-02T12:59:57.999Z</time></trkpt><trkpt lat="44.15728255257387" lon="10.975942730220941"><ele>352.0</ele><time>2026-05-02T12:59:58.999Z</time></trkpt><trkpt lat="44.157215126218475" lon="10.97594349070077"><ele>352.0</ele><time>2026-05-02T12:59:59.999Z</time></trkpt><trkpt lat="44.15712231999522" lon="10.975930779691415"><ele>352.0</ele><time>2026-05-02T13:00:01.999Z</time></trkpt><trkpt lat="44.15703737387159" lon="10.975937300089605"><ele>352.0</ele><time>2026-05-02T13:00:03.999Z</time></trkpt><trkpt lat="44.156902305042316" lon="10.975947667890809"><ele>352.0</ele><time>2026-05-02T13:00:05.999Z</time></trkpt><trkpt lat="44.15682107795384" lon="10.975953902857448"><ele>352.0</ele><time>2026-05-02T13:00:06.999Z</time></trkpt><trkpt lat="44.15673987394029" lon="10.975981614050152"><ele>352.0</ele><time>2026-05-02T13:00:07.999Z</time></trkpt><trkpt lat="44.15665621797492" lon="10.975983461300475"><ele>352.0</ele><time>2026-05-02T13:00:08.999Z</time></trkpt><trkpt lat="44.15657038979047" lon="10.97598782885625"><ele>352.0</ele><time>2026-05-02T13:00:09.999Z</time></trkpt><trkpt lat="44.15648162294572" lon="10.975996264612007"><ele>352.0</ele><time>2026-05-02T13:00:10.999Z</time></trkpt><trkpt lat="44.15639014531908" lon="10.976001158878598"><ele>351.8</ele><time>2026-05-02T13:00:11.999Z</time></trkpt><trkpt lat="44.15629617569715" lon="10.976014563252441"><ele>351.6</ele><time>2026-05-02T13:00:13Z</time></trkpt><trkpt lat="44.156199775039234" lon="10.976017635544578"><ele>351.40000000000003</ele><time>2026-05-02T13:00:14Z</time></trkpt><trkpt lat="44.15610454081235" lon="10.976032284783821"><ele>351.20000000000005</ele><time>2026-05-02T13:00:15Z</time></trkpt><trkpt lat="44.15601046954987" lon="10.976037291749124"><ele>351.0</ele><time>2026-05-02T13:00:16Z</time></trkpt><trkpt lat="44.155917397828944" lon="10.976047269643255"><ele>351.0</ele><time>2026-05-02T13:00:17Z</time></trkpt><trkpt lat="44.15584017862418" lon="10.976050464027518"><ele>351.0</ele><time>2026-05-02T13:00:18Z</time></trkpt><trkpt lat="44.15577605083986" lon="10.976061826461827"><ele>351.0</ele><time>2026-05-02T13:00:19Z</time></trkpt><trkpt lat="44.15566863160813" lon="10.976149206409884"><ele>351.0</ele><time>2026-05-02T13:00:21Z</time></trkpt><trkpt lat="44.15560516613374" lon="10.976184237276398"><ele>351.0</ele><time>2026-05-02T13:00:22Z</time></trkpt><trkpt lat="44.155540820701624" lon="10.976219753861901"><ele>351.0</ele><time>2026-05-02T13:00:23Z</time></trkpt><trkpt lat="44.155467074048026" lon="10.976260459577096"><ele>350.8</ele><time>2026-05-02T13:00:24Z</time></trkpt><trkpt lat="44.155383888541174" lon="10.976306375282633"><ele>350.6</ele><time>2026-05-02T13:00:25Z</time></trkpt><trkpt lat="44.15529110238604" lon="10.976357589780667"><ele>350.4</ele><time>2026-05-02T13:00:26Z</time></trkpt><trkpt lat="44.15518864917823" lon="10.976396109435793"><ele>350.2</ele><time>2026-05-02T13:00:27Z</time></trkpt><trkpt lat="44.15509281790951" lon="10.976457281566784"><ele>350.0</ele><time>2026-05-02T13:00:28Z</time></trkpt><trkpt lat="44.15499341681613" lon="10.976513151938173"><ele>350.0</ele><time>2026-05-02T13:00:29Z</time></trkpt><trkpt lat="44.15489390487782" lon="10.97656922271478"><ele>350.0</ele><time>2026-05-02T13:00:30Z</time></trkpt><trkpt lat="44.154785737548174" lon="10.976628132222897"><ele>350.0</ele><time>2026-05-02T13:00:31Z</time></trkpt><trkpt lat="44.15467129578115" lon="10.976699661597431"><ele>350.0</ele><time>2026-05-02T13:00:32Z</time></trkpt><trkpt lat="44.154553111955245" lon="10.976760898576739"><ele>350.0</ele><time>2026-05-02T13:00:33Z</time></trkpt><trkpt lat="44.15443104275393" lon="10.97682627653696"><ele>350.0</ele><time>2026-05-02T13:00:34Z</time></trkpt><trkpt lat="44.154307764799434" lon="10.97689235549059"><ele>350.0</ele><time>2026-05-02T13:00:35Z</time></trkpt><trkpt lat="44.15418401811357" lon="10.976957879865314"><ele>350.0</ele><time>2026-05-02T13:00:36Z</time></trkpt><trkpt lat="44.15405452287032" lon="10.97703699081164"><ele>351.25</ele><time>2026-05-02T13:00:37Z</time></trkpt><trkpt lat="44.153920629466874" lon="10.97710710092061"><ele>352.5</ele><time>2026-05-02T13:00:38Z</time></trkpt><trkpt lat="44.153784155685074" lon="10.97718176398973"><ele>353.75</ele><time>2026-05-02T13:00:39Z</time></trkpt><trkpt lat="44.15364270329232" lon="10.977256236591936"><ele>355.0</ele><time>2026-05-02T13:00:40Z</time></trkpt><trkpt lat="44.153500101788474" lon="10.97733345929589"><ele>355.0</ele><time>2026-05-02T13:00:41Z</time></trkpt><trkpt lat="44.153356912303586" lon="10.977415118726107"><ele>355.0</ele><time>2026-05-02T13:00:42Z</time></trkpt><trkpt lat="44.15321439217785" lon="10.977489468392086"><ele>355.0</ele><time>2026-05-02T13:00:43Z</time></trkpt><trkpt lat="44.15307572608419" lon="10.97756039750217"><ele>356.75</ele><time>2026-05-02T13:00:44Z</time></trkpt><trkpt lat="44.15294410122458" lon="10.977629675405161"><ele>358.5</ele><time>2026-05-02T13:00:45Z</time></trkpt><trkpt lat="44.15282479700906" lon="10.977694917612407"><ele>360.25</ele><time>2026-05-02T13:00:46Z</time></trkpt><trkpt lat="44.15271922228075" lon="10.977758723508783"><ele>362.0</ele><time>2026-05-02T13:00:47Z</time></trkpt><trkpt lat="44.152632212498816" lon="10.977818845627667"><ele>362.0</ele><time>2026-05-02T13:00:48Z</time></trkpt><trkpt lat="44.15256016506173" lon="10.977883102960948"><ele>362.0</ele><time>2026-05-02T13:00:49Z</time></trkpt><trkpt lat="44.152502055144744" lon="10.977981121993954"><ele>362.0</ele><time>2026-05-02T13:00:50Z</time></trkpt><trkpt lat="44.152452646733124" lon="10.978111049586532"><ele>362.0</ele><time>2026-05-02T13:00:51Z</time></trkpt><trkpt lat="44.15240251348247" lon="10.978261559139868"><ele>362.0</ele><time>2026-05-02T13:00:52Z</time></trkpt><trkpt lat="44.15236351920208" lon="10.978435122579803"><ele>362.5</ele><time>2026-05-02T13:00:53Z</time></trkpt><trkpt lat="44.15232560131623" lon="10.978619527979065"><ele>363.0</ele><time>2026-05-02T13:00:54Z</time></trkpt><trkpt lat="44.152287061324934" lon="10.978825152848062"><ele>363.5</ele><time>2026-05-02T13:00:55Z</time></trkpt><trkpt lat="44.1522462613207" lon="10.979028981177185"><ele>364.0</ele><time>2026-05-02T13:00:56Z</time></trkpt><trkpt lat="44.15220208201037" lon="10.979221834322747"><ele>364.0</ele><time>2026-05-02T13:00:57Z</time></trkpt><trkpt lat="44.15215747679851" lon="10.979407398900515"><ele>364.0</ele><time>2026-05-02T13:00:58Z</time></trkpt><trkpt lat="44.15211780700264" lon="10.979580217031463"><ele>364.0</ele><time>2026-05-02T13:00:59Z</time></trkpt><trkpt lat="44.152079574769054" lon="10.979739953678711"><ele>364.0</ele><time>2026-05-02T13:01:00Z</time></trkpt><trkpt lat="44.15204574882716" lon="10.9799030819285"><ele>362.75</ele><time>2026-05-02T13:01:01Z</time></trkpt><trkpt lat="44.15200915656048" lon="10.980070541644778"><ele>361.5</ele><time>2026-05-02T13:01:02Z</time></trkpt><trkpt lat="44.15196524160745" lon="10.980240231519986"><ele>360.25</ele><time>2026-05-02T13:01:03Z</time></trkpt><trkpt lat="44.15190779277241" lon="10.980375265854319"><ele>359.0</ele><time>2026-05-02T13:01:04Z</time></trkpt><trkpt lat="44.15182134744922" lon="10.980492937036278"><ele>359.0</ele><time>2026-05-02T13:01:05Z</time></trkpt><trkpt lat="44.15170547201957" lon="10.980591908208627"><ele>359.0</ele><time>2026-05-02T13:01:06Z</time></trkpt><trkpt lat="44.1515760270983" lon="10.980690805720593"><ele>359.0</ele><time>2026-05-02T13:01:07Z</time></trkpt><trkpt lat="44.151435865656566" lon="10.980798802366504"><ele>359.0</ele><time>2026-05-02T13:01:08Z</time></trkpt><trkpt lat="44.15128656815199" lon="10.980904899458224"><ele>360.0</ele><time>2026-05-02T13:01:09Z</time></trkpt><trkpt lat="44.151131229252485" lon="10.981008788175714"><ele>361.0</ele><time>2026-05-02T13:01:10Z</time></trkpt><trkpt lat="44.150977811595006" lon="10.98111500493414"><ele>362.0</ele><time>2026-05-02T13:01:11Z</time></trkpt><trkpt lat="44.150835009573775" lon="10.981207369624277"><ele>362.0</ele><time>2026-05-02T13:01:12Z</time></trkpt><trkpt lat="44.15070793627559" lon="10.981303736014638"><ele>362.0</ele><time>2026-05-02T13:01:13Z</time></trkpt><trkpt lat="44.15060682900786" lon="10.981423653744304"><ele>362.0</ele><time>2026-05-02T13:01:14Z</time></trkpt><trkpt lat="44.15053768308444" lon="10.981574203534622"><ele>362.0</ele><time>2026-05-02T13:01:15Z</time></trkpt><trkpt lat="44.15048589185432" lon="10.981757427450313"><ele>368.6666666666667</ele><time>2026-05-02T13:01:16Z</time></trkpt><trkpt lat="44.150423896456395" lon="10.981938530020328"><ele>375.3333333333333</ele><time>2026-05-02T13:01:17Z</time></trkpt><trkpt lat="44.150341574357974" lon="10.982118730872163"><ele>382.0</ele><time>2026-05-02T13:01:18Z</time></trkpt><trkpt lat="44.15025007004379" lon="10.982295295360005"><ele>382.0</ele><time>2026-05-02T13:01:19Z</time></trkpt><trkpt lat="44.150143326832094" lon="10.982467015640733"><ele>382.0</ele><time>2026-05-02T13:01:20Z</time></trkpt><trkpt lat="44.150009278949724" lon="10.982616726635213"><ele>382.0</ele><time>2026-05-02T13:01:21Z</time></trkpt><trkpt lat="44.149876467998645" lon="10.982771045882336"><ele>382.3333333333333</ele><time>2026-05-02T13:01:22Z</time></trkpt><trkpt lat="44.1497359775659" lon="10.982920879908276"><ele>382.6666666666667</ele><time>2026-05-02T13:01:23Z</time></trkpt><trkpt lat="44.149596072425524" lon="10.98308006190958"><ele>383.0</ele><time>2026-05-02T13:01:24Z</time></trkpt><trkpt lat="44.14948045500545" lon="10.983254002122825"><ele>379.75</ele><time>2026-05-02T13:01:25Z</time></trkpt><trkpt lat="44.14937417410104" lon="10.983419088374825"><ele>376.5</ele><time>2026-05-02T13:01:26Z</time></trkpt><trkpt lat="44.14928926077169" lon="10.98358574978298"><ele>373.25</ele><time>2026-05-02T13:01:27Z</time></trkpt><trkpt lat="44.14920198098297" lon="10.983732624843421"><ele>370.0</ele><time>2026-05-02T13:01:28Z</time></trkpt><trkpt lat="44.14911882705583" lon="10.983847561318633"><ele>370.0</ele><time>2026-05-02T13:01:29Z</time></trkpt><trkpt lat="44.14904293285545" lon="10.983920080480939"><ele>370.0</ele><time>2026-05-02T13:01:30Z</time></trkpt><trkpt lat="44.148963142500584" lon="10.983953327680545"><ele>370.0</ele><time>2026-05-02T13:01:31Z</time></trkpt><trkpt lat="44.14888235417962" lon="10.983928874220004"><ele>370.0</ele><time>2026-05-02T13:01:31.999Z</time></trkpt><trkpt lat="44.14879608771405" lon="10.983861299832782"><ele>370.0</ele><time>2026-05-02T13:01:32.999Z</time></trkpt><trkpt lat="44.14870747728826" lon="10.983770289740383"><ele>369.6</ele><time>2026-05-02T13:01:33.999Z</time></trkpt><trkpt lat="44.14858594891652" lon="10.983702337040686"><ele>369.2</ele><time>2026-05-02T13:01:34.999Z</time></trkpt><trkpt lat="44.148487150027954" lon="10.98365982284133"><ele>368.79999999999995</ele><time>2026-05-02T13:01:35.999Z</time></trkpt><trkpt lat="44.14840865318277" lon="10.983544866947174"><ele>368.4</ele><time>2026-05-02T13:01:36.999Z</time></trkpt><trkpt lat="44.14835401266885" lon="10.983440653555107"><ele>368.0</ele><time>2026-05-02T13:01:37.999Z</time></trkpt><trkpt lat="44.1482935421989" lon="10.983312343461645"><ele>369.25</ele><time>2026-05-02T13:01:38.999Z</time></trkpt><trkpt lat="44.14822164383997" lon="10.98320507019901"><ele>370.5</ele><time>2026-05-02T13:01:39.999Z</time></trkpt><trkpt lat="44.1481027971077" lon="10.983113231725028"><ele>371.75</ele><time>2026-05-02T13:01:40.999Z</time></trkpt><trkpt lat="44.147960186196876" lon="10.9830837414027"><ele>373.0</ele><time>2026-05-02T13:01:41.999Z</time></trkpt><trkpt lat="44.1478163250962" lon="10.983105891186314"><ele>373.0</ele><time>2026-05-02T13:01:42.999Z</time></trkpt><trkpt lat="44.14765798934949" lon="10.983151367253214"><ele>373.0</ele><time>2026-05-02T13:01:43.999Z</time></trkpt><trkpt lat="44.14749184176529" lon="10.98320914721365"><ele>373.0</ele><time>2026-05-02T13:01:44.999Z</time></trkpt><trkpt lat="44.14732387863374" lon="10.983274924275008"><ele>371.66666666666663</ele><time>2026-05-02T13:01:45.999Z</time></trkpt><trkpt lat="44.14715204962912" lon="10.983339611282021"><ele>370.3333333333333</ele><time>2026-05-02T13:01:46.999Z</time></trkpt><trkpt lat="44.14698491460955" lon="10.983409918200763"><ele>369.0</ele><time>2026-05-02T13:01:47.999Z</time></trkpt><trkpt lat="44.146820446347576" lon="10.983488600974432"><ele>369.0</ele><time>2026-05-02T13:01:48.999Z</time></trkpt><trkpt lat="44.146668895869354" lon="10.983573038644852"><ele>369.0</ele><time>2026-05-02T13:01:49.999Z</time></trkpt><trkpt lat="44.14652729536699" lon="10.983669540049705"><ele>369.0</ele><time>2026-05-02T13:01:50.999Z</time></trkpt><trkpt lat="44.1463929069265" lon="10.983787019793025"><ele>371.3333333333333</ele><time>2026-05-02T13:01:51.999Z</time></trkpt><trkpt lat="44.146267494248605" lon="10.983927314897398"><ele>373.66666666666663</ele><time>2026-05-02T13:01:52.999Z</time></trkpt><trkpt lat="44.14614736084207" lon="10.9840810678142"><ele>376.0</ele><time>2026-05-02T13:01:53.999Z</time></trkpt><trkpt lat="44.1460264201569" lon="10.984243380941367"><ele>376.0</ele><time>2026-05-02T13:01:54.999Z</time></trkpt><trkpt lat="44.14590336916145" lon="10.984420551570114"><ele>376.0</ele><time>2026-05-02T13:01:55.999Z</time></trkpt><trkpt lat="44.145776972333614" lon="10.984620194153532"><ele>376.0</ele><time>2026-05-02T13:01:56.999Z</time></trkpt><trkpt lat="44.145649879865104" lon="10.98484310358273"><ele>379.3333333333333</ele><time>2026-05-02T13:01:57.999Z</time></trkpt><trkpt lat="44.14553299597895" lon="10.985046643776304"><ele>382.66666666666663</ele><time>2026-05-02T13:01:58.999Z</time></trkpt><trkpt lat="44.14543020419795" lon="10.985225377476922"><ele>386.0</ele><time>2026-05-02T13:01:59.999Z</time></trkpt><trkpt lat="44.14534323416711" lon="10.98537374979785"><ele>386.0</ele><time>2026-05-02T13:02:00.999Z</time></trkpt><trkpt lat="44.14527527719907" lon="10.985497051461735"><ele>386.0</ele><time>2026-05-02T13:02:01.999Z</time></trkpt><trkpt lat="44.14521521909787" lon="10.985609687911646"><ele>386.0</ele><time>2026-05-02T13:02:02.999Z</time></trkpt><trkpt lat="44.14515216327558" lon="10.985701994044677"><ele>386.0</ele><time>2026-05-02T13:02:03.999Z</time></trkpt><trkpt lat="44.145077424172186" lon="10.985788056064294"><ele>386.0</ele><time>2026-05-02T13:02:04.999Z</time></trkpt><trkpt lat="44.14497816977451" lon="10.985870621316263"><ele>383.0</ele><time>2026-05-02T13:02:05.999Z</time></trkpt><trkpt lat="44.14485382294556" lon="10.985945770799834"><ele>380.0</ele><time>2026-05-02T13:02:06.999Z</time></trkpt><trkpt lat="44.144704274007516" lon="10.985990746880345"><ele>377.0</ele><time>2026-05-02T13:02:07.999Z</time></trkpt><trkpt lat="44.14454751425692" lon="10.98606417753756"><ele>377.0</ele><time>2026-05-02T13:02:08.999Z</time></trkpt><trkpt lat="44.14439486731379" lon="10.986147127183031"><ele>377.0</ele><time>2026-05-02T13:02:09.999Z</time></trkpt><trkpt lat="44.14424358744946" lon="10.986237296882244"><ele>377.0</ele><time>2026-05-02T13:02:10.999Z</time></trkpt><trkpt lat="44.144104572374616" lon="10.986330907841594"><ele>384.6666666666667</ele><time>2026-05-02T13:02:11.999Z</time></trkpt><trkpt lat="44.143979050144594" lon="10.986429028623174"><ele>392.33333333333337</ele><time>2026-05-02T13:02:12.999Z</time></trkpt><trkpt lat="44.14385207729781" lon="10.986540599677566"><ele>400.0</ele><time>2026-05-02T13:02:13.999Z</time></trkpt><trkpt lat="44.14372552606132" lon="10.986675202433396"><ele>394.25</ele><time>2026-05-02T13:02:14.999Z</time></trkpt><trkpt lat="44.14361472896286" lon="10.986815400432263"><ele>388.5</ele><time>2026-05-02T13:02:15.999Z</time></trkpt><trkpt lat="44.14351950673413" lon="10.986946825278618"><ele>382.75</ele><time>2026-05-02T13:02:16.999Z</time></trkpt><trkpt lat="44.14339460434089" lon="10.98701718666315"><ele>377.0</ele><time>2026-05-02T13:02:17.999Z</time></trkpt><trkpt lat="44.14326056998803" lon="10.987102474771163"><ele>384.6666666666667</ele><time>2026-05-02T13:02:19Z</time></trkpt><trkpt lat="44.14311373160354" lon="10.98720314883779"><ele>392.33333333333337</ele><time>2026-05-02T13:02:20Z</time></trkpt><trkpt lat="44.14296294374856" lon="10.987320640017998"><ele>400.0</ele><time>2026-05-02T13:02:21Z</time></trkpt><trkpt lat="44.14281504025915" lon="10.98745085220952"><ele>395.33333333333337</ele><time>2026-05-02T13:02:22Z</time></trkpt><trkpt lat="44.14267858123366" lon="10.987610793894767"><ele>390.66666666666663</ele><time>2026-05-02T13:02:23Z</time></trkpt><trkpt lat="44.14255638611783" lon="10.987745371127671"><ele>386.0</ele><time>2026-05-02T13:02:24Z</time></trkpt><trkpt lat="44.14246296735672" lon="10.987887060878062"><ele>386.0</ele><time>2026-05-02T13:02:25Z</time></trkpt><trkpt lat="44.1423961788838" lon="10.988027853062631"><ele>386.0</ele><time>2026-05-02T13:02:26Z</time></trkpt><trkpt lat="44.142332537181545" lon="10.98814696180049"><ele>386.0</ele><time>2026-05-02T13:02:27Z</time></trkpt><trkpt lat="44.14227433698111" lon="10.988264402292568"><ele>386.0</ele><time>2026-05-02T13:02:28Z</time></trkpt><trkpt lat="44.142222486538955" lon="10.988364950420552"><ele>386.0</ele><time>2026-05-02T13:02:29Z</time></trkpt><trkpt lat="44.142163626987404" lon="10.988472629459835"><ele>387.0</ele><time>2026-05-02T13:02:30Z</time></trkpt><trkpt lat="44.142092775091896" lon="10.988595377909462"><ele>388.0</ele><time>2026-05-02T13:02:31Z</time></trkpt><trkpt lat="44.142009008837434" lon="10.988728343424516"><ele>389.0</ele><time>2026-05-02T13:02:32Z</time></trkpt><trkpt lat="44.14190624788804" lon="10.9888608298643"><ele>390.0</ele><time>2026-05-02T13:02:33Z</time></trkpt><trkpt lat="44.1417624531899" lon="10.988962053287597"><ele>390.0</ele><time>2026-05-02T13:02:34Z</time></trkpt><trkpt lat="44.14159981155995" lon="10.989079820427861"><ele>390.0</ele><time>2026-05-02T13:02:35Z</time></trkpt><trkpt lat="44.14142077851857" lon="10.989207646937443"><ele>390.0</ele><time>2026-05-02T13:02:36Z</time></trkpt><trkpt lat="44.14124751971874" lon="10.9893451846225"><ele>389.33333333333337</ele><time>2026-05-02T13:02:37Z</time></trkpt><trkpt lat="44.14106107244925" lon="10.989454974996564"><ele>388.6666666666667</ele><time>2026-05-02T13:02:38Z</time></trkpt><trkpt lat="44.1408620412806" lon="10.98955889409005"><ele>388.0</ele><time>2026-05-02T13:02:39Z</time></trkpt><trkpt lat="44.14066281215135" lon="10.989666328057499"><ele>386.6666666666667</ele><time>2026-05-02T13:02:40Z</time></trkpt><trkpt lat="44.14047292408688" lon="10.989806745492185"><ele>385.33333333333337</ele><time>2026-05-02T13:02:41Z</time></trkpt><trkpt lat="44.140282417238225" lon="10.98997001448469"><ele>384.0</ele><time>2026-05-02T13:02:42Z</time></trkpt><trkpt lat="44.14010454867085" lon="10.99011521053688"><ele>384.0</ele><time>2026-05-02T13:02:43Z</time></trkpt><trkpt lat="44.139935403537315" lon="10.99025110005388"><ele>384.0</ele><time>2026-05-02T13:02:44Z</time></trkpt><trkpt lat="44.139768900576456" lon="10.990369898312764"><ele>384.0</ele><time>2026-05-02T13:02:45Z</time></trkpt><trkpt lat="44.13958944773761" lon="10.990469108516995"><ele>387.0</ele><time>2026-05-02T13:02:46Z</time></trkpt><trkpt lat="44.139398453999576" lon="10.990543858779162"><ele>390.0</ele><time>2026-05-02T13:02:47Z</time></trkpt><trkpt lat="44.1391940492933" lon="10.990596023395714"><ele>393.0</ele><time>2026-05-02T13:02:48Z</time></trkpt><trkpt lat="44.138998300010044" lon="10.990716549291495"><ele>395.0</ele><time>2026-05-02T13:02:49Z</time></trkpt><trkpt lat="44.13881927735661" lon="10.990825193991999"><ele>397.0</ele><time>2026-05-02T13:02:50Z</time></trkpt><trkpt lat="44.138663705872034" lon="10.990926984333774"><ele>399.0</ele><time>2026-05-02T13:02:51Z</time></trkpt><trkpt lat="44.13852469125006" lon="10.99099358314307"><ele>397.5</ele><time>2026-05-02T13:02:52Z</time></trkpt><trkpt lat="44.13839009620136" lon="10.991019490238923"><ele>396.0</ele><time>2026-05-02T13:02:53Z</time></trkpt><trkpt lat="44.138257594547845" lon="10.990990430362928"><ele>394.5</ele><time>2026-05-02T13:02:54Z</time></trkpt><trkpt lat="44.138124181812444" lon="10.990900954807476"><ele>393.0</ele><time>2026-05-02T13:02:55Z</time></trkpt><trkpt lat="44.13798819332103" lon="10.990796497474633"><ele>393.0</ele><time>2026-05-02T13:02:56Z</time></trkpt><trkpt lat="44.13785228424952" lon="10.990704025429283"><ele>393.0</ele><time>2026-05-02T13:02:57Z</time></trkpt><trkpt lat="44.13771169462916" lon="10.990634849716521"><ele>393.0</ele><time>2026-05-02T13:02:58Z</time></trkpt><trkpt lat="44.137571951658096" lon="10.990593790177426"><ele>393.0</ele><time>2026-05-02T13:02:59Z</time></trkpt><trkpt lat="44.137439519913066" lon="10.990567401231937"><ele>390.25</ele><time>2026-05-02T13:03:00Z</time></trkpt><trkpt lat="44.13731560375669" lon="10.99053720356825"><ele>387.5</ele><time>2026-05-02T13:03:01Z</time></trkpt><trkpt lat="44.13720049693352" lon="10.99049555563779"><ele>384.75</ele><time>2026-05-02T13:03:02Z</time></trkpt><trkpt lat="44.13709266912661" lon="10.990434025163356"><ele>382.0</ele><time>2026-05-02T13:03:03Z</time></trkpt><trkpt lat="44.13698423884315" lon="10.990356748553145"><ele>382.0</ele><time>2026-05-02T13:03:04Z</time></trkpt><trkpt lat="44.136873626146404" lon="10.990273999141378"><ele>382.0</ele><time>2026-05-02T13:03:05Z</time></trkpt><trkpt lat="44.13676262702884" lon="10.990190492290386"><ele>382.0</ele><time>2026-05-02T13:03:06Z</time></trkpt><trkpt lat="44.13665148064487" lon="10.990106478708352"><ele>382.0</ele><time>2026-05-02T13:03:07Z</time></trkpt><trkpt lat="44.136540253613774" lon="10.99002461542814"><ele>384.5</ele><time>2026-05-02T13:03:08Z</time></trkpt><trkpt lat="44.13642907737346" lon="10.989943024727825"><ele>387.0</ele><time>2026-05-02T13:03:09Z</time></trkpt><trkpt lat="44.13631875371154" lon="10.989866856580711"><ele>389.5</ele><time>2026-05-02T13:03:10Z</time></trkpt><trkpt lat="44.13621041222293" lon="10.98979636303513"><ele>392.0</ele><time>2026-05-02T13:03:11Z</time></trkpt><trkpt lat="44.13610296602046" lon="10.989730993691316"><ele>392.0</ele><time>2026-05-02T13:03:12Z</time></trkpt><trkpt lat="44.135993902955654" lon="10.989671043874814"><ele>392.0</ele><time>2026-05-02T13:03:13Z</time></trkpt><trkpt lat="44.13587376537448" lon="10.989611461770917"><ele>392.0</ele><time>2026-05-02T13:03:14Z</time></trkpt><trkpt lat="44.13573673960004" lon="10.989557374099094"><ele>392.0</ele><time>2026-05-02T13:03:15Z</time></trkpt><trkpt lat="44.135582926084176" lon="10.989505892434094"><ele>391.3333333333333</ele><time>2026-05-02T13:03:16Z</time></trkpt><trkpt lat="44.135410148495126" lon="10.989444422981682"><ele>390.66666666666663</ele><time>2026-05-02T13:03:17Z</time></trkpt><trkpt lat="44.13522354583368" lon="10.989371963751033"><ele>390.0</ele><time>2026-05-02T13:03:18Z</time></trkpt><trkpt lat="44.13502399358089" lon="10.989301813391101"><ele>390.0</ele><time>2026-05-02T13:03:19Z</time></trkpt><trkpt lat="44.13482466528992" lon="10.989241051097679"><ele>390.0</ele><time>2026-05-02T13:03:20Z</time></trkpt><trkpt lat="44.13462392446959" lon="10.989208080727634"><ele>390.0</ele><time>2026-05-02T13:03:21Z</time></trkpt><trkpt lat="44.13442904257346" lon="10.989212007011453"><ele>390.0</ele><time>2026-05-02T13:03:22Z</time></trkpt><trkpt lat="44.13423937570759" lon="10.989266313808956"><ele>390.0</ele><time>2026-05-02T13:03:23Z</time></trkpt><trkpt lat="44.13403841248057" lon="10.98937014412044"><ele>390.0</ele><time>2026-05-02T13:03:24Z</time></trkpt><trkpt lat="44.1338348359993" lon="10.989500098967008"><ele>393.66666666666663</ele><time>2026-05-02T13:03:24.999Z</time></trkpt><trkpt lat="44.13363886971567" lon="10.989626717579762"><ele>397.3333333333333</ele><time>2026-05-02T13:03:25.999Z</time></trkpt><trkpt lat="44.133458716776474" lon="10.989743139434397"><ele>401.0</ele><time>2026-05-02T13:03:26.999Z</time></trkpt><trkpt lat="44.13330107523339" lon="10.989873962166785"><ele>402.0</ele><time>2026-05-02T13:03:27.999Z</time></trkpt><trkpt lat="44.13315290484227" lon="10.990011726663234"><ele>403.0</ele><time>2026-05-02T13:03:28.999Z</time></trkpt><trkpt lat="44.13301802040498" lon="10.99016898625941"><ele>404.0</ele><time>2026-05-02T13:03:29.999Z</time></trkpt><trkpt lat="44.132896372637035" lon="10.990331009989722"><ele>404.0</ele><time>2026-05-02T13:03:30.999Z</time></trkpt><trkpt lat="44.132769817709274" lon="10.99045925455436"><ele>404.0</ele><time>2026-05-02T13:03:31.999Z</time></trkpt><trkpt lat="44.132641978764106" lon="10.990562271847782"><ele>404.0</ele><time>2026-05-02T13:03:32.999Z</time></trkpt><trkpt lat="44.13250772530317" lon="10.99064278630017"><ele>403.5</ele><time>2026-05-02T13:03:33.999Z</time></trkpt><trkpt lat="44.13237218363737" lon="10.990709842304845"><ele>403.0</ele><time>2026-05-02T13:03:34.999Z</time></trkpt><trkpt lat="44.13223976039582" lon="10.990779517116195"><ele>402.5</ele><time>2026-05-02T13:03:35.999Z</time></trkpt><trkpt lat="44.13210963090356" lon="10.99084486515609"><ele>402.0</ele><time>2026-05-02T13:03:36.999Z</time></trkpt><trkpt lat="44.131979793385135" lon="10.990906912765581"><ele>402.0</ele><time>2026-05-02T13:03:37.999Z</time></trkpt><trkpt lat="44.13184955336608" lon="10.990957197717773"><ele>402.0</ele><time>2026-05-02T13:03:38.999Z</time></trkpt><trkpt lat="44.13172161031868" lon="10.991002224513254"><ele>402.0</ele><time>2026-05-02T13:03:39.999Z</time></trkpt><trkpt lat="44.131594670389916" lon="10.99104916968055"><ele>402.0</ele><time>2026-05-02T13:03:40.999Z</time></trkpt><trkpt lat="44.131469040547" lon="10.991096057222187"><ele>402.0</ele><time>2026-05-02T13:03:41.999Z</time></trkpt><trkpt lat="44.13134816829793" lon="10.991141210946402"><ele>402.0</ele><time>2026-05-02T13:03:42.999Z</time></trkpt><trkpt lat="44.1312270919233" lon="10.991155771492764"><ele>402.0</ele><time>2026-05-02T13:03:43.999Z</time></trkpt><trkpt lat="44.13110731881642" lon="10.991184172935807"><ele>402.0</ele><time>2026-05-02T13:03:44.999Z</time></trkpt><trkpt lat="44.13097865935654" lon="10.991215683784064"><ele>402.0</ele><time>2026-05-02T13:03:45.999Z</time></trkpt><trkpt lat="44.130846766949986" lon="10.991247986331953"><ele>402.0</ele><time>2026-05-02T13:03:46.999Z</time></trkpt><trkpt lat="44.130714564466125" lon="10.991280364798287"><ele>402.0</ele><time>2026-05-02T13:03:47.999Z</time></trkpt><trkpt lat="44.13057449631645" lon="10.991314669675653"><ele>402.0</ele><time>2026-05-02T13:03:48.999Z</time></trkpt><trkpt lat="44.13042989183852" lon="10.991350085590886"><ele>402.75</ele><time>2026-05-02T13:03:49.999Z</time></trkpt><trkpt lat="44.13028264709914" lon="10.99138615006304"><ele>403.5</ele><time>2026-05-02T13:03:50.999Z</time></trkpt><trkpt lat="44.13014224461693" lon="10.99142046342708"><ele>404.25</ele><time>2026-05-02T13:03:51.999Z</time></trkpt><trkpt lat="44.130015945924036" lon="10.991472422986252"><ele>405.0</ele><time>2026-05-02T13:03:52.999Z</time></trkpt><trkpt lat="44.12990342026477" lon="10.991500378136214"><ele>404.0</ele><time>2026-05-02T13:03:53.999Z</time></trkpt><trkpt lat="44.129798696751024" lon="10.991504071239687"><ele>403.0</ele><time>2026-05-02T13:03:54.999Z</time></trkpt><trkpt lat="44.129702053476734" lon="10.99152757927122"><ele>402.0</ele><time>2026-05-02T13:03:55.999Z</time></trkpt><trkpt lat="44.1296132133305" lon="10.991549177760445"><ele>401.0</ele><time>2026-05-02T13:03:56.999Z</time></trkpt><trkpt lat="44.12953055255887" lon="10.991569273943568"><ele>400.0</ele><time>2026-05-02T13:03:57.999Z</time></trkpt><trkpt lat="44.12945999041341" lon="10.9915864287633"><ele>399.0</ele><time>2026-05-02T13:03:58.999Z</time></trkpt><trkpt lat="44.12935399839887" lon="10.991610440192819"><ele>399.0</ele><time>2026-05-02T13:04:00.999Z</time></trkpt><trkpt lat="44.12926827300701" lon="10.991596894524147"><ele>399.0</ele><time>2026-05-02T13:04:02.999Z</time></trkpt><trkpt lat="44.12913859318464" lon="10.99160316274801"><ele>399.0</ele><time>2026-05-02T13:04:04.999Z</time></trkpt><trkpt lat="44.129046292029166" lon="10.99166985470996"><ele>399.0</ele><time>2026-05-02T13:04:05.999Z</time></trkpt><trkpt lat="44.12892349719545" lon="10.991736406573974"><ele>399.75</ele><time>2026-05-02T13:04:06.999Z</time></trkpt><trkpt lat="44.128795080664105" lon="10.991773610558399"><ele>400.5</ele><time>2026-05-02T13:04:07.999Z</time></trkpt><trkpt lat="44.128678660726635" lon="10.991794195158016"><ele>401.25</ele><time>2026-05-02T13:04:08.999Z</time></trkpt><trkpt lat="44.128570825899374" lon="10.991817604564986"><ele>402.0</ele><time>2026-05-02T13:04:09.999Z</time></trkpt><trkpt lat="44.12846606486844" lon="10.991843985927643"><ele>402.0</ele><time>2026-05-02T13:04:10.999Z</time></trkpt><trkpt lat="44.12836762611982" lon="10.991874082917438"><ele>402.0</ele><time>2026-05-02T13:04:11.999Z</time></trkpt><trkpt lat="44.12827138693773" lon="10.99190977801895"><ele>402.0</ele><time>2026-05-02T13:04:12.999Z</time></trkpt><trkpt lat="44.12818628131007" lon="10.99198032832659"><ele>402.0</ele><time>2026-05-02T13:04:13.999Z</time></trkpt><trkpt lat="44.128124664395074" lon="10.992097658375826"><ele>402.0</ele><time>2026-05-02T13:04:14.999Z</time></trkpt><trkpt lat="44.12809671426277" lon="10.992253321433523"><ele>405.8</ele><time>2026-05-02T13:04:15.999Z</time></trkpt><trkpt lat="44.128098572781205" lon="10.99241946549835"><ele>409.6</ele><time>2026-05-02T13:04:16.999Z</time></trkpt><trkpt lat="44.12811762935214" lon="10.992582671769751"><ele>413.40000000000003</ele><time>2026-05-02T13:04:17.999Z</time></trkpt><trkpt lat="44.12813038182509" lon="10.99273574392367"><ele>417.20000000000005</ele><time>2026-05-02T13:04:18.999Z</time></trkpt><trkpt lat="44.128139286948105" lon="10.99286831960129"><ele>421.0</ele><time>2026-05-02T13:04:19.999Z</time></trkpt><trkpt lat="44.1281415520126" lon="10.992963396678826"><ele>421.00000000000006</ele><time>2026-05-02T13:04:20.999Z</time></trkpt><trkpt lat="44.12812521537564" lon="10.993109743294173"><ele>421.0</ele><time>2026-05-02T13:04:22.999Z</time></trkpt><trkpt lat="44.12809262619711" lon="10.993242366452074"><ele>421.0</ele><time>2026-05-02T13:04:25Z</time></trkpt><trkpt lat="44.128060340070974" lon="10.993324564907041"><ele>421.0</ele><time>2026-05-02T13:04:27Z</time></trkpt><trkpt lat="44.12803114381612" lon="10.993403671561992"><ele>421.00000000000006</ele><time>2026-05-02T13:04:30Z</time></trkpt><trkpt lat="44.12797732272486" lon="10.993500883654981"><ele>421.0</ele><time>2026-05-02T13:04:32Z</time></trkpt><trkpt lat="44.127931016247466" lon="10.993591449293682"><ele>422.75</ele><time>2026-05-02T13:04:33Z</time></trkpt><trkpt lat="44.12788942837729" lon="10.993732678793759"><ele>424.5</ele><time>2026-05-02T13:04:34Z</time></trkpt><trkpt lat="44.127846615245616" lon="10.993882114045489"><ele>426.25</ele><time>2026-05-02T13:04:35Z</time></trkpt><trkpt lat="44.12781267191127" lon="10.994065851685473"><ele>428.0</ele><time>2026-05-02T13:04:36Z</time></trkpt><trkpt lat="44.12780061032303" lon="10.994271240516323"><ele>430.0</ele><time>2026-05-02T13:04:37Z</time></trkpt><trkpt lat="44.12781811363604" lon="10.99449573794163"><ele>432.0</ele><time>2026-05-02T13:04:38Z</time></trkpt><trkpt lat="44.127847207087775" lon="10.994703360005655"><ele>434.0</ele><time>2026-05-02T13:04:39Z</time></trkpt><trkpt lat="44.12787487188095" lon="10.994885410235485"><ele>436.0</ele><time>2026-05-02T13:04:40Z</time></trkpt><trkpt lat="44.127909922140226" lon="10.995057787526186"><ele>436.5</ele><time>2026-05-02T13:04:41Z</time></trkpt><trkpt lat="44.12794297098684" lon="10.995232854673674"><ele>437.0</ele><time>2026-05-02T13:04:42Z</time></trkpt><trkpt lat="44.12797479948436" lon="10.995410747811743"><ele>437.5</ele><time>2026-05-02T13:04:43Z</time></trkpt><trkpt lat="44.127998299112846" lon="10.995586978524479"><ele>438.0</ele><time>2026-05-02T13:04:44Z</time></trkpt><trkpt lat="44.12801004714219" lon="10.995755074719568"><ele>435.75</ele><time>2026-05-02T13:04:45Z</time></trkpt><trkpt lat="44.12800514572044" lon="10.995923233052391"><ele>433.5</ele><time>2026-05-02T13:04:46Z</time></trkpt><trkpt lat="44.1279758586294" lon="10.996105364408537"><ele>431.25</ele><time>2026-05-02T13:04:47Z</time></trkpt><trkpt lat="44.12792118950782" lon="10.996286154286901"><ele>429.0</ele><time>2026-05-02T13:04:48Z</time></trkpt><trkpt lat="44.12784418636376" lon="10.996464949147997"><ele>429.0</ele><time>2026-05-02T13:04:49Z</time></trkpt><trkpt lat="44.127748268468316" lon="10.996630592652194"><ele>429.0</ele><time>2026-05-02T13:04:50Z</time></trkpt><trkpt lat="44.12764313723468" lon="10.99678147275367"><ele>429.0</ele><time>2026-05-02T13:04:51Z</time></trkpt><trkpt lat="44.12753267368081" lon="10.996919564136896"><ele>431.33333333333337</ele><time>2026-05-02T13:04:52Z</time></trkpt><trkpt lat="44.127415917618194" lon="10.997038339698806"><ele>433.6666666666667</ele><time>2026-05-02T13:04:53Z</time></trkpt><trkpt lat="44.12726656442435" lon="10.997099839167898"><ele>436.0</ele><time>2026-05-02T13:04:54Z</time></trkpt><trkpt lat="44.12711436838119" lon="10.997195923917493"><ele>436.0</ele><time>2026-05-02T13:04:55Z</time></trkpt><trkpt lat="44.12698269053051" lon="10.997326325340161"><ele>436.0</ele><time>2026-05-02T13:04:56Z</time></trkpt><trkpt lat="44.12685897872685" lon="10.997453383307096"><ele>436.0</ele><time>2026-05-02T13:04:57Z</time></trkpt><trkpt lat="44.12671973839706" lon="10.997521878097057"><ele>432.0</ele><time>2026-05-02T13:04:58Z</time></trkpt><trkpt lat="44.126574362831555" lon="10.997610919834614"><ele>428.0</ele><time>2026-05-02T13:04:59Z</time></trkpt><trkpt lat="44.12643207097525" lon="10.997727643958683"><ele>424.0</ele><time>2026-05-02T13:05:00Z</time></trkpt><trkpt lat="44.1263117836109" lon="10.997882127115554"><ele>432.0</ele><time>2026-05-02T13:05:01Z</time></trkpt><trkpt lat="44.126192533570865" lon="10.998038442464324"><ele>440.0</ele><time>2026-05-02T13:05:02Z</time></trkpt><trkpt lat="44.12607651594695" lon="10.998195156959104"><ele>448.0</ele><time>2026-05-02T13:05:03Z</time></trkpt><trkpt lat="44.125967531387175" lon="10.998332189827511"><ele>444.5</ele><time>2026-05-02T13:05:04Z</time></trkpt><trkpt lat="44.12586921508172" lon="10.998459092577955"><ele>441.0</ele><time>2026-05-02T13:05:05Z</time></trkpt><trkpt lat="44.12577401788333" lon="10.99858139069802"><ele>437.5</ele><time>2026-05-02T13:05:06Z</time></trkpt><trkpt lat="44.12569071977014" lon="10.998699884575444"><ele>434.0</ele><time>2026-05-02T13:05:07Z</time></trkpt><trkpt lat="44.125644524042805" lon="10.998845512577958"><ele>439.75</ele><time>2026-05-02T13:05:08Z</time></trkpt><trkpt lat="44.12562508556714" lon="10.999032201608937"><ele>445.5</ele><time>2026-05-02T13:05:09Z</time></trkpt><trkpt lat="44.12559779573223" lon="10.999239819205176"><ele>451.25</ele><time>2026-05-02T13:05:10Z</time></trkpt><trkpt lat="44.125535754098316" lon="10.999444901645267"><ele>457.0</ele><time>2026-05-02T13:05:11Z</time></trkpt><trkpt lat="44.12543640853129" lon="10.99964346890715"><ele>457.0</ele><time>2026-05-02T13:05:12Z</time></trkpt><trkpt lat="44.12531150729638" lon="10.999812612845187"><ele>457.0</ele><time>2026-05-02T13:05:13Z</time></trkpt><trkpt lat="44.125182483442785" lon="10.999979486794661"><ele>457.0</ele><time>2026-05-02T13:05:13.999Z</time></trkpt><trkpt lat="44.125064126184505" lon="11.000148994086365"><ele>457.0</ele><time>2026-05-02T13:05:14.999Z</time></trkpt><trkpt lat="44.124959639623356" lon="11.000312650618099"><ele>457.0</ele><time>2026-05-02T13:05:15.999Z</time></trkpt><trkpt lat="44.12487983923787" lon="11.000484240237421"><ele>457.0</ele><time>2026-05-02T13:05:16.999Z</time></trkpt><trkpt lat="44.12482326151975" lon="11.000633260037759"><ele>457.0</ele><time>2026-05-02T13:05:17.999Z</time></trkpt><trkpt lat="44.1248017338287" lon="11.00079802495054"><ele>461.75</ele><time>2026-05-02T13:05:18.999Z</time></trkpt><trkpt lat="44.124770375467776" lon="11.000956663886733"><ele>466.5</ele><time>2026-05-02T13:05:19.999Z</time></trkpt><trkpt lat="44.124710681372996" lon="11.001091619366452"><ele>471.25</ele><time>2026-05-02T13:05:20.999Z</time></trkpt><trkpt lat="44.12462557845897" lon="11.001181085292158"><ele>476.0</ele><time>2026-05-02T13:05:21.999Z</time></trkpt><trkpt lat="44.124498752301704" lon="11.001219099191532"><ele>476.0</ele><time>2026-05-02T13:05:22.999Z</time></trkpt><trkpt lat="44.12437147825118" lon="11.001302998002863"><ele>476.0</ele><time>2026-05-02T13:05:23.999Z</time></trkpt><trkpt lat="44.12425764696738" lon="11.001404790933902"><ele>476.0</ele><time>2026-05-02T13:05:24.999Z</time></trkpt><trkpt lat="44.12417324565168" lon="11.001552273956648"><ele>476.0</ele><time>2026-05-02T13:05:25.999Z</time></trkpt><trkpt lat="44.12412261307455" lon="11.00172396128772"><ele>474.75</ele><time>2026-05-02T13:05:26.999Z</time></trkpt><trkpt lat="44.124072713818485" lon="11.001886437585497"><ele>473.5</ele><time>2026-05-02T13:05:27.999Z</time></trkpt><trkpt lat="44.12399662221582" lon="11.002006577172724"><ele>472.25</ele><time>2026-05-02T13:05:28.999Z</time></trkpt><trkpt lat="44.123875160263985" lon="11.002050618728772"><ele>471.0</ele><time>2026-05-02T13:05:29.999Z</time></trkpt><trkpt lat="44.123737216312925" lon="11.002095977427011"><ele>471.0</ele><time>2026-05-02T13:05:30.999Z</time></trkpt><trkpt lat="44.123581946800215" lon="11.0021145875152"><ele>471.0</ele><time>2026-05-02T13:05:31.999Z</time></trkpt><trkpt lat="44.12341226505577" lon="11.002100107524447"><ele>471.0</ele><time>2026-05-02T13:05:32.999Z</time></trkpt><trkpt lat="44.1232429810722" lon="11.00206877657558"><ele>471.33333333333337</ele><time>2026-05-02T13:05:33.999Z</time></trkpt><trkpt lat="44.123091814057155" lon="11.002033481469734"><ele>471.6666666666667</ele><time>2026-05-02T13:05:34.999Z</time></trkpt><trkpt lat="44.12295575466931" lon="11.001941750873502"><ele>472.0</ele><time>2026-05-02T13:05:35.999Z</time></trkpt><trkpt lat="44.122823054742" lon="11.001844619273998"><ele>472.0</ele><time>2026-05-02T13:05:36.999Z</time></trkpt><trkpt lat="44.122691785943" lon="11.001801938872008"><ele>472.0</ele><time>2026-05-02T13:05:37.999Z</time></trkpt><trkpt lat="44.12255704494871" lon="11.001799121853127"><ele>472.0</ele><time>2026-05-02T13:05:38.999Z</time></trkpt><trkpt lat="44.12241467440296" lon="11.001910399415445"><ele>472.0</ele><time>2026-05-02T13:05:39.999Z</time></trkpt><trkpt lat="44.12225630408473" lon="11.002027524064713"><ele>474.33333333333337</ele><time>2026-05-02T13:05:40.999Z</time></trkpt><trkpt lat="44.12208079492328" lon="11.002159612271933"><ele>476.66666666666663</ele><time>2026-05-02T13:05:41.999Z</time></trkpt><trkpt lat="44.12190295130432" lon="11.0022939542371"><ele>479.0</ele><time>2026-05-02T13:05:42.999Z</time></trkpt><trkpt lat="44.12174634103591" lon="11.002407070557652"><ele>477.25</ele><time>2026-05-02T13:05:43.999Z</time></trkpt><trkpt lat="44.121609150877894" lon="11.002516339774768"><ele>475.5</ele><time>2026-05-02T13:05:44.999Z</time></trkpt><trkpt lat="44.12149289804052" lon="11.002603686969488"><ele>473.75</ele><time>2026-05-02T13:05:45.999Z</time></trkpt><trkpt lat="44.121380423774056" lon="11.002675656132334"><ele>472.0</ele><time>2026-05-02T13:05:46.999Z</time></trkpt><trkpt lat="44.12127436614663" lon="11.002703638231425"><ele>472.0</ele><time>2026-05-02T13:05:47.999Z</time></trkpt><trkpt lat="44.12116823497259" lon="11.002678570284008"><ele>472.0</ele><time>2026-05-02T13:05:48.999Z</time></trkpt><trkpt lat="44.12105603400075" lon="11.002593378178679"><ele>472.0</ele><time>2026-05-02T13:05:49.999Z</time></trkpt><trkpt lat="44.120943348681166" lon="11.002487668746829"><ele>472.0</ele><time>2026-05-02T13:05:50.999Z</time></trkpt><trkpt lat="44.12083065631248" lon="11.002428506165069"><ele>474.5</ele><time>2026-05-02T13:05:51.999Z</time></trkpt><trkpt lat="44.12070954926413" lon="11.002415303479022"><ele>477.0</ele><time>2026-05-02T13:05:52.999Z</time></trkpt><trkpt lat="44.120582210436574" lon="11.00245781886815"><ele>479.5</ele><time>2026-05-02T13:05:53.999Z</time></trkpt><trkpt lat="44.12042551188087" lon="11.002519193419646"><ele>482.0</ele><time>2026-05-02T13:05:54.999Z</time></trkpt><trkpt lat="44.12026584442866" lon="11.002595798183194"><ele>482.0</ele><time>2026-05-02T13:05:55.999Z</time></trkpt><trkpt lat="44.12012115268703" lon="11.002657808500421"><ele>482.0</ele><time>2026-05-02T13:05:56.999Z</time></trkpt><trkpt lat="44.119978575730045" lon="11.002639348009245"><ele>482.0</ele><time>2026-05-02T13:05:57.999Z</time></trkpt><trkpt lat="44.119836082603406" lon="11.002574147475647"><ele>482.0</ele><time>2026-05-02T13:05:58.999Z</time></trkpt><trkpt lat="44.11967443550694" lon="11.002495346992541"><ele>497.0</ele><time>2026-05-02T13:05:59.999Z</time></trkpt><trkpt lat="44.11949628870743" lon="11.002449948429541"><ele>512.0</ele><time>2026-05-02T13:06:00.999Z</time></trkpt><trkpt lat="44.119326023585685" lon="11.002440714949314"><ele>527.0</ele><time>2026-05-02T13:06:01.999Z</time></trkpt><trkpt lat="44.11915559017167" lon="11.002483408552154"><ele>518.3333333333333</ele><time>2026-05-02T13:06:02.999Z</time></trkpt><trkpt lat="44.118996863366405" lon="11.002584964901123"><ele>509.66666666666663</ele><time>2026-05-02T13:06:03.999Z</time></trkpt><trkpt lat="44.11886248176775" lon="11.002688502752099"><ele>501.0</ele><time>2026-05-02T13:06:04.999Z</time></trkpt><trkpt lat="44.118727295486245" lon="11.002721310185244"><ele>501.0</ele><time>2026-05-02T13:06:05.999Z</time></trkpt><trkpt lat="44.118582880590196" lon="11.00270825904366"><ele>501.0</ele><time>2026-05-02T13:06:06.999Z</time></trkpt><trkpt lat="44.1184342244071" lon="11.002638699764072"><ele>501.0</ele><time>2026-05-02T13:06:07.999Z</time></trkpt><trkpt lat="44.11826536415331" lon="11.002585594091107"><ele>509.0</ele><time>2026-05-02T13:06:08.999Z</time></trkpt><trkpt lat="44.11808158941213" lon="11.002601992373506"><ele>517.0</ele><time>2026-05-02T13:06:09.999Z</time></trkpt><trkpt lat="44.117898873027805" lon="11.002678774435068"><ele>525.0</ele><time>2026-05-02T13:06:10.999Z</time></trkpt><trkpt lat="44.11772420434942" lon="11.002813005525791"><ele>525.0</ele><time>2026-05-02T13:06:11.999Z</time></trkpt><trkpt lat="44.11754620672956" lon="11.002987878920003"><ele>525.0</ele><time>2026-05-02T13:06:12.999Z</time></trkpt><trkpt lat="44.117374886974304" lon="11.003173642333197"><ele>525.0</ele><time>2026-05-02T13:06:13.999Z</time></trkpt><trkpt lat="44.11718087615902" lon="11.003335151516016"><ele>522.5</ele><time>2026-05-02T13:06:14.999Z</time></trkpt><trkpt lat="44.1169638115687" lon="11.003494843041036"><ele>520.0</ele><time>2026-05-02T13:06:15.999Z</time></trkpt><trkpt lat="44.11675129337854" lon="11.003652939063361"><ele>524.6666666666667</ele><time>2026-05-02T13:06:16.999Z</time></trkpt><trkpt lat="44.11655649624724" lon="11.003795328754373"><ele>529.3333333333334</ele><time>2026-05-02T13:06:17.999Z</time></trkpt><trkpt lat="44.11638757110556" lon="11.003915631916591"><ele>534.0</ele><time>2026-05-02T13:06:18.999Z</time></trkpt><trkpt lat="44.116242045060545" lon="11.004009632464204"><ele>534.0</ele><time>2026-05-02T13:06:19.999Z</time></trkpt><trkpt lat="44.116101877477824" lon="11.004066479658347"><ele>534.0</ele><time>2026-05-02T13:06:20.999Z</time></trkpt><trkpt lat="44.1159492037686" lon="11.004076034781408"><ele>534.0</ele><time>2026-05-02T13:06:21.999Z</time></trkpt><trkpt lat="44.11576994698977" lon="11.00405276918251"><ele>528.6666666666666</ele><time>2026-05-02T13:06:22.999Z</time></trkpt><trkpt lat="44.115572216522395" lon="11.004032590314738"><ele>523.3333333333333</ele><time>2026-05-02T13:06:23.999Z</time></trkpt><trkpt lat="44.11539805816643" lon="11.004038770009972"><ele>518.0</ele><time>2026-05-02T13:06:24.999Z</time></trkpt><trkpt lat="44.11522497741254" lon="11.003951757125055"><ele>518.0</ele><time>2026-05-02T13:06:25.999Z</time></trkpt><trkpt lat="44.11504564772535" lon="11.003815054904933"><ele>518.0</ele><time>2026-05-02T13:06:26.999Z</time></trkpt><trkpt lat="44.11483584023792" lon="11.00371742522202"><ele>518.0</ele><time>2026-05-02T13:06:27.999Z</time></trkpt><trkpt lat="44.114610216163065" lon="11.003569537884609"><ele>524.0</ele><time>2026-05-02T13:06:28.999Z</time></trkpt><trkpt lat="44.114374600916506" lon="11.003426640107177"><ele>530.0</ele><time>2026-05-02T13:06:29.999Z</time></trkpt><trkpt lat="44.11414266736476" lon="11.003274572093543"><ele>515.0</ele><time>2026-05-02T13:06:31Z</time></trkpt><trkpt lat="44.11390387627883" lon="11.00310561762293"><ele>500.0</ele><time>2026-05-02T13:06:32Z</time></trkpt><trkpt lat="44.113667899048025" lon="11.00288840334601"><ele>500.0</ele><time>2026-05-02T13:06:33Z</time></trkpt><trkpt lat="44.11344121092414" lon="11.002643470555542"><ele>500.0</ele><time>2026-05-02T13:06:34Z</time></trkpt><trkpt lat="44.11323129855727" lon="11.002441320142431"><ele>498.0</ele><time>2026-05-02T13:06:35Z</time></trkpt><trkpt lat="44.11304639690453" lon="11.002258243785105"><ele>496.0</ele><time>2026-05-02T13:06:36Z</time></trkpt><trkpt lat="44.112865603568565" lon="11.002076609258106"><ele>496.0</ele><time>2026-05-02T13:06:37Z</time></trkpt><trkpt lat="44.112696252044124" lon="11.001833550968467"><ele>496.0</ele><time>2026-05-02T13:06:38Z</time></trkpt><trkpt lat="44.11254532139218" lon="11.00159330974939"><ele>505.6666666666667</ele><time>2026-05-02T13:06:39Z</time></trkpt><trkpt lat="44.11240334704409" lon="11.00138761211267"><ele>515.3333333333334</ele><time>2026-05-02T13:06:40Z</time></trkpt><trkpt lat="44.11226568881532" lon="11.00121457481553"><ele>525.0</ele><time>2026-05-02T13:06:41Z</time></trkpt><trkpt lat="44.112118647742065" lon="11.001082150801633"><ele>525.0</ele><time>2026-05-02T13:06:42Z</time></trkpt><trkpt lat="44.1119604070002" lon="11.00100862953585"><ele>525.0</ele><time>2026-05-02T13:06:43Z</time></trkpt><trkpt lat="44.11181361957855" lon="11.000971347224946"><ele>525.0</ele><time>2026-05-02T13:06:44Z</time></trkpt><trkpt lat="44.11167348316028" lon="11.000994373774896"><ele>529.0</ele><time>2026-05-02T13:06:45Z</time></trkpt><trkpt lat="44.11152264308703" lon="11.001084227719144"><ele>533.0</ele><time>2026-05-02T13:06:46Z</time></trkpt><trkpt lat="44.111381944501346" lon="11.00125556189565"><ele>537.0</ele><time>2026-05-02T13:06:47Z</time></trkpt><trkpt lat="44.11124867823359" lon="11.001427422729927"><ele>537.0</ele><time>2026-05-02T13:06:48Z</time></trkpt><trkpt lat="44.111130393790376" lon="11.001553295400404"><ele>537.0</ele><time>2026-05-02T13:06:49Z</time></trkpt><trkpt lat="44.111002077481345" lon="11.001625341944903"><ele>537.0</ele><time>2026-05-02T13:06:50Z</time></trkpt><trkpt lat="44.110847474760774" lon="11.001639338757341"><ele>537.0</ele><time>2026-05-02T13:06:51Z</time></trkpt><trkpt lat="44.11067506529809" lon="11.001613689493375"><ele>541.6666666666666</ele><time>2026-05-02T13:06:52Z</time></trkpt><trkpt lat="44.11048312393791" lon="11.001551433256015"><ele>546.3333333333333</ele><time>2026-05-02T13:06:53Z</time></trkpt><trkpt lat="44.11031011040989" lon="11.00147192482539"><ele>551.0</ele><time>2026-05-02T13:06:54Z</time></trkpt><trkpt lat="44.11015364434708" lon="11.001438533922673"><ele>551.0</ele><time>2026-05-02T13:06:55Z</time></trkpt><trkpt lat="44.11000183806906" lon="11.001473205273745"><ele>551.0</ele><time>2026-05-02T13:06:56Z</time></trkpt><trkpt lat="44.1098458027066" lon="11.00157582864201"><ele>551.0</ele><time>2026-05-02T13:06:57Z</time></trkpt><trkpt lat="44.10968795520844" lon="11.001730959094996"><ele>547.0</ele><time>2026-05-02T13:06:58Z</time></trkpt><trkpt lat="44.10953084271243" lon="11.001929644028088"><ele>543.0</ele><time>2026-05-02T13:06:59Z</time></trkpt><trkpt lat="44.10939448977015" lon="11.002161467652968"><ele>539.0</ele><time>2026-05-02T13:07:00Z</time></trkpt><trkpt lat="44.10927656412764" lon="11.002365970750569"><ele>533.5</ele><time>2026-05-02T13:07:01Z</time></trkpt><trkpt lat="44.10916719927648" lon="11.002525926168536"><ele>528.0</ele><time>2026-05-02T13:07:02Z</time></trkpt><trkpt lat="44.10906161528274" lon="11.002653449769184"><ele>522.5</ele><time>2026-05-02T13:07:03Z</time></trkpt><trkpt lat="44.108943771197076" lon="11.0027345528501"><ele>517.0</ele><time>2026-05-02T13:07:04Z</time></trkpt><trkpt lat="44.10880843314283" lon="11.00276807082605"><ele>517.0</ele><time>2026-05-02T13:07:05Z</time></trkpt><trkpt lat="44.10865634873601" lon="11.002706053952954"><ele>517.0</ele><time>2026-05-02T13:07:06Z</time></trkpt><trkpt lat="44.108486434709945" lon="11.002675770979847"><ele>517.0</ele><time>2026-05-02T13:07:07Z</time></trkpt><trkpt lat="44.10830184603433" lon="11.002670451143054"><ele>511.33333333333337</ele><time>2026-05-02T13:07:08Z</time></trkpt><trkpt lat="44.10809945335606" lon="11.002675648766205"><ele>505.66666666666663</ele><time>2026-05-02T13:07:09Z</time></trkpt><trkpt lat="44.10792856225346" lon="11.002710113201251"><ele>500.0</ele><time>2026-05-02T13:07:10Z</time></trkpt><trkpt lat="44.107771677272424" lon="11.002643980827287"><ele>500.0</ele><time>2026-05-02T13:07:11Z</time></trkpt><trkpt lat="44.10761755766226" lon="11.002555201281476"><ele>500.0</ele><time>2026-05-02T13:07:12Z</time></trkpt><trkpt lat="44.10747522683804" lon="11.002446694103948"><ele>500.0</ele><time>2026-05-02T13:07:13Z</time></trkpt><trkpt lat="44.107338159794594" lon="11.002295769840316"><ele>500.0</ele><time>2026-05-02T13:07:14Z</time></trkpt><trkpt lat="44.10720060008212" lon="11.002111584094198"><ele>500.0</ele><time>2026-05-02T13:07:15Z</time></trkpt><trkpt lat="44.10706516961545" lon="11.001902027503013"><ele>500.0</ele><time>2026-05-02T13:07:16Z</time></trkpt><trkpt lat="44.106935918283355" lon="11.001679747074622"><ele>503.3333333333333</ele><time>2026-05-02T13:07:17Z</time></trkpt><trkpt lat="44.10683232315429" lon="11.001432857354358"><ele>506.66666666666663</ele><time>2026-05-02T13:07:18Z</time></trkpt><trkpt lat="44.10675138985489" lon="11.001164474105265"><ele>510.0</ele><time>2026-05-02T13:07:19Z</time></trkpt><trkpt lat="44.1067029122468" lon="11.000876084386505"><ele>507.0</ele><time>2026-05-02T13:07:20Z</time></trkpt><trkpt lat="44.10667987408455" lon="11.000597696438165"><ele>504.0</ele><time>2026-05-02T13:07:21Z</time></trkpt><trkpt lat="44.10662761103949" lon="11.000350248107512"><ele>501.0</ele><time>2026-05-02T13:07:22Z</time></trkpt><trkpt lat="44.106534479509506" lon="11.000129223262054"><ele>501.0</ele><time>2026-05-02T13:07:23Z</time></trkpt><trkpt lat="44.10642385592351" lon="10.999923539581873"><ele>501.0</ele><time>2026-05-02T13:07:24Z</time></trkpt><trkpt lat="44.10628473982166" lon="10.999748702224807"><ele>501.0</ele><time>2026-05-02T13:07:25Z</time></trkpt><trkpt lat="44.106134734340195" lon="10.999608683591527"><ele>501.0</ele><time>2026-05-02T13:07:26Z</time></trkpt><trkpt lat="44.10598465330096" lon="10.999514148145675"><ele>501.0</ele><time>2026-05-02T13:07:27Z</time></trkpt><trkpt lat="44.1058286961688" lon="10.999475464723975"><ele>501.0</ele><time>2026-05-02T13:07:27.999Z</time></trkpt><trkpt lat="44.105663444116175" lon="10.999479314028918"><ele>501.66666666666663</ele><time>2026-05-02T13:07:28.999Z</time></trkpt><trkpt lat="44.105492829301895" lon="10.999527681144452"><ele>502.3333333333333</ele><time>2026-05-02T13:07:29.999Z</time></trkpt><trkpt lat="44.10533486513205" lon="10.999578063582222"><ele>503.0</ele><time>2026-05-02T13:07:30.999Z</time></trkpt><trkpt lat="44.105184250648634" lon="10.999575943278206"><ele>503.0</ele><time>2026-05-02T13:07:31.999Z</time></trkpt><trkpt lat="44.105046399614054" lon="10.999517937509001"><ele>503.0</ele><time>2026-05-02T13:07:32.999Z</time></trkpt><trkpt lat="44.10492162971172" lon="10.999454933997159"><ele>503.0</ele><time>2026-05-02T13:07:33.999Z</time></trkpt><trkpt lat="44.104796292472564" lon="10.999464396857055"><ele>503.0</ele><time>2026-05-02T13:07:34.999Z</time></trkpt><trkpt lat="44.10465707730515" lon="10.999543295046854"><ele>505.66666666666663</ele><time>2026-05-02T13:07:35.999Z</time></trkpt><trkpt lat="44.104500262523125" lon="10.999650334206743"><ele>508.33333333333337</ele><time>2026-05-02T13:07:36.999Z</time></trkpt><trkpt lat="44.10434292906133" lon="10.999753457077055"><ele>511.0</ele><time>2026-05-02T13:07:37.999Z</time></trkpt><trkpt lat="44.10419510947825" lon="10.999847648409707"><ele>515.0</ele><time>2026-05-02T13:07:38.999Z</time></trkpt><trkpt lat="44.10405651316818" lon="10.999946843213626"><ele>519.0</ele><time>2026-05-02T13:07:39.999Z</time></trkpt><trkpt lat="44.10393940196391" lon="11.0000407756887"><ele>523.0</ele><time>2026-05-02T13:07:40.999Z</time></trkpt><trkpt lat="44.10383885034024" lon="11.000100647932308"><ele>527.0</ele><time>2026-05-02T13:07:41.999Z</time></trkpt><trkpt lat="44.10374569784398" lon="11.000134524621568"><ele>527.0</ele><time>2026-05-02T13:07:42.999Z</time></trkpt><trkpt lat="44.103653605017755" lon="11.00013540577153"><ele>527.0</ele><time>2026-05-02T13:07:43.999Z</time></trkpt><trkpt lat="44.10355874357727" lon="11.000100317042913"><ele>527.0</ele><time>2026-05-02T13:07:44.999Z</time></trkpt><trkpt lat="44.103464716758545" lon="11.000026279810042"><ele>527.0</ele><time>2026-05-02T13:07:45.999Z</time></trkpt><trkpt lat="44.10338544129712" lon="10.999909369874725"><ele>527.0</ele><time>2026-05-02T13:07:46.999Z</time></trkpt><trkpt lat="44.103329715243895" lon="10.999761770043683"><ele>527.0</ele><time>2026-05-02T13:07:47.999Z</time></trkpt><trkpt lat="44.103296773559414" lon="10.999604880727306"><ele>527.0</ele><time>2026-05-02T13:07:48.999Z</time></trkpt><trkpt lat="44.103271932118034" lon="10.999461298704768"><ele>527.0</ele><time>2026-05-02T13:07:49.999Z</time></trkpt><trkpt lat="44.103236501166535" lon="10.999330082362391"><ele>527.0</ele><time>2026-05-02T13:07:50.999Z</time></trkpt><trkpt lat="44.10319551528694" lon="10.999215445928062"><ele>527.0</ele><time>2026-05-02T13:07:51.999Z</time></trkpt><trkpt lat="44.103150484453515" lon="10.99912684428952"><ele>525.6</ele><time>2026-05-02T13:07:52.999Z</time></trkpt><trkpt lat="44.103093862823265" lon="10.999056901657692"><ele>524.2</ele><time>2026-05-02T13:07:53.999Z</time></trkpt><trkpt lat="44.10302560512912" lon="10.999018294936901"><ele>522.8</ele><time>2026-05-02T13:07:54.999Z</time></trkpt><trkpt lat="44.10294740223772" lon="10.999018628017463"><ele>521.4</ele><time>2026-05-02T13:07:55.999Z</time></trkpt><trkpt lat="44.10284263955812" lon="10.999078208281283"><ele>520.0</ele><time>2026-05-02T13:07:56.999Z</time></trkpt><trkpt lat="44.102709845695216" lon="10.99914603556191"><ele>529.75</ele><time>2026-05-02T13:07:57.999Z</time></trkpt><trkpt lat="44.102555326685646" lon="10.999205466245515"><ele>539.5</ele><time>2026-05-02T13:07:58.999Z</time></trkpt><trkpt lat="44.10241996728649" lon="10.999241257710198"><ele>549.25</ele><time>2026-05-02T13:07:59.999Z</time></trkpt><trkpt lat="44.102309542783665" lon="10.999256930109672"><ele>559.0</ele><time>2026-05-02T13:08:00.999Z</time></trkpt><trkpt lat="44.102215498770455" lon="10.999262196947852"><ele>563.6</ele><time>2026-05-02T13:08:01.999Z</time></trkpt><trkpt lat="44.10212377862676" lon="10.999253850620896"><ele>568.2</ele><time>2026-05-02T13:08:02.999Z</time></trkpt><trkpt lat="44.10204453944081" lon="10.999224664181375"><ele>572.8000000000001</ele><time>2026-05-02T13:08:03.999Z</time></trkpt><trkpt lat="44.101960524376814" lon="10.999168782374841"><ele>577.4</ele><time>2026-05-02T13:08:04.999Z</time></trkpt><trkpt lat="44.101880406605154" lon="10.999062701221472"><ele>582.0</ele><time>2026-05-02T13:08:05.999Z</time></trkpt><trkpt lat="44.101784482858406" lon="10.998944587154112"><ele>569.0</ele><time>2026-05-02T13:08:06.999Z</time></trkpt><trkpt lat="44.10166966686635" lon="10.998806074311526"><ele>556.0</ele><time>2026-05-02T13:08:07.999Z</time></trkpt><trkpt lat="44.10153598000631" lon="10.998668442416946"><ele>543.0</ele><time>2026-05-02T13:08:08.999Z</time></trkpt><trkpt lat="44.1014143166001" lon="10.998506511695325"><ele>543.0</ele><time>2026-05-02T13:08:09.999Z</time></trkpt><trkpt lat="44.10126931487888" lon="10.998357158413803"><ele>543.0</ele><time>2026-05-02T13:08:10.999Z</time></trkpt><trkpt lat="44.10109933209101" lon="10.998223101079171"><ele>543.0</ele><time>2026-05-02T13:08:11.999Z</time></trkpt><trkpt lat="44.10090582866929" lon="10.998086238394773"><ele>545.5</ele><time>2026-05-02T13:08:12.999Z</time></trkpt><trkpt lat="44.10069766932977" lon="10.997970164862203"><ele>548.0</ele><time>2026-05-02T13:08:13.999Z</time></trkpt><trkpt lat="44.10046302904174" lon="10.997855849522477"><ele>548.0</ele><time>2026-05-02T13:08:14.999Z</time></trkpt><trkpt lat="44.10021319113059" lon="10.997735618135806"><ele>548.0</ele><time>2026-05-02T13:08:15.999Z</time></trkpt><trkpt lat="44.099982741372386" lon="10.997622571939873"><ele>547.3333333333333</ele><time>2026-05-02T13:08:16.999Z</time></trkpt><trkpt lat="44.09977392661844" lon="10.997520184550552"><ele>546.6666666666666</ele><time>2026-05-02T13:08:17.999Z</time></trkpt><trkpt lat="44.09960646988449" lon="10.997434563999532"><ele>546.0</ele><time>2026-05-02T13:08:18.999Z</time></trkpt><trkpt lat="44.09947294151177" lon="10.99735128595838"><ele>546.0</ele><time>2026-05-02T13:08:19.999Z</time></trkpt><trkpt lat="44.09937186464974" lon="10.9972646178755"><ele>546.0</ele><time>2026-05-02T13:08:20.999Z</time></trkpt><trkpt lat="44.09930282887448" lon="10.997162047044887"><ele>546.0</ele><time>2026-05-02T13:08:21.999Z</time></trkpt><trkpt lat="44.099297389784184" lon="10.99702327175093"><ele>546.0</ele><time>2026-05-02T13:08:22.999Z</time></trkpt><trkpt lat="44.099315477675084" lon="10.996863157803451"><ele>546.0</ele><time>2026-05-02T13:08:23.999Z</time></trkpt><trkpt lat="44.09931048003059" lon="10.99667900646013"><ele>545.3333333333334</ele><time>2026-05-02T13:08:24.999Z</time></trkpt><trkpt lat="44.09920071671582" lon="10.99649178889294"><ele>544.6666666666667</ele><time>2026-05-02T13:08:25.999Z</time></trkpt><trkpt lat="44.09908736818022" lon="10.996292780329615"><ele>544.0</ele><time>2026-05-02T13:08:26.999Z</time></trkpt><trkpt lat="44.09896612345682" lon="10.996070796811054"><ele>538.0</ele><time>2026-05-02T13:08:27.999Z</time></trkpt><trkpt lat="44.0988277013511" lon="10.995821715301465"><ele>532.0</ele><time>2026-05-02T13:08:28.999Z</time></trkpt><trkpt lat="44.098680412725706" lon="10.995571428169418"><ele>532.0</ele><time>2026-05-02T13:08:29.999Z</time></trkpt><trkpt lat="44.09850633065648" lon="10.995346302061069"><ele>532.0</ele><time>2026-05-02T13:08:30.999Z</time></trkpt><trkpt lat="44.098298798657275" lon="10.995140137004567"><ele>531.5</ele><time>2026-05-02T13:08:31.999Z</time></trkpt><trkpt lat="44.09807585169917" lon="10.994952618954825"><ele>531.0</ele><time>2026-05-02T13:08:32.999Z</time></trkpt><trkpt lat="44.09784949007005" lon="10.99476733504306"><ele>531.0</ele><time>2026-05-02T13:08:33.999Z</time></trkpt><trkpt lat="44.09761946274653" lon="10.994579360156138"><ele>531.0</ele><time>2026-05-02T13:08:34.999Z</time></trkpt><trkpt lat="44.097394146393334" lon="10.994390444023368"><ele>531.0</ele><time>2026-05-02T13:08:35.999Z</time></trkpt><trkpt lat="44.097169118051504" lon="10.9942016005217"><ele>531.0</ele><time>2026-05-02T13:08:37Z</time></trkpt><trkpt lat="44.096942781504154" lon="10.994020113432592"><ele>531.0</ele><time>2026-05-02T13:08:38Z</time></trkpt><trkpt lat="44.09671270365856" lon="10.993849724878388"><ele>531.0</ele><time>2026-05-02T13:08:39Z</time></trkpt><trkpt lat="44.09647819399509" lon="10.993685956384153"><ele>534.5</ele><time>2026-05-02T13:08:40Z</time></trkpt><trkpt lat="44.09624209508219" lon="10.993524722818986"><ele>538.0</ele><time>2026-05-02T13:08:41Z</time></trkpt><trkpt lat="44.096005021970505" lon="10.993366176943947"><ele>536.0</ele><time>2026-05-02T13:08:42Z</time></trkpt><trkpt lat="44.09576841861264" lon="10.99320468861796"><ele>534.0</ele><time>2026-05-02T13:08:43Z</time></trkpt><trkpt lat="44.09554022238159" lon="10.993046438863136"><ele>534.0</ele><time>2026-05-02T13:08:44Z</time></trkpt><trkpt lat="44.09533384256563" lon="10.9929062913554"><ele>534.0</ele><time>2026-05-02T13:08:45Z</time></trkpt><trkpt lat="44.095148061022826" lon="10.992768251666819"><ele>534.0</ele><time>2026-05-02T13:08:46Z</time></trkpt><trkpt lat="44.0949826353615" lon="10.992598221432575"><ele>533.6666666666666</ele><time>2026-05-02T13:08:47Z</time></trkpt><trkpt lat="44.094838911250534" lon="10.99238343001442"><ele>533.3333333333333</ele><time>2026-05-02T13:08:48Z</time></trkpt><trkpt lat="44.094707908408495" lon="10.992140488866527"><ele>533.0</ele><time>2026-05-02T13:08:49Z</time></trkpt><trkpt lat="44.09458303659635" lon="10.991893564794417"><ele>533.0</ele><time>2026-05-02T13:08:50Z</time></trkpt><trkpt lat="44.094474759701576" lon="10.99169286576543"><ele>533.0</ele><time>2026-05-02T13:08:51Z</time></trkpt><trkpt lat="44.09436734806742" lon="10.991525631198037"><ele>533.0</ele><time>2026-05-02T13:08:52Z</time></trkpt><trkpt lat="44.09422390595119" lon="10.991408157035321"><ele>535.6666666666666</ele><time>2026-05-02T13:08:53Z</time></trkpt><trkpt lat="44.09405028077754" lon="10.991347652625308"><ele>538.3333333333334</ele><time>2026-05-02T13:08:54Z</time></trkpt><trkpt lat="44.09385860417669" lon="10.99133429803693"><ele>541.0</ele><time>2026-05-02T13:08:55Z</time></trkpt><trkpt lat="44.09367582522408" lon="10.991354885688194"><ele>541.0</ele><time>2026-05-02T13:08:56Z</time></trkpt><trkpt lat="44.09352061989266" lon="10.99134459898261"><ele>541.0</ele><time>2026-05-02T13:08:57Z</time></trkpt><trkpt lat="44.093372590965785" lon="10.991292810647293"><ele>541.0</ele><time>2026-05-02T13:08:58Z</time></trkpt><trkpt lat="44.09322441954624" lon="10.991196498711505"><ele>541.3333333333334</ele><time>2026-05-02T13:08:59Z</time></trkpt><trkpt lat="44.093074618898356" lon="10.99107280892102"><ele>541.6666666666666</ele><time>2026-05-02T13:09:00Z</time></trkpt><trkpt lat="44.09292012334413" lon="10.99093822578525"><ele>542.0</ele><time>2026-05-02T13:09:01Z</time></trkpt><trkpt lat="44.09279319643329" lon="10.9907869702062"><ele>542.0</ele><time>2026-05-02T13:09:02Z</time></trkpt><trkpt lat="44.092662479241405" lon="10.990659922517699"><ele>542.0</ele><time>2026-05-02T13:09:03Z</time></trkpt><trkpt lat="44.09255740469842" lon="10.990491599032532"><ele>542.0</ele><time>2026-05-02T13:09:04Z</time></trkpt><trkpt lat="44.09248293788002" lon="10.990287749900713"><ele>542.5</ele><time>2026-05-02T13:09:05Z</time></trkpt><trkpt lat="44.0924024486527" lon="10.990129829418374"><ele>543.0</ele><time>2026-05-02T13:09:06Z</time></trkpt><trkpt lat="44.09233128093232" lon="10.99001397118073"><ele>543.5</ele><time>2026-05-02T13:09:07Z</time></trkpt><trkpt lat="44.092249770300235" lon="10.98990843376966"><ele>544.0</ele><time>2026-05-02T13:09:08Z</time></trkpt><trkpt lat="44.09216368925876" lon="10.98981381250805"><ele>544.0</ele><time>2026-05-02T13:09:09Z</time></trkpt><trkpt lat="44.092072377916416" lon="10.98972970483889"><ele>544.0</ele><time>2026-05-02T13:09:10Z</time></trkpt><trkpt lat="44.09196907391193" lon="10.989665431892869"><ele>544.0</ele><time>2026-05-02T13:09:11Z</time></trkpt><trkpt lat="44.09187169602088" lon="10.989582575060949"><ele>544.0</ele><time>2026-05-02T13:09:12Z</time></trkpt><trkpt lat="44.09176642107693" lon="10.989507428605167"><ele>544.0</ele><time>2026-05-02T13:09:13Z</time></trkpt><trkpt lat="44.09165405618504" lon="10.989447031099456"><ele>544.0</ele><time>2026-05-02T13:09:14Z</time></trkpt><trkpt lat="44.09153643006212" lon="10.989398771615113"><ele>544.0</ele><time>2026-05-02T13:09:15Z</time></trkpt><trkpt lat="44.091413416161004" lon="10.989353943353967"><ele>544.0</ele><time>2026-05-02T13:09:16Z</time></trkpt><trkpt lat="44.09128781744934" lon="10.98930815748984"><ele>544.0</ele><time>2026-05-02T13:09:17Z</time></trkpt><trkpt lat="44.09115771032872" lon="10.989270297513704"><ele>544.0</ele><time>2026-05-02T13:09:18Z</time></trkpt><trkpt lat="44.09101428093506" lon="10.989241452966851"><ele>544.0</ele><time>2026-05-02T13:09:19Z</time></trkpt><trkpt lat="44.09084333841329" lon="10.989243441261655"><ele>544.0</ele><time>2026-05-02T13:09:20Z</time></trkpt><trkpt lat="44.0906511762747" lon="10.989263475437461"><ele>547.0</ele><time>2026-05-02T13:09:21Z</time></trkpt><trkpt lat="44.09044336735135" lon="10.989321651594645"><ele>550.0</ele><time>2026-05-02T13:09:22Z</time></trkpt><trkpt lat="44.09022085052749" lon="10.989362110339545"><ele>553.0</ele><time>2026-05-02T13:09:23Z</time></trkpt><trkpt lat="44.09000723570113" lon="10.989419626572385"><ele>555.6666666666667</ele><time>2026-05-02T13:09:24Z</time></trkpt><trkpt lat="44.089818227486624" lon="10.989484666816567"><ele>558.3333333333334</ele><time>2026-05-02T13:09:25Z</time></trkpt><trkpt lat="44.08966072998669" lon="10.989538390433319"><ele>561.0</ele><time>2026-05-02T13:09:26Z</time></trkpt><trkpt lat="44.08951201348665" lon="10.98954314538841"><ele>561.0</ele><time>2026-05-02T13:09:27Z</time></trkpt><trkpt lat="44.08938802946771" lon="10.989487039469411"><ele>561.0</ele><time>2026-05-02T13:09:28Z</time></trkpt><trkpt lat="44.08930470376338" lon="10.989349656398144"><ele>561.0</ele><time>2026-05-02T13:09:29Z</time></trkpt><trkpt lat="44.08921100266342" lon="10.989174647604376"><ele>561.0</ele><time>2026-05-02T13:09:30Z</time></trkpt><trkpt lat="44.08911952980856" lon="10.988988862332253"><ele>562.6666666666666</ele><time>2026-05-02T13:09:31Z</time></trkpt><trkpt lat="44.08899919264313" lon="10.988836426350387"><ele>564.3333333333333</ele><time>2026-05-02T13:09:32Z</time></trkpt><trkpt lat="44.08886731826311" lon="10.988715465096067"><ele>566.0</ele><time>2026-05-02T13:09:33Z</time></trkpt><trkpt lat="44.08871860215583" lon="10.988649831995685"><ele>566.0</ele><time>2026-05-02T13:09:34Z</time></trkpt><trkpt lat="44.088548886846326" lon="10.988638886768497"><ele>566.0</ele><time>2026-05-02T13:09:35Z</time></trkpt><trkpt lat="44.08836383829302" lon="10.988613198450153"><ele>566.0</ele><time>2026-05-02T13:09:36Z</time></trkpt><trkpt lat="44.088165048478174" lon="10.98859107142093"><ele>567.0</ele><time>2026-05-02T13:09:37Z</time></trkpt><trkpt lat="44.08794904885225" lon="10.988565613567175"><ele>568.0</ele><time>2026-05-02T13:09:38Z</time></trkpt><trkpt lat="44.08774596561159" lon="10.98853246737113"><ele>569.0</ele><time>2026-05-02T13:09:39Z</time></trkpt><trkpt lat="44.0875592936772" lon="10.988507674165092"><ele>569.3333333333333</ele><time>2026-05-02T13:09:39.999Z</time></trkpt><trkpt lat="44.08738929599505" lon="10.988444482549546"><ele>569.6666666666666</ele><time>2026-05-02T13:09:40.999Z</time></trkpt><trkpt lat="44.08724887212642" lon="10.988341142369086"><ele>570.0</ele><time>2026-05-02T13:09:41.999Z</time></trkpt><trkpt lat="44.08713556374958" lon="10.988182917308041"><ele>570.0</ele><time>2026-05-02T13:09:42.999Z</time></trkpt><trkpt lat="44.08707136596777" lon="10.987956534051264"><ele>570.0</ele><time>2026-05-02T13:09:43.999Z</time></trkpt><trkpt lat="44.08698602543551" lon="10.987705972651547"><ele>570.0</ele><time>2026-05-02T13:09:44.999Z</time></trkpt><trkpt lat="44.08692619850993" lon="10.987435121586183"><ele>567.6666666666666</ele><time>2026-05-02T13:09:45.999Z</time></trkpt><trkpt lat="44.08681133544512" lon="10.987202219519814"><ele>565.3333333333333</ele><time>2026-05-02T13:09:46.999Z</time></trkpt><trkpt lat="44.08665310742655" lon="10.98702380390508"><ele>563.0</ele><time>2026-05-02T13:09:47.999Z</time></trkpt><trkpt lat="44.08646201775728" lon="10.986862772949848"><ele>564.0</ele><time>2026-05-02T13:09:48.999Z</time></trkpt><trkpt lat="44.08627404204008" lon="10.986657063353796"><ele>565.0</ele><time>2026-05-02T13:09:49.999Z</time></trkpt><trkpt lat="44.086102953392164" lon="10.98648914048576"><ele>566.0</ele><time>2026-05-02T13:09:50.999Z</time></trkpt><trkpt lat="44.085958360669004" lon="10.986331739420205"><ele>566.0</ele><time>2026-05-02T13:09:51.999Z</time></trkpt><trkpt lat="44.08582007596473" lon="10.9862142985216"><ele>566.0</ele><time>2026-05-02T13:09:52.999Z</time></trkpt><trkpt lat="44.085701524688666" lon="10.986129313467067"><ele>566.0</ele><time>2026-05-02T13:09:53.999Z</time></trkpt><trkpt lat="44.08557588063412" lon="10.986110106186732"><ele>566.0</ele><time>2026-05-02T13:09:54.999Z</time></trkpt><trkpt lat="44.08545698893189" lon="10.98615925384061"><ele>570.3333333333333</ele><time>2026-05-02T13:09:55.999Z</time></trkpt><trkpt lat="44.085344667854" lon="10.986280503024608"><ele>574.6666666666666</ele><time>2026-05-02T13:09:56.999Z</time></trkpt><trkpt lat="44.08524473289924" lon="10.986462637768257"><ele>579.0</ele><time>2026-05-02T13:09:57.999Z</time></trkpt><trkpt lat="44.085156122528794" lon="10.986667931630224"><ele>580.75</ele><time>2026-05-02T13:09:58.999Z</time></trkpt><trkpt lat="44.0850754252476" lon="10.986806103665185"><ele>582.5</ele><time>2026-05-02T13:09:59.999Z</time></trkpt><trkpt lat="44.084969784838485" lon="10.986903170804176"><ele>584.25</ele><time>2026-05-02T13:10:00.999Z</time></trkpt><trkpt lat="44.084850897258235" lon="10.986924927213698"><ele>586.0</ele><time>2026-05-02T13:10:01.999Z</time></trkpt><trkpt lat="44.084719990962085" lon="10.986878100686118"><ele>588.0</ele><time>2026-05-02T13:10:02.999Z</time></trkpt><trkpt lat="44.08457441974325" lon="10.986789908452536"><ele>590.0</ele><time>2026-05-02T13:10:03.999Z</time></trkpt><trkpt lat="44.08441306495598" lon="10.986674438555838"><ele>592.0</ele><time>2026-05-02T13:10:04.999Z</time></trkpt><trkpt lat="44.084236447305095" lon="10.986560208569845"><ele>593.3333333333334</ele><time>2026-05-02T13:10:05.999Z</time></trkpt><trkpt lat="44.08408587319242" lon="10.986435236102578"><ele>594.6666666666666</ele><time>2026-05-02T13:10:06.999Z</time></trkpt><trkpt lat="44.083951742263245" lon="10.98631384354537"><ele>596.0</ele><time>2026-05-02T13:10:07.999Z</time></trkpt><trkpt lat="44.08384339404453" lon="10.986127667499588"><ele>596.0</ele><time>2026-05-02T13:10:08.999Z</time></trkpt><trkpt lat="44.08377238508966" lon="10.985926449840623"><ele>596.0</ele><time>2026-05-02T13:10:09.999Z</time></trkpt><trkpt lat="44.08368487447628" lon="10.98580601825582"><ele>596.0</ele><time>2026-05-02T13:10:10.999Z</time></trkpt><trkpt lat="44.083580222009424" lon="10.985724925466524"><ele>596.0</ele><time>2026-05-02T13:10:11.999Z</time></trkpt><trkpt lat="44.08343369941885" lon="10.985710166481395"><ele>597.0</ele><time>2026-05-02T13:10:12.999Z</time></trkpt><trkpt lat="44.08327100405311" lon="10.985779209313561"><ele>598.0</ele><time>2026-05-02T13:10:13.999Z</time></trkpt><trkpt lat="44.08308147424919" lon="10.985865256594197"><ele>599.0</ele><time>2026-05-02T13:10:14.999Z</time></trkpt><trkpt lat="44.082876639569726" lon="10.985924810054197"><ele>599.0</ele><time>2026-05-02T13:10:15.999Z</time></trkpt><trkpt lat="44.082670813715474" lon="10.98596153003972"><ele>599.0</ele><time>2026-05-02T13:10:16.999Z</time></trkpt><trkpt lat="44.08246016454236" lon="10.985966445120068"><ele>599.0</ele><time>2026-05-02T13:10:17.999Z</time></trkpt><trkpt lat="44.082248709310406" lon="10.98595589237722"><ele>598.3333333333333</ele><time>2026-05-02T13:10:18.999Z</time></trkpt><trkpt lat="44.082048865838374" lon="10.985954730572857"><ele>597.6666666666666</ele><time>2026-05-02T13:10:19.999Z</time></trkpt><trkpt lat="44.08186956759934" lon="10.985937704209967"><ele>597.0</ele><time>2026-05-02T13:10:20.999Z</time></trkpt><trkpt lat="44.08170291486308" lon="10.985952773257935"><ele>595.5</ele><time>2026-05-02T13:10:21.999Z</time></trkpt><trkpt lat="44.08155947525007" lon="10.985928068960611"><ele>594.0</ele><time>2026-05-02T13:10:22.999Z</time></trkpt><trkpt lat="44.081438805378475" lon="10.985860721836087"><ele>592.5</ele><time>2026-05-02T13:10:23.999Z</time></trkpt><trkpt lat="44.081344588701334" lon="10.985716072352918"><ele>591.0</ele><time>2026-05-02T13:10:24.999Z</time></trkpt><trkpt lat="44.0812231081074" lon="10.985555925084338"><ele>591.0</ele><time>2026-05-02T13:10:25.999Z</time></trkpt><trkpt lat="44.08110312123558" lon="10.985381845862415"><ele>591.0</ele><time>2026-05-02T13:10:26.999Z</time></trkpt><trkpt lat="44.08099287661214" lon="10.985233828296645"><ele>591.0</ele><time>2026-05-02T13:10:27.999Z</time></trkpt><trkpt lat="44.08087863971527" lon="10.985118627017417"><ele>593.3333333333334</ele><time>2026-05-02T13:10:28.999Z</time></trkpt><trkpt lat="44.080752662559675" lon="10.985034681883867"><ele>595.6666666666667</ele><time>2026-05-02T13:10:29.999Z</time></trkpt><trkpt lat="44.08060737130269" lon="10.984989329645565"><ele>598.0</ele><time>2026-05-02T13:10:30.999Z</time></trkpt><trkpt lat="44.08044037467576" lon="10.984992533690784"><ele>601.6666666666667</ele><time>2026-05-02T13:10:31.999Z</time></trkpt><trkpt lat="44.08025222168798" lon="10.985034739966764"><ele>605.3333333333334</ele><time>2026-05-02T13:10:32.999Z</time></trkpt><trkpt lat="44.08004936712063" lon="10.985059738097458"><ele>609.0</ele><time>2026-05-02T13:10:33.999Z</time></trkpt><trkpt lat="44.07983593873971" lon="10.985100700246536"><ele>610.3333333333334</ele><time>2026-05-02T13:10:34.999Z</time></trkpt><trkpt lat="44.07963020790047" lon="10.98514771868935"><ele>611.6666666666667</ele><time>2026-05-02T13:10:35.999Z</time></trkpt><trkpt lat="44.079440124809395" lon="10.985141935665366"><ele>613.0</ele><time>2026-05-02T13:10:36.999Z</time></trkpt><trkpt lat="44.079250546196775" lon="10.98508866133819"><ele>612.0</ele><time>2026-05-02T13:10:37.999Z</time></trkpt><trkpt lat="44.07905946282083" lon="10.984986006605345"><ele>611.0</ele><time>2026-05-02T13:10:38.999Z</time></trkpt><trkpt lat="44.07887932524819" lon="10.984904622507262"><ele>610.0</ele><time>2026-05-02T13:10:39.999Z</time></trkpt><trkpt lat="44.0786932398396" lon="10.984883249949702"><ele>610.0</ele><time>2026-05-02T13:10:40.999Z</time></trkpt><trkpt lat="44.07849088501062" lon="10.984918715785657"><ele>610.0</ele><time>2026-05-02T13:10:41.999Z</time></trkpt><trkpt lat="44.07828624289979" lon="10.984997975943692"><ele>610.0</ele><time>2026-05-02T13:10:43Z</time></trkpt><trkpt lat="44.07807873131719" lon="10.985119282555784"><ele>608.6666666666667</ele><time>2026-05-02T13:10:44Z</time></trkpt><trkpt lat="44.077874214787784" lon="10.98526000710115"><ele>607.3333333333334</ele><time>2026-05-02T13:10:45Z</time></trkpt><trkpt lat="44.07768107071283" lon="10.985371301867358"><ele>606.0</ele><time>2026-05-02T13:10:46Z</time></trkpt><trkpt lat="44.07749228491811" lon="10.98543403968219"><ele>608.6666666666666</ele><time>2026-05-02T13:10:47Z</time></trkpt><trkpt lat="44.0773040604886" lon="10.985458389833838"><ele>611.3333333333333</ele><time>2026-05-02T13:10:48Z</time></trkpt><trkpt lat="44.07712982881264" lon="10.985466863320518"><ele>614.0</ele><time>2026-05-02T13:10:49Z</time></trkpt><trkpt lat="44.07699017410577" lon="10.985452028033572"><ele>614.0</ele><time>2026-05-02T13:10:50Z</time></trkpt><trkpt lat="44.07687141817246" lon="10.985392756655205"><ele>614.0</ele><time>2026-05-02T13:10:51Z</time></trkpt><trkpt lat="44.07677856940447" lon="10.985288142926885"><ele>614.0</ele><time>2026-05-02T13:10:52Z</time></trkpt><trkpt lat="44.07671495637786" lon="10.985124229087553"><ele>614.0</ele><time>2026-05-02T13:10:53Z</time></trkpt><trkpt lat="44.07663160844443" lon="10.984927325845081"><ele>623.0</ele><time>2026-05-02T13:10:54Z</time></trkpt><trkpt lat="44.07656157236781" lon="10.984686734945784"><ele>632.0</ele><time>2026-05-02T13:10:55Z</time></trkpt><trkpt lat="44.07647652060635" lon="10.98442701097208"><ele>641.0</ele><time>2026-05-02T13:10:56Z</time></trkpt><trkpt lat="44.07639650451221" lon="10.984182603969838"><ele>633.0</ele><time>2026-05-02T13:10:57Z</time></trkpt><trkpt lat="44.07632669688462" lon="10.983970850786081"><ele>625.0</ele><time>2026-05-02T13:10:58Z</time></trkpt><trkpt lat="44.076259293222535" lon="10.983768497216774"><ele>617.0</ele><time>2026-05-02T13:10:59Z</time></trkpt><trkpt lat="44.07619026529054" lon="10.98356485479829"><ele>617.0</ele><time>2026-05-02T13:11:00Z</time></trkpt><trkpt lat="44.07610245486143" lon="10.983377430094901"><ele>617.0</ele><time>2026-05-02T13:11:01Z</time></trkpt><trkpt lat="44.07600219773746" lon="10.983219428161963"><ele>617.0</ele><time>2026-05-02T13:11:02Z</time></trkpt><trkpt lat="44.075896887238095" lon="10.983094058704229"><ele>615.3333333333333</ele><time>2026-05-02T13:11:03Z</time></trkpt><trkpt lat="44.07577973318895" lon="10.983010115246827"><ele>613.6666666666666</ele><time>2026-05-02T13:11:04Z</time></trkpt><trkpt lat="44.07561619294489" lon="10.982952871374003"><ele>612.0</ele><time>2026-05-02T13:11:05Z</time></trkpt><trkpt lat="44.07542775034035" lon="10.98288718899247"><ele>617.0</ele><time>2026-05-02T13:11:06Z</time></trkpt><trkpt lat="44.07523574117273" lon="10.982843297755615"><ele>622.0</ele><time>2026-05-02T13:11:07Z</time></trkpt><trkpt lat="44.07506865274321" lon="10.982758721738765"><ele>627.0</ele><time>2026-05-02T13:11:08Z</time></trkpt><trkpt lat="44.07492125637691" lon="10.982674604391033"><ele>627.0</ele><time>2026-05-02T13:11:09Z</time></trkpt><trkpt lat="44.0747904172706" lon="10.982575365066499"><ele>627.0</ele><time>2026-05-02T13:11:10Z</time></trkpt><trkpt lat="44.07467610877161" lon="10.982450584613822"><ele>627.0</ele><time>2026-05-02T13:11:11Z</time></trkpt><trkpt lat="44.074572460143166" lon="10.982295312959131"><ele>627.0</ele><time>2026-05-02T13:11:12Z</time></trkpt><trkpt lat="44.074487765488094" lon="10.982078600622192"><ele>627.0</ele><time>2026-05-02T13:11:13Z</time></trkpt><trkpt lat="44.074380374287145" lon="10.981838905804592"><ele>627.0</ele><time>2026-05-02T13:11:14Z</time></trkpt><trkpt lat="44.07425863123818" lon="10.981605776029232"><ele>627.0</ele><time>2026-05-02T13:11:15Z</time></trkpt><trkpt lat="44.07415700673493" lon="10.981379330307867"><ele>626.75</ele><time>2026-05-02T13:11:16Z</time></trkpt><trkpt lat="44.074070359823196" lon="10.981180974987128"><ele>626.5</ele><time>2026-05-02T13:11:17Z</time></trkpt><trkpt lat="44.074033247078866" lon="10.9809976777205"><ele>626.25</ele><time>2026-05-02T13:11:18Z</time></trkpt><trkpt lat="44.074050512883744" lon="10.980815470907697"><ele>626.0</ele><time>2026-05-02T13:11:19Z</time></trkpt><trkpt lat="44.07405532552309" lon="10.98058775308812"><ele>626.0</ele><time>2026-05-02T13:11:20Z</time></trkpt><trkpt lat="44.074052946492266" lon="10.980365192210751"><ele>626.0</ele><time>2026-05-02T13:11:21Z</time></trkpt><trkpt lat="44.07399168055548" lon="10.98013982132015"><ele>626.0</ele><time>2026-05-02T13:11:22Z</time></trkpt><trkpt lat="44.07390537803151" lon="10.979950491556526"><ele>624.6666666666666</ele><time>2026-05-02T13:11:23Z</time></trkpt><trkpt lat="44.07379770963618" lon="10.979822199942962"><ele>623.3333333333334</ele><time>2026-05-02T13:11:24Z</time></trkpt><trkpt lat="44.07365542689723" lon="10.979745561213937"><ele>622.0</ele><time>2026-05-02T13:11:25Z</time></trkpt><trkpt lat="44.07347688656226" lon="10.979704636799521"><ele>622.0</ele><time>2026-05-02T13:11:26Z</time></trkpt><trkpt lat="44.07328316094424" lon="10.979686609451253"><ele>622.0</ele><time>2026-05-02T13:11:27Z</time></trkpt><trkpt lat="44.073091626193076" lon="10.979655536277763"><ele>622.0</ele><time>2026-05-02T13:11:28Z</time></trkpt><trkpt lat="44.07291773698643" lon="10.979602496146374"><ele>624.3333333333334</ele><time>2026-05-02T13:11:29Z</time></trkpt><trkpt lat="44.07276433398774" lon="10.979521239130634"><ele>626.6666666666666</ele><time>2026-05-02T13:11:30Z</time></trkpt><trkpt lat="44.07264044616329" lon="10.97941360439935"><ele>629.0</ele><time>2026-05-02T13:11:31Z</time></trkpt><trkpt lat="44.07253133779438" lon="10.97925042608116"><ele>631.0</ele><time>2026-05-02T13:11:32Z</time></trkpt><trkpt lat="44.07242659243184" lon="10.979044421405598"><ele>633.0</ele><time>2026-05-02T13:11:33Z</time></trkpt><trkpt lat="44.07232134818457" lon="10.978802437776954"><ele>635.0</ele><time>2026-05-02T13:11:34Z</time></trkpt><trkpt lat="44.07219358873061" lon="10.978551309012124"><ele>632.3333333333333</ele><time>2026-05-02T13:11:35Z</time></trkpt><trkpt lat="44.07206257630332" lon="10.978293503557945"><ele>629.6666666666666</ele><time>2026-05-02T13:11:36Z</time></trkpt><trkpt lat="44.07192540458396" lon="10.978053915242931"><ele>627.0</ele><time>2026-05-02T13:11:37Z</time></trkpt><trkpt lat="44.07181252780778" lon="10.977809026963442"><ele>627.0</ele><time>2026-05-02T13:11:38Z</time></trkpt><trkpt lat="44.07168996471499" lon="10.977595632916517"><ele>627.0</ele><time>2026-05-02T13:11:39Z</time></trkpt><trkpt lat="44.07154752695816" lon="10.97741906411229"><ele>627.0</ele><time>2026-05-02T13:11:40Z</time></trkpt><trkpt lat="44.07140218604049" lon="10.977261628848176"><ele>629.3333333333334</ele><time>2026-05-02T13:11:41Z</time></trkpt><trkpt lat="44.07127993896193" lon="10.977100463791047"><ele>631.6666666666667</ele><time>2026-05-02T13:11:42Z</time></trkpt><trkpt lat="44.07118502579159" lon="10.976939209464676"><ele>634.0</ele><time>2026-05-02T13:11:43Z</time></trkpt><trkpt lat="44.07114542582531" lon="10.976741539267756"><ele>633.0</ele><time>2026-05-02T13:11:44Z</time></trkpt><trkpt lat="44.071119631591806" lon="10.97652293551134"><ele>632.0</ele><time>2026-05-02T13:11:45Z</time></trkpt><trkpt lat="44.07107990400678" lon="10.976289289559583"><ele>631.0</ele><time>2026-05-02T13:11:46Z</time></trkpt><trkpt lat="44.07097736439031" lon="10.976064018061837"><ele>631.0</ele><time>2026-05-02T13:11:47Z</time></trkpt><trkpt lat="44.07082798204845" lon="10.975886676451301"><ele>631.0</ele><time>2026-05-02T13:11:48Z</time></trkpt><trkpt lat="44.07065689469106" lon="10.97570242682167"><ele>631.0</ele><time>2026-05-02T13:11:49Z</time></trkpt><trkpt lat="44.070476974772845" lon="10.975510650363312"><ele>633.0</ele><time>2026-05-02T13:11:50Z</time></trkpt><trkpt lat="44.0702985996692" lon="10.975309973976106"><ele>635.0</ele><time>2026-05-02T13:11:51Z</time></trkpt><trkpt lat="44.07011408713175" lon="10.975105220806267"><ele>643.5</ele><time>2026-05-02T13:11:52Z</time></trkpt><trkpt lat="44.06992985096215" lon="10.974911295966256"><ele>652.0</ele><time>2026-05-02T13:11:53Z</time></trkpt><trkpt lat="44.06975188846359" lon="10.97472808386415"><ele>652.0</ele><time>2026-05-02T13:11:54Z</time></trkpt><trkpt lat="44.06959300521047" lon="10.974537342275257"><ele>652.0</ele><time>2026-05-02T13:11:55Z</time></trkpt><trkpt lat="44.06946718694244" lon="10.974321783613775"><ele>652.0</ele><time>2026-05-02T13:11:55.999Z</time></trkpt><trkpt lat="44.069348214594946" lon="10.974122755479948"><ele>654.6666666666667</ele><time>2026-05-02T13:11:56.999Z</time></trkpt><trkpt lat="44.0692389575411" lon="10.973930815440312"><ele>657.3333333333334</ele><time>2026-05-02T13:11:57.999Z</time></trkpt><trkpt lat="44.06912297472322" lon="10.973761057150657"><ele>660.0</ele><time>2026-05-02T13:11:58.999Z</time></trkpt><trkpt lat="44.069017650605396" lon="10.973581320904232"><ele>660.0</ele><time>2026-05-02T13:11:59.999Z</time></trkpt><trkpt lat="44.06889169588153" lon="10.973420323037116"><ele>660.0</ele><time>2026-05-02T13:12:00.999Z</time></trkpt><trkpt lat="44.06875418332395" lon="10.973301600326337"><ele>660.0</ele><time>2026-05-02T13:12:01.999Z</time></trkpt><trkpt lat="44.06860247247508" lon="10.97321985851792"><ele>654.6666666666666</ele><time>2026-05-02T13:12:02.999Z</time></trkpt><trkpt lat="44.06843361007786" lon="10.97314025829674"><ele>649.3333333333333</ele><time>2026-05-02T13:12:03.999Z</time></trkpt><trkpt lat="44.0682888554181" lon="10.973016794500335"><ele>644.0</ele><time>2026-05-02T13:12:04.999Z</time></trkpt><trkpt lat="44.06814939840741" lon="10.972912488136407"><ele>644.0</ele><time>2026-05-02T13:12:05.999Z</time></trkpt><trkpt lat="44.06800935455925" lon="10.972865552600371"><ele>644.0</ele><time>2026-05-02T13:12:06.999Z</time></trkpt><trkpt lat="44.06785656217742" lon="10.972872267470382"><ele>644.0</ele><time>2026-05-02T13:12:07.999Z</time></trkpt><trkpt lat="44.06768923166652" lon="10.972939619615753"><ele>644.0</ele><time>2026-05-02T13:12:08.999Z</time></trkpt><trkpt lat="44.067513509975115" lon="10.973024128438428"><ele>644.0</ele><time>2026-05-02T13:12:09.999Z</time></trkpt><trkpt lat="44.06733848719038" lon="10.973064793442088"><ele>644.0</ele><time>2026-05-02T13:12:10.999Z</time></trkpt><trkpt lat="44.067174021207066" lon="10.973071443233227"><ele>649.0</ele><time>2026-05-02T13:12:11.999Z</time></trkpt><trkpt lat="44.06702281486717" lon="10.973033009510027"><ele>654.0</ele><time>2026-05-02T13:12:12.999Z</time></trkpt><trkpt lat="44.06687279988037" lon="10.972930077067378"><ele>659.0</ele><time>2026-05-02T13:12:13.999Z</time></trkpt><trkpt lat="44.066711566442855" lon="10.972832702216468"><ele>659.0</ele><time>2026-05-02T13:12:14.999Z</time></trkpt><trkpt lat="44.066547118880884" lon="10.972729579709842"><ele>659.0</ele><time>2026-05-02T13:12:15.999Z</time></trkpt><trkpt lat="44.06638684983505" lon="10.972633264010511"><ele>659.0</ele><time>2026-05-02T13:12:16.999Z</time></trkpt><trkpt lat="44.06626966656939" lon="10.972487766946138"><ele>659.0</ele><time>2026-05-02T13:12:17.999Z</time></trkpt><trkpt lat="44.06617571560804" lon="10.972324589852777"><ele>659.0</ele><time>2026-05-02T13:12:18.999Z</time></trkpt><trkpt lat="44.06611883169259" lon="10.972112766456368"><ele>659.0</ele><time>2026-05-02T13:12:19.999Z</time></trkpt><trkpt lat="44.066047130235546" lon="10.971884198621055"><ele>657.3333333333333</ele><time>2026-05-02T13:12:20.999Z</time></trkpt><trkpt lat="44.06598148805748" lon="10.971629701095747"><ele>655.6666666666666</ele><time>2026-05-02T13:12:21.999Z</time></trkpt><trkpt lat="44.06589189943734" lon="10.971371606216607"><ele>654.0</ele><time>2026-05-02T13:12:22.999Z</time></trkpt><trkpt lat="44.065782173623134" lon="10.971108636613517"><ele>656.6666666666666</ele><time>2026-05-02T13:12:23.999Z</time></trkpt><trkpt lat="44.06565360799822" lon="10.97085195754499"><ele>659.3333333333333</ele><time>2026-05-02T13:12:24.999Z</time></trkpt><trkpt lat="44.06550725842196" lon="10.97062002437329"><ele>662.0</ele><time>2026-05-02T13:12:25.999Z</time></trkpt><trkpt lat="44.06534471732536" lon="10.970430633340218"><ele>662.0</ele><time>2026-05-02T13:12:26.999Z</time></trkpt><trkpt lat="44.06516931227291" lon="10.970281144145444"><ele>662.0</ele><time>2026-05-02T13:12:27.999Z</time></trkpt><trkpt lat="44.06496684557756" lon="10.97015951393648"><ele>662.0</ele><time>2026-05-02T13:12:28.999Z</time></trkpt><trkpt lat="44.06474994986127" lon="10.970049061721264"><ele>660.5</ele><time>2026-05-02T13:12:29.999Z</time></trkpt><trkpt lat="44.064522553902485" lon="10.96994872141128"><ele>659.0</ele><time>2026-05-02T13:12:30.999Z</time></trkpt><trkpt lat="44.06429860611377" lon="10.96988891369303"><ele>661.6666666666666</ele><time>2026-05-02T13:12:31.999Z</time></trkpt><trkpt lat="44.0641011462023" lon="10.969866633017666"><ele>664.3333333333334</ele><time>2026-05-02T13:12:32.999Z</time></trkpt><trkpt lat="44.06393979516781" lon="10.969830674474405"><ele>667.0</ele><time>2026-05-02T13:12:33.999Z</time></trkpt><trkpt lat="44.06380018662726" lon="10.969786349243785"><ele>667.0</ele><time>2026-05-02T13:12:34.999Z</time></trkpt><trkpt lat="44.0636720783568" lon="10.969717480711243"><ele>667.0</ele><time>2026-05-02T13:12:35.999Z</time></trkpt><trkpt lat="44.06356147619408" lon="10.96962857158945"><ele>667.0</ele><time>2026-05-02T13:12:36.999Z</time></trkpt><trkpt lat="44.06347580248039" lon="10.96948611534167"><ele>667.0</ele><time>2026-05-02T13:12:37.999Z</time></trkpt><trkpt lat="44.06336405747285" lon="10.969334747792836"><ele>670.3333333333334</ele><time>2026-05-02T13:12:38.999Z</time></trkpt><trkpt lat="44.06325104654809" lon="10.969146593556744"><ele>673.6666666666666</ele><time>2026-05-02T13:12:39.999Z</time></trkpt><trkpt lat="44.06312063601666" lon="10.968947670854103"><ele>677.0</ele><time>2026-05-02T13:12:40.999Z</time></trkpt><trkpt lat="44.06298145100769" lon="10.968724474894277"><ele>677.0</ele><time>2026-05-02T13:12:41.999Z</time></trkpt><trkpt lat="44.06283509645006" lon="10.968481202284263"><ele>677.0</ele><time>2026-05-02T13:12:42.999Z</time></trkpt><trkpt lat="44.06268881723581" lon="10.968216434412456"><ele>671.5</ele><time>2026-05-02T13:12:43.999Z</time></trkpt><trkpt lat="44.06254417298119" lon="10.967929145928807"><ele>666.0</ele><time>2026-05-02T13:12:44.999Z</time></trkpt><trkpt lat="44.06241102773026" lon="10.967641551001584"><ele>679.0</ele><time>2026-05-02T13:12:45.999Z</time></trkpt><trkpt lat="44.06227823239131" lon="10.967353069825268"><ele>692.0</ele><time>2026-05-02T13:12:46.999Z</time></trkpt><trkpt lat="44.06214494936014" lon="10.967055368047538"><ele>692.0</ele><time>2026-05-02T13:12:47.999Z</time></trkpt><trkpt lat="44.06200314378449" lon="10.966759047000739"><ele>692.0</ele><time>2026-05-02T13:12:49Z</time></trkpt><trkpt lat="44.061860108950356" lon="10.96648216705521"><ele>695.0</ele><time>2026-05-02T13:12:50Z</time></trkpt><trkpt lat="44.06172546608086" lon="10.966229238997098"><ele>698.0</ele><time>2026-05-02T13:12:51Z</time></trkpt><trkpt lat="44.061596561841924" lon="10.965997377750947"><ele>701.0</ele><time>2026-05-02T13:12:52Z</time></trkpt><trkpt lat="44.06146478801449" lon="10.96579115085532"><ele>701.0</ele><time>2026-05-02T13:12:53Z</time></trkpt><trkpt lat="44.06131607723407" lon="10.965593198906854"><ele>701.0</ele><time>2026-05-02T13:12:54Z</time></trkpt><trkpt lat="44.06113477261526" lon="10.965429587044273"><ele>701.0</ele><time>2026-05-02T13:12:55Z</time></trkpt><trkpt lat="44.060975744509236" lon="10.965189904432364"><ele>691.5</ele><time>2026-05-02T13:12:56Z</time></trkpt><trkpt lat="44.060826341299475" lon="10.964918614865063"><ele>682.0</ele><time>2026-05-02T13:12:57Z</time></trkpt><trkpt lat="44.06067884967062" lon="10.964646465735846"><ele>695.0</ele><time>2026-05-02T13:12:58Z</time></trkpt><trkpt lat="44.060542461773466" lon="10.96436907018592"><ele>708.0</ele><time>2026-05-02T13:12:59Z</time></trkpt><trkpt lat="44.060419845376956" lon="10.964084029859677"><ele>708.0</ele><time>2026-05-02T13:13:00Z</time></trkpt><trkpt lat="44.060316041128814" lon="10.963796295251488"><ele>708.0</ele><time>2026-05-02T13:13:01Z</time></trkpt><trkpt lat="44.060236803866744" lon="10.963523518841939"><ele>708.0</ele><time>2026-05-02T13:13:02Z</time></trkpt><trkpt lat="44.06017187327958" lon="10.963272385846697"><ele>704.0</ele><time>2026-05-02T13:13:03Z</time></trkpt><trkpt lat="44.06011952954468" lon="10.96306699533508"><ele>700.0</ele><time>2026-05-02T13:13:04Z</time></trkpt><trkpt lat="44.0600691692384" lon="10.962888567951602"><ele>696.0</ele><time>2026-05-02T13:13:05Z</time></trkpt><trkpt lat="44.060025752824714" lon="10.962742551172415"><ele>692.0</ele><time>2026-05-02T13:13:06Z</time></trkpt><trkpt lat="44.06000419667299" lon="10.96265906991232"><ele>692.0</ele><time>2026-05-02T13:13:07Z</time></trkpt><trkpt lat="44.059972916339575" lon="10.962543194760443"><ele>692.0</ele><time>2026-05-02T13:15:12Z</time></trkpt><trkpt lat="44.05992418358074" lon="10.96247552814755"><ele>692.0</ele><time>2026-05-02T13:15:13Z</time></trkpt><trkpt lat="44.05986147918012" lon="10.962392570327241"><ele>692.0</ele><time>2026-05-02T13:15:14Z</time></trkpt><trkpt lat="44.05978687925974" lon="10.962289907620724"><ele>692.0</ele><time>2026-05-02T13:15:15Z</time></trkpt><trkpt lat="44.05971174823904" lon="10.962189292802083"><ele>691.0</ele><time>2026-05-02T13:15:16Z</time></trkpt><trkpt lat="44.059643191907156" lon="10.962101776292872"><ele>690.0</ele><time>2026-05-02T13:15:17Z</time></trkpt><trkpt lat="44.05956041144347" lon="10.962040496847292"><ele>689.0</ele><time>2026-05-02T13:15:18Z</time></trkpt><trkpt lat="44.05945972738948" lon="10.962005268825749"><ele>688.0</ele><time>2026-05-02T13:15:19Z</time></trkpt><trkpt lat="44.05933425348079" lon="10.96202936726125"><ele>687.0</ele><time>2026-05-02T13:15:20Z</time></trkpt><trkpt lat="44.05920334874892" lon="10.962093957920288"><ele>692.4000000000001</ele><time>2026-05-02T13:15:21Z</time></trkpt><trkpt lat="44.05909490129039" lon="10.962111231039312"><ele>697.8000000000001</ele><time>2026-05-02T13:15:22Z</time></trkpt><trkpt lat="44.05901052148865" lon="10.962077371105465"><ele>703.2</ele><time>2026-05-02T13:15:23Z</time></trkpt><trkpt lat="44.05893232612806" lon="10.962007700815267"><ele>708.6</ele><time>2026-05-02T13:15:24Z</time></trkpt><trkpt lat="44.05886009947613" lon="10.961881009378427"><ele>714.0</ele><time>2026-05-02T13:15:25Z</time></trkpt><trkpt lat="44.058781680061315" lon="10.961703226532261"><ele>707.3333333333334</ele><time>2026-05-02T13:15:26Z</time></trkpt><trkpt lat="44.0586875857868" lon="10.961499800208685"><ele>700.6666666666667</ele><time>2026-05-02T13:15:27Z</time></trkpt><trkpt lat="44.058585940663036" lon="10.9612801088697"><ele>694.0</ele><time>2026-05-02T13:15:28Z</time></trkpt><trkpt lat="44.05849075654234" lon="10.961075696565986"><ele>694.0</ele><time>2026-05-02T13:15:29Z</time></trkpt><trkpt lat="44.058399439851364" lon="10.960912741372859"><ele>694.0</ele><time>2026-05-02T13:15:30Z</time></trkpt><trkpt lat="44.05830279420817" lon="10.960780177354517"><ele>694.0</ele><time>2026-05-02T13:15:31Z</time></trkpt><trkpt lat="44.05820150442724" lon="10.960656783307162"><ele>694.0</ele><time>2026-05-02T13:15:32Z</time></trkpt><trkpt lat="44.058095377840296" lon="10.960541655933072"><ele>699.6666666666667</ele><time>2026-05-02T13:15:33Z</time></trkpt><trkpt lat="44.0579659490458" lon="10.960458966639996"><ele>705.3333333333334</ele><time>2026-05-02T13:15:34Z</time></trkpt><trkpt lat="44.05781616407381" lon="10.96041518365582"><ele>711.0</ele><time>2026-05-02T13:15:35Z</time></trkpt><trkpt lat="44.05764414068058" lon="10.960361506045437"><ele>730.0</ele><time>2026-05-02T13:15:36Z</time></trkpt><trkpt lat="44.057449112357375" lon="10.960241057903298"><ele>749.0</ele><time>2026-05-02T13:15:37Z</time></trkpt><trkpt lat="44.057232553276634" lon="10.960069704602184"><ele>737.0</ele><time>2026-05-02T13:15:38Z</time></trkpt><trkpt lat="44.057001325084" lon="10.95987414296832"><ele>725.0</ele><time>2026-05-02T13:15:39Z</time></trkpt><trkpt lat="44.05681132998034" lon="10.959686144271355"><ele>725.0</ele><time>2026-05-02T13:15:40Z</time></trkpt><trkpt lat="44.05665971056137" lon="10.959525174076662"><ele>725.0</ele><time>2026-05-02T13:15:41Z</time></trkpt><trkpt lat="44.05653685944894" lon="10.959366387744323"><ele>725.0</ele><time>2026-05-02T13:15:42Z</time></trkpt><trkpt lat="44.05644212260691" lon="10.959182416638807"><ele>729.0</ele><time>2026-05-02T13:15:43Z</time></trkpt><trkpt lat="44.05636869278321" lon="10.958967397609138"><ele>733.0</ele><time>2026-05-02T13:15:44Z</time></trkpt><trkpt lat="44.056326350312204" lon="10.958733969849003"><ele>737.0</ele><time>2026-05-02T13:15:45Z</time></trkpt><trkpt lat="44.05628760155971" lon="10.958522312875324"><ele>731.3333333333333</ele><time>2026-05-02T13:15:46Z</time></trkpt><trkpt lat="44.05622111405808" lon="10.95833095945493"><ele>725.6666666666666</ele><time>2026-05-02T13:15:47Z</time></trkpt><trkpt lat="44.056108043722574" lon="10.958151421076128"><ele>720.0</ele><time>2026-05-02T13:15:48Z</time></trkpt><trkpt lat="44.05596647557644" lon="10.957991838385523"><ele>720.0</ele><time>2026-05-02T13:15:49Z</time></trkpt><trkpt lat="44.055816434502255" lon="10.957863182394897"><ele>720.0</ele><time>2026-05-02T13:15:50Z</time></trkpt><trkpt lat="44.05566652484211" lon="10.957795360563207"><ele>720.0</ele><time>2026-05-02T13:15:51Z</time></trkpt><trkpt lat="44.05550125579046" lon="10.957764217553263"><ele>721.0</ele><time>2026-05-02T13:15:52Z</time></trkpt><trkpt lat="44.05532143929633" lon="10.95777572384847"><ele>722.0</ele><time>2026-05-02T13:15:53Z</time></trkpt><trkpt lat="44.05514131703652" lon="10.957809281548402"><ele>723.0</ele><time>2026-05-02T13:15:54Z</time></trkpt><trkpt lat="44.054983785819154" lon="10.957866289623393"><ele>725.0</ele><time>2026-05-02T13:15:55Z</time></trkpt><trkpt lat="44.0548537010254" lon="10.957967802184276"><ele>727.0</ele><time>2026-05-02T13:15:56Z</time></trkpt><trkpt lat="44.05475906002855" lon="10.958138266745555"><ele>729.0</ele><time>2026-05-02T13:15:57Z</time></trkpt><trkpt lat="44.054661497552566" lon="10.958346780821627"><ele>727.0</ele><time>2026-05-02T13:15:58Z</time></trkpt><trkpt lat="44.0545482429591" lon="10.958544305136796"><ele>725.0</ele><time>2026-05-02T13:15:59Z</time></trkpt><trkpt lat="44.05442453991343" lon="10.95868292698066"><ele>723.0</ele><time>2026-05-02T13:16:00Z</time></trkpt><trkpt lat="44.05428713250708" lon="10.958791534930452"><ele>723.0</ele><time>2026-05-02T13:16:01Z</time></trkpt><trkpt lat="44.05413385790324" lon="10.958862637593466"><ele>723.0</ele><time>2026-05-02T13:16:02Z</time></trkpt><trkpt lat="44.05397304670901" lon="10.958888373722118"><ele>723.0</ele><time>2026-05-02T13:16:03Z</time></trkpt><trkpt lat="44.05380581383252" lon="10.958865522679472"><ele>725.6666666666666</ele><time>2026-05-02T13:16:04Z</time></trkpt><trkpt lat="44.05363437250664" lon="10.95879523933054"><ele>728.3333333333333</ele><time>2026-05-02T13:16:05Z</time></trkpt><trkpt lat="44.05345862450541" lon="10.95866006276613"><ele>731.0</ele><time>2026-05-02T13:16:06Z</time></trkpt><trkpt lat="44.05325733666658" lon="10.958531826074452"><ele>731.5</ele><time>2026-05-02T13:16:07Z</time></trkpt><trkpt lat="44.05305150321919" lon="10.958354681211123"><ele>732.0</ele><time>2026-05-02T13:16:08Z</time></trkpt><trkpt lat="44.05281472852875" lon="10.958167122786673"><ele>732.0</ele><time>2026-05-02T13:16:09Z</time></trkpt><trkpt lat="44.05257993600121" lon="10.958007192676837"><ele>732.0</ele><time>2026-05-02T13:16:10Z</time></trkpt><trkpt lat="44.05238360723286" lon="10.957858954893947"><ele>733.6666666666666</ele><time>2026-05-02T13:16:11Z</time></trkpt><trkpt lat="44.05222149397101" lon="10.95770731233588"><ele>735.3333333333333</ele><time>2026-05-02T13:16:12Z</time></trkpt><trkpt lat="44.052088138014724" lon="10.957525039161949"><ele>737.0</ele><time>2026-05-02T13:16:13Z</time></trkpt><trkpt lat="44.051970426091565" lon="10.957298190810539"><ele>737.0</ele><time>2026-05-02T13:16:14Z</time></trkpt><trkpt lat="44.05188214873583" lon="10.95706445384029"><ele>737.0</ele><time>2026-05-02T13:16:15Z</time></trkpt><trkpt lat="44.05181499018693" lon="10.956902888173705"><ele>737.0</ele><time>2026-05-02T13:16:16Z</time></trkpt><trkpt lat="44.051733365785914" lon="10.956803464900414"><ele>737.0</ele><time>2026-05-02T13:16:17Z</time></trkpt><trkpt lat="44.051631584109685" lon="10.956768867407796"><ele>737.25</ele><time>2026-05-02T13:16:18Z</time></trkpt><trkpt lat="44.051513989339455" lon="10.956804246524657"><ele>737.5</ele><time>2026-05-02T13:16:19Z</time></trkpt><trkpt lat="44.05137788925655" lon="10.956835649993083"><ele>737.75</ele><time>2026-05-02T13:16:20Z</time></trkpt><trkpt lat="44.051260632552435" lon="10.956751747567976"><ele>738.0</ele><time>2026-05-02T13:16:20.999Z</time></trkpt><trkpt lat="44.051130316422594" lon="10.956631597115093"><ele>738.0</ele><time>2026-05-02T13:16:21.999Z</time></trkpt><trkpt lat="44.05099317863378" lon="10.95649370469682"><ele>738.0</ele><time>2026-05-02T13:16:22.999Z</time></trkpt><trkpt lat="44.05081234407104" lon="10.956415793262469"><ele>738.0</ele><time>2026-05-02T13:16:23.999Z</time></trkpt><trkpt lat="44.05060860496315" lon="10.956373434811733"><ele>741.0</ele><time>2026-05-02T13:16:24.999Z</time></trkpt><trkpt lat="44.050381988977016" lon="10.956389334881097"><ele>744.0</ele><time>2026-05-02T13:16:25.999Z</time></trkpt><trkpt lat="44.05013636376983" lon="10.956416007329723"><ele>745.0</ele><time>2026-05-02T13:16:26.999Z</time></trkpt><trkpt lat="44.049895604553164" lon="10.956445554024295"><ele>746.0</ele><time>2026-05-02T13:16:27.999Z</time></trkpt><trkpt lat="44.04966062019112" lon="10.956454916577767"><ele>746.0</ele><time>2026-05-02T13:16:28.999Z</time></trkpt><trkpt lat="44.04945084830457" lon="10.956409345900777"><ele>746.0</ele><time>2026-05-02T13:16:29.999Z</time></trkpt><trkpt lat="44.04925437225746" lon="10.956343997521088"><ele>746.0</ele><time>2026-05-02T13:16:30.999Z</time></trkpt><trkpt lat="44.04906481826815" lon="10.956208617483258"><ele>759.5</ele><time>2026-05-02T13:16:31.999Z</time></trkpt><trkpt lat="44.048858630617836" lon="10.95609594204323"><ele>773.0</ele><time>2026-05-02T13:16:32.999Z</time></trkpt><trkpt lat="44.04865230030927" lon="10.955957287797483"><ele>769.0</ele><time>2026-05-02T13:16:33.999Z</time></trkpt><trkpt lat="44.0484378186363" lon="10.955815626861035"><ele>765.0</ele><time>2026-05-02T13:16:34.999Z</time></trkpt><trkpt lat="44.04822709704825" lon="10.955676853567093"><ele>765.0</ele><time>2026-05-02T13:16:35.999Z</time></trkpt><trkpt lat="44.04803454151527" lon="10.955557246486087"><ele>765.0</ele><time>2026-05-02T13:16:36.999Z</time></trkpt><trkpt lat="44.04784484658123" lon="10.955471963960187"><ele>765.0</ele><time>2026-05-02T13:16:37.999Z</time></trkpt><trkpt lat="44.04763490463151" lon="10.955426203642352"><ele>770.6666666666667</ele><time>2026-05-02T13:16:38.999Z</time></trkpt><trkpt lat="44.04741373959955" lon="10.955409915389813"><ele>776.3333333333334</ele><time>2026-05-02T13:16:39.999Z</time></trkpt><trkpt lat="44.047187927017454" lon="10.955386519996463"><ele>782.0</ele><time>2026-05-02T13:16:40.999Z</time></trkpt><trkpt lat="44.046970771184576" lon="10.955342514940904"><ele>782.0</ele><time>2026-05-02T13:16:41.999Z</time></trkpt><trkpt lat="44.04676690109366" lon="10.955258720521828"><ele>782.0</ele><time>2026-05-02T13:16:42.999Z</time></trkpt><trkpt lat="44.0465723998096" lon="10.95513166610449"><ele>782.0</ele><time>2026-05-02T13:16:43.999Z</time></trkpt><trkpt lat="44.04638815028709" lon="10.954941023626914"><ele>774.5</ele><time>2026-05-02T13:16:44.999Z</time></trkpt><trkpt lat="44.04619583227337" lon="10.954735324536573"><ele>767.0</ele><time>2026-05-02T13:16:45.999Z</time></trkpt><trkpt lat="44.045988416131785" lon="10.9545131564758"><ele>768.0</ele><time>2026-05-02T13:16:46.999Z</time></trkpt><trkpt lat="44.045758691261675" lon="10.95429021455136"><ele>769.0</ele><time>2026-05-02T13:16:47.999Z</time></trkpt><trkpt lat="44.04554912664202" lon="10.954060232482565"><ele>769.0</ele><time>2026-05-02T13:16:48.999Z</time></trkpt><trkpt lat="44.045358550454466" lon="10.953849530179934"><ele>769.0</ele><time>2026-05-02T13:16:49.999Z</time></trkpt><trkpt lat="44.045175220839205" lon="10.953649825048092"><ele>769.0</ele><time>2026-05-02T13:16:50.999Z</time></trkpt><trkpt lat="44.044993300821" lon="10.953477509389876"><ele>769.0</ele><time>2026-05-02T13:16:51.999Z</time></trkpt><trkpt lat="44.04481681713236" lon="10.953302957413738"><ele>769.0</ele><time>2026-05-02T13:16:52.999Z</time></trkpt><trkpt lat="44.04460342535359" lon="10.953220055269046"><ele>767.0</ele><time>2026-05-02T13:16:53.999Z</time></trkpt><trkpt lat="44.044388651080766" lon="10.95314800841532"><ele>765.0</ele><time>2026-05-02T13:16:54.999Z</time></trkpt><trkpt lat="44.04419409369874" lon="10.953079043553512"><ele>763.0</ele><time>2026-05-02T13:16:55.999Z</time></trkpt><trkpt lat="44.04404345522613" lon="10.952950102540726"><ele>763.0</ele><time>2026-05-02T13:16:56.999Z</time></trkpt><trkpt lat="44.04388610701083" lon="10.952791637024275"><ele>763.0</ele><time>2026-05-02T13:16:57.999Z</time></trkpt><trkpt lat="44.043728450888814" lon="10.952660834869754"><ele>763.0</ele><time>2026-05-02T13:16:58.999Z</time></trkpt><trkpt lat="44.04355578049792" lon="10.95252684199318"><ele>763.3333333333334</ele><time>2026-05-02T13:16:59.999Z</time></trkpt><trkpt lat="44.04334120243314" lon="10.952467790066434"><ele>763.6666666666666</ele><time>2026-05-02T13:17:01Z</time></trkpt><trkpt lat="44.04311834964655" lon="10.952402165499354"><ele>764.0</ele><time>2026-05-02T13:17:02Z</time></trkpt><trkpt lat="44.04289631059812" lon="10.952338062929037"><ele>764.3333333333333</ele><time>2026-05-02T13:17:03Z</time></trkpt><trkpt lat="44.04268495635499" lon="10.952279667390513"><ele>764.6666666666666</ele><time>2026-05-02T13:17:04Z</time></trkpt><trkpt lat="44.04248727504189" lon="10.952225772855014"><ele>765.0</ele><time>2026-05-02T13:17:05Z</time></trkpt><trkpt lat="44.04230295927733" lon="10.952165725072295"><ele>765.0</ele><time>2026-05-02T13:17:06Z</time></trkpt><trkpt lat="44.04211760602071" lon="10.952090836923713"><ele>765.0</ele><time>2026-05-02T13:17:07Z</time></trkpt><trkpt lat="44.041936088900364" lon="10.951992270592688"><ele>765.0</ele><time>2026-05-02T13:17:08Z</time></trkpt><trkpt lat="44.041765113033286" lon="10.951864157802119"><ele>767.3333333333333</ele><time>2026-05-02T13:17:09Z</time></trkpt><trkpt lat="44.041594768378566" lon="10.951718326353964"><ele>769.6666666666666</ele><time>2026-05-02T13:17:10Z</time></trkpt><trkpt lat="44.041411350216045" lon="10.951577591479413"><ele>772.0</ele><time>2026-05-02T13:17:11Z</time></trkpt><trkpt lat="44.0412089341442" lon="10.951451824703698"><ele>772.0</ele><time>2026-05-02T13:17:12Z</time></trkpt><trkpt lat="44.0409937544061" lon="10.951330759395606"><ele>772.0</ele><time>2026-05-02T13:17:13Z</time></trkpt><trkpt lat="44.04077081224628" lon="10.951179629172028"><ele>786.0</ele><time>2026-05-02T13:17:14Z</time></trkpt><trkpt lat="44.04052565358261" lon="10.951036428066478"><ele>800.0</ele><time>2026-05-02T13:17:15Z</time></trkpt><trkpt lat="44.04027130261624" lon="10.950893868911539"><ele>791.0</ele><time>2026-05-02T13:17:16Z</time></trkpt><trkpt lat="44.04003011192811" lon="10.950706305914897"><ele>782.0</ele><time>2026-05-02T13:17:17Z</time></trkpt><trkpt lat="44.03979610784704" lon="10.95050087462703"><ele>782.0</ele><time>2026-05-02T13:17:18Z</time></trkpt><trkpt lat="44.03955973606113" lon="10.950295191594675"><ele>782.0</ele><time>2026-05-02T13:17:19Z</time></trkpt><trkpt lat="44.039319682120045" lon="10.950088706505554"><ele>786.5</ele><time>2026-05-02T13:17:20Z</time></trkpt><trkpt lat="44.03907920334058" lon="10.949885076262413"><ele>791.0</ele><time>2026-05-02T13:17:21Z</time></trkpt><trkpt lat="44.03884326631359" lon="10.949672015301166"><ele>791.0</ele><time>2026-05-02T13:17:22Z</time></trkpt><trkpt lat="44.038613180408554" lon="10.949438725864335"><ele>791.0</ele><time>2026-05-02T13:17:23Z</time></trkpt><trkpt lat="44.03839074192207" lon="10.949200624314045"><ele>791.0</ele><time>2026-05-02T13:17:24Z</time></trkpt><trkpt lat="44.0381793052209" lon="10.948976398658143"><ele>791.0</ele><time>2026-05-02T13:17:25Z</time></trkpt><trkpt lat="44.03797364854275" lon="10.94878210225626"><ele>791.0</ele><time>2026-05-02T13:17:26Z</time></trkpt><trkpt lat="44.03775488318531" lon="10.948617350986398"><ele>791.0</ele><time>2026-05-02T13:17:27Z</time></trkpt><trkpt lat="44.03752844189125" lon="10.948478440030009"><ele>795.5</ele><time>2026-05-02T13:17:28Z</time></trkpt><trkpt lat="44.03731289635844" lon="10.948346842341596"><ele>800.0</ele><time>2026-05-02T13:17:29Z</time></trkpt><trkpt lat="44.03711403497295" lon="10.948186359573938"><ele>800.0</ele><time>2026-05-02T13:17:30Z</time></trkpt><trkpt lat="44.03695733684105" lon="10.947957658533515"><ele>800.0</ele><time>2026-05-02T13:17:31Z</time></trkpt><trkpt lat="44.03681150124046" lon="10.947724288431791"><ele>800.0</ele><time>2026-05-02T13:17:32Z</time></trkpt><trkpt lat="44.036661392101216" lon="10.947476828984149"><ele>799.0</ele><time>2026-05-02T13:17:33Z</time></trkpt><trkpt lat="44.036501053879675" lon="10.94723259657229"><ele>798.0</ele><time>2026-05-02T13:17:34Z</time></trkpt><trkpt lat="44.03633413521169" lon="10.946987788441994"><ele>798.0</ele><time>2026-05-02T13:17:35Z</time></trkpt><trkpt lat="44.03619367571628" lon="10.946738315468929"><ele>798.0</ele><time>2026-05-02T13:17:36Z</time></trkpt><trkpt lat="44.03608091091001" lon="10.946453641949804"><ele>793.5</ele><time>2026-05-02T13:17:37Z</time></trkpt><trkpt lat="44.03599300792258" lon="10.946147640505837"><ele>789.0</ele><time>2026-05-02T13:17:38Z</time></trkpt><trkpt lat="44.03589308670123" lon="10.945837592008985"><ele>801.0</ele><time>2026-05-02T13:17:39Z</time></trkpt><trkpt lat="44.03577500995534" lon="10.94552759827244"><ele>813.0</ele><time>2026-05-02T13:17:40Z</time></trkpt><trkpt lat="44.035641282114675" lon="10.945217424713734"><ele>803.0</ele><time>2026-05-02T13:17:41Z</time></trkpt><trkpt lat="44.035501036521744" lon="10.944903582490356"><ele>793.0</ele><time>2026-05-02T13:17:42Z</time></trkpt><trkpt lat="44.03535609335836" lon="10.94458295603041"><ele>793.0</ele><time>2026-05-02T13:17:43Z</time></trkpt><trkpt lat="44.035201053050436" lon="10.944249292937208"><ele>793.0</ele><time>2026-05-02T13:17:44Z</time></trkpt><trkpt lat="44.03504756222593" lon="10.943917955387523"><ele>793.5</ele><time>2026-05-02T13:17:45Z</time></trkpt><trkpt lat="44.034903773655785" lon="10.943614863980118"><ele>794.0</ele><time>2026-05-02T13:17:46Z</time></trkpt><trkpt lat="44.03474984433442" lon="10.943323560129592"><ele>794.0</ele><time>2026-05-02T13:17:47Z</time></trkpt><trkpt lat="44.034572224070395" lon="10.9430449400053"><ele>794.0</ele><time>2026-05-02T13:17:48Z</time></trkpt><trkpt lat="44.0343725257565" lon="10.942798340587515"><ele>794.0</ele><time>2026-05-02T13:17:49Z</time></trkpt><trkpt lat="44.034172212358875" lon="10.94257697472651"><ele>794.0</ele><time>2026-05-02T13:17:50Z</time></trkpt><trkpt lat="44.033999176359224" lon="10.942317329432628"><ele>796.5</ele><time>2026-05-02T13:17:51Z</time></trkpt><trkpt lat="44.03385670667337" lon="10.942013398814582"><ele>799.0</ele><time>2026-05-02T13:17:52Z</time></trkpt><trkpt lat="44.03373216648576" lon="10.941714657474346"><ele>799.0</ele><time>2026-05-02T13:17:53Z</time></trkpt><trkpt lat="44.033603677773186" lon="10.941445125408759"><ele>799.0</ele><time>2026-05-02T13:17:54Z</time></trkpt><trkpt lat="44.03345953395602" lon="10.941204631935221"><ele>797.0</ele><time>2026-05-02T13:17:55Z</time></trkpt><trkpt lat="44.03329267531157" lon="10.940993963642471"><ele>795.0</ele><time>2026-05-02T13:17:56Z</time></trkpt><trkpt lat="44.033098298475814" lon="10.940814565346646"><ele>795.0</ele><time>2026-05-02T13:17:57Z</time></trkpt><trkpt lat="44.03288267564257" lon="10.940671572950338"><ele>795.0</ele><time>2026-05-02T13:17:58Z</time></trkpt><trkpt lat="44.032648586732996" lon="10.940574258751003"><ele>802.0</ele><time>2026-05-02T13:17:59Z</time></trkpt><trkpt lat="44.03241700106124" lon="10.940522401559477"><ele>809.0</ele><time>2026-05-02T13:18:00Z</time></trkpt><trkpt lat="44.03220887289153" lon="10.940435500844874"><ele>809.0</ele><time>2026-05-02T13:18:01Z</time></trkpt><trkpt lat="44.032006030336255" lon="10.940349105120678"><ele>809.0</ele><time>2026-05-02T13:18:02Z</time></trkpt><trkpt lat="44.031829577063164" lon="10.940233428699463"><ele>809.0</ele><time>2026-05-02T13:18:03Z</time></trkpt><trkpt lat="44.03167933069937" lon="10.940099783533617"><ele>807.3333333333334</ele><time>2026-05-02T13:18:04Z</time></trkpt><trkpt lat="44.0315478412892" lon="10.93992964803121"><ele>805.6666666666667</ele><time>2026-05-02T13:18:05Z</time></trkpt><trkpt lat="44.03143799480153" lon="10.939727242450589"><ele>804.0</ele><time>2026-05-02T13:18:06Z</time></trkpt><trkpt lat="44.03134463243622" lon="10.939501389863244"><ele>804.0</ele><time>2026-05-02T13:18:07Z</time></trkpt><trkpt lat="44.031252636919376" lon="10.939252422764657"><ele>804.0</ele><time>2026-05-02T13:18:08Z</time></trkpt><trkpt lat="44.031149404657505" lon="10.938993133939771"><ele>804.0</ele><time>2026-05-02T13:18:09Z</time></trkpt><trkpt lat="44.031038123931424" lon="10.938726816650936"><ele>813.5</ele><time>2026-05-02T13:18:10Z</time></trkpt><trkpt lat="44.03092387846019" lon="10.938447041889274"><ele>823.0</ele><time>2026-05-02T13:18:11Z</time></trkpt><trkpt lat="44.03080324613507" lon="10.938152968347305"><ele>845.0</ele><time>2026-05-02T13:18:12Z</time></trkpt><trkpt lat="44.03069326447628" lon="10.937832797976707"><ele>867.0</ele><time>2026-05-02T13:18:13Z</time></trkpt><trkpt lat="44.03055819859028" lon="10.93749082895913"><ele>883.0</ele><time>2026-05-02T13:18:14.059Z</time></trkpt><trkpt lat="44.030428987610726" lon="10.93716368368066"><ele>899.0</ele><time>2026-05-02T13:18:15.057Z</time></trkpt><trkpt lat="44.03029659012809" lon="10.936828668714668"><ele>911.0</ele><time>2026-05-02T13:18:16.052Z</time></trkpt><trkpt lat="44.030161486056876" lon="10.936490541364362"><ele>923.0</ele><time>2026-05-02T13:18:17.053Z</time></trkpt><trkpt lat="44.030027892412356" lon="10.936155471697408"><ele>951.0</ele><time>2026-05-02T13:18:18.048Z</time></trkpt><trkpt lat="44.029895305638334" lon="10.935821892412351"><ele>979.0</ele><time>2026-05-02T13:18:19.038Z</time></trkpt><trkpt lat="44.0297627615004" lon="10.93548842049366"><ele>986.0</ele><time>2026-05-02T13:18:20.026Z</time></trkpt><trkpt lat="44.02870351726215" lon="10.932866095718635"><ele>959.0</ele><time>2026-05-02T13:18:24.048Z</time></trkpt><trkpt lat="44.02844233672786" lon="10.932210955369822"><ele>919.0</ele><time>2026-05-02T13:18:25.048Z</time></trkpt><trkpt lat="44.02818203344769" lon="10.931554976498088"><ele>919.0</ele><time>2026-05-02T13:18:26.048Z</time></trkpt><trkpt lat="44.02792054078841" lon="10.930899732707514"><ele>890.0</ele><time>2026-05-02T13:18:27.049Z</time></trkpt><trkpt lat="44.02765923837128" lon="10.930245402451018"><ele>866.0</ele><time>2026-05-02T13:18:28.048Z</time></trkpt><trkpt lat="44.027397730846836" lon="10.92959026846142"><ele>839.0</ele><time>2026-05-02T13:18:29.048Z</time></trkpt><trkpt lat="44.02713623768805" lon="10.928935170460955"><ele>839.0</ele><time>2026-05-02T13:18:30.049Z</time></trkpt><trkpt lat="44.0270929" lon="10.9288266"><ele>839.0</ele><time>2026-05-02T13:18:31.048Z</time></trkpt><trkpt lat="44.026002678558804" lon="10.92679051500875"><ele>822.0</ele><time>2026-05-02T13:18:49.999Z</time></trkpt><trkpt lat="44.02585465161325" lon="10.926673923215722"><ele>805.0</ele><time>2026-05-02T13:18:50.999Z</time></trkpt><trkpt lat="44.025680608367146" lon="10.926722130651672"><ele>788.0</ele><time>2026-05-02T13:18:51.999Z</time></trkpt><trkpt lat="44.02548144402828" lon="10.926749188811186"><ele>788.0</ele><time>2026-05-02T13:18:52.999Z</time></trkpt><trkpt lat="44.025327889179124" lon="10.926788102285423"><ele>788.0</ele><time>2026-05-02T13:18:53.999Z</time></trkpt><trkpt lat="44.02518275038628" lon="10.926805739189078"><ele>788.0</ele><time>2026-05-02T13:18:54.999Z</time></trkpt><trkpt lat="44.02505128441735" lon="10.926841605198911"><ele>788.0</ele><time>2026-05-02T13:18:55.999Z</time></trkpt><trkpt lat="44.02495385721916" lon="10.926872585851825"><ele>788.6666666666667</ele><time>2026-05-02T13:18:56.999Z</time></trkpt><trkpt lat="44.024879966443876" lon="10.926887198726503"><ele>789.3333333333334</ele><time>2026-05-02T13:18:57.999Z</time></trkpt><trkpt lat="44.024805952672914" lon="10.926900951191856"><ele>790.0</ele><time>2026-05-02T13:18:59.999Z</time></trkpt><trkpt lat="44.024709962848206" lon="10.926929515810894"><ele>790.6666666666667</ele><time>2026-05-02T13:19:31Z</time></trkpt><trkpt lat="44.02462744317248" lon="10.92694244370306"><ele>791.3333333333334</ele><time>2026-05-02T13:19:32Z</time></trkpt><trkpt lat="44.02452365006387" lon="10.926945252651208"><ele>792.0</ele><time>2026-05-02T13:19:33Z</time></trkpt><trkpt lat="44.02439886176685" lon="10.92690638445249"><ele>792.0</ele><time>2026-05-02T13:19:34Z</time></trkpt><trkpt lat="44.02425894964729" lon="10.92684463487801"><ele>792.0</ele><time>2026-05-02T13:19:35Z</time></trkpt><trkpt lat="44.02410768084288" lon="10.926768603652539"><ele>792.0</ele><time>2026-05-02T13:19:36Z</time></trkpt><trkpt lat="44.023921361881214" lon="10.926659676963693"><ele>790.3333333333333</ele><time>2026-05-02T13:19:37Z</time></trkpt><trkpt lat="44.02372284377948" lon="10.92654650141141"><ele>788.6666666666666</ele><time>2026-05-02T13:19:38Z</time></trkpt><trkpt lat="44.023530889910525" lon="10.926393395565126"><ele>787.0</ele><time>2026-05-02T13:19:39Z</time></trkpt><trkpt lat="44.023334681404606" lon="10.92620551361717"><ele>783.5</ele><time>2026-05-02T13:19:40Z</time></trkpt><trkpt lat="44.02311727066656" lon="10.925993200808666"><ele>780.0</ele><time>2026-05-02T13:19:41Z</time></trkpt><trkpt lat="44.022887915650536" lon="10.925787212703119"><ele>780.0</ele><time>2026-05-02T13:19:42Z</time></trkpt><trkpt lat="44.02268939729609" lon="10.925572382988198"><ele>780.0</ele><time>2026-05-02T13:19:43Z</time></trkpt><trkpt lat="44.02248882955592" lon="10.925377024173633"><ele>779.5</ele><time>2026-05-02T13:19:44Z</time></trkpt><trkpt lat="44.02229694911632" lon="10.92518721365685"><ele>779.0</ele><time>2026-05-02T13:19:45Z</time></trkpt><trkpt lat="44.022116360499545" lon="10.925000359499315"><ele>779.0</ele><time>2026-05-02T13:19:46Z</time></trkpt><trkpt lat="44.02194910861728" lon="10.924786198936955"><ele>779.0</ele><time>2026-05-02T13:19:47Z</time></trkpt><trkpt lat="44.02177357973221" lon="10.924572960578779"><ele>778.5</ele><time>2026-05-02T13:19:48Z</time></trkpt><trkpt lat="44.021605369129766" lon="10.924341999871015"><ele>778.0</ele><time>2026-05-02T13:19:49Z</time></trkpt><trkpt lat="44.02143939912723" lon="10.924114950907802"><ele>778.0</ele><time>2026-05-02T13:19:50Z</time></trkpt><trkpt lat="44.02127401503236" lon="10.923891574716798"><ele>778.0</ele><time>2026-05-02T13:19:51Z</time></trkpt><trkpt lat="44.021115215678876" lon="10.923675462216478"><ele>778.0</ele><time>2026-05-02T13:19:52Z</time></trkpt><trkpt lat="44.020970264937134" lon="10.92345597962522"><ele>778.0</ele><time>2026-05-02T13:19:53Z</time></trkpt><trkpt lat="44.02079763232112" lon="10.923265628369558"><ele>778.0</ele><time>2026-05-02T13:19:54Z</time></trkpt><trkpt lat="44.0205983437466" lon="10.923107281821167"><ele>774.5</ele><time>2026-05-02T13:19:55Z</time></trkpt><trkpt lat="44.02038618306946" lon="10.922964466424515"><ele>771.0</ele><time>2026-05-02T13:19:56Z</time></trkpt><trkpt lat="44.02018559989977" lon="10.922804942203905"><ele>771.0</ele><time>2026-05-02T13:19:57Z</time></trkpt><trkpt lat="44.01999473080612" lon="10.922656955799253"><ele>771.0</ele><time>2026-05-02T13:19:58Z</time></trkpt><trkpt lat="44.01981812183087" lon="10.92252387528784"><ele>771.0</ele><time>2026-05-02T13:19:59Z</time></trkpt><trkpt lat="44.01965462495684" lon="10.922415471312213"><ele>760.6666666666666</ele><time>2026-05-02T13:20:00Z</time></trkpt><trkpt lat="44.019487299167885" lon="10.922333993150534"><ele>750.3333333333333</ele><time>2026-05-02T13:20:01Z</time></trkpt><trkpt lat="44.01931080348972" lon="10.922268423320773"><ele>740.0</ele><time>2026-05-02T13:20:02Z</time></trkpt><trkpt lat="44.01912809170111" lon="10.922284971191749"><ele>732.3333333333333</ele><time>2026-05-02T13:20:03Z</time></trkpt><trkpt lat="44.01894125085248" lon="10.922334882275004"><ele>724.6666666666666</ele><time>2026-05-02T13:20:04Z</time></trkpt><trkpt lat="44.018754192974555" lon="10.922422365631881"><ele>717.0</ele><time>2026-05-02T13:20:05Z</time></trkpt><trkpt lat="44.01857959846986" lon="10.92252522988604"><ele>713.6666666666666</ele><time>2026-05-02T13:20:06Z</time></trkpt><trkpt lat="44.01841718566382" lon="10.922643261259504"><ele>710.3333333333333</ele><time>2026-05-02T13:20:07Z</time></trkpt><trkpt lat="44.018272719422335" lon="10.922786596106404"><ele>707.0</ele><time>2026-05-02T13:20:08Z</time></trkpt><trkpt lat="44.018149578426126" lon="10.92296227217569"><ele>707.0</ele><time>2026-05-02T13:20:09Z</time></trkpt><trkpt lat="44.01805194879237" lon="10.923191042340253"><ele>707.0</ele><time>2026-05-02T13:20:10Z</time></trkpt><trkpt lat="44.01798879969196" lon="10.92343387890063"><ele>707.0</ele><time>2026-05-02T13:20:11Z</time></trkpt><trkpt lat="44.017909862131084" lon="10.923659264188577"><ele>705.6666666666666</ele><time>2026-05-02T13:20:12Z</time></trkpt><trkpt lat="44.01778830303565" lon="10.923865190400573"><ele>704.3333333333334</ele><time>2026-05-02T13:20:13Z</time></trkpt><trkpt lat="44.01763833576732" lon="10.924049713016661"><ele>703.0</ele><time>2026-05-02T13:20:14Z</time></trkpt><trkpt lat="44.01746285253854" lon="10.924201008647485"><ele>712.6666666666667</ele><time>2026-05-02T13:20:15Z</time></trkpt><trkpt lat="44.01729321161704" lon="10.924360459428273"><ele>722.3333333333334</ele><time>2026-05-02T13:20:16Z</time></trkpt><trkpt lat="44.01711801697228" lon="10.92450309058824"><ele>732.0</ele><time>2026-05-02T13:20:17Z</time></trkpt><trkpt lat="44.01692912442947" lon="10.924572363223856"><ele>732.0</ele><time>2026-05-02T13:20:18Z</time></trkpt><trkpt lat="44.016725050839725" lon="10.924591120176402"><ele>732.0</ele><time>2026-05-02T13:20:18.999Z</time></trkpt><trkpt lat="44.01652048671232" lon="10.924614068826129"><ele>732.0</ele><time>2026-05-02T13:20:19.999Z</time></trkpt><trkpt lat="44.01632186138786" lon="10.924675515203353"><ele>724.6666666666666</ele><time>2026-05-02T13:20:20.999Z</time></trkpt><trkpt lat="44.01611967794557" lon="10.92479503808952"><ele>717.3333333333333</ele><time>2026-05-02T13:20:21.999Z</time></trkpt><trkpt lat="44.015920617500896" lon="10.924914533172952"><ele>710.0</ele><time>2026-05-02T13:20:22.999Z</time></trkpt><trkpt lat="44.0157293776718" lon="10.925034324443113"><ele>707.0</ele><time>2026-05-02T13:20:23.999Z</time></trkpt><trkpt lat="44.0155582550063" lon="10.92515529271726"><ele>704.0</ele><time>2026-05-02T13:20:24.999Z</time></trkpt><trkpt lat="44.015407501121885" lon="10.925299941705727"><ele>701.0</ele><time>2026-05-02T13:20:25.999Z</time></trkpt><trkpt lat="44.01527465643783" lon="10.925484496191894"><ele>701.0</ele><time>2026-05-02T13:20:26.999Z</time></trkpt><trkpt lat="44.01515482806251" lon="10.92571163499822"><ele>701.0</ele><time>2026-05-02T13:20:27.999Z</time></trkpt><trkpt lat="44.015041425058385" lon="10.925969663652007"><ele>701.0</ele><time>2026-05-02T13:20:28.999Z</time></trkpt><trkpt lat="44.01491870702096" lon="10.926243869735803"><ele>701.0</ele><time>2026-05-02T13:20:29.999Z</time></trkpt><trkpt lat="44.01479384051025" lon="10.926523451565863"><ele>701.0</ele><time>2026-05-02T13:20:30.999Z</time></trkpt><trkpt lat="44.01468153084012" lon="10.926784535047508"><ele>701.0</ele><time>2026-05-02T13:20:31.999Z</time></trkpt><trkpt lat="44.01456759816276" lon="10.927036746737645"><ele>701.0</ele><time>2026-05-02T13:20:32.999Z</time></trkpt><trkpt lat="44.01444181332114" lon="10.927264114956058"><ele>701.0</ele><time>2026-05-02T13:20:33.999Z</time></trkpt><trkpt lat="44.01428635242346" lon="10.927445086528008"><ele>706.0</ele><time>2026-05-02T13:20:34.999Z</time></trkpt><trkpt lat="44.0141094889941" lon="10.927597328833418"><ele>711.0</ele><time>2026-05-02T13:20:35.999Z</time></trkpt><trkpt lat="44.01391712931499" lon="10.927706578416585"><ele>716.0</ele><time>2026-05-02T13:20:36.999Z</time></trkpt><trkpt lat="44.01371318385281" lon="10.927764001495222"><ele>716.0</ele><time>2026-05-02T13:20:37.999Z</time></trkpt><trkpt lat="44.01351956003653" lon="10.927741202031767"><ele>716.0</ele><time>2026-05-02T13:20:38.999Z</time></trkpt><trkpt lat="44.01334114855726" lon="10.927685536394703"><ele>716.0</ele><time>2026-05-02T13:20:39.999Z</time></trkpt><trkpt lat="44.013170141330356" lon="10.927586205486906"><ele>709.6666666666666</ele><time>2026-05-02T13:20:40.999Z</time></trkpt><trkpt lat="44.013015223322355" lon="10.927457419573205"><ele>703.3333333333334</ele><time>2026-05-02T13:20:41.999Z</time></trkpt><trkpt lat="44.01286639042426" lon="10.927334041334909"><ele>697.0</ele><time>2026-05-02T13:20:42.999Z</time></trkpt><trkpt lat="44.01271036348508" lon="10.927243072387162"><ele>697.0</ele><time>2026-05-02T13:20:43.999Z</time></trkpt><trkpt lat="44.012545563852626" lon="10.927213856149015"><ele>697.0</ele><time>2026-05-02T13:20:44.999Z</time></trkpt><trkpt lat="44.01237407114853" lon="10.927197156833193"><ele>697.0</ele><time>2026-05-02T13:20:45.999Z</time></trkpt><trkpt lat="44.012189863953346" lon="10.927233334638329"><ele>694.3333333333334</ele><time>2026-05-02T13:20:46.999Z</time></trkpt><trkpt lat="44.012017065097595" lon="10.9272310897108"><ele>691.6666666666666</ele><time>2026-05-02T13:20:47.999Z</time></trkpt><trkpt lat="44.01184877784476" lon="10.927246817162166"><ele>689.0</ele><time>2026-05-02T13:20:48.999Z</time></trkpt><trkpt lat="44.0116787805191" lon="10.927252366933917"><ele>692.0</ele><time>2026-05-02T13:20:49.999Z</time></trkpt><trkpt lat="44.01151625948232" lon="10.92717696153182"><ele>695.0</ele><time>2026-05-02T13:20:50.999Z</time></trkpt><trkpt lat="44.011368669329734" lon="10.927084658647264"><ele>698.0</ele><time>2026-05-02T13:20:51.999Z</time></trkpt><trkpt lat="44.011226106356055" lon="10.926940724429283"><ele>698.0</ele><time>2026-05-02T13:20:52.999Z</time></trkpt><trkpt lat="44.011085112832035" lon="10.92675866636235"><ele>698.0</ele><time>2026-05-02T13:20:53.999Z</time></trkpt><trkpt lat="44.010928596253464" lon="10.926580413343846"><ele>698.0</ele><time>2026-05-02T13:20:54.999Z</time></trkpt><trkpt lat="44.010784195990546" lon="10.92641129421171"><ele>694.6666666666666</ele><time>2026-05-02T13:20:55.999Z</time></trkpt><trkpt lat="44.01062846335313" lon="10.926275665585553"><ele>691.3333333333334</ele><time>2026-05-02T13:20:56.999Z</time></trkpt><trkpt lat="44.01045321568103" lon="10.92619648908771"><ele>688.0</ele><time>2026-05-02T13:20:57.999Z</time></trkpt><trkpt lat="44.010261908940464" lon="10.926145419773656"><ele>688.0</ele><time>2026-05-02T13:20:58.999Z</time></trkpt><trkpt lat="44.01005758364408" lon="10.926098762100475"><ele>688.0</ele><time>2026-05-02T13:20:59.999Z</time></trkpt><trkpt lat="44.00985347293355" lon="10.926032946865371"><ele>688.0</ele><time>2026-05-02T13:21:00.999Z</time></trkpt><trkpt lat="44.009678492226605" lon="10.925906297789828"><ele>685.3333333333334</ele><time>2026-05-02T13:21:01.999Z</time></trkpt><trkpt lat="44.00952039113405" lon="10.9257504571279"><ele>682.6666666666666</ele><time>2026-05-02T13:21:02.999Z</time></trkpt><trkpt lat="44.009366380475605" lon="10.925563973955715"><ele>680.0</ele><time>2026-05-02T13:21:03.999Z</time></trkpt><trkpt lat="44.00919696826081" lon="10.92537568915896"><ele>677.6666666666666</ele><time>2026-05-02T13:21:04.999Z</time></trkpt><trkpt lat="44.00902934266663" lon="10.925171555522505"><ele>675.3333333333334</ele><time>2026-05-02T13:21:05.999Z</time></trkpt><trkpt lat="44.008866715589484" lon="10.924984244761319"><ele>673.0</ele><time>2026-05-02T13:21:06.999Z</time></trkpt><trkpt lat="44.00871417184668" lon="10.924799417852073"><ele>673.0</ele><time>2026-05-02T13:21:07.999Z</time></trkpt><trkpt lat="44.00851933619567" lon="10.924705620182804"><ele>673.0</ele><time>2026-05-02T13:21:08.999Z</time></trkpt><trkpt lat="44.00831983107988" lon="10.92462567270609"><ele>673.0</ele><time>2026-05-02T13:21:09.999Z</time></trkpt><trkpt lat="44.00811242034339" lon="10.924534919856661"><ele>674.6666666666667</ele><time>2026-05-02T13:21:10.999Z</time></trkpt><trkpt lat="44.00790590564581" lon="10.924458544798725"><ele>676.3333333333334</ele><time>2026-05-02T13:21:11.999Z</time></trkpt><trkpt lat="44.00771850961562" lon="10.924338947321573"><ele>678.0</ele><time>2026-05-02T13:21:13Z</time></trkpt><trkpt lat="44.00756019410844" lon="10.924168988710088"><ele>672.0</ele><time>2026-05-02T13:21:14Z</time></trkpt><trkpt lat="44.007415223672304" lon="10.923987943118513"><ele>666.0</ele><time>2026-05-02T13:21:15Z</time></trkpt><trkpt lat="44.007249012133585" lon="10.923813979501052"><ele>660.0</ele><time>2026-05-02T13:21:16Z</time></trkpt><trkpt lat="44.00704617930903" lon="10.923665851065842"><ele>660.0</ele><time>2026-05-02T13:21:17Z</time></trkpt><trkpt lat="44.00682410236518" lon="10.923551023017971"><ele>660.0</ele><time>2026-05-02T13:21:18Z</time></trkpt><trkpt lat="44.006620326324104" lon="10.923453515206315"><ele>655.0</ele><time>2026-05-02T13:21:19Z</time></trkpt><trkpt lat="44.006431555109074" lon="10.923334293702034"><ele>650.0</ele><time>2026-05-02T13:21:20Z</time></trkpt><trkpt lat="44.006275774390154" lon="10.923160715912207"><ele>645.0</ele><time>2026-05-02T13:21:21Z</time></trkpt><trkpt lat="44.006155459287" lon="10.922959402193257"><ele>645.0</ele><time>2026-05-02T13:21:22Z</time></trkpt><trkpt lat="44.00603640747075" lon="10.922763199559926"><ele>645.0</ele><time>2026-05-02T13:21:23Z</time></trkpt><trkpt lat="44.005921481924176" lon="10.92257434706521"><ele>645.0</ele><time>2026-05-02T13:21:24Z</time></trkpt><trkpt lat="44.00580263727722" lon="10.922378764053944"><ele>639.3333333333334</ele><time>2026-05-02T13:21:25Z</time></trkpt><trkpt lat="44.00568885129812" lon="10.922176802705247"><ele>633.6666666666667</ele><time>2026-05-02T13:21:26Z</time></trkpt><trkpt lat="44.005570048096686" lon="10.921974906637873"><ele>628.0</ele><time>2026-05-02T13:21:27Z</time></trkpt><trkpt lat="44.00544907704957" lon="10.921774943521195"><ele>627.0</ele><time>2026-05-02T13:21:28Z</time></trkpt><trkpt lat="44.00532770199437" lon="10.921576378112649"><ele>626.0</ele><time>2026-05-02T13:21:29Z</time></trkpt><trkpt lat="44.0052108569077" lon="10.921392465983708"><ele>625.0</ele><time>2026-05-02T13:21:30Z</time></trkpt><trkpt lat="44.00509951851253" lon="10.921215420115152"><ele>620.6666666666667</ele><time>2026-05-02T13:21:31Z</time></trkpt><trkpt lat="44.00498817545647" lon="10.921047963751068"><ele>616.3333333333334</ele><time>2026-05-02T13:21:32Z</time></trkpt><trkpt lat="44.00487753014058" lon="10.92089341139313"><ele>612.0</ele><time>2026-05-02T13:21:33Z</time></trkpt><trkpt lat="44.00476325522759" lon="10.920754938122458"><ele>612.0</ele><time>2026-05-02T13:21:34Z</time></trkpt><trkpt lat="44.004647709924186" lon="10.920626101173355"><ele>612.0</ele><time>2026-05-02T13:21:35Z</time></trkpt><trkpt lat="44.00453415853528" lon="10.920502026730565"><ele>612.0</ele><time>2026-05-02T13:21:36Z</time></trkpt><trkpt lat="44.004420330028914" lon="10.920376583987393"><ele>612.0</ele><time>2026-05-02T13:21:37Z</time></trkpt><trkpt lat="44.0043020819698" lon="10.920253437392299"><ele>612.0</ele><time>2026-05-02T13:21:38Z</time></trkpt><trkpt lat="44.004177349147405" lon="10.920131292949753"><ele>612.0</ele><time>2026-05-02T13:21:39Z</time></trkpt><trkpt lat="44.004047159926365" lon="10.920012670039101"><ele>612.0</ele><time>2026-05-02T13:21:40Z</time></trkpt><trkpt lat="44.00391942564529" lon="10.919915384298845"><ele>615.25</ele><time>2026-05-02T13:21:41Z</time></trkpt><trkpt lat="44.00380094759885" lon="10.91986958769314"><ele>618.5</ele><time>2026-05-02T13:21:42Z</time></trkpt><trkpt lat="44.00368762595456" lon="10.91987255998393"><ele>621.75</ele><time>2026-05-02T13:21:43Z</time></trkpt><trkpt lat="44.00358237534497" lon="10.919907092089915"><ele>625.0</ele><time>2026-05-02T13:21:44Z</time></trkpt><trkpt lat="44.00348220846771" lon="10.919965105416816"><ele>625.0</ele><time>2026-05-02T13:21:45Z</time></trkpt><trkpt lat="44.00339666758568" lon="10.920032060649824"><ele>625.0</ele><time>2026-05-02T13:21:46Z</time></trkpt><trkpt lat="44.003307602010416" lon="10.920083489847196"><ele>625.0</ele><time>2026-05-02T13:21:47Z</time></trkpt><trkpt lat="44.003218111692554" lon="10.920124950012575"><ele>625.0</ele><time>2026-05-02T13:21:48Z</time></trkpt><trkpt lat="44.003128270943066" lon="10.920148787746259"><ele>625.0</ele><time>2026-05-02T13:21:49Z</time></trkpt><trkpt lat="44.00304038793586" lon="10.920157341139417"><ele>622.4</ele><time>2026-05-02T13:21:50Z</time></trkpt><trkpt lat="44.00294717251473" lon="10.920157407530931"><ele>619.8</ele><time>2026-05-02T13:21:51Z</time></trkpt><trkpt lat="44.002855138613114" lon="10.920144451056816"><ele>617.2</ele><time>2026-05-02T13:21:52Z</time></trkpt><trkpt lat="44.002769985734936" lon="10.920116553575475"><ele>614.6</ele><time>2026-05-02T13:21:53Z</time></trkpt><trkpt lat="44.00268776951855" lon="10.9200715138132"><ele>612.0</ele><time>2026-05-02T13:21:54Z</time></trkpt><trkpt lat="44.00260653318539" lon="10.920005864422603"><ele>612.0</ele><time>2026-05-02T13:21:55Z</time></trkpt><trkpt lat="44.00252403725783" lon="10.919930712336697"><ele>612.0</ele><time>2026-05-02T13:21:56Z</time></trkpt><trkpt lat="44.00244004128786" lon="10.9198471479704"><ele>612.0</ele><time>2026-05-02T13:21:57Z</time></trkpt><trkpt lat="44.00235817923109" lon="10.91975672088467"><ele>612.0</ele><time>2026-05-02T13:21:58Z</time></trkpt><trkpt lat="44.002279219816046" lon="10.919667245091738"><ele>612.0</ele><time>2026-05-02T13:21:59Z</time></trkpt><trkpt lat="44.00219852222743" lon="10.919574707324482"><ele>609.6</ele><time>2026-05-02T13:22:00Z</time></trkpt><trkpt lat="44.002121194737946" lon="10.919473851548831"><ele>607.2</ele><time>2026-05-02T13:22:01Z</time></trkpt><trkpt lat="44.002051609752606" lon="10.91936328249"><ele>604.8</ele><time>2026-05-02T13:22:02Z</time></trkpt><trkpt lat="44.00199132418982" lon="10.919234201498323"><ele>602.4</ele><time>2026-05-02T13:22:03Z</time></trkpt><trkpt lat="44.00195272317928" lon="10.919094405561026"><ele>600.0</ele><time>2026-05-02T13:22:04Z</time></trkpt><trkpt lat="44.001937977520534" lon="10.918949832282806"><ele>600.0</ele><time>2026-05-02T13:22:05Z</time></trkpt><trkpt lat="44.00193892890105" lon="10.918809574701688"><ele>600.0</ele><time>2026-05-02T13:22:06Z</time></trkpt><trkpt lat="44.001937844903" lon="10.918670899823478"><ele>600.0</ele><time>2026-05-02T13:22:07Z</time></trkpt><trkpt lat="44.001916180163406" lon="10.918537214069719"><ele>600.0</ele><time>2026-05-02T13:22:08Z</time></trkpt><trkpt lat="44.001862358354174" lon="10.918414140762073"><ele>600.0</ele><time>2026-05-02T13:22:09Z</time></trkpt><trkpt lat="44.00179466187444" lon="10.918303909929776"><ele>601.6</ele><time>2026-05-02T13:22:10Z</time></trkpt><trkpt lat="44.00172138183457" lon="10.91819940748133"><ele>603.2</ele><time>2026-05-02T13:22:11Z</time></trkpt><trkpt lat="44.00164702387471" lon="10.918094879813806"><ele>604.8</ele><time>2026-05-02T13:22:12Z</time></trkpt><trkpt lat="44.001584398717455" lon="10.917983637162328"><ele>606.4</ele><time>2026-05-02T13:22:13Z</time></trkpt><trkpt lat="44.00153522002662" lon="10.917859666209278"><ele>608.0</ele><time>2026-05-02T13:22:14Z</time></trkpt><trkpt lat="44.00150178086366" lon="10.917717914521186"><ele>603.5</ele><time>2026-05-02T13:22:15Z</time></trkpt><trkpt lat="44.00149481843979" lon="10.917566566041678"><ele>599.0</ele><time>2026-05-02T13:22:16Z</time></trkpt><trkpt lat="44.00151007974522" lon="10.917413629957931"><ele>594.5</ele><time>2026-05-02T13:22:17Z</time></trkpt><trkpt lat="44.00154478674735" lon="10.917260645925461"><ele>590.0</ele><time>2026-05-02T13:22:18Z</time></trkpt><trkpt lat="44.00159983214958" lon="10.917118668323887"><ele>591.5</ele><time>2026-05-02T13:22:19Z</time></trkpt><trkpt lat="44.00168248716154" lon="10.916971389901988"><ele>593.0</ele><time>2026-05-02T13:22:20Z</time></trkpt><trkpt lat="44.00179122346647" lon="10.916850086819979"><ele>594.5</ele><time>2026-05-02T13:22:21Z</time></trkpt><trkpt lat="44.00189360997978" lon="10.91674779755464"><ele>596.0</ele><time>2026-05-02T13:22:22Z</time></trkpt><trkpt lat="44.00201195316172" lon="10.916665195024997"><ele>596.0</ele><time>2026-05-02T13:22:23Z</time></trkpt><trkpt lat="44.00214029440406" lon="10.916611857671361"><ele>596.0</ele><time>2026-05-02T13:22:24Z</time></trkpt><trkpt lat="44.002268751184324" lon="10.916578346280776"><ele>596.0</ele><time>2026-05-02T13:22:25Z</time></trkpt><trkpt lat="44.00238774253141" lon="10.91653091133022"><ele>596.0</ele><time>2026-05-02T13:22:26Z</time></trkpt><trkpt lat="44.00249707553524" lon="10.916511205533972"><ele>597.3333333333333</ele><time>2026-05-02T13:22:27Z</time></trkpt><trkpt lat="44.00259323762352" lon="10.916486432715903"><ele>598.6666666666666</ele><time>2026-05-02T13:22:28Z</time></trkpt><trkpt lat="44.00267521245558" lon="10.916455629589217"><ele>600.0</ele><time>2026-05-02T13:22:29Z</time></trkpt><trkpt lat="44.00273470757616" lon="10.91639082096729"><ele>601.3333333333334</ele><time>2026-05-02T13:22:30Z</time></trkpt><trkpt lat="44.002766198286864" lon="10.916311337396118"><ele>602.6666666666667</ele><time>2026-05-02T13:22:31Z</time></trkpt><trkpt lat="44.0027783173628" lon="10.916220203160691"><ele>604.0</ele><time>2026-05-02T13:22:32Z</time></trkpt><trkpt lat="44.00275841635277" lon="10.91611827302367"><ele>604.0</ele><time>2026-05-02T13:22:33Z</time></trkpt><trkpt lat="44.00270965619354" lon="10.916033382007688"><ele>604.0</ele><time>2026-05-02T13:22:34Z</time></trkpt><trkpt lat="44.00263832451239" lon="10.915982386767816"><ele>604.0</ele><time>2026-05-02T13:22:35Z</time></trkpt><trkpt lat="44.00255331857142" lon="10.915969649305438"><ele>604.0</ele><time>2026-05-02T13:22:35.999Z</time></trkpt><trkpt lat="44.00246133330724" lon="10.915969445714092"><ele>604.0</ele><time>2026-05-02T13:22:36.999Z</time></trkpt><trkpt lat="44.00236449873074" lon="10.915974002712229"><ele>604.0</ele><time>2026-05-02T13:22:37.999Z</time></trkpt><trkpt lat="44.00225825969446" lon="10.91599029441359"><ele>602.0</ele><time>2026-05-02T13:22:38.999Z</time></trkpt><trkpt lat="44.00215405528285" lon="10.916020516903343"><ele>600.0</ele><time>2026-05-02T13:22:39.999Z</time></trkpt><trkpt lat="44.00204721108705" lon="10.916064306306456"><ele>598.0</ele><time>2026-05-02T13:22:40.999Z</time></trkpt><trkpt lat="44.00193711384216" lon="10.916127366886146"><ele>596.0</ele><time>2026-05-02T13:22:41.999Z</time></trkpt><trkpt lat="44.001819766501406" lon="10.916221508900783"><ele>596.0</ele><time>2026-05-02T13:22:42.999Z</time></trkpt><trkpt lat="44.00168485562466" lon="10.916336823089843"><ele>596.0</ele><time>2026-05-02T13:22:43.999Z</time></trkpt><trkpt lat="44.00153225431119" lon="10.916469978901782"><ele>596.0</ele><time>2026-05-02T13:22:44.999Z</time></trkpt><trkpt lat="44.00137262713912" lon="10.916587543808813"><ele>594.0</ele><time>2026-05-02T13:22:45.999Z</time></trkpt><trkpt lat="44.001213744362104" lon="10.916696079958694"><ele>592.0</ele><time>2026-05-02T13:22:46.999Z</time></trkpt><trkpt lat="44.00107216036032" lon="10.9168119174215"><ele>590.0</ele><time>2026-05-02T13:22:47.999Z</time></trkpt><trkpt lat="44.00093433443521" lon="10.916920379233222"><ele>585.75</ele><time>2026-05-02T13:22:48.999Z</time></trkpt><trkpt lat="44.00080731618234" lon="10.917026945505594"><ele>581.5</ele><time>2026-05-02T13:22:49.999Z</time></trkpt><trkpt lat="44.00068244937875" lon="10.9171310768197"><ele>577.25</ele><time>2026-05-02T13:22:50.999Z</time></trkpt><trkpt lat="44.000561031956586" lon="10.917230902575263"><ele>573.0</ele><time>2026-05-02T13:22:51.999Z</time></trkpt><trkpt lat="44.000444101315516" lon="10.91733416225206"><ele>573.0</ele><time>2026-05-02T13:22:52.999Z</time></trkpt><trkpt lat="44.000336653907155" lon="10.917444699616699"><ele>573.0</ele><time>2026-05-02T13:22:53.999Z</time></trkpt><trkpt lat="44.00023937833279" lon="10.917562113775194"><ele>573.0</ele><time>2026-05-02T13:22:54.999Z</time></trkpt><trkpt lat="44.00014586467162" lon="10.917682909258023"><ele>573.0</ele><time>2026-05-02T13:22:55.999Z</time></trkpt><trkpt lat="44.00005514518338" lon="10.917805572345527"><ele>573.25</ele><time>2026-05-02T13:22:56.999Z</time></trkpt><trkpt lat="43.999966803472574" lon="10.917926308588662"><ele>573.5</ele><time>2026-05-02T13:22:57.999Z</time></trkpt><trkpt lat="43.99987925649413" lon="10.918044954781568"><ele>573.75</ele><time>2026-05-02T13:22:58.999Z</time></trkpt><trkpt lat="43.999791966521165" lon="10.918161657583818"><ele>574.0</ele><time>2026-05-02T13:22:59.999Z</time></trkpt><trkpt lat="43.999705063136325" lon="10.918278064132007"><ele>574.0</ele><time>2026-05-02T13:23:00.999Z</time></trkpt><trkpt lat="43.99962066320731" lon="10.918396391683423"><ele>574.0</ele><time>2026-05-02T13:23:01.999Z</time></trkpt><trkpt lat="43.999535248379324" lon="10.91851060257078"><ele>574.0</ele><time>2026-05-02T13:23:02.999Z</time></trkpt><trkpt lat="43.99944046184801" lon="10.918609865217428"><ele>574.0</ele><time>2026-05-02T13:23:03.999Z</time></trkpt><trkpt lat="43.99933052860455" lon="10.918685558502382"><ele>567.6666666666667</ele><time>2026-05-02T13:23:04.999Z</time></trkpt><trkpt lat="43.99920044286663" lon="10.918731445091018"><ele>561.3333333333334</ele><time>2026-05-02T13:23:05.999Z</time></trkpt><trkpt lat="43.99904617709924" lon="10.918756653909861"><ele>555.0</ele><time>2026-05-02T13:23:06.999Z</time></trkpt><trkpt lat="43.99887153212479" lon="10.91876589871318"><ele>555.0</ele><time>2026-05-02T13:23:07.999Z</time></trkpt><trkpt lat="43.998673789576614" lon="10.91877341739911"><ele>555.0</ele><time>2026-05-02T13:23:08.999Z</time></trkpt><trkpt lat="43.9984656960211" lon="10.918788337276888"><ele>555.0</ele><time>2026-05-02T13:23:09.999Z</time></trkpt><trkpt lat="43.998274147961" lon="10.918817317302912"><ele>557.3333333333334</ele><time>2026-05-02T13:23:10.999Z</time></trkpt><trkpt lat="43.998096788413044" lon="10.918881993726655"><ele>559.6666666666667</ele><time>2026-05-02T13:23:11.999Z</time></trkpt><trkpt lat="43.997940076854036" lon="10.918993531988813"><ele>562.0</ele><time>2026-05-02T13:23:12.999Z</time></trkpt><trkpt lat="43.997798212216466" lon="10.919167541359196"><ele>559.6666666666667</ele><time>2026-05-02T13:23:13.999Z</time></trkpt><trkpt lat="43.997680477801595" lon="10.919345195556112"><ele>557.3333333333334</ele><time>2026-05-02T13:23:14.999Z</time></trkpt><trkpt lat="43.9975470862297" lon="10.919463819500585"><ele>555.0</ele><time>2026-05-02T13:23:15.999Z</time></trkpt><trkpt lat="43.997399996241406" lon="10.919520140573942"><ele>555.0</ele><time>2026-05-02T13:23:16.999Z</time></trkpt><trkpt lat="43.99724262536003" lon="10.919517799531379"><ele>555.0</ele><time>2026-05-02T13:23:17.999Z</time></trkpt><trkpt lat="43.997094246258186" lon="10.919477122995435"><ele>555.0</ele><time>2026-05-02T13:23:19Z</time></trkpt><trkpt lat="43.996944525441606" lon="10.919374104457528"><ele>555.0</ele><time>2026-05-02T13:23:20Z</time></trkpt><trkpt lat="43.996797478225055" lon="10.919214938209686"><ele>555.0</ele><time>2026-05-02T13:23:21Z</time></trkpt><trkpt lat="43.99663290158518" lon="10.919020480699585"><ele>555.0</ele><time>2026-05-02T13:23:22Z</time></trkpt><trkpt lat="43.996466931944674" lon="10.918771916162171"><ele>555.0</ele><time>2026-05-02T13:23:23Z</time></trkpt><trkpt lat="43.99629992749181" lon="10.918493609733838"><ele>555.0</ele><time>2026-05-02T13:23:24Z</time></trkpt><trkpt lat="43.996137730603365" lon="10.918207394462128"><ele>548.0</ele><time>2026-05-02T13:23:25Z</time></trkpt><trkpt lat="43.9959800728243" lon="10.917940077907211"><ele>541.0</ele><time>2026-05-02T13:23:26Z</time></trkpt><trkpt lat="43.9958288775698" lon="10.917683099109636"><ele>548.5</ele><time>2026-05-02T13:23:27Z</time></trkpt><trkpt lat="43.99566354438682" lon="10.917410283567355"><ele>556.0</ele><time>2026-05-02T13:23:28Z</time></trkpt><trkpt lat="43.99550012788317" lon="10.917145418221656"><ele>556.0</ele><time>2026-05-02T13:23:29Z</time></trkpt><trkpt lat="43.99531491653097" lon="10.91690038432657"><ele>556.0</ele><time>2026-05-02T13:23:30Z</time></trkpt><trkpt lat="43.9951208602541" lon="10.916664870435751"><ele>547.5</ele><time>2026-05-02T13:23:31Z</time></trkpt><trkpt lat="43.994926555537006" lon="10.916432102339643"><ele>539.0</ele><time>2026-05-02T13:23:32Z</time></trkpt><trkpt lat="43.99473416378836" lon="10.916201924933098"><ele>539.0</ele><time>2026-05-02T13:23:33Z</time></trkpt><trkpt lat="43.99453980571991" lon="10.915992832562507"><ele>539.0</ele><time>2026-05-02T13:23:34Z</time></trkpt><trkpt lat="43.99436555152757" lon="10.915742672032742"><ele>545.5</ele><time>2026-05-02T13:23:35Z</time></trkpt><trkpt lat="43.99421136634072" lon="10.915475482358756"><ele>552.0</ele><time>2026-05-02T13:23:36Z</time></trkpt><trkpt lat="43.99407526932285" lon="10.915227524961965"><ele>548.0</ele><time>2026-05-02T13:23:37Z</time></trkpt><trkpt lat="43.99393168027193" lon="10.915002830683582"><ele>544.0</ele><time>2026-05-02T13:23:38Z</time></trkpt><trkpt lat="43.99377195389777" lon="10.914807173467498"><ele>540.0</ele><time>2026-05-02T13:23:39Z</time></trkpt><trkpt lat="43.99358581550126" lon="10.914634324083886"><ele>540.0</ele><time>2026-05-02T13:23:40Z</time></trkpt><trkpt lat="43.99337559266212" lon="10.914469924907939"><ele>540.0</ele><time>2026-05-02T13:23:41Z</time></trkpt><trkpt lat="43.9931567417324" lon="10.91430850198576"><ele>539.0</ele><time>2026-05-02T13:23:42Z</time></trkpt><trkpt lat="43.99291346649843" lon="10.914157687479046"><ele>538.0</ele><time>2026-05-02T13:23:43Z</time></trkpt><trkpt lat="43.99267384151851" lon="10.914034885053526"><ele>528.0</ele><time>2026-05-02T13:23:44Z</time></trkpt><trkpt lat="43.992448716249115" lon="10.913918842908629"><ele>518.0</ele><time>2026-05-02T13:23:45Z</time></trkpt><trkpt lat="43.99223935152323" lon="10.913791170107393"><ele>518.0</ele><time>2026-05-02T13:23:46Z</time></trkpt><trkpt lat="43.99204228370519" lon="10.91364440609571"><ele>518.0</ele><time>2026-05-02T13:23:47Z</time></trkpt><trkpt lat="43.99184908931878" lon="10.913468060190855"><ele>518.0</ele><time>2026-05-02T13:23:48Z</time></trkpt><trkpt lat="43.99165858986301" lon="10.913262327506857"><ele>518.0</ele><time>2026-05-02T13:23:49Z</time></trkpt><trkpt lat="43.991475192909895" lon="10.913083042330964"><ele>518.0</ele><time>2026-05-02T13:23:50Z</time></trkpt><trkpt lat="43.991271833260434" lon="10.912941524455277"><ele>518.0</ele><time>2026-05-02T13:23:51Z</time></trkpt><trkpt lat="43.99104959248255" lon="10.912828072963904"><ele>515.6666666666666</ele><time>2026-05-02T13:23:52Z</time></trkpt><trkpt lat="43.99083409078565" lon="10.912732924335298"><ele>513.3333333333334</ele><time>2026-05-02T13:23:53Z</time></trkpt><trkpt lat="43.99062569934633" lon="10.912640090351093"><ele>511.0</ele><time>2026-05-02T13:23:54Z</time></trkpt><trkpt lat="43.99043244184655" lon="10.91253063360072"><ele>511.0</ele><time>2026-05-02T13:23:55Z</time></trkpt><trkpt lat="43.99023304052461" lon="10.912409469434863"><ele>511.0</ele><time>2026-05-02T13:23:56Z</time></trkpt><trkpt lat="43.99003698763643" lon="10.912264457488023"><ele>511.0</ele><time>2026-05-02T13:23:57Z</time></trkpt><trkpt lat="43.98985588608496" lon="10.912117148031514"><ele>508.33333333333337</ele><time>2026-05-02T13:23:58Z</time></trkpt><trkpt lat="43.98968076812967" lon="10.911971349819947"><ele>505.66666666666663</ele><time>2026-05-02T13:23:59Z</time></trkpt><trkpt lat="43.989537263520155" lon="10.911783119927302"><ele>503.0</ele><time>2026-05-02T13:24:00Z</time></trkpt><trkpt lat="43.98941494300165" lon="10.911585718094257"><ele>503.0</ele><time>2026-05-02T13:24:01Z</time></trkpt><trkpt lat="43.98930874371317" lon="10.911352927374107"><ele>503.0</ele><time>2026-05-02T13:24:02Z</time></trkpt><trkpt lat="43.989216612143416" lon="10.911092347286026"><ele>503.0</ele><time>2026-05-02T13:24:03Z</time></trkpt><trkpt lat="43.989161204927115" lon="10.910827318721951"><ele>500.3333333333333</ele><time>2026-05-02T13:24:04Z</time></trkpt><trkpt lat="43.98909236655041" lon="10.910603241810657"><ele>497.66666666666663</ele><time>2026-05-02T13:24:05Z</time></trkpt><trkpt lat="43.98900120997833" lon="10.910424184834833"><ele>495.0</ele><time>2026-05-02T13:24:06Z</time></trkpt><trkpt lat="43.98889057565365" lon="10.910295644390484"><ele>495.0</ele><time>2026-05-02T13:24:07Z</time></trkpt><trkpt lat="43.98875949487711" lon="10.910211048449893"><ele>495.0</ele><time>2026-05-02T13:24:08Z</time></trkpt><trkpt lat="43.988618578026546" lon="10.910195001963032"><ele>495.0</ele><time>2026-05-02T13:24:09Z</time></trkpt><trkpt lat="43.98849095556677" lon="10.910250904723043"><ele>495.0</ele><time>2026-05-02T13:24:10Z</time></trkpt><trkpt lat="43.98839760239008" lon="10.910371671499437"><ele>495.0</ele><time>2026-05-02T13:24:11Z</time></trkpt><trkpt lat="43.98835046428561" lon="10.910554998667967"><ele>495.0</ele><time>2026-05-02T13:24:12Z</time></trkpt><trkpt lat="43.98834331657827" lon="10.910769911364312"><ele>495.0</ele><time>2026-05-02T13:24:13Z</time></trkpt><trkpt lat="43.988383776793725" lon="10.911016518509976"><ele>494.0</ele><time>2026-05-02T13:24:14Z</time></trkpt><trkpt lat="43.98845862852638" lon="10.91128021372358"><ele>493.0</ele><time>2026-05-02T13:24:15Z</time></trkpt><trkpt lat="43.98855866609818" lon="10.911552426208091"><ele>492.0</ele><time>2026-05-02T13:24:16Z</time></trkpt><trkpt lat="43.988680434225934" lon="10.911798918184761"><ele>486.33333333333337</ele><time>2026-05-02T13:24:17Z</time></trkpt><trkpt lat="43.98879831337805" lon="10.912029536008488"><ele>480.6666666666667</ele><time>2026-05-02T13:24:18Z</time></trkpt><trkpt lat="43.98892448963041" lon="10.912237706801742"><ele>475.0</ele><time>2026-05-02T13:24:19Z</time></trkpt><trkpt lat="43.989042387842936" lon="10.91243735850467"><ele>476.33333333333337</ele><time>2026-05-02T13:24:20Z</time></trkpt><trkpt lat="43.98912774103325" lon="10.912652388672479"><ele>477.66666666666663</ele><time>2026-05-02T13:24:21Z</time></trkpt><trkpt lat="43.989197394350526" lon="10.912873758071674"><ele>479.0</ele><time>2026-05-02T13:24:22Z</time></trkpt><trkpt lat="43.989250181537315" lon="10.913094778885993"><ele>479.0</ele><time>2026-05-02T13:24:23Z</time></trkpt><trkpt lat="43.98928652239246" lon="10.913299482026503"><ele>479.0</ele><time>2026-05-02T13:24:24Z</time></trkpt><trkpt lat="43.98931912558034" lon="10.913496237116817"><ele>479.0</ele><time>2026-05-02T13:24:25Z</time></trkpt><trkpt lat="43.98934498441449" lon="10.913682694527228"><ele>479.0</ele><time>2026-05-02T13:24:26Z</time></trkpt><trkpt lat="43.989335268933445" lon="10.91387327877043"><ele>473.0</ele><time>2026-05-02T13:24:27Z</time></trkpt><trkpt lat="43.98933411108584" lon="10.914086213184087"><ele>467.0</ele><time>2026-05-02T13:24:28Z</time></trkpt><trkpt lat="43.9893247042535" lon="10.914316865567804"><ele>461.0</ele><time>2026-05-02T13:24:29Z</time></trkpt><trkpt lat="43.98931974336979" lon="10.914562812124496"><ele>454.66666666666663</ele><time>2026-05-02T13:24:30Z</time></trkpt><trkpt lat="43.98929421811414" lon="10.914815844347695"><ele>448.33333333333337</ele><time>2026-05-02T13:24:31Z</time></trkpt><trkpt lat="43.98926286048348" lon="10.915048043255629"><ele>442.0</ele><time>2026-05-02T13:24:32Z</time></trkpt><trkpt lat="43.98923396720219" lon="10.915268979316286"><ele>447.0</ele><time>2026-05-02T13:24:32.999Z</time></trkpt><trkpt lat="43.98918106121143" lon="10.91547020808865"><ele>452.0</ele><time>2026-05-02T13:24:33.999Z</time></trkpt><trkpt lat="43.9890829794183" lon="10.915633873080882"><ele>457.0</ele><time>2026-05-02T13:24:34.999Z</time></trkpt><trkpt lat="43.9889558998695" lon="10.915753751417993"><ele>457.0</ele><time>2026-05-02T13:24:35.999Z</time></trkpt><trkpt lat="43.988796928753295" lon="10.91583096642138"><ele>457.0</ele><time>2026-05-02T13:24:36.999Z</time></trkpt><trkpt lat="43.98861592017972" lon="10.915867163913465"><ele>457.0</ele><time>2026-05-02T13:24:37.999Z</time></trkpt><trkpt lat="43.98842227121539" lon="10.9158728566815"><ele>457.0</ele><time>2026-05-02T13:24:38.999Z</time></trkpt><trkpt lat="43.9882307931299" lon="10.915835439360961"><ele>457.0</ele><time>2026-05-02T13:24:39.999Z</time></trkpt><trkpt lat="43.98804240314108" lon="10.915739806926622"><ele>457.0</ele><time>2026-05-02T13:24:40.999Z</time></trkpt><trkpt lat="43.98786459246908" lon="10.915594314629809"><ele>457.0</ele><time>2026-05-02T13:24:41.999Z</time></trkpt><trkpt lat="43.98769620951619" lon="10.91541035562034"><ele>457.0</ele><time>2026-05-02T13:24:42.999Z</time></trkpt><trkpt lat="43.987546544623214" lon="10.915207621264226"><ele>457.0</ele><time>2026-05-02T13:24:43.999Z</time></trkpt><trkpt lat="43.98743690511658" lon="10.915018786914088"><ele>455.5</ele><time>2026-05-02T13:24:44.999Z</time></trkpt><trkpt lat="43.987371185912316" lon="10.914841988185145"><ele>454.0</ele><time>2026-05-02T13:24:45.999Z</time></trkpt><trkpt lat="43.987340652863494" lon="10.914667305518499"><ele>452.5</ele><time>2026-05-02T13:24:46.999Z</time></trkpt><trkpt lat="43.98734675917428" lon="10.91447776728989"><ele>451.0</ele><time>2026-05-02T13:24:47.999Z</time></trkpt><trkpt lat="43.987418004868424" lon="10.91430681908348"><ele>453.33333333333337</ele><time>2026-05-02T13:24:48.999Z</time></trkpt><trkpt lat="43.98751646763" lon="10.914136367182714"><ele>455.66666666666663</ele><time>2026-05-02T13:24:49.999Z</time></trkpt><trkpt lat="43.98764139994417" lon="10.913971637839584"><ele>458.0</ele><time>2026-05-02T13:24:50.999Z</time></trkpt><trkpt lat="43.98780966177561" lon="10.913837000137027"><ele>458.0</ele><time>2026-05-02T13:24:51.999Z</time></trkpt><trkpt lat="43.98796758234182" lon="10.913685034216876"><ele>458.0</ele><time>2026-05-02T13:24:52.999Z</time></trkpt><trkpt lat="43.98811767258827" lon="10.913571874643164"><ele>458.0</ele><time>2026-05-02T13:24:53.999Z</time></trkpt><trkpt lat="43.98824145049597" lon="10.913455676109619"><ele>460.75</ele><time>2026-05-02T13:24:54.999Z</time></trkpt><trkpt lat="43.98833032238623" lon="10.913325504559129"><ele>463.5</ele><time>2026-05-02T13:24:55.999Z</time></trkpt><trkpt lat="43.98837840042347" lon="10.91316276576872"><ele>466.25</ele><time>2026-05-02T13:24:56.999Z</time></trkpt><trkpt lat="43.98839124870209" lon="10.912987238806492"><ele>469.0</ele><time>2026-05-02T13:24:57.999Z</time></trkpt><trkpt lat="43.98830711765849" lon="10.912797500645679"><ele>463.33333333333337</ele><time>2026-05-02T13:24:58.999Z</time></trkpt><trkpt lat="43.98820401278133" lon="10.912604008419686"><ele>457.66666666666663</ele><time>2026-05-02T13:24:59.999Z</time></trkpt><trkpt lat="43.988058865448586" lon="10.91239337577343"><ele>452.0</ele><time>2026-05-02T13:25:00.999Z</time></trkpt><trkpt lat="43.987894545163556" lon="10.912172189293498"><ele>452.0</ele><time>2026-05-02T13:25:01.999Z</time></trkpt><trkpt lat="43.987708520024434" lon="10.91197755826918"><ele>452.0</ele><time>2026-05-02T13:25:02.999Z</time></trkpt><trkpt lat="43.98746105071457" lon="10.911760858538113"><ele>448.0</ele><time>2026-05-02T13:25:03.999Z</time></trkpt><trkpt lat="43.98722202869629" lon="10.911556748383664"><ele>444.0</ele><time>2026-05-02T13:25:04.999Z</time></trkpt><trkpt lat="43.987019151064146" lon="10.911363729655333"><ele>444.0</ele><time>2026-05-02T13:25:05.999Z</time></trkpt><trkpt lat="43.98684951899355" lon="10.911165632978658"><ele>444.0</ele><time>2026-05-02T13:25:06.999Z</time></trkpt><trkpt lat="43.986726856018684" lon="10.910983653589852"><ele>444.0</ele><time>2026-05-02T13:25:07.999Z</time></trkpt><trkpt lat="43.98663401750127" lon="10.91079154147076"><ele>439.25</ele><time>2026-05-02T13:25:08.999Z</time></trkpt><trkpt lat="43.98657948164035" lon="10.910625456861982"><ele>434.5</ele><time>2026-05-02T13:25:09.999Z</time></trkpt><trkpt lat="43.98655180705273" lon="10.910428724884607"><ele>429.75</ele><time>2026-05-02T13:25:10.999Z</time></trkpt><trkpt lat="43.986572196372336" lon="10.91028094891442"><ele>425.0</ele><time>2026-05-02T13:25:11.999Z</time></trkpt><trkpt lat="43.98663787267947" lon="10.91013038602374"><ele>433.5</ele><time>2026-05-02T13:25:12.999Z</time></trkpt><trkpt lat="43.986711372450905" lon="10.909938388621963"><ele>442.0</ele><time>2026-05-02T13:25:13.999Z</time></trkpt><trkpt lat="43.98676236453015" lon="10.90977479243511"><ele>450.5</ele><time>2026-05-02T13:25:14.999Z</time></trkpt><trkpt lat="43.98677012918836" lon="10.90959473880613"><ele>459.0</ele><time>2026-05-02T13:25:15.999Z</time></trkpt><trkpt lat="43.98668417143927" lon="10.90945685088614"><ele>449.0</ele><time>2026-05-02T13:25:16.999Z</time></trkpt><trkpt lat="43.98657709076832" lon="10.909381496602807"><ele>439.0</ele><time>2026-05-02T13:25:17.999Z</time></trkpt><trkpt lat="43.98642900799015" lon="10.90937819109334"><ele>429.0</ele><time>2026-05-02T13:25:18.999Z</time></trkpt><trkpt lat="43.98624617195768" lon="10.909353881730242"><ele>429.0</ele><time>2026-05-02T13:25:19.999Z</time></trkpt><trkpt lat="43.98606069760461" lon="10.909392573504098"><ele>429.0</ele><time>2026-05-02T13:25:20.999Z</time></trkpt><trkpt lat="43.98588507542263" lon="10.90942157582629"><ele>429.0</ele><time>2026-05-02T13:25:21.999Z</time></trkpt><trkpt lat="43.985674910292836" lon="10.909413555143837"><ele>416.0</ele><time>2026-05-02T13:25:22.999Z</time></trkpt><trkpt lat="43.985465131649846" lon="10.909340767427883"><ele>403.0</ele><time>2026-05-02T13:25:24Z</time></trkpt><trkpt lat="43.985215571153134" lon="10.909254431534654"><ele>405.0</ele><time>2026-05-02T13:25:25Z</time></trkpt><trkpt lat="43.985004173213454" lon="10.909178007459285"><ele>407.0</ele><time>2026-05-02T13:25:26Z</time></trkpt><trkpt lat="43.98482722770708" lon="10.909103855536214"><ele>409.0</ele><time>2026-05-02T13:25:27Z</time></trkpt><trkpt lat="43.98471633316496" lon="10.90897375267965"><ele>409.0</ele><time>2026-05-02T13:25:28Z</time></trkpt><trkpt lat="43.98463905939301" lon="10.908870742265416"><ele>409.0</ele><time>2026-05-02T13:25:29Z</time></trkpt><trkpt lat="43.98456985510294" lon="10.908698887603384"><ele>409.0</ele><time>2026-05-02T13:25:30Z</time></trkpt><trkpt lat="43.98454770686269" lon="10.908510953186308"><ele>409.0</ele><time>2026-05-02T13:25:31Z</time></trkpt><trkpt lat="43.98455731922661" lon="10.908278801006864"><ele>412.33333333333337</ele><time>2026-05-02T13:25:32Z</time></trkpt><trkpt lat="43.984564586864394" lon="10.907953694821792"><ele>415.66666666666663</ele><time>2026-05-02T13:25:33Z</time></trkpt><trkpt lat="43.984565690857636" lon="10.90766166460269"><ele>419.0</ele><time>2026-05-02T13:25:34Z</time></trkpt><trkpt lat="43.98456298261903" lon="10.907386522264055"><ele>421.3333333333333</ele><time>2026-05-02T13:25:35Z</time></trkpt><trkpt lat="43.98456084918343" lon="10.907088602801732"><ele>423.66666666666663</ele><time>2026-05-02T13:25:36Z</time></trkpt><trkpt lat="43.984563750611656" lon="10.906823390762165"><ele>426.0</ele><time>2026-05-02T13:25:37Z</time></trkpt><trkpt lat="43.98455253456524" lon="10.90657642939886"><ele>427.75</ele><time>2026-05-02T13:25:38Z</time></trkpt><trkpt lat="43.984517262067016" lon="10.906393712213749"><ele>429.5</ele><time>2026-05-02T13:25:39Z</time></trkpt><trkpt lat="43.98444232016455" lon="10.906239116194628"><ele>431.25</ele><time>2026-05-02T13:25:40Z</time></trkpt><trkpt lat="43.98433639628923" lon="10.906148843793293"><ele>433.0</ele><time>2026-05-02T13:25:41Z</time></trkpt><trkpt lat="43.9841961945482" lon="10.906166471585452"><ele>418.6666666666667</ele><time>2026-05-02T13:25:42Z</time></trkpt><trkpt lat="43.984042607356145" lon="10.906171180473685"><ele>404.33333333333337</ele><time>2026-05-02T13:25:43Z</time></trkpt><trkpt lat="43.98388405597112" lon="10.906112589693366"><ele>390.0</ele><time>2026-05-02T13:25:44Z</time></trkpt><trkpt lat="43.98362211399605" lon="10.906020317076528"><ele>390.0</ele><time>2026-05-02T13:25:45Z</time></trkpt><trkpt lat="43.98338721725114" lon="10.90593909861859"><ele>390.0</ele><time>2026-05-02T13:25:46Z</time></trkpt><trkpt lat="43.98316728793757" lon="10.905866532095565"><ele>392.66666666666663</ele><time>2026-05-02T13:25:47Z</time></trkpt><trkpt lat="43.982946979749094" lon="10.905792705660694"><ele>395.3333333333333</ele><time>2026-05-02T13:25:48Z</time></trkpt><trkpt lat="43.98274825975616" lon="10.905765555630907"><ele>398.0</ele><time>2026-05-02T13:25:49Z</time></trkpt><trkpt lat="43.9825917631792" lon="10.905710040874984"><ele>389.3333333333333</ele><time>2026-05-02T13:25:50Z</time></trkpt><trkpt lat="43.982429775291244" lon="10.905618657977314"><ele>380.66666666666663</ele><time>2026-05-02T13:25:51Z</time></trkpt><trkpt lat="43.98232696467963" lon="10.905507460023005"><ele>372.0</ele><time>2026-05-02T13:25:52Z</time></trkpt><trkpt lat="43.982257828046926" lon="10.905325379072561"><ele>372.0</ele><time>2026-05-02T13:25:53Z</time></trkpt><trkpt lat="43.98221999879342" lon="10.905130953064067"><ele>372.0</ele><time>2026-05-02T13:25:54Z</time></trkpt><trkpt lat="43.98219924806753" lon="10.904891764284308"><ele>372.0</ele><time>2026-05-02T13:25:55Z</time></trkpt><trkpt lat="43.982191892199026" lon="10.904605839510193"><ele>377.5</ele><time>2026-05-02T13:25:56Z</time></trkpt><trkpt lat="43.98219577469566" lon="10.904280708502323"><ele>383.0</ele><time>2026-05-02T13:25:57Z</time></trkpt><trkpt lat="43.98220815370333" lon="10.903918201074804"><ele>383.5</ele><time>2026-05-02T13:25:58Z</time></trkpt><trkpt lat="43.98222807054814" lon="10.90351535344257"><ele>384.0</ele><time>2026-05-02T13:25:59Z</time></trkpt><trkpt lat="43.982250737232555" lon="10.90308091797655"><ele>381.0</ele><time>2026-05-02T13:26:00Z</time></trkpt><trkpt lat="43.98225999813516" lon="10.902664930490072"><ele>378.0</ele><time>2026-05-02T13:26:01Z</time></trkpt><trkpt lat="43.982293154902344" lon="10.902255481460644"><ele>370.0</ele><time>2026-05-02T13:26:02Z</time></trkpt><trkpt lat="43.98231547654093" lon="10.901879873105027"><ele>362.0</ele><time>2026-05-02T13:26:03Z</time></trkpt><trkpt lat="43.98233211497083" lon="10.901550566882904"><ele>360.0</ele><time>2026-05-02T13:26:04Z</time></trkpt><trkpt lat="43.98234817841712" lon="10.901262779538351"><ele>358.0</ele><time>2026-05-02T13:26:05Z</time></trkpt><trkpt lat="43.98236131747665" lon="10.901007461368282"><ele>356.0</ele><time>2026-05-02T13:26:06Z</time></trkpt><trkpt lat="43.982374033446796" lon="10.900802607797196"><ele>353.75</ele><time>2026-05-02T13:26:07Z</time></trkpt><trkpt lat="43.98235528152002" lon="10.900666557036876"><ele>351.5</ele><time>2026-05-02T13:26:08Z</time></trkpt><trkpt lat="43.98230383152774" lon="10.900497823324745"><ele>349.25</ele><time>2026-05-02T13:26:09Z</time></trkpt><trkpt lat="43.98221278713613" lon="10.900380268052372"><ele>347.0</ele><time>2026-05-02T13:26:10Z</time></trkpt><trkpt lat="43.98207774987772" lon="10.90032359695058"><ele>347.0</ele><time>2026-05-02T13:26:11Z</time></trkpt><trkpt lat="43.98192683281474" lon="10.90032871676796"><ele>347.0</ele><time>2026-05-02T13:26:12Z</time></trkpt><trkpt lat="43.981780697613125" lon="10.9004036836306"><ele>347.0</ele><time>2026-05-02T13:26:13Z</time></trkpt><trkpt lat="43.98165277523189" lon="10.90056044105366"><ele>344.0</ele><time>2026-05-02T13:26:14Z</time></trkpt><trkpt lat="43.98156543719095" lon="10.900772647687786"><ele>341.0</ele><time>2026-05-02T13:26:15Z</time></trkpt><trkpt lat="43.9815299593777" lon="10.9010072854201"><ele>338.0</ele><time>2026-05-02T13:26:16Z</time></trkpt><trkpt lat="43.98153765081029" lon="10.901269544724057"><ele>338.0</ele><time>2026-05-02T13:26:17Z</time></trkpt><trkpt lat="43.981598656235775" lon="10.901542008393536"><ele>338.0</ele><time>2026-05-02T13:26:18Z</time></trkpt><trkpt lat="43.98164067079248" lon="10.901804588254077"><ele>338.0</ele><time>2026-05-02T13:26:19Z</time></trkpt><trkpt lat="43.98166752961823" lon="10.902042511055656"><ele>338.0</ele><time>2026-05-02T13:26:20Z</time></trkpt><trkpt lat="43.981652913325966" lon="10.902272426577598"><ele>338.0</ele><time>2026-05-02T13:26:21Z</time></trkpt><trkpt lat="43.98159571988513" lon="10.902485329344719"><ele>338.0</ele><time>2026-05-02T13:26:22Z</time></trkpt><trkpt lat="43.98149195086409" lon="10.902646403704955"><ele>341.0</ele><time>2026-05-02T13:26:23Z</time></trkpt><trkpt lat="43.98135833485738" lon="10.902785383038061"><ele>344.0</ele><time>2026-05-02T13:26:24Z</time></trkpt><trkpt lat="43.98120912982078" lon="10.902944242394367"><ele>347.0</ele><time>2026-05-02T13:26:25Z</time></trkpt><trkpt lat="43.981073528083165" lon="10.903087149104703"><ele>347.0</ele><time>2026-05-02T13:26:26Z</time></trkpt><trkpt lat="43.980964710353014" lon="10.903256297896293"><ele>347.0</ele><time>2026-05-02T13:26:27Z</time></trkpt><trkpt lat="43.98087291761045" lon="10.90343199147573"><ele>347.0</ele><time>2026-05-02T13:26:28Z</time></trkpt><trkpt lat="43.98080306499772" lon="10.90361875393545"><ele>339.6666666666667</ele><time>2026-05-02T13:26:29Z</time></trkpt><trkpt lat="43.98076204279667" lon="10.903822452685171"><ele>332.3333333333333</ele><time>2026-05-02T13:26:30Z</time></trkpt><trkpt lat="43.98074552988321" lon="10.904064778082581"><ele>325.0</ele><time>2026-05-02T13:26:31Z</time></trkpt><trkpt lat="43.98073857053041" lon="10.904320597862139"><ele>325.0</ele><time>2026-05-02T13:26:32Z</time></trkpt><trkpt lat="43.98070606633369" lon="10.90454719327896"><ele>325.0</ele><time>2026-05-02T13:26:33Z</time></trkpt><trkpt lat="43.980698711037775" lon="10.90476788053228"><ele>325.0</ele><time>2026-05-02T13:26:34Z</time></trkpt><trkpt lat="43.98067870245254" lon="10.904976553241251"><ele>325.25</ele><time>2026-05-02T13:26:35Z</time></trkpt><trkpt lat="43.980645991501696" lon="10.905179808520211"><ele>325.5</ele><time>2026-05-02T13:26:35.999Z</time></trkpt><trkpt lat="43.98062798129854" lon="10.905376200303536"><ele>325.75</ele><time>2026-05-02T13:26:36.999Z</time></trkpt><trkpt lat="43.98061315334557" lon="10.905537891133307"><ele>326.0</ele><time>2026-05-02T13:26:37.999Z</time></trkpt><trkpt lat="43.98060149552884" lon="10.905665013336359"><ele>326.0</ele><time>2026-05-02T13:26:38.999Z</time></trkpt><trkpt lat="43.98059100546668" lon="10.905766329206152"><ele>326.0</ele><time>2026-05-02T13:26:39.999Z</time></trkpt><trkpt lat="43.98057634181519" lon="10.905869199980494"><ele>326.0</ele><time>2026-05-02T13:26:40.999Z</time></trkpt><trkpt lat="43.98055174386512" lon="10.905964877363001"><ele>326.0</ele><time>2026-05-02T13:26:41.999Z</time></trkpt><trkpt lat="43.98051001539595" lon="10.906043635708153"><ele>326.0</ele><time>2026-05-02T13:26:42.999Z</time></trkpt><trkpt lat="43.980452663716854" lon="10.906105387589424"><ele>326.0</ele><time>2026-05-02T13:26:43.999Z</time></trkpt><trkpt lat="43.98038319937278" lon="10.906145318171909"><ele>326.0</ele><time>2026-05-02T13:26:44.999Z</time></trkpt><trkpt lat="43.980294985117695" lon="10.906080828158503"><ele>326.0</ele><time>2026-05-02T13:26:45.999Z</time></trkpt><trkpt lat="43.980228003111066" lon="10.905985226783962"><ele>326.0</ele><time>2026-05-02T13:26:46.999Z</time></trkpt><trkpt lat="43.980181333192206" lon="10.90585666856809"><ele>326.0</ele><time>2026-05-02T13:26:47.999Z</time></trkpt><trkpt lat="43.98017232793312" lon="10.905699414682232"><ele>326.0</ele><time>2026-05-02T13:26:48.999Z</time></trkpt><trkpt lat="43.980175953928544" lon="10.90552538591458"><ele>326.0</ele><time>2026-05-02T13:26:49.999Z</time></trkpt><trkpt lat="43.98019325367766" lon="10.905349426278722"><ele>326.0</ele><time>2026-05-02T13:26:50.999Z</time></trkpt><trkpt lat="43.98021119477199" lon="10.90517832307905"><ele>326.0</ele><time>2026-05-02T13:26:51.999Z</time></trkpt><trkpt lat="43.98021073008147" lon="10.905026706419077"><ele>326.0</ele><time>2026-05-02T13:26:52.999Z</time></trkpt><trkpt lat="43.98022566045588" lon="10.90489307118091"><ele>326.0</ele><time>2026-05-02T13:26:53.999Z</time></trkpt><trkpt lat="43.98025405560095" lon="10.904764787643641"><ele>326.0</ele><time>2026-05-02T13:26:54.999Z</time></trkpt><trkpt lat="43.98025278768493" lon="10.904616726568154"><ele>325.8</ele><time>2026-05-02T13:26:55.999Z</time></trkpt><trkpt lat="43.980267660640465" lon="10.904461457959961"><ele>325.6</ele><time>2026-05-02T13:26:56.999Z</time></trkpt><trkpt lat="43.980285222226115" lon="10.904311145836521"><ele>325.4</ele><time>2026-05-02T13:26:57.999Z</time></trkpt><trkpt lat="43.98029005418875" lon="10.904165124887735"><ele>325.2</ele><time>2026-05-02T13:26:58.999Z</time></trkpt><trkpt lat="43.98028953176771" lon="10.904008319302754"><ele>325.0</ele><time>2026-05-02T13:26:59.999Z</time></trkpt><trkpt lat="43.98023352428141" lon="10.903844816328805"><ele>324.2</ele><time>2026-05-02T13:27:00.999Z</time></trkpt><trkpt lat="43.98019054724314" lon="10.903688624054759"><ele>323.4</ele><time>2026-05-02T13:27:01.999Z</time></trkpt><trkpt lat="43.98015035028093" lon="10.903548624106495"><ele>322.6</ele><time>2026-05-02T13:27:02.999Z</time></trkpt><trkpt lat="43.98013085216498" lon="10.90340758268921"><ele>321.8</ele><time>2026-05-02T13:27:03.999Z</time></trkpt><trkpt lat="43.9801010846067" lon="10.903266438930626"><ele>321.0</ele><time>2026-05-02T13:27:04.999Z</time></trkpt><trkpt lat="43.98007966314668" lon="10.903117437946593"><ele>320.75</ele><time>2026-05-02T13:27:05.999Z</time></trkpt><trkpt lat="43.98007953729931" lon="10.90295708462433"><ele>320.5</ele><time>2026-05-02T13:27:06.999Z</time></trkpt><trkpt lat="43.98011484771985" lon="10.902782206046195"><ele>320.25</ele><time>2026-05-02T13:27:07.999Z</time></trkpt><trkpt lat="43.980166424877694" lon="10.902583568366758"><ele>320.0</ele><time>2026-05-02T13:27:08.999Z</time></trkpt><trkpt lat="43.980222845836295" lon="10.90238338224406"><ele>318.25</ele><time>2026-05-02T13:27:09.999Z</time></trkpt><trkpt lat="43.98025419996976" lon="10.90219697072726"><ele>316.5</ele><time>2026-05-02T13:27:10.999Z</time></trkpt><trkpt lat="43.98028767752649" lon="10.902027323086724"><ele>314.75</ele><time>2026-05-02T13:27:11.999Z</time></trkpt><trkpt lat="43.98029771059311" lon="10.901854393905976"><ele>313.0</ele><time>2026-05-02T13:27:12.999Z</time></trkpt><trkpt lat="43.980279702718775" lon="10.90166540146143"><ele>312.0</ele><time>2026-05-02T13:27:13.999Z</time></trkpt><trkpt lat="43.980254074888" lon="10.901440646844318"><ele>311.0</ele><time>2026-05-02T13:27:14.999Z</time></trkpt><trkpt lat="43.98021413759225" lon="10.901195855240132"><ele>310.0</ele><time>2026-05-02T13:27:15.999Z</time></trkpt><trkpt lat="43.98017808297457" lon="10.900928515798439"><ele>310.3333333333333</ele><time>2026-05-02T13:27:16.999Z</time></trkpt><trkpt lat="43.98015773147364" lon="10.900663926469665"><ele>310.6666666666667</ele><time>2026-05-02T13:27:17.999Z</time></trkpt><trkpt lat="43.9801850538286" lon="10.900419274097008"><ele>311.0</ele><time>2026-05-02T13:27:18.999Z</time></trkpt><trkpt lat="43.98021643728111" lon="10.900201561546186"><ele>310.2</ele><time>2026-05-02T13:27:19.999Z</time></trkpt><trkpt lat="43.9802374440753" lon="10.900023572261913"><ele>309.40000000000003</ele><time>2026-05-02T13:27:20.999Z</time></trkpt><trkpt lat="43.98024324792392" lon="10.899862054339238"><ele>308.6</ele><time>2026-05-02T13:27:21.999Z</time></trkpt><trkpt lat="43.98022907931455" lon="10.899722716495416"><ele>307.8</ele><time>2026-05-02T13:27:22.999Z</time></trkpt><trkpt lat="43.980177297528996" lon="10.899621037446643"><ele>307.0</ele><time>2026-05-02T13:27:23.999Z</time></trkpt><trkpt lat="43.98009663841847" lon="10.89957869020171"><ele>302.8</ele><time>2026-05-02T13:27:24.999Z</time></trkpt><trkpt lat="43.980005294432324" lon="10.899604908510241"><ele>298.6</ele><time>2026-05-02T13:27:25.999Z</time></trkpt><trkpt lat="43.97992532932603" lon="10.899669782700425"><ele>294.40000000000003</ele><time>2026-05-02T13:27:26.999Z</time></trkpt><trkpt lat="43.97986457732897" lon="10.899781414318989"><ele>290.2</ele><time>2026-05-02T13:27:27.999Z</time></trkpt><trkpt lat="43.97982253697207" lon="10.8999314229735"><ele>286.0</ele><time>2026-05-02T13:27:28.999Z</time></trkpt><trkpt lat="43.979783210914675" lon="10.900090737891132"><ele>286.0</ele><time>2026-05-02T13:27:30Z</time></trkpt><trkpt lat="43.97973398809115" lon="10.900250826941951"><ele>286.0</ele><time>2026-05-02T13:27:31Z</time></trkpt><trkpt lat="43.97969561963853" lon="10.90041397735032"><ele>286.0</ele><time>2026-05-02T13:27:32Z</time></trkpt><trkpt lat="43.97967623932808" lon="10.900593014367555"><ele>286.0</ele><time>2026-05-02T13:27:33Z</time></trkpt><trkpt lat="43.97967354798022" lon="10.900758845565354"><ele>286.0</ele><time>2026-05-02T13:27:34Z</time></trkpt><trkpt lat="43.979681769029085" lon="10.9009134735702"><ele>286.0</ele><time>2026-05-02T13:27:35Z</time></trkpt><trkpt lat="43.97969562745107" lon="10.901068788705155"><ele>286.0</ele><time>2026-05-02T13:27:36Z</time></trkpt><trkpt lat="43.97970327647908" lon="10.901228310617851"><ele>286.0</ele><time>2026-05-02T13:27:37Z</time></trkpt><trkpt lat="43.979704150635555" lon="10.901381763429178"><ele>286.25</ele><time>2026-05-02T13:27:38Z</time></trkpt><trkpt lat="43.979685608925934" lon="10.90152490938677"><ele>286.5</ele><time>2026-05-02T13:27:39Z</time></trkpt><trkpt lat="43.97961673156955" lon="10.901656957522658"><ele>286.75</ele><time>2026-05-02T13:27:40Z</time></trkpt><trkpt lat="43.97951953215383" lon="10.901775598206614"><ele>287.0</ele><time>2026-05-02T13:27:41Z</time></trkpt><trkpt lat="43.97939124603073" lon="10.90187342219881"><ele>288.6666666666667</ele><time>2026-05-02T13:27:42Z</time></trkpt><trkpt lat="43.97924377821765" lon="10.90192545186295"><ele>290.3333333333333</ele><time>2026-05-02T13:27:43Z</time></trkpt><trkpt lat="43.979076772031696" lon="10.90196630322185"><ele>292.0</ele><time>2026-05-02T13:27:44Z</time></trkpt><trkpt lat="43.97889097443523" lon="10.90201512333219"><ele>287.0</ele><time>2026-05-02T13:27:45Z</time></trkpt><trkpt lat="43.97870462954359" lon="10.902065253790806"><ele>282.0</ele><time>2026-05-02T13:27:46Z</time></trkpt><trkpt lat="43.97854943565582" lon="10.902106062252583"><ele>277.0</ele><time>2026-05-02T13:27:47Z</time></trkpt><trkpt lat="43.97842497028007" lon="10.902138868213243"><ele>273.75</ele><time>2026-05-02T13:27:48Z</time></trkpt><trkpt lat="43.9783035020244" lon="10.902172656586979"><ele>270.5</ele><time>2026-05-02T13:27:49Z</time></trkpt><trkpt lat="43.978188060005664" lon="10.902204935694616"><ele>267.25</ele><time>2026-05-02T13:27:50Z</time></trkpt><trkpt lat="43.97808120054629" lon="10.902229144126103"><ele>264.0</ele><time>2026-05-02T13:27:51Z</time></trkpt><trkpt lat="43.97797187259147" lon="10.902265626182349"><ele>264.0</ele><time>2026-05-02T13:27:52Z</time></trkpt><trkpt lat="43.97784847319598" lon="10.902269718679486"><ele>264.0</ele><time>2026-05-02T13:27:53Z</time></trkpt><trkpt lat="43.97771000748818" lon="10.90226247691298"><ele>264.0</ele><time>2026-05-02T13:27:54Z</time></trkpt><trkpt lat="43.97756613216736" lon="10.902247406501365"><ele>264.0</ele><time>2026-05-02T13:27:55Z</time></trkpt><trkpt lat="43.97741739263539" lon="10.902229822399251"><ele>262.25</ele><time>2026-05-02T13:27:56Z</time></trkpt><trkpt lat="43.977277509679446" lon="10.902216136025917"><ele>260.5</ele><time>2026-05-02T13:27:57Z</time></trkpt><trkpt lat="43.97714331590346" lon="10.902210042229395"><ele>258.75</ele><time>2026-05-02T13:27:58Z</time></trkpt><trkpt lat="43.976994821816255" lon="10.902214178332418"><ele>257.0</ele><time>2026-05-02T13:27:59Z</time></trkpt><trkpt lat="43.97685571883784" lon="10.902221936219858"><ele>257.0</ele><time>2026-05-02T13:28:00Z</time></trkpt><trkpt lat="43.976725364754785" lon="10.902230239235084"><ele>257.0</ele><time>2026-05-02T13:28:01Z</time></trkpt><trkpt lat="43.97660218873856" lon="10.902236402821618"><ele>257.0</ele><time>2026-05-02T13:28:02Z</time></trkpt><trkpt lat="43.976480195470366" lon="10.90224833631686"><ele>257.0</ele><time>2026-05-02T13:28:03Z</time></trkpt><trkpt lat="43.9763600418522" lon="10.9022737933656"><ele>256.4</ele><time>2026-05-02T13:28:04Z</time></trkpt><trkpt lat="43.97624842712606" lon="10.902325323731004"><ele>255.79999999999998</ele><time>2026-05-02T13:28:05Z</time></trkpt><trkpt lat="43.976150261796164" lon="10.902390621869833"><ele>255.2</ele><time>2026-05-02T13:28:06Z</time></trkpt><trkpt lat="43.97605643331651" lon="10.902470206586033"><ele>254.6</ele><time>2026-05-02T13:28:07Z</time></trkpt><trkpt lat="43.975958318572594" lon="10.902530366540134"><ele>254.0</ele><time>2026-05-02T13:28:08Z</time></trkpt><trkpt lat="43.97584945686788" lon="10.902548109091255"><ele>254.0</ele><time>2026-05-02T13:28:09Z</time></trkpt><trkpt lat="43.97574383269441" lon="10.902551599815654"><ele>254.0</ele><time>2026-05-02T13:28:10Z</time></trkpt><trkpt lat="43.97562115649479" lon="10.902527723289243"><ele>254.0</ele><time>2026-05-02T13:28:11Z</time></trkpt><trkpt lat="43.975501933220954" lon="10.902486706263613"><ele>254.0</ele><time>2026-05-02T13:28:12Z</time></trkpt><trkpt lat="43.97535533824496" lon="10.902415055645154"><ele>254.0</ele><time>2026-05-02T13:28:13Z</time></trkpt><trkpt lat="43.975194161274885" lon="10.902329964700902"><ele>254.0</ele><time>2026-05-02T13:28:14Z</time></trkpt><trkpt lat="43.97505591553423" lon="10.902243298257025"><ele>254.0</ele><time>2026-05-02T13:28:15Z</time></trkpt><trkpt lat="43.974935094862076" lon="10.902129529951887"><ele>250.5</ele><time>2026-05-02T13:28:16Z</time></trkpt><trkpt lat="43.974821103212975" lon="10.902090427291451"><ele>247.0</ele><time>2026-05-02T13:28:17Z</time></trkpt><trkpt lat="43.97471175778008" lon="10.902085661195411"><ele>243.5</ele><time>2026-05-02T13:28:18Z</time></trkpt><trkpt lat="43.974605873229315" lon="10.902140878950568"><ele>240.0</ele><time>2026-05-02T13:28:19Z</time></trkpt><trkpt lat="43.97449166168892" lon="10.902178272042775"><ele>240.0</ele><time>2026-05-02T13:28:20Z</time></trkpt><trkpt lat="43.974383364164375" lon="10.90224243581087"><ele>240.0</ele><time>2026-05-02T13:28:21Z</time></trkpt><trkpt lat="43.97427651722873" lon="10.902296668887164"><ele>240.0</ele><time>2026-05-02T13:28:22Z</time></trkpt><trkpt lat="43.97415500015413" lon="10.902332440246697"><ele>240.0</ele><time>2026-05-02T13:28:23Z</time></trkpt><trkpt lat="43.97403108305394" lon="10.902342547188342"><ele>239.25</ele><time>2026-05-02T13:28:24Z</time></trkpt><trkpt lat="43.97390900971727" lon="10.902337154118301"><ele>238.5</ele><time>2026-05-02T13:28:25Z</time></trkpt><trkpt lat="43.9737902355911" lon="10.90232484239862"><ele>237.75</ele><time>2026-05-02T13:28:26Z</time></trkpt><trkpt lat="43.97366981493278" lon="10.902318103390257"><ele>237.0</ele><time>2026-05-02T13:28:27Z</time></trkpt><trkpt lat="43.97355841617287" lon="10.902369809604144"><ele>237.0</ele><time>2026-05-02T13:28:28Z</time></trkpt><trkpt lat="43.97345594955845" lon="10.902423929226519"><ele>237.0</ele><time>2026-05-02T13:28:29Z</time></trkpt><trkpt lat="43.973358730455104" lon="10.90248792132984"><ele>237.0</ele><time>2026-05-02T13:28:30Z</time></trkpt><trkpt lat="43.97329505537254" lon="10.902644849955056"><ele>237.0</ele><time>2026-05-02T13:28:31Z</time></trkpt><trkpt lat="43.97323352452922" lon="10.902844546863621"><ele>233.0</ele><time>2026-05-02T13:28:32Z</time></trkpt><trkpt lat="43.97315133969775" lon="10.903055933878232"><ele>229.0</ele><time>2026-05-02T13:28:33Z</time></trkpt><trkpt lat="43.9730914829484" lon="10.903253643748316"><ele>225.0</ele><time>2026-05-02T13:28:34Z</time></trkpt><trkpt lat="43.97303016983304" lon="10.903444256976579"><ele>223.5</ele><time>2026-05-02T13:28:35Z</time></trkpt><trkpt lat="43.972981914247356" lon="10.903634521794713"><ele>222.0</ele><time>2026-05-02T13:28:36Z</time></trkpt><trkpt lat="43.97290788292565" lon="10.903800253735362"><ele>220.5</ele><time>2026-05-02T13:28:37Z</time></trkpt><trkpt lat="43.97282155616167" lon="10.903950969314659"><ele>219.0</ele><time>2026-05-02T13:28:38Z</time></trkpt><trkpt lat="43.972714916544994" lon="10.904068056680854"><ele>219.0</ele><time>2026-05-02T13:28:39Z</time></trkpt><trkpt lat="43.972579305712" lon="10.904113386478747"><ele>219.0</ele><time>2026-05-02T13:28:40Z</time></trkpt><trkpt lat="43.97243541195386" lon="10.90415977638492"><ele>219.0</ele><time>2026-05-02T13:28:41Z</time></trkpt><trkpt lat="43.972266806541626" lon="10.904125860030224"><ele>219.33333333333331</ele><time>2026-05-02T13:28:42Z</time></trkpt><trkpt lat="43.97208919221767" lon="10.904082123510515"><ele>219.66666666666666</ele><time>2026-05-02T13:28:43Z</time></trkpt><trkpt lat="43.97190590064322" lon="10.90402182146684"><ele>220.0</ele><time>2026-05-02T13:28:44Z</time></trkpt><trkpt lat="43.97171255888468" lon="10.90395564533224"><ele>217.33333333333331</ele><time>2026-05-02T13:28:45Z</time></trkpt><trkpt lat="43.971501192800545" lon="10.903883299886495"><ele>214.66666666666669</ele><time>2026-05-02T13:28:46Z</time></trkpt><trkpt lat="43.97128938603701" lon="10.9038307677596"><ele>212.0</ele><time>2026-05-02T13:28:47Z</time></trkpt><trkpt lat="43.971100187069595" lon="10.903758945675346"><ele>212.0</ele><time>2026-05-02T13:28:48Z</time></trkpt><trkpt lat="43.97091739719185" lon="10.903702822614926"><ele>212.0</ele><time>2026-05-02T13:28:49Z</time></trkpt><trkpt lat="43.970744176410356" lon="10.903645075224572"><ele>212.0</ele><time>2026-05-02T13:28:49.999Z</time></trkpt><trkpt lat="43.97057158849302" lon="10.903587770082854"><ele>212.0</ele><time>2026-05-02T13:28:50.999Z</time></trkpt><trkpt lat="43.9703858655051" lon="10.903500611184091"><ele>212.0</ele><time>2026-05-02T13:28:51.999Z</time></trkpt><trkpt lat="43.97020492172766" lon="10.903438500856975"><ele>212.0</ele><time>2026-05-02T13:28:52.999Z</time></trkpt><trkpt lat="43.97003575809851" lon="10.903399586262255"><ele>210.0</ele><time>2026-05-02T13:28:53.999Z</time></trkpt><trkpt lat="43.969885497071466" lon="10.903355420384889"><ele>208.0</ele><time>2026-05-02T13:28:54.999Z</time></trkpt><trkpt lat="43.96973915048725" lon="10.903331414761388"><ele>206.0</ele><time>2026-05-02T13:28:55.999Z</time></trkpt><trkpt lat="43.969592976118996" lon="10.903340116184811"><ele>204.0</ele><time>2026-05-02T13:28:56.999Z</time></trkpt><trkpt lat="43.96944865488924" lon="10.903367448177763"><ele>201.66666666666669</ele><time>2026-05-02T13:28:57.999Z</time></trkpt><trkpt lat="43.96930592572283" lon="10.903418735467381"><ele>199.33333333333334</ele><time>2026-05-02T13:28:58.999Z</time></trkpt><trkpt lat="43.96913685083845" lon="10.903509357219985"><ele>197.0</ele><time>2026-05-02T13:28:59.999Z</time></trkpt><trkpt lat="43.9689501661434" lon="10.903624814009508"><ele>196.0</ele><time>2026-05-02T13:29:00.999Z</time></trkpt><trkpt lat="43.96875734368556" lon="10.903761883640442"><ele>195.0</ele><time>2026-05-02T13:29:01.999Z</time></trkpt><trkpt lat="43.96857941291842" lon="10.903909327567591"><ele>194.0</ele><time>2026-05-02T13:29:02.999Z</time></trkpt><trkpt lat="43.9684222785955" lon="10.904073596709065"><ele>194.0</ele><time>2026-05-02T13:29:03.999Z</time></trkpt><trkpt lat="43.96828909315074" lon="10.904247126755456"><ele>194.0</ele><time>2026-05-02T13:29:04.999Z</time></trkpt><trkpt lat="43.968179317696354" lon="10.904431764198684"><ele>194.0</ele><time>2026-05-02T13:29:05.999Z</time></trkpt><trkpt lat="43.968105744107575" lon="10.904651037769169"><ele>194.0</ele><time>2026-05-02T13:29:06.999Z</time></trkpt><trkpt lat="43.96800985319194" lon="10.904907605495787"><ele>194.0</ele><time>2026-05-02T13:29:07.999Z</time></trkpt><trkpt lat="43.96793669997164" lon="10.905179205240776"><ele>194.0</ele><time>2026-05-02T13:29:08.999Z</time></trkpt><trkpt lat="43.96789152899631" lon="10.905430774719116"><ele>191.33333333333334</ele><time>2026-05-02T13:29:09.999Z</time></trkpt><trkpt lat="43.967828224960634" lon="10.90565742638889"><ele>188.66666666666669</ele><time>2026-05-02T13:29:10.999Z</time></trkpt><trkpt lat="43.96776275925335" lon="10.905867444573529"><ele>186.0</ele><time>2026-05-02T13:29:11.999Z</time></trkpt><trkpt lat="43.967693823049764" lon="10.906067130555597"><ele>186.75</ele><time>2026-05-02T13:29:12.999Z</time></trkpt><trkpt lat="43.96760724984322" lon="10.906243112167267"><ele>187.5</ele><time>2026-05-02T13:29:13.999Z</time></trkpt><trkpt lat="43.96750427867376" lon="10.906368529371662"><ele>188.25</ele><time>2026-05-02T13:29:14.999Z</time></trkpt><trkpt lat="43.96737906003288" lon="10.906417585971155"><ele>189.0</ele><time>2026-05-02T13:29:15.999Z</time></trkpt><trkpt lat="43.96723598865419" lon="10.906416618477769"><ele>189.0</ele><time>2026-05-02T13:29:16.999Z</time></trkpt><trkpt lat="43.967090444616204" lon="10.906345092374714"><ele>189.0</ele><time>2026-05-02T13:29:17.999Z</time></trkpt><trkpt lat="43.9669279798579" lon="10.906257214101162"><ele>189.0</ele><time>2026-05-02T13:29:18.999Z</time></trkpt><trkpt lat="43.9667579418441" lon="10.90612112548945"><ele>186.33333333333334</ele><time>2026-05-02T13:29:19.999Z</time></trkpt><trkpt lat="43.96659008931822" lon="10.906010812925395"><ele>183.66666666666669</ele><time>2026-05-02T13:29:20.999Z</time></trkpt><trkpt lat="43.966440482760554" lon="10.90595042825693"><ele>181.0</ele><time>2026-05-02T13:29:21.999Z</time></trkpt><trkpt lat="43.96628413255771" lon="10.905961856798951"><ele>181.0</ele><time>2026-05-02T13:29:22.999Z</time></trkpt><trkpt lat="43.96613881660218" lon="10.90604085833805"><ele>181.0</ele><time>2026-05-02T13:29:23.999Z</time></trkpt><trkpt lat="43.96602221476275" lon="10.906187014067966"><ele>181.0</ele><time>2026-05-02T13:29:24.999Z</time></trkpt><trkpt lat="43.96593295371221" lon="10.906341377739356"><ele>180.0</ele><time>2026-05-02T13:29:25.999Z</time></trkpt><trkpt lat="43.96579728289315" lon="10.90641848274402"><ele>179.0</ele><time>2026-05-02T13:29:26.999Z</time></trkpt><trkpt lat="43.96564133782988" lon="10.906461779095387"><ele>178.0</ele><time>2026-05-02T13:29:27.999Z</time></trkpt><trkpt lat="43.96546738556068" lon="10.906461898341016"><ele>178.0</ele><time>2026-05-02T13:29:28.999Z</time></trkpt><trkpt lat="43.965272133574246" lon="10.906421798384182"><ele>178.0</ele><time>2026-05-02T13:29:29.999Z</time></trkpt><trkpt lat="43.965063273510964" lon="10.906398854225863"><ele>178.0</ele><time>2026-05-02T13:29:30.999Z</time></trkpt><trkpt lat="43.964865608241496" lon="10.906364883537293"><ele>177.33333333333334</ele><time>2026-05-02T13:29:31.999Z</time></trkpt><trkpt lat="43.96468290714152" lon="10.906281211579756"><ele>176.66666666666666</ele><time>2026-05-02T13:29:32.999Z</time></trkpt><trkpt lat="43.96451407326497" lon="10.906142722636691"><ele>176.0</ele><time>2026-05-02T13:29:33.999Z</time></trkpt><trkpt lat="43.96433765729541" lon="10.905993388319509"><ele>175.0</ele><time>2026-05-02T13:29:34.999Z</time></trkpt><trkpt lat="43.964160985622314" lon="10.905813793930351"><ele>174.0</ele><time>2026-05-02T13:29:36Z</time></trkpt><trkpt lat="43.96398603472455" lon="10.90565052665802"><ele>173.0</ele><time>2026-05-02T13:29:37Z</time></trkpt><trkpt lat="43.96381007715496" lon="10.905503440937977"><ele>173.0</ele><time>2026-05-02T13:29:38Z</time></trkpt><trkpt lat="43.96365464654225" lon="10.905335886940946"><ele>173.0</ele><time>2026-05-02T13:29:39Z</time></trkpt><trkpt lat="43.96350583677868" lon="10.905191994028987"><ele>173.0</ele><time>2026-05-02T13:29:40Z</time></trkpt><trkpt lat="43.96336628771444" lon="10.905057011130639"><ele>170.5</ele><time>2026-05-02T13:29:41Z</time></trkpt><trkpt lat="43.96327047850353" lon="10.904879614765612"><ele>168.0</ele><time>2026-05-02T13:29:42Z</time></trkpt><trkpt lat="43.963228569619005" lon="10.904690034359621"><ele>165.5</ele><time>2026-05-02T13:29:43Z</time></trkpt><trkpt lat="43.96323387351928" lon="10.904492717309044"><ele>163.0</ele><time>2026-05-02T13:29:44Z</time></trkpt><trkpt lat="43.96331854587089" lon="10.904328083616937"><ele>167.66666666666669</ele><time>2026-05-02T13:29:45Z</time></trkpt><trkpt lat="43.96341254161548" lon="10.90414091769918"><ele>172.33333333333334</ele><time>2026-05-02T13:29:46Z</time></trkpt><trkpt lat="43.96350512736433" lon="10.90396386382159"><ele>177.0</ele><time>2026-05-02T13:29:47Z</time></trkpt><trkpt lat="43.96358430460359" lon="10.903784968075348"><ele>177.0</ele><time>2026-05-02T13:29:48Z</time></trkpt><trkpt lat="43.96362391604413" lon="10.903591571676847"><ele>177.0</ele><time>2026-05-02T13:29:49Z</time></trkpt><trkpt lat="43.96361577490598" lon="10.903372084619141"><ele>177.0</ele><time>2026-05-02T13:29:50Z</time></trkpt><trkpt lat="43.96357660108486" lon="10.903155140701863"><ele>174.33333333333334</ele><time>2026-05-02T13:29:51Z</time></trkpt><trkpt lat="43.963518575946935" lon="10.902927457148808"><ele>171.66666666666669</ele><time>2026-05-02T13:29:52Z</time></trkpt><trkpt lat="43.9633948164676" lon="10.902750216425952"><ele>169.0</ele><time>2026-05-02T13:29:53Z</time></trkpt><trkpt lat="43.963270959473405" lon="10.90257787537144"><ele>166.0</ele><time>2026-05-02T13:29:54Z</time></trkpt><trkpt lat="43.963099640441555" lon="10.90246858853658"><ele>163.0</ele><time>2026-05-02T13:29:55Z</time></trkpt><trkpt lat="43.96292436172035" lon="10.902370184823472"><ele>160.0</ele><time>2026-05-02T13:29:56Z</time></trkpt><trkpt lat="43.96273992817198" lon="10.902304041740337"><ele>160.0</ele><time>2026-05-02T13:29:57Z</time></trkpt><trkpt lat="43.962546225816276" lon="10.902271946219109"><ele>160.0</ele><time>2026-05-02T13:29:58Z</time></trkpt><trkpt lat="43.96235906590278" lon="10.902258326847436"><ele>160.0</ele><time>2026-05-02T13:29:59Z</time></trkpt><trkpt lat="43.9621836872264" lon="10.902253236619474"><ele>155.33333333333334</ele><time>2026-05-02T13:30:00Z</time></trkpt><trkpt lat="43.96201856279882" lon="10.902216478443432"><ele>150.66666666666666</ele><time>2026-05-02T13:30:01Z</time></trkpt><trkpt lat="43.96185751267742" lon="10.90219905695384"><ele>146.0</ele><time>2026-05-02T13:30:02Z</time></trkpt><trkpt lat="43.961701301654216" lon="10.902200661755703"><ele>144.25</ele><time>2026-05-02T13:30:03Z</time></trkpt><trkpt lat="43.96154937200602" lon="10.902179151722686"><ele>142.5</ele><time>2026-05-02T13:30:04Z</time></trkpt><trkpt lat="43.961403607909006" lon="10.902159836091199"><ele>140.75</ele><time>2026-05-02T13:30:05Z</time></trkpt><trkpt lat="43.96126534123791" lon="10.902140920870577"><ele>139.0</ele><time>2026-05-02T13:30:06Z</time></trkpt><trkpt lat="43.96113094615317" lon="10.902125632966685"><ele>139.0</ele><time>2026-05-02T13:30:07Z</time></trkpt><trkpt lat="43.96100073294455" lon="10.902112407333583"><ele>139.0</ele><time>2026-05-02T13:30:08Z</time></trkpt><trkpt lat="43.96087537703797" lon="10.902105211806658"><ele>139.0</ele><time>2026-05-02T13:30:09Z</time></trkpt><trkpt lat="43.960754029558544" lon="10.902098877101201"><ele>139.0</ele><time>2026-05-02T13:30:10Z</time></trkpt><trkpt lat="43.960637867491215" lon="10.902089923109134"><ele>137.5</ele><time>2026-05-02T13:30:11Z</time></trkpt><trkpt lat="43.96052636324824" lon="10.902074141552065"><ele>136.0</ele><time>2026-05-02T13:30:12Z</time></trkpt><trkpt lat="43.96040614382426" lon="10.902058612056676"><ele>134.5</ele><time>2026-05-02T13:30:13Z</time></trkpt><trkpt lat="43.96028146454441" lon="10.902044079433221"><ele>133.0</ele><time>2026-05-02T13:30:14Z</time></trkpt><trkpt lat="43.96015239234506" lon="10.902030432787615"><ele>132.0</ele><time>2026-05-02T13:30:15Z</time></trkpt><trkpt lat="43.96002124037436" lon="10.902016572181191"><ele>131.0</ele><time>2026-05-02T13:30:16Z</time></trkpt><trkpt lat="43.95989674786471" lon="10.902000939592943"><ele>130.0</ele><time>2026-05-02T13:30:17Z</time></trkpt><trkpt lat="43.95977652958881" lon="10.901991160039112"><ele>129.0</ele><time>2026-05-02T13:30:18Z</time></trkpt><trkpt lat="43.959661233258544" lon="10.901982407355401"><ele>129.0</ele><time>2026-05-02T13:30:19Z</time></trkpt><trkpt lat="43.959540580526664" lon="10.901952952425242"><ele>129.0</ele><time>2026-05-02T13:30:20Z</time></trkpt><trkpt lat="43.95941311110843" lon="10.901931090530312"><ele>129.0</ele><time>2026-05-02T13:30:21Z</time></trkpt><trkpt lat="43.95928209604532" lon="10.901921426898673"><ele>129.0</ele><time>2026-05-02T13:30:22Z</time></trkpt><trkpt lat="43.959146140408244" lon="10.901916639881602"><ele>126.5</ele><time>2026-05-02T13:30:23Z</time></trkpt><trkpt lat="43.95901035644081" lon="10.901903382437848"><ele>124.0</ele><time>2026-05-02T13:30:24Z</time></trkpt><trkpt lat="43.95888120460254" lon="10.901890524545689"><ele>121.5</ele><time>2026-05-02T13:30:25Z</time></trkpt><trkpt lat="43.95876078782914" lon="10.901876679237104"><ele>119.0</ele><time>2026-05-02T13:30:26Z</time></trkpt><trkpt lat="43.958648382374896" lon="10.901857782961935"><ele>119.0</ele><time>2026-05-02T13:30:27Z</time></trkpt><trkpt lat="43.958549458950664" lon="10.901793250213569"><ele>119.0</ele><time>2026-05-02T13:30:28Z</time></trkpt><trkpt lat="43.958465455901965" lon="10.901735714899804"><ele>119.0</ele><time>2026-05-02T13:30:29Z</time></trkpt><trkpt lat="43.958398999696705" lon="10.901506943896242"><ele>119.0</ele><time>2026-05-02T13:30:30Z</time></trkpt><trkpt lat="43.95833718121545" lon="10.901307555273368"><ele>120.0</ele><time>2026-05-02T13:30:31Z</time></trkpt><trkpt lat="43.95827844357387" lon="10.901102563408164"><ele>121.0</ele><time>2026-05-02T13:30:32Z</time></trkpt><trkpt lat="43.95818988997921" lon="10.900894061395567"><ele>122.0</ele><time>2026-05-02T13:30:33Z</time></trkpt><trkpt lat="43.958103536447794" lon="10.900677141274544"><ele>122.0</ele><time>2026-05-02T13:30:34Z</time></trkpt><trkpt lat="43.95801085461828" lon="10.900448708604104"><ele>122.0</ele><time>2026-05-02T13:30:35Z</time></trkpt><trkpt lat="43.95790985182944" lon="10.900218452547781"><ele>122.0</ele><time>2026-05-02T13:30:36Z</time></trkpt><trkpt lat="43.95779992359111" lon="10.899990900551767"><ele>122.66666666666666</ele><time>2026-05-02T13:30:37Z</time></trkpt><trkpt lat="43.95767764720836" lon="10.899774922673384"><ele>123.33333333333334</ele><time>2026-05-02T13:30:38Z</time></trkpt><trkpt lat="43.95755328776946" lon="10.899568125871564"><ele>124.0</ele><time>2026-05-02T13:30:39Z</time></trkpt><trkpt lat="43.95741909709698" lon="10.899371737939246"><ele>120.0</ele><time>2026-05-02T13:30:40Z</time></trkpt><trkpt lat="43.95729612432815" lon="10.899155707617844"><ele>116.0</ele><time>2026-05-02T13:30:41Z</time></trkpt><trkpt lat="43.957102295976505" lon="10.899025762742946"><ele>112.0</ele><time>2026-05-02T13:30:42Z</time></trkpt><trkpt lat="43.95692304144104" lon="10.898887552935584"><ele>112.0</ele><time>2026-05-02T13:30:43Z</time></trkpt><trkpt lat="43.95673044115767" lon="10.898774595149352"><ele>112.0</ele><time>2026-05-02T13:30:44Z</time></trkpt><trkpt lat="43.95653268824415" lon="10.898672846579277"><ele>112.0</ele><time>2026-05-02T13:30:45Z</time></trkpt><trkpt lat="43.95633007583352" lon="10.898581254657564"><ele>111.0</ele><time>2026-05-02T13:30:46Z</time></trkpt><trkpt lat="43.956123712221896" lon="10.898496175712031"><ele>110.0</ele><time>2026-05-02T13:30:47Z</time></trkpt><trkpt lat="43.95591105540674" lon="10.89842022947454"><ele>109.0</ele><time>2026-05-02T13:30:48Z</time></trkpt><trkpt lat="43.9556937956468" lon="10.898353905351263"><ele>105.0</ele><time>2026-05-02T13:30:49Z</time></trkpt><trkpt lat="43.95547349035048" lon="10.89828188957576"><ele>101.0</ele><time>2026-05-02T13:30:50Z</time></trkpt><trkpt lat="43.95525306791628" lon="10.89820343965174"><ele>102.0</ele><time>2026-05-02T13:30:51Z</time></trkpt><trkpt lat="43.95503088739307" lon="10.89812523260173"><ele>103.0</ele><time>2026-05-02T13:30:52Z</time></trkpt><trkpt lat="43.95480938558818" lon="10.898055836018505"><ele>103.0</ele><time>2026-05-02T13:30:53Z</time></trkpt><trkpt lat="43.954582537190404" lon="10.897985229084563"><ele>103.0</ele><time>2026-05-02T13:30:54Z</time></trkpt><trkpt lat="43.954353669573315" lon="10.897906515464207"><ele>102.0</ele><time>2026-05-02T13:30:55Z</time></trkpt><trkpt lat="43.95412376699004" lon="10.897830475063046"><ele>101.0</ele><time>2026-05-02T13:30:56Z</time></trkpt><trkpt lat="43.953890594145825" lon="10.897758112668045"><ele>101.0</ele><time>2026-05-02T13:30:57Z</time></trkpt><trkpt lat="43.95365564964955" lon="10.89768807405389"><ele>101.0</ele><time>2026-05-02T13:30:58Z</time></trkpt><trkpt lat="43.95341940722048" lon="10.897616288673197"><ele>99.5</ele><time>2026-05-02T13:30:59Z</time></trkpt><trkpt lat="43.95318316803607" lon="10.897539566436524"><ele>98.0</ele><time>2026-05-02T13:31:00Z</time></trkpt><trkpt lat="43.95294677563557" lon="10.897461449878909"><ele>98.0</ele><time>2026-05-02T13:31:01Z</time></trkpt><trkpt lat="43.95271205532454" lon="10.897383318637324"><ele>98.0</ele><time>2026-05-02T13:31:02Z</time></trkpt><trkpt lat="43.95247732329078" lon="10.897309006006168"><ele>98.5</ele><time>2026-05-02T13:31:03Z</time></trkpt><trkpt lat="43.9522434140352" lon="10.897237220486272"><ele>99.0</ele><time>2026-05-02T13:31:04Z</time></trkpt><trkpt lat="43.952010177915064" lon="10.897165532275032"><ele>99.0</ele><time>2026-05-02T13:31:05Z</time></trkpt><trkpt lat="43.95177782595936" lon="10.897093545495625"><ele>99.0</ele><time>2026-05-02T13:31:06Z</time></trkpt><trkpt lat="43.951545304723105" lon="10.897018541381623"><ele>98.0</ele><time>2026-05-02T13:31:07Z</time></trkpt><trkpt lat="43.95131422230461" lon="10.896943320338579"><ele>97.0</ele><time>2026-05-02T13:31:08Z</time></trkpt><trkpt lat="43.951084764457676" lon="10.896869565044799"><ele>97.0</ele><time>2026-05-02T13:31:09Z</time></trkpt><trkpt lat="43.950856205322864" lon="10.896796529184611"><ele>97.0</ele><time>2026-05-02T13:31:10Z</time></trkpt><trkpt lat="43.9506275039235" lon="10.896725240005507"><ele>96.0</ele><time>2026-05-02T13:31:11Z</time></trkpt><trkpt lat="43.950398691495806" lon="10.896653894264915"><ele>95.0</ele><time>2026-05-02T13:31:12Z</time></trkpt><trkpt lat="43.95017042670411" lon="10.896581536219134"><ele>95.0</ele><time>2026-05-02T13:31:13Z</time></trkpt><trkpt lat="43.94994391041273" lon="10.89650305709357"><ele>95.0</ele><time>2026-05-02T13:31:14Z</time></trkpt><trkpt lat="43.94971767076514" lon="10.896426120405234"><ele>95.0</ele><time>2026-05-02T13:31:15Z</time></trkpt><trkpt lat="43.94949062868501" lon="10.89635612802245"><ele>95.0</ele><time>2026-05-02T13:31:15.999Z</time></trkpt><trkpt lat="43.9492636680662" lon="10.89628617088064"><ele>94.5</ele><time>2026-05-02T13:31:16.999Z</time></trkpt><trkpt lat="43.949039016350795" lon="10.896215731656106"><ele>94.0</ele><time>2026-05-02T13:31:17.999Z</time></trkpt><trkpt lat="43.94881846953736" lon="10.89614527352385"><ele>94.0</ele><time>2026-05-02T13:31:18.999Z</time></trkpt><trkpt lat="43.94860099764447" lon="10.896075236688485"><ele>94.0</ele><time>2026-05-02T13:31:19.999Z</time></trkpt><trkpt lat="43.948385160298514" lon="10.896006243905855"><ele>94.0</ele><time>2026-05-02T13:31:20.999Z</time></trkpt><trkpt lat="43.94816800390771" lon="10.895936242387595"><ele>93.0</ele><time>2026-05-02T13:31:21.999Z</time></trkpt><trkpt lat="43.94794982636021" lon="10.895865681194529"><ele>92.0</ele><time>2026-05-02T13:31:22.999Z</time></trkpt><trkpt lat="43.94773141389642" lon="10.895793712317403"><ele>91.0</ele><time>2026-05-02T13:31:23.999Z</time></trkpt><trkpt lat="43.94751385719874" lon="10.895721250953262"><ele>90.66666666666666</ele><time>2026-05-02T13:31:24.999Z</time></trkpt><trkpt lat="43.94729707590835" lon="10.895647918722515"><ele>90.33333333333333</ele><time>2026-05-02T13:31:25.999Z</time></trkpt><trkpt lat="43.94708101883188" lon="10.895572948383656"><ele>90.0</ele><time>2026-05-02T13:31:26.999Z</time></trkpt><trkpt lat="43.94686639602338" lon="10.895495734759145"><ele>89.66666666666667</ele><time>2026-05-02T13:31:27.999Z</time></trkpt><trkpt lat="43.94665140661769" lon="10.895419953249672"><ele>89.33333333333334</ele><time>2026-05-02T13:31:28.999Z</time></trkpt><trkpt lat="43.94643656146479" lon="10.89534612389845"><ele>89.0</ele><time>2026-05-02T13:31:29.999Z</time></trkpt><trkpt lat="43.94622113656372" lon="10.89527304212488"><ele>89.0</ele><time>2026-05-02T13:31:30.999Z</time></trkpt><trkpt lat="43.946006227393276" lon="10.89519735045888"><ele>89.0</ele><time>2026-05-02T13:31:31.999Z</time></trkpt><trkpt lat="43.945791545564305" lon="10.895121601211065"><ele>89.0</ele><time>2026-05-02T13:31:32.999Z</time></trkpt><trkpt lat="43.94557739826539" lon="10.895046519090815"><ele>88.33333333333334</ele><time>2026-05-02T13:31:33.999Z</time></trkpt><trkpt lat="43.94536462638344" lon="10.894975556234218"><ele>87.66666666666667</ele><time>2026-05-02T13:31:34.999Z</time></trkpt><trkpt lat="43.9451526975713" lon="10.894908199720271"><ele>87.0</ele><time>2026-05-02T13:31:35.999Z</time></trkpt><trkpt lat="43.94494250329901" lon="10.894839304818904"><ele>86.0</ele><time>2026-05-02T13:31:36.999Z</time></trkpt><trkpt lat="43.944735388928926" lon="10.894772127369022"><ele>85.0</ele><time>2026-05-02T13:31:37.999Z</time></trkpt><trkpt lat="43.944528221723886" lon="10.894707744223602"><ele>84.0</ele><time>2026-05-02T13:31:38.999Z</time></trkpt><trkpt lat="43.94431799080191" lon="10.894646858621146"><ele>84.33333333333333</ele><time>2026-05-02T13:31:39.999Z</time></trkpt><trkpt lat="43.94410368648484" lon="10.894578085550904"><ele>84.66666666666666</ele><time>2026-05-02T13:31:40.999Z</time></trkpt><trkpt lat="43.943892931290144" lon="10.894507446804878"><ele>85.0</ele><time>2026-05-02T13:31:42Z</time></trkpt><trkpt lat="43.9436807891112" lon="10.894440915367074"><ele>85.0</ele><time>2026-05-02T13:31:43Z</time></trkpt><trkpt lat="43.943466518386316" lon="10.894369660729872"><ele>85.0</ele><time>2026-05-02T13:31:44Z</time></trkpt><trkpt lat="43.943249090747" lon="10.89429219707819"><ele>85.0</ele><time>2026-05-02T13:31:45Z</time></trkpt><trkpt lat="43.943027455745636" lon="10.894212843354879"><ele>86.0</ele><time>2026-05-02T13:31:46Z</time></trkpt><trkpt lat="43.94280224544975" lon="10.894136947065691"><ele>87.0</ele><time>2026-05-02T13:31:47Z</time></trkpt><trkpt lat="43.9425745371906" lon="10.89406124184764"><ele>86.0</ele><time>2026-05-02T13:31:48Z</time></trkpt><trkpt lat="43.94234645444078" lon="10.893985496123197"><ele>85.0</ele><time>2026-05-02T13:31:49Z</time></trkpt><trkpt lat="43.94212871086279" lon="10.893911562082303"><ele>85.0</ele><time>2026-05-02T13:31:50Z</time></trkpt><trkpt lat="43.94192362908753" lon="10.89384152926727"><ele>85.0</ele><time>2026-05-02T13:31:51Z</time></trkpt><trkpt lat="43.941722185509754" lon="10.893772539079269"><ele>85.0</ele><time>2026-05-02T13:31:52Z</time></trkpt><trkpt lat="43.941519094281695" lon="10.893704712101828"><ele>84.33333333333333</ele><time>2026-05-02T13:31:53Z</time></trkpt><trkpt lat="43.941315107159134" lon="10.893638770467394"><ele>83.66666666666667</ele><time>2026-05-02T13:31:54Z</time></trkpt><trkpt lat="43.94111146820742" lon="10.893573130991825"><ele>83.0</ele><time>2026-05-02T13:31:55Z</time></trkpt><trkpt lat="43.94091041047786" lon="10.89350704982951"><ele>82.66666666666667</ele><time>2026-05-02T13:31:56Z</time></trkpt><trkpt lat="43.94071385183586" lon="10.893448012269834"><ele>82.33333333333333</ele><time>2026-05-02T13:31:57Z</time></trkpt><trkpt lat="43.940521198977834" lon="10.89339969938043"><ele>82.0</ele><time>2026-05-02T13:31:58Z</time></trkpt><trkpt lat="43.94033291453938" lon="10.89336473524083"><ele>82.0</ele><time>2026-05-02T13:31:59Z</time></trkpt><trkpt lat="43.94014639521889" lon="10.893337927700232"><ele>82.0</ele><time>2026-05-02T13:32:00Z</time></trkpt><trkpt lat="43.93995733234565" lon="10.893318009053946"><ele>82.0</ele><time>2026-05-02T13:32:01Z</time></trkpt><trkpt lat="43.93976761797919" lon="10.893307018839614"><ele>82.0</ele><time>2026-05-02T13:32:02Z</time></trkpt><trkpt lat="43.93957435271034" lon="10.893301940739734"><ele>82.0</ele><time>2026-05-02T13:32:03Z</time></trkpt><trkpt lat="43.93937693900516" lon="10.893298816888048"><ele>82.0</ele><time>2026-05-02T13:32:04Z</time></trkpt><trkpt lat="43.939177306067606" lon="10.893296208664614"><ele>82.0</ele><time>2026-05-02T13:32:05Z</time></trkpt><trkpt lat="43.93897400984229" lon="10.893294188744301"><ele>82.0</ele><time>2026-05-02T13:32:06Z</time></trkpt><trkpt lat="43.93876941066886" lon="10.893293998113263"><ele>82.0</ele><time>2026-05-02T13:32:07Z</time></trkpt><trkpt lat="43.938567333864164" lon="10.893295223545502"><ele>81.33333333333333</ele><time>2026-05-02T13:32:08Z</time></trkpt><trkpt lat="43.93836732862215" lon="10.893296361918873"><ele>80.66666666666667</ele><time>2026-05-02T13:32:09Z</time></trkpt><trkpt lat="43.93817345221279" lon="10.893296737803357"><ele>80.0</ele><time>2026-05-02T13:32:10Z</time></trkpt><trkpt lat="43.93798425960989" lon="10.89329895214074"><ele>80.0</ele><time>2026-05-02T13:32:11Z</time></trkpt><trkpt lat="43.93780450017778" lon="10.893299702463175"><ele>80.0</ele><time>2026-05-02T13:32:12Z</time></trkpt><trkpt lat="43.937631901081815" lon="10.893299334651713"><ele>80.0</ele><time>2026-05-02T13:32:13Z</time></trkpt><trkpt lat="43.937463140541574" lon="10.893298314934125"><ele>79.66666666666667</ele><time>2026-05-02T13:32:14Z</time></trkpt><trkpt lat="43.93729203188422" lon="10.893297748625653"><ele>79.33333333333333</ele><time>2026-05-02T13:32:15Z</time></trkpt><trkpt lat="43.93711803817303" lon="10.893297626834986"><ele>79.0</ele><time>2026-05-02T13:32:16Z</time></trkpt><trkpt lat="43.93694097441746" lon="10.893298605210758"><ele>79.0</ele><time>2026-05-02T13:32:17Z</time></trkpt><trkpt lat="43.93676127772807" lon="10.893297992260264"><ele>79.0</ele><time>2026-05-02T13:32:18Z</time></trkpt><trkpt lat="43.93658207271824" lon="10.893298252502658"><ele>79.0</ele><time>2026-05-02T13:32:19Z</time></trkpt><trkpt lat="43.93640252129213" lon="10.893298100046481"><ele>78.0</ele><time>2026-05-02T13:32:20Z</time></trkpt><trkpt lat="43.93622342499297" lon="10.893298263702228"><ele>77.0</ele><time>2026-05-02T13:32:21Z</time></trkpt><trkpt lat="43.93604308586772" lon="10.893299767530042"><ele>76.0</ele><time>2026-05-02T13:32:22Z</time></trkpt><trkpt lat="43.93586423921314" lon="10.8933006821223"><ele>75.66666666666666</ele><time>2026-05-02T13:32:23Z</time></trkpt><trkpt lat="43.935684068610676" lon="10.893299115102783"><ele>75.33333333333333</ele><time>2026-05-02T13:32:24Z</time></trkpt><trkpt lat="43.93550442790824" lon="10.893297243971038"><ele>75.0</ele><time>2026-05-02T13:32:25Z</time></trkpt><trkpt lat="43.935324331026834" lon="10.893297593166102"><ele>75.0</ele><time>2026-05-02T13:32:26Z</time></trkpt><trkpt lat="43.93514834609615" lon="10.893299819850256"><ele>75.0</ele><time>2026-05-02T13:32:27Z</time></trkpt><trkpt lat="43.93498049676563" lon="10.893295437426383"><ele>75.0</ele><time>2026-05-02T13:32:28Z</time></trkpt><trkpt lat="43.93481186459299" lon="10.89329082980479"><ele>74.66666666666667</ele><time>2026-05-02T13:32:29Z</time></trkpt><trkpt lat="43.934638510166344" lon="10.893289977431643"><ele>74.33333333333334</ele><time>2026-05-02T13:32:30Z</time></trkpt><trkpt lat="43.93446278210785" lon="10.893291645870104"><ele>74.0</ele><time>2026-05-02T13:32:31Z</time></trkpt><trkpt lat="43.934284575284344" lon="10.89329445431025"><ele>74.66666666666667</ele><time>2026-05-02T13:32:32Z</time></trkpt><trkpt lat="43.93410575894901" lon="10.893295271479001"><ele>75.33333333333333</ele><time>2026-05-02T13:32:33Z</time></trkpt><trkpt lat="43.933929868681794" lon="10.893296059888048"><ele>76.0</ele><time>2026-05-02T13:32:34Z</time></trkpt><trkpt lat="43.93375981716344" lon="10.893296054254854"><ele>76.0</ele><time>2026-05-02T13:32:35Z</time></trkpt><trkpt lat="43.93359024262454" lon="10.893295359847256"><ele>76.0</ele><time>2026-05-02T13:32:36Z</time></trkpt><trkpt lat="43.9334179576586" lon="10.893295947989612"><ele>76.0</ele><time>2026-05-02T13:32:37Z</time></trkpt><trkpt lat="43.93324607670892" lon="10.89329602558656"><ele>75.0</ele><time>2026-05-02T13:32:38Z</time></trkpt><trkpt lat="43.933075771757544" lon="10.893296210158251"><ele>74.0</ele><time>2026-05-02T13:32:39Z</time></trkpt><trkpt lat="43.93290772536017" lon="10.893295217882155"><ele>73.0</ele><time>2026-05-02T13:32:40Z</time></trkpt><trkpt lat="43.93273894633338" lon="10.893295706691827"><ele>73.0</ele><time>2026-05-02T13:32:41Z</time></trkpt><trkpt lat="43.93256822575676" lon="10.893296762471424"><ele>73.0</ele><time>2026-05-02T13:32:42Z</time></trkpt><trkpt lat="43.93239468837725" lon="10.893297094459806"><ele>73.0</ele><time>2026-05-02T13:32:43Z</time></trkpt><trkpt lat="43.932216267632796" lon="10.893297639526605"><ele>72.66666666666666</ele><time>2026-05-02T13:32:44Z</time></trkpt><trkpt lat="43.93203042818586" lon="10.893299047141644"><ele>72.33333333333333</ele><time>2026-05-02T13:32:45Z</time></trkpt><trkpt lat="43.93183411037735" lon="10.89330274580568"><ele>72.0</ele><time>2026-05-02T13:32:46Z</time></trkpt><trkpt lat="43.931627287108" lon="10.893306762565976"><ele>72.0</ele><time>2026-05-02T13:32:47Z</time></trkpt><trkpt lat="43.93140955399429" lon="10.893307447722137"><ele>72.0</ele><time>2026-05-02T13:32:48Z</time></trkpt><trkpt lat="43.931180691177275" lon="10.893308599708883"><ele>72.0</ele><time>2026-05-02T13:32:49Z</time></trkpt><trkpt lat="43.93094199249263" lon="10.893311952298832"><ele>71.5</ele><time>2026-05-02T13:32:50Z</time></trkpt><trkpt lat="43.9307047399113" lon="10.893313358854098"><ele>71.0</ele><time>2026-05-02T13:32:51Z</time></trkpt><trkpt lat="43.930474546992" lon="10.8933129565592"><ele>71.0</ele><time>2026-05-02T13:32:52Z</time></trkpt><trkpt lat="43.93025085331871" lon="10.893312552551452"><ele>71.0</ele><time>2026-05-02T13:32:53Z</time></trkpt><trkpt lat="43.930033056888774" lon="10.893315869658045"><ele>71.0</ele><time>2026-05-02T13:32:54Z</time></trkpt><trkpt lat="43.92981811281064" lon="10.8933239423211"><ele>70.66666666666667</ele><time>2026-05-02T13:32:55Z</time></trkpt><trkpt lat="43.929603276452504" lon="10.893339027548747"><ele>70.33333333333333</ele><time>2026-05-02T13:32:56Z</time></trkpt><trkpt lat="43.929385307395854" lon="10.893364898742028"><ele>70.0</ele><time>2026-05-02T13:32:57Z</time></trkpt><trkpt lat="43.92916327827793" lon="10.893402081057516"><ele>69.5</ele><time>2026-05-02T13:32:58Z</time></trkpt><trkpt lat="43.92893666471942" lon="10.89345251383226"><ele>69.0</ele><time>2026-05-02T13:32:59Z</time></trkpt><trkpt lat="43.928705262440396" lon="10.893515778705055"><ele>69.0</ele><time>2026-05-02T13:33:00Z</time></trkpt><trkpt lat="43.92846829481618" lon="10.893592633096265"><ele>69.0</ele><time>2026-05-02T13:33:01Z</time></trkpt><trkpt lat="43.92822775980578" lon="10.893686405261834"><ele>68.5</ele><time>2026-05-02T13:33:02Z</time></trkpt><trkpt lat="43.927985722034826" lon="10.893800621409609"><ele>68.0</ele><time>2026-05-02T13:33:03Z</time></trkpt><trkpt lat="43.927748694063084" lon="10.89393311330713"><ele>68.0</ele><time>2026-05-02T13:33:04Z</time></trkpt><trkpt lat="43.92752212074585" lon="10.894070486392321"><ele>68.0</ele><time>2026-05-02T13:33:05Z</time></trkpt><trkpt lat="43.92729410643374" lon="10.89423038450687"><ele>67.5</ele><time>2026-05-02T13:33:06Z</time></trkpt><trkpt lat="43.92707728219249" lon="10.894396215110998"><ele>67.0</ele><time>2026-05-02T13:33:07Z</time></trkpt><trkpt lat="43.92686787683081" lon="10.894572298395076"><ele>67.5</ele><time>2026-05-02T13:33:08Z</time></trkpt><trkpt lat="43.926669592684185" lon="10.894766208748273"><ele>68.0</ele><time>2026-05-02T13:33:09Z</time></trkpt><trkpt lat="43.92647621367928" lon="10.894965427296695"><ele>66.5</ele><time>2026-05-02T13:33:10Z</time></trkpt><trkpt lat="43.92628307720158" lon="10.89516373353406"><ele>65.0</ele><time>2026-05-02T13:33:11Z</time></trkpt><trkpt lat="43.92608870013436" lon="10.89535971023813"><ele>66.5</ele><time>2026-05-02T13:33:12Z</time></trkpt><trkpt lat="43.92589320908701" lon="10.895554042007634"><ele>68.0</ele><time>2026-05-02T13:33:13Z</time></trkpt><trkpt lat="43.9256976489607" lon="10.895747343606448"><ele>68.0</ele><time>2026-05-02T13:33:14Z</time></trkpt><trkpt lat="43.92550202684063" lon="10.895941968461273"><ele>68.0</ele><time>2026-05-02T13:33:15Z</time></trkpt><trkpt lat="43.92530584541144" lon="10.896138452593638"><ele>68.0</ele><time>2026-05-02T13:33:16Z</time></trkpt><trkpt lat="43.92510836466946" lon="10.896335695265863"><ele>68.0</ele><time>2026-05-02T13:33:17Z</time></trkpt><trkpt lat="43.92490845985858" lon="10.896530150072497"><ele>67.5</ele><time>2026-05-02T13:33:18Z</time></trkpt><trkpt lat="43.924707685650866" lon="10.896723134896474"><ele>67.0</ele><time>2026-05-02T13:33:19Z</time></trkpt><trkpt lat="43.92450706090869" lon="10.896921765879432"><ele>67.0</ele><time>2026-05-02T13:33:20Z</time></trkpt><trkpt lat="43.924305850872365" lon="10.89712077131756"><ele>67.0</ele><time>2026-05-02T13:33:21Z</time></trkpt><trkpt lat="43.92410332787416" lon="10.897320611173502"><ele>67.0</ele><time>2026-05-02T13:33:22Z</time></trkpt><trkpt lat="43.92390090351628" lon="10.897518838442716"><ele>67.0</ele><time>2026-05-02T13:33:23Z</time></trkpt><trkpt lat="43.92370150302284" lon="10.897717263289055"><ele>66.5</ele><time>2026-05-02T13:33:24Z</time></trkpt><trkpt lat="43.9235037176291" lon="10.89791926274462"><ele>66.0</ele><time>2026-05-02T13:33:25Z</time></trkpt><trkpt lat="43.923305017277784" lon="10.898119990000112"><ele>64.5</ele><time>2026-05-02T13:33:26Z</time></trkpt><trkpt lat="43.92310608751558" lon="10.898318684189896"><ele>63.0</ele><time>2026-05-02T13:33:27Z</time></trkpt><trkpt lat="43.92290856104644" lon="10.89851386442229"><ele>63.0</ele><time>2026-05-02T13:33:28Z</time></trkpt><trkpt lat="43.922713735267514" lon="10.898708212857068"><ele>63.0</ele><time>2026-05-02T13:33:29Z</time></trkpt><trkpt lat="43.922519526633955" lon="10.898904038426021"><ele>63.0</ele><time>2026-05-02T13:33:30Z</time></trkpt><trkpt lat="43.922325349712004" lon="10.899102365133682"><ele>63.0</ele><time>2026-05-02T13:33:31Z</time></trkpt><trkpt lat="43.92213349073792" lon="10.89930458872904"><ele>64.0</ele><time>2026-05-02T13:33:32Z</time></trkpt><trkpt lat="43.92194953253193" lon="10.899520631952043"><ele>65.0</ele><time>2026-05-02T13:33:33Z</time></trkpt><trkpt lat="43.92177738742469" lon="10.899756121702021"><ele>64.5</ele><time>2026-05-02T13:33:34Z</time></trkpt><trkpt lat="43.921611238199056" lon="10.900003663738115"><ele>64.0</ele><time>2026-05-02T13:33:35Z</time></trkpt><trkpt lat="43.92145525622971" lon="10.900261255614238"><ele>64.0</ele><time>2026-05-02T13:33:35.999Z</time></trkpt><trkpt lat="43.92131017878936" lon="10.900527231928782"><ele>64.0</ele><time>2026-05-02T13:33:36.999Z</time></trkpt><trkpt lat="43.921173208689126" lon="10.900801885029791"><ele>64.5</ele><time>2026-05-02T13:33:37.999Z</time></trkpt><trkpt lat="43.921048968742845" lon="10.901086741942066"><ele>65.0</ele><time>2026-05-02T13:33:38.999Z</time></trkpt><trkpt lat="43.92094053134319" lon="10.90138205811401"><ele>63.0</ele><time>2026-05-02T13:33:39.999Z</time></trkpt><trkpt lat="43.92084070548146" lon="10.90167999700145"><ele>61.0</ele><time>2026-05-02T13:33:40.999Z</time></trkpt><trkpt lat="43.92075575464301" lon="10.901985910887852"><ele>61.0</ele><time>2026-05-02T13:33:41.999Z</time></trkpt><trkpt lat="43.92068142303679" lon="10.902293492186338"><ele>61.0</ele><time>2026-05-02T13:33:42.999Z</time></trkpt><trkpt lat="43.92061726625754" lon="10.902602408941998"><ele>61.5</ele><time>2026-05-02T13:33:43.999Z</time></trkpt><trkpt lat="43.9205673302502" lon="10.902913546211316"><ele>62.0</ele><time>2026-05-02T13:33:44.999Z</time></trkpt><trkpt lat="43.92053031582321" lon="10.903225863573649"><ele>63.0</ele><time>2026-05-02T13:33:45.999Z</time></trkpt><trkpt lat="43.920505506291605" lon="10.903535115807237"><ele>64.0</ele><time>2026-05-02T13:33:46.999Z</time></trkpt><trkpt lat="43.92048875322318" lon="10.903840535255146"><ele>65.0</ele><time>2026-05-02T13:33:48Z</time></trkpt><trkpt lat="43.92048320679837" lon="10.904145030943718"><ele>65.0</ele><time>2026-05-02T13:33:49Z</time></trkpt><trkpt lat="43.920487318615734" lon="10.904450139844185"><ele>65.0</ele><time>2026-05-02T13:33:50Z</time></trkpt><trkpt lat="43.92049437144756" lon="10.904756854474188"><ele>65.0</ele><time>2026-05-02T13:33:51Z</time></trkpt><trkpt lat="43.920507596027086" lon="10.905066032216167"><ele>65.0</ele><time>2026-05-02T13:33:52Z</time></trkpt><trkpt lat="43.920524885729655" lon="10.90537788166001"><ele>65.0</ele><time>2026-05-02T13:33:53Z</time></trkpt><trkpt lat="43.92054175752277" lon="10.905694856589319"><ele>64.0</ele><time>2026-05-02T13:33:54Z</time></trkpt><trkpt lat="43.92055865836299" lon="10.90601679385319"><ele>63.0</ele><time>2026-05-02T13:33:55Z</time></trkpt><trkpt lat="43.92057662845603" lon="10.906343988377703"><ele>63.0</ele><time>2026-05-02T13:33:56Z</time></trkpt><trkpt lat="43.92059543206253" lon="10.906676932741826"><ele>63.0</ele><time>2026-05-02T13:33:57Z</time></trkpt><trkpt lat="43.92061680005317" lon="10.907016591893463"><ele>63.0</ele><time>2026-05-02T13:33:58Z</time></trkpt><trkpt lat="43.920637536527245" lon="10.907363512242563"><ele>63.0</ele><time>2026-05-02T13:33:59Z</time></trkpt><trkpt lat="43.920656926611244" lon="10.907715494998492"><ele>63.5</ele><time>2026-05-02T13:34:00Z</time></trkpt><trkpt lat="43.920678022255046" lon="10.908070926218716"><ele>64.0</ele><time>2026-05-02T13:34:01Z</time></trkpt><trkpt lat="43.92070180128649" lon="10.908428455558568"><ele>62.5</ele><time>2026-05-02T13:34:02Z</time></trkpt><trkpt lat="43.92072250047555" lon="10.90878711120283"><ele>61.0</ele><time>2026-05-02T13:34:03Z</time></trkpt><trkpt lat="43.92073903298097" lon="10.90914306027052"><ele>60.0</ele><time>2026-05-02T13:34:04Z</time></trkpt><trkpt lat="43.920759700038516" lon="10.909495805569984"><ele>59.0</ele><time>2026-05-02T13:34:05Z</time></trkpt><trkpt lat="43.92078291995581" lon="10.909847312786574"><ele>59.0</ele><time>2026-05-02T13:34:06Z</time></trkpt><trkpt lat="43.920804197726646" lon="10.910197269334983"><ele>59.0</ele><time>2026-05-02T13:34:07Z</time></trkpt><trkpt lat="43.92082372643658" lon="10.910546036452638"><ele>59.0</ele><time>2026-05-02T13:34:08Z</time></trkpt><trkpt lat="43.92084385443989" lon="10.91089448422064"><ele>59.0</ele><time>2026-05-02T13:34:09Z</time></trkpt><trkpt lat="43.920863943959674" lon="10.911242101183525"><ele>59.5</ele><time>2026-05-02T13:34:10Z</time></trkpt><trkpt lat="43.9208852627192" lon="10.911589114225153"><ele>60.0</ele><time>2026-05-02T13:34:11Z</time></trkpt><trkpt lat="43.92090733160526" lon="10.911935430532916"><ele>60.5</ele><time>2026-05-02T13:34:12Z</time></trkpt><trkpt lat="43.92093569129207" lon="10.912280854684942"><ele>61.0</ele><time>2026-05-02T13:34:13Z</time></trkpt><trkpt lat="43.920977849265626" lon="10.91261943182722"><ele>61.0</ele><time>2026-05-02T13:34:14Z</time></trkpt><trkpt lat="43.92102712147467" lon="10.91294032127641"><ele>61.0</ele><time>2026-05-02T13:34:15Z</time></trkpt><trkpt lat="43.92107511293042" lon="10.913247859038513"><ele>60.33333333333333</ele><time>2026-05-02T13:34:16Z</time></trkpt><trkpt lat="43.92111897041193" lon="10.913538425727335"><ele>59.66666666666667</ele><time>2026-05-02T13:34:17Z</time></trkpt><trkpt lat="43.921154356414625" lon="10.91380991654295"><ele>59.0</ele><time>2026-05-02T13:34:18Z</time></trkpt><trkpt lat="43.92119656938029" lon="10.914078433226065"><ele>59.0</ele><time>2026-05-02T13:34:19Z</time></trkpt><trkpt lat="43.92124078908045" lon="10.914338438118364"><ele>59.0</ele><time>2026-05-02T13:34:20Z</time></trkpt><trkpt lat="43.921279614814374" lon="10.91459877412923"><ele>59.0</ele><time>2026-05-02T13:34:21Z</time></trkpt><trkpt lat="43.921316627348986" lon="10.914857867053932"><ele>58.66666666666667</ele><time>2026-05-02T13:34:22Z</time></trkpt><trkpt lat="43.92135498528827" lon="10.915117237882898"><ele>58.33333333333333</ele><time>2026-05-02T13:34:23Z</time></trkpt><trkpt lat="43.92139555240362" lon="10.915374934833723"><ele>58.0</ele><time>2026-05-02T13:34:24Z</time></trkpt><trkpt lat="43.9214354285119" lon="10.915633469086789"><ele>58.0</ele><time>2026-05-02T13:34:25Z</time></trkpt><trkpt lat="43.921477410347364" lon="10.915893017080858"><ele>58.0</ele><time>2026-05-02T13:34:26Z</time></trkpt><trkpt lat="43.92151986053215" lon="10.916151314097524"><ele>58.0</ele><time>2026-05-02T13:34:27Z</time></trkpt><trkpt lat="43.92155666085289" lon="10.916405509763957"><ele>58.0</ele><time>2026-05-02T13:34:28Z</time></trkpt><trkpt lat="43.92159192981604" lon="10.916646798451104"><ele>58.0</ele><time>2026-05-02T13:34:29Z</time></trkpt><trkpt lat="43.92162393950128" lon="10.916878393084973"><ele>58.0</ele><time>2026-05-02T13:34:30Z</time></trkpt><trkpt lat="43.92164175257454" lon="10.91708259171457"><ele>58.2</ele><time>2026-05-02T13:34:31Z</time></trkpt><trkpt lat="43.92163155969303" lon="10.917249405334339"><ele>58.4</ele><time>2026-05-02T13:34:32Z</time></trkpt><trkpt lat="43.921594759396825" lon="10.91737162503766"><ele>58.60000000000001</ele><time>2026-05-02T13:34:33Z</time></trkpt><trkpt lat="43.921552347372625" lon="10.917459330094898"><ele>58.800000000000004</ele><time>2026-05-02T13:34:34Z</time></trkpt><trkpt lat="43.92148898757013" lon="10.917559022153368"><ele>59.0</ele><time>2026-05-02T13:34:36Z</time></trkpt><trkpt lat="43.9214495985589" lon="10.917640539611062"><ele>56.0</ele><time>2026-05-02T13:34:38Z</time></trkpt><trkpt lat="43.92141735620866" lon="10.917735515246365"><ele>56.0</ele><time>2026-05-02T13:34:40Z</time></trkpt></trkseg></trk></gpx>